<?xml version="1.0" encoding="UTF-8" standalone="no" ?>
<gpx xmlns="http://www.topografix.com/GPX/1/1" xmlns:xsi="http://www.w3.org/2001/XMLSchema-instance" xsi:schemaLocation="http://www.topografix.com/GPX/1/1 http://www.topografix.com/GPX/1/1/gpx.xsd" version="1.1" creator="VisuGPX - https://www.visugpx.com">
  <metadata>
    <name>Randonnée de Spicheren -Alsting</name>
    <desc><![CDATA[Passage par la Kreutzeck]]></desc>
  </metadata>
  <trk>
    <name><![CDATA[Randonnée de Spicheren -Alsting_1]]></name>
    <trkseg>
      <trkpt lat="49.1918" lon="6.9615">
        <ele>345</ele>
        <time>2011-01-23T07:53:05Z</time>
      </trkpt>
      <trkpt lat="49.19176" lon="6.96191">
        <ele>338</ele>
        <time>2011-01-23T07:53:27Z</time>
      </trkpt>
      <trkpt lat="49.19176" lon="6.96194">
        <ele>337</ele>
        <time>2011-01-23T07:53:28Z</time>
      </trkpt>
      <trkpt lat="49.19175" lon="6.96196">
        <ele>337</ele>
        <time>2011-01-23T07:53:29Z</time>
      </trkpt>
      <trkpt lat="49.19174" lon="6.96198">
        <ele>337</ele>
        <time>2011-01-23T07:53:30Z</time>
      </trkpt>
      <trkpt lat="49.19174" lon="6.96199">
        <ele>336</ele>
        <time>2011-01-23T07:53:31Z</time>
      </trkpt>
      <trkpt lat="49.19173" lon="6.96201">
        <ele>336</ele>
        <time>2011-01-23T07:53:32Z</time>
      </trkpt>
      <trkpt lat="49.19173" lon="6.96204">
        <ele>335</ele>
        <time>2011-01-23T07:53:33Z</time>
      </trkpt>
      <trkpt lat="49.19173" lon="6.96206">
        <ele>335</ele>
        <time>2011-01-23T07:53:34Z</time>
      </trkpt>
      <trkpt lat="49.19173" lon="6.96207">
        <ele>335</ele>
        <time>2011-01-23T07:53:35Z</time>
      </trkpt>
      <trkpt lat="49.19172" lon="6.96209">
        <ele>335</ele>
        <time>2011-01-23T07:53:36Z</time>
      </trkpt>
      <trkpt lat="49.19172" lon="6.96211">
        <ele>335</ele>
        <time>2011-01-23T07:53:37Z</time>
      </trkpt>
      <trkpt lat="49.19171" lon="6.96213">
        <ele>334</ele>
        <time>2011-01-23T07:53:38Z</time>
      </trkpt>
      <trkpt lat="49.1917" lon="6.96215">
        <ele>334</ele>
        <time>2011-01-23T07:53:39Z</time>
      </trkpt>
      <trkpt lat="49.1917" lon="6.96217">
        <ele>334</ele>
        <time>2011-01-23T07:53:40Z</time>
      </trkpt>
      <trkpt lat="49.19168" lon="6.96219">
        <ele>334</ele>
        <time>2011-01-23T07:53:41Z</time>
      </trkpt>
      <trkpt lat="49.19167" lon="6.9622">
        <ele>333</ele>
        <time>2011-01-23T07:53:42Z</time>
      </trkpt>
      <trkpt lat="49.19167" lon="6.96222">
        <ele>333</ele>
        <time>2011-01-23T07:53:43Z</time>
      </trkpt>
      <trkpt lat="49.19167" lon="6.96224">
        <ele>333</ele>
        <time>2011-01-23T07:53:44Z</time>
      </trkpt>
      <trkpt lat="49.19167" lon="6.96227">
        <ele>333</ele>
        <time>2011-01-23T07:53:45Z</time>
      </trkpt>
      <trkpt lat="49.19167" lon="6.96229">
        <ele>333</ele>
        <time>2011-01-23T07:53:46Z</time>
      </trkpt>
      <trkpt lat="49.19165" lon="6.9623">
        <ele>332</ele>
        <time>2011-01-23T07:53:47Z</time>
      </trkpt>
      <trkpt lat="49.19166" lon="6.96232">
        <ele>332</ele>
        <time>2011-01-23T07:53:48Z</time>
      </trkpt>
      <trkpt lat="49.19166" lon="6.96235">
        <ele>332</ele>
        <time>2011-01-23T07:53:49Z</time>
      </trkpt>
      <trkpt lat="49.19166" lon="6.96237">
        <ele>332</ele>
        <time>2011-01-23T07:53:50Z</time>
      </trkpt>
      <trkpt lat="49.19166" lon="6.96239">
        <ele>332</ele>
        <time>2011-01-23T07:53:51Z</time>
      </trkpt>
      <trkpt lat="49.19166" lon="6.96242">
        <ele>332</ele>
        <time>2011-01-23T07:53:52Z</time>
      </trkpt>
      <trkpt lat="49.19167" lon="6.96244">
        <ele>332</ele>
        <time>2011-01-23T07:53:53Z</time>
      </trkpt>
      <trkpt lat="49.19166" lon="6.96246">
        <ele>332</ele>
        <time>2011-01-23T07:53:54Z</time>
      </trkpt>
      <trkpt lat="49.19167" lon="6.96249">
        <ele>332</ele>
        <time>2011-01-23T07:53:55Z</time>
      </trkpt>
      <trkpt lat="49.19167" lon="6.96251">
        <ele>332</ele>
        <time>2011-01-23T07:53:56Z</time>
      </trkpt>
      <trkpt lat="49.19167" lon="6.96253">
        <ele>332</ele>
        <time>2011-01-23T07:53:57Z</time>
      </trkpt>
      <trkpt lat="49.19167" lon="6.96256">
        <ele>332</ele>
        <time>2011-01-23T07:53:58Z</time>
      </trkpt>
      <trkpt lat="49.19167" lon="6.96259">
        <ele>332</ele>
        <time>2011-01-23T07:53:59Z</time>
      </trkpt>
      <trkpt lat="49.19167" lon="6.96261">
        <ele>332</ele>
        <time>2011-01-23T07:54:00Z</time>
      </trkpt>
      <trkpt lat="49.19167" lon="6.96263">
        <ele>332</ele>
        <time>2011-01-23T07:54:01Z</time>
      </trkpt>
      <trkpt lat="49.19167" lon="6.96266">
        <ele>332</ele>
        <time>2011-01-23T07:54:02Z</time>
      </trkpt>
      <trkpt lat="49.19167" lon="6.96268">
        <ele>332</ele>
        <time>2011-01-23T07:54:03Z</time>
      </trkpt>
      <trkpt lat="49.19167" lon="6.9627">
        <ele>332</ele>
        <time>2011-01-23T07:54:04Z</time>
      </trkpt>
      <trkpt lat="49.19167" lon="6.96273">
        <ele>332</ele>
        <time>2011-01-23T07:54:05Z</time>
      </trkpt>
      <trkpt lat="49.19167" lon="6.96275">
        <ele>332</ele>
        <time>2011-01-23T07:54:06Z</time>
      </trkpt>
      <trkpt lat="49.19167" lon="6.96277">
        <ele>332</ele>
        <time>2011-01-23T07:54:07Z</time>
      </trkpt>
      <trkpt lat="49.19167" lon="6.9628">
        <ele>332</ele>
        <time>2011-01-23T07:54:08Z</time>
      </trkpt>
      <trkpt lat="49.19167" lon="6.96282">
        <ele>332</ele>
        <time>2011-01-23T07:54:09Z</time>
      </trkpt>
      <trkpt lat="49.19167" lon="6.96284">
        <ele>332</ele>
        <time>2011-01-23T07:54:10Z</time>
      </trkpt>
      <trkpt lat="49.19167" lon="6.96286">
        <ele>332</ele>
        <time>2011-01-23T07:54:11Z</time>
      </trkpt>
      <trkpt lat="49.19167" lon="6.96288">
        <ele>332</ele>
        <time>2011-01-23T07:54:12Z</time>
      </trkpt>
      <trkpt lat="49.19167" lon="6.9629">
        <ele>332</ele>
        <time>2011-01-23T07:54:13Z</time>
      </trkpt>
      <trkpt lat="49.19167" lon="6.96292">
        <ele>332</ele>
        <time>2011-01-23T07:54:14Z</time>
      </trkpt>
      <trkpt lat="49.19167" lon="6.96295">
        <ele>332</ele>
        <time>2011-01-23T07:54:15Z</time>
      </trkpt>
      <trkpt lat="49.19167" lon="6.96297">
        <ele>332</ele>
        <time>2011-01-23T07:54:16Z</time>
      </trkpt>
      <trkpt lat="49.19167" lon="6.96299">
        <ele>332</ele>
        <time>2011-01-23T07:54:17Z</time>
      </trkpt>
      <trkpt lat="49.19167" lon="6.96302">
        <ele>332</ele>
        <time>2011-01-23T07:54:18Z</time>
      </trkpt>
      <trkpt lat="49.19167" lon="6.96304">
        <ele>332</ele>
        <time>2011-01-23T07:54:19Z</time>
      </trkpt>
      <trkpt lat="49.19167" lon="6.96306">
        <ele>332</ele>
        <time>2011-01-23T07:54:20Z</time>
      </trkpt>
      <trkpt lat="49.19166" lon="6.96308">
        <ele>332</ele>
        <time>2011-01-23T07:54:21Z</time>
      </trkpt>
      <trkpt lat="49.19166" lon="6.96311">
        <ele>332</ele>
        <time>2011-01-23T07:54:22Z</time>
      </trkpt>
      <trkpt lat="49.19166" lon="6.96313">
        <ele>332</ele>
        <time>2011-01-23T07:54:23Z</time>
      </trkpt>
      <trkpt lat="49.19166" lon="6.96315">
        <ele>332</ele>
        <time>2011-01-23T07:54:24Z</time>
      </trkpt>
      <trkpt lat="49.19166" lon="6.96317">
        <ele>332</ele>
        <time>2011-01-23T07:54:25Z</time>
      </trkpt>
      <trkpt lat="49.19166" lon="6.96319">
        <ele>332</ele>
        <time>2011-01-23T07:54:26Z</time>
      </trkpt>
      <trkpt lat="49.19165" lon="6.96321">
        <ele>332</ele>
        <time>2011-01-23T07:54:27Z</time>
      </trkpt>
      <trkpt lat="49.19165" lon="6.96323">
        <ele>331</ele>
        <time>2011-01-23T07:54:28Z</time>
      </trkpt>
      <trkpt lat="49.19165" lon="6.96325">
        <ele>331</ele>
        <time>2011-01-23T07:54:29Z</time>
      </trkpt>
      <trkpt lat="49.19165" lon="6.96327">
        <ele>330</ele>
        <time>2011-01-23T07:54:30Z</time>
      </trkpt>
      <trkpt lat="49.19165" lon="6.96329">
        <ele>329</ele>
        <time>2011-01-23T07:54:31Z</time>
      </trkpt>
      <trkpt lat="49.19165" lon="6.96331">
        <ele>328</ele>
        <time>2011-01-23T07:54:32Z</time>
      </trkpt>
      <trkpt lat="49.19164" lon="6.96334">
        <ele>328</ele>
        <time>2011-01-23T07:54:33Z</time>
      </trkpt>
      <trkpt lat="49.19164" lon="6.96336">
        <ele>328</ele>
        <time>2011-01-23T07:54:34Z</time>
      </trkpt>
      <trkpt lat="49.19164" lon="6.96338">
        <ele>328</ele>
        <time>2011-01-23T07:54:35Z</time>
      </trkpt>
      <trkpt lat="49.19164" lon="6.96341">
        <ele>328</ele>
        <time>2011-01-23T07:54:36Z</time>
      </trkpt>
      <trkpt lat="49.19164" lon="6.96343">
        <ele>328</ele>
        <time>2011-01-23T07:54:37Z</time>
      </trkpt>
      <trkpt lat="49.19164" lon="6.96345">
        <ele>328</ele>
        <time>2011-01-23T07:54:38Z</time>
      </trkpt>
      <trkpt lat="49.19164" lon="6.96347">
        <ele>328</ele>
        <time>2011-01-23T07:54:39Z</time>
      </trkpt>
      <trkpt lat="49.19163" lon="6.96349">
        <ele>328</ele>
        <time>2011-01-23T07:54:40Z</time>
      </trkpt>
      <trkpt lat="49.19163" lon="6.96351">
        <ele>327</ele>
        <time>2011-01-23T07:54:41Z</time>
      </trkpt>
      <trkpt lat="49.19163" lon="6.96353">
        <ele>326</ele>
        <time>2011-01-23T07:54:42Z</time>
      </trkpt>
      <trkpt lat="49.19163" lon="6.96356">
        <ele>326</ele>
        <time>2011-01-23T07:54:43Z</time>
      </trkpt>
      <trkpt lat="49.19163" lon="6.96359">
        <ele>326</ele>
        <time>2011-01-23T07:54:44Z</time>
      </trkpt>
      <trkpt lat="49.19163" lon="6.96361">
        <ele>326</ele>
        <time>2011-01-23T07:54:45Z</time>
      </trkpt>
      <trkpt lat="49.19163" lon="6.96363">
        <ele>326</ele>
        <time>2011-01-23T07:54:46Z</time>
      </trkpt>
      <trkpt lat="49.19162" lon="6.96366">
        <ele>326</ele>
        <time>2011-01-23T07:54:47Z</time>
      </trkpt>
      <trkpt lat="49.19162" lon="6.96368">
        <ele>326</ele>
        <time>2011-01-23T07:54:48Z</time>
      </trkpt>
      <trkpt lat="49.19162" lon="6.9637">
        <ele>326</ele>
        <time>2011-01-23T07:54:49Z</time>
      </trkpt>
      <trkpt lat="49.19162" lon="6.96373">
        <ele>326</ele>
        <time>2011-01-23T07:54:50Z</time>
      </trkpt>
      <trkpt lat="49.19162" lon="6.96375">
        <ele>326</ele>
        <time>2011-01-23T07:54:51Z</time>
      </trkpt>
      <trkpt lat="49.19162" lon="6.96377">
        <ele>326</ele>
        <time>2011-01-23T07:54:52Z</time>
      </trkpt>
      <trkpt lat="49.19161" lon="6.96378">
        <ele>326</ele>
        <time>2011-01-23T07:54:53Z</time>
      </trkpt>
      <trkpt lat="49.19161" lon="6.9638">
        <ele>325</ele>
        <time>2011-01-23T07:54:54Z</time>
      </trkpt>
      <trkpt lat="49.1916" lon="6.96382">
        <ele>325</ele>
        <time>2011-01-23T07:54:55Z</time>
      </trkpt>
      <trkpt lat="49.1916" lon="6.96383">
        <ele>324</ele>
        <time>2011-01-23T07:54:56Z</time>
      </trkpt>
      <trkpt lat="49.1916" lon="6.96386">
        <ele>323</ele>
        <time>2011-01-23T07:54:57Z</time>
      </trkpt>
      <trkpt lat="49.1916" lon="6.96388">
        <ele>323</ele>
        <time>2011-01-23T07:54:58Z</time>
      </trkpt>
      <trkpt lat="49.19161" lon="6.96389">
        <ele>322</ele>
        <time>2011-01-23T07:54:59Z</time>
      </trkpt>
      <trkpt lat="49.1916" lon="6.96393">
        <ele>322</ele>
        <time>2011-01-23T07:55:01Z</time>
      </trkpt>
      <trkpt lat="49.1916" lon="6.96395">
        <ele>321</ele>
        <time>2011-01-23T07:55:02Z</time>
      </trkpt>
      <trkpt lat="49.1916" lon="6.96397">
        <ele>321</ele>
        <time>2011-01-23T07:55:03Z</time>
      </trkpt>
      <trkpt lat="49.1916" lon="6.96399">
        <ele>321</ele>
        <time>2011-01-23T07:55:04Z</time>
      </trkpt>
      <trkpt lat="49.1916" lon="6.96401">
        <ele>320</ele>
        <time>2011-01-23T07:55:05Z</time>
      </trkpt>
      <trkpt lat="49.1916" lon="6.96403">
        <ele>320</ele>
        <time>2011-01-23T07:55:06Z</time>
      </trkpt>
      <trkpt lat="49.1916" lon="6.96406">
        <ele>320</ele>
        <time>2011-01-23T07:55:07Z</time>
      </trkpt>
      <trkpt lat="49.1916" lon="6.96408">
        <ele>320</ele>
        <time>2011-01-23T07:55:08Z</time>
      </trkpt>
      <trkpt lat="49.1916" lon="6.9641">
        <ele>320</ele>
        <time>2011-01-23T07:55:09Z</time>
      </trkpt>
      <trkpt lat="49.1916" lon="6.96412">
        <ele>320</ele>
        <time>2011-01-23T07:55:10Z</time>
      </trkpt>
      <trkpt lat="49.19159" lon="6.96414">
        <ele>320</ele>
        <time>2011-01-23T07:55:11Z</time>
      </trkpt>
      <trkpt lat="49.19159" lon="6.96416">
        <ele>320</ele>
        <time>2011-01-23T07:55:12Z</time>
      </trkpt>
      <trkpt lat="49.19159" lon="6.96418">
        <ele>320</ele>
        <time>2011-01-23T07:55:13Z</time>
      </trkpt>
      <trkpt lat="49.19159" lon="6.9642">
        <ele>320</ele>
        <time>2011-01-23T07:55:14Z</time>
      </trkpt>
      <trkpt lat="49.19159" lon="6.96422">
        <ele>320</ele>
        <time>2011-01-23T07:55:15Z</time>
      </trkpt>
      <trkpt lat="49.19159" lon="6.96424">
        <ele>320</ele>
        <time>2011-01-23T07:55:16Z</time>
      </trkpt>
      <trkpt lat="49.19159" lon="6.96427">
        <ele>320</ele>
        <time>2011-01-23T07:55:17Z</time>
      </trkpt>
      <trkpt lat="49.19159" lon="6.9643">
        <ele>320</ele>
        <time>2011-01-23T07:55:18Z</time>
      </trkpt>
      <trkpt lat="49.19159" lon="6.96432">
        <ele>320</ele>
        <time>2011-01-23T07:55:19Z</time>
      </trkpt>
      <trkpt lat="49.1916" lon="6.96435">
        <ele>320</ele>
        <time>2011-01-23T07:55:20Z</time>
      </trkpt>
      <trkpt lat="49.1916" lon="6.96437">
        <ele>320</ele>
        <time>2011-01-23T07:55:21Z</time>
      </trkpt>
      <trkpt lat="49.1916" lon="6.96439">
        <ele>320</ele>
        <time>2011-01-23T07:55:22Z</time>
      </trkpt>
      <trkpt lat="49.1916" lon="6.96442">
        <ele>320</ele>
        <time>2011-01-23T07:55:23Z</time>
      </trkpt>
      <trkpt lat="49.1916" lon="6.96445">
        <ele>320</ele>
        <time>2011-01-23T07:55:24Z</time>
      </trkpt>
      <trkpt lat="49.19161" lon="6.96447">
        <ele>320</ele>
        <time>2011-01-23T07:55:25Z</time>
      </trkpt>
      <trkpt lat="49.19162" lon="6.9645">
        <ele>321</ele>
        <time>2011-01-23T07:55:26Z</time>
      </trkpt>
      <trkpt lat="49.19162" lon="6.96453">
        <ele>322</ele>
        <time>2011-01-23T07:55:27Z</time>
      </trkpt>
      <trkpt lat="49.19162" lon="6.96456">
        <ele>323</ele>
        <time>2011-01-23T07:55:28Z</time>
      </trkpt>
      <trkpt lat="49.19163" lon="6.96458">
        <ele>324</ele>
        <time>2011-01-23T07:55:29Z</time>
      </trkpt>
      <trkpt lat="49.19163" lon="6.96461">
        <ele>325</ele>
        <time>2011-01-23T07:55:30Z</time>
      </trkpt>
      <trkpt lat="49.19163" lon="6.96463">
        <ele>326</ele>
        <time>2011-01-23T07:55:31Z</time>
      </trkpt>
      <trkpt lat="49.19163" lon="6.96466">
        <ele>327</ele>
        <time>2011-01-23T07:55:32Z</time>
      </trkpt>
      <trkpt lat="49.19164" lon="6.96469">
        <ele>328</ele>
        <time>2011-01-23T07:55:33Z</time>
      </trkpt>
      <trkpt lat="49.19163" lon="6.96471">
        <ele>329</ele>
        <time>2011-01-23T07:55:34Z</time>
      </trkpt>
      <trkpt lat="49.19163" lon="6.96473">
        <ele>330</ele>
        <time>2011-01-23T07:55:35Z</time>
      </trkpt>
      <trkpt lat="49.19163" lon="6.96475">
        <ele>331</ele>
        <time>2011-01-23T07:55:36Z</time>
      </trkpt>
      <trkpt lat="49.19162" lon="6.96477">
        <ele>332</ele>
        <time>2011-01-23T07:55:37Z</time>
      </trkpt>
      <trkpt lat="49.19162" lon="6.96479">
        <ele>333</ele>
        <time>2011-01-23T07:55:38Z</time>
      </trkpt>
      <trkpt lat="49.19162" lon="6.96481">
        <ele>333</ele>
        <time>2011-01-23T07:55:39Z</time>
      </trkpt>
      <trkpt lat="49.19162" lon="6.96483">
        <ele>333</ele>
        <time>2011-01-23T07:55:40Z</time>
      </trkpt>
      <trkpt lat="49.19162" lon="6.96485">
        <ele>333</ele>
        <time>2011-01-23T07:55:41Z</time>
      </trkpt>
      <trkpt lat="49.19162" lon="6.96487">
        <ele>333</ele>
        <time>2011-01-23T07:55:42Z</time>
      </trkpt>
      <trkpt lat="49.19162" lon="6.96489">
        <ele>333</ele>
        <time>2011-01-23T07:55:43Z</time>
      </trkpt>
      <trkpt lat="49.19162" lon="6.96491">
        <ele>333</ele>
        <time>2011-01-23T07:55:44Z</time>
      </trkpt>
      <trkpt lat="49.19162" lon="6.96494">
        <ele>333</ele>
        <time>2011-01-23T07:55:45Z</time>
      </trkpt>
      <trkpt lat="49.19161" lon="6.96496">
        <ele>333</ele>
        <time>2011-01-23T07:55:46Z</time>
      </trkpt>
      <trkpt lat="49.19159" lon="6.96497">
        <ele>334</ele>
        <time>2011-01-23T07:55:48Z</time>
      </trkpt>
      <trkpt lat="49.19158" lon="6.96497">
        <ele>335</ele>
        <time>2011-01-23T07:55:49Z</time>
      </trkpt>
      <trkpt lat="49.19157" lon="6.96497">
        <ele>335</ele>
        <time>2011-01-23T07:55:50Z</time>
      </trkpt>
      <trkpt lat="49.19156" lon="6.96496">
        <ele>336</ele>
        <time>2011-01-23T07:55:51Z</time>
      </trkpt>
      <trkpt lat="49.19154" lon="6.96496">
        <ele>336</ele>
        <time>2011-01-23T07:55:52Z</time>
      </trkpt>
      <trkpt lat="49.19153" lon="6.96497">
        <ele>336</ele>
        <time>2011-01-23T07:55:53Z</time>
      </trkpt>
      <trkpt lat="49.19152" lon="6.96496">
        <ele>336</ele>
        <time>2011-01-23T07:55:54Z</time>
      </trkpt>
      <trkpt lat="49.1915" lon="6.96496">
        <ele>336</ele>
        <time>2011-01-23T07:55:55Z</time>
      </trkpt>
      <trkpt lat="49.19149" lon="6.96495">
        <ele>336</ele>
        <time>2011-01-23T07:55:56Z</time>
      </trkpt>
      <trkpt lat="49.19147" lon="6.96495">
        <ele>336</ele>
        <time>2011-01-23T07:55:57Z</time>
      </trkpt>
      <trkpt lat="49.19146" lon="6.96494">
        <ele>336</ele>
        <time>2011-01-23T07:55:58Z</time>
      </trkpt>
      <trkpt lat="49.19144" lon="6.96493">
        <ele>336</ele>
        <time>2011-01-23T07:55:59Z</time>
      </trkpt>
      <trkpt lat="49.19142" lon="6.96493">
        <ele>336</ele>
        <time>2011-01-23T07:56:00Z</time>
      </trkpt>
      <trkpt lat="49.1914" lon="6.96493">
        <ele>336</ele>
        <time>2011-01-23T07:56:01Z</time>
      </trkpt>
      <trkpt lat="49.19132" lon="6.96489">
        <ele>335</ele>
        <time>2011-01-23T07:56:02Z</time>
      </trkpt>
      <trkpt lat="49.19129" lon="6.96487">
        <ele>334</ele>
        <time>2011-01-23T07:56:03Z</time>
      </trkpt>
      <trkpt lat="49.19127" lon="6.96486">
        <ele>333</ele>
        <time>2011-01-23T07:56:04Z</time>
      </trkpt>
      <trkpt lat="49.19125" lon="6.96485">
        <ele>331</ele>
        <time>2011-01-23T07:56:05Z</time>
      </trkpt>
      <trkpt lat="49.19124" lon="6.96484">
        <ele>329</ele>
        <time>2011-01-23T07:56:06Z</time>
      </trkpt>
      <trkpt lat="49.19122" lon="6.96483">
        <ele>327</ele>
        <time>2011-01-23T07:56:07Z</time>
      </trkpt>
      <trkpt lat="49.19121" lon="6.96482">
        <ele>325</ele>
        <time>2011-01-23T07:56:08Z</time>
      </trkpt>
      <trkpt lat="49.1912" lon="6.96481">
        <ele>323</ele>
        <time>2011-01-23T07:56:09Z</time>
      </trkpt>
      <trkpt lat="49.19119" lon="6.9648">
        <ele>322</ele>
        <time>2011-01-23T07:56:10Z</time>
      </trkpt>
      <trkpt lat="49.19117" lon="6.9648">
        <ele>321</ele>
        <time>2011-01-23T07:56:11Z</time>
      </trkpt>
      <trkpt lat="49.19116" lon="6.96479">
        <ele>320</ele>
        <time>2011-01-23T07:56:12Z</time>
      </trkpt>
      <trkpt lat="49.19115" lon="6.96478">
        <ele>319</ele>
        <time>2011-01-23T07:56:13Z</time>
      </trkpt>
      <trkpt lat="49.19114" lon="6.96477">
        <ele>318</ele>
        <time>2011-01-23T07:56:14Z</time>
      </trkpt>
      <trkpt lat="49.19113" lon="6.96477">
        <ele>317</ele>
        <time>2011-01-23T07:56:15Z</time>
      </trkpt>
      <trkpt lat="49.19111" lon="6.96476">
        <ele>316</ele>
        <time>2011-01-23T07:56:16Z</time>
      </trkpt>
      <trkpt lat="49.1911" lon="6.96475">
        <ele>315</ele>
        <time>2011-01-23T07:56:17Z</time>
      </trkpt>
      <trkpt lat="49.19109" lon="6.96474">
        <ele>314</ele>
        <time>2011-01-23T07:56:18Z</time>
      </trkpt>
      <trkpt lat="49.19108" lon="6.96474">
        <ele>313</ele>
        <time>2011-01-23T07:56:19Z</time>
      </trkpt>
      <trkpt lat="49.19107" lon="6.96473">
        <ele>312</ele>
        <time>2011-01-23T07:56:20Z</time>
      </trkpt>
      <trkpt lat="49.19104" lon="6.96472">
        <ele>310</ele>
        <time>2011-01-23T07:56:22Z</time>
      </trkpt>
      <trkpt lat="49.19103" lon="6.96472">
        <ele>309</ele>
        <time>2011-01-23T07:56:23Z</time>
      </trkpt>
      <trkpt lat="49.19101" lon="6.96471">
        <ele>307</ele>
        <time>2011-01-23T07:56:25Z</time>
      </trkpt>
      <trkpt lat="49.191" lon="6.96472">
        <ele>307</ele>
        <time>2011-01-23T07:56:31Z</time>
      </trkpt>
      <trkpt lat="49.191" lon="6.96471">
        <ele>310</ele>
        <time>2011-01-23T07:56:45Z</time>
      </trkpt>
      <trkpt lat="49.19101" lon="6.96468">
        <ele>310</ele>
        <time>2011-01-23T07:56:48Z</time>
      </trkpt>
      <trkpt lat="49.19102" lon="6.96466">
        <ele>310</ele>
        <time>2011-01-23T07:56:50Z</time>
      </trkpt>
      <trkpt lat="49.19102" lon="6.96464">
        <ele>310</ele>
        <time>2011-01-23T07:56:52Z</time>
      </trkpt>
      <trkpt lat="49.19103" lon="6.96462">
        <ele>310</ele>
        <time>2011-01-23T07:56:54Z</time>
      </trkpt>
      <trkpt lat="49.19103" lon="6.9646">
        <ele>310</ele>
        <time>2011-01-23T07:56:56Z</time>
      </trkpt>
      <trkpt lat="49.19102" lon="6.96459">
        <ele>310</ele>
        <time>2011-01-23T07:56:58Z</time>
      </trkpt>
      <trkpt lat="49.19101" lon="6.96456">
        <ele>310</ele>
        <time>2011-01-23T07:57:00Z</time>
      </trkpt>
      <trkpt lat="49.191" lon="6.96455">
        <ele>310</ele>
        <time>2011-01-23T07:57:02Z</time>
      </trkpt>
      <trkpt lat="49.19099" lon="6.96453">
        <ele>310</ele>
        <time>2011-01-23T07:57:04Z</time>
      </trkpt>
      <trkpt lat="49.19097" lon="6.96451">
        <ele>310</ele>
        <time>2011-01-23T07:57:06Z</time>
      </trkpt>
      <trkpt lat="49.19096" lon="6.96449">
        <ele>310</ele>
        <time>2011-01-23T07:57:08Z</time>
      </trkpt>
      <trkpt lat="49.19094" lon="6.96446">
        <ele>310</ele>
        <time>2011-01-23T07:57:10Z</time>
      </trkpt>
      <trkpt lat="49.19092" lon="6.96443">
        <ele>310</ele>
        <time>2011-01-23T07:57:12Z</time>
      </trkpt>
      <trkpt lat="49.19091" lon="6.9644">
        <ele>310</ele>
        <time>2011-01-23T07:57:14Z</time>
      </trkpt>
      <trkpt lat="49.19089" lon="6.96439">
        <ele>310</ele>
        <time>2011-01-23T07:57:15Z</time>
      </trkpt>
      <trkpt lat="49.19088" lon="6.96436">
        <ele>310</ele>
        <time>2011-01-23T07:57:17Z</time>
      </trkpt>
      <trkpt lat="49.19086" lon="6.96434">
        <ele>310</ele>
        <time>2011-01-23T07:57:19Z</time>
      </trkpt>
      <trkpt lat="49.19084" lon="6.96431">
        <ele>310</ele>
        <time>2011-01-23T07:57:21Z</time>
      </trkpt>
      <trkpt lat="49.19082" lon="6.96429">
        <ele>310</ele>
        <time>2011-01-23T07:57:23Z</time>
      </trkpt>
      <trkpt lat="49.1908" lon="6.96427">
        <ele>310</ele>
        <time>2011-01-23T07:57:25Z</time>
      </trkpt>
      <trkpt lat="49.19078" lon="6.96424">
        <ele>310</ele>
        <time>2011-01-23T07:57:27Z</time>
      </trkpt>
      <trkpt lat="49.19077" lon="6.96422">
        <ele>310</ele>
        <time>2011-01-23T07:57:29Z</time>
      </trkpt>
      <trkpt lat="49.19075" lon="6.96421">
        <ele>310</ele>
        <time>2011-01-23T07:57:30Z</time>
      </trkpt>
      <trkpt lat="49.19074" lon="6.96421">
        <ele>310</ele>
        <time>2011-01-23T07:57:31Z</time>
      </trkpt>
      <trkpt lat="49.19073" lon="6.9642">
        <ele>309</ele>
        <time>2011-01-23T07:57:32Z</time>
      </trkpt>
      <trkpt lat="49.19072" lon="6.96419">
        <ele>309</ele>
        <time>2011-01-23T07:57:33Z</time>
      </trkpt>
      <trkpt lat="49.19071" lon="6.96419">
        <ele>309</ele>
        <time>2011-01-23T07:57:34Z</time>
      </trkpt>
      <trkpt lat="49.19069" lon="6.96418">
        <ele>309</ele>
        <time>2011-01-23T07:57:36Z</time>
      </trkpt>
      <trkpt lat="49.19067" lon="6.96418">
        <ele>309</ele>
        <time>2011-01-23T07:57:37Z</time>
      </trkpt>
      <trkpt lat="49.19066" lon="6.96417">
        <ele>309</ele>
        <time>2011-01-23T07:57:38Z</time>
      </trkpt>
      <trkpt lat="49.19065" lon="6.96416">
        <ele>309</ele>
        <time>2011-01-23T07:57:39Z</time>
      </trkpt>
      <trkpt lat="49.19063" lon="6.96414">
        <ele>309</ele>
        <time>2011-01-23T07:57:41Z</time>
      </trkpt>
      <trkpt lat="49.19062" lon="6.96412">
        <ele>309</ele>
        <time>2011-01-23T07:57:43Z</time>
      </trkpt>
      <trkpt lat="49.1906" lon="6.96409">
        <ele>309</ele>
        <time>2011-01-23T07:57:45Z</time>
      </trkpt>
      <trkpt lat="49.1906" lon="6.96407">
        <ele>309</ele>
        <time>2011-01-23T07:57:46Z</time>
      </trkpt>
      <trkpt lat="49.19059" lon="6.96405">
        <ele>309</ele>
        <time>2011-01-23T07:57:47Z</time>
      </trkpt>
      <trkpt lat="49.19059" lon="6.96404">
        <ele>309</ele>
        <time>2011-01-23T07:57:48Z</time>
      </trkpt>
      <trkpt lat="49.19059" lon="6.96402">
        <ele>309</ele>
        <time>2011-01-23T07:57:49Z</time>
      </trkpt>
      <trkpt lat="49.19059" lon="6.964">
        <ele>309</ele>
        <time>2011-01-23T07:57:50Z</time>
      </trkpt>
      <trkpt lat="49.19058" lon="6.96398">
        <ele>309</ele>
        <time>2011-01-23T07:57:51Z</time>
      </trkpt>
      <trkpt lat="49.19058" lon="6.96396">
        <ele>309</ele>
        <time>2011-01-23T07:57:52Z</time>
      </trkpt>
      <trkpt lat="49.19057" lon="6.96394">
        <ele>309</ele>
        <time>2011-01-23T07:57:53Z</time>
      </trkpt>
      <trkpt lat="49.19057" lon="6.96393">
        <ele>309</ele>
        <time>2011-01-23T07:57:54Z</time>
      </trkpt>
      <trkpt lat="49.19057" lon="6.96391">
        <ele>309</ele>
        <time>2011-01-23T07:57:55Z</time>
      </trkpt>
      <trkpt lat="49.19056" lon="6.96389">
        <ele>309</ele>
        <time>2011-01-23T07:57:56Z</time>
      </trkpt>
      <trkpt lat="49.19056" lon="6.96387">
        <ele>309</ele>
        <time>2011-01-23T07:57:57Z</time>
      </trkpt>
      <trkpt lat="49.19055" lon="6.96384">
        <ele>309</ele>
        <time>2011-01-23T07:57:59Z</time>
      </trkpt>
      <trkpt lat="49.19054" lon="6.96383">
        <ele>309</ele>
        <time>2011-01-23T07:58:00Z</time>
      </trkpt>
      <trkpt lat="49.19054" lon="6.96381">
        <ele>309</ele>
        <time>2011-01-23T07:58:01Z</time>
      </trkpt>
      <trkpt lat="49.19053" lon="6.9638">
        <ele>309</ele>
        <time>2011-01-23T07:58:02Z</time>
      </trkpt>
      <trkpt lat="49.19053" lon="6.96378">
        <ele>309</ele>
        <time>2011-01-23T07:58:03Z</time>
      </trkpt>
      <trkpt lat="49.19052" lon="6.96376">
        <ele>309</ele>
        <time>2011-01-23T07:58:04Z</time>
      </trkpt>
      <trkpt lat="49.19051" lon="6.96373">
        <ele>309</ele>
        <time>2011-01-23T07:58:06Z</time>
      </trkpt>
      <trkpt lat="49.1905" lon="6.9637">
        <ele>309</ele>
        <time>2011-01-23T07:58:08Z</time>
      </trkpt>
      <trkpt lat="49.19049" lon="6.96368">
        <ele>309</ele>
        <time>2011-01-23T07:58:09Z</time>
      </trkpt>
      <trkpt lat="49.19049" lon="6.96367">
        <ele>309</ele>
        <time>2011-01-23T07:58:10Z</time>
      </trkpt>
      <trkpt lat="49.19048" lon="6.96365">
        <ele>309</ele>
        <time>2011-01-23T07:58:11Z</time>
      </trkpt>
      <trkpt lat="49.19047" lon="6.96362">
        <ele>309</ele>
        <time>2011-01-23T07:58:13Z</time>
      </trkpt>
      <trkpt lat="49.19046" lon="6.96359">
        <ele>309</ele>
        <time>2011-01-23T07:58:15Z</time>
      </trkpt>
      <trkpt lat="49.19046" lon="6.96357">
        <ele>309</ele>
        <time>2011-01-23T07:58:16Z</time>
      </trkpt>
      <trkpt lat="49.19046" lon="6.96355">
        <ele>309</ele>
        <time>2011-01-23T07:58:17Z</time>
      </trkpt>
      <trkpt lat="49.19046" lon="6.96353">
        <ele>309</ele>
        <time>2011-01-23T07:58:18Z</time>
      </trkpt>
      <trkpt lat="49.19046" lon="6.96351">
        <ele>309</ele>
        <time>2011-01-23T07:58:19Z</time>
      </trkpt>
      <trkpt lat="49.19046" lon="6.9635">
        <ele>309</ele>
        <time>2011-01-23T07:58:20Z</time>
      </trkpt>
      <trkpt lat="49.19047" lon="6.96347">
        <ele>309</ele>
        <time>2011-01-23T07:58:22Z</time>
      </trkpt>
      <trkpt lat="49.19048" lon="6.96344">
        <ele>310</ele>
        <time>2011-01-23T07:58:24Z</time>
      </trkpt>
      <trkpt lat="49.1905" lon="6.96342">
        <ele>310</ele>
        <time>2011-01-23T07:58:26Z</time>
      </trkpt>
      <trkpt lat="49.19051" lon="6.9634">
        <ele>310</ele>
        <time>2011-01-23T07:58:28Z</time>
      </trkpt>
      <trkpt lat="49.19051" lon="6.96337">
        <ele>310</ele>
        <time>2011-01-23T07:58:29Z</time>
      </trkpt>
      <trkpt lat="49.19052" lon="6.96335">
        <ele>310</ele>
        <time>2011-01-23T07:58:30Z</time>
      </trkpt>
      <trkpt lat="49.19053" lon="6.96333">
        <ele>310</ele>
        <time>2011-01-23T07:58:31Z</time>
      </trkpt>
      <trkpt lat="49.19054" lon="6.96331">
        <ele>311</ele>
        <time>2011-01-23T07:58:33Z</time>
      </trkpt>
      <trkpt lat="49.19054" lon="6.96328">
        <ele>311</ele>
        <time>2011-01-23T07:58:35Z</time>
      </trkpt>
      <trkpt lat="49.19056" lon="6.96325">
        <ele>312</ele>
        <time>2011-01-23T07:58:37Z</time>
      </trkpt>
      <trkpt lat="49.19058" lon="6.96322">
        <ele>312</ele>
        <time>2011-01-23T07:58:39Z</time>
      </trkpt>
      <trkpt lat="49.1906" lon="6.9632">
        <ele>312</ele>
        <time>2011-01-23T07:58:41Z</time>
      </trkpt>
      <trkpt lat="49.19062" lon="6.96318">
        <ele>312</ele>
        <time>2011-01-23T07:58:43Z</time>
      </trkpt>
      <trkpt lat="49.19063" lon="6.96315">
        <ele>312</ele>
        <time>2011-01-23T07:58:45Z</time>
      </trkpt>
      <trkpt lat="49.19065" lon="6.96312">
        <ele>312</ele>
        <time>2011-01-23T07:58:47Z</time>
      </trkpt>
      <trkpt lat="49.19067" lon="6.96309">
        <ele>312</ele>
        <time>2011-01-23T07:58:49Z</time>
      </trkpt>
      <trkpt lat="49.19068" lon="6.96307">
        <ele>312</ele>
        <time>2011-01-23T07:58:51Z</time>
      </trkpt>
      <trkpt lat="49.1907" lon="6.96304">
        <ele>312</ele>
        <time>2011-01-23T07:58:53Z</time>
      </trkpt>
      <trkpt lat="49.19072" lon="6.96302">
        <ele>312</ele>
        <time>2011-01-23T07:58:55Z</time>
      </trkpt>
      <trkpt lat="49.19074" lon="6.963">
        <ele>312</ele>
        <time>2011-01-23T07:58:57Z</time>
      </trkpt>
      <trkpt lat="49.19075" lon="6.96299">
        <ele>312</ele>
        <time>2011-01-23T07:58:58Z</time>
      </trkpt>
      <trkpt lat="49.19077" lon="6.96297">
        <ele>312</ele>
        <time>2011-01-23T07:59:00Z</time>
      </trkpt>
      <trkpt lat="49.19079" lon="6.96295">
        <ele>312</ele>
        <time>2011-01-23T07:59:02Z</time>
      </trkpt>
      <trkpt lat="49.1908" lon="6.96294">
        <ele>312</ele>
        <time>2011-01-23T07:59:03Z</time>
      </trkpt>
      <trkpt lat="49.19083" lon="6.96292">
        <ele>312</ele>
        <time>2011-01-23T07:59:05Z</time>
      </trkpt>
      <trkpt lat="49.19083" lon="6.96287">
        <ele>312</ele>
        <time>2011-01-23T07:59:07Z</time>
      </trkpt>
      <trkpt lat="49.19085" lon="6.96286">
        <ele>312</ele>
        <time>2011-01-23T07:59:08Z</time>
      </trkpt>
      <trkpt lat="49.19085" lon="6.96284">
        <ele>312</ele>
        <time>2011-01-23T07:59:09Z</time>
      </trkpt>
      <trkpt lat="49.19086" lon="6.96282">
        <ele>312</ele>
        <time>2011-01-23T07:59:10Z</time>
      </trkpt>
      <trkpt lat="49.19087" lon="6.96281">
        <ele>312</ele>
        <time>2011-01-23T07:59:11Z</time>
      </trkpt>
      <trkpt lat="49.19088" lon="6.96279">
        <ele>312</ele>
        <time>2011-01-23T07:59:12Z</time>
      </trkpt>
      <trkpt lat="49.19089" lon="6.96277">
        <ele>312</ele>
        <time>2011-01-23T07:59:13Z</time>
      </trkpt>
      <trkpt lat="49.19091" lon="6.96274">
        <ele>312</ele>
        <time>2011-01-23T07:59:15Z</time>
      </trkpt>
      <trkpt lat="49.19093" lon="6.96271">
        <ele>312</ele>
        <time>2011-01-23T07:59:17Z</time>
      </trkpt>
      <trkpt lat="49.19094" lon="6.96268">
        <ele>312</ele>
        <time>2011-01-23T07:59:19Z</time>
      </trkpt>
      <trkpt lat="49.19095" lon="6.96266">
        <ele>312</ele>
        <time>2011-01-23T07:59:20Z</time>
      </trkpt>
      <trkpt lat="49.19096" lon="6.96265">
        <ele>312</ele>
        <time>2011-01-23T07:59:21Z</time>
      </trkpt>
      <trkpt lat="49.19098" lon="6.96262">
        <ele>312</ele>
        <time>2011-01-23T07:59:23Z</time>
      </trkpt>
      <trkpt lat="49.191" lon="6.9626">
        <ele>312</ele>
        <time>2011-01-23T07:59:25Z</time>
      </trkpt>
      <trkpt lat="49.19101" lon="6.96257">
        <ele>312</ele>
        <time>2011-01-23T07:59:27Z</time>
      </trkpt>
      <trkpt lat="49.19102" lon="6.96255">
        <ele>312</ele>
        <time>2011-01-23T07:59:28Z</time>
      </trkpt>
      <trkpt lat="49.19104" lon="6.96252">
        <ele>312</ele>
        <time>2011-01-23T07:59:30Z</time>
      </trkpt>
      <trkpt lat="49.19105" lon="6.9625">
        <ele>312</ele>
        <time>2011-01-23T07:59:31Z</time>
      </trkpt>
      <trkpt lat="49.19107" lon="6.96247">
        <ele>312</ele>
        <time>2011-01-23T07:59:33Z</time>
      </trkpt>
      <trkpt lat="49.19108" lon="6.96244">
        <ele>312</ele>
        <time>2011-01-23T07:59:35Z</time>
      </trkpt>
      <trkpt lat="49.19109" lon="6.96243">
        <ele>312</ele>
        <time>2011-01-23T07:59:36Z</time>
      </trkpt>
      <trkpt lat="49.19109" lon="6.96241">
        <ele>312</ele>
        <time>2011-01-23T07:59:37Z</time>
      </trkpt>
      <trkpt lat="49.1911" lon="6.96239">
        <ele>312</ele>
        <time>2011-01-23T07:59:38Z</time>
      </trkpt>
      <trkpt lat="49.19112" lon="6.96236">
        <ele>312</ele>
        <time>2011-01-23T07:59:40Z</time>
      </trkpt>
      <trkpt lat="49.19113" lon="6.96235">
        <ele>312</ele>
        <time>2011-01-23T07:59:41Z</time>
      </trkpt>
      <trkpt lat="49.19115" lon="6.96232">
        <ele>312</ele>
        <time>2011-01-23T07:59:43Z</time>
      </trkpt>
      <trkpt lat="49.19117" lon="6.9623">
        <ele>312</ele>
        <time>2011-01-23T07:59:45Z</time>
      </trkpt>
      <trkpt lat="49.19118" lon="6.96227">
        <ele>312</ele>
        <time>2011-01-23T07:59:47Z</time>
      </trkpt>
      <trkpt lat="49.19119" lon="6.96225">
        <ele>312</ele>
        <time>2011-01-23T07:59:48Z</time>
      </trkpt>
      <trkpt lat="49.1912" lon="6.96223">
        <ele>312</ele>
        <time>2011-01-23T07:59:49Z</time>
      </trkpt>
      <trkpt lat="49.1912" lon="6.96221">
        <ele>312</ele>
        <time>2011-01-23T07:59:50Z</time>
      </trkpt>
      <trkpt lat="49.19122" lon="6.9622">
        <ele>312</ele>
        <time>2011-01-23T07:59:51Z</time>
      </trkpt>
      <trkpt lat="49.19123" lon="6.96218">
        <ele>312</ele>
        <time>2011-01-23T07:59:52Z</time>
      </trkpt>
      <trkpt lat="49.19123" lon="6.96216">
        <ele>312</ele>
        <time>2011-01-23T07:59:53Z</time>
      </trkpt>
      <trkpt lat="49.19124" lon="6.96214">
        <ele>312</ele>
        <time>2011-01-23T07:59:54Z</time>
      </trkpt>
      <trkpt lat="49.19125" lon="6.96213">
        <ele>312</ele>
        <time>2011-01-23T07:59:55Z</time>
      </trkpt>
      <trkpt lat="49.19126" lon="6.96211">
        <ele>312</ele>
        <time>2011-01-23T07:59:56Z</time>
      </trkpt>
      <trkpt lat="49.19126" lon="6.96206">
        <ele>312</ele>
        <time>2011-01-23T07:59:58Z</time>
      </trkpt>
      <trkpt lat="49.19127" lon="6.96205">
        <ele>312</ele>
        <time>2011-01-23T07:59:59Z</time>
      </trkpt>
      <trkpt lat="49.19127" lon="6.96201">
        <ele>312</ele>
        <time>2011-01-23T08:00:00Z</time>
      </trkpt>
      <trkpt lat="49.19126" lon="6.96197">
        <ele>313</ele>
        <time>2011-01-23T08:00:01Z</time>
      </trkpt>
      <trkpt lat="49.19125" lon="6.96194">
        <ele>314</ele>
        <time>2011-01-23T08:00:02Z</time>
      </trkpt>
      <trkpt lat="49.19125" lon="6.96192">
        <ele>314</ele>
        <time>2011-01-23T08:00:03Z</time>
      </trkpt>
      <trkpt lat="49.19125" lon="6.9619">
        <ele>315</ele>
        <time>2011-01-23T08:00:04Z</time>
      </trkpt>
      <trkpt lat="49.19124" lon="6.96188">
        <ele>315</ele>
        <time>2011-01-23T08:00:05Z</time>
      </trkpt>
      <trkpt lat="49.19122" lon="6.96186">
        <ele>316</ele>
        <time>2011-01-23T08:00:07Z</time>
      </trkpt>
      <trkpt lat="49.1912" lon="6.96183">
        <ele>316</ele>
        <time>2011-01-23T08:00:09Z</time>
      </trkpt>
      <trkpt lat="49.19118" lon="6.9618">
        <ele>316</ele>
        <time>2011-01-23T08:00:11Z</time>
      </trkpt>
      <trkpt lat="49.19116" lon="6.96177">
        <ele>316</ele>
        <time>2011-01-23T08:00:13Z</time>
      </trkpt>
      <trkpt lat="49.19115" lon="6.96175">
        <ele>316</ele>
        <time>2011-01-23T08:00:15Z</time>
      </trkpt>
      <trkpt lat="49.19113" lon="6.96173">
        <ele>316</ele>
        <time>2011-01-23T08:00:17Z</time>
      </trkpt>
      <trkpt lat="49.19111" lon="6.9617">
        <ele>317</ele>
        <time>2011-01-23T08:00:19Z</time>
      </trkpt>
      <trkpt lat="49.19109" lon="6.96168">
        <ele>317</ele>
        <time>2011-01-23T08:00:21Z</time>
      </trkpt>
      <trkpt lat="49.19107" lon="6.96166">
        <ele>317</ele>
        <time>2011-01-23T08:00:23Z</time>
      </trkpt>
      <trkpt lat="49.19105" lon="6.96162">
        <ele>317</ele>
        <time>2011-01-23T08:00:25Z</time>
      </trkpt>
      <trkpt lat="49.19104" lon="6.96161">
        <ele>317</ele>
        <time>2011-01-23T08:00:26Z</time>
      </trkpt>
      <trkpt lat="49.19101" lon="6.96158">
        <ele>318</ele>
        <time>2011-01-23T08:00:28Z</time>
      </trkpt>
      <trkpt lat="49.191" lon="6.96156">
        <ele>319</ele>
        <time>2011-01-23T08:00:30Z</time>
      </trkpt>
      <trkpt lat="49.19098" lon="6.96154">
        <ele>320</ele>
        <time>2011-01-23T08:00:32Z</time>
      </trkpt>
      <trkpt lat="49.19096" lon="6.96151">
        <ele>320</ele>
        <time>2011-01-23T08:00:34Z</time>
      </trkpt>
      <trkpt lat="49.19094" lon="6.96148">
        <ele>320</ele>
        <time>2011-01-23T08:00:36Z</time>
      </trkpt>
      <trkpt lat="49.19093" lon="6.96146">
        <ele>321</ele>
        <time>2011-01-23T08:00:38Z</time>
      </trkpt>
      <trkpt lat="49.19092" lon="6.96143">
        <ele>322</ele>
        <time>2011-01-23T08:00:40Z</time>
      </trkpt>
      <trkpt lat="49.1909" lon="6.9614">
        <ele>322</ele>
        <time>2011-01-23T08:00:42Z</time>
      </trkpt>
      <trkpt lat="49.19089" lon="6.96138">
        <ele>322</ele>
        <time>2011-01-23T08:00:43Z</time>
      </trkpt>
      <trkpt lat="49.19088" lon="6.96136">
        <ele>323</ele>
        <time>2011-01-23T08:00:45Z</time>
      </trkpt>
      <trkpt lat="49.19087" lon="6.96133">
        <ele>323</ele>
        <time>2011-01-23T08:00:47Z</time>
      </trkpt>
      <trkpt lat="49.19086" lon="6.96131">
        <ele>323</ele>
        <time>2011-01-23T08:00:48Z</time>
      </trkpt>
      <trkpt lat="49.19085" lon="6.96129">
        <ele>323</ele>
        <time>2011-01-23T08:00:49Z</time>
      </trkpt>
      <trkpt lat="49.19085" lon="6.96127">
        <ele>324</ele>
        <time>2011-01-23T08:00:50Z</time>
      </trkpt>
      <trkpt lat="49.19083" lon="6.96124">
        <ele>324</ele>
        <time>2011-01-23T08:00:52Z</time>
      </trkpt>
      <trkpt lat="49.19083" lon="6.96123">
        <ele>324</ele>
        <time>2011-01-23T08:00:53Z</time>
      </trkpt>
      <trkpt lat="49.19081" lon="6.9612">
        <ele>325</ele>
        <time>2011-01-23T08:00:55Z</time>
      </trkpt>
      <trkpt lat="49.1908" lon="6.96117">
        <ele>326</ele>
        <time>2011-01-23T08:00:57Z</time>
      </trkpt>
      <trkpt lat="49.19079" lon="6.96115">
        <ele>326</ele>
        <time>2011-01-23T08:00:58Z</time>
      </trkpt>
      <trkpt lat="49.19077" lon="6.96112">
        <ele>326</ele>
        <time>2011-01-23T08:01:00Z</time>
      </trkpt>
      <trkpt lat="49.19076" lon="6.96109">
        <ele>327</ele>
        <time>2011-01-23T08:01:02Z</time>
      </trkpt>
      <trkpt lat="49.19075" lon="6.96106">
        <ele>327</ele>
        <time>2011-01-23T08:01:04Z</time>
      </trkpt>
      <trkpt lat="49.19074" lon="6.96104">
        <ele>327</ele>
        <time>2011-01-23T08:01:05Z</time>
      </trkpt>
      <trkpt lat="49.19073" lon="6.96101">
        <ele>327</ele>
        <time>2011-01-23T08:01:07Z</time>
      </trkpt>
      <trkpt lat="49.19071" lon="6.96098">
        <ele>327</ele>
        <time>2011-01-23T08:01:09Z</time>
      </trkpt>
      <trkpt lat="49.1907" lon="6.96096">
        <ele>328</ele>
        <time>2011-01-23T08:01:11Z</time>
      </trkpt>
      <trkpt lat="49.19068" lon="6.96093">
        <ele>328</ele>
        <time>2011-01-23T08:01:13Z</time>
      </trkpt>
      <trkpt lat="49.19067" lon="6.9609">
        <ele>328</ele>
        <time>2011-01-23T08:01:15Z</time>
      </trkpt>
      <trkpt lat="49.19065" lon="6.96088">
        <ele>328</ele>
        <time>2011-01-23T08:01:17Z</time>
      </trkpt>
      <trkpt lat="49.19063" lon="6.96086">
        <ele>328</ele>
        <time>2011-01-23T08:01:19Z</time>
      </trkpt>
      <trkpt lat="49.19062" lon="6.96085">
        <ele>328</ele>
        <time>2011-01-23T08:01:20Z</time>
      </trkpt>
      <trkpt lat="49.1906" lon="6.96082">
        <ele>329</ele>
        <time>2011-01-23T08:01:22Z</time>
      </trkpt>
      <trkpt lat="49.19058" lon="6.9608">
        <ele>329</ele>
        <time>2011-01-23T08:01:24Z</time>
      </trkpt>
      <trkpt lat="49.19056" lon="6.96078">
        <ele>329</ele>
        <time>2011-01-23T08:01:26Z</time>
      </trkpt>
      <trkpt lat="49.19055" lon="6.96076">
        <ele>329</ele>
        <time>2011-01-23T08:01:27Z</time>
      </trkpt>
      <trkpt lat="49.19053" lon="6.96074">
        <ele>330</ele>
        <time>2011-01-23T08:01:29Z</time>
      </trkpt>
      <trkpt lat="49.19051" lon="6.96071">
        <ele>330</ele>
        <time>2011-01-23T08:01:31Z</time>
      </trkpt>
      <trkpt lat="49.19049" lon="6.96069">
        <ele>330</ele>
        <time>2011-01-23T08:01:33Z</time>
      </trkpt>
      <trkpt lat="49.19047" lon="6.96067">
        <ele>330</ele>
        <time>2011-01-23T08:01:35Z</time>
      </trkpt>
      <trkpt lat="49.19046" lon="6.96066">
        <ele>330</ele>
        <time>2011-01-23T08:01:36Z</time>
      </trkpt>
      <trkpt lat="49.19045" lon="6.96065">
        <ele>330</ele>
        <time>2011-01-23T08:01:37Z</time>
      </trkpt>
      <trkpt lat="49.19043" lon="6.96062">
        <ele>330</ele>
        <time>2011-01-23T08:01:39Z</time>
      </trkpt>
      <trkpt lat="49.1904" lon="6.96059">
        <ele>330</ele>
        <time>2011-01-23T08:01:41Z</time>
      </trkpt>
      <trkpt lat="49.19038" lon="6.96057">
        <ele>330</ele>
        <time>2011-01-23T08:01:43Z</time>
      </trkpt>
      <trkpt lat="49.19037" lon="6.96056">
        <ele>330</ele>
        <time>2011-01-23T08:01:44Z</time>
      </trkpt>
      <trkpt lat="49.19035" lon="6.96054">
        <ele>330</ele>
        <time>2011-01-23T08:01:46Z</time>
      </trkpt>
      <trkpt lat="49.19033" lon="6.96051">
        <ele>330</ele>
        <time>2011-01-23T08:01:48Z</time>
      </trkpt>
      <trkpt lat="49.19031" lon="6.96048">
        <ele>330</ele>
        <time>2011-01-23T08:01:50Z</time>
      </trkpt>
      <trkpt lat="49.1903" lon="6.96047">
        <ele>330</ele>
        <time>2011-01-23T08:01:51Z</time>
      </trkpt>
      <trkpt lat="49.19029" lon="6.96046">
        <ele>331</ele>
        <time>2011-01-23T08:01:52Z</time>
      </trkpt>
      <trkpt lat="49.19027" lon="6.96044">
        <ele>331</ele>
        <time>2011-01-23T08:01:54Z</time>
      </trkpt>
      <trkpt lat="49.19025" lon="6.96042">
        <ele>331</ele>
        <time>2011-01-23T08:01:56Z</time>
      </trkpt>
      <trkpt lat="49.19023" lon="6.9604">
        <ele>331</ele>
        <time>2011-01-23T08:01:58Z</time>
      </trkpt>
      <trkpt lat="49.19022" lon="6.96039">
        <ele>331</ele>
        <time>2011-01-23T08:01:59Z</time>
      </trkpt>
      <trkpt lat="49.19021" lon="6.96038">
        <ele>331</ele>
        <time>2011-01-23T08:02:00Z</time>
      </trkpt>
      <trkpt lat="49.19019" lon="6.96036">
        <ele>331</ele>
        <time>2011-01-23T08:02:02Z</time>
      </trkpt>
      <trkpt lat="49.19017" lon="6.96034">
        <ele>331</ele>
        <time>2011-01-23T08:02:04Z</time>
      </trkpt>
      <trkpt lat="49.19015" lon="6.96032">
        <ele>331</ele>
        <time>2011-01-23T08:02:06Z</time>
      </trkpt>
      <trkpt lat="49.19013" lon="6.9603">
        <ele>331</ele>
        <time>2011-01-23T08:02:08Z</time>
      </trkpt>
      <trkpt lat="49.1901" lon="6.96028">
        <ele>331</ele>
        <time>2011-01-23T08:02:10Z</time>
      </trkpt>
      <trkpt lat="49.19008" lon="6.96026">
        <ele>331</ele>
        <time>2011-01-23T08:02:12Z</time>
      </trkpt>
      <trkpt lat="49.19006" lon="6.96024">
        <ele>331</ele>
        <time>2011-01-23T08:02:14Z</time>
      </trkpt>
      <trkpt lat="49.19004" lon="6.96022">
        <ele>331</ele>
        <time>2011-01-23T08:02:16Z</time>
      </trkpt>
      <trkpt lat="49.19002" lon="6.9602">
        <ele>331</ele>
        <time>2011-01-23T08:02:18Z</time>
      </trkpt>
      <trkpt lat="49.19001" lon="6.96018">
        <ele>331</ele>
        <time>2011-01-23T08:02:19Z</time>
      </trkpt>
      <trkpt lat="49.18998" lon="6.96016">
        <ele>332</ele>
        <time>2011-01-23T08:02:21Z</time>
      </trkpt>
      <trkpt lat="49.18996" lon="6.96013">
        <ele>332</ele>
        <time>2011-01-23T08:02:23Z</time>
      </trkpt>
      <trkpt lat="49.18994" lon="6.9601">
        <ele>332</ele>
        <time>2011-01-23T08:02:25Z</time>
      </trkpt>
      <trkpt lat="49.18992" lon="6.96008">
        <ele>332</ele>
        <time>2011-01-23T08:02:27Z</time>
      </trkpt>
      <trkpt lat="49.1899" lon="6.96005">
        <ele>332</ele>
        <time>2011-01-23T08:02:29Z</time>
      </trkpt>
      <trkpt lat="49.1899" lon="6.96003">
        <ele>332</ele>
        <time>2011-01-23T08:02:30Z</time>
      </trkpt>
      <trkpt lat="49.18989" lon="6.96001">
        <ele>332</ele>
        <time>2011-01-23T08:02:31Z</time>
      </trkpt>
      <trkpt lat="49.18988" lon="6.95998">
        <ele>333</ele>
        <time>2011-01-23T08:02:33Z</time>
      </trkpt>
      <trkpt lat="49.18986" lon="6.95996">
        <ele>333</ele>
        <time>2011-01-23T08:02:35Z</time>
      </trkpt>
      <trkpt lat="49.18985" lon="6.95994">
        <ele>333</ele>
        <time>2011-01-23T08:02:36Z</time>
      </trkpt>
      <trkpt lat="49.18984" lon="6.95992">
        <ele>333</ele>
        <time>2011-01-23T08:02:37Z</time>
      </trkpt>
      <trkpt lat="49.18982" lon="6.95989">
        <ele>333</ele>
        <time>2011-01-23T08:02:39Z</time>
      </trkpt>
      <trkpt lat="49.18981" lon="6.95987">
        <ele>333</ele>
        <time>2011-01-23T08:02:41Z</time>
      </trkpt>
      <trkpt lat="49.18979" lon="6.95984">
        <ele>333</ele>
        <time>2011-01-23T08:02:43Z</time>
      </trkpt>
      <trkpt lat="49.18977" lon="6.95982">
        <ele>333</ele>
        <time>2011-01-23T08:02:45Z</time>
      </trkpt>
      <trkpt lat="49.18976" lon="6.95981">
        <ele>333</ele>
        <time>2011-01-23T08:02:46Z</time>
      </trkpt>
      <trkpt lat="49.18975" lon="6.9598">
        <ele>333</ele>
        <time>2011-01-23T08:02:47Z</time>
      </trkpt>
      <trkpt lat="49.18973" lon="6.95978">
        <ele>333</ele>
        <time>2011-01-23T08:02:49Z</time>
      </trkpt>
      <trkpt lat="49.18972" lon="6.95977">
        <ele>333</ele>
        <time>2011-01-23T08:02:50Z</time>
      </trkpt>
      <trkpt lat="49.1897" lon="6.95976">
        <ele>333</ele>
        <time>2011-01-23T08:02:51Z</time>
      </trkpt>
      <trkpt lat="49.18969" lon="6.95975">
        <ele>333</ele>
        <time>2011-01-23T08:02:52Z</time>
      </trkpt>
      <trkpt lat="49.18968" lon="6.95974">
        <ele>333</ele>
        <time>2011-01-23T08:02:53Z</time>
      </trkpt>
      <trkpt lat="49.18966" lon="6.95973">
        <ele>333</ele>
        <time>2011-01-23T08:02:55Z</time>
      </trkpt>
      <trkpt lat="49.18964" lon="6.95971">
        <ele>333</ele>
        <time>2011-01-23T08:02:57Z</time>
      </trkpt>
      <trkpt lat="49.18962" lon="6.9597">
        <ele>333</ele>
        <time>2011-01-23T08:02:58Z</time>
      </trkpt>
      <trkpt lat="49.18961" lon="6.9597">
        <ele>333</ele>
        <time>2011-01-23T08:02:59Z</time>
      </trkpt>
      <trkpt lat="49.1896" lon="6.95969">
        <ele>333</ele>
        <time>2011-01-23T08:03:00Z</time>
      </trkpt>
      <trkpt lat="49.18959" lon="6.95968">
        <ele>333</ele>
        <time>2011-01-23T08:03:01Z</time>
      </trkpt>
      <trkpt lat="49.18957" lon="6.95966">
        <ele>333</ele>
        <time>2011-01-23T08:03:03Z</time>
      </trkpt>
      <trkpt lat="49.18956" lon="6.95965">
        <ele>333</ele>
        <time>2011-01-23T08:03:04Z</time>
      </trkpt>
      <trkpt lat="49.18954" lon="6.95965">
        <ele>333</ele>
        <time>2011-01-23T08:03:05Z</time>
      </trkpt>
      <trkpt lat="49.18953" lon="6.95964">
        <ele>333</ele>
        <time>2011-01-23T08:03:06Z</time>
      </trkpt>
      <trkpt lat="49.18952" lon="6.95963">
        <ele>333</ele>
        <time>2011-01-23T08:03:07Z</time>
      </trkpt>
      <trkpt lat="49.18951" lon="6.95963">
        <ele>333</ele>
        <time>2011-01-23T08:03:08Z</time>
      </trkpt>
      <trkpt lat="49.18949" lon="6.95961">
        <ele>333</ele>
        <time>2011-01-23T08:03:10Z</time>
      </trkpt>
      <trkpt lat="49.18948" lon="6.9596">
        <ele>333</ele>
        <time>2011-01-23T08:03:11Z</time>
      </trkpt>
      <trkpt lat="49.18946" lon="6.95959">
        <ele>333</ele>
        <time>2011-01-23T08:03:12Z</time>
      </trkpt>
      <trkpt lat="49.18945" lon="6.95957">
        <ele>333</ele>
        <time>2011-01-23T08:03:14Z</time>
      </trkpt>
      <trkpt lat="49.18943" lon="6.95957">
        <ele>333</ele>
        <time>2011-01-23T08:03:15Z</time>
      </trkpt>
      <trkpt lat="49.18942" lon="6.95956">
        <ele>333</ele>
        <time>2011-01-23T08:03:16Z</time>
      </trkpt>
      <trkpt lat="49.1894" lon="6.95954">
        <ele>333</ele>
        <time>2011-01-23T08:03:18Z</time>
      </trkpt>
      <trkpt lat="49.18938" lon="6.95952">
        <ele>333</ele>
        <time>2011-01-23T08:03:20Z</time>
      </trkpt>
      <trkpt lat="49.18936" lon="6.95951">
        <ele>333</ele>
        <time>2011-01-23T08:03:22Z</time>
      </trkpt>
      <trkpt lat="49.18934" lon="6.9595">
        <ele>334</ele>
        <time>2011-01-23T08:03:24Z</time>
      </trkpt>
      <trkpt lat="49.18932" lon="6.95948">
        <ele>334</ele>
        <time>2011-01-23T08:03:26Z</time>
      </trkpt>
      <trkpt lat="49.1893" lon="6.95949">
        <ele>334</ele>
        <time>2011-01-23T08:03:28Z</time>
      </trkpt>
      <trkpt lat="49.18928" lon="6.9595">
        <ele>334</ele>
        <time>2011-01-23T08:03:30Z</time>
      </trkpt>
      <trkpt lat="49.18927" lon="6.95951">
        <ele>334</ele>
        <time>2011-01-23T08:03:32Z</time>
      </trkpt>
      <trkpt lat="49.18925" lon="6.95954">
        <ele>334</ele>
        <time>2011-01-23T08:03:34Z</time>
      </trkpt>
      <trkpt lat="49.18923" lon="6.95956">
        <ele>334</ele>
        <time>2011-01-23T08:03:36Z</time>
      </trkpt>
      <trkpt lat="49.18922" lon="6.95959">
        <ele>334</ele>
        <time>2011-01-23T08:03:38Z</time>
      </trkpt>
      <trkpt lat="49.18921" lon="6.95962">
        <ele>334</ele>
        <time>2011-01-23T08:03:40Z</time>
      </trkpt>
      <trkpt lat="49.18919" lon="6.95965">
        <ele>335</ele>
        <time>2011-01-23T08:03:42Z</time>
      </trkpt>
      <trkpt lat="49.18918" lon="6.95968">
        <ele>335</ele>
        <time>2011-01-23T08:03:44Z</time>
      </trkpt>
      <trkpt lat="49.18916" lon="6.95971">
        <ele>335</ele>
        <time>2011-01-23T08:03:46Z</time>
      </trkpt>
      <trkpt lat="49.18915" lon="6.95974">
        <ele>335</ele>
        <time>2011-01-23T08:03:48Z</time>
      </trkpt>
      <trkpt lat="49.18915" lon="6.95975">
        <ele>336</ele>
        <time>2011-01-23T08:03:49Z</time>
      </trkpt>
      <trkpt lat="49.18913" lon="6.95978">
        <ele>336</ele>
        <time>2011-01-23T08:03:51Z</time>
      </trkpt>
      <trkpt lat="49.18913" lon="6.9598">
        <ele>336</ele>
        <time>2011-01-23T08:03:52Z</time>
      </trkpt>
      <trkpt lat="49.18911" lon="6.95983">
        <ele>336</ele>
        <time>2011-01-23T08:03:54Z</time>
      </trkpt>
      <trkpt lat="49.1891" lon="6.95986">
        <ele>336</ele>
        <time>2011-01-23T08:03:56Z</time>
      </trkpt>
      <trkpt lat="49.18908" lon="6.95988">
        <ele>336</ele>
        <time>2011-01-23T08:03:58Z</time>
      </trkpt>
      <trkpt lat="49.18906" lon="6.95991">
        <ele>337</ele>
        <time>2011-01-23T08:04:00Z</time>
      </trkpt>
      <trkpt lat="49.18904" lon="6.95993">
        <ele>337</ele>
        <time>2011-01-23T08:04:02Z</time>
      </trkpt>
      <trkpt lat="49.18903" lon="6.95994">
        <ele>337</ele>
        <time>2011-01-23T08:04:03Z</time>
      </trkpt>
      <trkpt lat="49.18901" lon="6.95994">
        <ele>337</ele>
        <time>2011-01-23T08:04:04Z</time>
      </trkpt>
      <trkpt lat="49.189" lon="6.95994">
        <ele>337</ele>
        <time>2011-01-23T08:04:05Z</time>
      </trkpt>
      <trkpt lat="49.18899" lon="6.95994">
        <ele>337</ele>
        <time>2011-01-23T08:04:06Z</time>
      </trkpt>
      <trkpt lat="49.18898" lon="6.95993">
        <ele>337</ele>
        <time>2011-01-23T08:04:07Z</time>
      </trkpt>
      <trkpt lat="49.18896" lon="6.95993">
        <ele>337</ele>
        <time>2011-01-23T08:04:08Z</time>
      </trkpt>
      <trkpt lat="49.18895" lon="6.95992">
        <ele>337</ele>
        <time>2011-01-23T08:04:09Z</time>
      </trkpt>
      <trkpt lat="49.18894" lon="6.95991">
        <ele>337</ele>
        <time>2011-01-23T08:04:10Z</time>
      </trkpt>
      <trkpt lat="49.18893" lon="6.95991">
        <ele>337</ele>
        <time>2011-01-23T08:04:11Z</time>
      </trkpt>
      <trkpt lat="49.18892" lon="6.9599">
        <ele>337</ele>
        <time>2011-01-23T08:04:12Z</time>
      </trkpt>
      <trkpt lat="49.1889" lon="6.95989">
        <ele>337</ele>
        <time>2011-01-23T08:04:13Z</time>
      </trkpt>
      <trkpt lat="49.18889" lon="6.95988">
        <ele>337</ele>
        <time>2011-01-23T08:04:14Z</time>
      </trkpt>
      <trkpt lat="49.18888" lon="6.95988">
        <ele>337</ele>
        <time>2011-01-23T08:04:15Z</time>
      </trkpt>
      <trkpt lat="49.18887" lon="6.95987">
        <ele>337</ele>
        <time>2011-01-23T08:04:16Z</time>
      </trkpt>
      <trkpt lat="49.18885" lon="6.95986">
        <ele>337</ele>
        <time>2011-01-23T08:04:17Z</time>
      </trkpt>
      <trkpt lat="49.18884" lon="6.95986">
        <ele>337</ele>
        <time>2011-01-23T08:04:18Z</time>
      </trkpt>
      <trkpt lat="49.18883" lon="6.95985">
        <ele>337</ele>
        <time>2011-01-23T08:04:19Z</time>
      </trkpt>
      <trkpt lat="49.18882" lon="6.95983">
        <ele>337</ele>
        <time>2011-01-23T08:04:20Z</time>
      </trkpt>
      <trkpt lat="49.1888" lon="6.95983">
        <ele>337</ele>
        <time>2011-01-23T08:04:21Z</time>
      </trkpt>
      <trkpt lat="49.18879" lon="6.95981">
        <ele>337</ele>
        <time>2011-01-23T08:04:22Z</time>
      </trkpt>
      <trkpt lat="49.18878" lon="6.9598">
        <ele>337</ele>
        <time>2011-01-23T08:04:23Z</time>
      </trkpt>
      <trkpt lat="49.18877" lon="6.95979">
        <ele>337</ele>
        <time>2011-01-23T08:04:24Z</time>
      </trkpt>
      <trkpt lat="49.18876" lon="6.95979">
        <ele>337</ele>
        <time>2011-01-23T08:04:25Z</time>
      </trkpt>
      <trkpt lat="49.18874" lon="6.95978">
        <ele>337</ele>
        <time>2011-01-23T08:04:26Z</time>
      </trkpt>
      <trkpt lat="49.18873" lon="6.95977">
        <ele>337</ele>
        <time>2011-01-23T08:04:27Z</time>
      </trkpt>
      <trkpt lat="49.18871" lon="6.95975">
        <ele>337</ele>
        <time>2011-01-23T08:04:29Z</time>
      </trkpt>
      <trkpt lat="49.1887" lon="6.95974">
        <ele>337</ele>
        <time>2011-01-23T08:04:30Z</time>
      </trkpt>
      <trkpt lat="49.18869" lon="6.95973">
        <ele>337</ele>
        <time>2011-01-23T08:04:31Z</time>
      </trkpt>
      <trkpt lat="49.18868" lon="6.95972">
        <ele>337</ele>
        <time>2011-01-23T08:04:32Z</time>
      </trkpt>
      <trkpt lat="49.18866" lon="6.95971">
        <ele>337</ele>
        <time>2011-01-23T08:04:33Z</time>
      </trkpt>
      <trkpt lat="49.18865" lon="6.9597">
        <ele>337</ele>
        <time>2011-01-23T08:04:34Z</time>
      </trkpt>
      <trkpt lat="49.18864" lon="6.9597">
        <ele>337</ele>
        <time>2011-01-23T08:04:35Z</time>
      </trkpt>
      <trkpt lat="49.18862" lon="6.95968">
        <ele>337</ele>
        <time>2011-01-23T08:04:37Z</time>
      </trkpt>
      <trkpt lat="49.18861" lon="6.95967">
        <ele>337</ele>
        <time>2011-01-23T08:04:38Z</time>
      </trkpt>
      <trkpt lat="49.18859" lon="6.95966">
        <ele>337</ele>
        <time>2011-01-23T08:04:39Z</time>
      </trkpt>
      <trkpt lat="49.18858" lon="6.95965">
        <ele>337</ele>
        <time>2011-01-23T08:04:40Z</time>
      </trkpt>
      <trkpt lat="49.18857" lon="6.95964">
        <ele>337</ele>
        <time>2011-01-23T08:04:41Z</time>
      </trkpt>
      <trkpt lat="49.18856" lon="6.95963">
        <ele>337</ele>
        <time>2011-01-23T08:04:42Z</time>
      </trkpt>
      <trkpt lat="49.18855" lon="6.95962">
        <ele>337</ele>
        <time>2011-01-23T08:04:43Z</time>
      </trkpt>
      <trkpt lat="49.18853" lon="6.95961">
        <ele>337</ele>
        <time>2011-01-23T08:04:44Z</time>
      </trkpt>
      <trkpt lat="49.18851" lon="6.95959">
        <ele>337</ele>
        <time>2011-01-23T08:04:46Z</time>
      </trkpt>
      <trkpt lat="49.1885" lon="6.95959">
        <ele>337</ele>
        <time>2011-01-23T08:04:47Z</time>
      </trkpt>
      <trkpt lat="49.18849" lon="6.95958">
        <ele>337</ele>
        <time>2011-01-23T08:04:48Z</time>
      </trkpt>
      <trkpt lat="49.18848" lon="6.95957">
        <ele>337</ele>
        <time>2011-01-23T08:04:49Z</time>
      </trkpt>
      <trkpt lat="49.18847" lon="6.95956">
        <ele>337</ele>
        <time>2011-01-23T08:04:50Z</time>
      </trkpt>
      <trkpt lat="49.18845" lon="6.95955">
        <ele>337</ele>
        <time>2011-01-23T08:04:51Z</time>
      </trkpt>
      <trkpt lat="49.18844" lon="6.95954">
        <ele>337</ele>
        <time>2011-01-23T08:04:52Z</time>
      </trkpt>
      <trkpt lat="49.18843" lon="6.95954">
        <ele>337</ele>
        <time>2011-01-23T08:04:53Z</time>
      </trkpt>
      <trkpt lat="49.18842" lon="6.95953">
        <ele>337</ele>
        <time>2011-01-23T08:04:54Z</time>
      </trkpt>
      <trkpt lat="49.18841" lon="6.95952">
        <ele>337</ele>
        <time>2011-01-23T08:04:55Z</time>
      </trkpt>
      <trkpt lat="49.18839" lon="6.95951">
        <ele>337</ele>
        <time>2011-01-23T08:04:57Z</time>
      </trkpt>
      <trkpt lat="49.18837" lon="6.9595">
        <ele>337</ele>
        <time>2011-01-23T08:04:58Z</time>
      </trkpt>
      <trkpt lat="49.18836" lon="6.9595">
        <ele>337</ele>
        <time>2011-01-23T08:04:59Z</time>
      </trkpt>
      <trkpt lat="49.18835" lon="6.95949">
        <ele>337</ele>
        <time>2011-01-23T08:05:00Z</time>
      </trkpt>
      <trkpt lat="49.18834" lon="6.95948">
        <ele>337</ele>
        <time>2011-01-23T08:05:01Z</time>
      </trkpt>
      <trkpt lat="49.18833" lon="6.95947">
        <ele>337</ele>
        <time>2011-01-23T08:05:02Z</time>
      </trkpt>
      <trkpt lat="49.18832" lon="6.95946">
        <ele>337</ele>
        <time>2011-01-23T08:05:03Z</time>
      </trkpt>
      <trkpt lat="49.1883" lon="6.95945">
        <ele>337</ele>
        <time>2011-01-23T08:05:04Z</time>
      </trkpt>
      <trkpt lat="49.18828" lon="6.95944">
        <ele>337</ele>
        <time>2011-01-23T08:05:06Z</time>
      </trkpt>
      <trkpt lat="49.18826" lon="6.95942">
        <ele>337</ele>
        <time>2011-01-23T08:05:08Z</time>
      </trkpt>
      <trkpt lat="49.18824" lon="6.95939">
        <ele>337</ele>
        <time>2011-01-23T08:05:10Z</time>
      </trkpt>
      <trkpt lat="49.18822" lon="6.95936">
        <ele>337</ele>
        <time>2011-01-23T08:05:12Z</time>
      </trkpt>
      <trkpt lat="49.18822" lon="6.95934">
        <ele>337</ele>
        <time>2011-01-23T08:05:13Z</time>
      </trkpt>
      <trkpt lat="49.18821" lon="6.95933">
        <ele>337</ele>
        <time>2011-01-23T08:05:14Z</time>
      </trkpt>
      <trkpt lat="49.1882" lon="6.95931">
        <ele>337</ele>
        <time>2011-01-23T08:05:15Z</time>
      </trkpt>
      <trkpt lat="49.1882" lon="6.95929">
        <ele>337</ele>
        <time>2011-01-23T08:05:16Z</time>
      </trkpt>
      <trkpt lat="49.18819" lon="6.95927">
        <ele>337</ele>
        <time>2011-01-23T08:05:17Z</time>
      </trkpt>
      <trkpt lat="49.18819" lon="6.95926">
        <ele>337</ele>
        <time>2011-01-23T08:05:18Z</time>
      </trkpt>
      <trkpt lat="49.18818" lon="6.95924">
        <ele>337</ele>
        <time>2011-01-23T08:05:19Z</time>
      </trkpt>
      <trkpt lat="49.18818" lon="6.95922">
        <ele>337</ele>
        <time>2011-01-23T08:05:20Z</time>
      </trkpt>
      <trkpt lat="49.18817" lon="6.9592">
        <ele>337</ele>
        <time>2011-01-23T08:05:21Z</time>
      </trkpt>
      <trkpt lat="49.18815" lon="6.95918">
        <ele>337</ele>
        <time>2011-01-23T08:05:23Z</time>
      </trkpt>
      <trkpt lat="49.18813" lon="6.95919">
        <ele>337</ele>
        <time>2011-01-23T08:05:25Z</time>
      </trkpt>
      <trkpt lat="49.18812" lon="6.95921">
        <ele>338</ele>
        <time>2011-01-23T08:05:27Z</time>
      </trkpt>
      <trkpt lat="49.1881" lon="6.95923">
        <ele>338</ele>
        <time>2011-01-23T08:05:29Z</time>
      </trkpt>
      <trkpt lat="49.18808" lon="6.95926">
        <ele>338</ele>
        <time>2011-01-23T08:05:31Z</time>
      </trkpt>
      <trkpt lat="49.18807" lon="6.95928">
        <ele>338</ele>
        <time>2011-01-23T08:05:33Z</time>
      </trkpt>
      <trkpt lat="49.18806" lon="6.9593">
        <ele>339</ele>
        <time>2011-01-23T08:05:34Z</time>
      </trkpt>
      <trkpt lat="49.18805" lon="6.95932">
        <ele>339</ele>
        <time>2011-01-23T08:05:35Z</time>
      </trkpt>
      <trkpt lat="49.18805" lon="6.95933">
        <ele>339</ele>
        <time>2011-01-23T08:05:36Z</time>
      </trkpt>
      <trkpt lat="49.18803" lon="6.95936">
        <ele>339</ele>
        <time>2011-01-23T08:05:38Z</time>
      </trkpt>
      <trkpt lat="49.18802" lon="6.95939">
        <ele>339</ele>
        <time>2011-01-23T08:05:40Z</time>
      </trkpt>
      <trkpt lat="49.18801" lon="6.95941">
        <ele>339</ele>
        <time>2011-01-23T08:05:41Z</time>
      </trkpt>
      <trkpt lat="49.188" lon="6.95944">
        <ele>339</ele>
        <time>2011-01-23T08:05:43Z</time>
      </trkpt>
      <trkpt lat="49.18799" lon="6.95946">
        <ele>339</ele>
        <time>2011-01-23T08:05:44Z</time>
      </trkpt>
      <trkpt lat="49.18798" lon="6.95949">
        <ele>340</ele>
        <time>2011-01-23T08:05:46Z</time>
      </trkpt>
      <trkpt lat="49.18796" lon="6.95952">
        <ele>340</ele>
        <time>2011-01-23T08:05:48Z</time>
      </trkpt>
      <trkpt lat="49.18796" lon="6.95953">
        <ele>340</ele>
        <time>2011-01-23T08:05:49Z</time>
      </trkpt>
      <trkpt lat="49.18795" lon="6.95955">
        <ele>340</ele>
        <time>2011-01-23T08:05:50Z</time>
      </trkpt>
      <trkpt lat="49.18794" lon="6.95957">
        <ele>340</ele>
        <time>2011-01-23T08:05:51Z</time>
      </trkpt>
      <trkpt lat="49.18793" lon="6.95959">
        <ele>340</ele>
        <time>2011-01-23T08:05:52Z</time>
      </trkpt>
      <trkpt lat="49.18793" lon="6.9596">
        <ele>340</ele>
        <time>2011-01-23T08:05:53Z</time>
      </trkpt>
      <trkpt lat="49.18792" lon="6.95962">
        <ele>340</ele>
        <time>2011-01-23T08:05:54Z</time>
      </trkpt>
      <trkpt lat="49.18792" lon="6.95964">
        <ele>340</ele>
        <time>2011-01-23T08:05:55Z</time>
      </trkpt>
      <trkpt lat="49.18791" lon="6.95965">
        <ele>340</ele>
        <time>2011-01-23T08:05:56Z</time>
      </trkpt>
      <trkpt lat="49.1879" lon="6.95967">
        <ele>340</ele>
        <time>2011-01-23T08:05:57Z</time>
      </trkpt>
      <trkpt lat="49.18789" lon="6.95969">
        <ele>340</ele>
        <time>2011-01-23T08:05:58Z</time>
      </trkpt>
      <trkpt lat="49.18789" lon="6.9597">
        <ele>340</ele>
        <time>2011-01-23T08:05:59Z</time>
      </trkpt>
      <trkpt lat="49.18788" lon="6.95972">
        <ele>340</ele>
        <time>2011-01-23T08:06:00Z</time>
      </trkpt>
      <trkpt lat="49.18787" lon="6.95974">
        <ele>341</ele>
        <time>2011-01-23T08:06:01Z</time>
      </trkpt>
      <trkpt lat="49.18785" lon="6.95977">
        <ele>341</ele>
        <time>2011-01-23T08:06:03Z</time>
      </trkpt>
      <trkpt lat="49.18784" lon="6.95979">
        <ele>341</ele>
        <time>2011-01-23T08:06:04Z</time>
      </trkpt>
      <trkpt lat="49.18784" lon="6.9598">
        <ele>341</ele>
        <time>2011-01-23T08:06:05Z</time>
      </trkpt>
      <trkpt lat="49.18782" lon="6.95984">
        <ele>341</ele>
        <time>2011-01-23T08:06:07Z</time>
      </trkpt>
      <trkpt lat="49.18782" lon="6.95985">
        <ele>341</ele>
        <time>2011-01-23T08:06:08Z</time>
      </trkpt>
      <trkpt lat="49.18781" lon="6.95987">
        <ele>341</ele>
        <time>2011-01-23T08:06:09Z</time>
      </trkpt>
      <trkpt lat="49.1878" lon="6.95989">
        <ele>341</ele>
        <time>2011-01-23T08:06:10Z</time>
      </trkpt>
      <trkpt lat="49.18779" lon="6.9599">
        <ele>341</ele>
        <time>2011-01-23T08:06:11Z</time>
      </trkpt>
      <trkpt lat="49.18778" lon="6.95992">
        <ele>341</ele>
        <time>2011-01-23T08:06:12Z</time>
      </trkpt>
      <trkpt lat="49.18776" lon="6.95994">
        <ele>341</ele>
        <time>2011-01-23T08:06:14Z</time>
      </trkpt>
      <trkpt lat="49.18775" lon="6.95996">
        <ele>341</ele>
        <time>2011-01-23T08:06:17Z</time>
      </trkpt>
      <trkpt lat="49.18774" lon="6.95998">
        <ele>341</ele>
        <time>2011-01-23T08:06:19Z</time>
      </trkpt>
      <trkpt lat="49.18773" lon="6.96001">
        <ele>341</ele>
        <time>2011-01-23T08:06:22Z</time>
      </trkpt>
      <trkpt lat="49.18772" lon="6.96004">
        <ele>341</ele>
        <time>2011-01-23T08:06:24Z</time>
      </trkpt>
      <trkpt lat="49.1877" lon="6.96007">
        <ele>341</ele>
        <time>2011-01-23T08:06:26Z</time>
      </trkpt>
      <trkpt lat="49.18769" lon="6.96009">
        <ele>341</ele>
        <time>2011-01-23T08:06:28Z</time>
      </trkpt>
      <trkpt lat="49.18767" lon="6.96012">
        <ele>341</ele>
        <time>2011-01-23T08:06:30Z</time>
      </trkpt>
      <trkpt lat="49.18766" lon="6.96015">
        <ele>342</ele>
        <time>2011-01-23T08:06:32Z</time>
      </trkpt>
      <trkpt lat="49.18765" lon="6.96018">
        <ele>342</ele>
        <time>2011-01-23T08:06:34Z</time>
      </trkpt>
      <trkpt lat="49.18763" lon="6.96021">
        <ele>342</ele>
        <time>2011-01-23T08:06:36Z</time>
      </trkpt>
      <trkpt lat="49.18762" lon="6.96024">
        <ele>342</ele>
        <time>2011-01-23T08:06:38Z</time>
      </trkpt>
      <trkpt lat="49.18761" lon="6.96027">
        <ele>342</ele>
        <time>2011-01-23T08:06:40Z</time>
      </trkpt>
      <trkpt lat="49.18759" lon="6.9603">
        <ele>342</ele>
        <time>2011-01-23T08:06:42Z</time>
      </trkpt>
      <trkpt lat="49.18758" lon="6.96031">
        <ele>342</ele>
        <time>2011-01-23T08:06:43Z</time>
      </trkpt>
      <trkpt lat="49.18758" lon="6.96033">
        <ele>342</ele>
        <time>2011-01-23T08:06:44Z</time>
      </trkpt>
      <trkpt lat="49.18756" lon="6.96036">
        <ele>343</ele>
        <time>2011-01-23T08:06:46Z</time>
      </trkpt>
      <trkpt lat="49.18755" lon="6.96039">
        <ele>343</ele>
        <time>2011-01-23T08:06:48Z</time>
      </trkpt>
      <trkpt lat="49.18753" lon="6.96041">
        <ele>343</ele>
        <time>2011-01-23T08:06:50Z</time>
      </trkpt>
      <trkpt lat="49.18753" lon="6.96043">
        <ele>343</ele>
        <time>2011-01-23T08:06:51Z</time>
      </trkpt>
      <trkpt lat="49.18751" lon="6.96046">
        <ele>343</ele>
        <time>2011-01-23T08:06:53Z</time>
      </trkpt>
      <trkpt lat="49.1875" lon="6.96049">
        <ele>343</ele>
        <time>2011-01-23T08:06:55Z</time>
      </trkpt>
      <trkpt lat="49.18749" lon="6.96051">
        <ele>343</ele>
        <time>2011-01-23T08:06:56Z</time>
      </trkpt>
      <trkpt lat="49.18748" lon="6.96054">
        <ele>343</ele>
        <time>2011-01-23T08:06:58Z</time>
      </trkpt>
      <trkpt lat="49.18746" lon="6.96057">
        <ele>343</ele>
        <time>2011-01-23T08:07:00Z</time>
      </trkpt>
      <trkpt lat="49.18745" lon="6.9606">
        <ele>343</ele>
        <time>2011-01-23T08:07:02Z</time>
      </trkpt>
      <trkpt lat="49.18744" lon="6.96062">
        <ele>343</ele>
        <time>2011-01-23T08:07:04Z</time>
      </trkpt>
      <trkpt lat="49.18743" lon="6.96064">
        <ele>343</ele>
        <time>2011-01-23T08:07:05Z</time>
      </trkpt>
      <trkpt lat="49.18742" lon="6.96067">
        <ele>343</ele>
        <time>2011-01-23T08:07:07Z</time>
      </trkpt>
      <trkpt lat="49.1874" lon="6.9607">
        <ele>343</ele>
        <time>2011-01-23T08:07:09Z</time>
      </trkpt>
      <trkpt lat="49.18739" lon="6.96073">
        <ele>343</ele>
        <time>2011-01-23T08:07:11Z</time>
      </trkpt>
      <trkpt lat="49.18737" lon="6.96076">
        <ele>343</ele>
        <time>2011-01-23T08:07:13Z</time>
      </trkpt>
      <trkpt lat="49.18736" lon="6.96079">
        <ele>343</ele>
        <time>2011-01-23T08:07:15Z</time>
      </trkpt>
      <trkpt lat="49.18735" lon="6.96082">
        <ele>343</ele>
        <time>2011-01-23T08:07:17Z</time>
      </trkpt>
      <trkpt lat="49.18734" lon="6.96085">
        <ele>344</ele>
        <time>2011-01-23T08:07:19Z</time>
      </trkpt>
      <trkpt lat="49.18733" lon="6.96087">
        <ele>344</ele>
        <time>2011-01-23T08:07:20Z</time>
      </trkpt>
      <trkpt lat="49.18732" lon="6.96088">
        <ele>344</ele>
        <time>2011-01-23T08:07:21Z</time>
      </trkpt>
      <trkpt lat="49.18732" lon="6.9609">
        <ele>344</ele>
        <time>2011-01-23T08:07:22Z</time>
      </trkpt>
      <trkpt lat="49.18731" lon="6.96092">
        <ele>344</ele>
        <time>2011-01-23T08:07:23Z</time>
      </trkpt>
      <trkpt lat="49.18731" lon="6.96093">
        <ele>344</ele>
        <time>2011-01-23T08:07:24Z</time>
      </trkpt>
      <trkpt lat="49.18729" lon="6.96096">
        <ele>344</ele>
        <time>2011-01-23T08:07:26Z</time>
      </trkpt>
      <trkpt lat="49.18729" lon="6.96098">
        <ele>344</ele>
        <time>2011-01-23T08:07:27Z</time>
      </trkpt>
      <trkpt lat="49.18728" lon="6.961">
        <ele>344</ele>
        <time>2011-01-23T08:07:28Z</time>
      </trkpt>
      <trkpt lat="49.18727" lon="6.96101">
        <ele>344</ele>
        <time>2011-01-23T08:07:29Z</time>
      </trkpt>
      <trkpt lat="49.18726" lon="6.96105">
        <ele>344</ele>
        <time>2011-01-23T08:07:31Z</time>
      </trkpt>
      <trkpt lat="49.18726" lon="6.96106">
        <ele>344</ele>
        <time>2011-01-23T08:07:32Z</time>
      </trkpt>
      <trkpt lat="49.18724" lon="6.9611">
        <ele>344</ele>
        <time>2011-01-23T08:07:34Z</time>
      </trkpt>
      <trkpt lat="49.18724" lon="6.96111">
        <ele>345</ele>
        <time>2011-01-23T08:07:35Z</time>
      </trkpt>
      <trkpt lat="49.18724" lon="6.96113">
        <ele>345</ele>
        <time>2011-01-23T08:07:36Z</time>
      </trkpt>
      <trkpt lat="49.18723" lon="6.96115">
        <ele>345</ele>
        <time>2011-01-23T08:07:37Z</time>
      </trkpt>
      <trkpt lat="49.18722" lon="6.96117">
        <ele>345</ele>
        <time>2011-01-23T08:07:38Z</time>
      </trkpt>
      <trkpt lat="49.18722" lon="6.96119">
        <ele>345</ele>
        <time>2011-01-23T08:07:39Z</time>
      </trkpt>
      <trkpt lat="49.18721" lon="6.96121">
        <ele>345</ele>
        <time>2011-01-23T08:07:40Z</time>
      </trkpt>
      <trkpt lat="49.18721" lon="6.96123">
        <ele>345</ele>
        <time>2011-01-23T08:07:41Z</time>
      </trkpt>
      <trkpt lat="49.1872" lon="6.96125">
        <ele>345</ele>
        <time>2011-01-23T08:07:42Z</time>
      </trkpt>
      <trkpt lat="49.18719" lon="6.96127">
        <ele>345</ele>
        <time>2011-01-23T08:07:43Z</time>
      </trkpt>
      <trkpt lat="49.18719" lon="6.96129">
        <ele>345</ele>
        <time>2011-01-23T08:07:44Z</time>
      </trkpt>
      <trkpt lat="49.18718" lon="6.96131">
        <ele>345</ele>
        <time>2011-01-23T08:07:45Z</time>
      </trkpt>
      <trkpt lat="49.18718" lon="6.96133">
        <ele>345</ele>
        <time>2011-01-23T08:07:46Z</time>
      </trkpt>
      <trkpt lat="49.18718" lon="6.96134">
        <ele>345</ele>
        <time>2011-01-23T08:07:47Z</time>
      </trkpt>
      <trkpt lat="49.18717" lon="6.96136">
        <ele>345</ele>
        <time>2011-01-23T08:07:48Z</time>
      </trkpt>
      <trkpt lat="49.18716" lon="6.96138">
        <ele>345</ele>
        <time>2011-01-23T08:07:49Z</time>
      </trkpt>
      <trkpt lat="49.18716" lon="6.9614">
        <ele>345</ele>
        <time>2011-01-23T08:07:50Z</time>
      </trkpt>
      <trkpt lat="49.18716" lon="6.96142">
        <ele>345</ele>
        <time>2011-01-23T08:07:51Z</time>
      </trkpt>
      <trkpt lat="49.18715" lon="6.96144">
        <ele>345</ele>
        <time>2011-01-23T08:07:52Z</time>
      </trkpt>
      <trkpt lat="49.18715" lon="6.96146">
        <ele>345</ele>
        <time>2011-01-23T08:07:53Z</time>
      </trkpt>
      <trkpt lat="49.18714" lon="6.96147">
        <ele>345</ele>
        <time>2011-01-23T08:07:54Z</time>
      </trkpt>
      <trkpt lat="49.18714" lon="6.96149">
        <ele>345</ele>
        <time>2011-01-23T08:07:55Z</time>
      </trkpt>
      <trkpt lat="49.18713" lon="6.96151">
        <ele>345</ele>
        <time>2011-01-23T08:07:56Z</time>
      </trkpt>
      <trkpt lat="49.18713" lon="6.96153">
        <ele>345</ele>
        <time>2011-01-23T08:07:57Z</time>
      </trkpt>
      <trkpt lat="49.18712" lon="6.96155">
        <ele>345</ele>
        <time>2011-01-23T08:07:58Z</time>
      </trkpt>
      <trkpt lat="49.18712" lon="6.96157">
        <ele>345</ele>
        <time>2011-01-23T08:07:59Z</time>
      </trkpt>
      <trkpt lat="49.18711" lon="6.96159">
        <ele>345</ele>
        <time>2011-01-23T08:08:00Z</time>
      </trkpt>
      <trkpt lat="49.1871" lon="6.9616">
        <ele>345</ele>
        <time>2011-01-23T08:08:01Z</time>
      </trkpt>
      <trkpt lat="49.1871" lon="6.96162">
        <ele>345</ele>
        <time>2011-01-23T08:08:02Z</time>
      </trkpt>
      <trkpt lat="49.18709" lon="6.96164">
        <ele>345</ele>
        <time>2011-01-23T08:08:03Z</time>
      </trkpt>
      <trkpt lat="49.18708" lon="6.96167">
        <ele>345</ele>
        <time>2011-01-23T08:08:05Z</time>
      </trkpt>
      <trkpt lat="49.18708" lon="6.96169">
        <ele>345</ele>
        <time>2011-01-23T08:08:06Z</time>
      </trkpt>
      <trkpt lat="49.18707" lon="6.96171">
        <ele>345</ele>
        <time>2011-01-23T08:08:07Z</time>
      </trkpt>
      <trkpt lat="49.18707" lon="6.96173">
        <ele>345</ele>
        <time>2011-01-23T08:08:08Z</time>
      </trkpt>
      <trkpt lat="49.18706" lon="6.96174">
        <ele>345</ele>
        <time>2011-01-23T08:08:09Z</time>
      </trkpt>
      <trkpt lat="49.18705" lon="6.96176">
        <ele>345</ele>
        <time>2011-01-23T08:08:10Z</time>
      </trkpt>
      <trkpt lat="49.18705" lon="6.96178">
        <ele>345</ele>
        <time>2011-01-23T08:08:11Z</time>
      </trkpt>
      <trkpt lat="49.18704" lon="6.96179">
        <ele>345</ele>
        <time>2011-01-23T08:08:12Z</time>
      </trkpt>
      <trkpt lat="49.18703" lon="6.96181">
        <ele>345</ele>
        <time>2011-01-23T08:08:13Z</time>
      </trkpt>
      <trkpt lat="49.18702" lon="6.96185">
        <ele>345</ele>
        <time>2011-01-23T08:08:15Z</time>
      </trkpt>
      <trkpt lat="49.18702" lon="6.96186">
        <ele>345</ele>
        <time>2011-01-23T08:08:16Z</time>
      </trkpt>
      <trkpt lat="49.18701" lon="6.96188">
        <ele>345</ele>
        <time>2011-01-23T08:08:17Z</time>
      </trkpt>
      <trkpt lat="49.187" lon="6.9619">
        <ele>345</ele>
        <time>2011-01-23T08:08:18Z</time>
      </trkpt>
      <trkpt lat="49.187" lon="6.96192">
        <ele>345</ele>
        <time>2011-01-23T08:08:19Z</time>
      </trkpt>
      <trkpt lat="49.18699" lon="6.96194">
        <ele>345</ele>
        <time>2011-01-23T08:08:20Z</time>
      </trkpt>
      <trkpt lat="49.18698" lon="6.96196">
        <ele>345</ele>
        <time>2011-01-23T08:08:21Z</time>
      </trkpt>
      <trkpt lat="49.18698" lon="6.96198">
        <ele>345</ele>
        <time>2011-01-23T08:08:22Z</time>
      </trkpt>
      <trkpt lat="49.18697" lon="6.96199">
        <ele>345</ele>
        <time>2011-01-23T08:08:23Z</time>
      </trkpt>
      <trkpt lat="49.18696" lon="6.96201">
        <ele>345</ele>
        <time>2011-01-23T08:08:24Z</time>
      </trkpt>
      <trkpt lat="49.18696" lon="6.96203">
        <ele>345</ele>
        <time>2011-01-23T08:08:25Z</time>
      </trkpt>
      <trkpt lat="49.18695" lon="6.96205">
        <ele>345</ele>
        <time>2011-01-23T08:08:26Z</time>
      </trkpt>
      <trkpt lat="49.18695" lon="6.96206">
        <ele>345</ele>
        <time>2011-01-23T08:08:27Z</time>
      </trkpt>
      <trkpt lat="49.18694" lon="6.96208">
        <ele>345</ele>
        <time>2011-01-23T08:08:28Z</time>
      </trkpt>
      <trkpt lat="49.18693" lon="6.9621">
        <ele>345</ele>
        <time>2011-01-23T08:08:29Z</time>
      </trkpt>
      <trkpt lat="49.18693" lon="6.96211">
        <ele>345</ele>
        <time>2011-01-23T08:08:30Z</time>
      </trkpt>
      <trkpt lat="49.18692" lon="6.96213">
        <ele>345</ele>
        <time>2011-01-23T08:08:31Z</time>
      </trkpt>
      <trkpt lat="49.18691" lon="6.96215">
        <ele>345</ele>
        <time>2011-01-23T08:08:32Z</time>
      </trkpt>
      <trkpt lat="49.18691" lon="6.96217">
        <ele>345</ele>
        <time>2011-01-23T08:08:33Z</time>
      </trkpt>
      <trkpt lat="49.1869" lon="6.96218">
        <ele>345</ele>
        <time>2011-01-23T08:08:34Z</time>
      </trkpt>
      <trkpt lat="49.18689" lon="6.9622">
        <ele>345</ele>
        <time>2011-01-23T08:08:35Z</time>
      </trkpt>
      <trkpt lat="49.18689" lon="6.96222">
        <ele>345</ele>
        <time>2011-01-23T08:08:36Z</time>
      </trkpt>
      <trkpt lat="49.18688" lon="6.96224">
        <ele>345</ele>
        <time>2011-01-23T08:08:37Z</time>
      </trkpt>
      <trkpt lat="49.18687" lon="6.96226">
        <ele>345</ele>
        <time>2011-01-23T08:08:38Z</time>
      </trkpt>
      <trkpt lat="49.18687" lon="6.96227">
        <ele>345</ele>
        <time>2011-01-23T08:08:39Z</time>
      </trkpt>
      <trkpt lat="49.18686" lon="6.96229">
        <ele>345</ele>
        <time>2011-01-23T08:08:40Z</time>
      </trkpt>
      <trkpt lat="49.18686" lon="6.96231">
        <ele>345</ele>
        <time>2011-01-23T08:08:41Z</time>
      </trkpt>
      <trkpt lat="49.18685" lon="6.96232">
        <ele>345</ele>
        <time>2011-01-23T08:08:42Z</time>
      </trkpt>
      <trkpt lat="49.18684" lon="6.96234">
        <ele>345</ele>
        <time>2011-01-23T08:08:43Z</time>
      </trkpt>
      <trkpt lat="49.18684" lon="6.96236">
        <ele>345</ele>
        <time>2011-01-23T08:08:44Z</time>
      </trkpt>
      <trkpt lat="49.18683" lon="6.96238">
        <ele>345</ele>
        <time>2011-01-23T08:08:45Z</time>
      </trkpt>
      <trkpt lat="49.18682" lon="6.9624">
        <ele>345</ele>
        <time>2011-01-23T08:08:46Z</time>
      </trkpt>
      <trkpt lat="49.18682" lon="6.96242">
        <ele>345</ele>
        <time>2011-01-23T08:08:47Z</time>
      </trkpt>
      <trkpt lat="49.18681" lon="6.96244">
        <ele>345</ele>
        <time>2011-01-23T08:08:48Z</time>
      </trkpt>
      <trkpt lat="49.1868" lon="6.96245">
        <ele>345</ele>
        <time>2011-01-23T08:08:49Z</time>
      </trkpt>
      <trkpt lat="49.18679" lon="6.96247">
        <ele>345</ele>
        <time>2011-01-23T08:08:50Z</time>
      </trkpt>
      <trkpt lat="49.18679" lon="6.96249">
        <ele>345</ele>
        <time>2011-01-23T08:08:51Z</time>
      </trkpt>
      <trkpt lat="49.18678" lon="6.96251">
        <ele>345</ele>
        <time>2011-01-23T08:08:52Z</time>
      </trkpt>
      <trkpt lat="49.18678" lon="6.96253">
        <ele>345</ele>
        <time>2011-01-23T08:08:53Z</time>
      </trkpt>
      <trkpt lat="49.18677" lon="6.96254">
        <ele>345</ele>
        <time>2011-01-23T08:08:54Z</time>
      </trkpt>
      <trkpt lat="49.18676" lon="6.96256">
        <ele>345</ele>
        <time>2011-01-23T08:08:55Z</time>
      </trkpt>
      <trkpt lat="49.18676" lon="6.96258">
        <ele>345</ele>
        <time>2011-01-23T08:08:56Z</time>
      </trkpt>
      <trkpt lat="49.18675" lon="6.9626">
        <ele>345</ele>
        <time>2011-01-23T08:08:57Z</time>
      </trkpt>
      <trkpt lat="49.18674" lon="6.96262">
        <ele>345</ele>
        <time>2011-01-23T08:08:58Z</time>
      </trkpt>
      <trkpt lat="49.18674" lon="6.96264">
        <ele>345</ele>
        <time>2011-01-23T08:08:59Z</time>
      </trkpt>
      <trkpt lat="49.18673" lon="6.96266">
        <ele>345</ele>
        <time>2011-01-23T08:09:00Z</time>
      </trkpt>
      <trkpt lat="49.18672" lon="6.96267">
        <ele>345</ele>
        <time>2011-01-23T08:09:01Z</time>
      </trkpt>
      <trkpt lat="49.18672" lon="6.96269">
        <ele>345</ele>
        <time>2011-01-23T08:09:02Z</time>
      </trkpt>
      <trkpt lat="49.18671" lon="6.96271">
        <ele>345</ele>
        <time>2011-01-23T08:09:03Z</time>
      </trkpt>
      <trkpt lat="49.1867" lon="6.96273">
        <ele>345</ele>
        <time>2011-01-23T08:09:04Z</time>
      </trkpt>
      <trkpt lat="49.1867" lon="6.96275">
        <ele>345</ele>
        <time>2011-01-23T08:09:05Z</time>
      </trkpt>
      <trkpt lat="49.18669" lon="6.96276">
        <ele>345</ele>
        <time>2011-01-23T08:09:06Z</time>
      </trkpt>
      <trkpt lat="49.18668" lon="6.96279">
        <ele>345</ele>
        <time>2011-01-23T08:09:08Z</time>
      </trkpt>
      <trkpt lat="49.18668" lon="6.96281">
        <ele>345</ele>
        <time>2011-01-23T08:09:09Z</time>
      </trkpt>
      <trkpt lat="49.18667" lon="6.96283">
        <ele>345</ele>
        <time>2011-01-23T08:09:10Z</time>
      </trkpt>
      <trkpt lat="49.18666" lon="6.96285">
        <ele>345</ele>
        <time>2011-01-23T08:09:11Z</time>
      </trkpt>
      <trkpt lat="49.18666" lon="6.96287">
        <ele>345</ele>
        <time>2011-01-23T08:09:12Z</time>
      </trkpt>
      <trkpt lat="49.18665" lon="6.96288">
        <ele>345</ele>
        <time>2011-01-23T08:09:13Z</time>
      </trkpt>
      <trkpt lat="49.18664" lon="6.9629">
        <ele>345</ele>
        <time>2011-01-23T08:09:14Z</time>
      </trkpt>
      <trkpt lat="49.18664" lon="6.96292">
        <ele>345</ele>
        <time>2011-01-23T08:09:15Z</time>
      </trkpt>
      <trkpt lat="49.18663" lon="6.96294">
        <ele>345</ele>
        <time>2011-01-23T08:09:16Z</time>
      </trkpt>
      <trkpt lat="49.18663" lon="6.96296">
        <ele>345</ele>
        <time>2011-01-23T08:09:17Z</time>
      </trkpt>
      <trkpt lat="49.18662" lon="6.96297">
        <ele>345</ele>
        <time>2011-01-23T08:09:18Z</time>
      </trkpt>
      <trkpt lat="49.18661" lon="6.96299">
        <ele>345</ele>
        <time>2011-01-23T08:09:19Z</time>
      </trkpt>
      <trkpt lat="49.18661" lon="6.96301">
        <ele>345</ele>
        <time>2011-01-23T08:09:20Z</time>
      </trkpt>
      <trkpt lat="49.1866" lon="6.96303">
        <ele>345</ele>
        <time>2011-01-23T08:09:21Z</time>
      </trkpt>
      <trkpt lat="49.18659" lon="6.96305">
        <ele>345</ele>
        <time>2011-01-23T08:09:22Z</time>
      </trkpt>
      <trkpt lat="49.18659" lon="6.96307">
        <ele>345</ele>
        <time>2011-01-23T08:09:23Z</time>
      </trkpt>
      <trkpt lat="49.18658" lon="6.96308">
        <ele>345</ele>
        <time>2011-01-23T08:09:24Z</time>
      </trkpt>
      <trkpt lat="49.18658" lon="6.9631">
        <ele>345</ele>
        <time>2011-01-23T08:09:25Z</time>
      </trkpt>
      <trkpt lat="49.18657" lon="6.96312">
        <ele>345</ele>
        <time>2011-01-23T08:09:26Z</time>
      </trkpt>
      <trkpt lat="49.18656" lon="6.96313">
        <ele>345</ele>
        <time>2011-01-23T08:09:27Z</time>
      </trkpt>
      <trkpt lat="49.18656" lon="6.96315">
        <ele>345</ele>
        <time>2011-01-23T08:09:28Z</time>
      </trkpt>
      <trkpt lat="49.18655" lon="6.96317">
        <ele>345</ele>
        <time>2011-01-23T08:09:29Z</time>
      </trkpt>
      <trkpt lat="49.18655" lon="6.96319">
        <ele>345</ele>
        <time>2011-01-23T08:09:30Z</time>
      </trkpt>
      <trkpt lat="49.18654" lon="6.9632">
        <ele>345</ele>
        <time>2011-01-23T08:09:31Z</time>
      </trkpt>
      <trkpt lat="49.18653" lon="6.96322">
        <ele>345</ele>
        <time>2011-01-23T08:09:32Z</time>
      </trkpt>
      <trkpt lat="49.18653" lon="6.96324">
        <ele>345</ele>
        <time>2011-01-23T08:09:33Z</time>
      </trkpt>
      <trkpt lat="49.18652" lon="6.96326">
        <ele>345</ele>
        <time>2011-01-23T08:09:34Z</time>
      </trkpt>
      <trkpt lat="49.18651" lon="6.96328">
        <ele>345</ele>
        <time>2011-01-23T08:09:35Z</time>
      </trkpt>
      <trkpt lat="49.18651" lon="6.9633">
        <ele>345</ele>
        <time>2011-01-23T08:09:36Z</time>
      </trkpt>
      <trkpt lat="49.1865" lon="6.96332">
        <ele>345</ele>
        <time>2011-01-23T08:09:37Z</time>
      </trkpt>
      <trkpt lat="49.1865" lon="6.96333">
        <ele>345</ele>
        <time>2011-01-23T08:09:38Z</time>
      </trkpt>
      <trkpt lat="49.18649" lon="6.96335">
        <ele>345</ele>
        <time>2011-01-23T08:09:39Z</time>
      </trkpt>
      <trkpt lat="49.18648" lon="6.96337">
        <ele>345</ele>
        <time>2011-01-23T08:09:40Z</time>
      </trkpt>
      <trkpt lat="49.18648" lon="6.96339">
        <ele>345</ele>
        <time>2011-01-23T08:09:41Z</time>
      </trkpt>
      <trkpt lat="49.18647" lon="6.9634">
        <ele>345</ele>
        <time>2011-01-23T08:09:42Z</time>
      </trkpt>
      <trkpt lat="49.18647" lon="6.96342">
        <ele>345</ele>
        <time>2011-01-23T08:09:43Z</time>
      </trkpt>
      <trkpt lat="49.18646" lon="6.96345">
        <ele>345</ele>
        <time>2011-01-23T08:09:45Z</time>
      </trkpt>
      <trkpt lat="49.18645" lon="6.96347">
        <ele>345</ele>
        <time>2011-01-23T08:09:46Z</time>
      </trkpt>
      <trkpt lat="49.18644" lon="6.96349">
        <ele>345</ele>
        <time>2011-01-23T08:09:47Z</time>
      </trkpt>
      <trkpt lat="49.18644" lon="6.9635">
        <ele>345</ele>
        <time>2011-01-23T08:09:48Z</time>
      </trkpt>
      <trkpt lat="49.18643" lon="6.96352">
        <ele>345</ele>
        <time>2011-01-23T08:09:49Z</time>
      </trkpt>
      <trkpt lat="49.18642" lon="6.96354">
        <ele>345</ele>
        <time>2011-01-23T08:09:50Z</time>
      </trkpt>
      <trkpt lat="49.18642" lon="6.96356">
        <ele>345</ele>
        <time>2011-01-23T08:09:51Z</time>
      </trkpt>
      <trkpt lat="49.18641" lon="6.96357">
        <ele>345</ele>
        <time>2011-01-23T08:09:52Z</time>
      </trkpt>
      <trkpt lat="49.18641" lon="6.96359">
        <ele>345</ele>
        <time>2011-01-23T08:09:53Z</time>
      </trkpt>
      <trkpt lat="49.1864" lon="6.96361">
        <ele>345</ele>
        <time>2011-01-23T08:09:54Z</time>
      </trkpt>
      <trkpt lat="49.18639" lon="6.96363">
        <ele>345</ele>
        <time>2011-01-23T08:09:55Z</time>
      </trkpt>
      <trkpt lat="49.18639" lon="6.96364">
        <ele>345</ele>
        <time>2011-01-23T08:09:56Z</time>
      </trkpt>
      <trkpt lat="49.18638" lon="6.96366">
        <ele>345</ele>
        <time>2011-01-23T08:09:57Z</time>
      </trkpt>
      <trkpt lat="49.18637" lon="6.96368">
        <ele>345</ele>
        <time>2011-01-23T08:09:58Z</time>
      </trkpt>
      <trkpt lat="49.18636" lon="6.9637">
        <ele>345</ele>
        <time>2011-01-23T08:09:59Z</time>
      </trkpt>
      <trkpt lat="49.18636" lon="6.96372">
        <ele>345</ele>
        <time>2011-01-23T08:10:00Z</time>
      </trkpt>
      <trkpt lat="49.18635" lon="6.96374">
        <ele>345</ele>
        <time>2011-01-23T08:10:01Z</time>
      </trkpt>
      <trkpt lat="49.18634" lon="6.96375">
        <ele>345</ele>
        <time>2011-01-23T08:10:02Z</time>
      </trkpt>
      <trkpt lat="49.18634" lon="6.96377">
        <ele>345</ele>
        <time>2011-01-23T08:10:03Z</time>
      </trkpt>
      <trkpt lat="49.18632" lon="6.9638">
        <ele>345</ele>
        <time>2011-01-23T08:10:05Z</time>
      </trkpt>
      <trkpt lat="49.18631" lon="6.96382">
        <ele>345</ele>
        <time>2011-01-23T08:10:06Z</time>
      </trkpt>
      <trkpt lat="49.1863" lon="6.96383">
        <ele>345</ele>
        <time>2011-01-23T08:10:07Z</time>
      </trkpt>
      <trkpt lat="49.1863" lon="6.96385">
        <ele>345</ele>
        <time>2011-01-23T08:10:08Z</time>
      </trkpt>
      <trkpt lat="49.18629" lon="6.96387">
        <ele>345</ele>
        <time>2011-01-23T08:10:09Z</time>
      </trkpt>
      <trkpt lat="49.18628" lon="6.96388">
        <ele>345</ele>
        <time>2011-01-23T08:10:10Z</time>
      </trkpt>
      <trkpt lat="49.18628" lon="6.9639">
        <ele>345</ele>
        <time>2011-01-23T08:10:11Z</time>
      </trkpt>
      <trkpt lat="49.18626" lon="6.96393">
        <ele>345</ele>
        <time>2011-01-23T08:10:13Z</time>
      </trkpt>
      <trkpt lat="49.18625" lon="6.96396">
        <ele>345</ele>
        <time>2011-01-23T08:10:15Z</time>
      </trkpt>
      <trkpt lat="49.18624" lon="6.96398">
        <ele>345</ele>
        <time>2011-01-23T08:10:16Z</time>
      </trkpt>
      <trkpt lat="49.18623" lon="6.96399">
        <ele>345</ele>
        <time>2011-01-23T08:10:17Z</time>
      </trkpt>
      <trkpt lat="49.18623" lon="6.96401">
        <ele>345</ele>
        <time>2011-01-23T08:10:18Z</time>
      </trkpt>
      <trkpt lat="49.18622" lon="6.96403">
        <ele>345</ele>
        <time>2011-01-23T08:10:19Z</time>
      </trkpt>
      <trkpt lat="49.18621" lon="6.96406">
        <ele>345</ele>
        <time>2011-01-23T08:10:21Z</time>
      </trkpt>
      <trkpt lat="49.18619" lon="6.96409">
        <ele>345</ele>
        <time>2011-01-23T08:10:23Z</time>
      </trkpt>
      <trkpt lat="49.18618" lon="6.96412">
        <ele>345</ele>
        <time>2011-01-23T08:10:25Z</time>
      </trkpt>
      <trkpt lat="49.18617" lon="6.96416">
        <ele>345</ele>
        <time>2011-01-23T08:10:27Z</time>
      </trkpt>
      <trkpt lat="49.18616" lon="6.96419">
        <ele>345</ele>
        <time>2011-01-23T08:10:29Z</time>
      </trkpt>
      <trkpt lat="49.18614" lon="6.96422">
        <ele>345</ele>
        <time>2011-01-23T08:10:31Z</time>
      </trkpt>
      <trkpt lat="49.18613" lon="6.96423">
        <ele>345</ele>
        <time>2011-01-23T08:10:32Z</time>
      </trkpt>
      <trkpt lat="49.18613" lon="6.96425">
        <ele>345</ele>
        <time>2011-01-23T08:10:33Z</time>
      </trkpt>
      <trkpt lat="49.18611" lon="6.96428">
        <ele>345</ele>
        <time>2011-01-23T08:10:35Z</time>
      </trkpt>
      <trkpt lat="49.1861" lon="6.96431">
        <ele>345</ele>
        <time>2011-01-23T08:10:37Z</time>
      </trkpt>
      <trkpt lat="49.18609" lon="6.96435">
        <ele>345</ele>
        <time>2011-01-23T08:10:39Z</time>
      </trkpt>
      <trkpt lat="49.18608" lon="6.96437">
        <ele>345</ele>
        <time>2011-01-23T08:10:40Z</time>
      </trkpt>
      <trkpt lat="49.18607" lon="6.96438">
        <ele>345</ele>
        <time>2011-01-23T08:10:41Z</time>
      </trkpt>
      <trkpt lat="49.18607" lon="6.9644">
        <ele>345</ele>
        <time>2011-01-23T08:10:42Z</time>
      </trkpt>
      <trkpt lat="49.18606" lon="6.96442">
        <ele>345</ele>
        <time>2011-01-23T08:10:43Z</time>
      </trkpt>
      <trkpt lat="49.18605" lon="6.96444">
        <ele>345</ele>
        <time>2011-01-23T08:10:44Z</time>
      </trkpt>
      <trkpt lat="49.18604" lon="6.96446">
        <ele>345</ele>
        <time>2011-01-23T08:10:45Z</time>
      </trkpt>
      <trkpt lat="49.18604" lon="6.96448">
        <ele>345</ele>
        <time>2011-01-23T08:10:46Z</time>
      </trkpt>
      <trkpt lat="49.18603" lon="6.96449">
        <ele>345</ele>
        <time>2011-01-23T08:10:47Z</time>
      </trkpt>
      <trkpt lat="49.18602" lon="6.96451">
        <ele>345</ele>
        <time>2011-01-23T08:10:48Z</time>
      </trkpt>
      <trkpt lat="49.18602" lon="6.96453">
        <ele>345</ele>
        <time>2011-01-23T08:10:49Z</time>
      </trkpt>
      <trkpt lat="49.18601" lon="6.96455">
        <ele>345</ele>
        <time>2011-01-23T08:10:50Z</time>
      </trkpt>
      <trkpt lat="49.186" lon="6.96456">
        <ele>345</ele>
        <time>2011-01-23T08:10:51Z</time>
      </trkpt>
      <trkpt lat="49.18599" lon="6.96458">
        <ele>345</ele>
        <time>2011-01-23T08:10:52Z</time>
      </trkpt>
      <trkpt lat="49.18599" lon="6.9646">
        <ele>345</ele>
        <time>2011-01-23T08:10:53Z</time>
      </trkpt>
      <trkpt lat="49.18598" lon="6.96462">
        <ele>345</ele>
        <time>2011-01-23T08:10:54Z</time>
      </trkpt>
      <trkpt lat="49.18597" lon="6.96463">
        <ele>345</ele>
        <time>2011-01-23T08:10:55Z</time>
      </trkpt>
      <trkpt lat="49.18597" lon="6.96465">
        <ele>345</ele>
        <time>2011-01-23T08:10:56Z</time>
      </trkpt>
      <trkpt lat="49.18596" lon="6.96467">
        <ele>345</ele>
        <time>2011-01-23T08:10:57Z</time>
      </trkpt>
      <trkpt lat="49.18595" lon="6.96469">
        <ele>345</ele>
        <time>2011-01-23T08:10:58Z</time>
      </trkpt>
      <trkpt lat="49.18595" lon="6.96471">
        <ele>345</ele>
        <time>2011-01-23T08:10:59Z</time>
      </trkpt>
      <trkpt lat="49.18594" lon="6.96473">
        <ele>345</ele>
        <time>2011-01-23T08:11:00Z</time>
      </trkpt>
      <trkpt lat="49.18593" lon="6.96474">
        <ele>345</ele>
        <time>2011-01-23T08:11:01Z</time>
      </trkpt>
      <trkpt lat="49.18592" lon="6.96476">
        <ele>345</ele>
        <time>2011-01-23T08:11:02Z</time>
      </trkpt>
      <trkpt lat="49.18592" lon="6.96478">
        <ele>345</ele>
        <time>2011-01-23T08:11:03Z</time>
      </trkpt>
      <trkpt lat="49.18591" lon="6.9648">
        <ele>345</ele>
        <time>2011-01-23T08:11:04Z</time>
      </trkpt>
      <trkpt lat="49.1859" lon="6.96482">
        <ele>345</ele>
        <time>2011-01-23T08:11:05Z</time>
      </trkpt>
      <trkpt lat="49.1859" lon="6.96484">
        <ele>345</ele>
        <time>2011-01-23T08:11:06Z</time>
      </trkpt>
      <trkpt lat="49.18589" lon="6.96485">
        <ele>345</ele>
        <time>2011-01-23T08:11:07Z</time>
      </trkpt>
      <trkpt lat="49.18589" lon="6.96487">
        <ele>345</ele>
        <time>2011-01-23T08:11:08Z</time>
      </trkpt>
      <trkpt lat="49.18588" lon="6.96489">
        <ele>345</ele>
        <time>2011-01-23T08:11:09Z</time>
      </trkpt>
      <trkpt lat="49.18587" lon="6.9649">
        <ele>345</ele>
        <time>2011-01-23T08:11:10Z</time>
      </trkpt>
      <trkpt lat="49.18587" lon="6.96492">
        <ele>345</ele>
        <time>2011-01-23T08:11:11Z</time>
      </trkpt>
      <trkpt lat="49.18586" lon="6.96494">
        <ele>345</ele>
        <time>2011-01-23T08:11:12Z</time>
      </trkpt>
      <trkpt lat="49.18585" lon="6.96496">
        <ele>345</ele>
        <time>2011-01-23T08:11:14Z</time>
      </trkpt>
      <trkpt lat="49.18584" lon="6.96498">
        <ele>345</ele>
        <time>2011-01-23T08:11:15Z</time>
      </trkpt>
      <trkpt lat="49.18584" lon="6.965">
        <ele>345</ele>
        <time>2011-01-23T08:11:16Z</time>
      </trkpt>
      <trkpt lat="49.18583" lon="6.96502">
        <ele>345</ele>
        <time>2011-01-23T08:11:17Z</time>
      </trkpt>
      <trkpt lat="49.18583" lon="6.96504">
        <ele>345</ele>
        <time>2011-01-23T08:11:18Z</time>
      </trkpt>
      <trkpt lat="49.18582" lon="6.96505">
        <ele>345</ele>
        <time>2011-01-23T08:11:19Z</time>
      </trkpt>
      <trkpt lat="49.18581" lon="6.96507">
        <ele>345</ele>
        <time>2011-01-23T08:11:20Z</time>
      </trkpt>
      <trkpt lat="49.18581" lon="6.96509">
        <ele>345</ele>
        <time>2011-01-23T08:11:21Z</time>
      </trkpt>
      <trkpt lat="49.1858" lon="6.96511">
        <ele>345</ele>
        <time>2011-01-23T08:11:22Z</time>
      </trkpt>
      <trkpt lat="49.1858" lon="6.96513">
        <ele>345</ele>
        <time>2011-01-23T08:11:23Z</time>
      </trkpt>
      <trkpt lat="49.18579" lon="6.96514">
        <ele>345</ele>
        <time>2011-01-23T08:11:24Z</time>
      </trkpt>
      <trkpt lat="49.18579" lon="6.96516">
        <ele>345</ele>
        <time>2011-01-23T08:11:25Z</time>
      </trkpt>
      <trkpt lat="49.18579" lon="6.96518">
        <ele>345</ele>
        <time>2011-01-23T08:11:26Z</time>
      </trkpt>
      <trkpt lat="49.18578" lon="6.9652">
        <ele>345</ele>
        <time>2011-01-23T08:11:27Z</time>
      </trkpt>
      <trkpt lat="49.18578" lon="6.96522">
        <ele>345</ele>
        <time>2011-01-23T08:11:28Z</time>
      </trkpt>
      <trkpt lat="49.18577" lon="6.96524">
        <ele>345</ele>
        <time>2011-01-23T08:11:29Z</time>
      </trkpt>
      <trkpt lat="49.18576" lon="6.96526">
        <ele>345</ele>
        <time>2011-01-23T08:11:30Z</time>
      </trkpt>
      <trkpt lat="49.18575" lon="6.96528">
        <ele>345</ele>
        <time>2011-01-23T08:11:31Z</time>
      </trkpt>
      <trkpt lat="49.18575" lon="6.96529">
        <ele>345</ele>
        <time>2011-01-23T08:11:32Z</time>
      </trkpt>
      <trkpt lat="49.18574" lon="6.96531">
        <ele>345</ele>
        <time>2011-01-23T08:11:33Z</time>
      </trkpt>
      <trkpt lat="49.18573" lon="6.96533">
        <ele>345</ele>
        <time>2011-01-23T08:11:34Z</time>
      </trkpt>
      <trkpt lat="49.18573" lon="6.96535">
        <ele>345</ele>
        <time>2011-01-23T08:11:35Z</time>
      </trkpt>
      <trkpt lat="49.18573" lon="6.96537">
        <ele>345</ele>
        <time>2011-01-23T08:11:36Z</time>
      </trkpt>
      <trkpt lat="49.18572" lon="6.96538">
        <ele>345</ele>
        <time>2011-01-23T08:11:37Z</time>
      </trkpt>
      <trkpt lat="49.18571" lon="6.9654">
        <ele>345</ele>
        <time>2011-01-23T08:11:38Z</time>
      </trkpt>
      <trkpt lat="49.18571" lon="6.96542">
        <ele>345</ele>
        <time>2011-01-23T08:11:39Z</time>
      </trkpt>
      <trkpt lat="49.1857" lon="6.96544">
        <ele>345</ele>
        <time>2011-01-23T08:11:40Z</time>
      </trkpt>
      <trkpt lat="49.18569" lon="6.96547">
        <ele>345</ele>
        <time>2011-01-23T08:11:42Z</time>
      </trkpt>
      <trkpt lat="49.18568" lon="6.96549">
        <ele>345</ele>
        <time>2011-01-23T08:11:43Z</time>
      </trkpt>
      <trkpt lat="49.18567" lon="6.96551">
        <ele>345</ele>
        <time>2011-01-23T08:11:44Z</time>
      </trkpt>
      <trkpt lat="49.18566" lon="6.96552">
        <ele>345</ele>
        <time>2011-01-23T08:11:45Z</time>
      </trkpt>
      <trkpt lat="49.18566" lon="6.96554">
        <ele>345</ele>
        <time>2011-01-23T08:11:46Z</time>
      </trkpt>
      <trkpt lat="49.18565" lon="6.96556">
        <ele>345</ele>
        <time>2011-01-23T08:11:47Z</time>
      </trkpt>
      <trkpt lat="49.18564" lon="6.96558">
        <ele>345</ele>
        <time>2011-01-23T08:11:48Z</time>
      </trkpt>
      <trkpt lat="49.18564" lon="6.96559">
        <ele>345</ele>
        <time>2011-01-23T08:11:49Z</time>
      </trkpt>
      <trkpt lat="49.18563" lon="6.96561">
        <ele>345</ele>
        <time>2011-01-23T08:11:50Z</time>
      </trkpt>
      <trkpt lat="49.18562" lon="6.96563">
        <ele>345</ele>
        <time>2011-01-23T08:11:51Z</time>
      </trkpt>
      <trkpt lat="49.18562" lon="6.96565">
        <ele>345</ele>
        <time>2011-01-23T08:11:52Z</time>
      </trkpt>
      <trkpt lat="49.18561" lon="6.96566">
        <ele>345</ele>
        <time>2011-01-23T08:11:53Z</time>
      </trkpt>
      <trkpt lat="49.1856" lon="6.96568">
        <ele>345</ele>
        <time>2011-01-23T08:11:54Z</time>
      </trkpt>
      <trkpt lat="49.1856" lon="6.9657">
        <ele>345</ele>
        <time>2011-01-23T08:11:55Z</time>
      </trkpt>
      <trkpt lat="49.18559" lon="6.96572">
        <ele>345</ele>
        <time>2011-01-23T08:11:56Z</time>
      </trkpt>
      <trkpt lat="49.18558" lon="6.96574">
        <ele>345</ele>
        <time>2011-01-23T08:11:57Z</time>
      </trkpt>
      <trkpt lat="49.18558" lon="6.96575">
        <ele>345</ele>
        <time>2011-01-23T08:11:58Z</time>
      </trkpt>
      <trkpt lat="49.18557" lon="6.96577">
        <ele>345</ele>
        <time>2011-01-23T08:11:59Z</time>
      </trkpt>
      <trkpt lat="49.18557" lon="6.96579">
        <ele>345</ele>
        <time>2011-01-23T08:12:00Z</time>
      </trkpt>
      <trkpt lat="49.18556" lon="6.96581">
        <ele>345</ele>
        <time>2011-01-23T08:12:01Z</time>
      </trkpt>
      <trkpt lat="49.18555" lon="6.96583">
        <ele>345</ele>
        <time>2011-01-23T08:12:02Z</time>
      </trkpt>
      <trkpt lat="49.18555" lon="6.96585">
        <ele>345</ele>
        <time>2011-01-23T08:12:03Z</time>
      </trkpt>
      <trkpt lat="49.18554" lon="6.96586">
        <ele>345</ele>
        <time>2011-01-23T08:12:04Z</time>
      </trkpt>
      <trkpt lat="49.18554" lon="6.96588">
        <ele>345</ele>
        <time>2011-01-23T08:12:05Z</time>
      </trkpt>
      <trkpt lat="49.18553" lon="6.9659">
        <ele>345</ele>
        <time>2011-01-23T08:12:06Z</time>
      </trkpt>
      <trkpt lat="49.18553" lon="6.96592">
        <ele>345</ele>
        <time>2011-01-23T08:12:07Z</time>
      </trkpt>
      <trkpt lat="49.18552" lon="6.96593">
        <ele>345</ele>
        <time>2011-01-23T08:12:08Z</time>
      </trkpt>
      <trkpt lat="49.18552" lon="6.96595">
        <ele>345</ele>
        <time>2011-01-23T08:12:09Z</time>
      </trkpt>
      <trkpt lat="49.18551" lon="6.96597">
        <ele>345</ele>
        <time>2011-01-23T08:12:10Z</time>
      </trkpt>
      <trkpt lat="49.1855" lon="6.966">
        <ele>345</ele>
        <time>2011-01-23T08:12:12Z</time>
      </trkpt>
      <trkpt lat="49.18549" lon="6.96603">
        <ele>345</ele>
        <time>2011-01-23T08:12:14Z</time>
      </trkpt>
      <trkpt lat="49.18548" lon="6.96605">
        <ele>345</ele>
        <time>2011-01-23T08:12:15Z</time>
      </trkpt>
      <trkpt lat="49.18547" lon="6.96606">
        <ele>345</ele>
        <time>2011-01-23T08:12:16Z</time>
      </trkpt>
      <trkpt lat="49.18547" lon="6.96608">
        <ele>345</ele>
        <time>2011-01-23T08:12:17Z</time>
      </trkpt>
      <trkpt lat="49.18546" lon="6.9661">
        <ele>345</ele>
        <time>2011-01-23T08:12:18Z</time>
      </trkpt>
      <trkpt lat="49.18545" lon="6.96613">
        <ele>345</ele>
        <time>2011-01-23T08:12:20Z</time>
      </trkpt>
      <trkpt lat="49.18544" lon="6.96615">
        <ele>345</ele>
        <time>2011-01-23T08:12:21Z</time>
      </trkpt>
      <trkpt lat="49.18544" lon="6.96616">
        <ele>345</ele>
        <time>2011-01-23T08:12:22Z</time>
      </trkpt>
      <trkpt lat="49.18544" lon="6.96618">
        <ele>345</ele>
        <time>2011-01-23T08:12:23Z</time>
      </trkpt>
      <trkpt lat="49.18544" lon="6.9662">
        <ele>345</ele>
        <time>2011-01-23T08:12:24Z</time>
      </trkpt>
      <trkpt lat="49.18544" lon="6.96622">
        <ele>345</ele>
        <time>2011-01-23T08:12:25Z</time>
      </trkpt>
      <trkpt lat="49.18545" lon="6.96624">
        <ele>345</ele>
        <time>2011-01-23T08:12:26Z</time>
      </trkpt>
      <trkpt lat="49.18545" lon="6.96625">
        <ele>345</ele>
        <time>2011-01-23T08:12:27Z</time>
      </trkpt>
      <trkpt lat="49.18547" lon="6.96628">
        <ele>345</ele>
        <time>2011-01-23T08:12:29Z</time>
      </trkpt>
      <trkpt lat="49.18549" lon="6.96631">
        <ele>345</ele>
        <time>2011-01-23T08:12:31Z</time>
      </trkpt>
      <trkpt lat="49.1855" lon="6.96633">
        <ele>345</ele>
        <time>2011-01-23T08:12:33Z</time>
      </trkpt>
      <trkpt lat="49.18552" lon="6.96633">
        <ele>345</ele>
        <time>2011-01-23T08:12:35Z</time>
      </trkpt>
      <trkpt lat="49.18554" lon="6.96635">
        <ele>345</ele>
        <time>2011-01-23T08:12:37Z</time>
      </trkpt>
      <trkpt lat="49.18556" lon="6.96637">
        <ele>345</ele>
        <time>2011-01-23T08:12:39Z</time>
      </trkpt>
      <trkpt lat="49.18558" lon="6.96639">
        <ele>345</ele>
        <time>2011-01-23T08:12:41Z</time>
      </trkpt>
      <trkpt lat="49.1856" lon="6.96642">
        <ele>345</ele>
        <time>2011-01-23T08:12:43Z</time>
      </trkpt>
      <trkpt lat="49.18561" lon="6.96644">
        <ele>344</ele>
        <time>2011-01-23T08:12:45Z</time>
      </trkpt>
      <trkpt lat="49.18563" lon="6.96646">
        <ele>344</ele>
        <time>2011-01-23T08:12:47Z</time>
      </trkpt>
      <trkpt lat="49.18565" lon="6.96648">
        <ele>343</ele>
        <time>2011-01-23T08:12:49Z</time>
      </trkpt>
      <trkpt lat="49.18566" lon="6.9665">
        <ele>342</ele>
        <time>2011-01-23T08:12:51Z</time>
      </trkpt>
      <trkpt lat="49.18568" lon="6.96652">
        <ele>342</ele>
        <time>2011-01-23T08:12:53Z</time>
      </trkpt>
      <trkpt lat="49.1857" lon="6.96654">
        <ele>341</ele>
        <time>2011-01-23T08:12:55Z</time>
      </trkpt>
      <trkpt lat="49.18571" lon="6.96656">
        <ele>341</ele>
        <time>2011-01-23T08:12:57Z</time>
      </trkpt>
      <trkpt lat="49.18573" lon="6.96658">
        <ele>341</ele>
        <time>2011-01-23T08:12:59Z</time>
      </trkpt>
      <trkpt lat="49.18576" lon="6.96661">
        <ele>340</ele>
        <time>2011-01-23T08:13:01Z</time>
      </trkpt>
      <trkpt lat="49.18578" lon="6.96662">
        <ele>340</ele>
        <time>2011-01-23T08:13:02Z</time>
      </trkpt>
      <trkpt lat="49.18579" lon="6.96663">
        <ele>340</ele>
        <time>2011-01-23T08:13:03Z</time>
      </trkpt>
      <trkpt lat="49.18581" lon="6.96664">
        <ele>340</ele>
        <time>2011-01-23T08:13:04Z</time>
      </trkpt>
      <trkpt lat="49.18582" lon="6.96664">
        <ele>340</ele>
        <time>2011-01-23T08:13:05Z</time>
      </trkpt>
      <trkpt lat="49.18584" lon="6.96665">
        <ele>340</ele>
        <time>2011-01-23T08:13:06Z</time>
      </trkpt>
      <trkpt lat="49.18585" lon="6.96666">
        <ele>340</ele>
        <time>2011-01-23T08:13:07Z</time>
      </trkpt>
      <trkpt lat="49.18586" lon="6.96667">
        <ele>340</ele>
        <time>2011-01-23T08:13:08Z</time>
      </trkpt>
      <trkpt lat="49.18588" lon="6.96669">
        <ele>340</ele>
        <time>2011-01-23T08:13:10Z</time>
      </trkpt>
      <trkpt lat="49.1859" lon="6.96671">
        <ele>340</ele>
        <time>2011-01-23T08:13:12Z</time>
      </trkpt>
      <trkpt lat="49.18591" lon="6.96672">
        <ele>340</ele>
        <time>2011-01-23T08:13:13Z</time>
      </trkpt>
      <trkpt lat="49.18593" lon="6.96674">
        <ele>340</ele>
        <time>2011-01-23T08:13:14Z</time>
      </trkpt>
      <trkpt lat="49.18594" lon="6.96674">
        <ele>340</ele>
        <time>2011-01-23T08:13:15Z</time>
      </trkpt>
      <trkpt lat="49.18596" lon="6.96675">
        <ele>340</ele>
        <time>2011-01-23T08:13:17Z</time>
      </trkpt>
      <trkpt lat="49.18597" lon="6.96675">
        <ele>340</ele>
        <time>2011-01-23T08:13:18Z</time>
      </trkpt>
      <trkpt lat="49.18599" lon="6.96676">
        <ele>340</ele>
        <time>2011-01-23T08:13:19Z</time>
      </trkpt>
      <trkpt lat="49.18601" lon="6.96678">
        <ele>340</ele>
        <time>2011-01-23T08:13:21Z</time>
      </trkpt>
      <trkpt lat="49.18602" lon="6.96679">
        <ele>340</ele>
        <time>2011-01-23T08:13:22Z</time>
      </trkpt>
      <trkpt lat="49.18605" lon="6.96681">
        <ele>340</ele>
        <time>2011-01-23T08:13:24Z</time>
      </trkpt>
      <trkpt lat="49.18606" lon="6.96683">
        <ele>340</ele>
        <time>2011-01-23T08:13:26Z</time>
      </trkpt>
      <trkpt lat="49.18608" lon="6.96685">
        <ele>340</ele>
        <time>2011-01-23T08:13:28Z</time>
      </trkpt>
      <trkpt lat="49.1861" lon="6.96686">
        <ele>340</ele>
        <time>2011-01-23T08:13:29Z</time>
      </trkpt>
      <trkpt lat="49.18611" lon="6.96687">
        <ele>340</ele>
        <time>2011-01-23T08:13:30Z</time>
      </trkpt>
      <trkpt lat="49.18613" lon="6.96688">
        <ele>340</ele>
        <time>2011-01-23T08:13:32Z</time>
      </trkpt>
      <trkpt lat="49.18614" lon="6.9669">
        <ele>340</ele>
        <time>2011-01-23T08:13:34Z</time>
      </trkpt>
      <trkpt lat="49.18616" lon="6.96692">
        <ele>340</ele>
        <time>2011-01-23T08:13:36Z</time>
      </trkpt>
      <trkpt lat="49.18618" lon="6.96694">
        <ele>339</ele>
        <time>2011-01-23T08:13:38Z</time>
      </trkpt>
      <trkpt lat="49.18619" lon="6.96695">
        <ele>339</ele>
        <time>2011-01-23T08:13:40Z</time>
      </trkpt>
      <trkpt lat="49.18621" lon="6.96696">
        <ele>338</ele>
        <time>2011-01-23T08:13:42Z</time>
      </trkpt>
      <trkpt lat="49.18625" lon="6.96697">
        <ele>338</ele>
        <time>2011-01-23T08:13:43Z</time>
      </trkpt>
      <trkpt lat="49.18627" lon="6.96698">
        <ele>338</ele>
        <time>2011-01-23T08:13:45Z</time>
      </trkpt>
      <trkpt lat="49.18629" lon="6.96698">
        <ele>338</ele>
        <time>2011-01-23T08:13:47Z</time>
      </trkpt>
      <trkpt lat="49.18631" lon="6.96698">
        <ele>338</ele>
        <time>2011-01-23T08:13:48Z</time>
      </trkpt>
      <trkpt lat="49.18632" lon="6.96699">
        <ele>338</ele>
        <time>2011-01-23T08:13:50Z</time>
      </trkpt>
      <trkpt lat="49.18634" lon="6.96699">
        <ele>338</ele>
        <time>2011-01-23T08:13:52Z</time>
      </trkpt>
      <trkpt lat="49.18636" lon="6.96698">
        <ele>338</ele>
        <time>2011-01-23T08:13:54Z</time>
      </trkpt>
      <trkpt lat="49.18637" lon="6.96698">
        <ele>338</ele>
        <time>2011-01-23T08:13:55Z</time>
      </trkpt>
      <trkpt lat="49.18639" lon="6.96697">
        <ele>338</ele>
        <time>2011-01-23T08:13:56Z</time>
      </trkpt>
      <trkpt lat="49.1864" lon="6.96697">
        <ele>338</ele>
        <time>2011-01-23T08:13:57Z</time>
      </trkpt>
      <trkpt lat="49.18641" lon="6.96697">
        <ele>338</ele>
        <time>2011-01-23T08:13:58Z</time>
      </trkpt>
      <trkpt lat="49.18643" lon="6.96697">
        <ele>338</ele>
        <time>2011-01-23T08:13:59Z</time>
      </trkpt>
      <trkpt lat="49.18644" lon="6.96697">
        <ele>338</ele>
        <time>2011-01-23T08:14:00Z</time>
      </trkpt>
      <trkpt lat="49.18645" lon="6.96698">
        <ele>338</ele>
        <time>2011-01-23T08:14:01Z</time>
      </trkpt>
      <trkpt lat="49.18647" lon="6.96699">
        <ele>338</ele>
        <time>2011-01-23T08:14:02Z</time>
      </trkpt>
      <trkpt lat="49.18648" lon="6.96701">
        <ele>338</ele>
        <time>2011-01-23T08:14:03Z</time>
      </trkpt>
      <trkpt lat="49.18648" lon="6.96703">
        <ele>338</ele>
        <time>2011-01-23T08:14:04Z</time>
      </trkpt>
      <trkpt lat="49.18649" lon="6.96705">
        <ele>338</ele>
        <time>2011-01-23T08:14:05Z</time>
      </trkpt>
      <trkpt lat="49.1865" lon="6.96707">
        <ele>338</ele>
        <time>2011-01-23T08:14:06Z</time>
      </trkpt>
      <trkpt lat="49.1865" lon="6.96709">
        <ele>338</ele>
        <time>2011-01-23T08:14:07Z</time>
      </trkpt>
      <trkpt lat="49.1865" lon="6.96711">
        <ele>338</ele>
        <time>2011-01-23T08:14:08Z</time>
      </trkpt>
      <trkpt lat="49.1865" lon="6.96713">
        <ele>338</ele>
        <time>2011-01-23T08:14:09Z</time>
      </trkpt>
      <trkpt lat="49.1865" lon="6.96715">
        <ele>338</ele>
        <time>2011-01-23T08:14:10Z</time>
      </trkpt>
      <trkpt lat="49.1865" lon="6.96717">
        <ele>338</ele>
        <time>2011-01-23T08:14:11Z</time>
      </trkpt>
      <trkpt lat="49.1865" lon="6.96719">
        <ele>338</ele>
        <time>2011-01-23T08:14:12Z</time>
      </trkpt>
      <trkpt lat="49.18649" lon="6.96721">
        <ele>338</ele>
        <time>2011-01-23T08:14:13Z</time>
      </trkpt>
      <trkpt lat="49.18649" lon="6.96723">
        <ele>338</ele>
        <time>2011-01-23T08:14:14Z</time>
      </trkpt>
      <trkpt lat="49.18649" lon="6.96725">
        <ele>338</ele>
        <time>2011-01-23T08:14:15Z</time>
      </trkpt>
      <trkpt lat="49.18649" lon="6.96726">
        <ele>338</ele>
        <time>2011-01-23T08:14:16Z</time>
      </trkpt>
      <trkpt lat="49.18649" lon="6.96728">
        <ele>338</ele>
        <time>2011-01-23T08:14:17Z</time>
      </trkpt>
      <trkpt lat="49.18648" lon="6.9673">
        <ele>338</ele>
        <time>2011-01-23T08:14:18Z</time>
      </trkpt>
      <trkpt lat="49.18648" lon="6.96733">
        <ele>338</ele>
        <time>2011-01-23T08:14:19Z</time>
      </trkpt>
      <trkpt lat="49.18648" lon="6.96735">
        <ele>338</ele>
        <time>2011-01-23T08:14:20Z</time>
      </trkpt>
      <trkpt lat="49.18647" lon="6.96736">
        <ele>338</ele>
        <time>2011-01-23T08:14:21Z</time>
      </trkpt>
      <trkpt lat="49.18647" lon="6.96739">
        <ele>338</ele>
        <time>2011-01-23T08:14:23Z</time>
      </trkpt>
      <trkpt lat="49.18647" lon="6.96741">
        <ele>338</ele>
        <time>2011-01-23T08:14:24Z</time>
      </trkpt>
      <trkpt lat="49.18646" lon="6.96743">
        <ele>338</ele>
        <time>2011-01-23T08:14:25Z</time>
      </trkpt>
      <trkpt lat="49.18645" lon="6.96745">
        <ele>338</ele>
        <time>2011-01-23T08:14:26Z</time>
      </trkpt>
      <trkpt lat="49.18645" lon="6.96747">
        <ele>338</ele>
        <time>2011-01-23T08:14:27Z</time>
      </trkpt>
      <trkpt lat="49.18644" lon="6.96748">
        <ele>338</ele>
        <time>2011-01-23T08:14:28Z</time>
      </trkpt>
      <trkpt lat="49.18644" lon="6.96752">
        <ele>338</ele>
        <time>2011-01-23T08:14:30Z</time>
      </trkpt>
      <trkpt lat="49.18644" lon="6.96754">
        <ele>338</ele>
        <time>2011-01-23T08:14:31Z</time>
      </trkpt>
      <trkpt lat="49.18643" lon="6.96756">
        <ele>338</ele>
        <time>2011-01-23T08:14:32Z</time>
      </trkpt>
      <trkpt lat="49.18643" lon="6.96758">
        <ele>338</ele>
        <time>2011-01-23T08:14:33Z</time>
      </trkpt>
      <trkpt lat="49.18642" lon="6.96759">
        <ele>338</ele>
        <time>2011-01-23T08:14:34Z</time>
      </trkpt>
      <trkpt lat="49.18642" lon="6.96761">
        <ele>338</ele>
        <time>2011-01-23T08:14:35Z</time>
      </trkpt>
      <trkpt lat="49.18642" lon="6.96763">
        <ele>338</ele>
        <time>2011-01-23T08:14:36Z</time>
      </trkpt>
      <trkpt lat="49.18642" lon="6.96765">
        <ele>338</ele>
        <time>2011-01-23T08:14:37Z</time>
      </trkpt>
      <trkpt lat="49.18641" lon="6.96766">
        <ele>338</ele>
        <time>2011-01-23T08:14:38Z</time>
      </trkpt>
      <trkpt lat="49.18641" lon="6.96768">
        <ele>338</ele>
        <time>2011-01-23T08:14:39Z</time>
      </trkpt>
      <trkpt lat="49.1864" lon="6.9677">
        <ele>338</ele>
        <time>2011-01-23T08:14:40Z</time>
      </trkpt>
      <trkpt lat="49.18639" lon="6.96771">
        <ele>338</ele>
        <time>2011-01-23T08:14:41Z</time>
      </trkpt>
      <trkpt lat="49.18637" lon="6.96774">
        <ele>338</ele>
        <time>2011-01-23T08:14:43Z</time>
      </trkpt>
      <trkpt lat="49.18637" lon="6.96776">
        <ele>338</ele>
        <time>2011-01-23T08:14:44Z</time>
      </trkpt>
      <trkpt lat="49.18636" lon="6.96778">
        <ele>338</ele>
        <time>2011-01-23T08:14:45Z</time>
      </trkpt>
      <trkpt lat="49.18636" lon="6.9678">
        <ele>338</ele>
        <time>2011-01-23T08:14:46Z</time>
      </trkpt>
      <trkpt lat="49.18636" lon="6.96782">
        <ele>338</ele>
        <time>2011-01-23T08:14:47Z</time>
      </trkpt>
      <trkpt lat="49.18635" lon="6.96785">
        <ele>338</ele>
        <time>2011-01-23T08:14:48Z</time>
      </trkpt>
      <trkpt lat="49.18635" lon="6.96787">
        <ele>338</ele>
        <time>2011-01-23T08:14:49Z</time>
      </trkpt>
      <trkpt lat="49.18635" lon="6.96789">
        <ele>338</ele>
        <time>2011-01-23T08:14:50Z</time>
      </trkpt>
      <trkpt lat="49.18634" lon="6.96791">
        <ele>338</ele>
        <time>2011-01-23T08:14:51Z</time>
      </trkpt>
      <trkpt lat="49.18634" lon="6.96793">
        <ele>338</ele>
        <time>2011-01-23T08:14:52Z</time>
      </trkpt>
      <trkpt lat="49.18634" lon="6.96795">
        <ele>338</ele>
        <time>2011-01-23T08:14:53Z</time>
      </trkpt>
      <trkpt lat="49.18634" lon="6.96796">
        <ele>338</ele>
        <time>2011-01-23T08:14:54Z</time>
      </trkpt>
      <trkpt lat="49.18634" lon="6.96798">
        <ele>338</ele>
        <time>2011-01-23T08:14:55Z</time>
      </trkpt>
      <trkpt lat="49.18634" lon="6.968">
        <ele>338</ele>
        <time>2011-01-23T08:14:56Z</time>
      </trkpt>
      <trkpt lat="49.18633" lon="6.96802">
        <ele>338</ele>
        <time>2011-01-23T08:14:57Z</time>
      </trkpt>
      <trkpt lat="49.18633" lon="6.96804">
        <ele>338</ele>
        <time>2011-01-23T08:14:58Z</time>
      </trkpt>
      <trkpt lat="49.18633" lon="6.96806">
        <ele>338</ele>
        <time>2011-01-23T08:14:59Z</time>
      </trkpt>
      <trkpt lat="49.18632" lon="6.96808">
        <ele>338</ele>
        <time>2011-01-23T08:15:00Z</time>
      </trkpt>
      <trkpt lat="49.18632" lon="6.9681">
        <ele>338</ele>
        <time>2011-01-23T08:15:01Z</time>
      </trkpt>
      <trkpt lat="49.18631" lon="6.96812">
        <ele>338</ele>
        <time>2011-01-23T08:15:02Z</time>
      </trkpt>
      <trkpt lat="49.18631" lon="6.96814">
        <ele>338</ele>
        <time>2011-01-23T08:15:03Z</time>
      </trkpt>
      <trkpt lat="49.18631" lon="6.96817">
        <ele>338</ele>
        <time>2011-01-23T08:15:05Z</time>
      </trkpt>
      <trkpt lat="49.1863" lon="6.96819">
        <ele>338</ele>
        <time>2011-01-23T08:15:06Z</time>
      </trkpt>
      <trkpt lat="49.1863" lon="6.96821">
        <ele>338</ele>
        <time>2011-01-23T08:15:07Z</time>
      </trkpt>
      <trkpt lat="49.1863" lon="6.96823">
        <ele>338</ele>
        <time>2011-01-23T08:15:08Z</time>
      </trkpt>
      <trkpt lat="49.18629" lon="6.96825">
        <ele>338</ele>
        <time>2011-01-23T08:15:09Z</time>
      </trkpt>
      <trkpt lat="49.18629" lon="6.96827">
        <ele>338</ele>
        <time>2011-01-23T08:15:10Z</time>
      </trkpt>
      <trkpt lat="49.18629" lon="6.96829">
        <ele>338</ele>
        <time>2011-01-23T08:15:11Z</time>
      </trkpt>
      <trkpt lat="49.18629" lon="6.96831">
        <ele>338</ele>
        <time>2011-01-23T08:15:12Z</time>
      </trkpt>
      <trkpt lat="49.18628" lon="6.96833">
        <ele>338</ele>
        <time>2011-01-23T08:15:13Z</time>
      </trkpt>
      <trkpt lat="49.18628" lon="6.96835">
        <ele>338</ele>
        <time>2011-01-23T08:15:14Z</time>
      </trkpt>
      <trkpt lat="49.18628" lon="6.96837">
        <ele>338</ele>
        <time>2011-01-23T08:15:15Z</time>
      </trkpt>
      <trkpt lat="49.18628" lon="6.9684">
        <ele>338</ele>
        <time>2011-01-23T08:15:16Z</time>
      </trkpt>
      <trkpt lat="49.18627" lon="6.96841">
        <ele>338</ele>
        <time>2011-01-23T08:15:17Z</time>
      </trkpt>
      <trkpt lat="49.18627" lon="6.96843">
        <ele>338</ele>
        <time>2011-01-23T08:15:18Z</time>
      </trkpt>
      <trkpt lat="49.18627" lon="6.96845">
        <ele>338</ele>
        <time>2011-01-23T08:15:19Z</time>
      </trkpt>
      <trkpt lat="49.18627" lon="6.96847">
        <ele>338</ele>
        <time>2011-01-23T08:15:20Z</time>
      </trkpt>
      <trkpt lat="49.18626" lon="6.96849">
        <ele>338</ele>
        <time>2011-01-23T08:15:21Z</time>
      </trkpt>
      <trkpt lat="49.18626" lon="6.96851">
        <ele>338</ele>
        <time>2011-01-23T08:15:22Z</time>
      </trkpt>
      <trkpt lat="49.18626" lon="6.96853">
        <ele>338</ele>
        <time>2011-01-23T08:15:23Z</time>
      </trkpt>
      <trkpt lat="49.18626" lon="6.96855">
        <ele>338</ele>
        <time>2011-01-23T08:15:24Z</time>
      </trkpt>
      <trkpt lat="49.18625" lon="6.96856">
        <ele>338</ele>
        <time>2011-01-23T08:15:25Z</time>
      </trkpt>
      <trkpt lat="49.18625" lon="6.96859">
        <ele>338</ele>
        <time>2011-01-23T08:15:26Z</time>
      </trkpt>
      <trkpt lat="49.18625" lon="6.96861">
        <ele>338</ele>
        <time>2011-01-23T08:15:27Z</time>
      </trkpt>
      <trkpt lat="49.18625" lon="6.96863">
        <ele>338</ele>
        <time>2011-01-23T08:15:28Z</time>
      </trkpt>
      <trkpt lat="49.18624" lon="6.96865">
        <ele>338</ele>
        <time>2011-01-23T08:15:29Z</time>
      </trkpt>
      <trkpt lat="49.18624" lon="6.96867">
        <ele>338</ele>
        <time>2011-01-23T08:15:30Z</time>
      </trkpt>
      <trkpt lat="49.18624" lon="6.96869">
        <ele>338</ele>
        <time>2011-01-23T08:15:31Z</time>
      </trkpt>
      <trkpt lat="49.18624" lon="6.96871">
        <ele>338</ele>
        <time>2011-01-23T08:15:32Z</time>
      </trkpt>
      <trkpt lat="49.18623" lon="6.96873">
        <ele>338</ele>
        <time>2011-01-23T08:15:33Z</time>
      </trkpt>
      <trkpt lat="49.18623" lon="6.96875">
        <ele>338</ele>
        <time>2011-01-23T08:15:34Z</time>
      </trkpt>
      <trkpt lat="49.18623" lon="6.96876">
        <ele>338</ele>
        <time>2011-01-23T08:15:35Z</time>
      </trkpt>
      <trkpt lat="49.18623" lon="6.96878">
        <ele>338</ele>
        <time>2011-01-23T08:15:36Z</time>
      </trkpt>
      <trkpt lat="49.18623" lon="6.9688">
        <ele>338</ele>
        <time>2011-01-23T08:15:37Z</time>
      </trkpt>
      <trkpt lat="49.18622" lon="6.96882">
        <ele>338</ele>
        <time>2011-01-23T08:15:38Z</time>
      </trkpt>
      <trkpt lat="49.18622" lon="6.96884">
        <ele>338</ele>
        <time>2011-01-23T08:15:39Z</time>
      </trkpt>
      <trkpt lat="49.18622" lon="6.96886">
        <ele>338</ele>
        <time>2011-01-23T08:15:40Z</time>
      </trkpt>
      <trkpt lat="49.18622" lon="6.96888">
        <ele>338</ele>
        <time>2011-01-23T08:15:41Z</time>
      </trkpt>
      <trkpt lat="49.18621" lon="6.9689">
        <ele>338</ele>
        <time>2011-01-23T08:15:42Z</time>
      </trkpt>
      <trkpt lat="49.18621" lon="6.96893">
        <ele>338</ele>
        <time>2011-01-23T08:15:43Z</time>
      </trkpt>
      <trkpt lat="49.18621" lon="6.96895">
        <ele>338</ele>
        <time>2011-01-23T08:15:44Z</time>
      </trkpt>
      <trkpt lat="49.18621" lon="6.96897">
        <ele>338</ele>
        <time>2011-01-23T08:15:45Z</time>
      </trkpt>
      <trkpt lat="49.18621" lon="6.96899">
        <ele>338</ele>
        <time>2011-01-23T08:15:46Z</time>
      </trkpt>
      <trkpt lat="49.18621" lon="6.96901">
        <ele>338</ele>
        <time>2011-01-23T08:15:47Z</time>
      </trkpt>
      <trkpt lat="49.18621" lon="6.96903">
        <ele>338</ele>
        <time>2011-01-23T08:15:48Z</time>
      </trkpt>
      <trkpt lat="49.1862" lon="6.96905">
        <ele>338</ele>
        <time>2011-01-23T08:15:49Z</time>
      </trkpt>
      <trkpt lat="49.1862" lon="6.96907">
        <ele>338</ele>
        <time>2011-01-23T08:15:50Z</time>
      </trkpt>
      <trkpt lat="49.1862" lon="6.96909">
        <ele>338</ele>
        <time>2011-01-23T08:15:51Z</time>
      </trkpt>
      <trkpt lat="49.1862" lon="6.96911">
        <ele>338</ele>
        <time>2011-01-23T08:15:52Z</time>
      </trkpt>
      <trkpt lat="49.1862" lon="6.96913">
        <ele>338</ele>
        <time>2011-01-23T08:15:53Z</time>
      </trkpt>
      <trkpt lat="49.18619" lon="6.96915">
        <ele>338</ele>
        <time>2011-01-23T08:15:54Z</time>
      </trkpt>
      <trkpt lat="49.18619" lon="6.96917">
        <ele>337</ele>
        <time>2011-01-23T08:15:55Z</time>
      </trkpt>
      <trkpt lat="49.18619" lon="6.96919">
        <ele>337</ele>
        <time>2011-01-23T08:15:57Z</time>
      </trkpt>
      <trkpt lat="49.18619" lon="6.96922">
        <ele>337</ele>
        <time>2011-01-23T08:15:59Z</time>
      </trkpt>
      <trkpt lat="49.18618" lon="6.96924">
        <ele>337</ele>
        <time>2011-01-23T08:16:01Z</time>
      </trkpt>
      <trkpt lat="49.18619" lon="6.96924">
        <ele>337</ele>
        <time>2011-01-23T08:16:13Z</time>
      </trkpt>
      <trkpt lat="49.18618" lon="6.96923">
        <ele>337</ele>
        <time>2011-01-23T08:16:41Z</time>
      </trkpt>
      <trkpt lat="49.18618" lon="6.96925">
        <ele>337</ele>
        <time>2011-01-23T08:16:44Z</time>
      </trkpt>
      <trkpt lat="49.18617" lon="6.96927">
        <ele>337</ele>
        <time>2011-01-23T08:16:47Z</time>
      </trkpt>
      <trkpt lat="49.18616" lon="6.96929">
        <ele>337</ele>
        <time>2011-01-23T08:16:49Z</time>
      </trkpt>
      <trkpt lat="49.18616" lon="6.96932">
        <ele>337</ele>
        <time>2011-01-23T08:16:51Z</time>
      </trkpt>
      <trkpt lat="49.18615" lon="6.96935">
        <ele>337</ele>
        <time>2011-01-23T08:16:53Z</time>
      </trkpt>
      <trkpt lat="49.18613" lon="6.96938">
        <ele>337</ele>
        <time>2011-01-23T08:16:55Z</time>
      </trkpt>
      <trkpt lat="49.18612" lon="6.96941">
        <ele>336</ele>
        <time>2011-01-23T08:16:57Z</time>
      </trkpt>
      <trkpt lat="49.1861" lon="6.96943">
        <ele>336</ele>
        <time>2011-01-23T08:16:59Z</time>
      </trkpt>
      <trkpt lat="49.18608" lon="6.96944">
        <ele>336</ele>
        <time>2011-01-23T08:17:01Z</time>
      </trkpt>
      <trkpt lat="49.18606" lon="6.96947">
        <ele>336</ele>
        <time>2011-01-23T08:17:03Z</time>
      </trkpt>
      <trkpt lat="49.18604" lon="6.96949">
        <ele>335</ele>
        <time>2011-01-23T08:17:05Z</time>
      </trkpt>
      <trkpt lat="49.18602" lon="6.96951">
        <ele>335</ele>
        <time>2011-01-23T08:17:07Z</time>
      </trkpt>
      <trkpt lat="49.186" lon="6.96953">
        <ele>335</ele>
        <time>2011-01-23T08:17:09Z</time>
      </trkpt>
      <trkpt lat="49.18599" lon="6.96954">
        <ele>335</ele>
        <time>2011-01-23T08:17:10Z</time>
      </trkpt>
      <trkpt lat="49.18598" lon="6.96955">
        <ele>335</ele>
        <time>2011-01-23T08:17:11Z</time>
      </trkpt>
      <trkpt lat="49.18596" lon="6.96956">
        <ele>335</ele>
        <time>2011-01-23T08:17:13Z</time>
      </trkpt>
      <trkpt lat="49.18594" lon="6.96958">
        <ele>335</ele>
        <time>2011-01-23T08:17:15Z</time>
      </trkpt>
      <trkpt lat="49.18592" lon="6.9696">
        <ele>335</ele>
        <time>2011-01-23T08:17:17Z</time>
      </trkpt>
      <trkpt lat="49.1859" lon="6.96961">
        <ele>335</ele>
        <time>2011-01-23T08:17:18Z</time>
      </trkpt>
      <trkpt lat="49.18589" lon="6.96962">
        <ele>335</ele>
        <time>2011-01-23T08:17:19Z</time>
      </trkpt>
      <trkpt lat="49.18587" lon="6.96963">
        <ele>335</ele>
        <time>2011-01-23T08:17:20Z</time>
      </trkpt>
      <trkpt lat="49.18586" lon="6.96964">
        <ele>335</ele>
        <time>2011-01-23T08:17:21Z</time>
      </trkpt>
      <trkpt lat="49.18584" lon="6.96966">
        <ele>335</ele>
        <time>2011-01-23T08:17:23Z</time>
      </trkpt>
      <trkpt lat="49.18583" lon="6.96967">
        <ele>335</ele>
        <time>2011-01-23T08:17:24Z</time>
      </trkpt>
      <trkpt lat="49.18582" lon="6.96968">
        <ele>335</ele>
        <time>2011-01-23T08:17:25Z</time>
      </trkpt>
      <trkpt lat="49.1858" lon="6.96968">
        <ele>335</ele>
        <time>2011-01-23T08:17:26Z</time>
      </trkpt>
      <trkpt lat="49.18579" lon="6.96969">
        <ele>335</ele>
        <time>2011-01-23T08:17:27Z</time>
      </trkpt>
      <trkpt lat="49.18577" lon="6.96971">
        <ele>334</ele>
        <time>2011-01-23T08:17:29Z</time>
      </trkpt>
      <trkpt lat="49.18575" lon="6.96973">
        <ele>334</ele>
        <time>2011-01-23T08:17:31Z</time>
      </trkpt>
      <trkpt lat="49.18574" lon="6.96974">
        <ele>334</ele>
        <time>2011-01-23T08:17:32Z</time>
      </trkpt>
      <trkpt lat="49.18573" lon="6.96975">
        <ele>334</ele>
        <time>2011-01-23T08:17:33Z</time>
      </trkpt>
      <trkpt lat="49.18571" lon="6.96977">
        <ele>334</ele>
        <time>2011-01-23T08:17:35Z</time>
      </trkpt>
      <trkpt lat="49.1857" lon="6.96978">
        <ele>334</ele>
        <time>2011-01-23T08:17:36Z</time>
      </trkpt>
      <trkpt lat="49.18568" lon="6.96979">
        <ele>334</ele>
        <time>2011-01-23T08:17:37Z</time>
      </trkpt>
      <trkpt lat="49.18567" lon="6.9698">
        <ele>334</ele>
        <time>2011-01-23T08:17:38Z</time>
      </trkpt>
      <trkpt lat="49.18565" lon="6.9698">
        <ele>334</ele>
        <time>2011-01-23T08:17:39Z</time>
      </trkpt>
      <trkpt lat="49.18564" lon="6.9698">
        <ele>334</ele>
        <time>2011-01-23T08:17:40Z</time>
      </trkpt>
      <trkpt lat="49.18563" lon="6.9698">
        <ele>334</ele>
        <time>2011-01-23T08:17:41Z</time>
      </trkpt>
      <trkpt lat="49.18561" lon="6.9698">
        <ele>334</ele>
        <time>2011-01-23T08:17:42Z</time>
      </trkpt>
      <trkpt lat="49.1856" lon="6.9698">
        <ele>333</ele>
        <time>2011-01-23T08:17:43Z</time>
      </trkpt>
      <trkpt lat="49.18558" lon="6.96979">
        <ele>333</ele>
        <time>2011-01-23T08:17:45Z</time>
      </trkpt>
      <trkpt lat="49.18556" lon="6.96978">
        <ele>333</ele>
        <time>2011-01-23T08:17:47Z</time>
      </trkpt>
      <trkpt lat="49.18555" lon="6.96978">
        <ele>333</ele>
        <time>2011-01-23T08:17:48Z</time>
      </trkpt>
      <trkpt lat="49.18554" lon="6.96977">
        <ele>332</ele>
        <time>2011-01-23T08:17:49Z</time>
      </trkpt>
      <trkpt lat="49.18552" lon="6.96978">
        <ele>332</ele>
        <time>2011-01-23T08:17:51Z</time>
      </trkpt>
      <trkpt lat="49.1855" lon="6.96979">
        <ele>331</ele>
        <time>2011-01-23T08:17:53Z</time>
      </trkpt>
      <trkpt lat="49.18549" lon="6.96981">
        <ele>331</ele>
        <time>2011-01-23T08:17:55Z</time>
      </trkpt>
      <trkpt lat="49.18547" lon="6.96982">
        <ele>331</ele>
        <time>2011-01-23T08:17:57Z</time>
      </trkpt>
      <trkpt lat="49.18546" lon="6.96984">
        <ele>331</ele>
        <time>2011-01-23T08:17:59Z</time>
      </trkpt>
      <trkpt lat="49.18544" lon="6.96985">
        <ele>331</ele>
        <time>2011-01-23T08:18:01Z</time>
      </trkpt>
      <trkpt lat="49.18542" lon="6.96987">
        <ele>331</ele>
        <time>2011-01-23T08:18:03Z</time>
      </trkpt>
      <trkpt lat="49.1854" lon="6.9699">
        <ele>331</ele>
        <time>2011-01-23T08:18:05Z</time>
      </trkpt>
      <trkpt lat="49.18539" lon="6.96991">
        <ele>331</ele>
        <time>2011-01-23T08:18:06Z</time>
      </trkpt>
      <trkpt lat="49.18538" lon="6.96992">
        <ele>330</ele>
        <time>2011-01-23T08:18:07Z</time>
      </trkpt>
      <trkpt lat="49.18536" lon="6.96994">
        <ele>330</ele>
        <time>2011-01-23T08:18:09Z</time>
      </trkpt>
      <trkpt lat="49.18534" lon="6.96997">
        <ele>329</ele>
        <time>2011-01-23T08:18:11Z</time>
      </trkpt>
      <trkpt lat="49.18532" lon="6.97">
        <ele>329</ele>
        <time>2011-01-23T08:18:13Z</time>
      </trkpt>
      <trkpt lat="49.18531" lon="6.97001">
        <ele>329</ele>
        <time>2011-01-23T08:18:14Z</time>
      </trkpt>
      <trkpt lat="49.1853" lon="6.97002">
        <ele>329</ele>
        <time>2011-01-23T08:18:15Z</time>
      </trkpt>
      <trkpt lat="49.18528" lon="6.97005">
        <ele>329</ele>
        <time>2011-01-23T08:18:17Z</time>
      </trkpt>
      <trkpt lat="49.18526" lon="6.97006">
        <ele>328</ele>
        <time>2011-01-23T08:18:19Z</time>
      </trkpt>
      <trkpt lat="49.18524" lon="6.97008">
        <ele>327</ele>
        <time>2011-01-23T08:18:21Z</time>
      </trkpt>
      <trkpt lat="49.18522" lon="6.9701">
        <ele>326</ele>
        <time>2011-01-23T08:18:23Z</time>
      </trkpt>
      <trkpt lat="49.1852" lon="6.97012">
        <ele>325</ele>
        <time>2011-01-23T08:18:25Z</time>
      </trkpt>
      <trkpt lat="49.18518" lon="6.97015">
        <ele>325</ele>
        <time>2011-01-23T08:18:27Z</time>
      </trkpt>
      <trkpt lat="49.18517" lon="6.97016">
        <ele>325</ele>
        <time>2011-01-23T08:18:28Z</time>
      </trkpt>
      <trkpt lat="49.18515" lon="6.97017">
        <ele>325</ele>
        <time>2011-01-23T08:18:29Z</time>
      </trkpt>
      <trkpt lat="49.18513" lon="6.97019">
        <ele>325</ele>
        <time>2011-01-23T08:18:31Z</time>
      </trkpt>
      <trkpt lat="49.18511" lon="6.97021">
        <ele>325</ele>
        <time>2011-01-23T08:18:33Z</time>
      </trkpt>
      <trkpt lat="49.18509" lon="6.97023">
        <ele>325</ele>
        <time>2011-01-23T08:18:35Z</time>
      </trkpt>
      <trkpt lat="49.18508" lon="6.97024">
        <ele>325</ele>
        <time>2011-01-23T08:18:36Z</time>
      </trkpt>
      <trkpt lat="49.18507" lon="6.97025">
        <ele>325</ele>
        <time>2011-01-23T08:18:37Z</time>
      </trkpt>
      <trkpt lat="49.18505" lon="6.97026">
        <ele>325</ele>
        <time>2011-01-23T08:18:38Z</time>
      </trkpt>
      <trkpt lat="49.18504" lon="6.97027">
        <ele>325</ele>
        <time>2011-01-23T08:18:39Z</time>
      </trkpt>
      <trkpt lat="49.18503" lon="6.97028">
        <ele>325</ele>
        <time>2011-01-23T08:18:40Z</time>
      </trkpt>
      <trkpt lat="49.18501" lon="6.97031">
        <ele>325</ele>
        <time>2011-01-23T08:18:42Z</time>
      </trkpt>
      <trkpt lat="49.185" lon="6.97033">
        <ele>325</ele>
        <time>2011-01-23T08:18:43Z</time>
      </trkpt>
      <trkpt lat="49.18499" lon="6.97035">
        <ele>325</ele>
        <time>2011-01-23T08:18:44Z</time>
      </trkpt>
      <trkpt lat="49.18497" lon="6.97037">
        <ele>325</ele>
        <time>2011-01-23T08:18:46Z</time>
      </trkpt>
      <trkpt lat="49.18496" lon="6.97038">
        <ele>325</ele>
        <time>2011-01-23T08:18:47Z</time>
      </trkpt>
      <trkpt lat="49.18495" lon="6.9704">
        <ele>324</ele>
        <time>2011-01-23T08:18:48Z</time>
      </trkpt>
      <trkpt lat="49.18493" lon="6.97043">
        <ele>324</ele>
        <time>2011-01-23T08:18:50Z</time>
      </trkpt>
      <trkpt lat="49.18491" lon="6.97045">
        <ele>324</ele>
        <time>2011-01-23T08:18:51Z</time>
      </trkpt>
      <trkpt lat="49.1849" lon="6.97048">
        <ele>324</ele>
        <time>2011-01-23T08:18:53Z</time>
      </trkpt>
      <trkpt lat="49.18489" lon="6.9705">
        <ele>324</ele>
        <time>2011-01-23T08:18:54Z</time>
      </trkpt>
      <trkpt lat="49.18488" lon="6.97051">
        <ele>324</ele>
        <time>2011-01-23T08:18:55Z</time>
      </trkpt>
      <trkpt lat="49.18487" lon="6.97053">
        <ele>324</ele>
        <time>2011-01-23T08:18:56Z</time>
      </trkpt>
      <trkpt lat="49.18485" lon="6.97055">
        <ele>324</ele>
        <time>2011-01-23T08:18:58Z</time>
      </trkpt>
      <trkpt lat="49.18484" lon="6.97057">
        <ele>324</ele>
        <time>2011-01-23T08:18:59Z</time>
      </trkpt>
      <trkpt lat="49.18483" lon="6.97059">
        <ele>324</ele>
        <time>2011-01-23T08:19:00Z</time>
      </trkpt>
      <trkpt lat="49.18482" lon="6.97062">
        <ele>324</ele>
        <time>2011-01-23T08:19:01Z</time>
      </trkpt>
      <trkpt lat="49.18481" lon="6.97065">
        <ele>324</ele>
        <time>2011-01-23T08:19:02Z</time>
      </trkpt>
      <trkpt lat="49.1848" lon="6.97067">
        <ele>324</ele>
        <time>2011-01-23T08:19:03Z</time>
      </trkpt>
      <trkpt lat="49.18479" lon="6.97069">
        <ele>324</ele>
        <time>2011-01-23T08:19:04Z</time>
      </trkpt>
      <trkpt lat="49.18478" lon="6.97071">
        <ele>324</ele>
        <time>2011-01-23T08:19:06Z</time>
      </trkpt>
      <trkpt lat="49.18476" lon="6.97074">
        <ele>324</ele>
        <time>2011-01-23T08:19:08Z</time>
      </trkpt>
      <trkpt lat="49.18475" lon="6.97076">
        <ele>324</ele>
        <time>2011-01-23T08:19:09Z</time>
      </trkpt>
      <trkpt lat="49.18473" lon="6.97079">
        <ele>324</ele>
        <time>2011-01-23T08:19:11Z</time>
      </trkpt>
      <trkpt lat="49.18473" lon="6.9708">
        <ele>324</ele>
        <time>2011-01-23T08:19:12Z</time>
      </trkpt>
      <trkpt lat="49.18471" lon="6.97083">
        <ele>324</ele>
        <time>2011-01-23T08:19:14Z</time>
      </trkpt>
      <trkpt lat="49.18469" lon="6.97085">
        <ele>324</ele>
        <time>2011-01-23T08:19:16Z</time>
      </trkpt>
      <trkpt lat="49.18467" lon="6.97088">
        <ele>324</ele>
        <time>2011-01-23T08:19:18Z</time>
      </trkpt>
      <trkpt lat="49.18467" lon="6.9709">
        <ele>324</ele>
        <time>2011-01-23T08:19:19Z</time>
      </trkpt>
      <trkpt lat="49.18466" lon="6.97092">
        <ele>324</ele>
        <time>2011-01-23T08:19:20Z</time>
      </trkpt>
      <trkpt lat="49.18465" lon="6.97095">
        <ele>324</ele>
        <time>2011-01-23T08:19:21Z</time>
      </trkpt>
      <trkpt lat="49.18464" lon="6.97097">
        <ele>324</ele>
        <time>2011-01-23T08:19:22Z</time>
      </trkpt>
      <trkpt lat="49.18463" lon="6.97099">
        <ele>324</ele>
        <time>2011-01-23T08:19:23Z</time>
      </trkpt>
      <trkpt lat="49.18462" lon="6.97102">
        <ele>324</ele>
        <time>2011-01-23T08:19:24Z</time>
      </trkpt>
      <trkpt lat="49.18461" lon="6.97104">
        <ele>324</ele>
        <time>2011-01-23T08:19:25Z</time>
      </trkpt>
      <trkpt lat="49.1846" lon="6.97106">
        <ele>324</ele>
        <time>2011-01-23T08:19:26Z</time>
      </trkpt>
      <trkpt lat="49.1846" lon="6.97108">
        <ele>324</ele>
        <time>2011-01-23T08:19:27Z</time>
      </trkpt>
      <trkpt lat="49.18459" lon="6.9711">
        <ele>324</ele>
        <time>2011-01-23T08:19:28Z</time>
      </trkpt>
      <trkpt lat="49.18458" lon="6.97112">
        <ele>324</ele>
        <time>2011-01-23T08:19:29Z</time>
      </trkpt>
      <trkpt lat="49.18457" lon="6.97113">
        <ele>324</ele>
        <time>2011-01-23T08:19:30Z</time>
      </trkpt>
      <trkpt lat="49.18457" lon="6.97117">
        <ele>324</ele>
        <time>2011-01-23T08:19:32Z</time>
      </trkpt>
      <trkpt lat="49.18457" lon="6.97119">
        <ele>324</ele>
        <time>2011-01-23T08:19:33Z</time>
      </trkpt>
      <trkpt lat="49.18456" lon="6.97121">
        <ele>324</ele>
        <time>2011-01-23T08:19:34Z</time>
      </trkpt>
      <trkpt lat="49.18456" lon="6.97123">
        <ele>324</ele>
        <time>2011-01-23T08:19:35Z</time>
      </trkpt>
      <trkpt lat="49.18455" lon="6.97125">
        <ele>324</ele>
        <time>2011-01-23T08:19:36Z</time>
      </trkpt>
      <trkpt lat="49.18455" lon="6.97127">
        <ele>324</ele>
        <time>2011-01-23T08:19:37Z</time>
      </trkpt>
      <trkpt lat="49.18454" lon="6.97129">
        <ele>324</ele>
        <time>2011-01-23T08:19:38Z</time>
      </trkpt>
      <trkpt lat="49.18454" lon="6.97131">
        <ele>324</ele>
        <time>2011-01-23T08:19:39Z</time>
      </trkpt>
      <trkpt lat="49.18454" lon="6.97133">
        <ele>324</ele>
        <time>2011-01-23T08:19:40Z</time>
      </trkpt>
      <trkpt lat="49.18453" lon="6.97135">
        <ele>324</ele>
        <time>2011-01-23T08:19:41Z</time>
      </trkpt>
      <trkpt lat="49.18453" lon="6.97137">
        <ele>324</ele>
        <time>2011-01-23T08:19:42Z</time>
      </trkpt>
      <trkpt lat="49.18452" lon="6.97139">
        <ele>324</ele>
        <time>2011-01-23T08:19:43Z</time>
      </trkpt>
      <trkpt lat="49.18451" lon="6.97141">
        <ele>324</ele>
        <time>2011-01-23T08:19:44Z</time>
      </trkpt>
      <trkpt lat="49.18451" lon="6.97143">
        <ele>324</ele>
        <time>2011-01-23T08:19:45Z</time>
      </trkpt>
      <trkpt lat="49.1845" lon="6.97144">
        <ele>324</ele>
        <time>2011-01-23T08:19:46Z</time>
      </trkpt>
      <trkpt lat="49.18449" lon="6.97146">
        <ele>324</ele>
        <time>2011-01-23T08:19:47Z</time>
      </trkpt>
      <trkpt lat="49.18448" lon="6.97148">
        <ele>324</ele>
        <time>2011-01-23T08:19:48Z</time>
      </trkpt>
      <trkpt lat="49.18447" lon="6.97151">
        <ele>324</ele>
        <time>2011-01-23T08:19:50Z</time>
      </trkpt>
      <trkpt lat="49.18446" lon="6.97153">
        <ele>324</ele>
        <time>2011-01-23T08:19:51Z</time>
      </trkpt>
      <trkpt lat="49.18444" lon="6.97156">
        <ele>324</ele>
        <time>2011-01-23T08:19:53Z</time>
      </trkpt>
      <trkpt lat="49.18444" lon="6.97158">
        <ele>324</ele>
        <time>2011-01-23T08:19:54Z</time>
      </trkpt>
      <trkpt lat="49.18442" lon="6.97161">
        <ele>324</ele>
        <time>2011-01-23T08:19:56Z</time>
      </trkpt>
      <trkpt lat="49.1844" lon="6.97164">
        <ele>324</ele>
        <time>2011-01-23T08:19:58Z</time>
      </trkpt>
      <trkpt lat="49.18438" lon="6.97168">
        <ele>324</ele>
        <time>2011-01-23T08:20:00Z</time>
      </trkpt>
      <trkpt lat="49.18437" lon="6.9717">
        <ele>324</ele>
        <time>2011-01-23T08:20:02Z</time>
      </trkpt>
      <trkpt lat="49.18435" lon="6.97172">
        <ele>324</ele>
        <time>2011-01-23T08:20:04Z</time>
      </trkpt>
      <trkpt lat="49.18433" lon="6.97175">
        <ele>324</ele>
        <time>2011-01-23T08:20:06Z</time>
      </trkpt>
      <trkpt lat="49.18432" lon="6.97176">
        <ele>324</ele>
        <time>2011-01-23T08:20:08Z</time>
      </trkpt>
      <trkpt lat="49.1843" lon="6.97179">
        <ele>324</ele>
        <time>2011-01-23T08:20:10Z</time>
      </trkpt>
      <trkpt lat="49.18428" lon="6.97181">
        <ele>324</ele>
        <time>2011-01-23T08:20:12Z</time>
      </trkpt>
      <trkpt lat="49.18427" lon="6.97184">
        <ele>324</ele>
        <time>2011-01-23T08:20:14Z</time>
      </trkpt>
      <trkpt lat="49.18425" lon="6.97187">
        <ele>324</ele>
        <time>2011-01-23T08:20:16Z</time>
      </trkpt>
      <trkpt lat="49.18424" lon="6.97189">
        <ele>324</ele>
        <time>2011-01-23T08:20:18Z</time>
      </trkpt>
      <trkpt lat="49.18422" lon="6.97192">
        <ele>323</ele>
        <time>2011-01-23T08:20:20Z</time>
      </trkpt>
      <trkpt lat="49.1842" lon="6.97195">
        <ele>323</ele>
        <time>2011-01-23T08:20:22Z</time>
      </trkpt>
      <trkpt lat="49.18419" lon="6.97198">
        <ele>323</ele>
        <time>2011-01-23T08:20:24Z</time>
      </trkpt>
      <trkpt lat="49.18417" lon="6.972">
        <ele>323</ele>
        <time>2011-01-23T08:20:26Z</time>
      </trkpt>
      <trkpt lat="49.18415" lon="6.97202">
        <ele>322</ele>
        <time>2011-01-23T08:20:28Z</time>
      </trkpt>
      <trkpt lat="49.18413" lon="6.97204">
        <ele>322</ele>
        <time>2011-01-23T08:20:30Z</time>
      </trkpt>
      <trkpt lat="49.18411" lon="6.97205">
        <ele>321</ele>
        <time>2011-01-23T08:20:32Z</time>
      </trkpt>
      <trkpt lat="49.1841" lon="6.97206">
        <ele>321</ele>
        <time>2011-01-23T08:20:33Z</time>
      </trkpt>
      <trkpt lat="49.18409" lon="6.97207">
        <ele>320</ele>
        <time>2011-01-23T08:20:34Z</time>
      </trkpt>
      <trkpt lat="49.18407" lon="6.97207">
        <ele>320</ele>
        <time>2011-01-23T08:20:35Z</time>
      </trkpt>
      <trkpt lat="49.18406" lon="6.97208">
        <ele>320</ele>
        <time>2011-01-23T08:20:36Z</time>
      </trkpt>
      <trkpt lat="49.18405" lon="6.97208">
        <ele>319</ele>
        <time>2011-01-23T08:20:37Z</time>
      </trkpt>
      <trkpt lat="49.18404" lon="6.97209">
        <ele>319</ele>
        <time>2011-01-23T08:20:38Z</time>
      </trkpt>
      <trkpt lat="49.18402" lon="6.97209">
        <ele>318</ele>
        <time>2011-01-23T08:20:39Z</time>
      </trkpt>
      <trkpt lat="49.18401" lon="6.9721">
        <ele>318</ele>
        <time>2011-01-23T08:20:40Z</time>
      </trkpt>
      <trkpt lat="49.184" lon="6.97211">
        <ele>317</ele>
        <time>2011-01-23T08:20:41Z</time>
      </trkpt>
      <trkpt lat="49.18398" lon="6.97212">
        <ele>317</ele>
        <time>2011-01-23T08:20:43Z</time>
      </trkpt>
      <trkpt lat="49.18397" lon="6.97212">
        <ele>316</ele>
        <time>2011-01-23T08:20:44Z</time>
      </trkpt>
      <trkpt lat="49.18396" lon="6.97213">
        <ele>316</ele>
        <time>2011-01-23T08:20:45Z</time>
      </trkpt>
      <trkpt lat="49.18394" lon="6.97214">
        <ele>316</ele>
        <time>2011-01-23T08:20:46Z</time>
      </trkpt>
      <trkpt lat="49.18392" lon="6.97216">
        <ele>315</ele>
        <time>2011-01-23T08:20:48Z</time>
      </trkpt>
      <trkpt lat="49.1839" lon="6.97218">
        <ele>315</ele>
        <time>2011-01-23T08:20:50Z</time>
      </trkpt>
      <trkpt lat="49.18389" lon="6.97219">
        <ele>315</ele>
        <time>2011-01-23T08:20:51Z</time>
      </trkpt>
      <trkpt lat="49.18387" lon="6.97222">
        <ele>315</ele>
        <time>2011-01-23T08:20:53Z</time>
      </trkpt>
      <trkpt lat="49.18385" lon="6.97224">
        <ele>315</ele>
        <time>2011-01-23T08:20:55Z</time>
      </trkpt>
      <trkpt lat="49.18383" lon="6.97226">
        <ele>315</ele>
        <time>2011-01-23T08:20:57Z</time>
      </trkpt>
      <trkpt lat="49.18382" lon="6.97229">
        <ele>315</ele>
        <time>2011-01-23T08:20:59Z</time>
      </trkpt>
      <trkpt lat="49.1838" lon="6.97231">
        <ele>315</ele>
        <time>2011-01-23T08:21:00Z</time>
      </trkpt>
      <trkpt lat="49.18378" lon="6.97235">
        <ele>315</ele>
        <time>2011-01-23T08:21:02Z</time>
      </trkpt>
      <trkpt lat="49.18376" lon="6.97237">
        <ele>315</ele>
        <time>2011-01-23T08:21:03Z</time>
      </trkpt>
      <trkpt lat="49.18375" lon="6.97238">
        <ele>315</ele>
        <time>2011-01-23T08:21:04Z</time>
      </trkpt>
      <trkpt lat="49.18373" lon="6.9724">
        <ele>315</ele>
        <time>2011-01-23T08:21:06Z</time>
      </trkpt>
      <trkpt lat="49.18372" lon="6.97242">
        <ele>315</ele>
        <time>2011-01-23T08:21:08Z</time>
      </trkpt>
      <trkpt lat="49.1837" lon="6.97244">
        <ele>315</ele>
        <time>2011-01-23T08:21:10Z</time>
      </trkpt>
      <trkpt lat="49.18368" lon="6.97245">
        <ele>315</ele>
        <time>2011-01-23T08:21:12Z</time>
      </trkpt>
      <trkpt lat="49.18366" lon="6.97246">
        <ele>315</ele>
        <time>2011-01-23T08:21:14Z</time>
      </trkpt>
      <trkpt lat="49.18365" lon="6.97247">
        <ele>315</ele>
        <time>2011-01-23T08:21:15Z</time>
      </trkpt>
      <trkpt lat="49.18363" lon="6.97248">
        <ele>315</ele>
        <time>2011-01-23T08:21:16Z</time>
      </trkpt>
      <trkpt lat="49.18362" lon="6.9725">
        <ele>315</ele>
        <time>2011-01-23T08:21:17Z</time>
      </trkpt>
      <trkpt lat="49.1836" lon="6.97251">
        <ele>315</ele>
        <time>2011-01-23T08:21:19Z</time>
      </trkpt>
      <trkpt lat="49.18358" lon="6.97253">
        <ele>315</ele>
        <time>2011-01-23T08:21:21Z</time>
      </trkpt>
      <trkpt lat="49.18356" lon="6.97254">
        <ele>315</ele>
        <time>2011-01-23T08:21:23Z</time>
      </trkpt>
      <trkpt lat="49.18355" lon="6.97255">
        <ele>315</ele>
        <time>2011-01-23T08:21:24Z</time>
      </trkpt>
      <trkpt lat="49.18353" lon="6.97257">
        <ele>315</ele>
        <time>2011-01-23T08:21:26Z</time>
      </trkpt>
      <trkpt lat="49.18352" lon="6.9726">
        <ele>315</ele>
        <time>2011-01-23T08:21:28Z</time>
      </trkpt>
      <trkpt lat="49.18351" lon="6.97263">
        <ele>315</ele>
        <time>2011-01-23T08:21:30Z</time>
      </trkpt>
      <trkpt lat="49.1835" lon="6.97265">
        <ele>315</ele>
        <time>2011-01-23T08:21:31Z</time>
      </trkpt>
      <trkpt lat="49.18349" lon="6.97268">
        <ele>315</ele>
        <time>2011-01-23T08:21:32Z</time>
      </trkpt>
      <trkpt lat="49.18348" lon="6.9727">
        <ele>315</ele>
        <time>2011-01-23T08:21:33Z</time>
      </trkpt>
      <trkpt lat="49.18348" lon="6.97272">
        <ele>315</ele>
        <time>2011-01-23T08:21:34Z</time>
      </trkpt>
      <trkpt lat="49.18347" lon="6.97273">
        <ele>315</ele>
        <time>2011-01-23T08:21:35Z</time>
      </trkpt>
      <trkpt lat="49.18346" lon="6.97276">
        <ele>315</ele>
        <time>2011-01-23T08:21:36Z</time>
      </trkpt>
      <trkpt lat="49.18345" lon="6.97278">
        <ele>315</ele>
        <time>2011-01-23T08:21:37Z</time>
      </trkpt>
      <trkpt lat="49.18344" lon="6.9728">
        <ele>315</ele>
        <time>2011-01-23T08:21:38Z</time>
      </trkpt>
      <trkpt lat="49.18344" lon="6.97282">
        <ele>315</ele>
        <time>2011-01-23T08:21:39Z</time>
      </trkpt>
      <trkpt lat="49.18343" lon="6.97284">
        <ele>315</ele>
        <time>2011-01-23T08:21:40Z</time>
      </trkpt>
      <trkpt lat="49.18343" lon="6.97286">
        <ele>315</ele>
        <time>2011-01-23T08:21:41Z</time>
      </trkpt>
      <trkpt lat="49.18342" lon="6.97288">
        <ele>315</ele>
        <time>2011-01-23T08:21:42Z</time>
      </trkpt>
      <trkpt lat="49.18341" lon="6.97291">
        <ele>315</ele>
        <time>2011-01-23T08:21:43Z</time>
      </trkpt>
      <trkpt lat="49.1834" lon="6.97294">
        <ele>315</ele>
        <time>2011-01-23T08:21:45Z</time>
      </trkpt>
      <trkpt lat="49.1834" lon="6.97296">
        <ele>315</ele>
        <time>2011-01-23T08:21:46Z</time>
      </trkpt>
      <trkpt lat="49.18339" lon="6.97299">
        <ele>315</ele>
        <time>2011-01-23T08:21:48Z</time>
      </trkpt>
      <trkpt lat="49.18339" lon="6.97301">
        <ele>315</ele>
        <time>2011-01-23T08:21:49Z</time>
      </trkpt>
      <trkpt lat="49.18338" lon="6.97303">
        <ele>315</ele>
        <time>2011-01-23T08:21:50Z</time>
      </trkpt>
      <trkpt lat="49.18338" lon="6.97305">
        <ele>315</ele>
        <time>2011-01-23T08:21:51Z</time>
      </trkpt>
      <trkpt lat="49.18338" lon="6.97307">
        <ele>315</ele>
        <time>2011-01-23T08:21:52Z</time>
      </trkpt>
      <trkpt lat="49.18337" lon="6.97309">
        <ele>315</ele>
        <time>2011-01-23T08:21:53Z</time>
      </trkpt>
      <trkpt lat="49.18337" lon="6.97311">
        <ele>315</ele>
        <time>2011-01-23T08:21:54Z</time>
      </trkpt>
      <trkpt lat="49.18336" lon="6.97314">
        <ele>315</ele>
        <time>2011-01-23T08:21:55Z</time>
      </trkpt>
      <trkpt lat="49.18336" lon="6.97316">
        <ele>315</ele>
        <time>2011-01-23T08:21:56Z</time>
      </trkpt>
      <trkpt lat="49.18336" lon="6.97318">
        <ele>316</ele>
        <time>2011-01-23T08:21:57Z</time>
      </trkpt>
      <trkpt lat="49.18335" lon="6.9732">
        <ele>316</ele>
        <time>2011-01-23T08:21:58Z</time>
      </trkpt>
      <trkpt lat="49.18335" lon="6.97322">
        <ele>317</ele>
        <time>2011-01-23T08:21:59Z</time>
      </trkpt>
      <trkpt lat="49.18335" lon="6.97324">
        <ele>317</ele>
        <time>2011-01-23T08:22:00Z</time>
      </trkpt>
      <trkpt lat="49.18335" lon="6.97326">
        <ele>318</ele>
        <time>2011-01-23T08:22:01Z</time>
      </trkpt>
      <trkpt lat="49.18334" lon="6.97328">
        <ele>318</ele>
        <time>2011-01-23T08:22:02Z</time>
      </trkpt>
      <trkpt lat="49.18334" lon="6.9733">
        <ele>318</ele>
        <time>2011-01-23T08:22:03Z</time>
      </trkpt>
      <trkpt lat="49.18333" lon="6.97331">
        <ele>318</ele>
        <time>2011-01-23T08:22:04Z</time>
      </trkpt>
      <trkpt lat="49.18333" lon="6.97334">
        <ele>319</ele>
        <time>2011-01-23T08:22:05Z</time>
      </trkpt>
      <trkpt lat="49.18332" lon="6.97336">
        <ele>319</ele>
        <time>2011-01-23T08:22:06Z</time>
      </trkpt>
      <trkpt lat="49.18331" lon="6.97338">
        <ele>319</ele>
        <time>2011-01-23T08:22:07Z</time>
      </trkpt>
      <trkpt lat="49.1833" lon="6.9734">
        <ele>319</ele>
        <time>2011-01-23T08:22:08Z</time>
      </trkpt>
      <trkpt lat="49.18329" lon="6.97341">
        <ele>319</ele>
        <time>2011-01-23T08:22:09Z</time>
      </trkpt>
      <trkpt lat="49.18328" lon="6.97343">
        <ele>319</ele>
        <time>2011-01-23T08:22:10Z</time>
      </trkpt>
      <trkpt lat="49.18327" lon="6.97345">
        <ele>319</ele>
        <time>2011-01-23T08:22:11Z</time>
      </trkpt>
      <trkpt lat="49.18326" lon="6.97347">
        <ele>319</ele>
        <time>2011-01-23T08:22:13Z</time>
      </trkpt>
      <trkpt lat="49.18325" lon="6.97349">
        <ele>319</ele>
        <time>2011-01-23T08:22:15Z</time>
      </trkpt>
      <trkpt lat="49.18323" lon="6.9735">
        <ele>319</ele>
        <time>2011-01-23T08:22:17Z</time>
      </trkpt>
      <trkpt lat="49.18321" lon="6.97353">
        <ele>319</ele>
        <time>2011-01-23T08:22:19Z</time>
      </trkpt>
      <trkpt lat="49.1832" lon="6.97355">
        <ele>319</ele>
        <time>2011-01-23T08:22:20Z</time>
      </trkpt>
      <trkpt lat="49.18319" lon="6.97356">
        <ele>319</ele>
        <time>2011-01-23T08:22:21Z</time>
      </trkpt>
      <trkpt lat="49.18317" lon="6.97359">
        <ele>319</ele>
        <time>2011-01-23T08:22:23Z</time>
      </trkpt>
      <trkpt lat="49.18316" lon="6.97361">
        <ele>319</ele>
        <time>2011-01-23T08:22:25Z</time>
      </trkpt>
      <trkpt lat="49.18314" lon="6.97362">
        <ele>319</ele>
        <time>2011-01-23T08:22:27Z</time>
      </trkpt>
      <trkpt lat="49.18313" lon="6.97364">
        <ele>319</ele>
        <time>2011-01-23T08:22:29Z</time>
      </trkpt>
      <trkpt lat="49.18311" lon="6.97367">
        <ele>319</ele>
        <time>2011-01-23T08:22:31Z</time>
      </trkpt>
      <trkpt lat="49.1831" lon="6.97369">
        <ele>319</ele>
        <time>2011-01-23T08:22:33Z</time>
      </trkpt>
      <trkpt lat="49.18309" lon="6.97372">
        <ele>319</ele>
        <time>2011-01-23T08:22:35Z</time>
      </trkpt>
      <trkpt lat="49.18307" lon="6.97375">
        <ele>319</ele>
        <time>2011-01-23T08:22:37Z</time>
      </trkpt>
      <trkpt lat="49.18306" lon="6.97378">
        <ele>319</ele>
        <time>2011-01-23T08:22:38Z</time>
      </trkpt>
      <trkpt lat="49.18305" lon="6.97379">
        <ele>319</ele>
        <time>2011-01-23T08:22:39Z</time>
      </trkpt>
      <trkpt lat="49.18304" lon="6.97382">
        <ele>319</ele>
        <time>2011-01-23T08:22:40Z</time>
      </trkpt>
      <trkpt lat="49.18303" lon="6.97386">
        <ele>319</ele>
        <time>2011-01-23T08:22:42Z</time>
      </trkpt>
      <trkpt lat="49.18301" lon="6.97388">
        <ele>319</ele>
        <time>2011-01-23T08:22:43Z</time>
      </trkpt>
      <trkpt lat="49.183" lon="6.97391">
        <ele>319</ele>
        <time>2011-01-23T08:22:44Z</time>
      </trkpt>
      <trkpt lat="49.183" lon="6.97393">
        <ele>319</ele>
        <time>2011-01-23T08:22:45Z</time>
      </trkpt>
      <trkpt lat="49.18299" lon="6.97396">
        <ele>319</ele>
        <time>2011-01-23T08:22:46Z</time>
      </trkpt>
      <trkpt lat="49.18298" lon="6.97398">
        <ele>319</ele>
        <time>2011-01-23T08:22:47Z</time>
      </trkpt>
      <trkpt lat="49.18298" lon="6.974">
        <ele>319</ele>
        <time>2011-01-23T08:22:48Z</time>
      </trkpt>
      <trkpt lat="49.18298" lon="6.97402">
        <ele>319</ele>
        <time>2011-01-23T08:22:49Z</time>
      </trkpt>
      <trkpt lat="49.18297" lon="6.97404">
        <ele>319</ele>
        <time>2011-01-23T08:22:50Z</time>
      </trkpt>
      <trkpt lat="49.18297" lon="6.97406">
        <ele>319</ele>
        <time>2011-01-23T08:22:51Z</time>
      </trkpt>
      <trkpt lat="49.18297" lon="6.97408">
        <ele>319</ele>
        <time>2011-01-23T08:22:52Z</time>
      </trkpt>
      <trkpt lat="49.18296" lon="6.9741">
        <ele>319</ele>
        <time>2011-01-23T08:22:53Z</time>
      </trkpt>
      <trkpt lat="49.18296" lon="6.97412">
        <ele>319</ele>
        <time>2011-01-23T08:22:54Z</time>
      </trkpt>
      <trkpt lat="49.18295" lon="6.97414">
        <ele>319</ele>
        <time>2011-01-23T08:22:55Z</time>
      </trkpt>
      <trkpt lat="49.18296" lon="6.97416">
        <ele>319</ele>
        <time>2011-01-23T08:22:56Z</time>
      </trkpt>
      <trkpt lat="49.18296" lon="6.97418">
        <ele>319</ele>
        <time>2011-01-23T08:22:57Z</time>
      </trkpt>
      <trkpt lat="49.18295" lon="6.97421">
        <ele>319</ele>
        <time>2011-01-23T08:22:59Z</time>
      </trkpt>
      <trkpt lat="49.18295" lon="6.97423">
        <ele>319</ele>
        <time>2011-01-23T08:23:01Z</time>
      </trkpt>
      <trkpt lat="49.18295" lon="6.97425">
        <ele>319</ele>
        <time>2011-01-23T08:23:02Z</time>
      </trkpt>
      <trkpt lat="49.18295" lon="6.97428">
        <ele>319</ele>
        <time>2011-01-23T08:23:03Z</time>
      </trkpt>
      <trkpt lat="49.18295" lon="6.9743">
        <ele>319</ele>
        <time>2011-01-23T08:23:04Z</time>
      </trkpt>
      <trkpt lat="49.18295" lon="6.97433">
        <ele>319</ele>
        <time>2011-01-23T08:23:05Z</time>
      </trkpt>
      <trkpt lat="49.18294" lon="6.97436">
        <ele>319</ele>
        <time>2011-01-23T08:23:06Z</time>
      </trkpt>
      <trkpt lat="49.18294" lon="6.97438">
        <ele>319</ele>
        <time>2011-01-23T08:23:07Z</time>
      </trkpt>
      <trkpt lat="49.18293" lon="6.97441">
        <ele>319</ele>
        <time>2011-01-23T08:23:08Z</time>
      </trkpt>
      <trkpt lat="49.18293" lon="6.97443">
        <ele>319</ele>
        <time>2011-01-23T08:23:09Z</time>
      </trkpt>
      <trkpt lat="49.18294" lon="6.97446">
        <ele>319</ele>
        <time>2011-01-23T08:23:11Z</time>
      </trkpt>
      <trkpt lat="49.18293" lon="6.97448">
        <ele>319</ele>
        <time>2011-01-23T08:23:12Z</time>
      </trkpt>
      <trkpt lat="49.18293" lon="6.9745">
        <ele>319</ele>
        <time>2011-01-23T08:23:13Z</time>
      </trkpt>
      <trkpt lat="49.18292" lon="6.97453">
        <ele>319</ele>
        <time>2011-01-23T08:23:15Z</time>
      </trkpt>
      <trkpt lat="49.18292" lon="6.97456">
        <ele>319</ele>
        <time>2011-01-23T08:23:16Z</time>
      </trkpt>
      <trkpt lat="49.18291" lon="6.97458">
        <ele>319</ele>
        <time>2011-01-23T08:23:17Z</time>
      </trkpt>
      <trkpt lat="49.18291" lon="6.9746">
        <ele>319</ele>
        <time>2011-01-23T08:23:18Z</time>
      </trkpt>
      <trkpt lat="49.18291" lon="6.97462">
        <ele>319</ele>
        <time>2011-01-23T08:23:19Z</time>
      </trkpt>
      <trkpt lat="49.18291" lon="6.97464">
        <ele>319</ele>
        <time>2011-01-23T08:23:20Z</time>
      </trkpt>
      <trkpt lat="49.1829" lon="6.97466">
        <ele>319</ele>
        <time>2011-01-23T08:23:22Z</time>
      </trkpt>
      <trkpt lat="49.18291" lon="6.97468">
        <ele>320</ele>
        <time>2011-01-23T08:23:24Z</time>
      </trkpt>
      <trkpt lat="49.18291" lon="6.9747">
        <ele>320</ele>
        <time>2011-01-23T08:23:25Z</time>
      </trkpt>
      <trkpt lat="49.18291" lon="6.97472">
        <ele>320</ele>
        <time>2011-01-23T08:23:26Z</time>
      </trkpt>
      <trkpt lat="49.18291" lon="6.97473">
        <ele>320</ele>
        <time>2011-01-23T08:23:27Z</time>
      </trkpt>
      <trkpt lat="49.18291" lon="6.97477">
        <ele>321</ele>
        <time>2011-01-23T08:23:29Z</time>
      </trkpt>
      <trkpt lat="49.18291" lon="6.97479">
        <ele>321</ele>
        <time>2011-01-23T08:23:30Z</time>
      </trkpt>
      <trkpt lat="49.1829" lon="6.97481">
        <ele>321</ele>
        <time>2011-01-23T08:23:31Z</time>
      </trkpt>
      <trkpt lat="49.1829" lon="6.97484">
        <ele>321</ele>
        <time>2011-01-23T08:23:32Z</time>
      </trkpt>
      <trkpt lat="49.1829" lon="6.97486">
        <ele>321</ele>
        <time>2011-01-23T08:23:33Z</time>
      </trkpt>
      <trkpt lat="49.1829" lon="6.97488">
        <ele>321</ele>
        <time>2011-01-23T08:23:34Z</time>
      </trkpt>
      <trkpt lat="49.1829" lon="6.9749">
        <ele>321</ele>
        <time>2011-01-23T08:23:35Z</time>
      </trkpt>
      <trkpt lat="49.1829" lon="6.97491">
        <ele>321</ele>
        <time>2011-01-23T08:23:36Z</time>
      </trkpt>
      <trkpt lat="49.1829" lon="6.97493">
        <ele>321</ele>
        <time>2011-01-23T08:23:37Z</time>
      </trkpt>
      <trkpt lat="49.1829" lon="6.97495">
        <ele>321</ele>
        <time>2011-01-23T08:23:38Z</time>
      </trkpt>
      <trkpt lat="49.1829" lon="6.97497">
        <ele>321</ele>
        <time>2011-01-23T08:23:39Z</time>
      </trkpt>
      <trkpt lat="49.18289" lon="6.97499">
        <ele>321</ele>
        <time>2011-01-23T08:23:40Z</time>
      </trkpt>
      <trkpt lat="49.18289" lon="6.97502">
        <ele>321</ele>
        <time>2011-01-23T08:23:42Z</time>
      </trkpt>
      <trkpt lat="49.18288" lon="6.97505">
        <ele>321</ele>
        <time>2011-01-23T08:23:44Z</time>
      </trkpt>
      <trkpt lat="49.18288" lon="6.97507">
        <ele>321</ele>
        <time>2011-01-23T08:23:45Z</time>
      </trkpt>
      <trkpt lat="49.18287" lon="6.97509">
        <ele>321</ele>
        <time>2011-01-23T08:23:47Z</time>
      </trkpt>
      <trkpt lat="49.18287" lon="6.97512">
        <ele>321</ele>
        <time>2011-01-23T08:23:49Z</time>
      </trkpt>
      <trkpt lat="49.18288" lon="6.97515">
        <ele>321</ele>
        <time>2011-01-23T08:23:51Z</time>
      </trkpt>
      <trkpt lat="49.18287" lon="6.97516">
        <ele>321</ele>
        <time>2011-01-23T08:23:52Z</time>
      </trkpt>
      <trkpt lat="49.18287" lon="6.97518">
        <ele>321</ele>
        <time>2011-01-23T08:23:54Z</time>
      </trkpt>
      <trkpt lat="49.18286" lon="6.97521">
        <ele>321</ele>
        <time>2011-01-23T08:23:56Z</time>
      </trkpt>
      <trkpt lat="49.18285" lon="6.97523">
        <ele>321</ele>
        <time>2011-01-23T08:23:57Z</time>
      </trkpt>
      <trkpt lat="49.18285" lon="6.97525">
        <ele>321</ele>
        <time>2011-01-23T08:23:58Z</time>
      </trkpt>
      <trkpt lat="49.18285" lon="6.97528">
        <ele>321</ele>
        <time>2011-01-23T08:24:00Z</time>
      </trkpt>
      <trkpt lat="49.18284" lon="6.97531">
        <ele>321</ele>
        <time>2011-01-23T08:24:02Z</time>
      </trkpt>
      <trkpt lat="49.18284" lon="6.97533">
        <ele>321</ele>
        <time>2011-01-23T08:24:03Z</time>
      </trkpt>
      <trkpt lat="49.18284" lon="6.97535">
        <ele>321</ele>
        <time>2011-01-23T08:24:04Z</time>
      </trkpt>
      <trkpt lat="49.18284" lon="6.97537">
        <ele>321</ele>
        <time>2011-01-23T08:24:05Z</time>
      </trkpt>
      <trkpt lat="49.18283" lon="6.97538">
        <ele>321</ele>
        <time>2011-01-23T08:24:06Z</time>
      </trkpt>
      <trkpt lat="49.18283" lon="6.9754">
        <ele>321</ele>
        <time>2011-01-23T08:24:07Z</time>
      </trkpt>
      <trkpt lat="49.18283" lon="6.97543">
        <ele>321</ele>
        <time>2011-01-23T08:24:09Z</time>
      </trkpt>
      <trkpt lat="49.18284" lon="6.97544">
        <ele>321</ele>
        <time>2011-01-23T08:24:10Z</time>
      </trkpt>
      <trkpt lat="49.18284" lon="6.97548">
        <ele>321</ele>
        <time>2011-01-23T08:24:12Z</time>
      </trkpt>
      <trkpt lat="49.18284" lon="6.97551">
        <ele>321</ele>
        <time>2011-01-23T08:24:13Z</time>
      </trkpt>
      <trkpt lat="49.18284" lon="6.97553">
        <ele>321</ele>
        <time>2011-01-23T08:24:14Z</time>
      </trkpt>
      <trkpt lat="49.18283" lon="6.97555">
        <ele>321</ele>
        <time>2011-01-23T08:24:15Z</time>
      </trkpt>
      <trkpt lat="49.18283" lon="6.97557">
        <ele>321</ele>
        <time>2011-01-23T08:24:17Z</time>
      </trkpt>
      <trkpt lat="49.18283" lon="6.97561">
        <ele>321</ele>
        <time>2011-01-23T08:24:19Z</time>
      </trkpt>
      <trkpt lat="49.18283" lon="6.97564">
        <ele>321</ele>
        <time>2011-01-23T08:24:21Z</time>
      </trkpt>
      <trkpt lat="49.18283" lon="6.97565">
        <ele>321</ele>
        <time>2011-01-23T08:24:22Z</time>
      </trkpt>
      <trkpt lat="49.18283" lon="6.97567">
        <ele>321</ele>
        <time>2011-01-23T08:24:23Z</time>
      </trkpt>
      <trkpt lat="49.18283" lon="6.9757">
        <ele>321</ele>
        <time>2011-01-23T08:24:24Z</time>
      </trkpt>
      <trkpt lat="49.18283" lon="6.97572">
        <ele>321</ele>
        <time>2011-01-23T08:24:25Z</time>
      </trkpt>
      <trkpt lat="49.18282" lon="6.97574">
        <ele>321</ele>
        <time>2011-01-23T08:24:26Z</time>
      </trkpt>
      <trkpt lat="49.18282" lon="6.97576">
        <ele>321</ele>
        <time>2011-01-23T08:24:27Z</time>
      </trkpt>
      <trkpt lat="49.18282" lon="6.97578">
        <ele>321</ele>
        <time>2011-01-23T08:24:28Z</time>
      </trkpt>
      <trkpt lat="49.18281" lon="6.97581">
        <ele>321</ele>
        <time>2011-01-23T08:24:29Z</time>
      </trkpt>
      <trkpt lat="49.18281" lon="6.97582">
        <ele>321</ele>
        <time>2011-01-23T08:24:30Z</time>
      </trkpt>
      <trkpt lat="49.1828" lon="6.97585">
        <ele>321</ele>
        <time>2011-01-23T08:24:32Z</time>
      </trkpt>
      <trkpt lat="49.18279" lon="6.97588">
        <ele>321</ele>
        <time>2011-01-23T08:24:34Z</time>
      </trkpt>
      <trkpt lat="49.18278" lon="6.97591">
        <ele>321</ele>
        <time>2011-01-23T08:24:36Z</time>
      </trkpt>
      <trkpt lat="49.18277" lon="6.97593">
        <ele>321</ele>
        <time>2011-01-23T08:24:37Z</time>
      </trkpt>
      <trkpt lat="49.18277" lon="6.97594">
        <ele>321</ele>
        <time>2011-01-23T08:24:38Z</time>
      </trkpt>
      <trkpt lat="49.18276" lon="6.97597">
        <ele>321</ele>
        <time>2011-01-23T08:24:40Z</time>
      </trkpt>
      <trkpt lat="49.18276" lon="6.976">
        <ele>321</ele>
        <time>2011-01-23T08:24:42Z</time>
      </trkpt>
      <trkpt lat="49.18275" lon="6.97603">
        <ele>320</ele>
        <time>2011-01-23T08:24:44Z</time>
      </trkpt>
      <trkpt lat="49.18275" lon="6.97605">
        <ele>320</ele>
        <time>2011-01-23T08:24:45Z</time>
      </trkpt>
      <trkpt lat="49.18274" lon="6.97607">
        <ele>320</ele>
        <time>2011-01-23T08:24:46Z</time>
      </trkpt>
      <trkpt lat="49.18274" lon="6.97608">
        <ele>319</ele>
        <time>2011-01-23T08:24:47Z</time>
      </trkpt>
      <trkpt lat="49.18273" lon="6.9761">
        <ele>319</ele>
        <time>2011-01-23T08:24:48Z</time>
      </trkpt>
      <trkpt lat="49.18272" lon="6.97612">
        <ele>319</ele>
        <time>2011-01-23T08:24:49Z</time>
      </trkpt>
      <trkpt lat="49.18271" lon="6.97614">
        <ele>319</ele>
        <time>2011-01-23T08:24:51Z</time>
      </trkpt>
      <trkpt lat="49.1827" lon="6.97618">
        <ele>319</ele>
        <time>2011-01-23T08:24:53Z</time>
      </trkpt>
      <trkpt lat="49.18269" lon="6.9762">
        <ele>319</ele>
        <time>2011-01-23T08:24:54Z</time>
      </trkpt>
      <trkpt lat="49.18268" lon="6.97622">
        <ele>319</ele>
        <time>2011-01-23T08:24:55Z</time>
      </trkpt>
      <trkpt lat="49.18267" lon="6.97625">
        <ele>319</ele>
        <time>2011-01-23T08:24:56Z</time>
      </trkpt>
      <trkpt lat="49.18267" lon="6.97626">
        <ele>319</ele>
        <time>2011-01-23T08:24:57Z</time>
      </trkpt>
      <trkpt lat="49.18266" lon="6.97628">
        <ele>319</ele>
        <time>2011-01-23T08:24:58Z</time>
      </trkpt>
      <trkpt lat="49.18266" lon="6.9763">
        <ele>319</ele>
        <time>2011-01-23T08:24:59Z</time>
      </trkpt>
      <trkpt lat="49.18265" lon="6.97632">
        <ele>319</ele>
        <time>2011-01-23T08:25:00Z</time>
      </trkpt>
      <trkpt lat="49.18265" lon="6.97634">
        <ele>319</ele>
        <time>2011-01-23T08:25:01Z</time>
      </trkpt>
      <trkpt lat="49.18265" lon="6.97636">
        <ele>319</ele>
        <time>2011-01-23T08:25:02Z</time>
      </trkpt>
      <trkpt lat="49.18264" lon="6.97639">
        <ele>319</ele>
        <time>2011-01-23T08:25:04Z</time>
      </trkpt>
      <trkpt lat="49.18263" lon="6.97642">
        <ele>319</ele>
        <time>2011-01-23T08:25:06Z</time>
      </trkpt>
      <trkpt lat="49.18262" lon="6.97644">
        <ele>319</ele>
        <time>2011-01-23T08:25:07Z</time>
      </trkpt>
      <trkpt lat="49.18262" lon="6.97646">
        <ele>319</ele>
        <time>2011-01-23T08:25:09Z</time>
      </trkpt>
      <trkpt lat="49.18261" lon="6.97648">
        <ele>319</ele>
        <time>2011-01-23T08:25:10Z</time>
      </trkpt>
      <trkpt lat="49.18261" lon="6.9765">
        <ele>319</ele>
        <time>2011-01-23T08:25:11Z</time>
      </trkpt>
      <trkpt lat="49.1826" lon="6.97652">
        <ele>319</ele>
        <time>2011-01-23T08:25:12Z</time>
      </trkpt>
      <trkpt lat="49.18259" lon="6.97654">
        <ele>319</ele>
        <time>2011-01-23T08:25:13Z</time>
      </trkpt>
      <trkpt lat="49.18259" lon="6.97657">
        <ele>319</ele>
        <time>2011-01-23T08:25:14Z</time>
      </trkpt>
      <trkpt lat="49.18258" lon="6.97659">
        <ele>319</ele>
        <time>2011-01-23T08:25:15Z</time>
      </trkpt>
      <trkpt lat="49.18258" lon="6.97661">
        <ele>319</ele>
        <time>2011-01-23T08:25:16Z</time>
      </trkpt>
      <trkpt lat="49.18256" lon="6.97664">
        <ele>319</ele>
        <time>2011-01-23T08:25:18Z</time>
      </trkpt>
      <trkpt lat="49.18255" lon="6.97667">
        <ele>319</ele>
        <time>2011-01-23T08:25:20Z</time>
      </trkpt>
      <trkpt lat="49.18254" lon="6.97669">
        <ele>319</ele>
        <time>2011-01-23T08:25:21Z</time>
      </trkpt>
      <trkpt lat="49.18254" lon="6.97671">
        <ele>319</ele>
        <time>2011-01-23T08:25:22Z</time>
      </trkpt>
      <trkpt lat="49.18253" lon="6.97675">
        <ele>319</ele>
        <time>2011-01-23T08:25:24Z</time>
      </trkpt>
      <trkpt lat="49.18252" lon="6.97676">
        <ele>319</ele>
        <time>2011-01-23T08:25:25Z</time>
      </trkpt>
      <trkpt lat="49.18252" lon="6.97678">
        <ele>319</ele>
        <time>2011-01-23T08:25:26Z</time>
      </trkpt>
      <trkpt lat="49.18251" lon="6.9768">
        <ele>319</ele>
        <time>2011-01-23T08:25:27Z</time>
      </trkpt>
      <trkpt lat="49.18251" lon="6.97682">
        <ele>319</ele>
        <time>2011-01-23T08:25:28Z</time>
      </trkpt>
      <trkpt lat="49.18249" lon="6.97684">
        <ele>319</ele>
        <time>2011-01-23T08:25:29Z</time>
      </trkpt>
      <trkpt lat="49.18249" lon="6.97686">
        <ele>319</ele>
        <time>2011-01-23T08:25:30Z</time>
      </trkpt>
      <trkpt lat="49.18247" lon="6.97689">
        <ele>319</ele>
        <time>2011-01-23T08:25:32Z</time>
      </trkpt>
      <trkpt lat="49.18246" lon="6.97692">
        <ele>319</ele>
        <time>2011-01-23T08:25:34Z</time>
      </trkpt>
      <trkpt lat="49.18245" lon="6.97694">
        <ele>319</ele>
        <time>2011-01-23T08:25:36Z</time>
      </trkpt>
      <trkpt lat="49.18244" lon="6.97698">
        <ele>319</ele>
        <time>2011-01-23T08:25:38Z</time>
      </trkpt>
      <trkpt lat="49.18243" lon="6.97701">
        <ele>319</ele>
        <time>2011-01-23T08:25:40Z</time>
      </trkpt>
      <trkpt lat="49.18242" lon="6.97703">
        <ele>319</ele>
        <time>2011-01-23T08:25:41Z</time>
      </trkpt>
      <trkpt lat="49.18241" lon="6.97706">
        <ele>318</ele>
        <time>2011-01-23T08:25:43Z</time>
      </trkpt>
      <trkpt lat="49.1824" lon="6.97708">
        <ele>318</ele>
        <time>2011-01-23T08:25:44Z</time>
      </trkpt>
      <trkpt lat="49.18239" lon="6.9771">
        <ele>317</ele>
        <time>2011-01-23T08:25:45Z</time>
      </trkpt>
      <trkpt lat="49.18239" lon="6.97712">
        <ele>317</ele>
        <time>2011-01-23T08:25:46Z</time>
      </trkpt>
      <trkpt lat="49.18238" lon="6.97715">
        <ele>317</ele>
        <time>2011-01-23T08:25:48Z</time>
      </trkpt>
      <trkpt lat="49.18238" lon="6.97717">
        <ele>317</ele>
        <time>2011-01-23T08:25:49Z</time>
      </trkpt>
      <trkpt lat="49.18238" lon="6.97718">
        <ele>317</ele>
        <time>2011-01-23T08:25:50Z</time>
      </trkpt>
      <trkpt lat="49.18238" lon="6.9772">
        <ele>317</ele>
        <time>2011-01-23T08:25:51Z</time>
      </trkpt>
      <trkpt lat="49.18237" lon="6.97724">
        <ele>317</ele>
        <time>2011-01-23T08:25:53Z</time>
      </trkpt>
      <trkpt lat="49.18236" lon="6.97726">
        <ele>317</ele>
        <time>2011-01-23T08:25:54Z</time>
      </trkpt>
      <trkpt lat="49.18236" lon="6.97728">
        <ele>317</ele>
        <time>2011-01-23T08:25:55Z</time>
      </trkpt>
      <trkpt lat="49.18235" lon="6.97731">
        <ele>317</ele>
        <time>2011-01-23T08:25:57Z</time>
      </trkpt>
      <trkpt lat="49.18235" lon="6.97733">
        <ele>317</ele>
        <time>2011-01-23T08:25:59Z</time>
      </trkpt>
      <trkpt lat="49.18233" lon="6.97736">
        <ele>317</ele>
        <time>2011-01-23T08:26:01Z</time>
      </trkpt>
      <trkpt lat="49.18233" lon="6.97738">
        <ele>317</ele>
        <time>2011-01-23T08:26:02Z</time>
      </trkpt>
      <trkpt lat="49.18232" lon="6.9774">
        <ele>317</ele>
        <time>2011-01-23T08:26:03Z</time>
      </trkpt>
      <trkpt lat="49.18232" lon="6.97741">
        <ele>317</ele>
        <time>2011-01-23T08:26:04Z</time>
      </trkpt>
      <trkpt lat="49.18232" lon="6.97745">
        <ele>317</ele>
        <time>2011-01-23T08:26:06Z</time>
      </trkpt>
      <trkpt lat="49.18231" lon="6.97747">
        <ele>317</ele>
        <time>2011-01-23T08:26:07Z</time>
      </trkpt>
      <trkpt lat="49.1823" lon="6.97748">
        <ele>317</ele>
        <time>2011-01-23T08:26:08Z</time>
      </trkpt>
      <trkpt lat="49.18229" lon="6.9775">
        <ele>317</ele>
        <time>2011-01-23T08:26:09Z</time>
      </trkpt>
      <trkpt lat="49.18229" lon="6.97752">
        <ele>317</ele>
        <time>2011-01-23T08:26:10Z</time>
      </trkpt>
      <trkpt lat="49.18228" lon="6.97754">
        <ele>317</ele>
        <time>2011-01-23T08:26:11Z</time>
      </trkpt>
      <trkpt lat="49.18227" lon="6.97756">
        <ele>317</ele>
        <time>2011-01-23T08:26:12Z</time>
      </trkpt>
      <trkpt lat="49.18226" lon="6.97758">
        <ele>317</ele>
        <time>2011-01-23T08:26:13Z</time>
      </trkpt>
      <trkpt lat="49.18225" lon="6.97761">
        <ele>317</ele>
        <time>2011-01-23T08:26:15Z</time>
      </trkpt>
      <trkpt lat="49.18224" lon="6.97763">
        <ele>317</ele>
        <time>2011-01-23T08:26:16Z</time>
      </trkpt>
      <trkpt lat="49.18224" lon="6.97765">
        <ele>317</ele>
        <time>2011-01-23T08:26:17Z</time>
      </trkpt>
      <trkpt lat="49.18222" lon="6.97768">
        <ele>317</ele>
        <time>2011-01-23T08:26:19Z</time>
      </trkpt>
      <trkpt lat="49.18221" lon="6.97771">
        <ele>317</ele>
        <time>2011-01-23T08:26:21Z</time>
      </trkpt>
      <trkpt lat="49.1822" lon="6.97774">
        <ele>317</ele>
        <time>2011-01-23T08:26:23Z</time>
      </trkpt>
      <trkpt lat="49.18219" lon="6.97776">
        <ele>317</ele>
        <time>2011-01-23T08:26:24Z</time>
      </trkpt>
      <trkpt lat="49.18219" lon="6.97778">
        <ele>317</ele>
        <time>2011-01-23T08:26:25Z</time>
      </trkpt>
      <trkpt lat="49.18218" lon="6.9778">
        <ele>317</ele>
        <time>2011-01-23T08:26:26Z</time>
      </trkpt>
      <trkpt lat="49.18217" lon="6.97781">
        <ele>317</ele>
        <time>2011-01-23T08:26:27Z</time>
      </trkpt>
      <trkpt lat="49.18217" lon="6.97783">
        <ele>317</ele>
        <time>2011-01-23T08:26:28Z</time>
      </trkpt>
      <trkpt lat="49.18217" lon="6.97785">
        <ele>317</ele>
        <time>2011-01-23T08:26:29Z</time>
      </trkpt>
      <trkpt lat="49.18216" lon="6.97787">
        <ele>317</ele>
        <time>2011-01-23T08:26:30Z</time>
      </trkpt>
      <trkpt lat="49.18216" lon="6.97788">
        <ele>317</ele>
        <time>2011-01-23T08:26:31Z</time>
      </trkpt>
      <trkpt lat="49.18215" lon="6.9779">
        <ele>317</ele>
        <time>2011-01-23T08:26:32Z</time>
      </trkpt>
      <trkpt lat="49.18214" lon="6.97792">
        <ele>317</ele>
        <time>2011-01-23T08:26:33Z</time>
      </trkpt>
      <trkpt lat="49.18214" lon="6.97794">
        <ele>317</ele>
        <time>2011-01-23T08:26:34Z</time>
      </trkpt>
      <trkpt lat="49.18213" lon="6.97796">
        <ele>317</ele>
        <time>2011-01-23T08:26:35Z</time>
      </trkpt>
      <trkpt lat="49.18212" lon="6.97798">
        <ele>317</ele>
        <time>2011-01-23T08:26:36Z</time>
      </trkpt>
      <trkpt lat="49.18211" lon="6.97799">
        <ele>317</ele>
        <time>2011-01-23T08:26:37Z</time>
      </trkpt>
      <trkpt lat="49.18211" lon="6.97801">
        <ele>317</ele>
        <time>2011-01-23T08:26:38Z</time>
      </trkpt>
      <trkpt lat="49.1821" lon="6.97804">
        <ele>317</ele>
        <time>2011-01-23T08:26:40Z</time>
      </trkpt>
      <trkpt lat="49.18209" lon="6.97806">
        <ele>317</ele>
        <time>2011-01-23T08:26:41Z</time>
      </trkpt>
      <trkpt lat="49.18209" lon="6.97808">
        <ele>317</ele>
        <time>2011-01-23T08:26:42Z</time>
      </trkpt>
      <trkpt lat="49.18209" lon="6.9781">
        <ele>317</ele>
        <time>2011-01-23T08:26:43Z</time>
      </trkpt>
      <trkpt lat="49.18208" lon="6.97812">
        <ele>317</ele>
        <time>2011-01-23T08:26:44Z</time>
      </trkpt>
      <trkpt lat="49.18207" lon="6.97814">
        <ele>317</ele>
        <time>2011-01-23T08:26:45Z</time>
      </trkpt>
      <trkpt lat="49.18206" lon="6.97817">
        <ele>317</ele>
        <time>2011-01-23T08:26:46Z</time>
      </trkpt>
      <trkpt lat="49.18206" lon="6.9782">
        <ele>317</ele>
        <time>2011-01-23T08:26:47Z</time>
      </trkpt>
      <trkpt lat="49.18205" lon="6.97822">
        <ele>317</ele>
        <time>2011-01-23T08:26:48Z</time>
      </trkpt>
      <trkpt lat="49.18205" lon="6.97825">
        <ele>317</ele>
        <time>2011-01-23T08:26:49Z</time>
      </trkpt>
      <trkpt lat="49.18204" lon="6.97827">
        <ele>317</ele>
        <time>2011-01-23T08:26:50Z</time>
      </trkpt>
      <trkpt lat="49.18203" lon="6.97829">
        <ele>317</ele>
        <time>2011-01-23T08:26:51Z</time>
      </trkpt>
      <trkpt lat="49.18203" lon="6.97831">
        <ele>317</ele>
        <time>2011-01-23T08:26:52Z</time>
      </trkpt>
      <trkpt lat="49.18202" lon="6.97833">
        <ele>317</ele>
        <time>2011-01-23T08:26:53Z</time>
      </trkpt>
      <trkpt lat="49.18201" lon="6.97834">
        <ele>317</ele>
        <time>2011-01-23T08:26:54Z</time>
      </trkpt>
      <trkpt lat="49.18201" lon="6.97836">
        <ele>317</ele>
        <time>2011-01-23T08:26:55Z</time>
      </trkpt>
      <trkpt lat="49.182" lon="6.97838">
        <ele>317</ele>
        <time>2011-01-23T08:26:56Z</time>
      </trkpt>
      <trkpt lat="49.182" lon="6.9784">
        <ele>317</ele>
        <time>2011-01-23T08:26:57Z</time>
      </trkpt>
      <trkpt lat="49.18198" lon="6.97843">
        <ele>317</ele>
        <time>2011-01-23T08:26:59Z</time>
      </trkpt>
      <trkpt lat="49.18198" lon="6.97846">
        <ele>317</ele>
        <time>2011-01-23T08:27:01Z</time>
      </trkpt>
      <trkpt lat="49.18196" lon="6.97848">
        <ele>317</ele>
        <time>2011-01-23T08:27:03Z</time>
      </trkpt>
      <trkpt lat="49.18195" lon="6.97851">
        <ele>317</ele>
        <time>2011-01-23T08:27:05Z</time>
      </trkpt>
      <trkpt lat="49.18195" lon="6.97853">
        <ele>317</ele>
        <time>2011-01-23T08:27:06Z</time>
      </trkpt>
      <trkpt lat="49.18194" lon="6.97855">
        <ele>317</ele>
        <time>2011-01-23T08:27:07Z</time>
      </trkpt>
      <trkpt lat="49.18193" lon="6.97857">
        <ele>317</ele>
        <time>2011-01-23T08:27:08Z</time>
      </trkpt>
      <trkpt lat="49.18193" lon="6.97858">
        <ele>317</ele>
        <time>2011-01-23T08:27:09Z</time>
      </trkpt>
      <trkpt lat="49.18192" lon="6.9786">
        <ele>317</ele>
        <time>2011-01-23T08:27:10Z</time>
      </trkpt>
      <trkpt lat="49.18191" lon="6.97863">
        <ele>317</ele>
        <time>2011-01-23T08:27:11Z</time>
      </trkpt>
      <trkpt lat="49.18191" lon="6.97865">
        <ele>317</ele>
        <time>2011-01-23T08:27:12Z</time>
      </trkpt>
      <trkpt lat="49.1819" lon="6.97867">
        <ele>317</ele>
        <time>2011-01-23T08:27:13Z</time>
      </trkpt>
      <trkpt lat="49.1819" lon="6.97869">
        <ele>317</ele>
        <time>2011-01-23T08:27:14Z</time>
      </trkpt>
      <trkpt lat="49.18189" lon="6.97871">
        <ele>317</ele>
        <time>2011-01-23T08:27:15Z</time>
      </trkpt>
      <trkpt lat="49.18188" lon="6.97874">
        <ele>317</ele>
        <time>2011-01-23T08:27:17Z</time>
      </trkpt>
      <trkpt lat="49.18187" lon="6.97877">
        <ele>317</ele>
        <time>2011-01-23T08:27:19Z</time>
      </trkpt>
      <trkpt lat="49.18186" lon="6.97879">
        <ele>317</ele>
        <time>2011-01-23T08:27:20Z</time>
      </trkpt>
      <trkpt lat="49.18185" lon="6.97881">
        <ele>317</ele>
        <time>2011-01-23T08:27:21Z</time>
      </trkpt>
      <trkpt lat="49.18185" lon="6.97884">
        <ele>317</ele>
        <time>2011-01-23T08:27:22Z</time>
      </trkpt>
      <trkpt lat="49.18184" lon="6.97886">
        <ele>317</ele>
        <time>2011-01-23T08:27:23Z</time>
      </trkpt>
      <trkpt lat="49.18183" lon="6.97888">
        <ele>317</ele>
        <time>2011-01-23T08:27:24Z</time>
      </trkpt>
      <trkpt lat="49.18182" lon="6.97891">
        <ele>317</ele>
        <time>2011-01-23T08:27:25Z</time>
      </trkpt>
      <trkpt lat="49.18181" lon="6.97893">
        <ele>317</ele>
        <time>2011-01-23T08:27:26Z</time>
      </trkpt>
      <trkpt lat="49.1818" lon="6.97894">
        <ele>317</ele>
        <time>2011-01-23T08:27:27Z</time>
      </trkpt>
      <trkpt lat="49.18179" lon="6.97896">
        <ele>317</ele>
        <time>2011-01-23T08:27:28Z</time>
      </trkpt>
      <trkpt lat="49.18178" lon="6.97898">
        <ele>317</ele>
        <time>2011-01-23T08:27:29Z</time>
      </trkpt>
      <trkpt lat="49.18177" lon="6.97901">
        <ele>317</ele>
        <time>2011-01-23T08:27:31Z</time>
      </trkpt>
      <trkpt lat="49.18176" lon="6.97904">
        <ele>317</ele>
        <time>2011-01-23T08:27:33Z</time>
      </trkpt>
      <trkpt lat="49.18174" lon="6.97907">
        <ele>317</ele>
        <time>2011-01-23T08:27:35Z</time>
      </trkpt>
      <trkpt lat="49.18173" lon="6.97908">
        <ele>317</ele>
        <time>2011-01-23T08:27:36Z</time>
      </trkpt>
      <trkpt lat="49.18173" lon="6.9791">
        <ele>317</ele>
        <time>2011-01-23T08:27:37Z</time>
      </trkpt>
      <trkpt lat="49.18172" lon="6.97912">
        <ele>317</ele>
        <time>2011-01-23T08:27:38Z</time>
      </trkpt>
      <trkpt lat="49.18171" lon="6.97914">
        <ele>317</ele>
        <time>2011-01-23T08:27:39Z</time>
      </trkpt>
      <trkpt lat="49.18171" lon="6.97915">
        <ele>317</ele>
        <time>2011-01-23T08:27:40Z</time>
      </trkpt>
      <trkpt lat="49.1817" lon="6.97918">
        <ele>317</ele>
        <time>2011-01-23T08:27:42Z</time>
      </trkpt>
      <trkpt lat="49.18169" lon="6.9792">
        <ele>317</ele>
        <time>2011-01-23T08:27:44Z</time>
      </trkpt>
      <trkpt lat="49.18168" lon="6.97923">
        <ele>317</ele>
        <time>2011-01-23T08:27:46Z</time>
      </trkpt>
      <trkpt lat="49.18167" lon="6.97925">
        <ele>317</ele>
        <time>2011-01-23T08:27:47Z</time>
      </trkpt>
      <trkpt lat="49.18167" lon="6.97926">
        <ele>317</ele>
        <time>2011-01-23T08:27:48Z</time>
      </trkpt>
      <trkpt lat="49.18166" lon="6.97929">
        <ele>317</ele>
        <time>2011-01-23T08:27:50Z</time>
      </trkpt>
      <trkpt lat="49.18165" lon="6.97932">
        <ele>317</ele>
        <time>2011-01-23T08:27:52Z</time>
      </trkpt>
      <trkpt lat="49.18164" lon="6.97934">
        <ele>317</ele>
        <time>2011-01-23T08:27:54Z</time>
      </trkpt>
      <trkpt lat="49.18163" lon="6.97936">
        <ele>317</ele>
        <time>2011-01-23T08:27:55Z</time>
      </trkpt>
      <trkpt lat="49.18162" lon="6.97939">
        <ele>317</ele>
        <time>2011-01-23T08:27:56Z</time>
      </trkpt>
      <trkpt lat="49.1816" lon="6.97942">
        <ele>317</ele>
        <time>2011-01-23T08:27:58Z</time>
      </trkpt>
      <trkpt lat="49.18159" lon="6.97944">
        <ele>317</ele>
        <time>2011-01-23T08:27:59Z</time>
      </trkpt>
      <trkpt lat="49.18159" lon="6.97946">
        <ele>317</ele>
        <time>2011-01-23T08:28:00Z</time>
      </trkpt>
      <trkpt lat="49.18158" lon="6.97948">
        <ele>317</ele>
        <time>2011-01-23T08:28:01Z</time>
      </trkpt>
      <trkpt lat="49.18156" lon="6.97951">
        <ele>317</ele>
        <time>2011-01-23T08:28:03Z</time>
      </trkpt>
      <trkpt lat="49.18155" lon="6.97953">
        <ele>317</ele>
        <time>2011-01-23T08:28:05Z</time>
      </trkpt>
      <trkpt lat="49.18153" lon="6.97955">
        <ele>317</ele>
        <time>2011-01-23T08:28:07Z</time>
      </trkpt>
      <trkpt lat="49.18153" lon="6.97957">
        <ele>317</ele>
        <time>2011-01-23T08:28:09Z</time>
      </trkpt>
      <trkpt lat="49.18151" lon="6.97961">
        <ele>317</ele>
        <time>2011-01-23T08:28:11Z</time>
      </trkpt>
      <trkpt lat="49.18151" lon="6.97963">
        <ele>317</ele>
        <time>2011-01-23T08:28:13Z</time>
      </trkpt>
      <trkpt lat="49.1815" lon="6.97966">
        <ele>317</ele>
        <time>2011-01-23T08:28:15Z</time>
      </trkpt>
      <trkpt lat="49.18149" lon="6.97968">
        <ele>317</ele>
        <time>2011-01-23T08:28:16Z</time>
      </trkpt>
      <trkpt lat="49.18149" lon="6.97971">
        <ele>317</ele>
        <time>2011-01-23T08:28:17Z</time>
      </trkpt>
      <trkpt lat="49.18148" lon="6.97973">
        <ele>317</ele>
        <time>2011-01-23T08:28:18Z</time>
      </trkpt>
      <trkpt lat="49.18148" lon="6.97975">
        <ele>317</ele>
        <time>2011-01-23T08:28:19Z</time>
      </trkpt>
      <trkpt lat="49.18148" lon="6.97977">
        <ele>317</ele>
        <time>2011-01-23T08:28:20Z</time>
      </trkpt>
      <trkpt lat="49.18148" lon="6.97979">
        <ele>317</ele>
        <time>2011-01-23T08:28:21Z</time>
      </trkpt>
      <trkpt lat="49.18148" lon="6.97981">
        <ele>317</ele>
        <time>2011-01-23T08:28:22Z</time>
      </trkpt>
      <trkpt lat="49.18148" lon="6.97983">
        <ele>316</ele>
        <time>2011-01-23T08:28:23Z</time>
      </trkpt>
      <trkpt lat="49.18148" lon="6.97986">
        <ele>316</ele>
        <time>2011-01-23T08:28:25Z</time>
      </trkpt>
      <trkpt lat="49.18148" lon="6.97988">
        <ele>316</ele>
        <time>2011-01-23T08:28:26Z</time>
      </trkpt>
      <trkpt lat="49.18148" lon="6.9799">
        <ele>315</ele>
        <time>2011-01-23T08:28:27Z</time>
      </trkpt>
      <trkpt lat="49.18147" lon="6.97991">
        <ele>315</ele>
        <time>2011-01-23T08:28:28Z</time>
      </trkpt>
      <trkpt lat="49.18147" lon="6.97993">
        <ele>315</ele>
        <time>2011-01-23T08:28:29Z</time>
      </trkpt>
      <trkpt lat="49.18145" lon="6.97996">
        <ele>314</ele>
        <time>2011-01-23T08:28:31Z</time>
      </trkpt>
      <trkpt lat="49.18145" lon="6.97998">
        <ele>314</ele>
        <time>2011-01-23T08:28:32Z</time>
      </trkpt>
      <trkpt lat="49.18145" lon="6.98">
        <ele>314</ele>
        <time>2011-01-23T08:28:33Z</time>
      </trkpt>
      <trkpt lat="49.18145" lon="6.98002">
        <ele>314</ele>
        <time>2011-01-23T08:28:34Z</time>
      </trkpt>
      <trkpt lat="49.18145" lon="6.98003">
        <ele>314</ele>
        <time>2011-01-23T08:28:35Z</time>
      </trkpt>
      <trkpt lat="49.18144" lon="6.98007">
        <ele>314</ele>
        <time>2011-01-23T08:28:37Z</time>
      </trkpt>
      <trkpt lat="49.18144" lon="6.98009">
        <ele>314</ele>
        <time>2011-01-23T08:28:38Z</time>
      </trkpt>
      <trkpt lat="49.18144" lon="6.98011">
        <ele>314</ele>
        <time>2011-01-23T08:28:39Z</time>
      </trkpt>
      <trkpt lat="49.18144" lon="6.98013">
        <ele>314</ele>
        <time>2011-01-23T08:28:40Z</time>
      </trkpt>
      <trkpt lat="49.18144" lon="6.98015">
        <ele>314</ele>
        <time>2011-01-23T08:28:41Z</time>
      </trkpt>
      <trkpt lat="49.18143" lon="6.98019">
        <ele>314</ele>
        <time>2011-01-23T08:28:42Z</time>
      </trkpt>
      <trkpt lat="49.18142" lon="6.98021">
        <ele>314</ele>
        <time>2011-01-23T08:28:43Z</time>
      </trkpt>
      <trkpt lat="49.18142" lon="6.98023">
        <ele>314</ele>
        <time>2011-01-23T08:28:44Z</time>
      </trkpt>
      <trkpt lat="49.18141" lon="6.98025">
        <ele>314</ele>
        <time>2011-01-23T08:28:45Z</time>
      </trkpt>
      <trkpt lat="49.1814" lon="6.98028">
        <ele>314</ele>
        <time>2011-01-23T08:28:47Z</time>
      </trkpt>
      <trkpt lat="49.18139" lon="6.98031">
        <ele>314</ele>
        <time>2011-01-23T08:28:50Z</time>
      </trkpt>
      <trkpt lat="49.18139" lon="6.98033">
        <ele>314</ele>
        <time>2011-01-23T08:28:51Z</time>
      </trkpt>
      <trkpt lat="49.18139" lon="6.98034">
        <ele>314</ele>
        <time>2011-01-23T08:28:52Z</time>
      </trkpt>
      <trkpt lat="49.18139" lon="6.98036">
        <ele>314</ele>
        <time>2011-01-23T08:28:53Z</time>
      </trkpt>
      <trkpt lat="49.18139" lon="6.98038">
        <ele>314</ele>
        <time>2011-01-23T08:28:54Z</time>
      </trkpt>
      <trkpt lat="49.18139" lon="6.98039">
        <ele>314</ele>
        <time>2011-01-23T08:28:55Z</time>
      </trkpt>
      <trkpt lat="49.18138" lon="6.98041">
        <ele>314</ele>
        <time>2011-01-23T08:28:56Z</time>
      </trkpt>
      <trkpt lat="49.18137" lon="6.98043">
        <ele>314</ele>
        <time>2011-01-23T08:28:59Z</time>
      </trkpt>
      <trkpt lat="49.18137" lon="6.98046">
        <ele>314</ele>
        <time>2011-01-23T08:29:01Z</time>
      </trkpt>
      <trkpt lat="49.18136" lon="6.98048">
        <ele>314</ele>
        <time>2011-01-23T08:29:03Z</time>
      </trkpt>
      <trkpt lat="49.18135" lon="6.98051">
        <ele>314</ele>
        <time>2011-01-23T08:29:04Z</time>
      </trkpt>
      <trkpt lat="49.18134" lon="6.98053">
        <ele>314</ele>
        <time>2011-01-23T08:29:05Z</time>
      </trkpt>
      <trkpt lat="49.18134" lon="6.98056">
        <ele>314</ele>
        <time>2011-01-23T08:29:06Z</time>
      </trkpt>
      <trkpt lat="49.18132" lon="6.98058">
        <ele>314</ele>
        <time>2011-01-23T08:29:07Z</time>
      </trkpt>
      <trkpt lat="49.18132" lon="6.98061">
        <ele>314</ele>
        <time>2011-01-23T08:29:08Z</time>
      </trkpt>
      <trkpt lat="49.18131" lon="6.98063">
        <ele>314</ele>
        <time>2011-01-23T08:29:09Z</time>
      </trkpt>
      <trkpt lat="49.1813" lon="6.98065">
        <ele>314</ele>
        <time>2011-01-23T08:29:10Z</time>
      </trkpt>
      <trkpt lat="49.18129" lon="6.98068">
        <ele>314</ele>
        <time>2011-01-23T08:29:11Z</time>
      </trkpt>
      <trkpt lat="49.18129" lon="6.98069">
        <ele>314</ele>
        <time>2011-01-23T08:29:12Z</time>
      </trkpt>
      <trkpt lat="49.18129" lon="6.98072">
        <ele>314</ele>
        <time>2011-01-23T08:29:14Z</time>
      </trkpt>
      <trkpt lat="49.18127" lon="6.98074">
        <ele>314</ele>
        <time>2011-01-23T08:29:16Z</time>
      </trkpt>
      <trkpt lat="49.18127" lon="6.98077">
        <ele>314</ele>
        <time>2011-01-23T08:29:18Z</time>
      </trkpt>
      <trkpt lat="49.18126" lon="6.98081">
        <ele>314</ele>
        <time>2011-01-23T08:29:20Z</time>
      </trkpt>
      <trkpt lat="49.18125" lon="6.98083">
        <ele>314</ele>
        <time>2011-01-23T08:29:21Z</time>
      </trkpt>
      <trkpt lat="49.18124" lon="6.98085">
        <ele>314</ele>
        <time>2011-01-23T08:29:23Z</time>
      </trkpt>
      <trkpt lat="49.18124" lon="6.98089">
        <ele>314</ele>
        <time>2011-01-23T08:29:25Z</time>
      </trkpt>
      <trkpt lat="49.18124" lon="6.9809">
        <ele>314</ele>
        <time>2011-01-23T08:29:26Z</time>
      </trkpt>
      <trkpt lat="49.18123" lon="6.98094">
        <ele>314</ele>
        <time>2011-01-23T08:29:28Z</time>
      </trkpt>
      <trkpt lat="49.18122" lon="6.98096">
        <ele>314</ele>
        <time>2011-01-23T08:29:29Z</time>
      </trkpt>
      <trkpt lat="49.18121" lon="6.98099">
        <ele>314</ele>
        <time>2011-01-23T08:29:31Z</time>
      </trkpt>
      <trkpt lat="49.1812" lon="6.98101">
        <ele>314</ele>
        <time>2011-01-23T08:29:33Z</time>
      </trkpt>
      <trkpt lat="49.1812" lon="6.98104">
        <ele>314</ele>
        <time>2011-01-23T08:29:35Z</time>
      </trkpt>
      <trkpt lat="49.1812" lon="6.98105">
        <ele>314</ele>
        <time>2011-01-23T08:29:36Z</time>
      </trkpt>
      <trkpt lat="49.18119" lon="6.98107">
        <ele>314</ele>
        <time>2011-01-23T08:29:37Z</time>
      </trkpt>
      <trkpt lat="49.18119" lon="6.98108">
        <ele>314</ele>
        <time>2011-01-23T08:29:38Z</time>
      </trkpt>
      <trkpt lat="49.18119" lon="6.9811">
        <ele>314</ele>
        <time>2011-01-23T08:29:39Z</time>
      </trkpt>
      <trkpt lat="49.18118" lon="6.98112">
        <ele>314</ele>
        <time>2011-01-23T08:29:40Z</time>
      </trkpt>
      <trkpt lat="49.18118" lon="6.98114">
        <ele>314</ele>
        <time>2011-01-23T08:29:41Z</time>
      </trkpt>
      <trkpt lat="49.18118" lon="6.98116">
        <ele>314</ele>
        <time>2011-01-23T08:29:42Z</time>
      </trkpt>
      <trkpt lat="49.18116" lon="6.98119">
        <ele>314</ele>
        <time>2011-01-23T08:29:44Z</time>
      </trkpt>
      <trkpt lat="49.18115" lon="6.98122">
        <ele>314</ele>
        <time>2011-01-23T08:29:46Z</time>
      </trkpt>
      <trkpt lat="49.18114" lon="6.98124">
        <ele>314</ele>
        <time>2011-01-23T08:29:48Z</time>
      </trkpt>
      <trkpt lat="49.18114" lon="6.98126">
        <ele>314</ele>
        <time>2011-01-23T08:29:49Z</time>
      </trkpt>
      <trkpt lat="49.18114" lon="6.98128">
        <ele>314</ele>
        <time>2011-01-23T08:29:50Z</time>
      </trkpt>
      <trkpt lat="49.18114" lon="6.9813">
        <ele>314</ele>
        <time>2011-01-23T08:29:51Z</time>
      </trkpt>
      <trkpt lat="49.18113" lon="6.98133">
        <ele>314</ele>
        <time>2011-01-23T08:29:53Z</time>
      </trkpt>
      <trkpt lat="49.18113" lon="6.98135">
        <ele>314</ele>
        <time>2011-01-23T08:29:54Z</time>
      </trkpt>
      <trkpt lat="49.18112" lon="6.98136">
        <ele>314</ele>
        <time>2011-01-23T08:29:55Z</time>
      </trkpt>
      <trkpt lat="49.18111" lon="6.98139">
        <ele>314</ele>
        <time>2011-01-23T08:29:57Z</time>
      </trkpt>
      <trkpt lat="49.18111" lon="6.98142">
        <ele>314</ele>
        <time>2011-01-23T08:29:58Z</time>
      </trkpt>
      <trkpt lat="49.1811" lon="6.98144">
        <ele>314</ele>
        <time>2011-01-23T08:29:59Z</time>
      </trkpt>
      <trkpt lat="49.18109" lon="6.98147">
        <ele>314</ele>
        <time>2011-01-23T08:30:00Z</time>
      </trkpt>
      <trkpt lat="49.18108" lon="6.98149">
        <ele>314</ele>
        <time>2011-01-23T08:30:01Z</time>
      </trkpt>
      <trkpt lat="49.18107" lon="6.98151">
        <ele>314</ele>
        <time>2011-01-23T08:30:02Z</time>
      </trkpt>
      <trkpt lat="49.18107" lon="6.98154">
        <ele>314</ele>
        <time>2011-01-23T08:30:03Z</time>
      </trkpt>
      <trkpt lat="49.18106" lon="6.98156">
        <ele>314</ele>
        <time>2011-01-23T08:30:05Z</time>
      </trkpt>
      <trkpt lat="49.18105" lon="6.98159">
        <ele>314</ele>
        <time>2011-01-23T08:30:07Z</time>
      </trkpt>
      <trkpt lat="49.18105" lon="6.98162">
        <ele>314</ele>
        <time>2011-01-23T08:30:09Z</time>
      </trkpt>
      <trkpt lat="49.18104" lon="6.98164">
        <ele>314</ele>
        <time>2011-01-23T08:30:10Z</time>
      </trkpt>
      <trkpt lat="49.18104" lon="6.98166">
        <ele>314</ele>
        <time>2011-01-23T08:30:11Z</time>
      </trkpt>
      <trkpt lat="49.18103" lon="6.98167">
        <ele>314</ele>
        <time>2011-01-23T08:30:12Z</time>
      </trkpt>
      <trkpt lat="49.18103" lon="6.98169">
        <ele>314</ele>
        <time>2011-01-23T08:30:13Z</time>
      </trkpt>
      <trkpt lat="49.18103" lon="6.98172">
        <ele>314</ele>
        <time>2011-01-23T08:30:15Z</time>
      </trkpt>
      <trkpt lat="49.18103" lon="6.98174">
        <ele>314</ele>
        <time>2011-01-23T08:30:16Z</time>
      </trkpt>
      <trkpt lat="49.18102" lon="6.98176">
        <ele>314</ele>
        <time>2011-01-23T08:30:17Z</time>
      </trkpt>
      <trkpt lat="49.18102" lon="6.98179">
        <ele>314</ele>
        <time>2011-01-23T08:30:18Z</time>
      </trkpt>
      <trkpt lat="49.18102" lon="6.98182">
        <ele>314</ele>
        <time>2011-01-23T08:30:19Z</time>
      </trkpt>
      <trkpt lat="49.181" lon="6.98185">
        <ele>314</ele>
        <time>2011-01-23T08:30:21Z</time>
      </trkpt>
      <trkpt lat="49.181" lon="6.98186">
        <ele>314</ele>
        <time>2011-01-23T08:30:22Z</time>
      </trkpt>
      <trkpt lat="49.181" lon="6.98188">
        <ele>314</ele>
        <time>2011-01-23T08:30:23Z</time>
      </trkpt>
      <trkpt lat="49.181" lon="6.9819">
        <ele>314</ele>
        <time>2011-01-23T08:30:25Z</time>
      </trkpt>
      <trkpt lat="49.181" lon="6.98193">
        <ele>314</ele>
        <time>2011-01-23T08:30:26Z</time>
      </trkpt>
      <trkpt lat="49.18099" lon="6.98195">
        <ele>314</ele>
        <time>2011-01-23T08:30:27Z</time>
      </trkpt>
      <trkpt lat="49.18099" lon="6.98197">
        <ele>314</ele>
        <time>2011-01-23T08:30:28Z</time>
      </trkpt>
      <trkpt lat="49.18099" lon="6.98198">
        <ele>314</ele>
        <time>2011-01-23T08:30:29Z</time>
      </trkpt>
      <trkpt lat="49.18098" lon="6.98201">
        <ele>314</ele>
        <time>2011-01-23T08:30:30Z</time>
      </trkpt>
      <trkpt lat="49.18098" lon="6.98204">
        <ele>314</ele>
        <time>2011-01-23T08:30:32Z</time>
      </trkpt>
      <trkpt lat="49.18097" lon="6.98205">
        <ele>314</ele>
        <time>2011-01-23T08:30:34Z</time>
      </trkpt>
      <trkpt lat="49.18097" lon="6.98207">
        <ele>314</ele>
        <time>2011-01-23T08:30:35Z</time>
      </trkpt>
      <trkpt lat="49.18097" lon="6.98209">
        <ele>314</ele>
        <time>2011-01-23T08:30:37Z</time>
      </trkpt>
      <trkpt lat="49.18097" lon="6.98211">
        <ele>314</ele>
        <time>2011-01-23T08:30:40Z</time>
      </trkpt>
      <trkpt lat="49.18097" lon="6.98213">
        <ele>314</ele>
        <time>2011-01-23T08:30:43Z</time>
      </trkpt>
      <trkpt lat="49.18097" lon="6.98216">
        <ele>314</ele>
        <time>2011-01-23T08:30:45Z</time>
      </trkpt>
      <trkpt lat="49.18097" lon="6.98218">
        <ele>314</ele>
        <time>2011-01-23T08:30:48Z</time>
      </trkpt>
      <trkpt lat="49.18097" lon="6.9822">
        <ele>314</ele>
        <time>2011-01-23T08:30:51Z</time>
      </trkpt>
      <trkpt lat="49.18097" lon="6.98222">
        <ele>314</ele>
        <time>2011-01-23T08:30:54Z</time>
      </trkpt>
      <trkpt lat="49.18096" lon="6.98224">
        <ele>314</ele>
        <time>2011-01-23T08:30:56Z</time>
      </trkpt>
      <trkpt lat="49.18096" lon="6.98226">
        <ele>314</ele>
        <time>2011-01-23T08:30:58Z</time>
      </trkpt>
      <trkpt lat="49.18095" lon="6.98229">
        <ele>314</ele>
        <time>2011-01-23T08:31:00Z</time>
      </trkpt>
      <trkpt lat="49.18095" lon="6.98232">
        <ele>314</ele>
        <time>2011-01-23T08:31:02Z</time>
      </trkpt>
      <trkpt lat="49.18096" lon="6.98235">
        <ele>314</ele>
        <time>2011-01-23T08:31:04Z</time>
      </trkpt>
      <trkpt lat="49.18095" lon="6.98238">
        <ele>314</ele>
        <time>2011-01-23T08:31:06Z</time>
      </trkpt>
      <trkpt lat="49.18096" lon="6.98241">
        <ele>314</ele>
        <time>2011-01-23T08:31:08Z</time>
      </trkpt>
      <trkpt lat="49.18096" lon="6.98243">
        <ele>314</ele>
        <time>2011-01-23T08:31:09Z</time>
      </trkpt>
      <trkpt lat="49.18096" lon="6.98245">
        <ele>314</ele>
        <time>2011-01-23T08:31:11Z</time>
      </trkpt>
      <trkpt lat="49.18095" lon="6.98248">
        <ele>314</ele>
        <time>2011-01-23T08:31:13Z</time>
      </trkpt>
      <trkpt lat="49.18095" lon="6.98251">
        <ele>314</ele>
        <time>2011-01-23T08:31:15Z</time>
      </trkpt>
      <trkpt lat="49.18094" lon="6.98253">
        <ele>314</ele>
        <time>2011-01-23T08:31:17Z</time>
      </trkpt>
      <trkpt lat="49.18094" lon="6.98255">
        <ele>314</ele>
        <time>2011-01-23T08:31:18Z</time>
      </trkpt>
      <trkpt lat="49.18095" lon="6.98257">
        <ele>314</ele>
        <time>2011-01-23T08:31:19Z</time>
      </trkpt>
      <trkpt lat="49.18094" lon="6.98259">
        <ele>314</ele>
        <time>2011-01-23T08:31:20Z</time>
      </trkpt>
      <trkpt lat="49.18094" lon="6.98262">
        <ele>314</ele>
        <time>2011-01-23T08:31:22Z</time>
      </trkpt>
      <trkpt lat="49.18094" lon="6.98265">
        <ele>314</ele>
        <time>2011-01-23T08:31:24Z</time>
      </trkpt>
      <trkpt lat="49.18094" lon="6.98267">
        <ele>314</ele>
        <time>2011-01-23T08:31:25Z</time>
      </trkpt>
      <trkpt lat="49.18093" lon="6.98269">
        <ele>314</ele>
        <time>2011-01-23T08:31:26Z</time>
      </trkpt>
      <trkpt lat="49.18093" lon="6.98271">
        <ele>314</ele>
        <time>2011-01-23T08:31:27Z</time>
      </trkpt>
      <trkpt lat="49.18093" lon="6.98274">
        <ele>314</ele>
        <time>2011-01-23T08:31:29Z</time>
      </trkpt>
      <trkpt lat="49.18093" lon="6.98277">
        <ele>314</ele>
        <time>2011-01-23T08:31:30Z</time>
      </trkpt>
      <trkpt lat="49.18092" lon="6.98279">
        <ele>313</ele>
        <time>2011-01-23T08:31:31Z</time>
      </trkpt>
      <trkpt lat="49.18093" lon="6.98282">
        <ele>313</ele>
        <time>2011-01-23T08:31:33Z</time>
      </trkpt>
      <trkpt lat="49.18093" lon="6.98285">
        <ele>313</ele>
        <time>2011-01-23T08:31:35Z</time>
      </trkpt>
      <trkpt lat="49.18093" lon="6.98287">
        <ele>313</ele>
        <time>2011-01-23T08:31:36Z</time>
      </trkpt>
      <trkpt lat="49.18093" lon="6.98289">
        <ele>313</ele>
        <time>2011-01-23T08:31:38Z</time>
      </trkpt>
      <trkpt lat="49.18093" lon="6.98292">
        <ele>313</ele>
        <time>2011-01-23T08:31:40Z</time>
      </trkpt>
      <trkpt lat="49.18093" lon="6.98295">
        <ele>313</ele>
        <time>2011-01-23T08:31:42Z</time>
      </trkpt>
      <trkpt lat="49.18093" lon="6.98297">
        <ele>313</ele>
        <time>2011-01-23T08:31:43Z</time>
      </trkpt>
      <trkpt lat="49.18093" lon="6.983">
        <ele>313</ele>
        <time>2011-01-23T08:31:45Z</time>
      </trkpt>
      <trkpt lat="49.18092" lon="6.98303">
        <ele>313</ele>
        <time>2011-01-23T08:31:47Z</time>
      </trkpt>
      <trkpt lat="49.18092" lon="6.98305">
        <ele>313</ele>
        <time>2011-01-23T08:31:48Z</time>
      </trkpt>
      <trkpt lat="49.18092" lon="6.98307">
        <ele>313</ele>
        <time>2011-01-23T08:31:49Z</time>
      </trkpt>
      <trkpt lat="49.18092" lon="6.98309">
        <ele>313</ele>
        <time>2011-01-23T08:31:50Z</time>
      </trkpt>
      <trkpt lat="49.1809" lon="6.98312">
        <ele>313</ele>
        <time>2011-01-23T08:31:52Z</time>
      </trkpt>
      <trkpt lat="49.18091" lon="6.98315">
        <ele>313</ele>
        <time>2011-01-23T08:31:53Z</time>
      </trkpt>
      <trkpt lat="49.18091" lon="6.98317">
        <ele>313</ele>
        <time>2011-01-23T08:31:54Z</time>
      </trkpt>
      <trkpt lat="49.18091" lon="6.98318">
        <ele>313</ele>
        <time>2011-01-23T08:31:55Z</time>
      </trkpt>
      <trkpt lat="49.18091" lon="6.9832">
        <ele>313</ele>
        <time>2011-01-23T08:31:56Z</time>
      </trkpt>
      <trkpt lat="49.1809" lon="6.98323">
        <ele>313</ele>
        <time>2011-01-23T08:31:58Z</time>
      </trkpt>
      <trkpt lat="49.1809" lon="6.98326">
        <ele>313</ele>
        <time>2011-01-23T08:32:00Z</time>
      </trkpt>
      <trkpt lat="49.1809" lon="6.98329">
        <ele>313</ele>
        <time>2011-01-23T08:32:01Z</time>
      </trkpt>
      <trkpt lat="49.1809" lon="6.9833">
        <ele>313</ele>
        <time>2011-01-23T08:32:02Z</time>
      </trkpt>
      <trkpt lat="49.18089" lon="6.98333">
        <ele>313</ele>
        <time>2011-01-23T08:32:04Z</time>
      </trkpt>
      <trkpt lat="49.18088" lon="6.98336">
        <ele>313</ele>
        <time>2011-01-23T08:32:06Z</time>
      </trkpt>
      <trkpt lat="49.18088" lon="6.98338">
        <ele>313</ele>
        <time>2011-01-23T08:32:07Z</time>
      </trkpt>
      <trkpt lat="49.18087" lon="6.9834">
        <ele>313</ele>
        <time>2011-01-23T08:32:08Z</time>
      </trkpt>
      <trkpt lat="49.18087" lon="6.98342">
        <ele>313</ele>
        <time>2011-01-23T08:32:09Z</time>
      </trkpt>
      <trkpt lat="49.18086" lon="6.98345">
        <ele>313</ele>
        <time>2011-01-23T08:32:11Z</time>
      </trkpt>
      <trkpt lat="49.18084" lon="6.98349">
        <ele>313</ele>
        <time>2011-01-23T08:32:13Z</time>
      </trkpt>
      <trkpt lat="49.18083" lon="6.98352">
        <ele>313</ele>
        <time>2011-01-23T08:32:15Z</time>
      </trkpt>
      <trkpt lat="49.18083" lon="6.98354">
        <ele>313</ele>
        <time>2011-01-23T08:32:16Z</time>
      </trkpt>
      <trkpt lat="49.18082" lon="6.98356">
        <ele>312</ele>
        <time>2011-01-23T08:32:18Z</time>
      </trkpt>
      <trkpt lat="49.18081" lon="6.98359">
        <ele>312</ele>
        <time>2011-01-23T08:32:20Z</time>
      </trkpt>
      <trkpt lat="49.18081" lon="6.98361">
        <ele>311</ele>
        <time>2011-01-23T08:32:21Z</time>
      </trkpt>
      <trkpt lat="49.1808" lon="6.98363">
        <ele>311</ele>
        <time>2011-01-23T08:32:22Z</time>
      </trkpt>
      <trkpt lat="49.1808" lon="6.98365">
        <ele>311</ele>
        <time>2011-01-23T08:32:23Z</time>
      </trkpt>
      <trkpt lat="49.18079" lon="6.98366">
        <ele>311</ele>
        <time>2011-01-23T08:32:24Z</time>
      </trkpt>
      <trkpt lat="49.18078" lon="6.98369">
        <ele>310</ele>
        <time>2011-01-23T08:32:26Z</time>
      </trkpt>
      <trkpt lat="49.18078" lon="6.98372">
        <ele>310</ele>
        <time>2011-01-23T08:32:28Z</time>
      </trkpt>
      <trkpt lat="49.18077" lon="6.98374">
        <ele>310</ele>
        <time>2011-01-23T08:32:29Z</time>
      </trkpt>
      <trkpt lat="49.18076" lon="6.98376">
        <ele>310</ele>
        <time>2011-01-23T08:32:30Z</time>
      </trkpt>
      <trkpt lat="49.18076" lon="6.98379">
        <ele>310</ele>
        <time>2011-01-23T08:32:31Z</time>
      </trkpt>
      <trkpt lat="49.18076" lon="6.98382">
        <ele>310</ele>
        <time>2011-01-23T08:32:32Z</time>
      </trkpt>
      <trkpt lat="49.18075" lon="6.98385">
        <ele>310</ele>
        <time>2011-01-23T08:32:34Z</time>
      </trkpt>
      <trkpt lat="49.18075" lon="6.98388">
        <ele>310</ele>
        <time>2011-01-23T08:32:35Z</time>
      </trkpt>
      <trkpt lat="49.18076" lon="6.9839">
        <ele>310</ele>
        <time>2011-01-23T08:32:36Z</time>
      </trkpt>
      <trkpt lat="49.18075" lon="6.98392">
        <ele>310</ele>
        <time>2011-01-23T08:32:37Z</time>
      </trkpt>
      <trkpt lat="49.18075" lon="6.98394">
        <ele>310</ele>
        <time>2011-01-23T08:32:38Z</time>
      </trkpt>
      <trkpt lat="49.18074" lon="6.98396">
        <ele>310</ele>
        <time>2011-01-23T08:32:40Z</time>
      </trkpt>
      <trkpt lat="49.18073" lon="6.98399">
        <ele>310</ele>
        <time>2011-01-23T08:32:42Z</time>
      </trkpt>
      <trkpt lat="49.18073" lon="6.98401">
        <ele>310</ele>
        <time>2011-01-23T08:32:43Z</time>
      </trkpt>
      <trkpt lat="49.18072" lon="6.98403">
        <ele>310</ele>
        <time>2011-01-23T08:32:44Z</time>
      </trkpt>
      <trkpt lat="49.18072" lon="6.98406">
        <ele>310</ele>
        <time>2011-01-23T08:32:46Z</time>
      </trkpt>
      <trkpt lat="49.18071" lon="6.98408">
        <ele>310</ele>
        <time>2011-01-23T08:32:48Z</time>
      </trkpt>
      <trkpt lat="49.18069" lon="6.98412">
        <ele>310</ele>
        <time>2011-01-23T08:32:50Z</time>
      </trkpt>
      <trkpt lat="49.18069" lon="6.98415">
        <ele>310</ele>
        <time>2011-01-23T08:32:51Z</time>
      </trkpt>
      <trkpt lat="49.18068" lon="6.98416">
        <ele>310</ele>
        <time>2011-01-23T08:32:52Z</time>
      </trkpt>
      <trkpt lat="49.18067" lon="6.98419">
        <ele>310</ele>
        <time>2011-01-23T08:32:54Z</time>
      </trkpt>
      <trkpt lat="49.18066" lon="6.98421">
        <ele>310</ele>
        <time>2011-01-23T08:32:56Z</time>
      </trkpt>
      <trkpt lat="49.18064" lon="6.98423">
        <ele>310</ele>
        <time>2011-01-23T08:32:58Z</time>
      </trkpt>
      <trkpt lat="49.18063" lon="6.98426">
        <ele>310</ele>
        <time>2011-01-23T08:33:00Z</time>
      </trkpt>
      <trkpt lat="49.18061" lon="6.98428">
        <ele>310</ele>
        <time>2011-01-23T08:33:02Z</time>
      </trkpt>
      <trkpt lat="49.1806" lon="6.9843">
        <ele>310</ele>
        <time>2011-01-23T08:33:03Z</time>
      </trkpt>
      <trkpt lat="49.18058" lon="6.98432">
        <ele>310</ele>
        <time>2011-01-23T08:33:05Z</time>
      </trkpt>
      <trkpt lat="49.18056" lon="6.98435">
        <ele>310</ele>
        <time>2011-01-23T08:33:07Z</time>
      </trkpt>
      <trkpt lat="49.18055" lon="6.98438">
        <ele>310</ele>
        <time>2011-01-23T08:33:08Z</time>
      </trkpt>
      <trkpt lat="49.18053" lon="6.98441">
        <ele>310</ele>
        <time>2011-01-23T08:33:10Z</time>
      </trkpt>
      <trkpt lat="49.18052" lon="6.98443">
        <ele>310</ele>
        <time>2011-01-23T08:33:12Z</time>
      </trkpt>
      <trkpt lat="49.1805" lon="6.98446">
        <ele>310</ele>
        <time>2011-01-23T08:33:14Z</time>
      </trkpt>
      <trkpt lat="49.18049" lon="6.98448">
        <ele>310</ele>
        <time>2011-01-23T08:33:16Z</time>
      </trkpt>
      <trkpt lat="49.18048" lon="6.98451">
        <ele>310</ele>
        <time>2011-01-23T08:33:18Z</time>
      </trkpt>
      <trkpt lat="49.18046" lon="6.98453">
        <ele>310</ele>
        <time>2011-01-23T08:33:20Z</time>
      </trkpt>
      <trkpt lat="49.18045" lon="6.98455">
        <ele>310</ele>
        <time>2011-01-23T08:33:21Z</time>
      </trkpt>
      <trkpt lat="49.18043" lon="6.98457">
        <ele>310</ele>
        <time>2011-01-23T08:33:24Z</time>
      </trkpt>
      <trkpt lat="49.18041" lon="6.9846">
        <ele>310</ele>
        <time>2011-01-23T08:33:26Z</time>
      </trkpt>
      <trkpt lat="49.1804" lon="6.98463">
        <ele>310</ele>
        <time>2011-01-23T08:33:28Z</time>
      </trkpt>
      <trkpt lat="49.18038" lon="6.98465">
        <ele>310</ele>
        <time>2011-01-23T08:33:30Z</time>
      </trkpt>
      <trkpt lat="49.18037" lon="6.98468">
        <ele>310</ele>
        <time>2011-01-23T08:33:32Z</time>
      </trkpt>
      <trkpt lat="49.18035" lon="6.98471">
        <ele>310</ele>
        <time>2011-01-23T08:33:34Z</time>
      </trkpt>
      <trkpt lat="49.18034" lon="6.98473">
        <ele>310</ele>
        <time>2011-01-23T08:33:36Z</time>
      </trkpt>
      <trkpt lat="49.18032" lon="6.98476">
        <ele>310</ele>
        <time>2011-01-23T08:33:38Z</time>
      </trkpt>
      <trkpt lat="49.18031" lon="6.98478">
        <ele>310</ele>
        <time>2011-01-23T08:33:40Z</time>
      </trkpt>
      <trkpt lat="49.18029" lon="6.98481">
        <ele>310</ele>
        <time>2011-01-23T08:33:42Z</time>
      </trkpt>
      <trkpt lat="49.18027" lon="6.98483">
        <ele>310</ele>
        <time>2011-01-23T08:33:44Z</time>
      </trkpt>
      <trkpt lat="49.18026" lon="6.98485">
        <ele>310</ele>
        <time>2011-01-23T08:33:46Z</time>
      </trkpt>
      <trkpt lat="49.18024" lon="6.98487">
        <ele>310</ele>
        <time>2011-01-23T08:33:48Z</time>
      </trkpt>
      <trkpt lat="49.18022" lon="6.98489">
        <ele>310</ele>
        <time>2011-01-23T08:33:50Z</time>
      </trkpt>
      <trkpt lat="49.18021" lon="6.98491">
        <ele>310</ele>
        <time>2011-01-23T08:33:52Z</time>
      </trkpt>
      <trkpt lat="49.18019" lon="6.98492">
        <ele>310</ele>
        <time>2011-01-23T08:33:54Z</time>
      </trkpt>
      <trkpt lat="49.18017" lon="6.98495">
        <ele>310</ele>
        <time>2011-01-23T08:33:56Z</time>
      </trkpt>
      <trkpt lat="49.18016" lon="6.98496">
        <ele>310</ele>
        <time>2011-01-23T08:33:57Z</time>
      </trkpt>
      <trkpt lat="49.18014" lon="6.98498">
        <ele>310</ele>
        <time>2011-01-23T08:33:59Z</time>
      </trkpt>
      <trkpt lat="49.18013" lon="6.98501">
        <ele>310</ele>
        <time>2011-01-23T08:34:01Z</time>
      </trkpt>
      <trkpt lat="49.18012" lon="6.98503">
        <ele>310</ele>
        <time>2011-01-23T08:34:02Z</time>
      </trkpt>
      <trkpt lat="49.18011" lon="6.98505">
        <ele>310</ele>
        <time>2011-01-23T08:34:03Z</time>
      </trkpt>
      <trkpt lat="49.1801" lon="6.98507">
        <ele>310</ele>
        <time>2011-01-23T08:34:04Z</time>
      </trkpt>
      <trkpt lat="49.18009" lon="6.98508">
        <ele>310</ele>
        <time>2011-01-23T08:34:05Z</time>
      </trkpt>
      <trkpt lat="49.18008" lon="6.98511">
        <ele>310</ele>
        <time>2011-01-23T08:34:07Z</time>
      </trkpt>
      <trkpt lat="49.18007" lon="6.98513">
        <ele>310</ele>
        <time>2011-01-23T08:34:08Z</time>
      </trkpt>
      <trkpt lat="49.18006" lon="6.98516">
        <ele>310</ele>
        <time>2011-01-23T08:34:10Z</time>
      </trkpt>
      <trkpt lat="49.18004" lon="6.98518">
        <ele>310</ele>
        <time>2011-01-23T08:34:12Z</time>
      </trkpt>
      <trkpt lat="49.18002" lon="6.9852">
        <ele>310</ele>
        <time>2011-01-23T08:34:14Z</time>
      </trkpt>
      <trkpt lat="49.18001" lon="6.98523">
        <ele>310</ele>
        <time>2011-01-23T08:34:16Z</time>
      </trkpt>
      <trkpt lat="49.18" lon="6.98524">
        <ele>310</ele>
        <time>2011-01-23T08:34:17Z</time>
      </trkpt>
      <trkpt lat="49.17999" lon="6.98526">
        <ele>310</ele>
        <time>2011-01-23T08:34:18Z</time>
      </trkpt>
      <trkpt lat="49.17997" lon="6.98528">
        <ele>310</ele>
        <time>2011-01-23T08:34:20Z</time>
      </trkpt>
      <trkpt lat="49.17996" lon="6.9853">
        <ele>310</ele>
        <time>2011-01-23T08:34:21Z</time>
      </trkpt>
      <trkpt lat="49.17995" lon="6.98532">
        <ele>310</ele>
        <time>2011-01-23T08:34:23Z</time>
      </trkpt>
      <trkpt lat="49.17994" lon="6.98534">
        <ele>310</ele>
        <time>2011-01-23T08:34:25Z</time>
      </trkpt>
      <trkpt lat="49.17992" lon="6.98536">
        <ele>310</ele>
        <time>2011-01-23T08:34:27Z</time>
      </trkpt>
      <trkpt lat="49.1799" lon="6.98539">
        <ele>310</ele>
        <time>2011-01-23T08:34:29Z</time>
      </trkpt>
      <trkpt lat="49.17989" lon="6.98541">
        <ele>310</ele>
        <time>2011-01-23T08:34:31Z</time>
      </trkpt>
      <trkpt lat="49.17987" lon="6.98544">
        <ele>310</ele>
        <time>2011-01-23T08:34:33Z</time>
      </trkpt>
      <trkpt lat="49.17986" lon="6.98546">
        <ele>310</ele>
        <time>2011-01-23T08:34:35Z</time>
      </trkpt>
      <trkpt lat="49.17985" lon="6.98549">
        <ele>310</ele>
        <time>2011-01-23T08:34:37Z</time>
      </trkpt>
      <trkpt lat="49.17984" lon="6.98551">
        <ele>310</ele>
        <time>2011-01-23T08:34:39Z</time>
      </trkpt>
      <trkpt lat="49.17983" lon="6.98553">
        <ele>310</ele>
        <time>2011-01-23T08:34:40Z</time>
      </trkpt>
      <trkpt lat="49.17982" lon="6.98555">
        <ele>310</ele>
        <time>2011-01-23T08:34:41Z</time>
      </trkpt>
      <trkpt lat="49.17981" lon="6.98556">
        <ele>310</ele>
        <time>2011-01-23T08:34:42Z</time>
      </trkpt>
      <trkpt lat="49.17979" lon="6.98559">
        <ele>310</ele>
        <time>2011-01-23T08:34:44Z</time>
      </trkpt>
      <trkpt lat="49.17977" lon="6.9856">
        <ele>310</ele>
        <time>2011-01-23T08:34:45Z</time>
      </trkpt>
      <trkpt lat="49.17976" lon="6.98562">
        <ele>310</ele>
        <time>2011-01-23T08:34:47Z</time>
      </trkpt>
      <trkpt lat="49.17974" lon="6.98565">
        <ele>310</ele>
        <time>2011-01-23T08:34:49Z</time>
      </trkpt>
      <trkpt lat="49.17972" lon="6.98567">
        <ele>310</ele>
        <time>2011-01-23T08:34:51Z</time>
      </trkpt>
      <trkpt lat="49.17971" lon="6.98569">
        <ele>310</ele>
        <time>2011-01-23T08:34:53Z</time>
      </trkpt>
      <trkpt lat="49.1797" lon="6.98572">
        <ele>310</ele>
        <time>2011-01-23T08:34:55Z</time>
      </trkpt>
      <trkpt lat="49.17968" lon="6.98574">
        <ele>311</ele>
        <time>2011-01-23T08:34:57Z</time>
      </trkpt>
      <trkpt lat="49.17966" lon="6.98576">
        <ele>311</ele>
        <time>2011-01-23T08:34:59Z</time>
      </trkpt>
      <trkpt lat="49.17965" lon="6.98578">
        <ele>311</ele>
        <time>2011-01-23T08:35:01Z</time>
      </trkpt>
      <trkpt lat="49.17963" lon="6.98581">
        <ele>311</ele>
        <time>2011-01-23T08:35:03Z</time>
      </trkpt>
      <trkpt lat="49.17962" lon="6.98583">
        <ele>311</ele>
        <time>2011-01-23T08:35:05Z</time>
      </trkpt>
      <trkpt lat="49.1796" lon="6.98586">
        <ele>311</ele>
        <time>2011-01-23T08:35:07Z</time>
      </trkpt>
      <trkpt lat="49.17959" lon="6.98588">
        <ele>311</ele>
        <time>2011-01-23T08:35:08Z</time>
      </trkpt>
      <trkpt lat="49.17957" lon="6.98591">
        <ele>311</ele>
        <time>2011-01-23T08:35:10Z</time>
      </trkpt>
      <trkpt lat="49.17957" lon="6.98593">
        <ele>311</ele>
        <time>2011-01-23T08:35:11Z</time>
      </trkpt>
      <trkpt lat="49.17956" lon="6.98595">
        <ele>311</ele>
        <time>2011-01-23T08:35:12Z</time>
      </trkpt>
      <trkpt lat="49.17956" lon="6.98597">
        <ele>311</ele>
        <time>2011-01-23T08:35:13Z</time>
      </trkpt>
      <trkpt lat="49.17955" lon="6.98599">
        <ele>311</ele>
        <time>2011-01-23T08:35:14Z</time>
      </trkpt>
      <trkpt lat="49.17955" lon="6.98601">
        <ele>311</ele>
        <time>2011-01-23T08:35:15Z</time>
      </trkpt>
      <trkpt lat="49.17955" lon="6.98603">
        <ele>311</ele>
        <time>2011-01-23T08:35:16Z</time>
      </trkpt>
      <trkpt lat="49.17954" lon="6.98605">
        <ele>311</ele>
        <time>2011-01-23T08:35:17Z</time>
      </trkpt>
      <trkpt lat="49.17953" lon="6.98607">
        <ele>311</ele>
        <time>2011-01-23T08:35:18Z</time>
      </trkpt>
      <trkpt lat="49.17952" lon="6.9861">
        <ele>311</ele>
        <time>2011-01-23T08:35:20Z</time>
      </trkpt>
      <trkpt lat="49.17951" lon="6.98612">
        <ele>311</ele>
        <time>2011-01-23T08:35:21Z</time>
      </trkpt>
      <trkpt lat="49.1795" lon="6.98615">
        <ele>311</ele>
        <time>2011-01-23T08:35:23Z</time>
      </trkpt>
      <trkpt lat="49.17949" lon="6.98619">
        <ele>311</ele>
        <time>2011-01-23T08:35:25Z</time>
      </trkpt>
      <trkpt lat="49.17949" lon="6.98621">
        <ele>311</ele>
        <time>2011-01-23T08:35:26Z</time>
      </trkpt>
      <trkpt lat="49.17948" lon="6.98623">
        <ele>311</ele>
        <time>2011-01-23T08:35:27Z</time>
      </trkpt>
      <trkpt lat="49.17947" lon="6.98626">
        <ele>311</ele>
        <time>2011-01-23T08:35:28Z</time>
      </trkpt>
      <trkpt lat="49.17947" lon="6.98628">
        <ele>311</ele>
        <time>2011-01-23T08:35:29Z</time>
      </trkpt>
      <trkpt lat="49.17946" lon="6.9863">
        <ele>311</ele>
        <time>2011-01-23T08:35:30Z</time>
      </trkpt>
      <trkpt lat="49.17945" lon="6.98631">
        <ele>311</ele>
        <time>2011-01-23T08:35:31Z</time>
      </trkpt>
      <trkpt lat="49.17945" lon="6.98633">
        <ele>311</ele>
        <time>2011-01-23T08:35:32Z</time>
      </trkpt>
      <trkpt lat="49.17944" lon="6.98636">
        <ele>311</ele>
        <time>2011-01-23T08:35:34Z</time>
      </trkpt>
      <trkpt lat="49.17944" lon="6.98638">
        <ele>311</ele>
        <time>2011-01-23T08:35:35Z</time>
      </trkpt>
      <trkpt lat="49.17943" lon="6.9864">
        <ele>311</ele>
        <time>2011-01-23T08:35:36Z</time>
      </trkpt>
      <trkpt lat="49.17943" lon="6.98642">
        <ele>311</ele>
        <time>2011-01-23T08:35:37Z</time>
      </trkpt>
      <trkpt lat="49.17942" lon="6.98643">
        <ele>311</ele>
        <time>2011-01-23T08:35:38Z</time>
      </trkpt>
      <trkpt lat="49.17942" lon="6.98646">
        <ele>311</ele>
        <time>2011-01-23T08:35:39Z</time>
      </trkpt>
      <trkpt lat="49.17942" lon="6.98648">
        <ele>311</ele>
        <time>2011-01-23T08:35:40Z</time>
      </trkpt>
      <trkpt lat="49.17942" lon="6.9865">
        <ele>311</ele>
        <time>2011-01-23T08:35:41Z</time>
      </trkpt>
      <trkpt lat="49.17942" lon="6.98652">
        <ele>311</ele>
        <time>2011-01-23T08:35:42Z</time>
      </trkpt>
      <trkpt lat="49.17941" lon="6.98654">
        <ele>311</ele>
        <time>2011-01-23T08:35:43Z</time>
      </trkpt>
      <trkpt lat="49.1794" lon="6.98656">
        <ele>311</ele>
        <time>2011-01-23T08:35:45Z</time>
      </trkpt>
      <trkpt lat="49.1794" lon="6.98658">
        <ele>311</ele>
        <time>2011-01-23T08:35:46Z</time>
      </trkpt>
      <trkpt lat="49.17939" lon="6.9866">
        <ele>311</ele>
        <time>2011-01-23T08:35:47Z</time>
      </trkpt>
      <trkpt lat="49.17939" lon="6.98662">
        <ele>311</ele>
        <time>2011-01-23T08:35:48Z</time>
      </trkpt>
      <trkpt lat="49.17939" lon="6.98664">
        <ele>311</ele>
        <time>2011-01-23T08:35:49Z</time>
      </trkpt>
      <trkpt lat="49.17939" lon="6.98666">
        <ele>311</ele>
        <time>2011-01-23T08:35:50Z</time>
      </trkpt>
      <trkpt lat="49.17938" lon="6.98668">
        <ele>311</ele>
        <time>2011-01-23T08:35:51Z</time>
      </trkpt>
      <trkpt lat="49.17938" lon="6.9867">
        <ele>311</ele>
        <time>2011-01-23T08:35:52Z</time>
      </trkpt>
      <trkpt lat="49.17937" lon="6.98671">
        <ele>311</ele>
        <time>2011-01-23T08:35:53Z</time>
      </trkpt>
      <trkpt lat="49.17936" lon="6.98674">
        <ele>311</ele>
        <time>2011-01-23T08:35:55Z</time>
      </trkpt>
      <trkpt lat="49.17935" lon="6.98676">
        <ele>311</ele>
        <time>2011-01-23T08:35:57Z</time>
      </trkpt>
      <trkpt lat="49.17934" lon="6.98678">
        <ele>311</ele>
        <time>2011-01-23T08:35:59Z</time>
      </trkpt>
      <trkpt lat="49.17934" lon="6.98681">
        <ele>311</ele>
        <time>2011-01-23T08:36:01Z</time>
      </trkpt>
      <trkpt lat="49.17933" lon="6.98684">
        <ele>311</ele>
        <time>2011-01-23T08:36:03Z</time>
      </trkpt>
      <trkpt lat="49.17931" lon="6.98686">
        <ele>311</ele>
        <time>2011-01-23T08:36:05Z</time>
      </trkpt>
      <trkpt lat="49.1793" lon="6.98688">
        <ele>311</ele>
        <time>2011-01-23T08:36:07Z</time>
      </trkpt>
      <trkpt lat="49.17929" lon="6.98691">
        <ele>311</ele>
        <time>2011-01-23T08:36:09Z</time>
      </trkpt>
      <trkpt lat="49.17928" lon="6.98694">
        <ele>311</ele>
        <time>2011-01-23T08:36:11Z</time>
      </trkpt>
      <trkpt lat="49.17927" lon="6.98696">
        <ele>311</ele>
        <time>2011-01-23T08:36:13Z</time>
      </trkpt>
      <trkpt lat="49.17927" lon="6.987">
        <ele>311</ele>
        <time>2011-01-23T08:36:15Z</time>
      </trkpt>
      <trkpt lat="49.17926" lon="6.98703">
        <ele>311</ele>
        <time>2011-01-23T08:36:17Z</time>
      </trkpt>
      <trkpt lat="49.17925" lon="6.98705">
        <ele>311</ele>
        <time>2011-01-23T08:36:18Z</time>
      </trkpt>
      <trkpt lat="49.17925" lon="6.98707">
        <ele>311</ele>
        <time>2011-01-23T08:36:19Z</time>
      </trkpt>
      <trkpt lat="49.17925" lon="6.98709">
        <ele>311</ele>
        <time>2011-01-23T08:36:20Z</time>
      </trkpt>
      <trkpt lat="49.17925" lon="6.9871">
        <ele>311</ele>
        <time>2011-01-23T08:36:21Z</time>
      </trkpt>
      <trkpt lat="49.17925" lon="6.98713">
        <ele>311</ele>
        <time>2011-01-23T08:36:22Z</time>
      </trkpt>
      <trkpt lat="49.17924" lon="6.98715">
        <ele>311</ele>
        <time>2011-01-23T08:36:24Z</time>
      </trkpt>
      <trkpt lat="49.17923" lon="6.98718">
        <ele>311</ele>
        <time>2011-01-23T08:36:26Z</time>
      </trkpt>
      <trkpt lat="49.17923" lon="6.9872">
        <ele>311</ele>
        <time>2011-01-23T08:36:27Z</time>
      </trkpt>
      <trkpt lat="49.17922" lon="6.98722">
        <ele>311</ele>
        <time>2011-01-23T08:36:28Z</time>
      </trkpt>
      <trkpt lat="49.17922" lon="6.98723">
        <ele>311</ele>
        <time>2011-01-23T08:36:29Z</time>
      </trkpt>
      <trkpt lat="49.17922" lon="6.98725">
        <ele>311</ele>
        <time>2011-01-23T08:36:30Z</time>
      </trkpt>
      <trkpt lat="49.17922" lon="6.98727">
        <ele>311</ele>
        <time>2011-01-23T08:36:31Z</time>
      </trkpt>
      <trkpt lat="49.17922" lon="6.98729">
        <ele>311</ele>
        <time>2011-01-23T08:36:32Z</time>
      </trkpt>
      <trkpt lat="49.17921" lon="6.98731">
        <ele>311</ele>
        <time>2011-01-23T08:36:33Z</time>
      </trkpt>
      <trkpt lat="49.1792" lon="6.98734">
        <ele>311</ele>
        <time>2011-01-23T08:36:35Z</time>
      </trkpt>
      <trkpt lat="49.17919" lon="6.98736">
        <ele>311</ele>
        <time>2011-01-23T08:36:37Z</time>
      </trkpt>
      <trkpt lat="49.17918" lon="6.98739">
        <ele>311</ele>
        <time>2011-01-23T08:36:39Z</time>
      </trkpt>
      <trkpt lat="49.17918" lon="6.98741">
        <ele>311</ele>
        <time>2011-01-23T08:36:40Z</time>
      </trkpt>
      <trkpt lat="49.17917" lon="6.98744">
        <ele>311</ele>
        <time>2011-01-23T08:36:42Z</time>
      </trkpt>
      <trkpt lat="49.17916" lon="6.98746">
        <ele>311</ele>
        <time>2011-01-23T08:36:43Z</time>
      </trkpt>
      <trkpt lat="49.17915" lon="6.98748">
        <ele>311</ele>
        <time>2011-01-23T08:36:44Z</time>
      </trkpt>
      <trkpt lat="49.17915" lon="6.9875">
        <ele>311</ele>
        <time>2011-01-23T08:36:45Z</time>
      </trkpt>
      <trkpt lat="49.17914" lon="6.98752">
        <ele>311</ele>
        <time>2011-01-23T08:36:46Z</time>
      </trkpt>
      <trkpt lat="49.17914" lon="6.98754">
        <ele>311</ele>
        <time>2011-01-23T08:36:47Z</time>
      </trkpt>
      <trkpt lat="49.17914" lon="6.98756">
        <ele>311</ele>
        <time>2011-01-23T08:36:48Z</time>
      </trkpt>
      <trkpt lat="49.17913" lon="6.98759">
        <ele>311</ele>
        <time>2011-01-23T08:36:50Z</time>
      </trkpt>
      <trkpt lat="49.17913" lon="6.98761">
        <ele>311</ele>
        <time>2011-01-23T08:36:52Z</time>
      </trkpt>
      <trkpt lat="49.17912" lon="6.98763">
        <ele>311</ele>
        <time>2011-01-23T08:36:54Z</time>
      </trkpt>
      <trkpt lat="49.17912" lon="6.98765">
        <ele>311</ele>
        <time>2011-01-23T08:36:56Z</time>
      </trkpt>
      <trkpt lat="49.17911" lon="6.98768">
        <ele>311</ele>
        <time>2011-01-23T08:36:58Z</time>
      </trkpt>
      <trkpt lat="49.1791" lon="6.9877">
        <ele>311</ele>
        <time>2011-01-23T08:36:59Z</time>
      </trkpt>
      <trkpt lat="49.17909" lon="6.98772">
        <ele>311</ele>
        <time>2011-01-23T08:37:00Z</time>
      </trkpt>
      <trkpt lat="49.17908" lon="6.98775">
        <ele>311</ele>
        <time>2011-01-23T08:37:01Z</time>
      </trkpt>
      <trkpt lat="49.17908" lon="6.98777">
        <ele>311</ele>
        <time>2011-01-23T08:37:02Z</time>
      </trkpt>
      <trkpt lat="49.17907" lon="6.98779">
        <ele>311</ele>
        <time>2011-01-23T08:37:03Z</time>
      </trkpt>
      <trkpt lat="49.17907" lon="6.98781">
        <ele>311</ele>
        <time>2011-01-23T08:37:04Z</time>
      </trkpt>
      <trkpt lat="49.17906" lon="6.98783">
        <ele>311</ele>
        <time>2011-01-23T08:37:05Z</time>
      </trkpt>
      <trkpt lat="49.17905" lon="6.98786">
        <ele>311</ele>
        <time>2011-01-23T08:37:07Z</time>
      </trkpt>
      <trkpt lat="49.17904" lon="6.98788">
        <ele>310</ele>
        <time>2011-01-23T08:37:09Z</time>
      </trkpt>
      <trkpt lat="49.17905" lon="6.98791">
        <ele>310</ele>
        <time>2011-01-23T08:37:11Z</time>
      </trkpt>
      <trkpt lat="49.17905" lon="6.98793">
        <ele>310</ele>
        <time>2011-01-23T08:37:12Z</time>
      </trkpt>
      <trkpt lat="49.17905" lon="6.98796">
        <ele>310</ele>
        <time>2011-01-23T08:37:13Z</time>
      </trkpt>
      <trkpt lat="49.17905" lon="6.98799">
        <ele>310</ele>
        <time>2011-01-23T08:37:14Z</time>
      </trkpt>
      <trkpt lat="49.17905" lon="6.98801">
        <ele>310</ele>
        <time>2011-01-23T08:37:15Z</time>
      </trkpt>
      <trkpt lat="49.17905" lon="6.98803">
        <ele>310</ele>
        <time>2011-01-23T08:37:16Z</time>
      </trkpt>
      <trkpt lat="49.17905" lon="6.98805">
        <ele>310</ele>
        <time>2011-01-23T08:37:17Z</time>
      </trkpt>
      <trkpt lat="49.17905" lon="6.98807">
        <ele>310</ele>
        <time>2011-01-23T08:37:18Z</time>
      </trkpt>
      <trkpt lat="49.17904" lon="6.98809">
        <ele>310</ele>
        <time>2011-01-23T08:37:19Z</time>
      </trkpt>
      <trkpt lat="49.17904" lon="6.98811">
        <ele>309</ele>
        <time>2011-01-23T08:37:20Z</time>
      </trkpt>
      <trkpt lat="49.17903" lon="6.98813">
        <ele>309</ele>
        <time>2011-01-23T08:37:21Z</time>
      </trkpt>
      <trkpt lat="49.17903" lon="6.98815">
        <ele>309</ele>
        <time>2011-01-23T08:37:22Z</time>
      </trkpt>
      <trkpt lat="49.17903" lon="6.98817">
        <ele>309</ele>
        <time>2011-01-23T08:37:23Z</time>
      </trkpt>
      <trkpt lat="49.17903" lon="6.98818">
        <ele>308</ele>
        <time>2011-01-23T08:37:24Z</time>
      </trkpt>
      <trkpt lat="49.17903" lon="6.9882">
        <ele>308</ele>
        <time>2011-01-23T08:37:25Z</time>
      </trkpt>
      <trkpt lat="49.17903" lon="6.98822">
        <ele>308</ele>
        <time>2011-01-23T08:37:26Z</time>
      </trkpt>
      <trkpt lat="49.17903" lon="6.98825">
        <ele>308</ele>
        <time>2011-01-23T08:37:27Z</time>
      </trkpt>
      <trkpt lat="49.17903" lon="6.98827">
        <ele>308</ele>
        <time>2011-01-23T08:37:28Z</time>
      </trkpt>
      <trkpt lat="49.17903" lon="6.98828">
        <ele>308</ele>
        <time>2011-01-23T08:37:29Z</time>
      </trkpt>
      <trkpt lat="49.17903" lon="6.9883">
        <ele>308</ele>
        <time>2011-01-23T08:37:30Z</time>
      </trkpt>
      <trkpt lat="49.17903" lon="6.98832">
        <ele>308</ele>
        <time>2011-01-23T08:37:31Z</time>
      </trkpt>
      <trkpt lat="49.17902" lon="6.98834">
        <ele>308</ele>
        <time>2011-01-23T08:37:32Z</time>
      </trkpt>
      <trkpt lat="49.17902" lon="6.98836">
        <ele>308</ele>
        <time>2011-01-23T08:37:33Z</time>
      </trkpt>
      <trkpt lat="49.17902" lon="6.98838">
        <ele>308</ele>
        <time>2011-01-23T08:37:34Z</time>
      </trkpt>
      <trkpt lat="49.17902" lon="6.9884">
        <ele>308</ele>
        <time>2011-01-23T08:37:35Z</time>
      </trkpt>
      <trkpt lat="49.17901" lon="6.98841">
        <ele>308</ele>
        <time>2011-01-23T08:37:36Z</time>
      </trkpt>
      <trkpt lat="49.179" lon="6.98843">
        <ele>308</ele>
        <time>2011-01-23T08:37:38Z</time>
      </trkpt>
      <trkpt lat="49.179" lon="6.98846">
        <ele>308</ele>
        <time>2011-01-23T08:37:40Z</time>
      </trkpt>
      <trkpt lat="49.179" lon="6.98848">
        <ele>308</ele>
        <time>2011-01-23T08:37:41Z</time>
      </trkpt>
      <trkpt lat="49.179" lon="6.9885">
        <ele>308</ele>
        <time>2011-01-23T08:37:42Z</time>
      </trkpt>
      <trkpt lat="49.179" lon="6.98852">
        <ele>308</ele>
        <time>2011-01-23T08:37:43Z</time>
      </trkpt>
      <trkpt lat="49.179" lon="6.98854">
        <ele>308</ele>
        <time>2011-01-23T08:37:44Z</time>
      </trkpt>
      <trkpt lat="49.179" lon="6.98856">
        <ele>308</ele>
        <time>2011-01-23T08:37:45Z</time>
      </trkpt>
      <trkpt lat="49.179" lon="6.98858">
        <ele>308</ele>
        <time>2011-01-23T08:37:46Z</time>
      </trkpt>
      <trkpt lat="49.17899" lon="6.98862">
        <ele>308</ele>
        <time>2011-01-23T08:37:48Z</time>
      </trkpt>
      <trkpt lat="49.17899" lon="6.98863">
        <ele>308</ele>
        <time>2011-01-23T08:37:49Z</time>
      </trkpt>
      <trkpt lat="49.17899" lon="6.98865">
        <ele>308</ele>
        <time>2011-01-23T08:37:50Z</time>
      </trkpt>
      <trkpt lat="49.17898" lon="6.98867">
        <ele>308</ele>
        <time>2011-01-23T08:37:51Z</time>
      </trkpt>
      <trkpt lat="49.17899" lon="6.98869">
        <ele>308</ele>
        <time>2011-01-23T08:37:52Z</time>
      </trkpt>
      <trkpt lat="49.17899" lon="6.98873">
        <ele>308</ele>
        <time>2011-01-23T08:37:54Z</time>
      </trkpt>
      <trkpt lat="49.17899" lon="6.98874">
        <ele>307</ele>
        <time>2011-01-23T08:37:55Z</time>
      </trkpt>
      <trkpt lat="49.17899" lon="6.98876">
        <ele>307</ele>
        <time>2011-01-23T08:37:56Z</time>
      </trkpt>
      <trkpt lat="49.17898" lon="6.98878">
        <ele>307</ele>
        <time>2011-01-23T08:37:57Z</time>
      </trkpt>
      <trkpt lat="49.17898" lon="6.9888">
        <ele>307</ele>
        <time>2011-01-23T08:37:58Z</time>
      </trkpt>
      <trkpt lat="49.17898" lon="6.98882">
        <ele>307</ele>
        <time>2011-01-23T08:37:59Z</time>
      </trkpt>
      <trkpt lat="49.17898" lon="6.98884">
        <ele>306</ele>
        <time>2011-01-23T08:38:01Z</time>
      </trkpt>
      <trkpt lat="49.17898" lon="6.98886">
        <ele>306</ele>
        <time>2011-01-23T08:38:02Z</time>
      </trkpt>
      <trkpt lat="49.17897" lon="6.98889">
        <ele>304</ele>
        <time>2011-01-23T08:38:04Z</time>
      </trkpt>
      <trkpt lat="49.17899" lon="6.98892">
        <ele>304</ele>
        <time>2011-01-23T08:38:05Z</time>
      </trkpt>
      <trkpt lat="49.17902" lon="6.98896">
        <ele>304</ele>
        <time>2011-01-23T08:38:06Z</time>
      </trkpt>
      <trkpt lat="49.17902" lon="6.98898">
        <ele>304</ele>
        <time>2011-01-23T08:38:07Z</time>
      </trkpt>
      <trkpt lat="49.17902" lon="6.989">
        <ele>304</ele>
        <time>2011-01-23T08:38:08Z</time>
      </trkpt>
      <trkpt lat="49.17902" lon="6.98902">
        <ele>305</ele>
        <time>2011-01-23T08:38:09Z</time>
      </trkpt>
      <trkpt lat="49.17902" lon="6.98904">
        <ele>306</ele>
        <time>2011-01-23T08:38:10Z</time>
      </trkpt>
      <trkpt lat="49.17901" lon="6.98906">
        <ele>306</ele>
        <time>2011-01-23T08:38:12Z</time>
      </trkpt>
      <trkpt lat="49.17901" lon="6.9891">
        <ele>306</ele>
        <time>2011-01-23T08:38:14Z</time>
      </trkpt>
      <trkpt lat="49.179" lon="6.98912">
        <ele>306</ele>
        <time>2011-01-23T08:38:16Z</time>
      </trkpt>
      <trkpt lat="49.17899" lon="6.98914">
        <ele>306</ele>
        <time>2011-01-23T08:38:17Z</time>
      </trkpt>
      <trkpt lat="49.17898" lon="6.98917">
        <ele>306</ele>
        <time>2011-01-23T08:38:19Z</time>
      </trkpt>
      <trkpt lat="49.17897" lon="6.98919">
        <ele>306</ele>
        <time>2011-01-23T08:38:21Z</time>
      </trkpt>
      <trkpt lat="49.17897" lon="6.98922">
        <ele>306</ele>
        <time>2011-01-23T08:38:23Z</time>
      </trkpt>
      <trkpt lat="49.17897" lon="6.98924">
        <ele>306</ele>
        <time>2011-01-23T08:38:24Z</time>
      </trkpt>
      <trkpt lat="49.17896" lon="6.98927">
        <ele>306</ele>
        <time>2011-01-23T08:38:26Z</time>
      </trkpt>
      <trkpt lat="49.17897" lon="6.98929">
        <ele>306</ele>
        <time>2011-01-23T08:38:28Z</time>
      </trkpt>
      <trkpt lat="49.17897" lon="6.98931">
        <ele>306</ele>
        <time>2011-01-23T08:38:29Z</time>
      </trkpt>
      <trkpt lat="49.17898" lon="6.98933">
        <ele>306</ele>
        <time>2011-01-23T08:38:30Z</time>
      </trkpt>
      <trkpt lat="49.17898" lon="6.98936">
        <ele>306</ele>
        <time>2011-01-23T08:38:32Z</time>
      </trkpt>
      <trkpt lat="49.17898" lon="6.98938">
        <ele>306</ele>
        <time>2011-01-23T08:38:33Z</time>
      </trkpt>
      <trkpt lat="49.17898" lon="6.9894">
        <ele>306</ele>
        <time>2011-01-23T08:38:34Z</time>
      </trkpt>
      <trkpt lat="49.17898" lon="6.98941">
        <ele>306</ele>
        <time>2011-01-23T08:38:35Z</time>
      </trkpt>
      <trkpt lat="49.17898" lon="6.98943">
        <ele>306</ele>
        <time>2011-01-23T08:38:36Z</time>
      </trkpt>
      <trkpt lat="49.17897" lon="6.98945">
        <ele>306</ele>
        <time>2011-01-23T08:38:37Z</time>
      </trkpt>
      <trkpt lat="49.17897" lon="6.98947">
        <ele>306</ele>
        <time>2011-01-23T08:38:39Z</time>
      </trkpt>
      <trkpt lat="49.17896" lon="6.98948">
        <ele>306</ele>
        <time>2011-01-23T08:38:41Z</time>
      </trkpt>
      <trkpt lat="49.17896" lon="6.98951">
        <ele>306</ele>
        <time>2011-01-23T08:38:43Z</time>
      </trkpt>
      <trkpt lat="49.17895" lon="6.98954">
        <ele>306</ele>
        <time>2011-01-23T08:38:45Z</time>
      </trkpt>
      <trkpt lat="49.17895" lon="6.98956">
        <ele>306</ele>
        <time>2011-01-23T08:38:47Z</time>
      </trkpt>
      <trkpt lat="49.17895" lon="6.98958">
        <ele>306</ele>
        <time>2011-01-23T08:38:49Z</time>
      </trkpt>
      <trkpt lat="49.17897" lon="6.9896">
        <ele>306</ele>
        <time>2011-01-23T08:38:50Z</time>
      </trkpt>
      <trkpt lat="49.17897" lon="6.98962">
        <ele>306</ele>
        <time>2011-01-23T08:38:51Z</time>
      </trkpt>
      <trkpt lat="49.17897" lon="6.98965">
        <ele>306</ele>
        <time>2011-01-23T08:38:53Z</time>
      </trkpt>
      <trkpt lat="49.17897" lon="6.98968">
        <ele>306</ele>
        <time>2011-01-23T08:38:55Z</time>
      </trkpt>
      <trkpt lat="49.17897" lon="6.9897">
        <ele>306</ele>
        <time>2011-01-23T08:38:57Z</time>
      </trkpt>
      <trkpt lat="49.17897" lon="6.98973">
        <ele>306</ele>
        <time>2011-01-23T08:38:59Z</time>
      </trkpt>
      <trkpt lat="49.17897" lon="6.98976">
        <ele>306</ele>
        <time>2011-01-23T08:39:01Z</time>
      </trkpt>
      <trkpt lat="49.17897" lon="6.98979">
        <ele>306</ele>
        <time>2011-01-23T08:39:03Z</time>
      </trkpt>
      <trkpt lat="49.17897" lon="6.98982">
        <ele>306</ele>
        <time>2011-01-23T08:39:05Z</time>
      </trkpt>
      <trkpt lat="49.17896" lon="6.98984">
        <ele>306</ele>
        <time>2011-01-23T08:39:07Z</time>
      </trkpt>
      <trkpt lat="49.17895" lon="6.98985">
        <ele>306</ele>
        <time>2011-01-23T08:39:09Z</time>
      </trkpt>
      <trkpt lat="49.17895" lon="6.98987">
        <ele>306</ele>
        <time>2011-01-23T08:39:11Z</time>
      </trkpt>
      <trkpt lat="49.17895" lon="6.98989">
        <ele>306</ele>
        <time>2011-01-23T08:39:13Z</time>
      </trkpt>
      <trkpt lat="49.17895" lon="6.98992">
        <ele>305</ele>
        <time>2011-01-23T08:39:15Z</time>
      </trkpt>
      <trkpt lat="49.17896" lon="6.98994">
        <ele>305</ele>
        <time>2011-01-23T08:39:17Z</time>
      </trkpt>
      <trkpt lat="49.17897" lon="6.98997">
        <ele>304</ele>
        <time>2011-01-23T08:39:19Z</time>
      </trkpt>
      <trkpt lat="49.17897" lon="6.98999">
        <ele>304</ele>
        <time>2011-01-23T08:39:20Z</time>
      </trkpt>
      <trkpt lat="49.17897" lon="6.99002">
        <ele>303</ele>
        <time>2011-01-23T08:39:22Z</time>
      </trkpt>
      <trkpt lat="49.17898" lon="6.99006">
        <ele>303</ele>
        <time>2011-01-23T08:39:24Z</time>
      </trkpt>
      <trkpt lat="49.179" lon="6.99008">
        <ele>303</ele>
        <time>2011-01-23T08:39:25Z</time>
      </trkpt>
      <trkpt lat="49.17901" lon="6.99011">
        <ele>303</ele>
        <time>2011-01-23T08:39:26Z</time>
      </trkpt>
      <trkpt lat="49.17902" lon="6.99013">
        <ele>303</ele>
        <time>2011-01-23T08:39:27Z</time>
      </trkpt>
      <trkpt lat="49.17903" lon="6.99015">
        <ele>303</ele>
        <time>2011-01-23T08:39:28Z</time>
      </trkpt>
      <trkpt lat="49.17902" lon="6.99016">
        <ele>303</ele>
        <time>2011-01-23T08:39:29Z</time>
      </trkpt>
      <trkpt lat="49.17902" lon="6.99019">
        <ele>303</ele>
        <time>2011-01-23T08:39:31Z</time>
      </trkpt>
      <trkpt lat="49.17902" lon="6.99022">
        <ele>303</ele>
        <time>2011-01-23T08:39:33Z</time>
      </trkpt>
      <trkpt lat="49.17902" lon="6.99024">
        <ele>303</ele>
        <time>2011-01-23T08:39:35Z</time>
      </trkpt>
      <trkpt lat="49.17902" lon="6.99026">
        <ele>304</ele>
        <time>2011-01-23T08:39:37Z</time>
      </trkpt>
      <trkpt lat="49.17902" lon="6.99028">
        <ele>304</ele>
        <time>2011-01-23T08:39:39Z</time>
      </trkpt>
      <trkpt lat="49.17902" lon="6.9903">
        <ele>304</ele>
        <time>2011-01-23T08:39:40Z</time>
      </trkpt>
      <trkpt lat="49.17901" lon="6.99032">
        <ele>304</ele>
        <time>2011-01-23T08:39:42Z</time>
      </trkpt>
      <trkpt lat="49.17901" lon="6.99035">
        <ele>304</ele>
        <time>2011-01-23T08:39:44Z</time>
      </trkpt>
      <trkpt lat="49.179" lon="6.99037">
        <ele>304</ele>
        <time>2011-01-23T08:39:45Z</time>
      </trkpt>
      <trkpt lat="49.179" lon="6.9904">
        <ele>304</ele>
        <time>2011-01-23T08:39:47Z</time>
      </trkpt>
      <trkpt lat="49.179" lon="6.99042">
        <ele>304</ele>
        <time>2011-01-23T08:39:48Z</time>
      </trkpt>
      <trkpt lat="49.17899" lon="6.99045">
        <ele>304</ele>
        <time>2011-01-23T08:39:50Z</time>
      </trkpt>
      <trkpt lat="49.17899" lon="6.99047">
        <ele>304</ele>
        <time>2011-01-23T08:39:51Z</time>
      </trkpt>
      <trkpt lat="49.17899" lon="6.99049">
        <ele>304</ele>
        <time>2011-01-23T08:39:52Z</time>
      </trkpt>
      <trkpt lat="49.17899" lon="6.99051">
        <ele>304</ele>
        <time>2011-01-23T08:39:53Z</time>
      </trkpt>
      <trkpt lat="49.17899" lon="6.99052">
        <ele>304</ele>
        <time>2011-01-23T08:39:54Z</time>
      </trkpt>
      <trkpt lat="49.17898" lon="6.99054">
        <ele>304</ele>
        <time>2011-01-23T08:39:55Z</time>
      </trkpt>
      <trkpt lat="49.17898" lon="6.99057">
        <ele>303</ele>
        <time>2011-01-23T08:39:57Z</time>
      </trkpt>
      <trkpt lat="49.17897" lon="6.99059">
        <ele>303</ele>
        <time>2011-01-23T08:39:58Z</time>
      </trkpt>
      <trkpt lat="49.17897" lon="6.99061">
        <ele>302</ele>
        <time>2011-01-23T08:39:59Z</time>
      </trkpt>
      <trkpt lat="49.17897" lon="6.99063">
        <ele>302</ele>
        <time>2011-01-23T08:40:00Z</time>
      </trkpt>
      <trkpt lat="49.17897" lon="6.99065">
        <ele>302</ele>
        <time>2011-01-23T08:40:01Z</time>
      </trkpt>
      <trkpt lat="49.17897" lon="6.99066">
        <ele>302</ele>
        <time>2011-01-23T08:40:02Z</time>
      </trkpt>
      <trkpt lat="49.17897" lon="6.99069">
        <ele>302</ele>
        <time>2011-01-23T08:40:04Z</time>
      </trkpt>
      <trkpt lat="49.17898" lon="6.99072">
        <ele>302</ele>
        <time>2011-01-23T08:40:06Z</time>
      </trkpt>
      <trkpt lat="49.17899" lon="6.99073">
        <ele>302</ele>
        <time>2011-01-23T08:40:08Z</time>
      </trkpt>
      <trkpt lat="49.17901" lon="6.99074">
        <ele>302</ele>
        <time>2011-01-23T08:40:10Z</time>
      </trkpt>
      <trkpt lat="49.17901" lon="6.99076">
        <ele>301</ele>
        <time>2011-01-23T08:40:13Z</time>
      </trkpt>
      <trkpt lat="49.17902" lon="6.99078">
        <ele>301</ele>
        <time>2011-01-23T08:40:15Z</time>
      </trkpt>
      <trkpt lat="49.17902" lon="6.99081">
        <ele>301</ele>
        <time>2011-01-23T08:40:17Z</time>
      </trkpt>
      <trkpt lat="49.17902" lon="6.99083">
        <ele>301</ele>
        <time>2011-01-23T08:40:18Z</time>
      </trkpt>
      <trkpt lat="49.17902" lon="6.99085">
        <ele>301</ele>
        <time>2011-01-23T08:40:19Z</time>
      </trkpt>
      <trkpt lat="49.17905" lon="6.99088">
        <ele>301</ele>
        <time>2011-01-23T08:40:20Z</time>
      </trkpt>
      <trkpt lat="49.17907" lon="6.9909">
        <ele>301</ele>
        <time>2011-01-23T08:40:21Z</time>
      </trkpt>
      <trkpt lat="49.17907" lon="6.99092">
        <ele>301</ele>
        <time>2011-01-23T08:40:22Z</time>
      </trkpt>
      <trkpt lat="49.17907" lon="6.99094">
        <ele>301</ele>
        <time>2011-01-23T08:40:23Z</time>
      </trkpt>
      <trkpt lat="49.17908" lon="6.99097">
        <ele>301</ele>
        <time>2011-01-23T08:40:25Z</time>
      </trkpt>
      <trkpt lat="49.17908" lon="6.991">
        <ele>301</ele>
        <time>2011-01-23T08:40:27Z</time>
      </trkpt>
      <trkpt lat="49.17908" lon="6.99103">
        <ele>301</ele>
        <time>2011-01-23T08:40:29Z</time>
      </trkpt>
      <trkpt lat="49.17908" lon="6.99104">
        <ele>301</ele>
        <time>2011-01-23T08:40:30Z</time>
      </trkpt>
      <trkpt lat="49.17908" lon="6.99106">
        <ele>301</ele>
        <time>2011-01-23T08:40:31Z</time>
      </trkpt>
      <trkpt lat="49.17908" lon="6.99109">
        <ele>301</ele>
        <time>2011-01-23T08:40:33Z</time>
      </trkpt>
      <trkpt lat="49.17907" lon="6.99113">
        <ele>301</ele>
        <time>2011-01-23T08:40:35Z</time>
      </trkpt>
      <trkpt lat="49.17907" lon="6.99115">
        <ele>301</ele>
        <time>2011-01-23T08:40:36Z</time>
      </trkpt>
      <trkpt lat="49.17907" lon="6.99117">
        <ele>301</ele>
        <time>2011-01-23T08:40:38Z</time>
      </trkpt>
      <trkpt lat="49.17907" lon="6.99119">
        <ele>301</ele>
        <time>2011-01-23T08:40:39Z</time>
      </trkpt>
      <trkpt lat="49.17907" lon="6.99121">
        <ele>301</ele>
        <time>2011-01-23T08:40:40Z</time>
      </trkpt>
      <trkpt lat="49.17908" lon="6.99123">
        <ele>301</ele>
        <time>2011-01-23T08:40:42Z</time>
      </trkpt>
      <trkpt lat="49.17909" lon="6.99125">
        <ele>301</ele>
        <time>2011-01-23T08:40:44Z</time>
      </trkpt>
      <trkpt lat="49.17908" lon="6.99128">
        <ele>301</ele>
        <time>2011-01-23T08:40:45Z</time>
      </trkpt>
      <trkpt lat="49.17908" lon="6.9913">
        <ele>301</ele>
        <time>2011-01-23T08:40:46Z</time>
      </trkpt>
      <trkpt lat="49.17908" lon="6.99132">
        <ele>301</ele>
        <time>2011-01-23T08:40:47Z</time>
      </trkpt>
      <trkpt lat="49.17908" lon="6.99134">
        <ele>301</ele>
        <time>2011-01-23T08:40:48Z</time>
      </trkpt>
      <trkpt lat="49.17908" lon="6.99136">
        <ele>301</ele>
        <time>2011-01-23T08:40:49Z</time>
      </trkpt>
      <trkpt lat="49.17908" lon="6.99138">
        <ele>301</ele>
        <time>2011-01-23T08:40:50Z</time>
      </trkpt>
      <trkpt lat="49.17908" lon="6.9914">
        <ele>301</ele>
        <time>2011-01-23T08:40:51Z</time>
      </trkpt>
      <trkpt lat="49.17908" lon="6.99142">
        <ele>301</ele>
        <time>2011-01-23T08:40:53Z</time>
      </trkpt>
      <trkpt lat="49.17909" lon="6.99144">
        <ele>301</ele>
        <time>2011-01-23T08:40:55Z</time>
      </trkpt>
      <trkpt lat="49.17908" lon="6.99147">
        <ele>301</ele>
        <time>2011-01-23T08:40:57Z</time>
      </trkpt>
      <trkpt lat="49.17912" lon="6.99151">
        <ele>301</ele>
        <time>2011-01-23T08:40:59Z</time>
      </trkpt>
      <trkpt lat="49.17913" lon="6.99153">
        <ele>301</ele>
        <time>2011-01-23T08:41:01Z</time>
      </trkpt>
      <trkpt lat="49.17914" lon="6.99154">
        <ele>302</ele>
        <time>2011-01-23T08:41:03Z</time>
      </trkpt>
      <trkpt lat="49.17915" lon="6.99155">
        <ele>302</ele>
        <time>2011-01-23T08:41:05Z</time>
      </trkpt>
      <trkpt lat="49.17916" lon="6.99157">
        <ele>302</ele>
        <time>2011-01-23T08:41:07Z</time>
      </trkpt>
      <trkpt lat="49.17917" lon="6.99158">
        <ele>302</ele>
        <time>2011-01-23T08:41:09Z</time>
      </trkpt>
      <trkpt lat="49.17918" lon="6.9916">
        <ele>302</ele>
        <time>2011-01-23T08:41:11Z</time>
      </trkpt>
      <trkpt lat="49.17919" lon="6.99162">
        <ele>302</ele>
        <time>2011-01-23T08:41:13Z</time>
      </trkpt>
      <trkpt lat="49.1792" lon="6.99164">
        <ele>302</ele>
        <time>2011-01-23T08:41:15Z</time>
      </trkpt>
      <trkpt lat="49.1792" lon="6.99166">
        <ele>302</ele>
        <time>2011-01-23T08:41:16Z</time>
      </trkpt>
      <trkpt lat="49.1792" lon="6.99169">
        <ele>302</ele>
        <time>2011-01-23T08:41:18Z</time>
      </trkpt>
      <trkpt lat="49.1792" lon="6.99172">
        <ele>302</ele>
        <time>2011-01-23T08:41:20Z</time>
      </trkpt>
      <trkpt lat="49.17921" lon="6.99173">
        <ele>302</ele>
        <time>2011-01-23T08:41:21Z</time>
      </trkpt>
      <trkpt lat="49.17921" lon="6.99175">
        <ele>302</ele>
        <time>2011-01-23T08:41:22Z</time>
      </trkpt>
      <trkpt lat="49.17921" lon="6.99178">
        <ele>302</ele>
        <time>2011-01-23T08:41:24Z</time>
      </trkpt>
      <trkpt lat="49.17922" lon="6.9918">
        <ele>302</ele>
        <time>2011-01-23T08:41:25Z</time>
      </trkpt>
      <trkpt lat="49.17922" lon="6.99183">
        <ele>302</ele>
        <time>2011-01-23T08:41:27Z</time>
      </trkpt>
      <trkpt lat="49.17922" lon="6.99185">
        <ele>302</ele>
        <time>2011-01-23T08:41:29Z</time>
      </trkpt>
      <trkpt lat="49.17923" lon="6.99187">
        <ele>302</ele>
        <time>2011-01-23T08:41:31Z</time>
      </trkpt>
      <trkpt lat="49.17923" lon="6.99189">
        <ele>302</ele>
        <time>2011-01-23T08:41:32Z</time>
      </trkpt>
      <trkpt lat="49.17923" lon="6.99191">
        <ele>302</ele>
        <time>2011-01-23T08:41:33Z</time>
      </trkpt>
      <trkpt lat="49.17923" lon="6.99192">
        <ele>302</ele>
        <time>2011-01-23T08:41:35Z</time>
      </trkpt>
      <trkpt lat="49.17925" lon="6.99193">
        <ele>302</ele>
        <time>2011-01-23T08:41:50Z</time>
      </trkpt>
      <trkpt lat="49.17924" lon="6.99195">
        <ele>302</ele>
        <time>2011-01-23T08:42:00Z</time>
      </trkpt>
      <trkpt lat="49.17923" lon="6.99195">
        <ele>302</ele>
        <time>2011-01-23T08:42:09Z</time>
      </trkpt>
      <trkpt lat="49.17923" lon="6.99193">
        <ele>302</ele>
        <time>2011-01-23T08:42:35Z</time>
      </trkpt>
      <trkpt lat="49.17922" lon="6.99191">
        <ele>302</ele>
        <time>2011-01-23T08:42:37Z</time>
      </trkpt>
      <trkpt lat="49.17923" lon="6.99192">
        <ele>302</ele>
        <time>2011-01-23T08:42:45Z</time>
      </trkpt>
      <trkpt lat="49.17925" lon="6.99192">
        <ele>302</ele>
        <time>2011-01-23T08:42:47Z</time>
      </trkpt>
      <trkpt lat="49.17926" lon="6.99192">
        <ele>302</ele>
        <time>2011-01-23T08:42:49Z</time>
      </trkpt>
      <trkpt lat="49.17928" lon="6.99192">
        <ele>302</ele>
        <time>2011-01-23T08:42:53Z</time>
      </trkpt>
      <trkpt lat="49.17926" lon="6.99192">
        <ele>304</ele>
        <time>2011-01-23T08:43:48Z</time>
      </trkpt>
      <trkpt lat="49.17925" lon="6.99193">
        <ele>304</ele>
        <time>2011-01-23T08:43:51Z</time>
      </trkpt>
      <trkpt lat="49.17923" lon="6.99193">
        <ele>304</ele>
        <time>2011-01-23T08:43:54Z</time>
      </trkpt>
      <trkpt lat="49.17924" lon="6.99194">
        <ele>304</ele>
        <time>2011-01-23T08:44:17Z</time>
      </trkpt>
      <trkpt lat="49.17924" lon="6.99196">
        <ele>304</ele>
        <time>2011-01-23T08:44:29Z</time>
      </trkpt>
      <trkpt lat="49.17924" lon="6.99199">
        <ele>304</ele>
        <time>2011-01-23T08:44:31Z</time>
      </trkpt>
      <trkpt lat="49.17923" lon="6.99201">
        <ele>304</ele>
        <time>2011-01-23T08:44:33Z</time>
      </trkpt>
      <trkpt lat="49.17921" lon="6.99203">
        <ele>304</ele>
        <time>2011-01-23T08:44:35Z</time>
      </trkpt>
      <trkpt lat="49.1792" lon="6.99205">
        <ele>304</ele>
        <time>2011-01-23T08:44:37Z</time>
      </trkpt>
      <trkpt lat="49.17919" lon="6.99206">
        <ele>304</ele>
        <time>2011-01-23T08:44:39Z</time>
      </trkpt>
      <trkpt lat="49.17918" lon="6.99208">
        <ele>304</ele>
        <time>2011-01-23T08:44:42Z</time>
      </trkpt>
      <trkpt lat="49.17917" lon="6.9921">
        <ele>305</ele>
        <time>2011-01-23T08:44:45Z</time>
      </trkpt>
      <trkpt lat="49.17916" lon="6.99212">
        <ele>305</ele>
        <time>2011-01-23T08:44:47Z</time>
      </trkpt>
      <trkpt lat="49.17914" lon="6.99213">
        <ele>305</ele>
        <time>2011-01-23T08:44:49Z</time>
      </trkpt>
      <trkpt lat="49.17913" lon="6.99214">
        <ele>305</ele>
        <time>2011-01-23T08:44:51Z</time>
      </trkpt>
      <trkpt lat="49.17912" lon="6.99216">
        <ele>305</ele>
        <time>2011-01-23T08:44:53Z</time>
      </trkpt>
      <trkpt lat="49.1791" lon="6.99218">
        <ele>305</ele>
        <time>2011-01-23T08:44:55Z</time>
      </trkpt>
      <trkpt lat="49.17909" lon="6.99219">
        <ele>305</ele>
        <time>2011-01-23T08:44:57Z</time>
      </trkpt>
      <trkpt lat="49.17908" lon="6.99221">
        <ele>305</ele>
        <time>2011-01-23T08:44:59Z</time>
      </trkpt>
      <trkpt lat="49.17907" lon="6.99223">
        <ele>306</ele>
        <time>2011-01-23T08:45:01Z</time>
      </trkpt>
      <trkpt lat="49.17906" lon="6.99225">
        <ele>306</ele>
        <time>2011-01-23T08:45:03Z</time>
      </trkpt>
      <trkpt lat="49.17905" lon="6.99226">
        <ele>307</ele>
        <time>2011-01-23T08:45:05Z</time>
      </trkpt>
      <trkpt lat="49.17903" lon="6.99228">
        <ele>307</ele>
        <time>2011-01-23T08:45:07Z</time>
      </trkpt>
      <trkpt lat="49.17902" lon="6.9923">
        <ele>307</ele>
        <time>2011-01-23T08:45:09Z</time>
      </trkpt>
      <trkpt lat="49.17899" lon="6.99233">
        <ele>308</ele>
        <time>2011-01-23T08:45:11Z</time>
      </trkpt>
      <trkpt lat="49.17898" lon="6.99236">
        <ele>308</ele>
        <time>2011-01-23T08:45:12Z</time>
      </trkpt>
      <trkpt lat="49.17896" lon="6.99238">
        <ele>308</ele>
        <time>2011-01-23T08:45:13Z</time>
      </trkpt>
      <trkpt lat="49.17894" lon="6.9924">
        <ele>308</ele>
        <time>2011-01-23T08:45:14Z</time>
      </trkpt>
      <trkpt lat="49.17892" lon="6.99242">
        <ele>309</ele>
        <time>2011-01-23T08:45:15Z</time>
      </trkpt>
      <trkpt lat="49.1789" lon="6.99243">
        <ele>309</ele>
        <time>2011-01-23T08:45:16Z</time>
      </trkpt>
      <trkpt lat="49.17889" lon="6.99244">
        <ele>309</ele>
        <time>2011-01-23T08:45:17Z</time>
      </trkpt>
      <trkpt lat="49.17887" lon="6.99245">
        <ele>309</ele>
        <time>2011-01-23T08:45:18Z</time>
      </trkpt>
      <trkpt lat="49.17886" lon="6.99247">
        <ele>310</ele>
        <time>2011-01-23T08:45:20Z</time>
      </trkpt>
      <trkpt lat="49.17886" lon="6.99249">
        <ele>311</ele>
        <time>2011-01-23T08:45:22Z</time>
      </trkpt>
      <trkpt lat="49.17885" lon="6.99251">
        <ele>312</ele>
        <time>2011-01-23T08:45:27Z</time>
      </trkpt>
      <trkpt lat="49.17884" lon="6.99252">
        <ele>312</ele>
        <time>2011-01-23T08:45:29Z</time>
      </trkpt>
      <trkpt lat="49.17882" lon="6.99253">
        <ele>312</ele>
        <time>2011-01-23T08:45:31Z</time>
      </trkpt>
      <trkpt lat="49.17881" lon="6.99254">
        <ele>313</ele>
        <time>2011-01-23T08:45:33Z</time>
      </trkpt>
      <trkpt lat="49.17879" lon="6.99256">
        <ele>313</ele>
        <time>2011-01-23T08:45:35Z</time>
      </trkpt>
      <trkpt lat="49.17878" lon="6.99257">
        <ele>313</ele>
        <time>2011-01-23T08:45:37Z</time>
      </trkpt>
      <trkpt lat="49.17876" lon="6.99259">
        <ele>313</ele>
        <time>2011-01-23T08:45:39Z</time>
      </trkpt>
      <trkpt lat="49.17874" lon="6.9926">
        <ele>314</ele>
        <time>2011-01-23T08:45:41Z</time>
      </trkpt>
      <trkpt lat="49.17872" lon="6.99261">
        <ele>314</ele>
        <time>2011-01-23T08:45:43Z</time>
      </trkpt>
      <trkpt lat="49.1787" lon="6.99263">
        <ele>314</ele>
        <time>2011-01-23T08:45:45Z</time>
      </trkpt>
      <trkpt lat="49.17869" lon="6.99264">
        <ele>315</ele>
        <time>2011-01-23T08:45:47Z</time>
      </trkpt>
      <trkpt lat="49.17867" lon="6.99266">
        <ele>315</ele>
        <time>2011-01-23T08:45:49Z</time>
      </trkpt>
      <trkpt lat="49.17866" lon="6.99266">
        <ele>315</ele>
        <time>2011-01-23T08:45:50Z</time>
      </trkpt>
      <trkpt lat="49.17864" lon="6.99268">
        <ele>315</ele>
        <time>2011-01-23T08:45:52Z</time>
      </trkpt>
      <trkpt lat="49.17862" lon="6.99269">
        <ele>316</ele>
        <time>2011-01-23T08:45:54Z</time>
      </trkpt>
      <trkpt lat="49.1786" lon="6.99271">
        <ele>316</ele>
        <time>2011-01-23T08:45:56Z</time>
      </trkpt>
      <trkpt lat="49.17859" lon="6.99272">
        <ele>317</ele>
        <time>2011-01-23T08:45:58Z</time>
      </trkpt>
      <trkpt lat="49.17857" lon="6.99273">
        <ele>317</ele>
        <time>2011-01-23T08:46:00Z</time>
      </trkpt>
      <trkpt lat="49.17855" lon="6.99275">
        <ele>317</ele>
        <time>2011-01-23T08:46:02Z</time>
      </trkpt>
      <trkpt lat="49.17854" lon="6.99276">
        <ele>318</ele>
        <time>2011-01-23T08:46:04Z</time>
      </trkpt>
      <trkpt lat="49.17853" lon="6.99278">
        <ele>318</ele>
        <time>2011-01-23T08:46:06Z</time>
      </trkpt>
      <trkpt lat="49.17851" lon="6.99279">
        <ele>319</ele>
        <time>2011-01-23T08:46:08Z</time>
      </trkpt>
      <trkpt lat="49.1785" lon="6.9928">
        <ele>319</ele>
        <time>2011-01-23T08:46:10Z</time>
      </trkpt>
      <trkpt lat="49.17848" lon="6.99281">
        <ele>319</ele>
        <time>2011-01-23T08:46:12Z</time>
      </trkpt>
      <trkpt lat="49.17847" lon="6.99282">
        <ele>319</ele>
        <time>2011-01-23T08:46:14Z</time>
      </trkpt>
      <trkpt lat="49.17845" lon="6.99283">
        <ele>319</ele>
        <time>2011-01-23T08:46:16Z</time>
      </trkpt>
      <trkpt lat="49.17843" lon="6.99285">
        <ele>319</ele>
        <time>2011-01-23T08:46:18Z</time>
      </trkpt>
      <trkpt lat="49.17842" lon="6.99287">
        <ele>319</ele>
        <time>2011-01-23T08:46:20Z</time>
      </trkpt>
      <trkpt lat="49.1784" lon="6.99288">
        <ele>319</ele>
        <time>2011-01-23T08:46:22Z</time>
      </trkpt>
      <trkpt lat="49.17838" lon="6.9929">
        <ele>319</ele>
        <time>2011-01-23T08:46:24Z</time>
      </trkpt>
      <trkpt lat="49.17836" lon="6.99291">
        <ele>320</ele>
        <time>2011-01-23T08:46:26Z</time>
      </trkpt>
      <trkpt lat="49.17835" lon="6.99293">
        <ele>320</ele>
        <time>2011-01-23T08:46:28Z</time>
      </trkpt>
      <trkpt lat="49.17833" lon="6.99294">
        <ele>320</ele>
        <time>2011-01-23T08:46:30Z</time>
      </trkpt>
      <trkpt lat="49.17831" lon="6.99296">
        <ele>320</ele>
        <time>2011-01-23T08:46:32Z</time>
      </trkpt>
      <trkpt lat="49.17829" lon="6.99297">
        <ele>320</ele>
        <time>2011-01-23T08:46:34Z</time>
      </trkpt>
      <trkpt lat="49.17827" lon="6.99298">
        <ele>320</ele>
        <time>2011-01-23T08:46:36Z</time>
      </trkpt>
      <trkpt lat="49.17826" lon="6.99299">
        <ele>321</ele>
        <time>2011-01-23T08:46:37Z</time>
      </trkpt>
      <trkpt lat="49.17824" lon="6.993">
        <ele>321</ele>
        <time>2011-01-23T08:46:39Z</time>
      </trkpt>
      <trkpt lat="49.17823" lon="6.99301">
        <ele>321</ele>
        <time>2011-01-23T08:46:41Z</time>
      </trkpt>
      <trkpt lat="49.17821" lon="6.99302">
        <ele>321</ele>
        <time>2011-01-23T08:46:42Z</time>
      </trkpt>
      <trkpt lat="49.1782" lon="6.99302">
        <ele>321</ele>
        <time>2011-01-23T08:46:43Z</time>
      </trkpt>
      <trkpt lat="49.17818" lon="6.99304">
        <ele>321</ele>
        <time>2011-01-23T08:46:45Z</time>
      </trkpt>
      <trkpt lat="49.17816" lon="6.99305">
        <ele>322</ele>
        <time>2011-01-23T08:46:47Z</time>
      </trkpt>
      <trkpt lat="49.17815" lon="6.99306">
        <ele>322</ele>
        <time>2011-01-23T08:46:48Z</time>
      </trkpt>
      <trkpt lat="49.17813" lon="6.99306">
        <ele>322</ele>
        <time>2011-01-23T08:46:50Z</time>
      </trkpt>
      <trkpt lat="49.17811" lon="6.99307">
        <ele>322</ele>
        <time>2011-01-23T08:46:52Z</time>
      </trkpt>
      <trkpt lat="49.17809" lon="6.99308">
        <ele>322</ele>
        <time>2011-01-23T08:46:54Z</time>
      </trkpt>
      <trkpt lat="49.17807" lon="6.99309">
        <ele>322</ele>
        <time>2011-01-23T08:46:56Z</time>
      </trkpt>
      <trkpt lat="49.17806" lon="6.99309">
        <ele>322</ele>
        <time>2011-01-23T08:46:57Z</time>
      </trkpt>
      <trkpt lat="49.17805" lon="6.9931">
        <ele>322</ele>
        <time>2011-01-23T08:46:58Z</time>
      </trkpt>
      <trkpt lat="49.17804" lon="6.99311">
        <ele>322</ele>
        <time>2011-01-23T08:46:59Z</time>
      </trkpt>
      <trkpt lat="49.17802" lon="6.99312">
        <ele>322</ele>
        <time>2011-01-23T08:47:01Z</time>
      </trkpt>
      <trkpt lat="49.17799" lon="6.99313">
        <ele>323</ele>
        <time>2011-01-23T08:47:03Z</time>
      </trkpt>
      <trkpt lat="49.17798" lon="6.99313">
        <ele>323</ele>
        <time>2011-01-23T08:47:04Z</time>
      </trkpt>
      <trkpt lat="49.17796" lon="6.99315">
        <ele>323</ele>
        <time>2011-01-23T08:47:06Z</time>
      </trkpt>
      <trkpt lat="49.17794" lon="6.99316">
        <ele>323</ele>
        <time>2011-01-23T08:47:08Z</time>
      </trkpt>
      <trkpt lat="49.17792" lon="6.99317">
        <ele>323</ele>
        <time>2011-01-23T08:47:10Z</time>
      </trkpt>
      <trkpt lat="49.1779" lon="6.99318">
        <ele>323</ele>
        <time>2011-01-23T08:47:12Z</time>
      </trkpt>
      <trkpt lat="49.17788" lon="6.99319">
        <ele>323</ele>
        <time>2011-01-23T08:47:14Z</time>
      </trkpt>
      <trkpt lat="49.17786" lon="6.9932">
        <ele>323</ele>
        <time>2011-01-23T08:47:16Z</time>
      </trkpt>
      <trkpt lat="49.17784" lon="6.99321">
        <ele>324</ele>
        <time>2011-01-23T08:47:18Z</time>
      </trkpt>
      <trkpt lat="49.17783" lon="6.99321">
        <ele>324</ele>
        <time>2011-01-23T08:47:19Z</time>
      </trkpt>
      <trkpt lat="49.17782" lon="6.99321">
        <ele>324</ele>
        <time>2011-01-23T08:47:20Z</time>
      </trkpt>
      <trkpt lat="49.1778" lon="6.99322">
        <ele>325</ele>
        <time>2011-01-23T08:47:22Z</time>
      </trkpt>
      <trkpt lat="49.17778" lon="6.99323">
        <ele>325</ele>
        <time>2011-01-23T08:47:24Z</time>
      </trkpt>
      <trkpt lat="49.17776" lon="6.99324">
        <ele>325</ele>
        <time>2011-01-23T08:47:25Z</time>
      </trkpt>
      <trkpt lat="49.17774" lon="6.99325">
        <ele>325</ele>
        <time>2011-01-23T08:47:27Z</time>
      </trkpt>
      <trkpt lat="49.17773" lon="6.99326">
        <ele>325</ele>
        <time>2011-01-23T08:47:28Z</time>
      </trkpt>
      <trkpt lat="49.17771" lon="6.99327">
        <ele>325</ele>
        <time>2011-01-23T08:47:30Z</time>
      </trkpt>
      <trkpt lat="49.17769" lon="6.99328">
        <ele>326</ele>
        <time>2011-01-23T08:47:32Z</time>
      </trkpt>
      <trkpt lat="49.17767" lon="6.99329">
        <ele>326</ele>
        <time>2011-01-23T08:47:34Z</time>
      </trkpt>
      <trkpt lat="49.17765" lon="6.9933">
        <ele>327</ele>
        <time>2011-01-23T08:47:35Z</time>
      </trkpt>
      <trkpt lat="49.17764" lon="6.99331">
        <ele>327</ele>
        <time>2011-01-23T08:47:36Z</time>
      </trkpt>
      <trkpt lat="49.17763" lon="6.99332">
        <ele>327</ele>
        <time>2011-01-23T08:47:37Z</time>
      </trkpt>
      <trkpt lat="49.17762" lon="6.99333">
        <ele>327</ele>
        <time>2011-01-23T08:47:38Z</time>
      </trkpt>
      <trkpt lat="49.1776" lon="6.99334">
        <ele>327</ele>
        <time>2011-01-23T08:47:39Z</time>
      </trkpt>
      <trkpt lat="49.17759" lon="6.99335">
        <ele>327</ele>
        <time>2011-01-23T08:47:40Z</time>
      </trkpt>
      <trkpt lat="49.17757" lon="6.99336">
        <ele>327</ele>
        <time>2011-01-23T08:47:42Z</time>
      </trkpt>
      <trkpt lat="49.17755" lon="6.99336">
        <ele>328</ele>
        <time>2011-01-23T08:47:44Z</time>
      </trkpt>
      <trkpt lat="49.17754" lon="6.99337">
        <ele>328</ele>
        <time>2011-01-23T08:47:45Z</time>
      </trkpt>
      <trkpt lat="49.17752" lon="6.99338">
        <ele>328</ele>
        <time>2011-01-23T08:47:46Z</time>
      </trkpt>
      <trkpt lat="49.17751" lon="6.99339">
        <ele>328</ele>
        <time>2011-01-23T08:47:48Z</time>
      </trkpt>
      <trkpt lat="49.17749" lon="6.9934">
        <ele>328</ele>
        <time>2011-01-23T08:47:50Z</time>
      </trkpt>
      <trkpt lat="49.17747" lon="6.9934">
        <ele>328</ele>
        <time>2011-01-23T08:47:51Z</time>
      </trkpt>
      <trkpt lat="49.17746" lon="6.99341">
        <ele>328</ele>
        <time>2011-01-23T08:47:52Z</time>
      </trkpt>
      <trkpt lat="49.17745" lon="6.99342">
        <ele>328</ele>
        <time>2011-01-23T08:47:53Z</time>
      </trkpt>
      <trkpt lat="49.17744" lon="6.99342">
        <ele>328</ele>
        <time>2011-01-23T08:47:54Z</time>
      </trkpt>
      <trkpt lat="49.17743" lon="6.99343">
        <ele>328</ele>
        <time>2011-01-23T08:47:55Z</time>
      </trkpt>
      <trkpt lat="49.17741" lon="6.99344">
        <ele>328</ele>
        <time>2011-01-23T08:47:57Z</time>
      </trkpt>
      <trkpt lat="49.17739" lon="6.99344">
        <ele>328</ele>
        <time>2011-01-23T08:47:58Z</time>
      </trkpt>
      <trkpt lat="49.17738" lon="6.99345">
        <ele>328</ele>
        <time>2011-01-23T08:47:59Z</time>
      </trkpt>
      <trkpt lat="49.17737" lon="6.99346">
        <ele>328</ele>
        <time>2011-01-23T08:48:00Z</time>
      </trkpt>
      <trkpt lat="49.17735" lon="6.99346">
        <ele>328</ele>
        <time>2011-01-23T08:48:01Z</time>
      </trkpt>
      <trkpt lat="49.17734" lon="6.99347">
        <ele>328</ele>
        <time>2011-01-23T08:48:02Z</time>
      </trkpt>
      <trkpt lat="49.17733" lon="6.99347">
        <ele>328</ele>
        <time>2011-01-23T08:48:03Z</time>
      </trkpt>
      <trkpt lat="49.17731" lon="6.99348">
        <ele>328</ele>
        <time>2011-01-23T08:48:04Z</time>
      </trkpt>
      <trkpt lat="49.1773" lon="6.99349">
        <ele>328</ele>
        <time>2011-01-23T08:48:05Z</time>
      </trkpt>
      <trkpt lat="49.17729" lon="6.9935">
        <ele>328</ele>
        <time>2011-01-23T08:48:06Z</time>
      </trkpt>
      <trkpt lat="49.17728" lon="6.99351">
        <ele>328</ele>
        <time>2011-01-23T08:48:07Z</time>
      </trkpt>
      <trkpt lat="49.17726" lon="6.99351">
        <ele>328</ele>
        <time>2011-01-23T08:48:08Z</time>
      </trkpt>
      <trkpt lat="49.17725" lon="6.99352">
        <ele>328</ele>
        <time>2011-01-23T08:48:09Z</time>
      </trkpt>
      <trkpt lat="49.17724" lon="6.99353">
        <ele>328</ele>
        <time>2011-01-23T08:48:10Z</time>
      </trkpt>
      <trkpt lat="49.17723" lon="6.99353">
        <ele>328</ele>
        <time>2011-01-23T08:48:11Z</time>
      </trkpt>
      <trkpt lat="49.17722" lon="6.99353">
        <ele>328</ele>
        <time>2011-01-23T08:48:12Z</time>
      </trkpt>
      <trkpt lat="49.1772" lon="6.99354">
        <ele>328</ele>
        <time>2011-01-23T08:48:13Z</time>
      </trkpt>
      <trkpt lat="49.17719" lon="6.99354">
        <ele>328</ele>
        <time>2011-01-23T08:48:14Z</time>
      </trkpt>
      <trkpt lat="49.17717" lon="6.99355">
        <ele>328</ele>
        <time>2011-01-23T08:48:16Z</time>
      </trkpt>
      <trkpt lat="49.17716" lon="6.99356">
        <ele>328</ele>
        <time>2011-01-23T08:48:17Z</time>
      </trkpt>
      <trkpt lat="49.17715" lon="6.99356">
        <ele>328</ele>
        <time>2011-01-23T08:48:18Z</time>
      </trkpt>
      <trkpt lat="49.17714" lon="6.99357">
        <ele>328</ele>
        <time>2011-01-23T08:48:19Z</time>
      </trkpt>
      <trkpt lat="49.17712" lon="6.99358">
        <ele>328</ele>
        <time>2011-01-23T08:48:21Z</time>
      </trkpt>
      <trkpt lat="49.1771" lon="6.99359">
        <ele>328</ele>
        <time>2011-01-23T08:48:22Z</time>
      </trkpt>
      <trkpt lat="49.17709" lon="6.99361">
        <ele>328</ele>
        <time>2011-01-23T08:48:24Z</time>
      </trkpt>
      <trkpt lat="49.17707" lon="6.99363">
        <ele>328</ele>
        <time>2011-01-23T08:48:26Z</time>
      </trkpt>
      <trkpt lat="49.17704" lon="6.99366">
        <ele>328</ele>
        <time>2011-01-23T08:48:28Z</time>
      </trkpt>
      <trkpt lat="49.17703" lon="6.99367">
        <ele>328</ele>
        <time>2011-01-23T08:48:29Z</time>
      </trkpt>
      <trkpt lat="49.17702" lon="6.99368">
        <ele>328</ele>
        <time>2011-01-23T08:48:30Z</time>
      </trkpt>
      <trkpt lat="49.177" lon="6.9937">
        <ele>328</ele>
        <time>2011-01-23T08:48:32Z</time>
      </trkpt>
      <trkpt lat="49.17698" lon="6.99373">
        <ele>328</ele>
        <time>2011-01-23T08:48:34Z</time>
      </trkpt>
      <trkpt lat="49.17697" lon="6.99374">
        <ele>328</ele>
        <time>2011-01-23T08:48:35Z</time>
      </trkpt>
      <trkpt lat="49.17696" lon="6.99375">
        <ele>328</ele>
        <time>2011-01-23T08:48:36Z</time>
      </trkpt>
      <trkpt lat="49.17693" lon="6.99377">
        <ele>328</ele>
        <time>2011-01-23T08:48:38Z</time>
      </trkpt>
      <trkpt lat="49.17691" lon="6.99379">
        <ele>328</ele>
        <time>2011-01-23T08:48:40Z</time>
      </trkpt>
      <trkpt lat="49.1769" lon="6.9938">
        <ele>328</ele>
        <time>2011-01-23T08:48:41Z</time>
      </trkpt>
      <trkpt lat="49.17689" lon="6.99381">
        <ele>328</ele>
        <time>2011-01-23T08:48:42Z</time>
      </trkpt>
      <trkpt lat="49.17688" lon="6.99381">
        <ele>328</ele>
        <time>2011-01-23T08:48:43Z</time>
      </trkpt>
      <trkpt lat="49.17687" lon="6.99382">
        <ele>328</ele>
        <time>2011-01-23T08:48:44Z</time>
      </trkpt>
      <trkpt lat="49.17686" lon="6.99383">
        <ele>328</ele>
        <time>2011-01-23T08:48:45Z</time>
      </trkpt>
      <trkpt lat="49.17684" lon="6.99384">
        <ele>328</ele>
        <time>2011-01-23T08:48:46Z</time>
      </trkpt>
      <trkpt lat="49.17683" lon="6.99385">
        <ele>328</ele>
        <time>2011-01-23T08:48:47Z</time>
      </trkpt>
      <trkpt lat="49.17681" lon="6.99387">
        <ele>328</ele>
        <time>2011-01-23T08:48:49Z</time>
      </trkpt>
      <trkpt lat="49.1768" lon="6.99387">
        <ele>328</ele>
        <time>2011-01-23T08:48:50Z</time>
      </trkpt>
      <trkpt lat="49.17678" lon="6.99388">
        <ele>328</ele>
        <time>2011-01-23T08:48:51Z</time>
      </trkpt>
      <trkpt lat="49.17677" lon="6.9939">
        <ele>328</ele>
        <time>2011-01-23T08:48:53Z</time>
      </trkpt>
      <trkpt lat="49.17675" lon="6.9939">
        <ele>328</ele>
        <time>2011-01-23T08:48:54Z</time>
      </trkpt>
      <trkpt lat="49.17674" lon="6.99391">
        <ele>328</ele>
        <time>2011-01-23T08:48:55Z</time>
      </trkpt>
      <trkpt lat="49.17673" lon="6.99392">
        <ele>328</ele>
        <time>2011-01-23T08:48:56Z</time>
      </trkpt>
      <trkpt lat="49.17672" lon="6.99393">
        <ele>328</ele>
        <time>2011-01-23T08:48:57Z</time>
      </trkpt>
      <trkpt lat="49.1767" lon="6.99394">
        <ele>328</ele>
        <time>2011-01-23T08:48:58Z</time>
      </trkpt>
      <trkpt lat="49.17669" lon="6.99395">
        <ele>328</ele>
        <time>2011-01-23T08:48:59Z</time>
      </trkpt>
      <trkpt lat="49.17668" lon="6.99396">
        <ele>328</ele>
        <time>2011-01-23T08:49:00Z</time>
      </trkpt>
      <trkpt lat="49.17667" lon="6.99397">
        <ele>328</ele>
        <time>2011-01-23T08:49:01Z</time>
      </trkpt>
      <trkpt lat="49.17664" lon="6.99399">
        <ele>328</ele>
        <time>2011-01-23T08:49:03Z</time>
      </trkpt>
      <trkpt lat="49.17663" lon="6.994">
        <ele>328</ele>
        <time>2011-01-23T08:49:04Z</time>
      </trkpt>
      <trkpt lat="49.17661" lon="6.99401">
        <ele>328</ele>
        <time>2011-01-23T08:49:06Z</time>
      </trkpt>
      <trkpt lat="49.1766" lon="6.99402">
        <ele>328</ele>
        <time>2011-01-23T08:49:07Z</time>
      </trkpt>
      <trkpt lat="49.17659" lon="6.99403">
        <ele>328</ele>
        <time>2011-01-23T08:49:08Z</time>
      </trkpt>
      <trkpt lat="49.17657" lon="6.99404">
        <ele>328</ele>
        <time>2011-01-23T08:49:09Z</time>
      </trkpt>
      <trkpt lat="49.17655" lon="6.99405">
        <ele>328</ele>
        <time>2011-01-23T08:49:11Z</time>
      </trkpt>
      <trkpt lat="49.17654" lon="6.99407">
        <ele>328</ele>
        <time>2011-01-23T08:49:13Z</time>
      </trkpt>
      <trkpt lat="49.17652" lon="6.99408">
        <ele>328</ele>
        <time>2011-01-23T08:49:14Z</time>
      </trkpt>
      <trkpt lat="49.1765" lon="6.9941">
        <ele>328</ele>
        <time>2011-01-23T08:49:16Z</time>
      </trkpt>
      <trkpt lat="49.17648" lon="6.99411">
        <ele>328</ele>
        <time>2011-01-23T08:49:18Z</time>
      </trkpt>
      <trkpt lat="49.17647" lon="6.99412">
        <ele>328</ele>
        <time>2011-01-23T08:49:19Z</time>
      </trkpt>
      <trkpt lat="49.17645" lon="6.99414">
        <ele>328</ele>
        <time>2011-01-23T08:49:21Z</time>
      </trkpt>
      <trkpt lat="49.17643" lon="6.99416">
        <ele>328</ele>
        <time>2011-01-23T08:49:23Z</time>
      </trkpt>
      <trkpt lat="49.17641" lon="6.99418">
        <ele>328</ele>
        <time>2011-01-23T08:49:25Z</time>
      </trkpt>
      <trkpt lat="49.17639" lon="6.99419">
        <ele>328</ele>
        <time>2011-01-23T08:49:26Z</time>
      </trkpt>
      <trkpt lat="49.17638" lon="6.9942">
        <ele>328</ele>
        <time>2011-01-23T08:49:27Z</time>
      </trkpt>
      <trkpt lat="49.17637" lon="6.9942">
        <ele>328</ele>
        <time>2011-01-23T08:49:28Z</time>
      </trkpt>
      <trkpt lat="49.17636" lon="6.99421">
        <ele>328</ele>
        <time>2011-01-23T08:49:29Z</time>
      </trkpt>
      <trkpt lat="49.17633" lon="6.99423">
        <ele>328</ele>
        <time>2011-01-23T08:49:31Z</time>
      </trkpt>
      <trkpt lat="49.17632" lon="6.99424">
        <ele>328</ele>
        <time>2011-01-23T08:49:32Z</time>
      </trkpt>
      <trkpt lat="49.17631" lon="6.99425">
        <ele>328</ele>
        <time>2011-01-23T08:49:33Z</time>
      </trkpt>
      <trkpt lat="49.1763" lon="6.99426">
        <ele>328</ele>
        <time>2011-01-23T08:49:34Z</time>
      </trkpt>
      <trkpt lat="49.17629" lon="6.99427">
        <ele>328</ele>
        <time>2011-01-23T08:49:35Z</time>
      </trkpt>
      <trkpt lat="49.17627" lon="6.99428">
        <ele>328</ele>
        <time>2011-01-23T08:49:36Z</time>
      </trkpt>
      <trkpt lat="49.17626" lon="6.99429">
        <ele>328</ele>
        <time>2011-01-23T08:49:37Z</time>
      </trkpt>
      <trkpt lat="49.17625" lon="6.9943">
        <ele>328</ele>
        <time>2011-01-23T08:49:38Z</time>
      </trkpt>
      <trkpt lat="49.17623" lon="6.99432">
        <ele>328</ele>
        <time>2011-01-23T08:49:40Z</time>
      </trkpt>
      <trkpt lat="49.17622" lon="6.99432">
        <ele>328</ele>
        <time>2011-01-23T08:49:41Z</time>
      </trkpt>
      <trkpt lat="49.17621" lon="6.99433">
        <ele>328</ele>
        <time>2011-01-23T08:49:42Z</time>
      </trkpt>
      <trkpt lat="49.17619" lon="6.99434">
        <ele>328</ele>
        <time>2011-01-23T08:49:43Z</time>
      </trkpt>
      <trkpt lat="49.17618" lon="6.99435">
        <ele>328</ele>
        <time>2011-01-23T08:49:44Z</time>
      </trkpt>
      <trkpt lat="49.17617" lon="6.99435">
        <ele>328</ele>
        <time>2011-01-23T08:49:45Z</time>
      </trkpt>
      <trkpt lat="49.17616" lon="6.99436">
        <ele>328</ele>
        <time>2011-01-23T08:49:46Z</time>
      </trkpt>
      <trkpt lat="49.17614" lon="6.99437">
        <ele>328</ele>
        <time>2011-01-23T08:49:47Z</time>
      </trkpt>
      <trkpt lat="49.17613" lon="6.99438">
        <ele>328</ele>
        <time>2011-01-23T08:49:48Z</time>
      </trkpt>
      <trkpt lat="49.17611" lon="6.9944">
        <ele>328</ele>
        <time>2011-01-23T08:49:50Z</time>
      </trkpt>
      <trkpt lat="49.17609" lon="6.99441">
        <ele>328</ele>
        <time>2011-01-23T08:49:52Z</time>
      </trkpt>
      <trkpt lat="49.17607" lon="6.99442">
        <ele>328</ele>
        <time>2011-01-23T08:49:53Z</time>
      </trkpt>
      <trkpt lat="49.17606" lon="6.99444">
        <ele>328</ele>
        <time>2011-01-23T08:49:55Z</time>
      </trkpt>
      <trkpt lat="49.17603" lon="6.99446">
        <ele>328</ele>
        <time>2011-01-23T08:49:57Z</time>
      </trkpt>
      <trkpt lat="49.17602" lon="6.99447">
        <ele>328</ele>
        <time>2011-01-23T08:49:58Z</time>
      </trkpt>
      <trkpt lat="49.17601" lon="6.99448">
        <ele>328</ele>
        <time>2011-01-23T08:49:59Z</time>
      </trkpt>
      <trkpt lat="49.17599" lon="6.99449">
        <ele>328</ele>
        <time>2011-01-23T08:50:01Z</time>
      </trkpt>
      <trkpt lat="49.17598" lon="6.9945">
        <ele>328</ele>
        <time>2011-01-23T08:50:02Z</time>
      </trkpt>
      <trkpt lat="49.17596" lon="6.99452">
        <ele>328</ele>
        <time>2011-01-23T08:50:04Z</time>
      </trkpt>
      <trkpt lat="49.17595" lon="6.99453">
        <ele>328</ele>
        <time>2011-01-23T08:50:05Z</time>
      </trkpt>
      <trkpt lat="49.17593" lon="6.99454">
        <ele>328</ele>
        <time>2011-01-23T08:50:06Z</time>
      </trkpt>
      <trkpt lat="49.17592" lon="6.99455">
        <ele>327</ele>
        <time>2011-01-23T08:50:07Z</time>
      </trkpt>
      <trkpt lat="49.17591" lon="6.99457">
        <ele>327</ele>
        <time>2011-01-23T08:50:08Z</time>
      </trkpt>
      <trkpt lat="49.17589" lon="6.99458">
        <ele>327</ele>
        <time>2011-01-23T08:50:09Z</time>
      </trkpt>
      <trkpt lat="49.17587" lon="6.9946">
        <ele>327</ele>
        <time>2011-01-23T08:50:11Z</time>
      </trkpt>
      <trkpt lat="49.17585" lon="6.99462">
        <ele>327</ele>
        <time>2011-01-23T08:50:13Z</time>
      </trkpt>
      <trkpt lat="49.17584" lon="6.99462">
        <ele>327</ele>
        <time>2011-01-23T08:50:15Z</time>
      </trkpt>
      <trkpt lat="49.17582" lon="6.99465">
        <ele>327</ele>
        <time>2011-01-23T08:50:17Z</time>
      </trkpt>
      <trkpt lat="49.17581" lon="6.99466">
        <ele>327</ele>
        <time>2011-01-23T08:50:18Z</time>
      </trkpt>
      <trkpt lat="49.17579" lon="6.99468">
        <ele>327</ele>
        <time>2011-01-23T08:50:20Z</time>
      </trkpt>
      <trkpt lat="49.17577" lon="6.99471">
        <ele>327</ele>
        <time>2011-01-23T08:50:22Z</time>
      </trkpt>
      <trkpt lat="49.17576" lon="6.99473">
        <ele>327</ele>
        <time>2011-01-23T08:50:23Z</time>
      </trkpt>
      <trkpt lat="49.17575" lon="6.99475">
        <ele>326</ele>
        <time>2011-01-23T08:50:25Z</time>
      </trkpt>
      <trkpt lat="49.17573" lon="6.99478">
        <ele>326</ele>
        <time>2011-01-23T08:50:27Z</time>
      </trkpt>
      <trkpt lat="49.17572" lon="6.99481">
        <ele>326</ele>
        <time>2011-01-23T08:50:29Z</time>
      </trkpt>
      <trkpt lat="49.1757" lon="6.99483">
        <ele>326</ele>
        <time>2011-01-23T08:50:30Z</time>
      </trkpt>
      <trkpt lat="49.17569" lon="6.99485">
        <ele>326</ele>
        <time>2011-01-23T08:50:31Z</time>
      </trkpt>
      <trkpt lat="49.17567" lon="6.99487">
        <ele>326</ele>
        <time>2011-01-23T08:50:33Z</time>
      </trkpt>
      <trkpt lat="49.17566" lon="6.99489">
        <ele>326</ele>
        <time>2011-01-23T08:50:34Z</time>
      </trkpt>
      <trkpt lat="49.17565" lon="6.9949">
        <ele>326</ele>
        <time>2011-01-23T08:50:35Z</time>
      </trkpt>
      <trkpt lat="49.17564" lon="6.99492">
        <ele>326</ele>
        <time>2011-01-23T08:50:36Z</time>
      </trkpt>
      <trkpt lat="49.17563" lon="6.99493">
        <ele>326</ele>
        <time>2011-01-23T08:50:37Z</time>
      </trkpt>
      <trkpt lat="49.17562" lon="6.99494">
        <ele>326</ele>
        <time>2011-01-23T08:50:38Z</time>
      </trkpt>
      <trkpt lat="49.17561" lon="6.99496">
        <ele>326</ele>
        <time>2011-01-23T08:50:39Z</time>
      </trkpt>
      <trkpt lat="49.17559" lon="6.99497">
        <ele>326</ele>
        <time>2011-01-23T08:50:40Z</time>
      </trkpt>
      <trkpt lat="49.17558" lon="6.99498">
        <ele>326</ele>
        <time>2011-01-23T08:50:41Z</time>
      </trkpt>
      <trkpt lat="49.17557" lon="6.99498">
        <ele>326</ele>
        <time>2011-01-23T08:50:42Z</time>
      </trkpt>
      <trkpt lat="49.17554" lon="6.995">
        <ele>326</ele>
        <time>2011-01-23T08:50:44Z</time>
      </trkpt>
      <trkpt lat="49.17553" lon="6.99501">
        <ele>326</ele>
        <time>2011-01-23T08:50:45Z</time>
      </trkpt>
      <trkpt lat="49.17551" lon="6.99502">
        <ele>326</ele>
        <time>2011-01-23T08:50:47Z</time>
      </trkpt>
      <trkpt lat="49.1755" lon="6.99503">
        <ele>326</ele>
        <time>2011-01-23T08:50:48Z</time>
      </trkpt>
      <trkpt lat="49.17548" lon="6.99504">
        <ele>326</ele>
        <time>2011-01-23T08:50:49Z</time>
      </trkpt>
      <trkpt lat="49.17547" lon="6.99504">
        <ele>326</ele>
        <time>2011-01-23T08:50:50Z</time>
      </trkpt>
      <trkpt lat="49.17545" lon="6.99506">
        <ele>326</ele>
        <time>2011-01-23T08:50:52Z</time>
      </trkpt>
      <trkpt lat="49.17544" lon="6.99506">
        <ele>326</ele>
        <time>2011-01-23T08:50:53Z</time>
      </trkpt>
      <trkpt lat="49.17543" lon="6.99507">
        <ele>326</ele>
        <time>2011-01-23T08:50:54Z</time>
      </trkpt>
      <trkpt lat="49.17542" lon="6.99508">
        <ele>326</ele>
        <time>2011-01-23T08:50:55Z</time>
      </trkpt>
      <trkpt lat="49.1754" lon="6.99508">
        <ele>326</ele>
        <time>2011-01-23T08:50:56Z</time>
      </trkpt>
      <trkpt lat="49.17539" lon="6.99509">
        <ele>326</ele>
        <time>2011-01-23T08:50:57Z</time>
      </trkpt>
      <trkpt lat="49.17538" lon="6.9951">
        <ele>326</ele>
        <time>2011-01-23T08:50:58Z</time>
      </trkpt>
      <trkpt lat="49.17537" lon="6.99511">
        <ele>326</ele>
        <time>2011-01-23T08:50:59Z</time>
      </trkpt>
      <trkpt lat="49.17534" lon="6.99513">
        <ele>326</ele>
        <time>2011-01-23T08:51:01Z</time>
      </trkpt>
      <trkpt lat="49.17533" lon="6.99513">
        <ele>326</ele>
        <time>2011-01-23T08:51:02Z</time>
      </trkpt>
      <trkpt lat="49.17531" lon="6.99515">
        <ele>326</ele>
        <time>2011-01-23T08:51:04Z</time>
      </trkpt>
      <trkpt lat="49.17529" lon="6.99517">
        <ele>326</ele>
        <time>2011-01-23T08:51:06Z</time>
      </trkpt>
      <trkpt lat="49.17528" lon="6.99518">
        <ele>326</ele>
        <time>2011-01-23T08:51:07Z</time>
      </trkpt>
      <trkpt lat="49.17526" lon="6.9952">
        <ele>326</ele>
        <time>2011-01-23T08:51:09Z</time>
      </trkpt>
      <trkpt lat="49.17524" lon="6.99521">
        <ele>326</ele>
        <time>2011-01-23T08:51:10Z</time>
      </trkpt>
      <trkpt lat="49.17523" lon="6.99522">
        <ele>326</ele>
        <time>2011-01-23T08:51:11Z</time>
      </trkpt>
      <trkpt lat="49.17522" lon="6.99522">
        <ele>326</ele>
        <time>2011-01-23T08:51:12Z</time>
      </trkpt>
      <trkpt lat="49.1752" lon="6.99524">
        <ele>326</ele>
        <time>2011-01-23T08:51:14Z</time>
      </trkpt>
      <trkpt lat="49.17519" lon="6.99525">
        <ele>326</ele>
        <time>2011-01-23T08:51:15Z</time>
      </trkpt>
      <trkpt lat="49.17517" lon="6.99526">
        <ele>326</ele>
        <time>2011-01-23T08:51:16Z</time>
      </trkpt>
      <trkpt lat="49.17516" lon="6.99527">
        <ele>326</ele>
        <time>2011-01-23T08:51:17Z</time>
      </trkpt>
      <trkpt lat="49.17515" lon="6.99528">
        <ele>326</ele>
        <time>2011-01-23T08:51:18Z</time>
      </trkpt>
      <trkpt lat="49.17513" lon="6.9953">
        <ele>326</ele>
        <time>2011-01-23T08:51:20Z</time>
      </trkpt>
      <trkpt lat="49.17512" lon="6.99531">
        <ele>326</ele>
        <time>2011-01-23T08:51:21Z</time>
      </trkpt>
      <trkpt lat="49.17509" lon="6.99532">
        <ele>326</ele>
        <time>2011-01-23T08:51:23Z</time>
      </trkpt>
      <trkpt lat="49.17508" lon="6.99533">
        <ele>326</ele>
        <time>2011-01-23T08:51:24Z</time>
      </trkpt>
      <trkpt lat="49.17507" lon="6.99534">
        <ele>326</ele>
        <time>2011-01-23T08:51:25Z</time>
      </trkpt>
      <trkpt lat="49.17506" lon="6.99535">
        <ele>326</ele>
        <time>2011-01-23T08:51:26Z</time>
      </trkpt>
      <trkpt lat="49.17505" lon="6.99536">
        <ele>326</ele>
        <time>2011-01-23T08:51:27Z</time>
      </trkpt>
      <trkpt lat="49.17503" lon="6.99537">
        <ele>326</ele>
        <time>2011-01-23T08:51:28Z</time>
      </trkpt>
      <trkpt lat="49.17502" lon="6.99537">
        <ele>326</ele>
        <time>2011-01-23T08:51:29Z</time>
      </trkpt>
      <trkpt lat="49.17501" lon="6.99538">
        <ele>326</ele>
        <time>2011-01-23T08:51:30Z</time>
      </trkpt>
      <trkpt lat="49.175" lon="6.99539">
        <ele>326</ele>
        <time>2011-01-23T08:51:31Z</time>
      </trkpt>
      <trkpt lat="49.17498" lon="6.9954">
        <ele>325</ele>
        <time>2011-01-23T08:51:33Z</time>
      </trkpt>
      <trkpt lat="49.17496" lon="6.99541">
        <ele>325</ele>
        <time>2011-01-23T08:51:35Z</time>
      </trkpt>
      <trkpt lat="49.17495" lon="6.99541">
        <ele>325</ele>
        <time>2011-01-23T08:51:36Z</time>
      </trkpt>
      <trkpt lat="49.17493" lon="6.99542">
        <ele>325</ele>
        <time>2011-01-23T08:51:37Z</time>
      </trkpt>
      <trkpt lat="49.17492" lon="6.99544">
        <ele>325</ele>
        <time>2011-01-23T08:51:38Z</time>
      </trkpt>
      <trkpt lat="49.17491" lon="6.99545">
        <ele>325</ele>
        <time>2011-01-23T08:51:39Z</time>
      </trkpt>
      <trkpt lat="49.17489" lon="6.99546">
        <ele>325</ele>
        <time>2011-01-23T08:51:40Z</time>
      </trkpt>
      <trkpt lat="49.17488" lon="6.99547">
        <ele>325</ele>
        <time>2011-01-23T08:51:41Z</time>
      </trkpt>
      <trkpt lat="49.17487" lon="6.99548">
        <ele>325</ele>
        <time>2011-01-23T08:51:42Z</time>
      </trkpt>
      <trkpt lat="49.17486" lon="6.99549">
        <ele>325</ele>
        <time>2011-01-23T08:51:43Z</time>
      </trkpt>
      <trkpt lat="49.17484" lon="6.99551">
        <ele>325</ele>
        <time>2011-01-23T08:51:45Z</time>
      </trkpt>
      <trkpt lat="49.17482" lon="6.99551">
        <ele>325</ele>
        <time>2011-01-23T08:51:46Z</time>
      </trkpt>
      <trkpt lat="49.17481" lon="6.99552">
        <ele>325</ele>
        <time>2011-01-23T08:51:47Z</time>
      </trkpt>
      <trkpt lat="49.1748" lon="6.99553">
        <ele>325</ele>
        <time>2011-01-23T08:51:48Z</time>
      </trkpt>
      <trkpt lat="49.17479" lon="6.99554">
        <ele>325</ele>
        <time>2011-01-23T08:51:49Z</time>
      </trkpt>
      <trkpt lat="49.17478" lon="6.99555">
        <ele>325</ele>
        <time>2011-01-23T08:51:50Z</time>
      </trkpt>
      <trkpt lat="49.17477" lon="6.99556">
        <ele>325</ele>
        <time>2011-01-23T08:51:51Z</time>
      </trkpt>
      <trkpt lat="49.17475" lon="6.99558">
        <ele>325</ele>
        <time>2011-01-23T08:51:53Z</time>
      </trkpt>
      <trkpt lat="49.17474" lon="6.99558">
        <ele>325</ele>
        <time>2011-01-23T08:51:54Z</time>
      </trkpt>
      <trkpt lat="49.17472" lon="6.99559">
        <ele>325</ele>
        <time>2011-01-23T08:51:55Z</time>
      </trkpt>
      <trkpt lat="49.17471" lon="6.9956">
        <ele>325</ele>
        <time>2011-01-23T08:51:56Z</time>
      </trkpt>
      <trkpt lat="49.1747" lon="6.99561">
        <ele>325</ele>
        <time>2011-01-23T08:51:57Z</time>
      </trkpt>
      <trkpt lat="49.17469" lon="6.99562">
        <ele>325</ele>
        <time>2011-01-23T08:51:58Z</time>
      </trkpt>
      <trkpt lat="49.17467" lon="6.99563">
        <ele>325</ele>
        <time>2011-01-23T08:51:59Z</time>
      </trkpt>
      <trkpt lat="49.17466" lon="6.99563">
        <ele>325</ele>
        <time>2011-01-23T08:52:00Z</time>
      </trkpt>
      <trkpt lat="49.17464" lon="6.99565">
        <ele>325</ele>
        <time>2011-01-23T08:52:02Z</time>
      </trkpt>
      <trkpt lat="49.17463" lon="6.99566">
        <ele>324</ele>
        <time>2011-01-23T08:52:03Z</time>
      </trkpt>
      <trkpt lat="49.17461" lon="6.99568">
        <ele>324</ele>
        <time>2011-01-23T08:52:05Z</time>
      </trkpt>
      <trkpt lat="49.17459" lon="6.99569">
        <ele>324</ele>
        <time>2011-01-23T08:52:06Z</time>
      </trkpt>
      <trkpt lat="49.17457" lon="6.99571">
        <ele>324</ele>
        <time>2011-01-23T08:52:08Z</time>
      </trkpt>
      <trkpt lat="49.17456" lon="6.99572">
        <ele>324</ele>
        <time>2011-01-23T08:52:09Z</time>
      </trkpt>
      <trkpt lat="49.17455" lon="6.99573">
        <ele>324</ele>
        <time>2011-01-23T08:52:10Z</time>
      </trkpt>
      <trkpt lat="49.17453" lon="6.99574">
        <ele>324</ele>
        <time>2011-01-23T08:52:11Z</time>
      </trkpt>
      <trkpt lat="49.17452" lon="6.99576">
        <ele>324</ele>
        <time>2011-01-23T08:52:13Z</time>
      </trkpt>
      <trkpt lat="49.1745" lon="6.99577">
        <ele>324</ele>
        <time>2011-01-23T08:52:14Z</time>
      </trkpt>
      <trkpt lat="49.17448" lon="6.99579">
        <ele>324</ele>
        <time>2011-01-23T08:52:16Z</time>
      </trkpt>
      <trkpt lat="49.17446" lon="6.99582">
        <ele>324</ele>
        <time>2011-01-23T08:52:18Z</time>
      </trkpt>
      <trkpt lat="49.17445" lon="6.99583">
        <ele>324</ele>
        <time>2011-01-23T08:52:19Z</time>
      </trkpt>
      <trkpt lat="49.17443" lon="6.99584">
        <ele>324</ele>
        <time>2011-01-23T08:52:20Z</time>
      </trkpt>
      <trkpt lat="49.17442" lon="6.99585">
        <ele>324</ele>
        <time>2011-01-23T08:52:21Z</time>
      </trkpt>
      <trkpt lat="49.17441" lon="6.99585">
        <ele>324</ele>
        <time>2011-01-23T08:52:22Z</time>
      </trkpt>
      <trkpt lat="49.17439" lon="6.99587">
        <ele>324</ele>
        <time>2011-01-23T08:52:23Z</time>
      </trkpt>
      <trkpt lat="49.17438" lon="6.99588">
        <ele>324</ele>
        <time>2011-01-23T08:52:24Z</time>
      </trkpt>
      <trkpt lat="49.17436" lon="6.99589">
        <ele>323</ele>
        <time>2011-01-23T08:52:26Z</time>
      </trkpt>
      <trkpt lat="49.17434" lon="6.9959">
        <ele>323</ele>
        <time>2011-01-23T08:52:27Z</time>
      </trkpt>
      <trkpt lat="49.17433" lon="6.9959">
        <ele>323</ele>
        <time>2011-01-23T08:52:28Z</time>
      </trkpt>
      <trkpt lat="49.17432" lon="6.99591">
        <ele>323</ele>
        <time>2011-01-23T08:52:29Z</time>
      </trkpt>
      <trkpt lat="49.17429" lon="6.99592">
        <ele>323</ele>
        <time>2011-01-23T08:52:31Z</time>
      </trkpt>
      <trkpt lat="49.17428" lon="6.99592">
        <ele>323</ele>
        <time>2011-01-23T08:52:32Z</time>
      </trkpt>
      <trkpt lat="49.17427" lon="6.99594">
        <ele>323</ele>
        <time>2011-01-23T08:52:33Z</time>
      </trkpt>
      <trkpt lat="49.17425" lon="6.99595">
        <ele>323</ele>
        <time>2011-01-23T08:52:34Z</time>
      </trkpt>
      <trkpt lat="49.17424" lon="6.99596">
        <ele>323</ele>
        <time>2011-01-23T08:52:35Z</time>
      </trkpt>
      <trkpt lat="49.17422" lon="6.99597">
        <ele>323</ele>
        <time>2011-01-23T08:52:36Z</time>
      </trkpt>
      <trkpt lat="49.17421" lon="6.99597">
        <ele>323</ele>
        <time>2011-01-23T08:52:37Z</time>
      </trkpt>
      <trkpt lat="49.17419" lon="6.99598">
        <ele>323</ele>
        <time>2011-01-23T08:52:38Z</time>
      </trkpt>
      <trkpt lat="49.17418" lon="6.99598">
        <ele>323</ele>
        <time>2011-01-23T08:52:39Z</time>
      </trkpt>
      <trkpt lat="49.17417" lon="6.99599">
        <ele>323</ele>
        <time>2011-01-23T08:52:40Z</time>
      </trkpt>
      <trkpt lat="49.17416" lon="6.996">
        <ele>323</ele>
        <time>2011-01-23T08:52:41Z</time>
      </trkpt>
      <trkpt lat="49.17414" lon="6.99601">
        <ele>323</ele>
        <time>2011-01-23T08:52:42Z</time>
      </trkpt>
      <trkpt lat="49.17413" lon="6.99601">
        <ele>323</ele>
        <time>2011-01-23T08:52:43Z</time>
      </trkpt>
      <trkpt lat="49.17411" lon="6.99602">
        <ele>323</ele>
        <time>2011-01-23T08:52:45Z</time>
      </trkpt>
      <trkpt lat="49.17409" lon="6.99603">
        <ele>323</ele>
        <time>2011-01-23T08:52:47Z</time>
      </trkpt>
      <trkpt lat="49.17408" lon="6.99604">
        <ele>323</ele>
        <time>2011-01-23T08:52:48Z</time>
      </trkpt>
      <trkpt lat="49.17406" lon="6.99606">
        <ele>323</ele>
        <time>2011-01-23T08:52:50Z</time>
      </trkpt>
      <trkpt lat="49.17405" lon="6.99607">
        <ele>323</ele>
        <time>2011-01-23T08:52:51Z</time>
      </trkpt>
      <trkpt lat="49.17403" lon="6.99609">
        <ele>323</ele>
        <time>2011-01-23T08:52:52Z</time>
      </trkpt>
      <trkpt lat="49.17402" lon="6.99611">
        <ele>323</ele>
        <time>2011-01-23T08:52:54Z</time>
      </trkpt>
      <trkpt lat="49.174" lon="6.99614">
        <ele>323</ele>
        <time>2011-01-23T08:52:56Z</time>
      </trkpt>
      <trkpt lat="49.17398" lon="6.99616">
        <ele>323</ele>
        <time>2011-01-23T08:52:58Z</time>
      </trkpt>
      <trkpt lat="49.17396" lon="6.99618">
        <ele>323</ele>
        <time>2011-01-23T08:53:00Z</time>
      </trkpt>
      <trkpt lat="49.17394" lon="6.99621">
        <ele>323</ele>
        <time>2011-01-23T08:53:02Z</time>
      </trkpt>
      <trkpt lat="49.17393" lon="6.99623">
        <ele>323</ele>
        <time>2011-01-23T08:53:04Z</time>
      </trkpt>
      <trkpt lat="49.17391" lon="6.99626">
        <ele>323</ele>
        <time>2011-01-23T08:53:06Z</time>
      </trkpt>
      <trkpt lat="49.17389" lon="6.99629">
        <ele>323</ele>
        <time>2011-01-23T08:53:08Z</time>
      </trkpt>
      <trkpt lat="49.17388" lon="6.99631">
        <ele>323</ele>
        <time>2011-01-23T08:53:10Z</time>
      </trkpt>
      <trkpt lat="49.17386" lon="6.99634">
        <ele>323</ele>
        <time>2011-01-23T08:53:12Z</time>
      </trkpt>
      <trkpt lat="49.17384" lon="6.99636">
        <ele>323</ele>
        <time>2011-01-23T08:53:14Z</time>
      </trkpt>
      <trkpt lat="49.17383" lon="6.99639">
        <ele>323</ele>
        <time>2011-01-23T08:53:16Z</time>
      </trkpt>
      <trkpt lat="49.17381" lon="6.99642">
        <ele>323</ele>
        <time>2011-01-23T08:53:18Z</time>
      </trkpt>
      <trkpt lat="49.17379" lon="6.99644">
        <ele>323</ele>
        <time>2011-01-23T08:53:20Z</time>
      </trkpt>
      <trkpt lat="49.17377" lon="6.99646">
        <ele>323</ele>
        <time>2011-01-23T08:53:22Z</time>
      </trkpt>
      <trkpt lat="49.17376" lon="6.99649">
        <ele>323</ele>
        <time>2011-01-23T08:53:24Z</time>
      </trkpt>
      <trkpt lat="49.17374" lon="6.99651">
        <ele>323</ele>
        <time>2011-01-23T08:53:26Z</time>
      </trkpt>
      <trkpt lat="49.17373" lon="6.99654">
        <ele>323</ele>
        <time>2011-01-23T08:53:28Z</time>
      </trkpt>
      <trkpt lat="49.17371" lon="6.99656">
        <ele>323</ele>
        <time>2011-01-23T08:53:30Z</time>
      </trkpt>
      <trkpt lat="49.17369" lon="6.99659">
        <ele>323</ele>
        <time>2011-01-23T08:53:32Z</time>
      </trkpt>
      <trkpt lat="49.17368" lon="6.99661">
        <ele>323</ele>
        <time>2011-01-23T08:53:34Z</time>
      </trkpt>
      <trkpt lat="49.17366" lon="6.99663">
        <ele>323</ele>
        <time>2011-01-23T08:53:36Z</time>
      </trkpt>
      <trkpt lat="49.17364" lon="6.99666">
        <ele>323</ele>
        <time>2011-01-23T08:53:38Z</time>
      </trkpt>
      <trkpt lat="49.17363" lon="6.99668">
        <ele>323</ele>
        <time>2011-01-23T08:53:40Z</time>
      </trkpt>
      <trkpt lat="49.17361" lon="6.99671">
        <ele>323</ele>
        <time>2011-01-23T08:53:42Z</time>
      </trkpt>
      <trkpt lat="49.17361" lon="6.99674">
        <ele>323</ele>
        <time>2011-01-23T08:53:44Z</time>
      </trkpt>
      <trkpt lat="49.1736" lon="6.99678">
        <ele>323</ele>
        <time>2011-01-23T08:53:46Z</time>
      </trkpt>
      <trkpt lat="49.1736" lon="6.9968">
        <ele>323</ele>
        <time>2011-01-23T08:53:47Z</time>
      </trkpt>
      <trkpt lat="49.1736" lon="6.99682">
        <ele>323</ele>
        <time>2011-01-23T08:53:48Z</time>
      </trkpt>
      <trkpt lat="49.1736" lon="6.99683">
        <ele>323</ele>
        <time>2011-01-23T08:53:49Z</time>
      </trkpt>
      <trkpt lat="49.17361" lon="6.99686">
        <ele>323</ele>
        <time>2011-01-23T08:53:51Z</time>
      </trkpt>
      <trkpt lat="49.17362" lon="6.99689">
        <ele>323</ele>
        <time>2011-01-23T08:53:53Z</time>
      </trkpt>
      <trkpt lat="49.17363" lon="6.99692">
        <ele>323</ele>
        <time>2011-01-23T08:53:55Z</time>
      </trkpt>
      <trkpt lat="49.17365" lon="6.99694">
        <ele>323</ele>
        <time>2011-01-23T08:53:57Z</time>
      </trkpt>
      <trkpt lat="49.17366" lon="6.99697">
        <ele>323</ele>
        <time>2011-01-23T08:53:59Z</time>
      </trkpt>
      <trkpt lat="49.17366" lon="6.997">
        <ele>323</ele>
        <time>2011-01-23T08:54:01Z</time>
      </trkpt>
      <trkpt lat="49.17368" lon="6.99703">
        <ele>323</ele>
        <time>2011-01-23T08:54:03Z</time>
      </trkpt>
      <trkpt lat="49.17369" lon="6.99705">
        <ele>323</ele>
        <time>2011-01-23T08:54:05Z</time>
      </trkpt>
      <trkpt lat="49.17371" lon="6.99708">
        <ele>323</ele>
        <time>2011-01-23T08:54:07Z</time>
      </trkpt>
      <trkpt lat="49.17372" lon="6.9971">
        <ele>323</ele>
        <time>2011-01-23T08:54:09Z</time>
      </trkpt>
      <trkpt lat="49.17374" lon="6.99713">
        <ele>323</ele>
        <time>2011-01-23T08:54:11Z</time>
      </trkpt>
      <trkpt lat="49.17375" lon="6.99715">
        <ele>323</ele>
        <time>2011-01-23T08:54:13Z</time>
      </trkpt>
      <trkpt lat="49.17376" lon="6.99718">
        <ele>323</ele>
        <time>2011-01-23T08:54:15Z</time>
      </trkpt>
      <trkpt lat="49.17378" lon="6.99721">
        <ele>323</ele>
        <time>2011-01-23T08:54:17Z</time>
      </trkpt>
      <trkpt lat="49.17379" lon="6.99723">
        <ele>322</ele>
        <time>2011-01-23T08:54:19Z</time>
      </trkpt>
      <trkpt lat="49.17381" lon="6.99726">
        <ele>322</ele>
        <time>2011-01-23T08:54:21Z</time>
      </trkpt>
      <trkpt lat="49.17382" lon="6.99728">
        <ele>322</ele>
        <time>2011-01-23T08:54:22Z</time>
      </trkpt>
      <trkpt lat="49.17382" lon="6.9973">
        <ele>321</ele>
        <time>2011-01-23T08:54:23Z</time>
      </trkpt>
      <trkpt lat="49.17383" lon="6.99732">
        <ele>321</ele>
        <time>2011-01-23T08:54:25Z</time>
      </trkpt>
      <trkpt lat="49.17385" lon="6.99735">
        <ele>321</ele>
        <time>2011-01-23T08:54:27Z</time>
      </trkpt>
      <trkpt lat="49.17386" lon="6.99737">
        <ele>320</ele>
        <time>2011-01-23T08:54:28Z</time>
      </trkpt>
      <trkpt lat="49.17387" lon="6.9974">
        <ele>320</ele>
        <time>2011-01-23T08:54:30Z</time>
      </trkpt>
      <trkpt lat="49.17389" lon="6.99743">
        <ele>320</ele>
        <time>2011-01-23T08:54:32Z</time>
      </trkpt>
      <trkpt lat="49.1739" lon="6.99745">
        <ele>320</ele>
        <time>2011-01-23T08:54:34Z</time>
      </trkpt>
      <trkpt lat="49.17391" lon="6.99747">
        <ele>320</ele>
        <time>2011-01-23T08:54:35Z</time>
      </trkpt>
      <trkpt lat="49.17392" lon="6.99749">
        <ele>319</ele>
        <time>2011-01-23T08:54:36Z</time>
      </trkpt>
      <trkpt lat="49.17392" lon="6.99751">
        <ele>319</ele>
        <time>2011-01-23T08:54:37Z</time>
      </trkpt>
      <trkpt lat="49.17394" lon="6.99754">
        <ele>319</ele>
        <time>2011-01-23T08:54:39Z</time>
      </trkpt>
      <trkpt lat="49.17395" lon="6.99755">
        <ele>319</ele>
        <time>2011-01-23T08:54:40Z</time>
      </trkpt>
      <trkpt lat="49.17395" lon="6.99757">
        <ele>319</ele>
        <time>2011-01-23T08:54:41Z</time>
      </trkpt>
      <trkpt lat="49.17396" lon="6.99759">
        <ele>319</ele>
        <time>2011-01-23T08:54:42Z</time>
      </trkpt>
      <trkpt lat="49.17397" lon="6.99761">
        <ele>319</ele>
        <time>2011-01-23T08:54:43Z</time>
      </trkpt>
      <trkpt lat="49.17398" lon="6.99764">
        <ele>318</ele>
        <time>2011-01-23T08:54:45Z</time>
      </trkpt>
      <trkpt lat="49.17398" lon="6.99766">
        <ele>318</ele>
        <time>2011-01-23T08:54:46Z</time>
      </trkpt>
      <trkpt lat="49.17398" lon="6.99768">
        <ele>318</ele>
        <time>2011-01-23T08:54:47Z</time>
      </trkpt>
      <trkpt lat="49.17399" lon="6.99769">
        <ele>318</ele>
        <time>2011-01-23T08:54:48Z</time>
      </trkpt>
      <trkpt lat="49.17399" lon="6.99771">
        <ele>318</ele>
        <time>2011-01-23T08:54:49Z</time>
      </trkpt>
      <trkpt lat="49.174" lon="6.99773">
        <ele>317</ele>
        <time>2011-01-23T08:54:50Z</time>
      </trkpt>
      <trkpt lat="49.174" lon="6.99775">
        <ele>317</ele>
        <time>2011-01-23T08:54:51Z</time>
      </trkpt>
      <trkpt lat="49.174" lon="6.99777">
        <ele>317</ele>
        <time>2011-01-23T08:54:52Z</time>
      </trkpt>
      <trkpt lat="49.17401" lon="6.99779">
        <ele>317</ele>
        <time>2011-01-23T08:54:53Z</time>
      </trkpt>
      <trkpt lat="49.17401" lon="6.99781">
        <ele>316</ele>
        <time>2011-01-23T08:54:54Z</time>
      </trkpt>
      <trkpt lat="49.17402" lon="6.99783">
        <ele>316</ele>
        <time>2011-01-23T08:54:55Z</time>
      </trkpt>
      <trkpt lat="49.17402" lon="6.99785">
        <ele>316</ele>
        <time>2011-01-23T08:54:56Z</time>
      </trkpt>
      <trkpt lat="49.17403" lon="6.99786">
        <ele>316</ele>
        <time>2011-01-23T08:54:57Z</time>
      </trkpt>
      <trkpt lat="49.17403" lon="6.99789">
        <ele>316</ele>
        <time>2011-01-23T08:54:59Z</time>
      </trkpt>
      <trkpt lat="49.17404" lon="6.9979">
        <ele>315</ele>
        <time>2011-01-23T08:55:00Z</time>
      </trkpt>
      <trkpt lat="49.17404" lon="6.99792">
        <ele>315</ele>
        <time>2011-01-23T08:55:01Z</time>
      </trkpt>
      <trkpt lat="49.17405" lon="6.99794">
        <ele>315</ele>
        <time>2011-01-23T08:55:02Z</time>
      </trkpt>
      <trkpt lat="49.17405" lon="6.99795">
        <ele>315</ele>
        <time>2011-01-23T08:55:03Z</time>
      </trkpt>
      <trkpt lat="49.17405" lon="6.99797">
        <ele>314</ele>
        <time>2011-01-23T08:55:04Z</time>
      </trkpt>
      <trkpt lat="49.17406" lon="6.99799">
        <ele>314</ele>
        <time>2011-01-23T08:55:05Z</time>
      </trkpt>
      <trkpt lat="49.17406" lon="6.99801">
        <ele>314</ele>
        <time>2011-01-23T08:55:06Z</time>
      </trkpt>
      <trkpt lat="49.17407" lon="6.99802">
        <ele>314</ele>
        <time>2011-01-23T08:55:07Z</time>
      </trkpt>
      <trkpt lat="49.17407" lon="6.99804">
        <ele>313</ele>
        <time>2011-01-23T08:55:08Z</time>
      </trkpt>
      <trkpt lat="49.17408" lon="6.99806">
        <ele>313</ele>
        <time>2011-01-23T08:55:09Z</time>
      </trkpt>
      <trkpt lat="49.17408" lon="6.99808">
        <ele>313</ele>
        <time>2011-01-23T08:55:10Z</time>
      </trkpt>
      <trkpt lat="49.17408" lon="6.9981">
        <ele>313</ele>
        <time>2011-01-23T08:55:11Z</time>
      </trkpt>
      <trkpt lat="49.17409" lon="6.99812">
        <ele>313</ele>
        <time>2011-01-23T08:55:12Z</time>
      </trkpt>
      <trkpt lat="49.17409" lon="6.99814">
        <ele>313</ele>
        <time>2011-01-23T08:55:13Z</time>
      </trkpt>
      <trkpt lat="49.1741" lon="6.99816">
        <ele>312</ele>
        <time>2011-01-23T08:55:14Z</time>
      </trkpt>
      <trkpt lat="49.1741" lon="6.99818">
        <ele>312</ele>
        <time>2011-01-23T08:55:15Z</time>
      </trkpt>
      <trkpt lat="49.17411" lon="6.9982">
        <ele>312</ele>
        <time>2011-01-23T08:55:16Z</time>
      </trkpt>
      <trkpt lat="49.17411" lon="6.99821">
        <ele>312</ele>
        <time>2011-01-23T08:55:17Z</time>
      </trkpt>
      <trkpt lat="49.17412" lon="6.99823">
        <ele>312</ele>
        <time>2011-01-23T08:55:18Z</time>
      </trkpt>
      <trkpt lat="49.17412" lon="6.99825">
        <ele>312</ele>
        <time>2011-01-23T08:55:19Z</time>
      </trkpt>
      <trkpt lat="49.17412" lon="6.99827">
        <ele>311</ele>
        <time>2011-01-23T08:55:20Z</time>
      </trkpt>
      <trkpt lat="49.17413" lon="6.99829">
        <ele>311</ele>
        <time>2011-01-23T08:55:21Z</time>
      </trkpt>
      <trkpt lat="49.17413" lon="6.9983">
        <ele>311</ele>
        <time>2011-01-23T08:55:22Z</time>
      </trkpt>
      <trkpt lat="49.17414" lon="6.99832">
        <ele>311</ele>
        <time>2011-01-23T08:55:23Z</time>
      </trkpt>
      <trkpt lat="49.17414" lon="6.99834">
        <ele>311</ele>
        <time>2011-01-23T08:55:24Z</time>
      </trkpt>
      <trkpt lat="49.17415" lon="6.99837">
        <ele>310</ele>
        <time>2011-01-23T08:55:26Z</time>
      </trkpt>
      <trkpt lat="49.17416" lon="6.99839">
        <ele>310</ele>
        <time>2011-01-23T08:55:27Z</time>
      </trkpt>
      <trkpt lat="49.17416" lon="6.99841">
        <ele>310</ele>
        <time>2011-01-23T08:55:28Z</time>
      </trkpt>
      <trkpt lat="49.17417" lon="6.99843">
        <ele>309</ele>
        <time>2011-01-23T08:55:29Z</time>
      </trkpt>
      <trkpt lat="49.17417" lon="6.99845">
        <ele>309</ele>
        <time>2011-01-23T08:55:30Z</time>
      </trkpt>
      <trkpt lat="49.17418" lon="6.99846">
        <ele>309</ele>
        <time>2011-01-23T08:55:31Z</time>
      </trkpt>
      <trkpt lat="49.17418" lon="6.99848">
        <ele>308</ele>
        <time>2011-01-23T08:55:32Z</time>
      </trkpt>
      <trkpt lat="49.17419" lon="6.9985">
        <ele>308</ele>
        <time>2011-01-23T08:55:33Z</time>
      </trkpt>
      <trkpt lat="49.17419" lon="6.99852">
        <ele>308</ele>
        <time>2011-01-23T08:55:34Z</time>
      </trkpt>
      <trkpt lat="49.1742" lon="6.99853">
        <ele>308</ele>
        <time>2011-01-23T08:55:35Z</time>
      </trkpt>
      <trkpt lat="49.17421" lon="6.99856">
        <ele>307</ele>
        <time>2011-01-23T08:55:37Z</time>
      </trkpt>
      <trkpt lat="49.17423" lon="6.99859">
        <ele>306</ele>
        <time>2011-01-23T08:55:39Z</time>
      </trkpt>
      <trkpt lat="49.17424" lon="6.99862">
        <ele>306</ele>
        <time>2011-01-23T08:55:41Z</time>
      </trkpt>
      <trkpt lat="49.17426" lon="6.99865">
        <ele>305</ele>
        <time>2011-01-23T08:55:43Z</time>
      </trkpt>
      <trkpt lat="49.17427" lon="6.99868">
        <ele>305</ele>
        <time>2011-01-23T08:55:45Z</time>
      </trkpt>
      <trkpt lat="49.17429" lon="6.9987">
        <ele>304</ele>
        <time>2011-01-23T08:55:47Z</time>
      </trkpt>
      <trkpt lat="49.17431" lon="6.99873">
        <ele>304</ele>
        <time>2011-01-23T08:55:49Z</time>
      </trkpt>
      <trkpt lat="49.17432" lon="6.99875">
        <ele>304</ele>
        <time>2011-01-23T08:55:51Z</time>
      </trkpt>
      <trkpt lat="49.17434" lon="6.99878">
        <ele>303</ele>
        <time>2011-01-23T08:55:53Z</time>
      </trkpt>
      <trkpt lat="49.17436" lon="6.99881">
        <ele>303</ele>
        <time>2011-01-23T08:55:55Z</time>
      </trkpt>
      <trkpt lat="49.17437" lon="6.99882">
        <ele>303</ele>
        <time>2011-01-23T08:55:57Z</time>
      </trkpt>
      <trkpt lat="49.17439" lon="6.99885">
        <ele>302</ele>
        <time>2011-01-23T08:55:59Z</time>
      </trkpt>
      <trkpt lat="49.17441" lon="6.99888">
        <ele>302</ele>
        <time>2011-01-23T08:56:01Z</time>
      </trkpt>
      <trkpt lat="49.17442" lon="6.99891">
        <ele>302</ele>
        <time>2011-01-23T08:56:03Z</time>
      </trkpt>
      <trkpt lat="49.17444" lon="6.99894">
        <ele>302</ele>
        <time>2011-01-23T08:56:05Z</time>
      </trkpt>
      <trkpt lat="49.17446" lon="6.99896">
        <ele>301</ele>
        <time>2011-01-23T08:56:07Z</time>
      </trkpt>
      <trkpt lat="49.17447" lon="6.99898">
        <ele>301</ele>
        <time>2011-01-23T08:56:09Z</time>
      </trkpt>
      <trkpt lat="49.17449" lon="6.99901">
        <ele>300</ele>
        <time>2011-01-23T08:56:11Z</time>
      </trkpt>
      <trkpt lat="49.1745" lon="6.99904">
        <ele>300</ele>
        <time>2011-01-23T08:56:13Z</time>
      </trkpt>
      <trkpt lat="49.17451" lon="6.99907">
        <ele>299</ele>
        <time>2011-01-23T08:56:15Z</time>
      </trkpt>
      <trkpt lat="49.17453" lon="6.99909">
        <ele>298</ele>
        <time>2011-01-23T08:56:17Z</time>
      </trkpt>
      <trkpt lat="49.17455" lon="6.99912">
        <ele>297</ele>
        <time>2011-01-23T08:56:19Z</time>
      </trkpt>
      <trkpt lat="49.17456" lon="6.99914">
        <ele>297</ele>
        <time>2011-01-23T08:56:21Z</time>
      </trkpt>
      <trkpt lat="49.17458" lon="6.99916">
        <ele>297</ele>
        <time>2011-01-23T08:56:23Z</time>
      </trkpt>
      <trkpt lat="49.1746" lon="6.99918">
        <ele>296</ele>
        <time>2011-01-23T08:56:25Z</time>
      </trkpt>
      <trkpt lat="49.17462" lon="6.99921">
        <ele>296</ele>
        <time>2011-01-23T08:56:27Z</time>
      </trkpt>
      <trkpt lat="49.17464" lon="6.99924">
        <ele>296</ele>
        <time>2011-01-23T08:56:29Z</time>
      </trkpt>
      <trkpt lat="49.17465" lon="6.99927">
        <ele>296</ele>
        <time>2011-01-23T08:56:31Z</time>
      </trkpt>
      <trkpt lat="49.17467" lon="6.9993">
        <ele>295</ele>
        <time>2011-01-23T08:56:33Z</time>
      </trkpt>
      <trkpt lat="49.17469" lon="6.99933">
        <ele>295</ele>
        <time>2011-01-23T08:56:35Z</time>
      </trkpt>
      <trkpt lat="49.1747" lon="6.99935">
        <ele>295</ele>
        <time>2011-01-23T08:56:37Z</time>
      </trkpt>
      <trkpt lat="49.17472" lon="6.99938">
        <ele>294</ele>
        <time>2011-01-23T08:56:39Z</time>
      </trkpt>
      <trkpt lat="49.17473" lon="6.99941">
        <ele>294</ele>
        <time>2011-01-23T08:56:41Z</time>
      </trkpt>
      <trkpt lat="49.17475" lon="6.99944">
        <ele>293</ele>
        <time>2011-01-23T08:56:43Z</time>
      </trkpt>
      <trkpt lat="49.17476" lon="6.99947">
        <ele>293</ele>
        <time>2011-01-23T08:56:45Z</time>
      </trkpt>
      <trkpt lat="49.17477" lon="6.9995">
        <ele>293</ele>
        <time>2011-01-23T08:56:47Z</time>
      </trkpt>
      <trkpt lat="49.17479" lon="6.99953">
        <ele>292</ele>
        <time>2011-01-23T08:56:49Z</time>
      </trkpt>
      <trkpt lat="49.17481" lon="6.99956">
        <ele>292</ele>
        <time>2011-01-23T08:56:51Z</time>
      </trkpt>
      <trkpt lat="49.17483" lon="6.99959">
        <ele>292</ele>
        <time>2011-01-23T08:56:53Z</time>
      </trkpt>
      <trkpt lat="49.17484" lon="6.99962">
        <ele>292</ele>
        <time>2011-01-23T08:56:55Z</time>
      </trkpt>
      <trkpt lat="49.17485" lon="6.99964">
        <ele>292</ele>
        <time>2011-01-23T08:56:56Z</time>
      </trkpt>
      <trkpt lat="49.17487" lon="6.99967">
        <ele>292</ele>
        <time>2011-01-23T08:56:58Z</time>
      </trkpt>
      <trkpt lat="49.17488" lon="6.99969">
        <ele>292</ele>
        <time>2011-01-23T08:56:59Z</time>
      </trkpt>
      <trkpt lat="49.17488" lon="6.9997">
        <ele>292</ele>
        <time>2011-01-23T08:57:00Z</time>
      </trkpt>
      <trkpt lat="49.17489" lon="6.99972">
        <ele>292</ele>
        <time>2011-01-23T08:57:01Z</time>
      </trkpt>
      <trkpt lat="49.1749" lon="6.99974">
        <ele>292</ele>
        <time>2011-01-23T08:57:02Z</time>
      </trkpt>
      <trkpt lat="49.17491" lon="6.99976">
        <ele>292</ele>
        <time>2011-01-23T08:57:03Z</time>
      </trkpt>
      <trkpt lat="49.17492" lon="6.99978">
        <ele>292</ele>
        <time>2011-01-23T08:57:04Z</time>
      </trkpt>
      <trkpt lat="49.17493" lon="6.99981">
        <ele>292</ele>
        <time>2011-01-23T08:57:06Z</time>
      </trkpt>
      <trkpt lat="49.17495" lon="6.99984">
        <ele>291</ele>
        <time>2011-01-23T08:57:08Z</time>
      </trkpt>
      <trkpt lat="49.17495" lon="6.99986">
        <ele>291</ele>
        <time>2011-01-23T08:57:09Z</time>
      </trkpt>
      <trkpt lat="49.17496" lon="6.99987">
        <ele>291</ele>
        <time>2011-01-23T08:57:10Z</time>
      </trkpt>
      <trkpt lat="49.17497" lon="6.99989">
        <ele>291</ele>
        <time>2011-01-23T08:57:11Z</time>
      </trkpt>
      <trkpt lat="49.17498" lon="6.99991">
        <ele>291</ele>
        <time>2011-01-23T08:57:12Z</time>
      </trkpt>
      <trkpt lat="49.17498" lon="6.99992">
        <ele>290</ele>
        <time>2011-01-23T08:57:13Z</time>
      </trkpt>
      <trkpt lat="49.17499" lon="6.99994">
        <ele>290</ele>
        <time>2011-01-23T08:57:14Z</time>
      </trkpt>
      <trkpt lat="49.175" lon="6.99996">
        <ele>290</ele>
        <time>2011-01-23T08:57:15Z</time>
      </trkpt>
      <trkpt lat="49.17501" lon="6.99997">
        <ele>290</ele>
        <time>2011-01-23T08:57:16Z</time>
      </trkpt>
      <trkpt lat="49.17501" lon="6.99999">
        <ele>290</ele>
        <time>2011-01-23T08:57:17Z</time>
      </trkpt>
      <trkpt lat="49.17502" lon="7.00001">
        <ele>289</ele>
        <time>2011-01-23T08:57:18Z</time>
      </trkpt>
      <trkpt lat="49.17503" lon="7.00002">
        <ele>289</ele>
        <time>2011-01-23T08:57:19Z</time>
      </trkpt>
      <trkpt lat="49.17504" lon="7.00005">
        <ele>289</ele>
        <time>2011-01-23T08:57:21Z</time>
      </trkpt>
      <trkpt lat="49.17504" lon="7.00007">
        <ele>288</ele>
        <time>2011-01-23T08:57:22Z</time>
      </trkpt>
      <trkpt lat="49.17505" lon="7.00009">
        <ele>288</ele>
        <time>2011-01-23T08:57:23Z</time>
      </trkpt>
      <trkpt lat="49.17506" lon="7.00011">
        <ele>288</ele>
        <time>2011-01-23T08:57:24Z</time>
      </trkpt>
      <trkpt lat="49.17507" lon="7.00014">
        <ele>288</ele>
        <time>2011-01-23T08:57:26Z</time>
      </trkpt>
      <trkpt lat="49.17507" lon="7.00016">
        <ele>288</ele>
        <time>2011-01-23T08:57:27Z</time>
      </trkpt>
      <trkpt lat="49.17509" lon="7.00019">
        <ele>287</ele>
        <time>2011-01-23T08:57:29Z</time>
      </trkpt>
      <trkpt lat="49.1751" lon="7.00022">
        <ele>287</ele>
        <time>2011-01-23T08:57:31Z</time>
      </trkpt>
      <trkpt lat="49.17511" lon="7.00025">
        <ele>286</ele>
        <time>2011-01-23T08:57:33Z</time>
      </trkpt>
      <trkpt lat="49.17513" lon="7.00028">
        <ele>286</ele>
        <time>2011-01-23T08:57:35Z</time>
      </trkpt>
      <trkpt lat="49.17514" lon="7.00031">
        <ele>285</ele>
        <time>2011-01-23T08:57:37Z</time>
      </trkpt>
      <trkpt lat="49.17514" lon="7.00033">
        <ele>285</ele>
        <time>2011-01-23T08:57:38Z</time>
      </trkpt>
      <trkpt lat="49.17515" lon="7.00035">
        <ele>285</ele>
        <time>2011-01-23T08:57:39Z</time>
      </trkpt>
      <trkpt lat="49.17515" lon="7.00036">
        <ele>285</ele>
        <time>2011-01-23T08:57:40Z</time>
      </trkpt>
      <trkpt lat="49.17516" lon="7.00038">
        <ele>284</ele>
        <time>2011-01-23T08:57:41Z</time>
      </trkpt>
      <trkpt lat="49.17517" lon="7.0004">
        <ele>284</ele>
        <time>2011-01-23T08:57:42Z</time>
      </trkpt>
      <trkpt lat="49.17517" lon="7.00041">
        <ele>284</ele>
        <time>2011-01-23T08:57:43Z</time>
      </trkpt>
      <trkpt lat="49.17518" lon="7.00043">
        <ele>284</ele>
        <time>2011-01-23T08:57:44Z</time>
      </trkpt>
      <trkpt lat="49.17519" lon="7.00045">
        <ele>284</ele>
        <time>2011-01-23T08:57:45Z</time>
      </trkpt>
      <trkpt lat="49.1752" lon="7.00046">
        <ele>284</ele>
        <time>2011-01-23T08:57:46Z</time>
      </trkpt>
      <trkpt lat="49.17521" lon="7.00048">
        <ele>283</ele>
        <time>2011-01-23T08:57:47Z</time>
      </trkpt>
      <trkpt lat="49.17521" lon="7.0005">
        <ele>283</ele>
        <time>2011-01-23T08:57:48Z</time>
      </trkpt>
      <trkpt lat="49.17522" lon="7.00051">
        <ele>283</ele>
        <time>2011-01-23T08:57:49Z</time>
      </trkpt>
      <trkpt lat="49.17523" lon="7.00055">
        <ele>282</ele>
        <time>2011-01-23T08:57:51Z</time>
      </trkpt>
      <trkpt lat="49.17524" lon="7.00056">
        <ele>282</ele>
        <time>2011-01-23T08:57:52Z</time>
      </trkpt>
      <trkpt lat="49.17525" lon="7.00059">
        <ele>282</ele>
        <time>2011-01-23T08:57:54Z</time>
      </trkpt>
      <trkpt lat="49.17526" lon="7.00062">
        <ele>281</ele>
        <time>2011-01-23T08:57:56Z</time>
      </trkpt>
      <trkpt lat="49.17527" lon="7.00065">
        <ele>281</ele>
        <time>2011-01-23T08:57:58Z</time>
      </trkpt>
      <trkpt lat="49.17529" lon="7.00069">
        <ele>280</ele>
        <time>2011-01-23T08:58:00Z</time>
      </trkpt>
      <trkpt lat="49.1753" lon="7.00072">
        <ele>280</ele>
        <time>2011-01-23T08:58:02Z</time>
      </trkpt>
      <trkpt lat="49.17531" lon="7.00073">
        <ele>280</ele>
        <time>2011-01-23T08:58:03Z</time>
      </trkpt>
      <trkpt lat="49.17532" lon="7.00076">
        <ele>279</ele>
        <time>2011-01-23T08:58:05Z</time>
      </trkpt>
      <trkpt lat="49.17533" lon="7.00078">
        <ele>279</ele>
        <time>2011-01-23T08:58:06Z</time>
      </trkpt>
      <trkpt lat="49.17533" lon="7.0008">
        <ele>279</ele>
        <time>2011-01-23T08:58:07Z</time>
      </trkpt>
      <trkpt lat="49.17534" lon="7.00082">
        <ele>278</ele>
        <time>2011-01-23T08:58:08Z</time>
      </trkpt>
      <trkpt lat="49.17535" lon="7.00084">
        <ele>278</ele>
        <time>2011-01-23T08:58:09Z</time>
      </trkpt>
      <trkpt lat="49.17535" lon="7.00085">
        <ele>278</ele>
        <time>2011-01-23T08:58:10Z</time>
      </trkpt>
      <trkpt lat="49.17536" lon="7.00087">
        <ele>278</ele>
        <time>2011-01-23T08:58:11Z</time>
      </trkpt>
      <trkpt lat="49.17536" lon="7.00089">
        <ele>278</ele>
        <time>2011-01-23T08:58:12Z</time>
      </trkpt>
      <trkpt lat="49.17537" lon="7.00091">
        <ele>278</ele>
        <time>2011-01-23T08:58:13Z</time>
      </trkpt>
      <trkpt lat="49.17537" lon="7.00093">
        <ele>277</ele>
        <time>2011-01-23T08:58:14Z</time>
      </trkpt>
      <trkpt lat="49.17538" lon="7.00095">
        <ele>277</ele>
        <time>2011-01-23T08:58:15Z</time>
      </trkpt>
      <trkpt lat="49.17538" lon="7.00097">
        <ele>277</ele>
        <time>2011-01-23T08:58:16Z</time>
      </trkpt>
      <trkpt lat="49.17538" lon="7.00099">
        <ele>277</ele>
        <time>2011-01-23T08:58:17Z</time>
      </trkpt>
      <trkpt lat="49.17539" lon="7.001">
        <ele>277</ele>
        <time>2011-01-23T08:58:18Z</time>
      </trkpt>
      <trkpt lat="49.17539" lon="7.00102">
        <ele>276</ele>
        <time>2011-01-23T08:58:19Z</time>
      </trkpt>
      <trkpt lat="49.1754" lon="7.00104">
        <ele>276</ele>
        <time>2011-01-23T08:58:20Z</time>
      </trkpt>
      <trkpt lat="49.1754" lon="7.00106">
        <ele>276</ele>
        <time>2011-01-23T08:58:21Z</time>
      </trkpt>
      <trkpt lat="49.1754" lon="7.00108">
        <ele>276</ele>
        <time>2011-01-23T08:58:22Z</time>
      </trkpt>
      <trkpt lat="49.1754" lon="7.0011">
        <ele>276</ele>
        <time>2011-01-23T08:58:23Z</time>
      </trkpt>
      <trkpt lat="49.17541" lon="7.00112">
        <ele>276</ele>
        <time>2011-01-23T08:58:24Z</time>
      </trkpt>
      <trkpt lat="49.17541" lon="7.00114">
        <ele>275</ele>
        <time>2011-01-23T08:58:25Z</time>
      </trkpt>
      <trkpt lat="49.17541" lon="7.00115">
        <ele>275</ele>
        <time>2011-01-23T08:58:26Z</time>
      </trkpt>
      <trkpt lat="49.17541" lon="7.00117">
        <ele>275</ele>
        <time>2011-01-23T08:58:27Z</time>
      </trkpt>
      <trkpt lat="49.17542" lon="7.00119">
        <ele>275</ele>
        <time>2011-01-23T08:58:28Z</time>
      </trkpt>
      <trkpt lat="49.17542" lon="7.00121">
        <ele>275</ele>
        <time>2011-01-23T08:58:29Z</time>
      </trkpt>
      <trkpt lat="49.17542" lon="7.00123">
        <ele>275</ele>
        <time>2011-01-23T08:58:30Z</time>
      </trkpt>
      <trkpt lat="49.17542" lon="7.00125">
        <ele>275</ele>
        <time>2011-01-23T08:58:31Z</time>
      </trkpt>
      <trkpt lat="49.17542" lon="7.00127">
        <ele>274</ele>
        <time>2011-01-23T08:58:32Z</time>
      </trkpt>
      <trkpt lat="49.17543" lon="7.00129">
        <ele>274</ele>
        <time>2011-01-23T08:58:33Z</time>
      </trkpt>
      <trkpt lat="49.17543" lon="7.00131">
        <ele>274</ele>
        <time>2011-01-23T08:58:34Z</time>
      </trkpt>
      <trkpt lat="49.17543" lon="7.00133">
        <ele>274</ele>
        <time>2011-01-23T08:58:35Z</time>
      </trkpt>
      <trkpt lat="49.17543" lon="7.00134">
        <ele>274</ele>
        <time>2011-01-23T08:58:36Z</time>
      </trkpt>
      <trkpt lat="49.17543" lon="7.00136">
        <ele>274</ele>
        <time>2011-01-23T08:58:37Z</time>
      </trkpt>
      <trkpt lat="49.17544" lon="7.00138">
        <ele>273</ele>
        <time>2011-01-23T08:58:38Z</time>
      </trkpt>
      <trkpt lat="49.17544" lon="7.0014">
        <ele>273</ele>
        <time>2011-01-23T08:58:39Z</time>
      </trkpt>
      <trkpt lat="49.17544" lon="7.00142">
        <ele>273</ele>
        <time>2011-01-23T08:58:40Z</time>
      </trkpt>
      <trkpt lat="49.17544" lon="7.00144">
        <ele>273</ele>
        <time>2011-01-23T08:58:41Z</time>
      </trkpt>
      <trkpt lat="49.17545" lon="7.00145">
        <ele>272</ele>
        <time>2011-01-23T08:58:42Z</time>
      </trkpt>
      <trkpt lat="49.17545" lon="7.00149">
        <ele>272</ele>
        <time>2011-01-23T08:58:44Z</time>
      </trkpt>
      <trkpt lat="49.17546" lon="7.0015">
        <ele>272</ele>
        <time>2011-01-23T08:58:45Z</time>
      </trkpt>
      <trkpt lat="49.17546" lon="7.00152">
        <ele>271</ele>
        <time>2011-01-23T08:58:46Z</time>
      </trkpt>
      <trkpt lat="49.17546" lon="7.00154">
        <ele>271</ele>
        <time>2011-01-23T08:58:47Z</time>
      </trkpt>
      <trkpt lat="49.17547" lon="7.00155">
        <ele>271</ele>
        <time>2011-01-23T08:58:48Z</time>
      </trkpt>
      <trkpt lat="49.17547" lon="7.00157">
        <ele>271</ele>
        <time>2011-01-23T08:58:49Z</time>
      </trkpt>
      <trkpt lat="49.17548" lon="7.00159">
        <ele>270</ele>
        <time>2011-01-23T08:58:50Z</time>
      </trkpt>
      <trkpt lat="49.17548" lon="7.00161">
        <ele>270</ele>
        <time>2011-01-23T08:58:51Z</time>
      </trkpt>
      <trkpt lat="49.17548" lon="7.00162">
        <ele>270</ele>
        <time>2011-01-23T08:58:52Z</time>
      </trkpt>
      <trkpt lat="49.17549" lon="7.00164">
        <ele>270</ele>
        <time>2011-01-23T08:58:53Z</time>
      </trkpt>
      <trkpt lat="49.17549" lon="7.00166">
        <ele>270</ele>
        <time>2011-01-23T08:58:54Z</time>
      </trkpt>
      <trkpt lat="49.1755" lon="7.00168">
        <ele>269</ele>
        <time>2011-01-23T08:58:55Z</time>
      </trkpt>
      <trkpt lat="49.1755" lon="7.0017">
        <ele>269</ele>
        <time>2011-01-23T08:58:56Z</time>
      </trkpt>
      <trkpt lat="49.17551" lon="7.00172">
        <ele>269</ele>
        <time>2011-01-23T08:58:57Z</time>
      </trkpt>
      <trkpt lat="49.17551" lon="7.00174">
        <ele>269</ele>
        <time>2011-01-23T08:58:58Z</time>
      </trkpt>
      <trkpt lat="49.17552" lon="7.00175">
        <ele>268</ele>
        <time>2011-01-23T08:58:59Z</time>
      </trkpt>
      <trkpt lat="49.17552" lon="7.00177">
        <ele>268</ele>
        <time>2011-01-23T08:59:00Z</time>
      </trkpt>
      <trkpt lat="49.17553" lon="7.00179">
        <ele>268</ele>
        <time>2011-01-23T08:59:01Z</time>
      </trkpt>
      <trkpt lat="49.17553" lon="7.0018">
        <ele>268</ele>
        <time>2011-01-23T08:59:02Z</time>
      </trkpt>
      <trkpt lat="49.17554" lon="7.00182">
        <ele>268</ele>
        <time>2011-01-23T08:59:03Z</time>
      </trkpt>
      <trkpt lat="49.17554" lon="7.00184">
        <ele>267</ele>
        <time>2011-01-23T08:59:04Z</time>
      </trkpt>
      <trkpt lat="49.17554" lon="7.00186">
        <ele>267</ele>
        <time>2011-01-23T08:59:05Z</time>
      </trkpt>
      <trkpt lat="49.17555" lon="7.00188">
        <ele>267</ele>
        <time>2011-01-23T08:59:06Z</time>
      </trkpt>
      <trkpt lat="49.17555" lon="7.00189">
        <ele>267</ele>
        <time>2011-01-23T08:59:07Z</time>
      </trkpt>
      <trkpt lat="49.17556" lon="7.00191">
        <ele>266</ele>
        <time>2011-01-23T08:59:08Z</time>
      </trkpt>
      <trkpt lat="49.17556" lon="7.00193">
        <ele>266</ele>
        <time>2011-01-23T08:59:09Z</time>
      </trkpt>
      <trkpt lat="49.17557" lon="7.00195">
        <ele>266</ele>
        <time>2011-01-23T08:59:10Z</time>
      </trkpt>
      <trkpt lat="49.17557" lon="7.00197">
        <ele>266</ele>
        <time>2011-01-23T08:59:11Z</time>
      </trkpt>
      <trkpt lat="49.17558" lon="7.00199">
        <ele>265</ele>
        <time>2011-01-23T08:59:12Z</time>
      </trkpt>
      <trkpt lat="49.17558" lon="7.002">
        <ele>265</ele>
        <time>2011-01-23T08:59:13Z</time>
      </trkpt>
      <trkpt lat="49.17559" lon="7.00202">
        <ele>264</ele>
        <time>2011-01-23T08:59:14Z</time>
      </trkpt>
      <trkpt lat="49.17559" lon="7.00204">
        <ele>264</ele>
        <time>2011-01-23T08:59:15Z</time>
      </trkpt>
      <trkpt lat="49.17559" lon="7.00206">
        <ele>263</ele>
        <time>2011-01-23T08:59:16Z</time>
      </trkpt>
      <trkpt lat="49.1756" lon="7.00208">
        <ele>263</ele>
        <time>2011-01-23T08:59:17Z</time>
      </trkpt>
      <trkpt lat="49.1756" lon="7.00209">
        <ele>263</ele>
        <time>2011-01-23T08:59:18Z</time>
      </trkpt>
      <trkpt lat="49.17561" lon="7.00211">
        <ele>262</ele>
        <time>2011-01-23T08:59:19Z</time>
      </trkpt>
      <trkpt lat="49.17561" lon="7.00213">
        <ele>262</ele>
        <time>2011-01-23T08:59:20Z</time>
      </trkpt>
      <trkpt lat="49.17563" lon="7.00216">
        <ele>261</ele>
        <time>2011-01-23T08:59:22Z</time>
      </trkpt>
      <trkpt lat="49.17564" lon="7.00217">
        <ele>261</ele>
        <time>2011-01-23T08:59:23Z</time>
      </trkpt>
      <trkpt lat="49.17565" lon="7.00219">
        <ele>261</ele>
        <time>2011-01-23T08:59:24Z</time>
      </trkpt>
      <trkpt lat="49.17565" lon="7.00221">
        <ele>261</ele>
        <time>2011-01-23T08:59:25Z</time>
      </trkpt>
      <trkpt lat="49.17566" lon="7.00222">
        <ele>260</ele>
        <time>2011-01-23T08:59:26Z</time>
      </trkpt>
      <trkpt lat="49.17567" lon="7.00224">
        <ele>260</ele>
        <time>2011-01-23T08:59:27Z</time>
      </trkpt>
      <trkpt lat="49.17567" lon="7.00226">
        <ele>260</ele>
        <time>2011-01-23T08:59:28Z</time>
      </trkpt>
      <trkpt lat="49.17568" lon="7.00229">
        <ele>259</ele>
        <time>2011-01-23T08:59:30Z</time>
      </trkpt>
      <trkpt lat="49.17569" lon="7.00231">
        <ele>259</ele>
        <time>2011-01-23T08:59:31Z</time>
      </trkpt>
      <trkpt lat="49.1757" lon="7.00233">
        <ele>259</ele>
        <time>2011-01-23T08:59:32Z</time>
      </trkpt>
      <trkpt lat="49.17571" lon="7.00235">
        <ele>258</ele>
        <time>2011-01-23T08:59:33Z</time>
      </trkpt>
      <trkpt lat="49.17572" lon="7.00236">
        <ele>258</ele>
        <time>2011-01-23T08:59:34Z</time>
      </trkpt>
      <trkpt lat="49.17573" lon="7.00239">
        <ele>258</ele>
        <time>2011-01-23T08:59:36Z</time>
      </trkpt>
      <trkpt lat="49.17574" lon="7.00241">
        <ele>258</ele>
        <time>2011-01-23T08:59:37Z</time>
      </trkpt>
      <trkpt lat="49.17575" lon="7.00244">
        <ele>258</ele>
        <time>2011-01-23T08:59:39Z</time>
      </trkpt>
      <trkpt lat="49.17577" lon="7.00247">
        <ele>257</ele>
        <time>2011-01-23T08:59:41Z</time>
      </trkpt>
      <trkpt lat="49.17579" lon="7.0025">
        <ele>257</ele>
        <time>2011-01-23T08:59:43Z</time>
      </trkpt>
      <trkpt lat="49.1758" lon="7.00252">
        <ele>257</ele>
        <time>2011-01-23T08:59:44Z</time>
      </trkpt>
      <trkpt lat="49.1758" lon="7.00254">
        <ele>257</ele>
        <time>2011-01-23T08:59:45Z</time>
      </trkpt>
      <trkpt lat="49.17581" lon="7.00255">
        <ele>257</ele>
        <time>2011-01-23T08:59:46Z</time>
      </trkpt>
      <trkpt lat="49.17583" lon="7.00258">
        <ele>257</ele>
        <time>2011-01-23T08:59:48Z</time>
      </trkpt>
      <trkpt lat="49.17584" lon="7.00261">
        <ele>257</ele>
        <time>2011-01-23T08:59:50Z</time>
      </trkpt>
      <trkpt lat="49.17586" lon="7.00264">
        <ele>257</ele>
        <time>2011-01-23T08:59:52Z</time>
      </trkpt>
      <trkpt lat="49.17588" lon="7.00267">
        <ele>257</ele>
        <time>2011-01-23T08:59:54Z</time>
      </trkpt>
      <trkpt lat="49.17589" lon="7.00269">
        <ele>257</ele>
        <time>2011-01-23T08:59:55Z</time>
      </trkpt>
      <trkpt lat="49.1759" lon="7.00272">
        <ele>257</ele>
        <time>2011-01-23T08:59:57Z</time>
      </trkpt>
      <trkpt lat="49.17591" lon="7.00273">
        <ele>257</ele>
        <time>2011-01-23T08:59:58Z</time>
      </trkpt>
      <trkpt lat="49.17593" lon="7.00273">
        <ele>257</ele>
        <time>2011-01-23T08:59:59Z</time>
      </trkpt>
      <trkpt lat="49.17594" lon="7.00275">
        <ele>257</ele>
        <time>2011-01-23T09:00:01Z</time>
      </trkpt>
      <trkpt lat="49.17596" lon="7.00276">
        <ele>257</ele>
        <time>2011-01-23T09:00:03Z</time>
      </trkpt>
      <trkpt lat="49.17598" lon="7.00277">
        <ele>257</ele>
        <time>2011-01-23T09:00:05Z</time>
      </trkpt>
      <trkpt lat="49.176" lon="7.00278">
        <ele>257</ele>
        <time>2011-01-23T09:00:06Z</time>
      </trkpt>
      <trkpt lat="49.17601" lon="7.00279">
        <ele>257</ele>
        <time>2011-01-23T09:00:07Z</time>
      </trkpt>
      <trkpt lat="49.17603" lon="7.0028">
        <ele>257</ele>
        <time>2011-01-23T09:00:08Z</time>
      </trkpt>
      <trkpt lat="49.17604" lon="7.00281">
        <ele>257</ele>
        <time>2011-01-23T09:00:09Z</time>
      </trkpt>
      <trkpt lat="49.17606" lon="7.00281">
        <ele>257</ele>
        <time>2011-01-23T09:00:10Z</time>
      </trkpt>
      <trkpt lat="49.17607" lon="7.00281">
        <ele>257</ele>
        <time>2011-01-23T09:00:11Z</time>
      </trkpt>
      <trkpt lat="49.17608" lon="7.00281">
        <ele>257</ele>
        <time>2011-01-23T09:00:12Z</time>
      </trkpt>
      <trkpt lat="49.17609" lon="7.00281">
        <ele>257</ele>
        <time>2011-01-23T09:00:13Z</time>
      </trkpt>
      <trkpt lat="49.17611" lon="7.00281">
        <ele>257</ele>
        <time>2011-01-23T09:00:14Z</time>
      </trkpt>
      <trkpt lat="49.17612" lon="7.00281">
        <ele>257</ele>
        <time>2011-01-23T09:00:15Z</time>
      </trkpt>
      <trkpt lat="49.17613" lon="7.00281">
        <ele>257</ele>
        <time>2011-01-23T09:00:16Z</time>
      </trkpt>
      <trkpt lat="49.17615" lon="7.0028">
        <ele>257</ele>
        <time>2011-01-23T09:00:18Z</time>
      </trkpt>
      <trkpt lat="49.17616" lon="7.00279">
        <ele>257</ele>
        <time>2011-01-23T09:00:19Z</time>
      </trkpt>
      <trkpt lat="49.17619" lon="7.00278">
        <ele>257</ele>
        <time>2011-01-23T09:00:21Z</time>
      </trkpt>
      <trkpt lat="49.1762" lon="7.00277">
        <ele>257</ele>
        <time>2011-01-23T09:00:22Z</time>
      </trkpt>
      <trkpt lat="49.17621" lon="7.00277">
        <ele>257</ele>
        <time>2011-01-23T09:00:23Z</time>
      </trkpt>
      <trkpt lat="49.17622" lon="7.00276">
        <ele>257</ele>
        <time>2011-01-23T09:00:24Z</time>
      </trkpt>
      <trkpt lat="49.17624" lon="7.00276">
        <ele>257</ele>
        <time>2011-01-23T09:00:25Z</time>
      </trkpt>
      <trkpt lat="49.17625" lon="7.00275">
        <ele>257</ele>
        <time>2011-01-23T09:00:26Z</time>
      </trkpt>
      <trkpt lat="49.17626" lon="7.00275">
        <ele>257</ele>
        <time>2011-01-23T09:00:27Z</time>
      </trkpt>
      <trkpt lat="49.17628" lon="7.00274">
        <ele>257</ele>
        <time>2011-01-23T09:00:29Z</time>
      </trkpt>
      <trkpt lat="49.17629" lon="7.00274">
        <ele>257</ele>
        <time>2011-01-23T09:00:30Z</time>
      </trkpt>
      <trkpt lat="49.1763" lon="7.00273">
        <ele>257</ele>
        <time>2011-01-23T09:00:31Z</time>
      </trkpt>
      <trkpt lat="49.17632" lon="7.00272">
        <ele>257</ele>
        <time>2011-01-23T09:00:32Z</time>
      </trkpt>
      <trkpt lat="49.17634" lon="7.00271">
        <ele>257</ele>
        <time>2011-01-23T09:00:34Z</time>
      </trkpt>
      <trkpt lat="49.17636" lon="7.00269">
        <ele>257</ele>
        <time>2011-01-23T09:00:36Z</time>
      </trkpt>
      <trkpt lat="49.17638" lon="7.00268">
        <ele>257</ele>
        <time>2011-01-23T09:00:38Z</time>
      </trkpt>
      <trkpt lat="49.17639" lon="7.00267">
        <ele>257</ele>
        <time>2011-01-23T09:00:39Z</time>
      </trkpt>
      <trkpt lat="49.1764" lon="7.00267">
        <ele>257</ele>
        <time>2011-01-23T09:00:40Z</time>
      </trkpt>
      <trkpt lat="49.17642" lon="7.00267">
        <ele>257</ele>
        <time>2011-01-23T09:00:41Z</time>
      </trkpt>
      <trkpt lat="49.17643" lon="7.00269">
        <ele>257</ele>
        <time>2011-01-23T09:00:43Z</time>
      </trkpt>
      <trkpt lat="49.17644" lon="7.0027">
        <ele>257</ele>
        <time>2011-01-23T09:00:44Z</time>
      </trkpt>
      <trkpt lat="49.17646" lon="7.00273">
        <ele>257</ele>
        <time>2011-01-23T09:00:46Z</time>
      </trkpt>
      <trkpt lat="49.17648" lon="7.00274">
        <ele>257</ele>
        <time>2011-01-23T09:00:48Z</time>
      </trkpt>
      <trkpt lat="49.17649" lon="7.00274">
        <ele>257</ele>
        <time>2011-01-23T09:00:49Z</time>
      </trkpt>
      <trkpt lat="49.17651" lon="7.00274">
        <ele>257</ele>
        <time>2011-01-23T09:00:50Z</time>
      </trkpt>
      <trkpt lat="49.17652" lon="7.00274">
        <ele>257</ele>
        <time>2011-01-23T09:00:51Z</time>
      </trkpt>
      <trkpt lat="49.17654" lon="7.00275">
        <ele>257</ele>
        <time>2011-01-23T09:00:53Z</time>
      </trkpt>
      <trkpt lat="49.17656" lon="7.00278">
        <ele>257</ele>
        <time>2011-01-23T09:00:55Z</time>
      </trkpt>
      <trkpt lat="49.17657" lon="7.00281">
        <ele>257</ele>
        <time>2011-01-23T09:00:57Z</time>
      </trkpt>
      <trkpt lat="49.17658" lon="7.00283">
        <ele>257</ele>
        <time>2011-01-23T09:00:59Z</time>
      </trkpt>
      <trkpt lat="49.17659" lon="7.00286">
        <ele>257</ele>
        <time>2011-01-23T09:01:01Z</time>
      </trkpt>
      <trkpt lat="49.1766" lon="7.00289">
        <ele>257</ele>
        <time>2011-01-23T09:01:03Z</time>
      </trkpt>
      <trkpt lat="49.17662" lon="7.00291">
        <ele>257</ele>
        <time>2011-01-23T09:01:05Z</time>
      </trkpt>
      <trkpt lat="49.17664" lon="7.00294">
        <ele>256</ele>
        <time>2011-01-23T09:01:07Z</time>
      </trkpt>
      <trkpt lat="49.17665" lon="7.00295">
        <ele>256</ele>
        <time>2011-01-23T09:01:08Z</time>
      </trkpt>
      <trkpt lat="49.17667" lon="7.00296">
        <ele>256</ele>
        <time>2011-01-23T09:01:09Z</time>
      </trkpt>
      <trkpt lat="49.17668" lon="7.00297">
        <ele>256</ele>
        <time>2011-01-23T09:01:10Z</time>
      </trkpt>
      <trkpt lat="49.17669" lon="7.003">
        <ele>256</ele>
        <time>2011-01-23T09:01:12Z</time>
      </trkpt>
      <trkpt lat="49.1767" lon="7.00302">
        <ele>256</ele>
        <time>2011-01-23T09:01:13Z</time>
      </trkpt>
      <trkpt lat="49.17671" lon="7.00305">
        <ele>256</ele>
        <time>2011-01-23T09:01:15Z</time>
      </trkpt>
      <trkpt lat="49.17672" lon="7.00307">
        <ele>256</ele>
        <time>2011-01-23T09:01:17Z</time>
      </trkpt>
      <trkpt lat="49.17674" lon="7.00309">
        <ele>256</ele>
        <time>2011-01-23T09:01:19Z</time>
      </trkpt>
      <trkpt lat="49.17675" lon="7.00309">
        <ele>256</ele>
        <time>2011-01-23T09:01:20Z</time>
      </trkpt>
      <trkpt lat="49.17677" lon="7.00308">
        <ele>256</ele>
        <time>2011-01-23T09:01:22Z</time>
      </trkpt>
      <trkpt lat="49.17679" lon="7.00306">
        <ele>256</ele>
        <time>2011-01-23T09:01:24Z</time>
      </trkpt>
      <trkpt lat="49.17681" lon="7.00305">
        <ele>256</ele>
        <time>2011-01-23T09:01:26Z</time>
      </trkpt>
      <trkpt lat="49.17683" lon="7.00303">
        <ele>256</ele>
        <time>2011-01-23T09:01:28Z</time>
      </trkpt>
      <trkpt lat="49.17684" lon="7.00302">
        <ele>256</ele>
        <time>2011-01-23T09:01:29Z</time>
      </trkpt>
      <trkpt lat="49.17686" lon="7.00301">
        <ele>256</ele>
        <time>2011-01-23T09:01:31Z</time>
      </trkpt>
      <trkpt lat="49.17687" lon="7.003">
        <ele>256</ele>
        <time>2011-01-23T09:01:32Z</time>
      </trkpt>
      <trkpt lat="49.17688" lon="7.00299">
        <ele>256</ele>
        <time>2011-01-23T09:01:33Z</time>
      </trkpt>
      <trkpt lat="49.17689" lon="7.00299">
        <ele>256</ele>
        <time>2011-01-23T09:01:34Z</time>
      </trkpt>
      <trkpt lat="49.17691" lon="7.00298">
        <ele>256</ele>
        <time>2011-01-23T09:01:35Z</time>
      </trkpt>
      <trkpt lat="49.17692" lon="7.00298">
        <ele>256</ele>
        <time>2011-01-23T09:01:36Z</time>
      </trkpt>
      <trkpt lat="49.17693" lon="7.00297">
        <ele>256</ele>
        <time>2011-01-23T09:01:37Z</time>
      </trkpt>
      <trkpt lat="49.17694" lon="7.00297">
        <ele>256</ele>
        <time>2011-01-23T09:01:38Z</time>
      </trkpt>
      <trkpt lat="49.17696" lon="7.00296">
        <ele>256</ele>
        <time>2011-01-23T09:01:39Z</time>
      </trkpt>
      <trkpt lat="49.17697" lon="7.00296">
        <ele>256</ele>
        <time>2011-01-23T09:01:40Z</time>
      </trkpt>
      <trkpt lat="49.17698" lon="7.00296">
        <ele>256</ele>
        <time>2011-01-23T09:01:41Z</time>
      </trkpt>
      <trkpt lat="49.17699" lon="7.00296">
        <ele>256</ele>
        <time>2011-01-23T09:01:42Z</time>
      </trkpt>
      <trkpt lat="49.17701" lon="7.00296">
        <ele>256</ele>
        <time>2011-01-23T09:01:43Z</time>
      </trkpt>
      <trkpt lat="49.17702" lon="7.00296">
        <ele>256</ele>
        <time>2011-01-23T09:01:44Z</time>
      </trkpt>
      <trkpt lat="49.17703" lon="7.00297">
        <ele>256</ele>
        <time>2011-01-23T09:01:45Z</time>
      </trkpt>
      <trkpt lat="49.17705" lon="7.00297">
        <ele>256</ele>
        <time>2011-01-23T09:01:46Z</time>
      </trkpt>
      <trkpt lat="49.17706" lon="7.00297">
        <ele>256</ele>
        <time>2011-01-23T09:01:47Z</time>
      </trkpt>
      <trkpt lat="49.17707" lon="7.00298">
        <ele>256</ele>
        <time>2011-01-23T09:01:48Z</time>
      </trkpt>
      <trkpt lat="49.17709" lon="7.00299">
        <ele>256</ele>
        <time>2011-01-23T09:01:49Z</time>
      </trkpt>
      <trkpt lat="49.1771" lon="7.00299">
        <ele>256</ele>
        <time>2011-01-23T09:01:50Z</time>
      </trkpt>
      <trkpt lat="49.17711" lon="7.00299">
        <ele>256</ele>
        <time>2011-01-23T09:01:51Z</time>
      </trkpt>
      <trkpt lat="49.17712" lon="7.003">
        <ele>256</ele>
        <time>2011-01-23T09:01:52Z</time>
      </trkpt>
      <trkpt lat="49.17714" lon="7.00301">
        <ele>256</ele>
        <time>2011-01-23T09:01:53Z</time>
      </trkpt>
      <trkpt lat="49.17715" lon="7.00301">
        <ele>256</ele>
        <time>2011-01-23T09:01:54Z</time>
      </trkpt>
      <trkpt lat="49.17717" lon="7.00302">
        <ele>256</ele>
        <time>2011-01-23T09:01:55Z</time>
      </trkpt>
      <trkpt lat="49.17718" lon="7.00302">
        <ele>256</ele>
        <time>2011-01-23T09:01:56Z</time>
      </trkpt>
      <trkpt lat="49.17719" lon="7.00303">
        <ele>256</ele>
        <time>2011-01-23T09:01:57Z</time>
      </trkpt>
      <trkpt lat="49.17721" lon="7.00304">
        <ele>255</ele>
        <time>2011-01-23T09:01:59Z</time>
      </trkpt>
      <trkpt lat="49.17722" lon="7.00304">
        <ele>255</ele>
        <time>2011-01-23T09:02:00Z</time>
      </trkpt>
      <trkpt lat="49.17724" lon="7.00305">
        <ele>255</ele>
        <time>2011-01-23T09:02:02Z</time>
      </trkpt>
      <trkpt lat="49.17725" lon="7.00306">
        <ele>255</ele>
        <time>2011-01-23T09:02:03Z</time>
      </trkpt>
      <trkpt lat="49.17727" lon="7.00307">
        <ele>255</ele>
        <time>2011-01-23T09:02:05Z</time>
      </trkpt>
      <trkpt lat="49.17729" lon="7.00308">
        <ele>255</ele>
        <time>2011-01-23T09:02:07Z</time>
      </trkpt>
      <trkpt lat="49.17731" lon="7.00311">
        <ele>255</ele>
        <time>2011-01-23T09:02:09Z</time>
      </trkpt>
      <trkpt lat="49.17732" lon="7.00312">
        <ele>255</ele>
        <time>2011-01-23T09:02:10Z</time>
      </trkpt>
      <trkpt lat="49.17735" lon="7.00313">
        <ele>255</ele>
        <time>2011-01-23T09:02:12Z</time>
      </trkpt>
      <trkpt lat="49.17736" lon="7.00313">
        <ele>255</ele>
        <time>2011-01-23T09:02:13Z</time>
      </trkpt>
      <trkpt lat="49.17738" lon="7.00314">
        <ele>255</ele>
        <time>2011-01-23T09:02:14Z</time>
      </trkpt>
      <trkpt lat="49.17739" lon="7.00314">
        <ele>255</ele>
        <time>2011-01-23T09:02:15Z</time>
      </trkpt>
      <trkpt lat="49.17741" lon="7.00315">
        <ele>255</ele>
        <time>2011-01-23T09:02:16Z</time>
      </trkpt>
      <trkpt lat="49.17743" lon="7.00315">
        <ele>255</ele>
        <time>2011-01-23T09:02:17Z</time>
      </trkpt>
      <trkpt lat="49.17744" lon="7.00316">
        <ele>255</ele>
        <time>2011-01-23T09:02:18Z</time>
      </trkpt>
      <trkpt lat="49.17746" lon="7.00316">
        <ele>255</ele>
        <time>2011-01-23T09:02:19Z</time>
      </trkpt>
      <trkpt lat="49.17747" lon="7.00317">
        <ele>255</ele>
        <time>2011-01-23T09:02:20Z</time>
      </trkpt>
      <trkpt lat="49.17748" lon="7.00317">
        <ele>255</ele>
        <time>2011-01-23T09:02:21Z</time>
      </trkpt>
      <trkpt lat="49.17749" lon="7.00317">
        <ele>255</ele>
        <time>2011-01-23T09:02:22Z</time>
      </trkpt>
      <trkpt lat="49.17751" lon="7.00317">
        <ele>255</ele>
        <time>2011-01-23T09:02:24Z</time>
      </trkpt>
      <trkpt lat="49.17753" lon="7.00318">
        <ele>255</ele>
        <time>2011-01-23T09:02:26Z</time>
      </trkpt>
      <trkpt lat="49.17754" lon="7.00317">
        <ele>255</ele>
        <time>2011-01-23T09:02:27Z</time>
      </trkpt>
      <trkpt lat="49.17756" lon="7.00317">
        <ele>255</ele>
        <time>2011-01-23T09:02:28Z</time>
      </trkpt>
      <trkpt lat="49.17757" lon="7.00317">
        <ele>255</ele>
        <time>2011-01-23T09:02:29Z</time>
      </trkpt>
      <trkpt lat="49.17758" lon="7.00316">
        <ele>255</ele>
        <time>2011-01-23T09:02:30Z</time>
      </trkpt>
      <trkpt lat="49.17759" lon="7.00316">
        <ele>255</ele>
        <time>2011-01-23T09:02:31Z</time>
      </trkpt>
      <trkpt lat="49.17761" lon="7.00316">
        <ele>255</ele>
        <time>2011-01-23T09:02:33Z</time>
      </trkpt>
      <trkpt lat="49.17762" lon="7.00316">
        <ele>255</ele>
        <time>2011-01-23T09:02:34Z</time>
      </trkpt>
      <trkpt lat="49.17764" lon="7.00315">
        <ele>255</ele>
        <time>2011-01-23T09:02:35Z</time>
      </trkpt>
      <trkpt lat="49.17765" lon="7.00315">
        <ele>255</ele>
        <time>2011-01-23T09:02:36Z</time>
      </trkpt>
      <trkpt lat="49.17766" lon="7.00315">
        <ele>255</ele>
        <time>2011-01-23T09:02:37Z</time>
      </trkpt>
      <trkpt lat="49.17767" lon="7.00315">
        <ele>255</ele>
        <time>2011-01-23T09:02:38Z</time>
      </trkpt>
      <trkpt lat="49.17768" lon="7.00315">
        <ele>255</ele>
        <time>2011-01-23T09:02:39Z</time>
      </trkpt>
      <trkpt lat="49.1777" lon="7.00316">
        <ele>255</ele>
        <time>2011-01-23T09:02:40Z</time>
      </trkpt>
      <trkpt lat="49.17772" lon="7.00315">
        <ele>254</ele>
        <time>2011-01-23T09:02:42Z</time>
      </trkpt>
      <trkpt lat="49.17773" lon="7.00315">
        <ele>254</ele>
        <time>2011-01-23T09:02:44Z</time>
      </trkpt>
      <trkpt lat="49.17775" lon="7.00316">
        <ele>254</ele>
        <time>2011-01-23T09:02:46Z</time>
      </trkpt>
      <trkpt lat="49.17777" lon="7.00316">
        <ele>253</ele>
        <time>2011-01-23T09:02:48Z</time>
      </trkpt>
      <trkpt lat="49.17779" lon="7.00317">
        <ele>253</ele>
        <time>2011-01-23T09:02:50Z</time>
      </trkpt>
      <trkpt lat="49.17781" lon="7.00318">
        <ele>252</ele>
        <time>2011-01-23T09:02:52Z</time>
      </trkpt>
      <trkpt lat="49.17783" lon="7.00319">
        <ele>252</ele>
        <time>2011-01-23T09:02:54Z</time>
      </trkpt>
      <trkpt lat="49.17785" lon="7.00319">
        <ele>252</ele>
        <time>2011-01-23T09:02:56Z</time>
      </trkpt>
      <trkpt lat="49.17787" lon="7.0032">
        <ele>251</ele>
        <time>2011-01-23T09:02:58Z</time>
      </trkpt>
      <trkpt lat="49.17789" lon="7.00321">
        <ele>251</ele>
        <time>2011-01-23T09:03:00Z</time>
      </trkpt>
      <trkpt lat="49.17791" lon="7.00322">
        <ele>250</ele>
        <time>2011-01-23T09:03:02Z</time>
      </trkpt>
      <trkpt lat="49.17792" lon="7.00322">
        <ele>250</ele>
        <time>2011-01-23T09:03:03Z</time>
      </trkpt>
      <trkpt lat="49.17794" lon="7.00324">
        <ele>250</ele>
        <time>2011-01-23T09:03:05Z</time>
      </trkpt>
      <trkpt lat="49.17796" lon="7.00325">
        <ele>250</ele>
        <time>2011-01-23T09:03:07Z</time>
      </trkpt>
      <trkpt lat="49.17798" lon="7.00326">
        <ele>249</ele>
        <time>2011-01-23T09:03:09Z</time>
      </trkpt>
      <trkpt lat="49.178" lon="7.00327">
        <ele>249</ele>
        <time>2011-01-23T09:03:11Z</time>
      </trkpt>
      <trkpt lat="49.17801" lon="7.00328">
        <ele>249</ele>
        <time>2011-01-23T09:03:12Z</time>
      </trkpt>
      <trkpt lat="49.17802" lon="7.00328">
        <ele>249</ele>
        <time>2011-01-23T09:03:13Z</time>
      </trkpt>
      <trkpt lat="49.17803" lon="7.00329">
        <ele>248</ele>
        <time>2011-01-23T09:03:14Z</time>
      </trkpt>
      <trkpt lat="49.17804" lon="7.00329">
        <ele>248</ele>
        <time>2011-01-23T09:03:15Z</time>
      </trkpt>
      <trkpt lat="49.17807" lon="7.0033">
        <ele>248</ele>
        <time>2011-01-23T09:03:17Z</time>
      </trkpt>
      <trkpt lat="49.17808" lon="7.0033">
        <ele>247</ele>
        <time>2011-01-23T09:03:18Z</time>
      </trkpt>
      <trkpt lat="49.1781" lon="7.00332">
        <ele>247</ele>
        <time>2011-01-23T09:03:20Z</time>
      </trkpt>
      <trkpt lat="49.17812" lon="7.00332">
        <ele>247</ele>
        <time>2011-01-23T09:03:22Z</time>
      </trkpt>
      <trkpt lat="49.17813" lon="7.00334">
        <ele>246</ele>
        <time>2011-01-23T09:03:24Z</time>
      </trkpt>
      <trkpt lat="49.17815" lon="7.00334">
        <ele>246</ele>
        <time>2011-01-23T09:03:25Z</time>
      </trkpt>
      <trkpt lat="49.17816" lon="7.00335">
        <ele>245</ele>
        <time>2011-01-23T09:03:27Z</time>
      </trkpt>
      <trkpt lat="49.17818" lon="7.00337">
        <ele>245</ele>
        <time>2011-01-23T09:03:29Z</time>
      </trkpt>
      <trkpt lat="49.1782" lon="7.00338">
        <ele>244</ele>
        <time>2011-01-23T09:03:31Z</time>
      </trkpt>
      <trkpt lat="49.17822" lon="7.00339">
        <ele>244</ele>
        <time>2011-01-23T09:03:32Z</time>
      </trkpt>
      <trkpt lat="49.17823" lon="7.0034">
        <ele>244</ele>
        <time>2011-01-23T09:03:34Z</time>
      </trkpt>
      <trkpt lat="49.17825" lon="7.0034">
        <ele>244</ele>
        <time>2011-01-23T09:03:35Z</time>
      </trkpt>
      <trkpt lat="49.17826" lon="7.00342">
        <ele>243</ele>
        <time>2011-01-23T09:03:37Z</time>
      </trkpt>
      <trkpt lat="49.17828" lon="7.00343">
        <ele>243</ele>
        <time>2011-01-23T09:03:38Z</time>
      </trkpt>
      <trkpt lat="49.1783" lon="7.00344">
        <ele>243</ele>
        <time>2011-01-23T09:03:40Z</time>
      </trkpt>
      <trkpt lat="49.17831" lon="7.00345">
        <ele>243</ele>
        <time>2011-01-23T09:03:42Z</time>
      </trkpt>
      <trkpt lat="49.17833" lon="7.00346">
        <ele>243</ele>
        <time>2011-01-23T09:03:43Z</time>
      </trkpt>
      <trkpt lat="49.17835" lon="7.00347">
        <ele>242</ele>
        <time>2011-01-23T09:03:45Z</time>
      </trkpt>
      <trkpt lat="49.17836" lon="7.00348">
        <ele>242</ele>
        <time>2011-01-23T09:03:46Z</time>
      </trkpt>
      <trkpt lat="49.17837" lon="7.00348">
        <ele>242</ele>
        <time>2011-01-23T09:03:47Z</time>
      </trkpt>
      <trkpt lat="49.17839" lon="7.0035">
        <ele>242</ele>
        <time>2011-01-23T09:03:49Z</time>
      </trkpt>
      <trkpt lat="49.17841" lon="7.00351">
        <ele>241</ele>
        <time>2011-01-23T09:03:51Z</time>
      </trkpt>
      <trkpt lat="49.17843" lon="7.00352">
        <ele>241</ele>
        <time>2011-01-23T09:03:53Z</time>
      </trkpt>
      <trkpt lat="49.17844" lon="7.00352">
        <ele>241</ele>
        <time>2011-01-23T09:03:54Z</time>
      </trkpt>
      <trkpt lat="49.17846" lon="7.00353">
        <ele>240</ele>
        <time>2011-01-23T09:03:56Z</time>
      </trkpt>
      <trkpt lat="49.17848" lon="7.00354">
        <ele>240</ele>
        <time>2011-01-23T09:03:58Z</time>
      </trkpt>
      <trkpt lat="49.1785" lon="7.00355">
        <ele>239</ele>
        <time>2011-01-23T09:04:00Z</time>
      </trkpt>
      <trkpt lat="49.17851" lon="7.00356">
        <ele>239</ele>
        <time>2011-01-23T09:04:01Z</time>
      </trkpt>
      <trkpt lat="49.17852" lon="7.00356">
        <ele>239</ele>
        <time>2011-01-23T09:04:02Z</time>
      </trkpt>
      <trkpt lat="49.17854" lon="7.00357">
        <ele>239</ele>
        <time>2011-01-23T09:04:03Z</time>
      </trkpt>
      <trkpt lat="49.17856" lon="7.00358">
        <ele>239</ele>
        <time>2011-01-23T09:04:05Z</time>
      </trkpt>
      <trkpt lat="49.17857" lon="7.00358">
        <ele>239</ele>
        <time>2011-01-23T09:04:06Z</time>
      </trkpt>
      <trkpt lat="49.17859" lon="7.0036">
        <ele>238</ele>
        <time>2011-01-23T09:04:08Z</time>
      </trkpt>
      <trkpt lat="49.17861" lon="7.00361">
        <ele>238</ele>
        <time>2011-01-23T09:04:10Z</time>
      </trkpt>
      <trkpt lat="49.17862" lon="7.00362">
        <ele>238</ele>
        <time>2011-01-23T09:04:11Z</time>
      </trkpt>
      <trkpt lat="49.17865" lon="7.00363">
        <ele>238</ele>
        <time>2011-01-23T09:04:13Z</time>
      </trkpt>
      <trkpt lat="49.17867" lon="7.00364">
        <ele>238</ele>
        <time>2011-01-23T09:04:15Z</time>
      </trkpt>
      <trkpt lat="49.17868" lon="7.00366">
        <ele>237</ele>
        <time>2011-01-23T09:04:17Z</time>
      </trkpt>
      <trkpt lat="49.1787" lon="7.00367">
        <ele>237</ele>
        <time>2011-01-23T09:04:19Z</time>
      </trkpt>
      <trkpt lat="49.17872" lon="7.00368">
        <ele>237</ele>
        <time>2011-01-23T09:04:20Z</time>
      </trkpt>
      <trkpt lat="49.17873" lon="7.00369">
        <ele>236</ele>
        <time>2011-01-23T09:04:21Z</time>
      </trkpt>
      <trkpt lat="49.17875" lon="7.00371">
        <ele>236</ele>
        <time>2011-01-23T09:04:23Z</time>
      </trkpt>
      <trkpt lat="49.17877" lon="7.00372">
        <ele>236</ele>
        <time>2011-01-23T09:04:25Z</time>
      </trkpt>
      <trkpt lat="49.17879" lon="7.00373">
        <ele>236</ele>
        <time>2011-01-23T09:04:27Z</time>
      </trkpt>
      <trkpt lat="49.1788" lon="7.00374">
        <ele>236</ele>
        <time>2011-01-23T09:04:28Z</time>
      </trkpt>
      <trkpt lat="49.17881" lon="7.00375">
        <ele>236</ele>
        <time>2011-01-23T09:04:29Z</time>
      </trkpt>
      <trkpt lat="49.17883" lon="7.00376">
        <ele>236</ele>
        <time>2011-01-23T09:04:30Z</time>
      </trkpt>
      <trkpt lat="49.17884" lon="7.00377">
        <ele>236</ele>
        <time>2011-01-23T09:04:31Z</time>
      </trkpt>
      <trkpt lat="49.17886" lon="7.00378">
        <ele>235</ele>
        <time>2011-01-23T09:04:33Z</time>
      </trkpt>
      <trkpt lat="49.17888" lon="7.00379">
        <ele>235</ele>
        <time>2011-01-23T09:04:35Z</time>
      </trkpt>
      <trkpt lat="49.1789" lon="7.00381">
        <ele>234</ele>
        <time>2011-01-23T09:04:37Z</time>
      </trkpt>
      <trkpt lat="49.17891" lon="7.00383">
        <ele>234</ele>
        <time>2011-01-23T09:04:39Z</time>
      </trkpt>
      <trkpt lat="49.17893" lon="7.00384">
        <ele>234</ele>
        <time>2011-01-23T09:04:40Z</time>
      </trkpt>
      <trkpt lat="49.17895" lon="7.00385">
        <ele>234</ele>
        <time>2011-01-23T09:04:42Z</time>
      </trkpt>
      <trkpt lat="49.17896" lon="7.00386">
        <ele>234</ele>
        <time>2011-01-23T09:04:43Z</time>
      </trkpt>
      <trkpt lat="49.17897" lon="7.00387">
        <ele>234</ele>
        <time>2011-01-23T09:04:44Z</time>
      </trkpt>
      <trkpt lat="49.17899" lon="7.00388">
        <ele>234</ele>
        <time>2011-01-23T09:04:46Z</time>
      </trkpt>
      <trkpt lat="49.17901" lon="7.0039">
        <ele>233</ele>
        <time>2011-01-23T09:04:48Z</time>
      </trkpt>
      <trkpt lat="49.17902" lon="7.00391">
        <ele>233</ele>
        <time>2011-01-23T09:04:49Z</time>
      </trkpt>
      <trkpt lat="49.17904" lon="7.00392">
        <ele>233</ele>
        <time>2011-01-23T09:04:50Z</time>
      </trkpt>
      <trkpt lat="49.17905" lon="7.00393">
        <ele>233</ele>
        <time>2011-01-23T09:04:51Z</time>
      </trkpt>
      <trkpt lat="49.17906" lon="7.00394">
        <ele>233</ele>
        <time>2011-01-23T09:04:52Z</time>
      </trkpt>
      <trkpt lat="49.17907" lon="7.00394">
        <ele>233</ele>
        <time>2011-01-23T09:04:53Z</time>
      </trkpt>
      <trkpt lat="49.17909" lon="7.00396">
        <ele>232</ele>
        <time>2011-01-23T09:04:55Z</time>
      </trkpt>
      <trkpt lat="49.17911" lon="7.00397">
        <ele>232</ele>
        <time>2011-01-23T09:04:57Z</time>
      </trkpt>
      <trkpt lat="49.17913" lon="7.00399">
        <ele>232</ele>
        <time>2011-01-23T09:04:59Z</time>
      </trkpt>
      <trkpt lat="49.17914" lon="7.004">
        <ele>232</ele>
        <time>2011-01-23T09:05:00Z</time>
      </trkpt>
      <trkpt lat="49.17916" lon="7.00401">
        <ele>232</ele>
        <time>2011-01-23T09:05:02Z</time>
      </trkpt>
      <trkpt lat="49.17918" lon="7.00401">
        <ele>232</ele>
        <time>2011-01-23T09:05:04Z</time>
      </trkpt>
      <trkpt lat="49.17919" lon="7.00403">
        <ele>232</ele>
        <time>2011-01-23T09:05:06Z</time>
      </trkpt>
      <trkpt lat="49.17921" lon="7.00404">
        <ele>231</ele>
        <time>2011-01-23T09:05:08Z</time>
      </trkpt>
      <trkpt lat="49.17922" lon="7.00404">
        <ele>231</ele>
        <time>2011-01-23T09:05:09Z</time>
      </trkpt>
      <trkpt lat="49.17924" lon="7.00405">
        <ele>231</ele>
        <time>2011-01-23T09:05:11Z</time>
      </trkpt>
      <trkpt lat="49.17926" lon="7.00407">
        <ele>231</ele>
        <time>2011-01-23T09:05:13Z</time>
      </trkpt>
      <trkpt lat="49.17927" lon="7.00407">
        <ele>231</ele>
        <time>2011-01-23T09:05:14Z</time>
      </trkpt>
      <trkpt lat="49.17928" lon="7.00408">
        <ele>230</ele>
        <time>2011-01-23T09:05:16Z</time>
      </trkpt>
      <trkpt lat="49.1793" lon="7.00409">
        <ele>230</ele>
        <time>2011-01-23T09:05:18Z</time>
      </trkpt>
      <trkpt lat="49.17931" lon="7.00409">
        <ele>230</ele>
        <time>2011-01-23T09:05:19Z</time>
      </trkpt>
      <trkpt lat="49.17933" lon="7.0041">
        <ele>229</ele>
        <time>2011-01-23T09:05:21Z</time>
      </trkpt>
      <trkpt lat="49.17936" lon="7.00411">
        <ele>229</ele>
        <time>2011-01-23T09:05:23Z</time>
      </trkpt>
      <trkpt lat="49.17937" lon="7.00412">
        <ele>229</ele>
        <time>2011-01-23T09:05:24Z</time>
      </trkpt>
      <trkpt lat="49.17938" lon="7.00412">
        <ele>229</ele>
        <time>2011-01-23T09:05:25Z</time>
      </trkpt>
      <trkpt lat="49.17939" lon="7.00413">
        <ele>229</ele>
        <time>2011-01-23T09:05:26Z</time>
      </trkpt>
      <trkpt lat="49.17941" lon="7.00414">
        <ele>229</ele>
        <time>2011-01-23T09:05:28Z</time>
      </trkpt>
      <trkpt lat="49.17943" lon="7.00415">
        <ele>229</ele>
        <time>2011-01-23T09:05:30Z</time>
      </trkpt>
      <trkpt lat="49.17945" lon="7.00416">
        <ele>229</ele>
        <time>2011-01-23T09:05:32Z</time>
      </trkpt>
      <trkpt lat="49.17947" lon="7.00416">
        <ele>229</ele>
        <time>2011-01-23T09:05:34Z</time>
      </trkpt>
      <trkpt lat="49.17948" lon="7.00417">
        <ele>229</ele>
        <time>2011-01-23T09:05:36Z</time>
      </trkpt>
      <trkpt lat="49.1795" lon="7.00418">
        <ele>229</ele>
        <time>2011-01-23T09:05:38Z</time>
      </trkpt>
      <trkpt lat="49.17951" lon="7.00419">
        <ele>229</ele>
        <time>2011-01-23T09:05:40Z</time>
      </trkpt>
      <trkpt lat="49.17953" lon="7.00421">
        <ele>229</ele>
        <time>2011-01-23T09:05:42Z</time>
      </trkpt>
      <trkpt lat="49.17955" lon="7.00422">
        <ele>229</ele>
        <time>2011-01-23T09:05:44Z</time>
      </trkpt>
      <trkpt lat="49.17958" lon="7.00423">
        <ele>229</ele>
        <time>2011-01-23T09:05:46Z</time>
      </trkpt>
      <trkpt lat="49.17959" lon="7.00424">
        <ele>229</ele>
        <time>2011-01-23T09:05:48Z</time>
      </trkpt>
      <trkpt lat="49.17962" lon="7.00425">
        <ele>229</ele>
        <time>2011-01-23T09:05:50Z</time>
      </trkpt>
      <trkpt lat="49.17963" lon="7.00426">
        <ele>229</ele>
        <time>2011-01-23T09:05:51Z</time>
      </trkpt>
      <trkpt lat="49.17964" lon="7.00426">
        <ele>229</ele>
        <time>2011-01-23T09:05:52Z</time>
      </trkpt>
      <trkpt lat="49.17966" lon="7.00428">
        <ele>229</ele>
        <time>2011-01-23T09:05:54Z</time>
      </trkpt>
      <trkpt lat="49.17967" lon="7.00428">
        <ele>229</ele>
        <time>2011-01-23T09:05:55Z</time>
      </trkpt>
      <trkpt lat="49.17969" lon="7.00429">
        <ele>229</ele>
        <time>2011-01-23T09:05:57Z</time>
      </trkpt>
      <trkpt lat="49.17971" lon="7.00429">
        <ele>228</ele>
        <time>2011-01-23T09:05:58Z</time>
      </trkpt>
      <trkpt lat="49.17972" lon="7.00429">
        <ele>228</ele>
        <time>2011-01-23T09:05:59Z</time>
      </trkpt>
      <trkpt lat="49.17974" lon="7.0043">
        <ele>228</ele>
        <time>2011-01-23T09:06:01Z</time>
      </trkpt>
      <trkpt lat="49.17976" lon="7.0043">
        <ele>228</ele>
        <time>2011-01-23T09:06:03Z</time>
      </trkpt>
      <trkpt lat="49.17979" lon="7.00431">
        <ele>228</ele>
        <time>2011-01-23T09:06:05Z</time>
      </trkpt>
      <trkpt lat="49.1798" lon="7.00432">
        <ele>228</ele>
        <time>2011-01-23T09:06:06Z</time>
      </trkpt>
      <trkpt lat="49.17981" lon="7.00433">
        <ele>228</ele>
        <time>2011-01-23T09:06:08Z</time>
      </trkpt>
      <trkpt lat="49.17983" lon="7.00433">
        <ele>228</ele>
        <time>2011-01-23T09:06:10Z</time>
      </trkpt>
      <trkpt lat="49.17984" lon="7.00434">
        <ele>228</ele>
        <time>2011-01-23T09:06:11Z</time>
      </trkpt>
      <trkpt lat="49.17987" lon="7.00436">
        <ele>228</ele>
        <time>2011-01-23T09:06:13Z</time>
      </trkpt>
      <trkpt lat="49.17989" lon="7.00438">
        <ele>228</ele>
        <time>2011-01-23T09:06:15Z</time>
      </trkpt>
      <trkpt lat="49.1799" lon="7.00438">
        <ele>228</ele>
        <time>2011-01-23T09:06:16Z</time>
      </trkpt>
      <trkpt lat="49.17992" lon="7.0044">
        <ele>227</ele>
        <time>2011-01-23T09:06:18Z</time>
      </trkpt>
      <trkpt lat="49.17993" lon="7.00441">
        <ele>227</ele>
        <time>2011-01-23T09:06:19Z</time>
      </trkpt>
      <trkpt lat="49.17995" lon="7.00442">
        <ele>227</ele>
        <time>2011-01-23T09:06:21Z</time>
      </trkpt>
      <trkpt lat="49.17997" lon="7.00443">
        <ele>227</ele>
        <time>2011-01-23T09:06:23Z</time>
      </trkpt>
      <trkpt lat="49.17998" lon="7.00444">
        <ele>226</ele>
        <time>2011-01-23T09:06:24Z</time>
      </trkpt>
      <trkpt lat="49.18" lon="7.00445">
        <ele>226</ele>
        <time>2011-01-23T09:06:26Z</time>
      </trkpt>
      <trkpt lat="49.18001" lon="7.00446">
        <ele>226</ele>
        <time>2011-01-23T09:06:27Z</time>
      </trkpt>
      <trkpt lat="49.18002" lon="7.00446">
        <ele>226</ele>
        <time>2011-01-23T09:06:28Z</time>
      </trkpt>
      <trkpt lat="49.18003" lon="7.00447">
        <ele>226</ele>
        <time>2011-01-23T09:06:29Z</time>
      </trkpt>
      <trkpt lat="49.18005" lon="7.00447">
        <ele>226</ele>
        <time>2011-01-23T09:06:31Z</time>
      </trkpt>
      <trkpt lat="49.18007" lon="7.00448">
        <ele>226</ele>
        <time>2011-01-23T09:06:33Z</time>
      </trkpt>
      <trkpt lat="49.18009" lon="7.00449">
        <ele>226</ele>
        <time>2011-01-23T09:06:35Z</time>
      </trkpt>
      <trkpt lat="49.1801" lon="7.00449">
        <ele>226</ele>
        <time>2011-01-23T09:06:36Z</time>
      </trkpt>
      <trkpt lat="49.18011" lon="7.00449">
        <ele>226</ele>
        <time>2011-01-23T09:06:37Z</time>
      </trkpt>
      <trkpt lat="49.18013" lon="7.0045">
        <ele>226</ele>
        <time>2011-01-23T09:06:38Z</time>
      </trkpt>
      <trkpt lat="49.18015" lon="7.0045">
        <ele>226</ele>
        <time>2011-01-23T09:06:40Z</time>
      </trkpt>
      <trkpt lat="49.18016" lon="7.0045">
        <ele>226</ele>
        <time>2011-01-23T09:06:42Z</time>
      </trkpt>
      <trkpt lat="49.18018" lon="7.00451">
        <ele>225</ele>
        <time>2011-01-23T09:06:44Z</time>
      </trkpt>
      <trkpt lat="49.18019" lon="7.00451">
        <ele>225</ele>
        <time>2011-01-23T09:06:46Z</time>
      </trkpt>
      <trkpt lat="49.18021" lon="7.00451">
        <ele>225</ele>
        <time>2011-01-23T09:06:48Z</time>
      </trkpt>
      <trkpt lat="49.18023" lon="7.00451">
        <ele>224</ele>
        <time>2011-01-23T09:06:50Z</time>
      </trkpt>
      <trkpt lat="49.18025" lon="7.00452">
        <ele>224</ele>
        <time>2011-01-23T09:06:52Z</time>
      </trkpt>
      <trkpt lat="49.18026" lon="7.00452">
        <ele>224</ele>
        <time>2011-01-23T09:06:54Z</time>
      </trkpt>
      <trkpt lat="49.18028" lon="7.00451">
        <ele>224</ele>
        <time>2011-01-23T09:06:56Z</time>
      </trkpt>
      <trkpt lat="49.1803" lon="7.0045">
        <ele>224</ele>
        <time>2011-01-23T09:06:58Z</time>
      </trkpt>
      <trkpt lat="49.18031" lon="7.0045">
        <ele>224</ele>
        <time>2011-01-23T09:06:59Z</time>
      </trkpt>
      <trkpt lat="49.18032" lon="7.0045">
        <ele>224</ele>
        <time>2011-01-23T09:07:00Z</time>
      </trkpt>
      <trkpt lat="49.18034" lon="7.00449">
        <ele>224</ele>
        <time>2011-01-23T09:07:02Z</time>
      </trkpt>
      <trkpt lat="49.18036" lon="7.00447">
        <ele>224</ele>
        <time>2011-01-23T09:07:04Z</time>
      </trkpt>
      <trkpt lat="49.18038" lon="7.00446">
        <ele>224</ele>
        <time>2011-01-23T09:07:06Z</time>
      </trkpt>
      <trkpt lat="49.18039" lon="7.00445">
        <ele>224</ele>
        <time>2011-01-23T09:07:07Z</time>
      </trkpt>
      <trkpt lat="49.18041" lon="7.00445">
        <ele>224</ele>
        <time>2011-01-23T09:07:09Z</time>
      </trkpt>
      <trkpt lat="49.18042" lon="7.00444">
        <ele>223</ele>
        <time>2011-01-23T09:07:10Z</time>
      </trkpt>
      <trkpt lat="49.18045" lon="7.00443">
        <ele>223</ele>
        <time>2011-01-23T09:07:12Z</time>
      </trkpt>
      <trkpt lat="49.18046" lon="7.00442">
        <ele>222</ele>
        <time>2011-01-23T09:07:14Z</time>
      </trkpt>
      <trkpt lat="49.18047" lon="7.00441">
        <ele>222</ele>
        <time>2011-01-23T09:07:15Z</time>
      </trkpt>
      <trkpt lat="49.18048" lon="7.00441">
        <ele>222</ele>
        <time>2011-01-23T09:07:16Z</time>
      </trkpt>
      <trkpt lat="49.1805" lon="7.0044">
        <ele>222</ele>
        <time>2011-01-23T09:07:17Z</time>
      </trkpt>
      <trkpt lat="49.18051" lon="7.0044">
        <ele>222</ele>
        <time>2011-01-23T09:07:18Z</time>
      </trkpt>
      <trkpt lat="49.18052" lon="7.00439">
        <ele>222</ele>
        <time>2011-01-23T09:07:19Z</time>
      </trkpt>
      <trkpt lat="49.18053" lon="7.00437">
        <ele>222</ele>
        <time>2011-01-23T09:07:21Z</time>
      </trkpt>
      <trkpt lat="49.18055" lon="7.00436">
        <ele>221</ele>
        <time>2011-01-23T09:07:23Z</time>
      </trkpt>
      <trkpt lat="49.18056" lon="7.00436">
        <ele>221</ele>
        <time>2011-01-23T09:07:24Z</time>
      </trkpt>
      <trkpt lat="49.18058" lon="7.00436">
        <ele>221</ele>
        <time>2011-01-23T09:07:26Z</time>
      </trkpt>
      <trkpt lat="49.1806" lon="7.00435">
        <ele>220</ele>
        <time>2011-01-23T09:07:28Z</time>
      </trkpt>
      <trkpt lat="49.18062" lon="7.00434">
        <ele>220</ele>
        <time>2011-01-23T09:07:30Z</time>
      </trkpt>
      <trkpt lat="49.18063" lon="7.00432">
        <ele>220</ele>
        <time>2011-01-23T09:07:32Z</time>
      </trkpt>
      <trkpt lat="49.18065" lon="7.0043">
        <ele>220</ele>
        <time>2011-01-23T09:07:34Z</time>
      </trkpt>
      <trkpt lat="49.18067" lon="7.00429">
        <ele>220</ele>
        <time>2011-01-23T09:07:36Z</time>
      </trkpt>
      <trkpt lat="49.18069" lon="7.00427">
        <ele>220</ele>
        <time>2011-01-23T09:07:38Z</time>
      </trkpt>
      <trkpt lat="49.18071" lon="7.00426">
        <ele>220</ele>
        <time>2011-01-23T09:07:40Z</time>
      </trkpt>
      <trkpt lat="49.18073" lon="7.00425">
        <ele>220</ele>
        <time>2011-01-23T09:07:42Z</time>
      </trkpt>
      <trkpt lat="49.18074" lon="7.00424">
        <ele>220</ele>
        <time>2011-01-23T09:07:43Z</time>
      </trkpt>
      <trkpt lat="49.18077" lon="7.00423">
        <ele>220</ele>
        <time>2011-01-23T09:07:45Z</time>
      </trkpt>
      <trkpt lat="49.18078" lon="7.00423">
        <ele>220</ele>
        <time>2011-01-23T09:07:46Z</time>
      </trkpt>
      <trkpt lat="49.18079" lon="7.00423">
        <ele>220</ele>
        <time>2011-01-23T09:07:47Z</time>
      </trkpt>
      <trkpt lat="49.18081" lon="7.00423">
        <ele>220</ele>
        <time>2011-01-23T09:07:48Z</time>
      </trkpt>
      <trkpt lat="49.18082" lon="7.00423">
        <ele>220</ele>
        <time>2011-01-23T09:07:49Z</time>
      </trkpt>
      <trkpt lat="49.18084" lon="7.00423">
        <ele>220</ele>
        <time>2011-01-23T09:07:50Z</time>
      </trkpt>
      <trkpt lat="49.18085" lon="7.00422">
        <ele>220</ele>
        <time>2011-01-23T09:07:51Z</time>
      </trkpt>
      <trkpt lat="49.18087" lon="7.00422">
        <ele>220</ele>
        <time>2011-01-23T09:07:53Z</time>
      </trkpt>
      <trkpt lat="49.18088" lon="7.00421">
        <ele>220</ele>
        <time>2011-01-23T09:07:54Z</time>
      </trkpt>
      <trkpt lat="49.18089" lon="7.00421">
        <ele>220</ele>
        <time>2011-01-23T09:07:55Z</time>
      </trkpt>
      <trkpt lat="49.1809" lon="7.0042">
        <ele>220</ele>
        <time>2011-01-23T09:07:56Z</time>
      </trkpt>
      <trkpt lat="49.18092" lon="7.0042">
        <ele>220</ele>
        <time>2011-01-23T09:07:57Z</time>
      </trkpt>
      <trkpt lat="49.18093" lon="7.00419">
        <ele>220</ele>
        <time>2011-01-23T09:07:58Z</time>
      </trkpt>
      <trkpt lat="49.18095" lon="7.00419">
        <ele>220</ele>
        <time>2011-01-23T09:07:59Z</time>
      </trkpt>
      <trkpt lat="49.18096" lon="7.00419">
        <ele>220</ele>
        <time>2011-01-23T09:08:00Z</time>
      </trkpt>
      <trkpt lat="49.18099" lon="7.00418">
        <ele>220</ele>
        <time>2011-01-23T09:08:02Z</time>
      </trkpt>
      <trkpt lat="49.181" lon="7.00417">
        <ele>220</ele>
        <time>2011-01-23T09:08:03Z</time>
      </trkpt>
      <trkpt lat="49.18101" lon="7.00417">
        <ele>220</ele>
        <time>2011-01-23T09:08:04Z</time>
      </trkpt>
      <trkpt lat="49.18102" lon="7.00417">
        <ele>220</ele>
        <time>2011-01-23T09:08:05Z</time>
      </trkpt>
      <trkpt lat="49.18104" lon="7.00416">
        <ele>220</ele>
        <time>2011-01-23T09:08:06Z</time>
      </trkpt>
      <trkpt lat="49.18105" lon="7.00416">
        <ele>220</ele>
        <time>2011-01-23T09:08:07Z</time>
      </trkpt>
      <trkpt lat="49.18106" lon="7.00416">
        <ele>220</ele>
        <time>2011-01-23T09:08:08Z</time>
      </trkpt>
      <trkpt lat="49.18108" lon="7.00415">
        <ele>220</ele>
        <time>2011-01-23T09:08:10Z</time>
      </trkpt>
      <trkpt lat="49.1811" lon="7.00414">
        <ele>220</ele>
        <time>2011-01-23T09:08:12Z</time>
      </trkpt>
      <trkpt lat="49.18112" lon="7.00413">
        <ele>220</ele>
        <time>2011-01-23T09:08:14Z</time>
      </trkpt>
      <trkpt lat="49.18113" lon="7.00413">
        <ele>220</ele>
        <time>2011-01-23T09:08:15Z</time>
      </trkpt>
      <trkpt lat="49.18115" lon="7.00412">
        <ele>220</ele>
        <time>2011-01-23T09:08:16Z</time>
      </trkpt>
      <trkpt lat="49.18116" lon="7.00412">
        <ele>220</ele>
        <time>2011-01-23T09:08:17Z</time>
      </trkpt>
      <trkpt lat="49.18118" lon="7.00411">
        <ele>219</ele>
        <time>2011-01-23T09:08:18Z</time>
      </trkpt>
      <trkpt lat="49.18119" lon="7.00411">
        <ele>219</ele>
        <time>2011-01-23T09:08:19Z</time>
      </trkpt>
      <trkpt lat="49.18121" lon="7.0041">
        <ele>219</ele>
        <time>2011-01-23T09:08:21Z</time>
      </trkpt>
      <trkpt lat="49.18123" lon="7.0041">
        <ele>219</ele>
        <time>2011-01-23T09:08:23Z</time>
      </trkpt>
      <trkpt lat="49.18124" lon="7.0041">
        <ele>219</ele>
        <time>2011-01-23T09:08:24Z</time>
      </trkpt>
      <trkpt lat="49.18125" lon="7.0041">
        <ele>219</ele>
        <time>2011-01-23T09:08:25Z</time>
      </trkpt>
      <trkpt lat="49.18127" lon="7.0041">
        <ele>219</ele>
        <time>2011-01-23T09:08:26Z</time>
      </trkpt>
      <trkpt lat="49.18129" lon="7.00408">
        <ele>219</ele>
        <time>2011-01-23T09:08:28Z</time>
      </trkpt>
      <trkpt lat="49.18131" lon="7.00408">
        <ele>219</ele>
        <time>2011-01-23T09:08:30Z</time>
      </trkpt>
      <trkpt lat="49.18132" lon="7.00408">
        <ele>219</ele>
        <time>2011-01-23T09:08:31Z</time>
      </trkpt>
      <trkpt lat="49.18134" lon="7.00408">
        <ele>219</ele>
        <time>2011-01-23T09:08:32Z</time>
      </trkpt>
      <trkpt lat="49.18135" lon="7.00408">
        <ele>219</ele>
        <time>2011-01-23T09:08:33Z</time>
      </trkpt>
      <trkpt lat="49.18136" lon="7.00408">
        <ele>219</ele>
        <time>2011-01-23T09:08:34Z</time>
      </trkpt>
      <trkpt lat="49.18138" lon="7.00408">
        <ele>219</ele>
        <time>2011-01-23T09:08:35Z</time>
      </trkpt>
      <trkpt lat="49.18139" lon="7.00408">
        <ele>219</ele>
        <time>2011-01-23T09:08:36Z</time>
      </trkpt>
      <trkpt lat="49.18141" lon="7.00407">
        <ele>219</ele>
        <time>2011-01-23T09:08:38Z</time>
      </trkpt>
      <trkpt lat="49.18143" lon="7.00407">
        <ele>219</ele>
        <time>2011-01-23T09:08:40Z</time>
      </trkpt>
      <trkpt lat="49.18144" lon="7.00407">
        <ele>219</ele>
        <time>2011-01-23T09:08:41Z</time>
      </trkpt>
      <trkpt lat="49.18146" lon="7.00406">
        <ele>218</ele>
        <time>2011-01-23T09:08:42Z</time>
      </trkpt>
      <trkpt lat="49.18147" lon="7.00406">
        <ele>218</ele>
        <time>2011-01-23T09:08:43Z</time>
      </trkpt>
      <trkpt lat="49.18148" lon="7.00406">
        <ele>218</ele>
        <time>2011-01-23T09:08:44Z</time>
      </trkpt>
      <trkpt lat="49.18151" lon="7.00406">
        <ele>218</ele>
        <time>2011-01-23T09:08:46Z</time>
      </trkpt>
      <trkpt lat="49.18152" lon="7.00406">
        <ele>218</ele>
        <time>2011-01-23T09:08:47Z</time>
      </trkpt>
      <trkpt lat="49.18153" lon="7.00406">
        <ele>217</ele>
        <time>2011-01-23T09:08:48Z</time>
      </trkpt>
      <trkpt lat="49.18155" lon="7.00406">
        <ele>217</ele>
        <time>2011-01-23T09:08:49Z</time>
      </trkpt>
      <trkpt lat="49.18156" lon="7.00406">
        <ele>217</ele>
        <time>2011-01-23T09:08:50Z</time>
      </trkpt>
      <trkpt lat="49.18157" lon="7.00406">
        <ele>217</ele>
        <time>2011-01-23T09:08:51Z</time>
      </trkpt>
      <trkpt lat="49.18158" lon="7.00406">
        <ele>217</ele>
        <time>2011-01-23T09:08:52Z</time>
      </trkpt>
      <trkpt lat="49.1816" lon="7.00406">
        <ele>217</ele>
        <time>2011-01-23T09:08:53Z</time>
      </trkpt>
      <trkpt lat="49.18161" lon="7.00406">
        <ele>217</ele>
        <time>2011-01-23T09:08:54Z</time>
      </trkpt>
      <trkpt lat="49.18162" lon="7.00406">
        <ele>217</ele>
        <time>2011-01-23T09:08:55Z</time>
      </trkpt>
      <trkpt lat="49.18164" lon="7.00405">
        <ele>216</ele>
        <time>2011-01-23T09:08:57Z</time>
      </trkpt>
      <trkpt lat="49.18166" lon="7.00405">
        <ele>216</ele>
        <time>2011-01-23T09:08:58Z</time>
      </trkpt>
      <trkpt lat="49.18168" lon="7.00407">
        <ele>216</ele>
        <time>2011-01-23T09:08:59Z</time>
      </trkpt>
      <trkpt lat="49.18169" lon="7.00408">
        <ele>215</ele>
        <time>2011-01-23T09:09:00Z</time>
      </trkpt>
      <trkpt lat="49.18171" lon="7.00408">
        <ele>215</ele>
        <time>2011-01-23T09:09:02Z</time>
      </trkpt>
      <trkpt lat="49.18172" lon="7.00408">
        <ele>215</ele>
        <time>2011-01-23T09:09:03Z</time>
      </trkpt>
      <trkpt lat="49.18174" lon="7.00408">
        <ele>215</ele>
        <time>2011-01-23T09:09:04Z</time>
      </trkpt>
      <trkpt lat="49.18175" lon="7.00408">
        <ele>215</ele>
        <time>2011-01-23T09:09:05Z</time>
      </trkpt>
      <trkpt lat="49.18177" lon="7.00408">
        <ele>215</ele>
        <time>2011-01-23T09:09:07Z</time>
      </trkpt>
      <trkpt lat="49.18179" lon="7.00409">
        <ele>214</ele>
        <time>2011-01-23T09:09:09Z</time>
      </trkpt>
      <trkpt lat="49.18181" lon="7.00409">
        <ele>214</ele>
        <time>2011-01-23T09:09:11Z</time>
      </trkpt>
      <trkpt lat="49.18183" lon="7.00409">
        <ele>213</ele>
        <time>2011-01-23T09:09:13Z</time>
      </trkpt>
      <trkpt lat="49.18184" lon="7.00408">
        <ele>212</ele>
        <time>2011-01-23T09:09:15Z</time>
      </trkpt>
      <trkpt lat="49.18186" lon="7.00408">
        <ele>212</ele>
        <time>2011-01-23T09:09:17Z</time>
      </trkpt>
      <trkpt lat="49.18188" lon="7.00408">
        <ele>211</ele>
        <time>2011-01-23T09:09:19Z</time>
      </trkpt>
      <trkpt lat="49.18189" lon="7.00407">
        <ele>211</ele>
        <time>2011-01-23T09:09:20Z</time>
      </trkpt>
      <trkpt lat="49.18191" lon="7.00407">
        <ele>211</ele>
        <time>2011-01-23T09:09:22Z</time>
      </trkpt>
      <trkpt lat="49.18193" lon="7.00406">
        <ele>210</ele>
        <time>2011-01-23T09:09:24Z</time>
      </trkpt>
      <trkpt lat="49.18195" lon="7.00406">
        <ele>210</ele>
        <time>2011-01-23T09:09:26Z</time>
      </trkpt>
      <trkpt lat="49.18197" lon="7.00406">
        <ele>210</ele>
        <time>2011-01-23T09:09:28Z</time>
      </trkpt>
      <trkpt lat="49.18198" lon="7.00406">
        <ele>210</ele>
        <time>2011-01-23T09:09:29Z</time>
      </trkpt>
      <trkpt lat="49.18199" lon="7.00406">
        <ele>210</ele>
        <time>2011-01-23T09:09:30Z</time>
      </trkpt>
      <trkpt lat="49.18201" lon="7.00406">
        <ele>210</ele>
        <time>2011-01-23T09:09:31Z</time>
      </trkpt>
      <trkpt lat="49.18202" lon="7.00407">
        <ele>210</ele>
        <time>2011-01-23T09:09:32Z</time>
      </trkpt>
      <trkpt lat="49.18203" lon="7.00407">
        <ele>209</ele>
        <time>2011-01-23T09:09:33Z</time>
      </trkpt>
      <trkpt lat="49.18205" lon="7.00408">
        <ele>209</ele>
        <time>2011-01-23T09:09:34Z</time>
      </trkpt>
      <trkpt lat="49.18206" lon="7.00408">
        <ele>209</ele>
        <time>2011-01-23T09:09:35Z</time>
      </trkpt>
      <trkpt lat="49.18208" lon="7.00409">
        <ele>209</ele>
        <time>2011-01-23T09:09:36Z</time>
      </trkpt>
      <trkpt lat="49.18209" lon="7.00409">
        <ele>208</ele>
        <time>2011-01-23T09:09:37Z</time>
      </trkpt>
      <trkpt lat="49.18211" lon="7.0041">
        <ele>208</ele>
        <time>2011-01-23T09:09:39Z</time>
      </trkpt>
      <trkpt lat="49.18212" lon="7.00411">
        <ele>208</ele>
        <time>2011-01-23T09:09:40Z</time>
      </trkpt>
      <trkpt lat="49.18214" lon="7.00412">
        <ele>207</ele>
        <time>2011-01-23T09:09:42Z</time>
      </trkpt>
      <trkpt lat="49.18216" lon="7.00413">
        <ele>207</ele>
        <time>2011-01-23T09:09:44Z</time>
      </trkpt>
      <trkpt lat="49.18219" lon="7.00415">
        <ele>207</ele>
        <time>2011-01-23T09:09:46Z</time>
      </trkpt>
      <trkpt lat="49.1822" lon="7.00415">
        <ele>207</ele>
        <time>2011-01-23T09:09:47Z</time>
      </trkpt>
      <trkpt lat="49.18221" lon="7.00416">
        <ele>207</ele>
        <time>2011-01-23T09:09:48Z</time>
      </trkpt>
      <trkpt lat="49.18222" lon="7.00417">
        <ele>207</ele>
        <time>2011-01-23T09:09:49Z</time>
      </trkpt>
      <trkpt lat="49.18224" lon="7.00418">
        <ele>207</ele>
        <time>2011-01-23T09:09:51Z</time>
      </trkpt>
      <trkpt lat="49.18225" lon="7.00418">
        <ele>207</ele>
        <time>2011-01-23T09:09:53Z</time>
      </trkpt>
      <trkpt lat="49.18227" lon="7.00418">
        <ele>207</ele>
        <time>2011-01-23T09:09:55Z</time>
      </trkpt>
      <trkpt lat="49.18228" lon="7.0042">
        <ele>207</ele>
        <time>2011-01-23T09:10:04Z</time>
      </trkpt>
      <trkpt lat="49.18227" lon="7.00422">
        <ele>207</ele>
        <time>2011-01-23T09:10:10Z</time>
      </trkpt>
      <trkpt lat="49.18228" lon="7.00424">
        <ele>207</ele>
        <time>2011-01-23T09:10:19Z</time>
      </trkpt>
      <trkpt lat="49.1823" lon="7.00426">
        <ele>206</ele>
        <time>2011-01-23T09:10:22Z</time>
      </trkpt>
      <trkpt lat="49.18231" lon="7.00428">
        <ele>206</ele>
        <time>2011-01-23T09:10:24Z</time>
      </trkpt>
      <trkpt lat="49.18233" lon="7.0043">
        <ele>206</ele>
        <time>2011-01-23T09:10:26Z</time>
      </trkpt>
      <trkpt lat="49.18234" lon="7.00432">
        <ele>206</ele>
        <time>2011-01-23T09:10:28Z</time>
      </trkpt>
      <trkpt lat="49.18235" lon="7.00435">
        <ele>206</ele>
        <time>2011-01-23T09:10:30Z</time>
      </trkpt>
      <trkpt lat="49.18237" lon="7.00437">
        <ele>206</ele>
        <time>2011-01-23T09:10:32Z</time>
      </trkpt>
      <trkpt lat="49.18238" lon="7.00441">
        <ele>205</ele>
        <time>2011-01-23T09:10:34Z</time>
      </trkpt>
      <trkpt lat="49.1824" lon="7.00443">
        <ele>205</ele>
        <time>2011-01-23T09:10:36Z</time>
      </trkpt>
      <trkpt lat="49.1824" lon="7.00445">
        <ele>205</ele>
        <time>2011-01-23T09:10:37Z</time>
      </trkpt>
      <trkpt lat="49.18241" lon="7.00448">
        <ele>205</ele>
        <time>2011-01-23T09:10:39Z</time>
      </trkpt>
      <trkpt lat="49.18242" lon="7.0045">
        <ele>205</ele>
        <time>2011-01-23T09:10:41Z</time>
      </trkpt>
      <trkpt lat="49.18242" lon="7.00452">
        <ele>205</ele>
        <time>2011-01-23T09:10:42Z</time>
      </trkpt>
      <trkpt lat="49.18243" lon="7.00455">
        <ele>205</ele>
        <time>2011-01-23T09:10:44Z</time>
      </trkpt>
      <trkpt lat="49.18245" lon="7.00457">
        <ele>205</ele>
        <time>2011-01-23T09:10:46Z</time>
      </trkpt>
      <trkpt lat="49.18245" lon="7.00459">
        <ele>205</ele>
        <time>2011-01-23T09:10:47Z</time>
      </trkpt>
      <trkpt lat="49.18246" lon="7.00461">
        <ele>205</ele>
        <time>2011-01-23T09:10:48Z</time>
      </trkpt>
      <trkpt lat="49.18247" lon="7.00464">
        <ele>205</ele>
        <time>2011-01-23T09:10:50Z</time>
      </trkpt>
      <trkpt lat="49.18248" lon="7.00466">
        <ele>205</ele>
        <time>2011-01-23T09:10:51Z</time>
      </trkpt>
      <trkpt lat="49.18248" lon="7.00468">
        <ele>205</ele>
        <time>2011-01-23T09:10:52Z</time>
      </trkpt>
      <trkpt lat="49.18249" lon="7.00469">
        <ele>205</ele>
        <time>2011-01-23T09:10:53Z</time>
      </trkpt>
      <trkpt lat="49.18251" lon="7.00472">
        <ele>205</ele>
        <time>2011-01-23T09:10:55Z</time>
      </trkpt>
      <trkpt lat="49.18252" lon="7.00474">
        <ele>205</ele>
        <time>2011-01-23T09:10:56Z</time>
      </trkpt>
      <trkpt lat="49.18253" lon="7.00478">
        <ele>205</ele>
        <time>2011-01-23T09:10:58Z</time>
      </trkpt>
      <trkpt lat="49.18255" lon="7.0048">
        <ele>205</ele>
        <time>2011-01-23T09:11:00Z</time>
      </trkpt>
      <trkpt lat="49.18256" lon="7.00483">
        <ele>205</ele>
        <time>2011-01-23T09:11:02Z</time>
      </trkpt>
      <trkpt lat="49.18258" lon="7.00486">
        <ele>205</ele>
        <time>2011-01-23T09:11:04Z</time>
      </trkpt>
      <trkpt lat="49.18259" lon="7.00488">
        <ele>205</ele>
        <time>2011-01-23T09:11:06Z</time>
      </trkpt>
      <trkpt lat="49.18259" lon="7.0049">
        <ele>205</ele>
        <time>2011-01-23T09:11:07Z</time>
      </trkpt>
      <trkpt lat="49.1826" lon="7.00492">
        <ele>205</ele>
        <time>2011-01-23T09:11:08Z</time>
      </trkpt>
      <trkpt lat="49.18261" lon="7.00494">
        <ele>205</ele>
        <time>2011-01-23T09:11:09Z</time>
      </trkpt>
      <trkpt lat="49.18262" lon="7.00497">
        <ele>205</ele>
        <time>2011-01-23T09:11:11Z</time>
      </trkpt>
      <trkpt lat="49.18264" lon="7.005">
        <ele>205</ele>
        <time>2011-01-23T09:11:13Z</time>
      </trkpt>
      <trkpt lat="49.18265" lon="7.00503">
        <ele>205</ele>
        <time>2011-01-23T09:11:15Z</time>
      </trkpt>
      <trkpt lat="49.18266" lon="7.00505">
        <ele>205</ele>
        <time>2011-01-23T09:11:16Z</time>
      </trkpt>
      <trkpt lat="49.18267" lon="7.00508">
        <ele>205</ele>
        <time>2011-01-23T09:11:18Z</time>
      </trkpt>
      <trkpt lat="49.1827" lon="7.00511">
        <ele>205</ele>
        <time>2011-01-23T09:11:20Z</time>
      </trkpt>
      <trkpt lat="49.18271" lon="7.00513">
        <ele>205</ele>
        <time>2011-01-23T09:11:21Z</time>
      </trkpt>
      <trkpt lat="49.18272" lon="7.00514">
        <ele>205</ele>
        <time>2011-01-23T09:11:22Z</time>
      </trkpt>
      <trkpt lat="49.18273" lon="7.00517">
        <ele>205</ele>
        <time>2011-01-23T09:11:24Z</time>
      </trkpt>
      <trkpt lat="49.18274" lon="7.0052">
        <ele>205</ele>
        <time>2011-01-23T09:11:26Z</time>
      </trkpt>
      <trkpt lat="49.18275" lon="7.00522">
        <ele>205</ele>
        <time>2011-01-23T09:11:28Z</time>
      </trkpt>
      <trkpt lat="49.18277" lon="7.00523">
        <ele>205</ele>
        <time>2011-01-23T09:11:29Z</time>
      </trkpt>
      <trkpt lat="49.18278" lon="7.00525">
        <ele>205</ele>
        <time>2011-01-23T09:11:31Z</time>
      </trkpt>
      <trkpt lat="49.1828" lon="7.00527">
        <ele>205</ele>
        <time>2011-01-23T09:11:33Z</time>
      </trkpt>
      <trkpt lat="49.18282" lon="7.00529">
        <ele>205</ele>
        <time>2011-01-23T09:11:35Z</time>
      </trkpt>
      <trkpt lat="49.18283" lon="7.00529">
        <ele>205</ele>
        <time>2011-01-23T09:11:36Z</time>
      </trkpt>
      <trkpt lat="49.18284" lon="7.00529">
        <ele>205</ele>
        <time>2011-01-23T09:11:37Z</time>
      </trkpt>
      <trkpt lat="49.18286" lon="7.00528">
        <ele>205</ele>
        <time>2011-01-23T09:11:39Z</time>
      </trkpt>
      <trkpt lat="49.18288" lon="7.00528">
        <ele>205</ele>
        <time>2011-01-23T09:11:41Z</time>
      </trkpt>
      <trkpt lat="49.18289" lon="7.00527">
        <ele>205</ele>
        <time>2011-01-23T09:11:42Z</time>
      </trkpt>
      <trkpt lat="49.18291" lon="7.00525">
        <ele>205</ele>
        <time>2011-01-23T09:11:44Z</time>
      </trkpt>
      <trkpt lat="49.18293" lon="7.00523">
        <ele>205</ele>
        <time>2011-01-23T09:11:46Z</time>
      </trkpt>
      <trkpt lat="49.18295" lon="7.00522">
        <ele>205</ele>
        <time>2011-01-23T09:11:48Z</time>
      </trkpt>
      <trkpt lat="49.18298" lon="7.0052">
        <ele>205</ele>
        <time>2011-01-23T09:11:50Z</time>
      </trkpt>
      <trkpt lat="49.18299" lon="7.00519">
        <ele>205</ele>
        <time>2011-01-23T09:11:51Z</time>
      </trkpt>
      <trkpt lat="49.183" lon="7.00519">
        <ele>205</ele>
        <time>2011-01-23T09:11:52Z</time>
      </trkpt>
      <trkpt lat="49.18302" lon="7.00517">
        <ele>204</ele>
        <time>2011-01-23T09:11:54Z</time>
      </trkpt>
      <trkpt lat="49.18304" lon="7.00516">
        <ele>204</ele>
        <time>2011-01-23T09:11:56Z</time>
      </trkpt>
      <trkpt lat="49.18305" lon="7.00516">
        <ele>204</ele>
        <time>2011-01-23T09:11:57Z</time>
      </trkpt>
      <trkpt lat="49.18307" lon="7.00515">
        <ele>204</ele>
        <time>2011-01-23T09:11:58Z</time>
      </trkpt>
      <trkpt lat="49.18308" lon="7.00515">
        <ele>204</ele>
        <time>2011-01-23T09:11:59Z</time>
      </trkpt>
      <trkpt lat="49.18309" lon="7.00514">
        <ele>204</ele>
        <time>2011-01-23T09:12:00Z</time>
      </trkpt>
      <trkpt lat="49.18311" lon="7.00513">
        <ele>204</ele>
        <time>2011-01-23T09:12:01Z</time>
      </trkpt>
      <trkpt lat="49.18312" lon="7.00513">
        <ele>204</ele>
        <time>2011-01-23T09:12:02Z</time>
      </trkpt>
      <trkpt lat="49.18314" lon="7.00513">
        <ele>204</ele>
        <time>2011-01-23T09:12:03Z</time>
      </trkpt>
      <trkpt lat="49.18315" lon="7.00513">
        <ele>204</ele>
        <time>2011-01-23T09:12:04Z</time>
      </trkpt>
      <trkpt lat="49.18318" lon="7.00513">
        <ele>204</ele>
        <time>2011-01-23T09:12:06Z</time>
      </trkpt>
      <trkpt lat="49.18319" lon="7.00513">
        <ele>204</ele>
        <time>2011-01-23T09:12:07Z</time>
      </trkpt>
      <trkpt lat="49.1832" lon="7.00513">
        <ele>204</ele>
        <time>2011-01-23T09:12:08Z</time>
      </trkpt>
      <trkpt lat="49.18322" lon="7.00513">
        <ele>204</ele>
        <time>2011-01-23T09:12:10Z</time>
      </trkpt>
      <trkpt lat="49.18324" lon="7.00513">
        <ele>204</ele>
        <time>2011-01-23T09:12:12Z</time>
      </trkpt>
      <trkpt lat="49.18326" lon="7.00514">
        <ele>204</ele>
        <time>2011-01-23T09:12:14Z</time>
      </trkpt>
      <trkpt lat="49.18327" lon="7.00514">
        <ele>204</ele>
        <time>2011-01-23T09:12:15Z</time>
      </trkpt>
      <trkpt lat="49.18328" lon="7.00514">
        <ele>204</ele>
        <time>2011-01-23T09:12:16Z</time>
      </trkpt>
      <trkpt lat="49.1833" lon="7.00515">
        <ele>204</ele>
        <time>2011-01-23T09:12:18Z</time>
      </trkpt>
      <trkpt lat="49.18332" lon="7.00515">
        <ele>204</ele>
        <time>2011-01-23T09:12:19Z</time>
      </trkpt>
      <trkpt lat="49.18334" lon="7.00516">
        <ele>204</ele>
        <time>2011-01-23T09:12:21Z</time>
      </trkpt>
      <trkpt lat="49.18335" lon="7.00517">
        <ele>204</ele>
        <time>2011-01-23T09:12:22Z</time>
      </trkpt>
      <trkpt lat="49.18336" lon="7.00518">
        <ele>204</ele>
        <time>2011-01-23T09:12:23Z</time>
      </trkpt>
      <trkpt lat="49.18337" lon="7.0052">
        <ele>204</ele>
        <time>2011-01-23T09:12:24Z</time>
      </trkpt>
      <trkpt lat="49.18338" lon="7.00522">
        <ele>204</ele>
        <time>2011-01-23T09:12:25Z</time>
      </trkpt>
      <trkpt lat="49.18339" lon="7.00523">
        <ele>204</ele>
        <time>2011-01-23T09:12:26Z</time>
      </trkpt>
      <trkpt lat="49.1834" lon="7.00525">
        <ele>204</ele>
        <time>2011-01-23T09:12:27Z</time>
      </trkpt>
      <trkpt lat="49.1834" lon="7.00527">
        <ele>204</ele>
        <time>2011-01-23T09:12:28Z</time>
      </trkpt>
      <trkpt lat="49.1834" lon="7.00529">
        <ele>204</ele>
        <time>2011-01-23T09:12:29Z</time>
      </trkpt>
      <trkpt lat="49.18341" lon="7.00531">
        <ele>204</ele>
        <time>2011-01-23T09:12:30Z</time>
      </trkpt>
      <trkpt lat="49.18341" lon="7.00533">
        <ele>204</ele>
        <time>2011-01-23T09:12:31Z</time>
      </trkpt>
      <trkpt lat="49.18341" lon="7.00535">
        <ele>204</ele>
        <time>2011-01-23T09:12:32Z</time>
      </trkpt>
      <trkpt lat="49.18341" lon="7.00537">
        <ele>204</ele>
        <time>2011-01-23T09:12:33Z</time>
      </trkpt>
      <trkpt lat="49.18341" lon="7.00539">
        <ele>204</ele>
        <time>2011-01-23T09:12:34Z</time>
      </trkpt>
      <trkpt lat="49.18341" lon="7.00541">
        <ele>204</ele>
        <time>2011-01-23T09:12:35Z</time>
      </trkpt>
      <trkpt lat="49.18341" lon="7.00543">
        <ele>204</ele>
        <time>2011-01-23T09:12:36Z</time>
      </trkpt>
      <trkpt lat="49.18342" lon="7.00545">
        <ele>204</ele>
        <time>2011-01-23T09:12:37Z</time>
      </trkpt>
      <trkpt lat="49.18342" lon="7.00547">
        <ele>204</ele>
        <time>2011-01-23T09:12:38Z</time>
      </trkpt>
      <trkpt lat="49.18342" lon="7.0055">
        <ele>204</ele>
        <time>2011-01-23T09:12:40Z</time>
      </trkpt>
      <trkpt lat="49.18343" lon="7.00552">
        <ele>204</ele>
        <time>2011-01-23T09:12:41Z</time>
      </trkpt>
      <trkpt lat="49.18343" lon="7.00554">
        <ele>204</ele>
        <time>2011-01-23T09:12:42Z</time>
      </trkpt>
      <trkpt lat="49.18343" lon="7.00557">
        <ele>204</ele>
        <time>2011-01-23T09:12:43Z</time>
      </trkpt>
      <trkpt lat="49.18344" lon="7.00558">
        <ele>204</ele>
        <time>2011-01-23T09:12:44Z</time>
      </trkpt>
      <trkpt lat="49.18344" lon="7.00561">
        <ele>204</ele>
        <time>2011-01-23T09:12:45Z</time>
      </trkpt>
      <trkpt lat="49.18344" lon="7.00563">
        <ele>204</ele>
        <time>2011-01-23T09:12:46Z</time>
      </trkpt>
      <trkpt lat="49.18344" lon="7.00565">
        <ele>204</ele>
        <time>2011-01-23T09:12:47Z</time>
      </trkpt>
      <trkpt lat="49.18344" lon="7.00567">
        <ele>204</ele>
        <time>2011-01-23T09:12:48Z</time>
      </trkpt>
      <trkpt lat="49.18345" lon="7.00569">
        <ele>204</ele>
        <time>2011-01-23T09:12:49Z</time>
      </trkpt>
      <trkpt lat="49.18345" lon="7.00571">
        <ele>204</ele>
        <time>2011-01-23T09:12:50Z</time>
      </trkpt>
      <trkpt lat="49.18346" lon="7.00573">
        <ele>204</ele>
        <time>2011-01-23T09:12:51Z</time>
      </trkpt>
      <trkpt lat="49.18346" lon="7.00575">
        <ele>204</ele>
        <time>2011-01-23T09:12:52Z</time>
      </trkpt>
      <trkpt lat="49.18346" lon="7.00577">
        <ele>204</ele>
        <time>2011-01-23T09:12:53Z</time>
      </trkpt>
      <trkpt lat="49.18346" lon="7.00579">
        <ele>204</ele>
        <time>2011-01-23T09:12:54Z</time>
      </trkpt>
      <trkpt lat="49.18347" lon="7.00581">
        <ele>204</ele>
        <time>2011-01-23T09:12:55Z</time>
      </trkpt>
      <trkpt lat="49.18347" lon="7.00583">
        <ele>204</ele>
        <time>2011-01-23T09:12:56Z</time>
      </trkpt>
      <trkpt lat="49.18347" lon="7.00585">
        <ele>204</ele>
        <time>2011-01-23T09:12:57Z</time>
      </trkpt>
      <trkpt lat="49.18348" lon="7.00587">
        <ele>204</ele>
        <time>2011-01-23T09:12:58Z</time>
      </trkpt>
      <trkpt lat="49.18348" lon="7.00589">
        <ele>204</ele>
        <time>2011-01-23T09:12:59Z</time>
      </trkpt>
      <trkpt lat="49.18348" lon="7.0059">
        <ele>204</ele>
        <time>2011-01-23T09:13:00Z</time>
      </trkpt>
      <trkpt lat="49.18349" lon="7.00592">
        <ele>204</ele>
        <time>2011-01-23T09:13:01Z</time>
      </trkpt>
      <trkpt lat="49.18349" lon="7.00595">
        <ele>204</ele>
        <time>2011-01-23T09:13:02Z</time>
      </trkpt>
      <trkpt lat="49.18349" lon="7.00597">
        <ele>204</ele>
        <time>2011-01-23T09:13:03Z</time>
      </trkpt>
      <trkpt lat="49.18349" lon="7.00599">
        <ele>204</ele>
        <time>2011-01-23T09:13:04Z</time>
      </trkpt>
      <trkpt lat="49.1835" lon="7.00601">
        <ele>204</ele>
        <time>2011-01-23T09:13:05Z</time>
      </trkpt>
      <trkpt lat="49.1835" lon="7.00603">
        <ele>204</ele>
        <time>2011-01-23T09:13:06Z</time>
      </trkpt>
      <trkpt lat="49.1835" lon="7.00605">
        <ele>204</ele>
        <time>2011-01-23T09:13:07Z</time>
      </trkpt>
      <trkpt lat="49.18351" lon="7.00608">
        <ele>204</ele>
        <time>2011-01-23T09:13:09Z</time>
      </trkpt>
      <trkpt lat="49.18352" lon="7.0061">
        <ele>204</ele>
        <time>2011-01-23T09:13:11Z</time>
      </trkpt>
      <trkpt lat="49.18353" lon="7.00612">
        <ele>204</ele>
        <time>2011-01-23T09:13:12Z</time>
      </trkpt>
      <trkpt lat="49.18353" lon="7.00614">
        <ele>204</ele>
        <time>2011-01-23T09:13:13Z</time>
      </trkpt>
      <trkpt lat="49.18354" lon="7.00616">
        <ele>204</ele>
        <time>2011-01-23T09:13:14Z</time>
      </trkpt>
      <trkpt lat="49.18354" lon="7.00618">
        <ele>204</ele>
        <time>2011-01-23T09:13:15Z</time>
      </trkpt>
      <trkpt lat="49.18354" lon="7.0062">
        <ele>204</ele>
        <time>2011-01-23T09:13:16Z</time>
      </trkpt>
      <trkpt lat="49.18354" lon="7.00622">
        <ele>204</ele>
        <time>2011-01-23T09:13:17Z</time>
      </trkpt>
      <trkpt lat="49.18354" lon="7.00624">
        <ele>204</ele>
        <time>2011-01-23T09:13:18Z</time>
      </trkpt>
      <trkpt lat="49.18355" lon="7.00626">
        <ele>204</ele>
        <time>2011-01-23T09:13:19Z</time>
      </trkpt>
      <trkpt lat="49.18355" lon="7.00628">
        <ele>204</ele>
        <time>2011-01-23T09:13:20Z</time>
      </trkpt>
      <trkpt lat="49.18355" lon="7.0063">
        <ele>204</ele>
        <time>2011-01-23T09:13:21Z</time>
      </trkpt>
      <trkpt lat="49.18356" lon="7.00632">
        <ele>204</ele>
        <time>2011-01-23T09:13:22Z</time>
      </trkpt>
      <trkpt lat="49.18356" lon="7.00633">
        <ele>204</ele>
        <time>2011-01-23T09:13:23Z</time>
      </trkpt>
      <trkpt lat="49.18356" lon="7.00636">
        <ele>204</ele>
        <time>2011-01-23T09:13:25Z</time>
      </trkpt>
      <trkpt lat="49.18356" lon="7.00638">
        <ele>204</ele>
        <time>2011-01-23T09:13:26Z</time>
      </trkpt>
      <trkpt lat="49.18356" lon="7.0064">
        <ele>204</ele>
        <time>2011-01-23T09:13:27Z</time>
      </trkpt>
      <trkpt lat="49.18357" lon="7.00642">
        <ele>204</ele>
        <time>2011-01-23T09:13:28Z</time>
      </trkpt>
      <trkpt lat="49.18357" lon="7.00644">
        <ele>204</ele>
        <time>2011-01-23T09:13:29Z</time>
      </trkpt>
      <trkpt lat="49.18357" lon="7.00646">
        <ele>204</ele>
        <time>2011-01-23T09:13:30Z</time>
      </trkpt>
      <trkpt lat="49.18357" lon="7.00648">
        <ele>204</ele>
        <time>2011-01-23T09:13:31Z</time>
      </trkpt>
      <trkpt lat="49.18358" lon="7.00649">
        <ele>204</ele>
        <time>2011-01-23T09:13:32Z</time>
      </trkpt>
      <trkpt lat="49.18358" lon="7.00652">
        <ele>204</ele>
        <time>2011-01-23T09:13:33Z</time>
      </trkpt>
      <trkpt lat="49.18359" lon="7.00655">
        <ele>203</ele>
        <time>2011-01-23T09:13:35Z</time>
      </trkpt>
      <trkpt lat="49.18359" lon="7.00657">
        <ele>203</ele>
        <time>2011-01-23T09:13:36Z</time>
      </trkpt>
      <trkpt lat="49.18359" lon="7.00659">
        <ele>203</ele>
        <time>2011-01-23T09:13:37Z</time>
      </trkpt>
      <trkpt lat="49.18359" lon="7.00661">
        <ele>203</ele>
        <time>2011-01-23T09:13:38Z</time>
      </trkpt>
      <trkpt lat="49.1836" lon="7.00662">
        <ele>202</ele>
        <time>2011-01-23T09:13:39Z</time>
      </trkpt>
      <trkpt lat="49.1836" lon="7.00664">
        <ele>202</ele>
        <time>2011-01-23T09:13:40Z</time>
      </trkpt>
      <trkpt lat="49.1836" lon="7.00666">
        <ele>202</ele>
        <time>2011-01-23T09:13:41Z</time>
      </trkpt>
      <trkpt lat="49.18361" lon="7.00667">
        <ele>201</ele>
        <time>2011-01-23T09:13:42Z</time>
      </trkpt>
      <trkpt lat="49.18362" lon="7.00669">
        <ele>201</ele>
        <time>2011-01-23T09:13:43Z</time>
      </trkpt>
      <trkpt lat="49.18362" lon="7.00671">
        <ele>200</ele>
        <time>2011-01-23T09:13:44Z</time>
      </trkpt>
      <trkpt lat="49.18364" lon="7.00674">
        <ele>199</ele>
        <time>2011-01-23T09:13:46Z</time>
      </trkpt>
      <trkpt lat="49.18365" lon="7.00676">
        <ele>199</ele>
        <time>2011-01-23T09:13:47Z</time>
      </trkpt>
      <trkpt lat="49.18367" lon="7.00677">
        <ele>198</ele>
        <time>2011-01-23T09:13:48Z</time>
      </trkpt>
      <trkpt lat="49.18367" lon="7.00679">
        <ele>198</ele>
        <time>2011-01-23T09:13:49Z</time>
      </trkpt>
      <trkpt lat="49.18368" lon="7.00682">
        <ele>198</ele>
        <time>2011-01-23T09:13:50Z</time>
      </trkpt>
      <trkpt lat="49.18369" lon="7.00684">
        <ele>198</ele>
        <time>2011-01-23T09:13:51Z</time>
      </trkpt>
      <trkpt lat="49.1837" lon="7.00688">
        <ele>198</ele>
        <time>2011-01-23T09:13:53Z</time>
      </trkpt>
      <trkpt lat="49.1837" lon="7.00689">
        <ele>198</ele>
        <time>2011-01-23T09:13:54Z</time>
      </trkpt>
      <trkpt lat="49.18371" lon="7.00693">
        <ele>198</ele>
        <time>2011-01-23T09:13:56Z</time>
      </trkpt>
      <trkpt lat="49.18371" lon="7.00695">
        <ele>198</ele>
        <time>2011-01-23T09:13:57Z</time>
      </trkpt>
      <trkpt lat="49.18373" lon="7.00698">
        <ele>198</ele>
        <time>2011-01-23T09:13:59Z</time>
      </trkpt>
      <trkpt lat="49.18374" lon="7.00701">
        <ele>198</ele>
        <time>2011-01-23T09:14:01Z</time>
      </trkpt>
      <trkpt lat="49.18375" lon="7.00703">
        <ele>198</ele>
        <time>2011-01-23T09:14:02Z</time>
      </trkpt>
      <trkpt lat="49.18375" lon="7.00705">
        <ele>198</ele>
        <time>2011-01-23T09:14:03Z</time>
      </trkpt>
      <trkpt lat="49.18378" lon="7.00708">
        <ele>198</ele>
        <time>2011-01-23T09:14:05Z</time>
      </trkpt>
      <trkpt lat="49.1838" lon="7.00711">
        <ele>199</ele>
        <time>2011-01-23T09:14:07Z</time>
      </trkpt>
      <trkpt lat="49.18381" lon="7.00713">
        <ele>200</ele>
        <time>2011-01-23T09:14:08Z</time>
      </trkpt>
      <trkpt lat="49.18382" lon="7.00716">
        <ele>201</ele>
        <time>2011-01-23T09:14:09Z</time>
      </trkpt>
      <trkpt lat="49.18382" lon="7.00718">
        <ele>202</ele>
        <time>2011-01-23T09:14:10Z</time>
      </trkpt>
      <trkpt lat="49.18383" lon="7.00719">
        <ele>203</ele>
        <time>2011-01-23T09:14:11Z</time>
      </trkpt>
      <trkpt lat="49.18383" lon="7.00721">
        <ele>203</ele>
        <time>2011-01-23T09:14:12Z</time>
      </trkpt>
      <trkpt lat="49.18384" lon="7.00725">
        <ele>204</ele>
        <time>2011-01-23T09:14:14Z</time>
      </trkpt>
      <trkpt lat="49.18385" lon="7.00727">
        <ele>205</ele>
        <time>2011-01-23T09:14:15Z</time>
      </trkpt>
      <trkpt lat="49.18385" lon="7.00728">
        <ele>205</ele>
        <time>2011-01-23T09:14:16Z</time>
      </trkpt>
      <trkpt lat="49.18386" lon="7.0073">
        <ele>205</ele>
        <time>2011-01-23T09:14:17Z</time>
      </trkpt>
      <trkpt lat="49.18387" lon="7.00734">
        <ele>205</ele>
        <time>2011-01-23T09:14:19Z</time>
      </trkpt>
      <trkpt lat="49.18388" lon="7.00736">
        <ele>205</ele>
        <time>2011-01-23T09:14:20Z</time>
      </trkpt>
      <trkpt lat="49.18389" lon="7.00739">
        <ele>205</ele>
        <time>2011-01-23T09:14:22Z</time>
      </trkpt>
      <trkpt lat="49.1839" lon="7.0074">
        <ele>205</ele>
        <time>2011-01-23T09:14:23Z</time>
      </trkpt>
      <trkpt lat="49.1839" lon="7.00743">
        <ele>205</ele>
        <time>2011-01-23T09:14:24Z</time>
      </trkpt>
      <trkpt lat="49.1839" lon="7.00744">
        <ele>205</ele>
        <time>2011-01-23T09:14:25Z</time>
      </trkpt>
      <trkpt lat="49.18392" lon="7.00746">
        <ele>205</ele>
        <time>2011-01-23T09:14:28Z</time>
      </trkpt>
      <trkpt lat="49.18393" lon="7.00749">
        <ele>205</ele>
        <time>2011-01-23T09:14:30Z</time>
      </trkpt>
      <trkpt lat="49.18394" lon="7.00751">
        <ele>204</ele>
        <time>2011-01-23T09:14:32Z</time>
      </trkpt>
      <trkpt lat="49.18396" lon="7.00754">
        <ele>203</ele>
        <time>2011-01-23T09:14:34Z</time>
      </trkpt>
      <trkpt lat="49.18397" lon="7.00757">
        <ele>201</ele>
        <time>2011-01-23T09:14:36Z</time>
      </trkpt>
      <trkpt lat="49.18398" lon="7.00759">
        <ele>201</ele>
        <time>2011-01-23T09:14:37Z</time>
      </trkpt>
      <trkpt lat="49.18399" lon="7.0076">
        <ele>201</ele>
        <time>2011-01-23T09:14:38Z</time>
      </trkpt>
      <trkpt lat="49.184" lon="7.00762">
        <ele>201</ele>
        <time>2011-01-23T09:14:39Z</time>
      </trkpt>
      <trkpt lat="49.184" lon="7.00764">
        <ele>201</ele>
        <time>2011-01-23T09:14:40Z</time>
      </trkpt>
      <trkpt lat="49.18401" lon="7.00766">
        <ele>201</ele>
        <time>2011-01-23T09:14:41Z</time>
      </trkpt>
      <trkpt lat="49.18402" lon="7.00768">
        <ele>201</ele>
        <time>2011-01-23T09:14:42Z</time>
      </trkpt>
      <trkpt lat="49.18403" lon="7.00769">
        <ele>201</ele>
        <time>2011-01-23T09:14:43Z</time>
      </trkpt>
      <trkpt lat="49.18405" lon="7.00773">
        <ele>201</ele>
        <time>2011-01-23T09:14:45Z</time>
      </trkpt>
      <trkpt lat="49.18406" lon="7.00775">
        <ele>200</ele>
        <time>2011-01-23T09:14:47Z</time>
      </trkpt>
      <trkpt lat="49.18407" lon="7.00779">
        <ele>200</ele>
        <time>2011-01-23T09:14:49Z</time>
      </trkpt>
      <trkpt lat="49.18408" lon="7.0078">
        <ele>200</ele>
        <time>2011-01-23T09:14:50Z</time>
      </trkpt>
      <trkpt lat="49.18409" lon="7.00782">
        <ele>200</ele>
        <time>2011-01-23T09:14:51Z</time>
      </trkpt>
      <trkpt lat="49.1841" lon="7.00784">
        <ele>199</ele>
        <time>2011-01-23T09:14:52Z</time>
      </trkpt>
      <trkpt lat="49.1841" lon="7.00786">
        <ele>199</ele>
        <time>2011-01-23T09:14:53Z</time>
      </trkpt>
      <trkpt lat="49.18411" lon="7.00788">
        <ele>199</ele>
        <time>2011-01-23T09:14:54Z</time>
      </trkpt>
      <trkpt lat="49.18412" lon="7.00789">
        <ele>199</ele>
        <time>2011-01-23T09:14:55Z</time>
      </trkpt>
      <trkpt lat="49.18413" lon="7.00791">
        <ele>199</ele>
        <time>2011-01-23T09:14:56Z</time>
      </trkpt>
      <trkpt lat="49.18414" lon="7.00793">
        <ele>199</ele>
        <time>2011-01-23T09:14:57Z</time>
      </trkpt>
      <trkpt lat="49.18414" lon="7.00795">
        <ele>199</ele>
        <time>2011-01-23T09:14:58Z</time>
      </trkpt>
      <trkpt lat="49.18415" lon="7.00797">
        <ele>199</ele>
        <time>2011-01-23T09:14:59Z</time>
      </trkpt>
      <trkpt lat="49.18416" lon="7.00798">
        <ele>199</ele>
        <time>2011-01-23T09:15:00Z</time>
      </trkpt>
      <trkpt lat="49.18416" lon="7.008">
        <ele>199</ele>
        <time>2011-01-23T09:15:01Z</time>
      </trkpt>
      <trkpt lat="49.18417" lon="7.00802">
        <ele>199</ele>
        <time>2011-01-23T09:15:02Z</time>
      </trkpt>
      <trkpt lat="49.18418" lon="7.00804">
        <ele>199</ele>
        <time>2011-01-23T09:15:03Z</time>
      </trkpt>
      <trkpt lat="49.18419" lon="7.00806">
        <ele>199</ele>
        <time>2011-01-23T09:15:04Z</time>
      </trkpt>
      <trkpt lat="49.1842" lon="7.00808">
        <ele>199</ele>
        <time>2011-01-23T09:15:05Z</time>
      </trkpt>
      <trkpt lat="49.1842" lon="7.0081">
        <ele>199</ele>
        <time>2011-01-23T09:15:06Z</time>
      </trkpt>
      <trkpt lat="49.18421" lon="7.00811">
        <ele>199</ele>
        <time>2011-01-23T09:15:07Z</time>
      </trkpt>
      <trkpt lat="49.18421" lon="7.00813">
        <ele>199</ele>
        <time>2011-01-23T09:15:08Z</time>
      </trkpt>
      <trkpt lat="49.18422" lon="7.00815">
        <ele>199</ele>
        <time>2011-01-23T09:15:09Z</time>
      </trkpt>
      <trkpt lat="49.18423" lon="7.00817">
        <ele>199</ele>
        <time>2011-01-23T09:15:10Z</time>
      </trkpt>
      <trkpt lat="49.18423" lon="7.00819">
        <ele>199</ele>
        <time>2011-01-23T09:15:11Z</time>
      </trkpt>
      <trkpt lat="49.18424" lon="7.0082">
        <ele>199</ele>
        <time>2011-01-23T09:15:12Z</time>
      </trkpt>
      <trkpt lat="49.18426" lon="7.00823">
        <ele>199</ele>
        <time>2011-01-23T09:15:14Z</time>
      </trkpt>
      <trkpt lat="49.18427" lon="7.00827">
        <ele>199</ele>
        <time>2011-01-23T09:15:16Z</time>
      </trkpt>
      <trkpt lat="49.18428" lon="7.00828">
        <ele>199</ele>
        <time>2011-01-23T09:15:17Z</time>
      </trkpt>
      <trkpt lat="49.1843" lon="7.00831">
        <ele>199</ele>
        <time>2011-01-23T09:15:19Z</time>
      </trkpt>
      <trkpt lat="49.18431" lon="7.00834">
        <ele>199</ele>
        <time>2011-01-23T09:15:21Z</time>
      </trkpt>
      <trkpt lat="49.18431" lon="7.00836">
        <ele>199</ele>
        <time>2011-01-23T09:15:23Z</time>
      </trkpt>
      <trkpt lat="49.18432" lon="7.00838">
        <ele>199</ele>
        <time>2011-01-23T09:15:24Z</time>
      </trkpt>
      <trkpt lat="49.18433" lon="7.0084">
        <ele>199</ele>
        <time>2011-01-23T09:15:25Z</time>
      </trkpt>
      <trkpt lat="49.18433" lon="7.00841">
        <ele>199</ele>
        <time>2011-01-23T09:15:26Z</time>
      </trkpt>
      <trkpt lat="49.18435" lon="7.00844">
        <ele>199</ele>
        <time>2011-01-23T09:15:28Z</time>
      </trkpt>
      <trkpt lat="49.18437" lon="7.00847">
        <ele>199</ele>
        <time>2011-01-23T09:15:30Z</time>
      </trkpt>
      <trkpt lat="49.18438" lon="7.00849">
        <ele>199</ele>
        <time>2011-01-23T09:15:31Z</time>
      </trkpt>
      <trkpt lat="49.18438" lon="7.0085">
        <ele>199</ele>
        <time>2011-01-23T09:15:32Z</time>
      </trkpt>
      <trkpt lat="49.18439" lon="7.00852">
        <ele>199</ele>
        <time>2011-01-23T09:15:33Z</time>
      </trkpt>
      <trkpt lat="49.1844" lon="7.00854">
        <ele>199</ele>
        <time>2011-01-23T09:15:34Z</time>
      </trkpt>
      <trkpt lat="49.18442" lon="7.00857">
        <ele>199</ele>
        <time>2011-01-23T09:15:36Z</time>
      </trkpt>
      <trkpt lat="49.18443" lon="7.0086">
        <ele>199</ele>
        <time>2011-01-23T09:15:38Z</time>
      </trkpt>
      <trkpt lat="49.18444" lon="7.00863">
        <ele>199</ele>
        <time>2011-01-23T09:15:40Z</time>
      </trkpt>
      <trkpt lat="49.18445" lon="7.00865">
        <ele>199</ele>
        <time>2011-01-23T09:15:41Z</time>
      </trkpt>
      <trkpt lat="49.18446" lon="7.00867">
        <ele>199</ele>
        <time>2011-01-23T09:15:42Z</time>
      </trkpt>
      <trkpt lat="49.18447" lon="7.0087">
        <ele>198</ele>
        <time>2011-01-23T09:15:44Z</time>
      </trkpt>
      <trkpt lat="49.18449" lon="7.00873">
        <ele>198</ele>
        <time>2011-01-23T09:15:46Z</time>
      </trkpt>
      <trkpt lat="49.1845" lon="7.00876">
        <ele>197</ele>
        <time>2011-01-23T09:15:48Z</time>
      </trkpt>
      <trkpt lat="49.18451" lon="7.00878">
        <ele>197</ele>
        <time>2011-01-23T09:15:49Z</time>
      </trkpt>
      <trkpt lat="49.18452" lon="7.0088">
        <ele>196</ele>
        <time>2011-01-23T09:15:51Z</time>
      </trkpt>
      <trkpt lat="49.18454" lon="7.00883">
        <ele>196</ele>
        <time>2011-01-23T09:15:53Z</time>
      </trkpt>
      <trkpt lat="49.18456" lon="7.00886">
        <ele>196</ele>
        <time>2011-01-23T09:15:55Z</time>
      </trkpt>
      <trkpt lat="49.18458" lon="7.00889">
        <ele>196</ele>
        <time>2011-01-23T09:15:57Z</time>
      </trkpt>
      <trkpt lat="49.18459" lon="7.0089">
        <ele>196</ele>
        <time>2011-01-23T09:15:58Z</time>
      </trkpt>
      <trkpt lat="49.18459" lon="7.00892">
        <ele>196</ele>
        <time>2011-01-23T09:15:59Z</time>
      </trkpt>
      <trkpt lat="49.1846" lon="7.00894">
        <ele>196</ele>
        <time>2011-01-23T09:16:00Z</time>
      </trkpt>
      <trkpt lat="49.18461" lon="7.00896">
        <ele>196</ele>
        <time>2011-01-23T09:16:01Z</time>
      </trkpt>
      <trkpt lat="49.18462" lon="7.00897">
        <ele>196</ele>
        <time>2011-01-23T09:16:02Z</time>
      </trkpt>
      <trkpt lat="49.18463" lon="7.00899">
        <ele>195</ele>
        <time>2011-01-23T09:16:03Z</time>
      </trkpt>
      <trkpt lat="49.18465" lon="7.00902">
        <ele>195</ele>
        <time>2011-01-23T09:16:05Z</time>
      </trkpt>
      <trkpt lat="49.18466" lon="7.00905">
        <ele>195</ele>
        <time>2011-01-23T09:16:07Z</time>
      </trkpt>
      <trkpt lat="49.18467" lon="7.00907">
        <ele>195</ele>
        <time>2011-01-23T09:16:08Z</time>
      </trkpt>
      <trkpt lat="49.18468" lon="7.00909">
        <ele>195</ele>
        <time>2011-01-23T09:16:09Z</time>
      </trkpt>
      <trkpt lat="49.18469" lon="7.0091">
        <ele>195</ele>
        <time>2011-01-23T09:16:10Z</time>
      </trkpt>
      <trkpt lat="49.1847" lon="7.00912">
        <ele>195</ele>
        <time>2011-01-23T09:16:11Z</time>
      </trkpt>
      <trkpt lat="49.18472" lon="7.00915">
        <ele>195</ele>
        <time>2011-01-23T09:16:13Z</time>
      </trkpt>
      <trkpt lat="49.18474" lon="7.00917">
        <ele>195</ele>
        <time>2011-01-23T09:16:15Z</time>
      </trkpt>
      <trkpt lat="49.18476" lon="7.00921">
        <ele>195</ele>
        <time>2011-01-23T09:16:17Z</time>
      </trkpt>
      <trkpt lat="49.18476" lon="7.00922">
        <ele>195</ele>
        <time>2011-01-23T09:16:18Z</time>
      </trkpt>
      <trkpt lat="49.18477" lon="7.00924">
        <ele>195</ele>
        <time>2011-01-23T09:16:19Z</time>
      </trkpt>
      <trkpt lat="49.18478" lon="7.00926">
        <ele>195</ele>
        <time>2011-01-23T09:16:20Z</time>
      </trkpt>
      <trkpt lat="49.18479" lon="7.00928">
        <ele>195</ele>
        <time>2011-01-23T09:16:21Z</time>
      </trkpt>
      <trkpt lat="49.1848" lon="7.00929">
        <ele>195</ele>
        <time>2011-01-23T09:16:22Z</time>
      </trkpt>
      <trkpt lat="49.18481" lon="7.00931">
        <ele>195</ele>
        <time>2011-01-23T09:16:23Z</time>
      </trkpt>
      <trkpt lat="49.18481" lon="7.00933">
        <ele>195</ele>
        <time>2011-01-23T09:16:24Z</time>
      </trkpt>
      <trkpt lat="49.18482" lon="7.00936">
        <ele>195</ele>
        <time>2011-01-23T09:16:26Z</time>
      </trkpt>
      <trkpt lat="49.18484" lon="7.00938">
        <ele>195</ele>
        <time>2011-01-23T09:16:28Z</time>
      </trkpt>
      <trkpt lat="49.18486" lon="7.00941">
        <ele>195</ele>
        <time>2011-01-23T09:16:30Z</time>
      </trkpt>
      <trkpt lat="49.18486" lon="7.00943">
        <ele>195</ele>
        <time>2011-01-23T09:16:31Z</time>
      </trkpt>
      <trkpt lat="49.18487" lon="7.00945">
        <ele>195</ele>
        <time>2011-01-23T09:16:32Z</time>
      </trkpt>
      <trkpt lat="49.18488" lon="7.00948">
        <ele>195</ele>
        <time>2011-01-23T09:16:33Z</time>
      </trkpt>
      <trkpt lat="49.18488" lon="7.00949">
        <ele>195</ele>
        <time>2011-01-23T09:16:34Z</time>
      </trkpt>
      <trkpt lat="49.18489" lon="7.00951">
        <ele>195</ele>
        <time>2011-01-23T09:16:35Z</time>
      </trkpt>
      <trkpt lat="49.18489" lon="7.00953">
        <ele>195</ele>
        <time>2011-01-23T09:16:36Z</time>
      </trkpt>
      <trkpt lat="49.18491" lon="7.00957">
        <ele>195</ele>
        <time>2011-01-23T09:16:38Z</time>
      </trkpt>
      <trkpt lat="49.18492" lon="7.00958">
        <ele>196</ele>
        <time>2011-01-23T09:16:39Z</time>
      </trkpt>
      <trkpt lat="49.18493" lon="7.00961">
        <ele>196</ele>
        <time>2011-01-23T09:16:41Z</time>
      </trkpt>
      <trkpt lat="49.18494" lon="7.00963">
        <ele>196</ele>
        <time>2011-01-23T09:16:42Z</time>
      </trkpt>
      <trkpt lat="49.18494" lon="7.00965">
        <ele>196</ele>
        <time>2011-01-23T09:16:43Z</time>
      </trkpt>
      <trkpt lat="49.18495" lon="7.00967">
        <ele>196</ele>
        <time>2011-01-23T09:16:44Z</time>
      </trkpt>
      <trkpt lat="49.18496" lon="7.00969">
        <ele>198</ele>
        <time>2011-01-23T09:16:46Z</time>
      </trkpt>
      <trkpt lat="49.18496" lon="7.00971">
        <ele>199</ele>
        <time>2011-01-23T09:16:47Z</time>
      </trkpt>
      <trkpt lat="49.18497" lon="7.00973">
        <ele>200</ele>
        <time>2011-01-23T09:16:48Z</time>
      </trkpt>
      <trkpt lat="49.18497" lon="7.00975">
        <ele>200</ele>
        <time>2011-01-23T09:16:49Z</time>
      </trkpt>
      <trkpt lat="49.18499" lon="7.00977">
        <ele>201</ele>
        <time>2011-01-23T09:16:50Z</time>
      </trkpt>
      <trkpt lat="49.18499" lon="7.00979">
        <ele>201</ele>
        <time>2011-01-23T09:16:51Z</time>
      </trkpt>
      <trkpt lat="49.185" lon="7.00981">
        <ele>201</ele>
        <time>2011-01-23T09:16:52Z</time>
      </trkpt>
      <trkpt lat="49.185" lon="7.00984">
        <ele>201</ele>
        <time>2011-01-23T09:16:53Z</time>
      </trkpt>
      <trkpt lat="49.18501" lon="7.00986">
        <ele>201</ele>
        <time>2011-01-23T09:16:54Z</time>
      </trkpt>
      <trkpt lat="49.18502" lon="7.0099">
        <ele>201</ele>
        <time>2011-01-23T09:16:56Z</time>
      </trkpt>
      <trkpt lat="49.18502" lon="7.00992">
        <ele>201</ele>
        <time>2011-01-23T09:16:57Z</time>
      </trkpt>
      <trkpt lat="49.18503" lon="7.00994">
        <ele>201</ele>
        <time>2011-01-23T09:16:58Z</time>
      </trkpt>
      <trkpt lat="49.18504" lon="7.00996">
        <ele>201</ele>
        <time>2011-01-23T09:16:59Z</time>
      </trkpt>
      <trkpt lat="49.18504" lon="7.00998">
        <ele>201</ele>
        <time>2011-01-23T09:17:00Z</time>
      </trkpt>
      <trkpt lat="49.18505" lon="7.01">
        <ele>201</ele>
        <time>2011-01-23T09:17:01Z</time>
      </trkpt>
      <trkpt lat="49.18506" lon="7.01002">
        <ele>201</ele>
        <time>2011-01-23T09:17:02Z</time>
      </trkpt>
      <trkpt lat="49.18507" lon="7.01005">
        <ele>201</ele>
        <time>2011-01-23T09:17:04Z</time>
      </trkpt>
      <trkpt lat="49.18509" lon="7.01008">
        <ele>201</ele>
        <time>2011-01-23T09:17:06Z</time>
      </trkpt>
      <trkpt lat="49.1851" lon="7.01009">
        <ele>201</ele>
        <time>2011-01-23T09:17:07Z</time>
      </trkpt>
      <trkpt lat="49.18511" lon="7.01011">
        <ele>201</ele>
        <time>2011-01-23T09:17:08Z</time>
      </trkpt>
      <trkpt lat="49.18512" lon="7.01014">
        <ele>201</ele>
        <time>2011-01-23T09:17:10Z</time>
      </trkpt>
      <trkpt lat="49.18514" lon="7.01017">
        <ele>200</ele>
        <time>2011-01-23T09:17:12Z</time>
      </trkpt>
      <trkpt lat="49.18515" lon="7.01019">
        <ele>200</ele>
        <time>2011-01-23T09:17:13Z</time>
      </trkpt>
      <trkpt lat="49.18515" lon="7.01021">
        <ele>200</ele>
        <time>2011-01-23T09:17:14Z</time>
      </trkpt>
      <trkpt lat="49.18516" lon="7.01023">
        <ele>200</ele>
        <time>2011-01-23T09:17:15Z</time>
      </trkpt>
      <trkpt lat="49.18518" lon="7.01026">
        <ele>200</ele>
        <time>2011-01-23T09:17:17Z</time>
      </trkpt>
      <trkpt lat="49.18519" lon="7.01027">
        <ele>200</ele>
        <time>2011-01-23T09:17:18Z</time>
      </trkpt>
      <trkpt lat="49.1852" lon="7.0103">
        <ele>200</ele>
        <time>2011-01-23T09:17:20Z</time>
      </trkpt>
      <trkpt lat="49.18521" lon="7.01032">
        <ele>200</ele>
        <time>2011-01-23T09:17:21Z</time>
      </trkpt>
      <trkpt lat="49.18522" lon="7.01034">
        <ele>200</ele>
        <time>2011-01-23T09:17:22Z</time>
      </trkpt>
      <trkpt lat="49.18523" lon="7.01035">
        <ele>200</ele>
        <time>2011-01-23T09:17:23Z</time>
      </trkpt>
      <trkpt lat="49.18525" lon="7.01038">
        <ele>200</ele>
        <time>2011-01-23T09:17:25Z</time>
      </trkpt>
      <trkpt lat="49.18526" lon="7.01041">
        <ele>200</ele>
        <time>2011-01-23T09:17:27Z</time>
      </trkpt>
      <trkpt lat="49.18528" lon="7.01043">
        <ele>200</ele>
        <time>2011-01-23T09:17:29Z</time>
      </trkpt>
      <trkpt lat="49.1853" lon="7.01046">
        <ele>200</ele>
        <time>2011-01-23T09:17:31Z</time>
      </trkpt>
      <trkpt lat="49.18531" lon="7.01048">
        <ele>200</ele>
        <time>2011-01-23T09:17:33Z</time>
      </trkpt>
      <trkpt lat="49.18532" lon="7.0105">
        <ele>200</ele>
        <time>2011-01-23T09:17:34Z</time>
      </trkpt>
      <trkpt lat="49.18533" lon="7.01052">
        <ele>200</ele>
        <time>2011-01-23T09:17:35Z</time>
      </trkpt>
      <trkpt lat="49.18533" lon="7.01054">
        <ele>200</ele>
        <time>2011-01-23T09:17:36Z</time>
      </trkpt>
      <trkpt lat="49.18534" lon="7.01056">
        <ele>200</ele>
        <time>2011-01-23T09:17:37Z</time>
      </trkpt>
      <trkpt lat="49.18535" lon="7.01058">
        <ele>200</ele>
        <time>2011-01-23T09:17:38Z</time>
      </trkpt>
      <trkpt lat="49.18537" lon="7.0106">
        <ele>200</ele>
        <time>2011-01-23T09:17:40Z</time>
      </trkpt>
      <trkpt lat="49.18538" lon="7.01063">
        <ele>200</ele>
        <time>2011-01-23T09:17:42Z</time>
      </trkpt>
      <trkpt lat="49.18539" lon="7.01065">
        <ele>200</ele>
        <time>2011-01-23T09:17:43Z</time>
      </trkpt>
      <trkpt lat="49.1854" lon="7.01067">
        <ele>200</ele>
        <time>2011-01-23T09:17:44Z</time>
      </trkpt>
      <trkpt lat="49.18541" lon="7.01071">
        <ele>200</ele>
        <time>2011-01-23T09:17:46Z</time>
      </trkpt>
      <trkpt lat="49.18542" lon="7.01073">
        <ele>200</ele>
        <time>2011-01-23T09:17:47Z</time>
      </trkpt>
      <trkpt lat="49.18542" lon="7.01075">
        <ele>200</ele>
        <time>2011-01-23T09:17:49Z</time>
      </trkpt>
      <trkpt lat="49.18543" lon="7.01077">
        <ele>200</ele>
        <time>2011-01-23T09:17:50Z</time>
      </trkpt>
      <trkpt lat="49.18543" lon="7.01079">
        <ele>200</ele>
        <time>2011-01-23T09:17:51Z</time>
      </trkpt>
      <trkpt lat="49.18544" lon="7.01081">
        <ele>200</ele>
        <time>2011-01-23T09:17:52Z</time>
      </trkpt>
      <trkpt lat="49.18545" lon="7.01083">
        <ele>200</ele>
        <time>2011-01-23T09:17:53Z</time>
      </trkpt>
      <trkpt lat="49.18545" lon="7.01084">
        <ele>200</ele>
        <time>2011-01-23T09:17:54Z</time>
      </trkpt>
      <trkpt lat="49.18546" lon="7.01087">
        <ele>200</ele>
        <time>2011-01-23T09:17:55Z</time>
      </trkpt>
      <trkpt lat="49.18546" lon="7.01088">
        <ele>200</ele>
        <time>2011-01-23T09:17:56Z</time>
      </trkpt>
      <trkpt lat="49.18548" lon="7.01091">
        <ele>200</ele>
        <time>2011-01-23T09:17:58Z</time>
      </trkpt>
      <trkpt lat="49.1855" lon="7.01094">
        <ele>200</ele>
        <time>2011-01-23T09:18:00Z</time>
      </trkpt>
      <trkpt lat="49.18551" lon="7.01095">
        <ele>200</ele>
        <time>2011-01-23T09:18:01Z</time>
      </trkpt>
      <trkpt lat="49.18552" lon="7.01097">
        <ele>200</ele>
        <time>2011-01-23T09:18:02Z</time>
      </trkpt>
      <trkpt lat="49.18553" lon="7.01099">
        <ele>200</ele>
        <time>2011-01-23T09:18:03Z</time>
      </trkpt>
      <trkpt lat="49.18555" lon="7.01101">
        <ele>200</ele>
        <time>2011-01-23T09:18:04Z</time>
      </trkpt>
      <trkpt lat="49.18555" lon="7.01103">
        <ele>200</ele>
        <time>2011-01-23T09:18:05Z</time>
      </trkpt>
      <trkpt lat="49.18556" lon="7.01106">
        <ele>200</ele>
        <time>2011-01-23T09:18:07Z</time>
      </trkpt>
      <trkpt lat="49.18557" lon="7.01108">
        <ele>200</ele>
        <time>2011-01-23T09:18:08Z</time>
      </trkpt>
      <trkpt lat="49.18558" lon="7.0111">
        <ele>200</ele>
        <time>2011-01-23T09:18:09Z</time>
      </trkpt>
      <trkpt lat="49.18559" lon="7.01113">
        <ele>199</ele>
        <time>2011-01-23T09:18:10Z</time>
      </trkpt>
      <trkpt lat="49.1856" lon="7.01114">
        <ele>199</ele>
        <time>2011-01-23T09:18:11Z</time>
      </trkpt>
      <trkpt lat="49.1856" lon="7.01117">
        <ele>199</ele>
        <time>2011-01-23T09:18:13Z</time>
      </trkpt>
      <trkpt lat="49.1856" lon="7.01119">
        <ele>199</ele>
        <time>2011-01-23T09:18:14Z</time>
      </trkpt>
      <trkpt lat="49.18561" lon="7.01121">
        <ele>199</ele>
        <time>2011-01-23T09:18:15Z</time>
      </trkpt>
      <trkpt lat="49.18561" lon="7.01123">
        <ele>199</ele>
        <time>2011-01-23T09:18:16Z</time>
      </trkpt>
      <trkpt lat="49.18562" lon="7.01126">
        <ele>199</ele>
        <time>2011-01-23T09:18:17Z</time>
      </trkpt>
      <trkpt lat="49.18563" lon="7.01128">
        <ele>199</ele>
        <time>2011-01-23T09:18:19Z</time>
      </trkpt>
      <trkpt lat="49.18565" lon="7.01132">
        <ele>199</ele>
        <time>2011-01-23T09:18:21Z</time>
      </trkpt>
      <trkpt lat="49.18566" lon="7.01134">
        <ele>199</ele>
        <time>2011-01-23T09:18:22Z</time>
      </trkpt>
      <trkpt lat="49.18567" lon="7.01137">
        <ele>199</ele>
        <time>2011-01-23T09:18:24Z</time>
      </trkpt>
      <trkpt lat="49.18567" lon="7.01139">
        <ele>199</ele>
        <time>2011-01-23T09:18:25Z</time>
      </trkpt>
      <trkpt lat="49.18568" lon="7.0114">
        <ele>199</ele>
        <time>2011-01-23T09:18:26Z</time>
      </trkpt>
      <trkpt lat="49.18569" lon="7.01142">
        <ele>199</ele>
        <time>2011-01-23T09:18:27Z</time>
      </trkpt>
      <trkpt lat="49.1857" lon="7.01144">
        <ele>199</ele>
        <time>2011-01-23T09:18:28Z</time>
      </trkpt>
      <trkpt lat="49.18572" lon="7.01147">
        <ele>199</ele>
        <time>2011-01-23T09:18:30Z</time>
      </trkpt>
      <trkpt lat="49.18573" lon="7.01149">
        <ele>199</ele>
        <time>2011-01-23T09:18:31Z</time>
      </trkpt>
      <trkpt lat="49.18573" lon="7.01151">
        <ele>200</ele>
        <time>2011-01-23T09:18:32Z</time>
      </trkpt>
      <trkpt lat="49.18575" lon="7.01154">
        <ele>201</ele>
        <time>2011-01-23T09:18:33Z</time>
      </trkpt>
      <trkpt lat="49.18575" lon="7.01156">
        <ele>202</ele>
        <time>2011-01-23T09:18:34Z</time>
      </trkpt>
      <trkpt lat="49.18576" lon="7.01159">
        <ele>203</ele>
        <time>2011-01-23T09:18:35Z</time>
      </trkpt>
      <trkpt lat="49.18577" lon="7.01161">
        <ele>204</ele>
        <time>2011-01-23T09:18:36Z</time>
      </trkpt>
      <trkpt lat="49.18578" lon="7.01164">
        <ele>204</ele>
        <time>2011-01-23T09:18:37Z</time>
      </trkpt>
      <trkpt lat="49.18578" lon="7.01165">
        <ele>204</ele>
        <time>2011-01-23T09:18:38Z</time>
      </trkpt>
      <trkpt lat="49.18578" lon="7.01167">
        <ele>204</ele>
        <time>2011-01-23T09:18:39Z</time>
      </trkpt>
      <trkpt lat="49.1858" lon="7.01169">
        <ele>204</ele>
        <time>2011-01-23T09:18:40Z</time>
      </trkpt>
      <trkpt lat="49.1858" lon="7.01171">
        <ele>204</ele>
        <time>2011-01-23T09:18:41Z</time>
      </trkpt>
      <trkpt lat="49.18581" lon="7.01173">
        <ele>204</ele>
        <time>2011-01-23T09:18:42Z</time>
      </trkpt>
      <trkpt lat="49.18582" lon="7.01176">
        <ele>204</ele>
        <time>2011-01-23T09:18:43Z</time>
      </trkpt>
      <trkpt lat="49.18582" lon="7.01178">
        <ele>204</ele>
        <time>2011-01-23T09:18:44Z</time>
      </trkpt>
      <trkpt lat="49.18583" lon="7.01181">
        <ele>204</ele>
        <time>2011-01-23T09:18:45Z</time>
      </trkpt>
      <trkpt lat="49.18583" lon="7.01183">
        <ele>204</ele>
        <time>2011-01-23T09:18:46Z</time>
      </trkpt>
      <trkpt lat="49.18583" lon="7.01185">
        <ele>204</ele>
        <time>2011-01-23T09:18:47Z</time>
      </trkpt>
      <trkpt lat="49.18584" lon="7.01187">
        <ele>204</ele>
        <time>2011-01-23T09:18:48Z</time>
      </trkpt>
      <trkpt lat="49.18584" lon="7.01189">
        <ele>205</ele>
        <time>2011-01-23T09:18:49Z</time>
      </trkpt>
      <trkpt lat="49.18585" lon="7.01191">
        <ele>205</ele>
        <time>2011-01-23T09:18:50Z</time>
      </trkpt>
      <trkpt lat="49.18585" lon="7.01193">
        <ele>206</ele>
        <time>2011-01-23T09:18:51Z</time>
      </trkpt>
      <trkpt lat="49.18586" lon="7.01195">
        <ele>206</ele>
        <time>2011-01-23T09:18:52Z</time>
      </trkpt>
      <trkpt lat="49.18586" lon="7.01197">
        <ele>206</ele>
        <time>2011-01-23T09:18:53Z</time>
      </trkpt>
      <trkpt lat="49.18587" lon="7.012">
        <ele>206</ele>
        <time>2011-01-23T09:18:55Z</time>
      </trkpt>
      <trkpt lat="49.18588" lon="7.01203">
        <ele>206</ele>
        <time>2011-01-23T09:18:56Z</time>
      </trkpt>
      <trkpt lat="49.18591" lon="7.01204">
        <ele>208</ele>
        <time>2011-01-23T09:18:58Z</time>
      </trkpt>
      <trkpt lat="49.18592" lon="7.01206">
        <ele>208</ele>
        <time>2011-01-23T09:18:59Z</time>
      </trkpt>
      <trkpt lat="49.18593" lon="7.01208">
        <ele>209</ele>
        <time>2011-01-23T09:19:00Z</time>
      </trkpt>
      <trkpt lat="49.18594" lon="7.01211">
        <ele>209</ele>
        <time>2011-01-23T09:19:01Z</time>
      </trkpt>
      <trkpt lat="49.18594" lon="7.01214">
        <ele>210</ele>
        <time>2011-01-23T09:19:02Z</time>
      </trkpt>
      <trkpt lat="49.18595" lon="7.01216">
        <ele>210</ele>
        <time>2011-01-23T09:19:03Z</time>
      </trkpt>
      <trkpt lat="49.18596" lon="7.01218">
        <ele>210</ele>
        <time>2011-01-23T09:19:04Z</time>
      </trkpt>
      <trkpt lat="49.18596" lon="7.01221">
        <ele>211</ele>
        <time>2011-01-23T09:19:05Z</time>
      </trkpt>
      <trkpt lat="49.18596" lon="7.01223">
        <ele>211</ele>
        <time>2011-01-23T09:19:06Z</time>
      </trkpt>
      <trkpt lat="49.18596" lon="7.01225">
        <ele>211</ele>
        <time>2011-01-23T09:19:07Z</time>
      </trkpt>
      <trkpt lat="49.18596" lon="7.01227">
        <ele>211</ele>
        <time>2011-01-23T09:19:08Z</time>
      </trkpt>
      <trkpt lat="49.18597" lon="7.01228">
        <ele>211</ele>
        <time>2011-01-23T09:19:09Z</time>
      </trkpt>
      <trkpt lat="49.18597" lon="7.0123">
        <ele>211</ele>
        <time>2011-01-23T09:19:11Z</time>
      </trkpt>
      <trkpt lat="49.18598" lon="7.01232">
        <ele>211</ele>
        <time>2011-01-23T09:19:12Z</time>
      </trkpt>
      <trkpt lat="49.18598" lon="7.01234">
        <ele>211</ele>
        <time>2011-01-23T09:19:13Z</time>
      </trkpt>
      <trkpt lat="49.18598" lon="7.01236">
        <ele>211</ele>
        <time>2011-01-23T09:19:14Z</time>
      </trkpt>
      <trkpt lat="49.18599" lon="7.01238">
        <ele>211</ele>
        <time>2011-01-23T09:19:15Z</time>
      </trkpt>
      <trkpt lat="49.18599" lon="7.0124">
        <ele>211</ele>
        <time>2011-01-23T09:19:16Z</time>
      </trkpt>
      <trkpt lat="49.186" lon="7.01242">
        <ele>211</ele>
        <time>2011-01-23T09:19:17Z</time>
      </trkpt>
      <trkpt lat="49.18601" lon="7.01243">
        <ele>211</ele>
        <time>2011-01-23T09:19:18Z</time>
      </trkpt>
      <trkpt lat="49.18602" lon="7.01247">
        <ele>211</ele>
        <time>2011-01-23T09:19:20Z</time>
      </trkpt>
      <trkpt lat="49.18603" lon="7.01248">
        <ele>211</ele>
        <time>2011-01-23T09:19:21Z</time>
      </trkpt>
      <trkpt lat="49.18605" lon="7.01252">
        <ele>211</ele>
        <time>2011-01-23T09:19:23Z</time>
      </trkpt>
      <trkpt lat="49.18605" lon="7.01254">
        <ele>211</ele>
        <time>2011-01-23T09:19:24Z</time>
      </trkpt>
      <trkpt lat="49.18607" lon="7.01257">
        <ele>211</ele>
        <time>2011-01-23T09:19:26Z</time>
      </trkpt>
      <trkpt lat="49.18607" lon="7.01259">
        <ele>211</ele>
        <time>2011-01-23T09:19:27Z</time>
      </trkpt>
      <trkpt lat="49.18609" lon="7.01261">
        <ele>211</ele>
        <time>2011-01-23T09:19:29Z</time>
      </trkpt>
      <trkpt lat="49.18611" lon="7.01265">
        <ele>209</ele>
        <time>2011-01-23T09:19:31Z</time>
      </trkpt>
      <trkpt lat="49.18611" lon="7.01267">
        <ele>208</ele>
        <time>2011-01-23T09:19:32Z</time>
      </trkpt>
      <trkpt lat="49.18612" lon="7.01269">
        <ele>208</ele>
        <time>2011-01-23T09:19:33Z</time>
      </trkpt>
      <trkpt lat="49.18613" lon="7.01271">
        <ele>208</ele>
        <time>2011-01-23T09:19:34Z</time>
      </trkpt>
      <trkpt lat="49.18614" lon="7.01273">
        <ele>208</ele>
        <time>2011-01-23T09:19:35Z</time>
      </trkpt>
      <trkpt lat="49.18615" lon="7.01275">
        <ele>208</ele>
        <time>2011-01-23T09:19:36Z</time>
      </trkpt>
      <trkpt lat="49.18615" lon="7.01276">
        <ele>208</ele>
        <time>2011-01-23T09:19:37Z</time>
      </trkpt>
      <trkpt lat="49.18616" lon="7.01278">
        <ele>207</ele>
        <time>2011-01-23T09:19:38Z</time>
      </trkpt>
      <trkpt lat="49.18617" lon="7.01279">
        <ele>207</ele>
        <time>2011-01-23T09:19:39Z</time>
      </trkpt>
      <trkpt lat="49.18618" lon="7.01282">
        <ele>206</ele>
        <time>2011-01-23T09:19:41Z</time>
      </trkpt>
      <trkpt lat="49.18619" lon="7.01286">
        <ele>205</ele>
        <time>2011-01-23T09:19:43Z</time>
      </trkpt>
      <trkpt lat="49.18619" lon="7.01288">
        <ele>205</ele>
        <time>2011-01-23T09:19:44Z</time>
      </trkpt>
      <trkpt lat="49.1862" lon="7.01291">
        <ele>204</ele>
        <time>2011-01-23T09:19:46Z</time>
      </trkpt>
      <trkpt lat="49.18621" lon="7.01293">
        <ele>203</ele>
        <time>2011-01-23T09:19:48Z</time>
      </trkpt>
      <trkpt lat="49.18623" lon="7.01294">
        <ele>202</ele>
        <time>2011-01-23T09:19:50Z</time>
      </trkpt>
      <trkpt lat="49.18624" lon="7.01294">
        <ele>202</ele>
        <time>2011-01-23T09:19:51Z</time>
      </trkpt>
      <trkpt lat="49.18625" lon="7.01297">
        <ele>201</ele>
        <time>2011-01-23T09:19:53Z</time>
      </trkpt>
      <trkpt lat="49.18625" lon="7.01299">
        <ele>201</ele>
        <time>2011-01-23T09:19:54Z</time>
      </trkpt>
      <trkpt lat="49.18626" lon="7.01301">
        <ele>201</ele>
        <time>2011-01-23T09:19:56Z</time>
      </trkpt>
      <trkpt lat="49.18626" lon="7.01303">
        <ele>201</ele>
        <time>2011-01-23T09:19:58Z</time>
      </trkpt>
      <trkpt lat="49.18628" lon="7.01305">
        <ele>201</ele>
        <time>2011-01-23T09:20:00Z</time>
      </trkpt>
      <trkpt lat="49.18629" lon="7.01307">
        <ele>201</ele>
        <time>2011-01-23T09:20:01Z</time>
      </trkpt>
      <trkpt lat="49.1863" lon="7.01309">
        <ele>201</ele>
        <time>2011-01-23T09:20:02Z</time>
      </trkpt>
      <trkpt lat="49.18631" lon="7.01311">
        <ele>201</ele>
        <time>2011-01-23T09:20:03Z</time>
      </trkpt>
      <trkpt lat="49.18632" lon="7.01314">
        <ele>201</ele>
        <time>2011-01-23T09:20:05Z</time>
      </trkpt>
      <trkpt lat="49.18633" lon="7.01314">
        <ele>201</ele>
        <time>2011-01-23T09:20:06Z</time>
      </trkpt>
      <trkpt lat="49.18635" lon="7.01317">
        <ele>201</ele>
        <time>2011-01-23T09:20:08Z</time>
      </trkpt>
      <trkpt lat="49.18636" lon="7.0132">
        <ele>201</ele>
        <time>2011-01-23T09:20:10Z</time>
      </trkpt>
      <trkpt lat="49.18636" lon="7.01322">
        <ele>201</ele>
        <time>2011-01-23T09:20:12Z</time>
      </trkpt>
      <trkpt lat="49.18638" lon="7.01324">
        <ele>201</ele>
        <time>2011-01-23T09:20:14Z</time>
      </trkpt>
      <trkpt lat="49.18639" lon="7.01326">
        <ele>201</ele>
        <time>2011-01-23T09:20:16Z</time>
      </trkpt>
      <trkpt lat="49.1864" lon="7.01329">
        <ele>201</ele>
        <time>2011-01-23T09:20:18Z</time>
      </trkpt>
      <trkpt lat="49.18641" lon="7.01331">
        <ele>201</ele>
        <time>2011-01-23T09:20:20Z</time>
      </trkpt>
      <trkpt lat="49.18642" lon="7.01334">
        <ele>201</ele>
        <time>2011-01-23T09:20:22Z</time>
      </trkpt>
      <trkpt lat="49.18641" lon="7.01336">
        <ele>201</ele>
        <time>2011-01-23T09:20:23Z</time>
      </trkpt>
      <trkpt lat="49.18643" lon="7.01338">
        <ele>201</ele>
        <time>2011-01-23T09:20:25Z</time>
      </trkpt>
      <trkpt lat="49.18645" lon="7.01339">
        <ele>201</ele>
        <time>2011-01-23T09:20:27Z</time>
      </trkpt>
      <trkpt lat="49.18646" lon="7.0134">
        <ele>202</ele>
        <time>2011-01-23T09:20:28Z</time>
      </trkpt>
      <trkpt lat="49.18648" lon="7.01341">
        <ele>204</ele>
        <time>2011-01-23T09:20:30Z</time>
      </trkpt>
      <trkpt lat="49.18649" lon="7.01343">
        <ele>205</ele>
        <time>2011-01-23T09:20:32Z</time>
      </trkpt>
      <trkpt lat="49.1865" lon="7.01346">
        <ele>205</ele>
        <time>2011-01-23T09:20:34Z</time>
      </trkpt>
      <trkpt lat="49.1865" lon="7.01348">
        <ele>205</ele>
        <time>2011-01-23T09:20:35Z</time>
      </trkpt>
      <trkpt lat="49.18651" lon="7.01351">
        <ele>205</ele>
        <time>2011-01-23T09:20:37Z</time>
      </trkpt>
      <trkpt lat="49.18652" lon="7.01355">
        <ele>206</ele>
        <time>2011-01-23T09:20:39Z</time>
      </trkpt>
      <trkpt lat="49.18652" lon="7.01357">
        <ele>206</ele>
        <time>2011-01-23T09:20:41Z</time>
      </trkpt>
      <trkpt lat="49.18653" lon="7.01359">
        <ele>207</ele>
        <time>2011-01-23T09:20:43Z</time>
      </trkpt>
      <trkpt lat="49.18654" lon="7.01361">
        <ele>207</ele>
        <time>2011-01-23T09:20:44Z</time>
      </trkpt>
      <trkpt lat="49.18655" lon="7.01363">
        <ele>207</ele>
        <time>2011-01-23T09:20:45Z</time>
      </trkpt>
      <trkpt lat="49.18657" lon="7.01366">
        <ele>207</ele>
        <time>2011-01-23T09:20:47Z</time>
      </trkpt>
      <trkpt lat="49.18659" lon="7.01369">
        <ele>207</ele>
        <time>2011-01-23T09:20:49Z</time>
      </trkpt>
      <trkpt lat="49.1866" lon="7.01371">
        <ele>207</ele>
        <time>2011-01-23T09:20:51Z</time>
      </trkpt>
      <trkpt lat="49.1866" lon="7.01373">
        <ele>207</ele>
        <time>2011-01-23T09:20:52Z</time>
      </trkpt>
      <trkpt lat="49.18661" lon="7.01376">
        <ele>207</ele>
        <time>2011-01-23T09:20:54Z</time>
      </trkpt>
      <trkpt lat="49.18663" lon="7.01379">
        <ele>207</ele>
        <time>2011-01-23T09:20:56Z</time>
      </trkpt>
      <trkpt lat="49.18664" lon="7.01382">
        <ele>207</ele>
        <time>2011-01-23T09:20:58Z</time>
      </trkpt>
      <trkpt lat="49.18665" lon="7.01384">
        <ele>207</ele>
        <time>2011-01-23T09:21:00Z</time>
      </trkpt>
      <trkpt lat="49.18666" lon="7.01387">
        <ele>207</ele>
        <time>2011-01-23T09:21:02Z</time>
      </trkpt>
      <trkpt lat="49.18666" lon="7.01389">
        <ele>208</ele>
        <time>2011-01-23T09:21:03Z</time>
      </trkpt>
      <trkpt lat="49.18666" lon="7.01392">
        <ele>208</ele>
        <time>2011-01-23T09:21:04Z</time>
      </trkpt>
      <trkpt lat="49.18667" lon="7.01395">
        <ele>210</ele>
        <time>2011-01-23T09:21:06Z</time>
      </trkpt>
      <trkpt lat="49.18668" lon="7.01397">
        <ele>211</ele>
        <time>2011-01-23T09:21:08Z</time>
      </trkpt>
      <trkpt lat="49.18668" lon="7.01399">
        <ele>211</ele>
        <time>2011-01-23T09:21:10Z</time>
      </trkpt>
      <trkpt lat="49.18669" lon="7.01402">
        <ele>211</ele>
        <time>2011-01-23T09:21:11Z</time>
      </trkpt>
      <trkpt lat="49.18669" lon="7.01404">
        <ele>211</ele>
        <time>2011-01-23T09:21:12Z</time>
      </trkpt>
      <trkpt lat="49.18669" lon="7.01406">
        <ele>211</ele>
        <time>2011-01-23T09:21:13Z</time>
      </trkpt>
      <trkpt lat="49.18669" lon="7.01408">
        <ele>211</ele>
        <time>2011-01-23T09:21:14Z</time>
      </trkpt>
      <trkpt lat="49.1867" lon="7.0141">
        <ele>211</ele>
        <time>2011-01-23T09:21:15Z</time>
      </trkpt>
      <trkpt lat="49.1867" lon="7.01412">
        <ele>211</ele>
        <time>2011-01-23T09:21:16Z</time>
      </trkpt>
      <trkpt lat="49.18671" lon="7.01414">
        <ele>211</ele>
        <time>2011-01-23T09:21:17Z</time>
      </trkpt>
      <trkpt lat="49.18672" lon="7.01417">
        <ele>211</ele>
        <time>2011-01-23T09:21:19Z</time>
      </trkpt>
      <trkpt lat="49.18672" lon="7.01418">
        <ele>211</ele>
        <time>2011-01-23T09:21:20Z</time>
      </trkpt>
      <trkpt lat="49.18673" lon="7.01421">
        <ele>211</ele>
        <time>2011-01-23T09:21:22Z</time>
      </trkpt>
      <trkpt lat="49.18674" lon="7.01424">
        <ele>211</ele>
        <time>2011-01-23T09:21:24Z</time>
      </trkpt>
      <trkpt lat="49.18675" lon="7.01427">
        <ele>211</ele>
        <time>2011-01-23T09:21:26Z</time>
      </trkpt>
      <trkpt lat="49.18676" lon="7.01429">
        <ele>211</ele>
        <time>2011-01-23T09:21:28Z</time>
      </trkpt>
      <trkpt lat="49.18677" lon="7.01432">
        <ele>211</ele>
        <time>2011-01-23T09:21:30Z</time>
      </trkpt>
      <trkpt lat="49.18679" lon="7.01434">
        <ele>211</ele>
        <time>2011-01-23T09:21:32Z</time>
      </trkpt>
      <trkpt lat="49.1868" lon="7.01436">
        <ele>211</ele>
        <time>2011-01-23T09:21:34Z</time>
      </trkpt>
      <trkpt lat="49.1868" lon="7.01438">
        <ele>210</ele>
        <time>2011-01-23T09:21:36Z</time>
      </trkpt>
      <trkpt lat="49.18681" lon="7.01441">
        <ele>210</ele>
        <time>2011-01-23T09:21:38Z</time>
      </trkpt>
      <trkpt lat="49.18683" lon="7.01444">
        <ele>210</ele>
        <time>2011-01-23T09:21:40Z</time>
      </trkpt>
      <trkpt lat="49.18684" lon="7.01446">
        <ele>209</ele>
        <time>2011-01-23T09:21:42Z</time>
      </trkpt>
      <trkpt lat="49.18685" lon="7.01449">
        <ele>208</ele>
        <time>2011-01-23T09:21:45Z</time>
      </trkpt>
      <trkpt lat="49.18685" lon="7.01451">
        <ele>208</ele>
        <time>2011-01-23T09:21:46Z</time>
      </trkpt>
      <trkpt lat="49.18686" lon="7.01453">
        <ele>208</ele>
        <time>2011-01-23T09:21:47Z</time>
      </trkpt>
      <trkpt lat="49.18687" lon="7.01456">
        <ele>207</ele>
        <time>2011-01-23T09:21:49Z</time>
      </trkpt>
      <trkpt lat="49.18688" lon="7.01458">
        <ele>207</ele>
        <time>2011-01-23T09:21:51Z</time>
      </trkpt>
      <trkpt lat="49.18689" lon="7.01461">
        <ele>207</ele>
        <time>2011-01-23T09:21:53Z</time>
      </trkpt>
      <trkpt lat="49.1869" lon="7.01464">
        <ele>206</ele>
        <time>2011-01-23T09:21:55Z</time>
      </trkpt>
      <trkpt lat="49.18692" lon="7.01466">
        <ele>205</ele>
        <time>2011-01-23T09:21:57Z</time>
      </trkpt>
      <trkpt lat="49.18693" lon="7.01469">
        <ele>204</ele>
        <time>2011-01-23T09:21:59Z</time>
      </trkpt>
      <trkpt lat="49.18694" lon="7.01472">
        <ele>204</ele>
        <time>2011-01-23T09:22:01Z</time>
      </trkpt>
      <trkpt lat="49.18695" lon="7.01474">
        <ele>203</ele>
        <time>2011-01-23T09:22:03Z</time>
      </trkpt>
      <trkpt lat="49.18697" lon="7.01476">
        <ele>203</ele>
        <time>2011-01-23T09:22:05Z</time>
      </trkpt>
      <trkpt lat="49.18697" lon="7.01478">
        <ele>203</ele>
        <time>2011-01-23T09:22:06Z</time>
      </trkpt>
      <trkpt lat="49.18698" lon="7.0148">
        <ele>202</ele>
        <time>2011-01-23T09:22:07Z</time>
      </trkpt>
      <trkpt lat="49.18698" lon="7.01482">
        <ele>202</ele>
        <time>2011-01-23T09:22:08Z</time>
      </trkpt>
      <trkpt lat="49.18699" lon="7.01484">
        <ele>202</ele>
        <time>2011-01-23T09:22:09Z</time>
      </trkpt>
      <trkpt lat="49.18699" lon="7.01486">
        <ele>201</ele>
        <time>2011-01-23T09:22:10Z</time>
      </trkpt>
      <trkpt lat="49.187" lon="7.01489">
        <ele>201</ele>
        <time>2011-01-23T09:22:12Z</time>
      </trkpt>
      <trkpt lat="49.18701" lon="7.01491">
        <ele>201</ele>
        <time>2011-01-23T09:22:13Z</time>
      </trkpt>
      <trkpt lat="49.18701" lon="7.01494">
        <ele>201</ele>
        <time>2011-01-23T09:22:14Z</time>
      </trkpt>
      <trkpt lat="49.18702" lon="7.01496">
        <ele>201</ele>
        <time>2011-01-23T09:22:15Z</time>
      </trkpt>
      <trkpt lat="49.18702" lon="7.01497">
        <ele>201</ele>
        <time>2011-01-23T09:22:16Z</time>
      </trkpt>
      <trkpt lat="49.18703" lon="7.01499">
        <ele>201</ele>
        <time>2011-01-23T09:22:17Z</time>
      </trkpt>
      <trkpt lat="49.18705" lon="7.01503">
        <ele>201</ele>
        <time>2011-01-23T09:22:19Z</time>
      </trkpt>
      <trkpt lat="49.18705" lon="7.01504">
        <ele>201</ele>
        <time>2011-01-23T09:22:20Z</time>
      </trkpt>
      <trkpt lat="49.18706" lon="7.01506">
        <ele>201</ele>
        <time>2011-01-23T09:22:21Z</time>
      </trkpt>
      <trkpt lat="49.18707" lon="7.01509">
        <ele>201</ele>
        <time>2011-01-23T09:22:23Z</time>
      </trkpt>
      <trkpt lat="49.18708" lon="7.01514">
        <ele>201</ele>
        <time>2011-01-23T09:22:25Z</time>
      </trkpt>
      <trkpt lat="49.18709" lon="7.01518">
        <ele>201</ele>
        <time>2011-01-23T09:22:26Z</time>
      </trkpt>
      <trkpt lat="49.1871" lon="7.0152">
        <ele>201</ele>
        <time>2011-01-23T09:22:28Z</time>
      </trkpt>
      <trkpt lat="49.18712" lon="7.01523">
        <ele>201</ele>
        <time>2011-01-23T09:22:30Z</time>
      </trkpt>
      <trkpt lat="49.18714" lon="7.01526">
        <ele>201</ele>
        <time>2011-01-23T09:22:32Z</time>
      </trkpt>
      <trkpt lat="49.18714" lon="7.01528">
        <ele>201</ele>
        <time>2011-01-23T09:22:33Z</time>
      </trkpt>
      <trkpt lat="49.18715" lon="7.0153">
        <ele>201</ele>
        <time>2011-01-23T09:22:34Z</time>
      </trkpt>
      <trkpt lat="49.18716" lon="7.01532">
        <ele>201</ele>
        <time>2011-01-23T09:22:35Z</time>
      </trkpt>
      <trkpt lat="49.18717" lon="7.01534">
        <ele>201</ele>
        <time>2011-01-23T09:22:36Z</time>
      </trkpt>
      <trkpt lat="49.18718" lon="7.01536">
        <ele>201</ele>
        <time>2011-01-23T09:22:37Z</time>
      </trkpt>
      <trkpt lat="49.18719" lon="7.01539">
        <ele>201</ele>
        <time>2011-01-23T09:22:39Z</time>
      </trkpt>
      <trkpt lat="49.1872" lon="7.0154">
        <ele>201</ele>
        <time>2011-01-23T09:22:40Z</time>
      </trkpt>
      <trkpt lat="49.18722" lon="7.01543">
        <ele>201</ele>
        <time>2011-01-23T09:22:42Z</time>
      </trkpt>
      <trkpt lat="49.18724" lon="7.01546">
        <ele>201</ele>
        <time>2011-01-23T09:22:44Z</time>
      </trkpt>
      <trkpt lat="49.18726" lon="7.01549">
        <ele>201</ele>
        <time>2011-01-23T09:22:46Z</time>
      </trkpt>
      <trkpt lat="49.18727" lon="7.01551">
        <ele>201</ele>
        <time>2011-01-23T09:22:48Z</time>
      </trkpt>
      <trkpt lat="49.18729" lon="7.01554">
        <ele>201</ele>
        <time>2011-01-23T09:22:50Z</time>
      </trkpt>
      <trkpt lat="49.18731" lon="7.01557">
        <ele>201</ele>
        <time>2011-01-23T09:22:52Z</time>
      </trkpt>
      <trkpt lat="49.18732" lon="7.01559">
        <ele>201</ele>
        <time>2011-01-23T09:22:54Z</time>
      </trkpt>
      <trkpt lat="49.18734" lon="7.01561">
        <ele>201</ele>
        <time>2011-01-23T09:22:56Z</time>
      </trkpt>
      <trkpt lat="49.18736" lon="7.01563">
        <ele>201</ele>
        <time>2011-01-23T09:22:58Z</time>
      </trkpt>
      <trkpt lat="49.18738" lon="7.01565">
        <ele>201</ele>
        <time>2011-01-23T09:23:00Z</time>
      </trkpt>
      <trkpt lat="49.18739" lon="7.01566">
        <ele>201</ele>
        <time>2011-01-23T09:23:01Z</time>
      </trkpt>
      <trkpt lat="49.18741" lon="7.01567">
        <ele>201</ele>
        <time>2011-01-23T09:23:03Z</time>
      </trkpt>
      <trkpt lat="49.18742" lon="7.01568">
        <ele>201</ele>
        <time>2011-01-23T09:23:04Z</time>
      </trkpt>
      <trkpt lat="49.18743" lon="7.0157">
        <ele>201</ele>
        <time>2011-01-23T09:23:05Z</time>
      </trkpt>
      <trkpt lat="49.18745" lon="7.01571">
        <ele>201</ele>
        <time>2011-01-23T09:23:06Z</time>
      </trkpt>
      <trkpt lat="49.18747" lon="7.01574">
        <ele>201</ele>
        <time>2011-01-23T09:23:08Z</time>
      </trkpt>
      <trkpt lat="49.18749" lon="7.01576">
        <ele>201</ele>
        <time>2011-01-23T09:23:10Z</time>
      </trkpt>
      <trkpt lat="49.18751" lon="7.01577">
        <ele>201</ele>
        <time>2011-01-23T09:23:12Z</time>
      </trkpt>
      <trkpt lat="49.18752" lon="7.01578">
        <ele>201</ele>
        <time>2011-01-23T09:23:13Z</time>
      </trkpt>
      <trkpt lat="49.18753" lon="7.0158">
        <ele>201</ele>
        <time>2011-01-23T09:23:16Z</time>
      </trkpt>
      <trkpt lat="49.18753" lon="7.01582">
        <ele>201</ele>
        <time>2011-01-23T09:23:19Z</time>
      </trkpt>
      <trkpt lat="49.18755" lon="7.01583">
        <ele>205</ele>
        <time>2011-01-23T09:23:28Z</time>
      </trkpt>
      <trkpt lat="49.18756" lon="7.01583">
        <ele>205</ele>
        <time>2011-01-23T09:23:30Z</time>
      </trkpt>
      <trkpt lat="49.18757" lon="7.01584">
        <ele>205</ele>
        <time>2011-01-23T09:23:32Z</time>
      </trkpt>
      <trkpt lat="49.18758" lon="7.01584">
        <ele>205</ele>
        <time>2011-01-23T09:23:34Z</time>
      </trkpt>
      <trkpt lat="49.1876" lon="7.01587">
        <ele>205</ele>
        <time>2011-01-23T09:23:36Z</time>
      </trkpt>
      <trkpt lat="49.18761" lon="7.01588">
        <ele>205</ele>
        <time>2011-01-23T09:23:38Z</time>
      </trkpt>
      <trkpt lat="49.18763" lon="7.0159">
        <ele>205</ele>
        <time>2011-01-23T09:23:40Z</time>
      </trkpt>
      <trkpt lat="49.18765" lon="7.01592">
        <ele>205</ele>
        <time>2011-01-23T09:23:42Z</time>
      </trkpt>
      <trkpt lat="49.18767" lon="7.01593">
        <ele>205</ele>
        <time>2011-01-23T09:23:44Z</time>
      </trkpt>
      <trkpt lat="49.18768" lon="7.01595">
        <ele>205</ele>
        <time>2011-01-23T09:23:46Z</time>
      </trkpt>
      <trkpt lat="49.18771" lon="7.01597">
        <ele>205</ele>
        <time>2011-01-23T09:23:48Z</time>
      </trkpt>
      <trkpt lat="49.18772" lon="7.01597">
        <ele>205</ele>
        <time>2011-01-23T09:23:49Z</time>
      </trkpt>
      <trkpt lat="49.18773" lon="7.01597">
        <ele>205</ele>
        <time>2011-01-23T09:23:50Z</time>
      </trkpt>
      <trkpt lat="49.18775" lon="7.01599">
        <ele>205</ele>
        <time>2011-01-23T09:23:52Z</time>
      </trkpt>
      <trkpt lat="49.18777" lon="7.01601">
        <ele>205</ele>
        <time>2011-01-23T09:23:54Z</time>
      </trkpt>
      <trkpt lat="49.18778" lon="7.01602">
        <ele>205</ele>
        <time>2011-01-23T09:23:55Z</time>
      </trkpt>
      <trkpt lat="49.18779" lon="7.01603">
        <ele>205</ele>
        <time>2011-01-23T09:23:56Z</time>
      </trkpt>
      <trkpt lat="49.18781" lon="7.01604">
        <ele>205</ele>
        <time>2011-01-23T09:23:57Z</time>
      </trkpt>
      <trkpt lat="49.18783" lon="7.01605">
        <ele>205</ele>
        <time>2011-01-23T09:23:59Z</time>
      </trkpt>
      <trkpt lat="49.18785" lon="7.01607">
        <ele>205</ele>
        <time>2011-01-23T09:24:01Z</time>
      </trkpt>
      <trkpt lat="49.18787" lon="7.01608">
        <ele>205</ele>
        <time>2011-01-23T09:24:03Z</time>
      </trkpt>
      <trkpt lat="49.18789" lon="7.01609">
        <ele>205</ele>
        <time>2011-01-23T09:24:04Z</time>
      </trkpt>
      <trkpt lat="49.1879" lon="7.01609">
        <ele>205</ele>
        <time>2011-01-23T09:24:05Z</time>
      </trkpt>
      <trkpt lat="49.18792" lon="7.01611">
        <ele>205</ele>
        <time>2011-01-23T09:24:07Z</time>
      </trkpt>
      <trkpt lat="49.18793" lon="7.01612">
        <ele>205</ele>
        <time>2011-01-23T09:24:09Z</time>
      </trkpt>
      <trkpt lat="49.18795" lon="7.01614">
        <ele>205</ele>
        <time>2011-01-23T09:24:11Z</time>
      </trkpt>
      <trkpt lat="49.18797" lon="7.01615">
        <ele>204</ele>
        <time>2011-01-23T09:24:13Z</time>
      </trkpt>
      <trkpt lat="49.18798" lon="7.01617">
        <ele>203</ele>
        <time>2011-01-23T09:24:15Z</time>
      </trkpt>
      <trkpt lat="49.188" lon="7.01618">
        <ele>203</ele>
        <time>2011-01-23T09:24:17Z</time>
      </trkpt>
      <trkpt lat="49.18801" lon="7.0162">
        <ele>202</ele>
        <time>2011-01-23T09:24:18Z</time>
      </trkpt>
      <trkpt lat="49.18803" lon="7.01621">
        <ele>202</ele>
        <time>2011-01-23T09:24:20Z</time>
      </trkpt>
      <trkpt lat="49.18805" lon="7.01624">
        <ele>202</ele>
        <time>2011-01-23T09:24:22Z</time>
      </trkpt>
      <trkpt lat="49.18807" lon="7.01627">
        <ele>202</ele>
        <time>2011-01-23T09:24:24Z</time>
      </trkpt>
      <trkpt lat="49.18808" lon="7.01628">
        <ele>202</ele>
        <time>2011-01-23T09:24:25Z</time>
      </trkpt>
      <trkpt lat="49.18809" lon="7.01629">
        <ele>202</ele>
        <time>2011-01-23T09:24:26Z</time>
      </trkpt>
      <trkpt lat="49.18811" lon="7.01629">
        <ele>202</ele>
        <time>2011-01-23T09:24:27Z</time>
      </trkpt>
      <trkpt lat="49.18812" lon="7.0163">
        <ele>202</ele>
        <time>2011-01-23T09:24:28Z</time>
      </trkpt>
      <trkpt lat="49.18813" lon="7.01631">
        <ele>202</ele>
        <time>2011-01-23T09:24:29Z</time>
      </trkpt>
      <trkpt lat="49.18814" lon="7.01632">
        <ele>202</ele>
        <time>2011-01-23T09:24:30Z</time>
      </trkpt>
      <trkpt lat="49.18816" lon="7.01633">
        <ele>202</ele>
        <time>2011-01-23T09:24:31Z</time>
      </trkpt>
      <trkpt lat="49.18817" lon="7.01634">
        <ele>202</ele>
        <time>2011-01-23T09:24:32Z</time>
      </trkpt>
      <trkpt lat="49.18819" lon="7.01637">
        <ele>201</ele>
        <time>2011-01-23T09:24:34Z</time>
      </trkpt>
      <trkpt lat="49.1882" lon="7.01638">
        <ele>201</ele>
        <time>2011-01-23T09:24:35Z</time>
      </trkpt>
      <trkpt lat="49.18823" lon="7.0164">
        <ele>201</ele>
        <time>2011-01-23T09:24:37Z</time>
      </trkpt>
      <trkpt lat="49.18824" lon="7.01641">
        <ele>201</ele>
        <time>2011-01-23T09:24:38Z</time>
      </trkpt>
      <trkpt lat="49.18826" lon="7.01644">
        <ele>201</ele>
        <time>2011-01-23T09:24:40Z</time>
      </trkpt>
      <trkpt lat="49.18828" lon="7.01645">
        <ele>201</ele>
        <time>2011-01-23T09:24:42Z</time>
      </trkpt>
      <trkpt lat="49.1883" lon="7.01648">
        <ele>200</ele>
        <time>2011-01-23T09:24:44Z</time>
      </trkpt>
      <trkpt lat="49.18831" lon="7.01649">
        <ele>200</ele>
        <time>2011-01-23T09:24:45Z</time>
      </trkpt>
      <trkpt lat="49.18834" lon="7.01651">
        <ele>200</ele>
        <time>2011-01-23T09:24:47Z</time>
      </trkpt>
      <trkpt lat="49.18835" lon="7.01651">
        <ele>199</ele>
        <time>2011-01-23T09:24:48Z</time>
      </trkpt>
      <trkpt lat="49.18836" lon="7.01652">
        <ele>199</ele>
        <time>2011-01-23T09:24:49Z</time>
      </trkpt>
      <trkpt lat="49.18838" lon="7.01654">
        <ele>199</ele>
        <time>2011-01-23T09:24:51Z</time>
      </trkpt>
      <trkpt lat="49.1884" lon="7.01656">
        <ele>198</ele>
        <time>2011-01-23T09:24:53Z</time>
      </trkpt>
      <trkpt lat="49.18842" lon="7.01658">
        <ele>198</ele>
        <time>2011-01-23T09:24:55Z</time>
      </trkpt>
      <trkpt lat="49.18845" lon="7.0166">
        <ele>197</ele>
        <time>2011-01-23T09:24:57Z</time>
      </trkpt>
      <trkpt lat="49.18846" lon="7.01661">
        <ele>197</ele>
        <time>2011-01-23T09:24:58Z</time>
      </trkpt>
      <trkpt lat="49.18847" lon="7.01662">
        <ele>197</ele>
        <time>2011-01-23T09:24:59Z</time>
      </trkpt>
      <trkpt lat="49.18848" lon="7.01663">
        <ele>197</ele>
        <time>2011-01-23T09:25:00Z</time>
      </trkpt>
      <trkpt lat="49.1885" lon="7.01665">
        <ele>196</ele>
        <time>2011-01-23T09:25:02Z</time>
      </trkpt>
      <trkpt lat="49.18852" lon="7.01667">
        <ele>196</ele>
        <time>2011-01-23T09:25:04Z</time>
      </trkpt>
      <trkpt lat="49.18853" lon="7.01669">
        <ele>196</ele>
        <time>2011-01-23T09:25:05Z</time>
      </trkpt>
      <trkpt lat="49.18854" lon="7.0167">
        <ele>196</ele>
        <time>2011-01-23T09:25:06Z</time>
      </trkpt>
      <trkpt lat="49.18856" lon="7.01673">
        <ele>196</ele>
        <time>2011-01-23T09:25:08Z</time>
      </trkpt>
      <trkpt lat="49.18859" lon="7.01676">
        <ele>196</ele>
        <time>2011-01-23T09:25:10Z</time>
      </trkpt>
      <trkpt lat="49.18861" lon="7.01678">
        <ele>196</ele>
        <time>2011-01-23T09:25:12Z</time>
      </trkpt>
      <trkpt lat="49.18862" lon="7.01681">
        <ele>196</ele>
        <time>2011-01-23T09:25:14Z</time>
      </trkpt>
      <trkpt lat="49.18864" lon="7.01684">
        <ele>196</ele>
        <time>2011-01-23T09:25:16Z</time>
      </trkpt>
      <trkpt lat="49.18866" lon="7.01686">
        <ele>196</ele>
        <time>2011-01-23T09:25:18Z</time>
      </trkpt>
      <trkpt lat="49.18868" lon="7.01689">
        <ele>196</ele>
        <time>2011-01-23T09:25:20Z</time>
      </trkpt>
      <trkpt lat="49.1887" lon="7.01691">
        <ele>196</ele>
        <time>2011-01-23T09:25:22Z</time>
      </trkpt>
      <trkpt lat="49.18872" lon="7.01694">
        <ele>196</ele>
        <time>2011-01-23T09:25:24Z</time>
      </trkpt>
      <trkpt lat="49.18873" lon="7.01696">
        <ele>196</ele>
        <time>2011-01-23T09:25:26Z</time>
      </trkpt>
      <trkpt lat="49.18876" lon="7.01699">
        <ele>196</ele>
        <time>2011-01-23T09:25:28Z</time>
      </trkpt>
      <trkpt lat="49.18877" lon="7.01701">
        <ele>196</ele>
        <time>2011-01-23T09:25:29Z</time>
      </trkpt>
      <trkpt lat="49.18877" lon="7.01703">
        <ele>196</ele>
        <time>2011-01-23T09:25:30Z</time>
      </trkpt>
      <trkpt lat="49.18878" lon="7.01705">
        <ele>196</ele>
        <time>2011-01-23T09:25:31Z</time>
      </trkpt>
      <trkpt lat="49.1888" lon="7.01708">
        <ele>196</ele>
        <time>2011-01-23T09:25:33Z</time>
      </trkpt>
      <trkpt lat="49.18882" lon="7.01711">
        <ele>196</ele>
        <time>2011-01-23T09:25:35Z</time>
      </trkpt>
      <trkpt lat="49.18884" lon="7.01714">
        <ele>196</ele>
        <time>2011-01-23T09:25:37Z</time>
      </trkpt>
      <trkpt lat="49.18885" lon="7.01715">
        <ele>196</ele>
        <time>2011-01-23T09:25:39Z</time>
      </trkpt>
      <trkpt lat="49.18887" lon="7.01716">
        <ele>196</ele>
        <time>2011-01-23T09:25:40Z</time>
      </trkpt>
      <trkpt lat="49.18888" lon="7.01717">
        <ele>196</ele>
        <time>2011-01-23T09:25:41Z</time>
      </trkpt>
      <trkpt lat="49.1889" lon="7.01718">
        <ele>196</ele>
        <time>2011-01-23T09:25:43Z</time>
      </trkpt>
      <trkpt lat="49.18891" lon="7.01717">
        <ele>196</ele>
        <time>2011-01-23T09:25:44Z</time>
      </trkpt>
      <trkpt lat="49.18893" lon="7.01717">
        <ele>196</ele>
        <time>2011-01-23T09:25:46Z</time>
      </trkpt>
      <trkpt lat="49.18894" lon="7.01716">
        <ele>196</ele>
        <time>2011-01-23T09:25:48Z</time>
      </trkpt>
      <trkpt lat="49.18896" lon="7.01715">
        <ele>197</ele>
        <time>2011-01-23T09:25:50Z</time>
      </trkpt>
      <trkpt lat="49.18898" lon="7.01713">
        <ele>197</ele>
        <time>2011-01-23T09:25:52Z</time>
      </trkpt>
      <trkpt lat="49.18899" lon="7.01711">
        <ele>197</ele>
        <time>2011-01-23T09:25:54Z</time>
      </trkpt>
      <trkpt lat="49.189" lon="7.01709">
        <ele>197</ele>
        <time>2011-01-23T09:25:55Z</time>
      </trkpt>
      <trkpt lat="49.18901" lon="7.01708">
        <ele>198</ele>
        <time>2011-01-23T09:25:56Z</time>
      </trkpt>
      <trkpt lat="49.18903" lon="7.01706">
        <ele>198</ele>
        <time>2011-01-23T09:25:58Z</time>
      </trkpt>
      <trkpt lat="49.18904" lon="7.01704">
        <ele>199</ele>
        <time>2011-01-23T09:26:00Z</time>
      </trkpt>
      <trkpt lat="49.18906" lon="7.01702">
        <ele>199</ele>
        <time>2011-01-23T09:26:02Z</time>
      </trkpt>
      <trkpt lat="49.18908" lon="7.01701">
        <ele>199</ele>
        <time>2011-01-23T09:26:04Z</time>
      </trkpt>
      <trkpt lat="49.1891" lon="7.01698">
        <ele>200</ele>
        <time>2011-01-23T09:26:06Z</time>
      </trkpt>
      <trkpt lat="49.18911" lon="7.01696">
        <ele>200</ele>
        <time>2011-01-23T09:26:08Z</time>
      </trkpt>
      <trkpt lat="49.18913" lon="7.01693">
        <ele>200</ele>
        <time>2011-01-23T09:26:10Z</time>
      </trkpt>
      <trkpt lat="49.18914" lon="7.01692">
        <ele>201</ele>
        <time>2011-01-23T09:26:11Z</time>
      </trkpt>
      <trkpt lat="49.18916" lon="7.0169">
        <ele>201</ele>
        <time>2011-01-23T09:26:13Z</time>
      </trkpt>
      <trkpt lat="49.18918" lon="7.01687">
        <ele>201</ele>
        <time>2011-01-23T09:26:15Z</time>
      </trkpt>
      <trkpt lat="49.18921" lon="7.01685">
        <ele>201</ele>
        <time>2011-01-23T09:26:17Z</time>
      </trkpt>
      <trkpt lat="49.18922" lon="7.01684">
        <ele>201</ele>
        <time>2011-01-23T09:26:18Z</time>
      </trkpt>
      <trkpt lat="49.18923" lon="7.01683">
        <ele>201</ele>
        <time>2011-01-23T09:26:19Z</time>
      </trkpt>
      <trkpt lat="49.18924" lon="7.01682">
        <ele>201</ele>
        <time>2011-01-23T09:26:20Z</time>
      </trkpt>
      <trkpt lat="49.18926" lon="7.0168">
        <ele>201</ele>
        <time>2011-01-23T09:26:22Z</time>
      </trkpt>
      <trkpt lat="49.18928" lon="7.01678">
        <ele>201</ele>
        <time>2011-01-23T09:26:24Z</time>
      </trkpt>
      <trkpt lat="49.18929" lon="7.01676">
        <ele>201</ele>
        <time>2011-01-23T09:26:26Z</time>
      </trkpt>
      <trkpt lat="49.18931" lon="7.01674">
        <ele>201</ele>
        <time>2011-01-23T09:26:28Z</time>
      </trkpt>
      <trkpt lat="49.18932" lon="7.01672">
        <ele>201</ele>
        <time>2011-01-23T09:26:30Z</time>
      </trkpt>
      <trkpt lat="49.18935" lon="7.01669">
        <ele>201</ele>
        <time>2011-01-23T09:26:32Z</time>
      </trkpt>
      <trkpt lat="49.18936" lon="7.01668">
        <ele>201</ele>
        <time>2011-01-23T09:26:33Z</time>
      </trkpt>
      <trkpt lat="49.18939" lon="7.01666">
        <ele>201</ele>
        <time>2011-01-23T09:26:35Z</time>
      </trkpt>
      <trkpt lat="49.1894" lon="7.01665">
        <ele>201</ele>
        <time>2011-01-23T09:26:36Z</time>
      </trkpt>
      <trkpt lat="49.18941" lon="7.01662">
        <ele>201</ele>
        <time>2011-01-23T09:26:38Z</time>
      </trkpt>
      <trkpt lat="49.18943" lon="7.0166">
        <ele>201</ele>
        <time>2011-01-23T09:26:40Z</time>
      </trkpt>
      <trkpt lat="49.18945" lon="7.01657">
        <ele>201</ele>
        <time>2011-01-23T09:26:42Z</time>
      </trkpt>
      <trkpt lat="49.18946" lon="7.01655">
        <ele>201</ele>
        <time>2011-01-23T09:26:44Z</time>
      </trkpt>
      <trkpt lat="49.18948" lon="7.01653">
        <ele>201</ele>
        <time>2011-01-23T09:26:46Z</time>
      </trkpt>
      <trkpt lat="49.1895" lon="7.01651">
        <ele>201</ele>
        <time>2011-01-23T09:26:48Z</time>
      </trkpt>
      <trkpt lat="49.18951" lon="7.0165">
        <ele>201</ele>
        <time>2011-01-23T09:26:49Z</time>
      </trkpt>
      <trkpt lat="49.18953" lon="7.01649">
        <ele>201</ele>
        <time>2011-01-23T09:26:50Z</time>
      </trkpt>
      <trkpt lat="49.18954" lon="7.01648">
        <ele>201</ele>
        <time>2011-01-23T09:26:51Z</time>
      </trkpt>
      <trkpt lat="49.18955" lon="7.01647">
        <ele>201</ele>
        <time>2011-01-23T09:26:52Z</time>
      </trkpt>
      <trkpt lat="49.18957" lon="7.01645">
        <ele>201</ele>
        <time>2011-01-23T09:26:54Z</time>
      </trkpt>
      <trkpt lat="49.18958" lon="7.01644">
        <ele>201</ele>
        <time>2011-01-23T09:26:55Z</time>
      </trkpt>
      <trkpt lat="49.1896" lon="7.01642">
        <ele>201</ele>
        <time>2011-01-23T09:26:57Z</time>
      </trkpt>
      <trkpt lat="49.18962" lon="7.0164">
        <ele>201</ele>
        <time>2011-01-23T09:26:59Z</time>
      </trkpt>
      <trkpt lat="49.18963" lon="7.01638">
        <ele>201</ele>
        <time>2011-01-23T09:27:01Z</time>
      </trkpt>
      <trkpt lat="49.18964" lon="7.01636">
        <ele>201</ele>
        <time>2011-01-23T09:27:03Z</time>
      </trkpt>
      <trkpt lat="49.18964" lon="7.01633">
        <ele>201</ele>
        <time>2011-01-23T09:27:05Z</time>
      </trkpt>
      <trkpt lat="49.18966" lon="7.0163">
        <ele>201</ele>
        <time>2011-01-23T09:27:07Z</time>
      </trkpt>
      <trkpt lat="49.18967" lon="7.01629">
        <ele>201</ele>
        <time>2011-01-23T09:27:09Z</time>
      </trkpt>
      <trkpt lat="49.18969" lon="7.01627">
        <ele>201</ele>
        <time>2011-01-23T09:27:11Z</time>
      </trkpt>
      <trkpt lat="49.1897" lon="7.01624">
        <ele>201</ele>
        <time>2011-01-23T09:27:13Z</time>
      </trkpt>
      <trkpt lat="49.18972" lon="7.01622">
        <ele>201</ele>
        <time>2011-01-23T09:27:15Z</time>
      </trkpt>
      <trkpt lat="49.18973" lon="7.01621">
        <ele>201</ele>
        <time>2011-01-23T09:27:16Z</time>
      </trkpt>
      <trkpt lat="49.18975" lon="7.0162">
        <ele>202</ele>
        <time>2011-01-23T09:27:17Z</time>
      </trkpt>
      <trkpt lat="49.18976" lon="7.01619">
        <ele>202</ele>
        <time>2011-01-23T09:27:18Z</time>
      </trkpt>
      <trkpt lat="49.18979" lon="7.01617">
        <ele>202</ele>
        <time>2011-01-23T09:27:20Z</time>
      </trkpt>
      <trkpt lat="49.1898" lon="7.01616">
        <ele>202</ele>
        <time>2011-01-23T09:27:21Z</time>
      </trkpt>
      <trkpt lat="49.18981" lon="7.01614">
        <ele>202</ele>
        <time>2011-01-23T09:27:23Z</time>
      </trkpt>
      <trkpt lat="49.18984" lon="7.01612">
        <ele>202</ele>
        <time>2011-01-23T09:27:25Z</time>
      </trkpt>
      <trkpt lat="49.18985" lon="7.01609">
        <ele>202</ele>
        <time>2011-01-23T09:27:27Z</time>
      </trkpt>
      <trkpt lat="49.18987" lon="7.01606">
        <ele>202</ele>
        <time>2011-01-23T09:27:29Z</time>
      </trkpt>
      <trkpt lat="49.18988" lon="7.01605">
        <ele>202</ele>
        <time>2011-01-23T09:27:30Z</time>
      </trkpt>
      <trkpt lat="49.1899" lon="7.01603">
        <ele>202</ele>
        <time>2011-01-23T09:27:32Z</time>
      </trkpt>
      <trkpt lat="49.18993" lon="7.01601">
        <ele>203</ele>
        <time>2011-01-23T09:27:34Z</time>
      </trkpt>
      <trkpt lat="49.18994" lon="7.016">
        <ele>203</ele>
        <time>2011-01-23T09:27:35Z</time>
      </trkpt>
      <trkpt lat="49.18995" lon="7.01599">
        <ele>203</ele>
        <time>2011-01-23T09:27:36Z</time>
      </trkpt>
      <trkpt lat="49.18997" lon="7.01598">
        <ele>203</ele>
        <time>2011-01-23T09:27:37Z</time>
      </trkpt>
      <trkpt lat="49.18998" lon="7.01595">
        <ele>203</ele>
        <time>2011-01-23T09:27:39Z</time>
      </trkpt>
      <trkpt lat="49.18999" lon="7.01594">
        <ele>203</ele>
        <time>2011-01-23T09:27:40Z</time>
      </trkpt>
      <trkpt lat="49.19" lon="7.01591">
        <ele>203</ele>
        <time>2011-01-23T09:27:42Z</time>
      </trkpt>
      <trkpt lat="49.19003" lon="7.01589">
        <ele>203</ele>
        <time>2011-01-23T09:27:44Z</time>
      </trkpt>
      <trkpt lat="49.19004" lon="7.01587">
        <ele>204</ele>
        <time>2011-01-23T09:27:46Z</time>
      </trkpt>
      <trkpt lat="49.19006" lon="7.01585">
        <ele>204</ele>
        <time>2011-01-23T09:27:48Z</time>
      </trkpt>
      <trkpt lat="49.19006" lon="7.01583">
        <ele>204</ele>
        <time>2011-01-23T09:27:49Z</time>
      </trkpt>
      <trkpt lat="49.19007" lon="7.0158">
        <ele>205</ele>
        <time>2011-01-23T09:27:51Z</time>
      </trkpt>
      <trkpt lat="49.19008" lon="7.01579">
        <ele>206</ele>
        <time>2011-01-23T09:27:53Z</time>
      </trkpt>
      <trkpt lat="49.1901" lon="7.01577">
        <ele>207</ele>
        <time>2011-01-23T09:27:56Z</time>
      </trkpt>
      <trkpt lat="49.19011" lon="7.01576">
        <ele>207</ele>
        <time>2011-01-23T09:27:58Z</time>
      </trkpt>
      <trkpt lat="49.19013" lon="7.01573">
        <ele>207</ele>
        <time>2011-01-23T09:28:00Z</time>
      </trkpt>
      <trkpt lat="49.19015" lon="7.01571">
        <ele>208</ele>
        <time>2011-01-23T09:28:02Z</time>
      </trkpt>
      <trkpt lat="49.19016" lon="7.0157">
        <ele>209</ele>
        <time>2011-01-23T09:28:03Z</time>
      </trkpt>
      <trkpt lat="49.19018" lon="7.01567">
        <ele>210</ele>
        <time>2011-01-23T09:28:05Z</time>
      </trkpt>
      <trkpt lat="49.19019" lon="7.01565">
        <ele>211</ele>
        <time>2011-01-23T09:28:07Z</time>
      </trkpt>
      <trkpt lat="49.19021" lon="7.01564">
        <ele>211</ele>
        <time>2011-01-23T09:28:08Z</time>
      </trkpt>
      <trkpt lat="49.19022" lon="7.01561">
        <ele>211</ele>
        <time>2011-01-23T09:28:10Z</time>
      </trkpt>
      <trkpt lat="49.19024" lon="7.01559">
        <ele>211</ele>
        <time>2011-01-23T09:28:12Z</time>
      </trkpt>
      <trkpt lat="49.19025" lon="7.01557">
        <ele>211</ele>
        <time>2011-01-23T09:28:14Z</time>
      </trkpt>
      <trkpt lat="49.19027" lon="7.01556">
        <ele>211</ele>
        <time>2011-01-23T09:28:15Z</time>
      </trkpt>
      <trkpt lat="49.19028" lon="7.01554">
        <ele>211</ele>
        <time>2011-01-23T09:28:16Z</time>
      </trkpt>
      <trkpt lat="49.19029" lon="7.01552">
        <ele>211</ele>
        <time>2011-01-23T09:28:18Z</time>
      </trkpt>
      <trkpt lat="49.1903" lon="7.0155">
        <ele>211</ele>
        <time>2011-01-23T09:28:20Z</time>
      </trkpt>
      <trkpt lat="49.19032" lon="7.01548">
        <ele>211</ele>
        <time>2011-01-23T09:28:22Z</time>
      </trkpt>
      <trkpt lat="49.19033" lon="7.01546">
        <ele>211</ele>
        <time>2011-01-23T09:28:24Z</time>
      </trkpt>
      <trkpt lat="49.19035" lon="7.01544">
        <ele>211</ele>
        <time>2011-01-23T09:28:25Z</time>
      </trkpt>
      <trkpt lat="49.19036" lon="7.01543">
        <ele>211</ele>
        <time>2011-01-23T09:28:26Z</time>
      </trkpt>
      <trkpt lat="49.19036" lon="7.01541">
        <ele>211</ele>
        <time>2011-01-23T09:28:27Z</time>
      </trkpt>
      <trkpt lat="49.19038" lon="7.01539">
        <ele>211</ele>
        <time>2011-01-23T09:28:29Z</time>
      </trkpt>
      <trkpt lat="49.19039" lon="7.01537">
        <ele>211</ele>
        <time>2011-01-23T09:28:31Z</time>
      </trkpt>
      <trkpt lat="49.19041" lon="7.01536">
        <ele>211</ele>
        <time>2011-01-23T09:28:33Z</time>
      </trkpt>
      <trkpt lat="49.19042" lon="7.01533">
        <ele>211</ele>
        <time>2011-01-23T09:28:35Z</time>
      </trkpt>
      <trkpt lat="49.19043" lon="7.01531">
        <ele>211</ele>
        <time>2011-01-23T09:28:37Z</time>
      </trkpt>
      <trkpt lat="49.19043" lon="7.01529">
        <ele>211</ele>
        <time>2011-01-23T09:28:39Z</time>
      </trkpt>
      <trkpt lat="49.19044" lon="7.01526">
        <ele>211</ele>
        <time>2011-01-23T09:28:41Z</time>
      </trkpt>
      <trkpt lat="49.19044" lon="7.01524">
        <ele>211</ele>
        <time>2011-01-23T09:28:43Z</time>
      </trkpt>
      <trkpt lat="49.19045" lon="7.01523">
        <ele>211</ele>
        <time>2011-01-23T09:28:46Z</time>
      </trkpt>
      <trkpt lat="49.19046" lon="7.01522">
        <ele>211</ele>
        <time>2011-01-23T09:28:50Z</time>
      </trkpt>
      <trkpt lat="49.19045" lon="7.01519">
        <ele>211</ele>
        <time>2011-01-23T09:28:53Z</time>
      </trkpt>
      <trkpt lat="49.19044" lon="7.01518">
        <ele>211</ele>
        <time>2011-01-23T09:28:55Z</time>
      </trkpt>
      <trkpt lat="49.19043" lon="7.01516">
        <ele>211</ele>
        <time>2011-01-23T09:28:57Z</time>
      </trkpt>
      <trkpt lat="49.19041" lon="7.01514">
        <ele>212</ele>
        <time>2011-01-23T09:28:59Z</time>
      </trkpt>
      <trkpt lat="49.1904" lon="7.01514">
        <ele>212</ele>
        <time>2011-01-23T09:29:00Z</time>
      </trkpt>
      <trkpt lat="49.19038" lon="7.01513">
        <ele>213</ele>
        <time>2011-01-23T09:29:01Z</time>
      </trkpt>
      <trkpt lat="49.19036" lon="7.01511">
        <ele>213</ele>
        <time>2011-01-23T09:29:03Z</time>
      </trkpt>
      <trkpt lat="49.19035" lon="7.0151">
        <ele>213</ele>
        <time>2011-01-23T09:29:04Z</time>
      </trkpt>
      <trkpt lat="49.19033" lon="7.01509">
        <ele>214</ele>
        <time>2011-01-23T09:29:06Z</time>
      </trkpt>
      <trkpt lat="49.19031" lon="7.01507">
        <ele>214</ele>
        <time>2011-01-23T09:29:08Z</time>
      </trkpt>
      <trkpt lat="49.19029" lon="7.01506">
        <ele>214</ele>
        <time>2011-01-23T09:29:10Z</time>
      </trkpt>
      <trkpt lat="49.19028" lon="7.01504">
        <ele>214</ele>
        <time>2011-01-23T09:29:11Z</time>
      </trkpt>
      <trkpt lat="49.19027" lon="7.01503">
        <ele>218</ele>
        <time>2011-01-23T09:29:23Z</time>
      </trkpt>
      <trkpt lat="49.19025" lon="7.01502">
        <ele>219</ele>
        <time>2011-01-23T09:29:26Z</time>
      </trkpt>
      <trkpt lat="49.19024" lon="7.01501">
        <ele>219</ele>
        <time>2011-01-23T09:29:28Z</time>
      </trkpt>
      <trkpt lat="49.19022" lon="7.01501">
        <ele>219</ele>
        <time>2011-01-23T09:29:30Z</time>
      </trkpt>
      <trkpt lat="49.1902" lon="7.015">
        <ele>220</ele>
        <time>2011-01-23T09:29:32Z</time>
      </trkpt>
      <trkpt lat="49.19019" lon="7.01498">
        <ele>220</ele>
        <time>2011-01-23T09:29:34Z</time>
      </trkpt>
      <trkpt lat="49.19017" lon="7.01496">
        <ele>220</ele>
        <time>2011-01-23T09:29:36Z</time>
      </trkpt>
      <trkpt lat="49.19015" lon="7.01494">
        <ele>220</ele>
        <time>2011-01-23T09:29:38Z</time>
      </trkpt>
      <trkpt lat="49.19014" lon="7.01493">
        <ele>220</ele>
        <time>2011-01-23T09:29:39Z</time>
      </trkpt>
      <trkpt lat="49.19012" lon="7.01492">
        <ele>220</ele>
        <time>2011-01-23T09:29:41Z</time>
      </trkpt>
      <trkpt lat="49.1901" lon="7.0149">
        <ele>220</ele>
        <time>2011-01-23T09:29:43Z</time>
      </trkpt>
      <trkpt lat="49.19009" lon="7.0149">
        <ele>220</ele>
        <time>2011-01-23T09:29:44Z</time>
      </trkpt>
      <trkpt lat="49.19007" lon="7.01488">
        <ele>220</ele>
        <time>2011-01-23T09:29:46Z</time>
      </trkpt>
      <trkpt lat="49.19006" lon="7.01487">
        <ele>220</ele>
        <time>2011-01-23T09:29:47Z</time>
      </trkpt>
      <trkpt lat="49.19004" lon="7.01486">
        <ele>220</ele>
        <time>2011-01-23T09:29:49Z</time>
      </trkpt>
      <trkpt lat="49.19003" lon="7.01486">
        <ele>220</ele>
        <time>2011-01-23T09:29:50Z</time>
      </trkpt>
      <trkpt lat="49.19001" lon="7.01484">
        <ele>220</ele>
        <time>2011-01-23T09:29:52Z</time>
      </trkpt>
      <trkpt lat="49.18999" lon="7.01483">
        <ele>220</ele>
        <time>2011-01-23T09:29:54Z</time>
      </trkpt>
      <trkpt lat="49.18997" lon="7.01481">
        <ele>221</ele>
        <time>2011-01-23T09:29:56Z</time>
      </trkpt>
      <trkpt lat="49.18995" lon="7.0148">
        <ele>221</ele>
        <time>2011-01-23T09:29:58Z</time>
      </trkpt>
      <trkpt lat="49.18992" lon="7.01479">
        <ele>221</ele>
        <time>2011-01-23T09:30:00Z</time>
      </trkpt>
      <trkpt lat="49.1899" lon="7.01477">
        <ele>221</ele>
        <time>2011-01-23T09:30:02Z</time>
      </trkpt>
      <trkpt lat="49.18988" lon="7.01476">
        <ele>222</ele>
        <time>2011-01-23T09:30:04Z</time>
      </trkpt>
      <trkpt lat="49.18987" lon="7.01474">
        <ele>222</ele>
        <time>2011-01-23T09:30:06Z</time>
      </trkpt>
      <trkpt lat="49.18985" lon="7.01473">
        <ele>222</ele>
        <time>2011-01-23T09:30:08Z</time>
      </trkpt>
      <trkpt lat="49.18983" lon="7.01472">
        <ele>222</ele>
        <time>2011-01-23T09:30:10Z</time>
      </trkpt>
      <trkpt lat="49.18982" lon="7.0147">
        <ele>222</ele>
        <time>2011-01-23T09:30:12Z</time>
      </trkpt>
      <trkpt lat="49.1898" lon="7.01469">
        <ele>222</ele>
        <time>2011-01-23T09:30:14Z</time>
      </trkpt>
      <trkpt lat="49.18979" lon="7.01468">
        <ele>222</ele>
        <time>2011-01-23T09:30:16Z</time>
      </trkpt>
      <trkpt lat="49.18977" lon="7.01466">
        <ele>222</ele>
        <time>2011-01-23T09:30:18Z</time>
      </trkpt>
      <trkpt lat="49.18975" lon="7.01466">
        <ele>222</ele>
        <time>2011-01-23T09:30:20Z</time>
      </trkpt>
      <trkpt lat="49.18974" lon="7.01465">
        <ele>222</ele>
        <time>2011-01-23T09:30:22Z</time>
      </trkpt>
      <trkpt lat="49.18972" lon="7.01463">
        <ele>223</ele>
        <time>2011-01-23T09:30:24Z</time>
      </trkpt>
      <trkpt lat="49.1897" lon="7.01462">
        <ele>223</ele>
        <time>2011-01-23T09:30:26Z</time>
      </trkpt>
      <trkpt lat="49.18969" lon="7.01461">
        <ele>223</ele>
        <time>2011-01-23T09:30:28Z</time>
      </trkpt>
      <trkpt lat="49.18967" lon="7.01459">
        <ele>223</ele>
        <time>2011-01-23T09:30:30Z</time>
      </trkpt>
      <trkpt lat="49.18965" lon="7.01458">
        <ele>224</ele>
        <time>2011-01-23T09:30:32Z</time>
      </trkpt>
      <trkpt lat="49.18964" lon="7.01457">
        <ele>224</ele>
        <time>2011-01-23T09:30:34Z</time>
      </trkpt>
      <trkpt lat="49.18962" lon="7.01455">
        <ele>224</ele>
        <time>2011-01-23T09:30:36Z</time>
      </trkpt>
      <trkpt lat="49.18961" lon="7.01454">
        <ele>224</ele>
        <time>2011-01-23T09:30:38Z</time>
      </trkpt>
      <trkpt lat="49.18959" lon="7.01452">
        <ele>225</ele>
        <time>2011-01-23T09:30:40Z</time>
      </trkpt>
      <trkpt lat="49.18957" lon="7.01451">
        <ele>225</ele>
        <time>2011-01-23T09:30:42Z</time>
      </trkpt>
      <trkpt lat="49.18955" lon="7.01449">
        <ele>226</ele>
        <time>2011-01-23T09:30:44Z</time>
      </trkpt>
      <trkpt lat="49.18953" lon="7.01448">
        <ele>226</ele>
        <time>2011-01-23T09:30:46Z</time>
      </trkpt>
      <trkpt lat="49.18951" lon="7.01446">
        <ele>226</ele>
        <time>2011-01-23T09:30:48Z</time>
      </trkpt>
      <trkpt lat="49.1895" lon="7.01445">
        <ele>227</ele>
        <time>2011-01-23T09:30:50Z</time>
      </trkpt>
      <trkpt lat="49.18948" lon="7.01443">
        <ele>227</ele>
        <time>2011-01-23T09:30:52Z</time>
      </trkpt>
      <trkpt lat="49.18947" lon="7.01442">
        <ele>227</ele>
        <time>2011-01-23T09:30:54Z</time>
      </trkpt>
      <trkpt lat="49.18945" lon="7.0144">
        <ele>227</ele>
        <time>2011-01-23T09:30:56Z</time>
      </trkpt>
      <trkpt lat="49.18943" lon="7.01438">
        <ele>227</ele>
        <time>2011-01-23T09:30:58Z</time>
      </trkpt>
      <trkpt lat="49.18942" lon="7.01436">
        <ele>227</ele>
        <time>2011-01-23T09:31:00Z</time>
      </trkpt>
      <trkpt lat="49.1894" lon="7.01435">
        <ele>227</ele>
        <time>2011-01-23T09:31:02Z</time>
      </trkpt>
      <trkpt lat="49.18938" lon="7.01433">
        <ele>227</ele>
        <time>2011-01-23T09:31:04Z</time>
      </trkpt>
      <trkpt lat="49.18937" lon="7.01431">
        <ele>228</ele>
        <time>2011-01-23T09:31:06Z</time>
      </trkpt>
      <trkpt lat="49.18935" lon="7.01429">
        <ele>229</ele>
        <time>2011-01-23T09:31:08Z</time>
      </trkpt>
      <trkpt lat="49.18934" lon="7.01428">
        <ele>229</ele>
        <time>2011-01-23T09:31:10Z</time>
      </trkpt>
      <trkpt lat="49.18932" lon="7.01426">
        <ele>230</ele>
        <time>2011-01-23T09:31:12Z</time>
      </trkpt>
      <trkpt lat="49.1893" lon="7.01424">
        <ele>230</ele>
        <time>2011-01-23T09:31:14Z</time>
      </trkpt>
      <trkpt lat="49.18927" lon="7.01422">
        <ele>230</ele>
        <time>2011-01-23T09:31:16Z</time>
      </trkpt>
      <trkpt lat="49.18926" lon="7.01421">
        <ele>230</ele>
        <time>2011-01-23T09:31:18Z</time>
      </trkpt>
      <trkpt lat="49.18924" lon="7.01419">
        <ele>230</ele>
        <time>2011-01-23T09:31:20Z</time>
      </trkpt>
      <trkpt lat="49.18922" lon="7.01418">
        <ele>231</ele>
        <time>2011-01-23T09:31:22Z</time>
      </trkpt>
      <trkpt lat="49.1892" lon="7.01417">
        <ele>231</ele>
        <time>2011-01-23T09:31:24Z</time>
      </trkpt>
      <trkpt lat="49.18919" lon="7.01416">
        <ele>231</ele>
        <time>2011-01-23T09:31:26Z</time>
      </trkpt>
      <trkpt lat="49.18917" lon="7.01414">
        <ele>231</ele>
        <time>2011-01-23T09:31:28Z</time>
      </trkpt>
      <trkpt lat="49.18915" lon="7.01413">
        <ele>231</ele>
        <time>2011-01-23T09:31:30Z</time>
      </trkpt>
      <trkpt lat="49.18913" lon="7.01413">
        <ele>231</ele>
        <time>2011-01-23T09:31:32Z</time>
      </trkpt>
      <trkpt lat="49.18911" lon="7.01412">
        <ele>231</ele>
        <time>2011-01-23T09:31:34Z</time>
      </trkpt>
      <trkpt lat="49.18909" lon="7.01412">
        <ele>231</ele>
        <time>2011-01-23T09:31:36Z</time>
      </trkpt>
      <trkpt lat="49.18907" lon="7.01412">
        <ele>231</ele>
        <time>2011-01-23T09:31:38Z</time>
      </trkpt>
      <trkpt lat="49.18906" lon="7.01411">
        <ele>231</ele>
        <time>2011-01-23T09:31:40Z</time>
      </trkpt>
      <trkpt lat="49.18904" lon="7.01411">
        <ele>232</ele>
        <time>2011-01-23T09:31:41Z</time>
      </trkpt>
      <trkpt lat="49.18902" lon="7.0141">
        <ele>232</ele>
        <time>2011-01-23T09:31:43Z</time>
      </trkpt>
      <trkpt lat="49.18901" lon="7.0141">
        <ele>233</ele>
        <time>2011-01-23T09:31:45Z</time>
      </trkpt>
      <trkpt lat="49.18899" lon="7.0141">
        <ele>234</ele>
        <time>2011-01-23T09:31:47Z</time>
      </trkpt>
      <trkpt lat="49.18897" lon="7.0141">
        <ele>234</ele>
        <time>2011-01-23T09:31:49Z</time>
      </trkpt>
      <trkpt lat="49.18895" lon="7.0141">
        <ele>235</ele>
        <time>2011-01-23T09:31:51Z</time>
      </trkpt>
      <trkpt lat="49.18893" lon="7.01409">
        <ele>235</ele>
        <time>2011-01-23T09:31:53Z</time>
      </trkpt>
      <trkpt lat="49.18891" lon="7.01409">
        <ele>236</ele>
        <time>2011-01-23T09:31:55Z</time>
      </trkpt>
      <trkpt lat="49.1889" lon="7.01409">
        <ele>236</ele>
        <time>2011-01-23T09:31:57Z</time>
      </trkpt>
      <trkpt lat="49.18888" lon="7.01409">
        <ele>236</ele>
        <time>2011-01-23T09:31:58Z</time>
      </trkpt>
      <trkpt lat="49.18887" lon="7.01408">
        <ele>237</ele>
        <time>2011-01-23T09:32:00Z</time>
      </trkpt>
      <trkpt lat="49.18885" lon="7.01409">
        <ele>237</ele>
        <time>2011-01-23T09:32:02Z</time>
      </trkpt>
      <trkpt lat="49.18882" lon="7.01409">
        <ele>237</ele>
        <time>2011-01-23T09:32:04Z</time>
      </trkpt>
      <trkpt lat="49.1888" lon="7.01409">
        <ele>238</ele>
        <time>2011-01-23T09:32:06Z</time>
      </trkpt>
      <trkpt lat="49.18879" lon="7.01409">
        <ele>238</ele>
        <time>2011-01-23T09:32:07Z</time>
      </trkpt>
      <trkpt lat="49.18877" lon="7.01409">
        <ele>239</ele>
        <time>2011-01-23T09:32:09Z</time>
      </trkpt>
      <trkpt lat="49.18876" lon="7.01408">
        <ele>239</ele>
        <time>2011-01-23T09:32:11Z</time>
      </trkpt>
      <trkpt lat="49.18874" lon="7.01408">
        <ele>239</ele>
        <time>2011-01-23T09:32:13Z</time>
      </trkpt>
      <trkpt lat="49.18872" lon="7.01408">
        <ele>239</ele>
        <time>2011-01-23T09:32:15Z</time>
      </trkpt>
      <trkpt lat="49.1887" lon="7.01408">
        <ele>239</ele>
        <time>2011-01-23T09:32:17Z</time>
      </trkpt>
      <trkpt lat="49.18869" lon="7.01408">
        <ele>240</ele>
        <time>2011-01-23T09:32:19Z</time>
      </trkpt>
      <trkpt lat="49.18866" lon="7.01408">
        <ele>240</ele>
        <time>2011-01-23T09:32:21Z</time>
      </trkpt>
      <trkpt lat="49.18864" lon="7.01408">
        <ele>240</ele>
        <time>2011-01-23T09:32:23Z</time>
      </trkpt>
      <trkpt lat="49.18862" lon="7.01408">
        <ele>240</ele>
        <time>2011-01-23T09:32:25Z</time>
      </trkpt>
      <trkpt lat="49.1886" lon="7.01408">
        <ele>240</ele>
        <time>2011-01-23T09:32:27Z</time>
      </trkpt>
      <trkpt lat="49.18858" lon="7.01407">
        <ele>241</ele>
        <time>2011-01-23T09:32:29Z</time>
      </trkpt>
      <trkpt lat="49.18856" lon="7.01407">
        <ele>241</ele>
        <time>2011-01-23T09:32:31Z</time>
      </trkpt>
      <trkpt lat="49.18854" lon="7.01406">
        <ele>241</ele>
        <time>2011-01-23T09:32:33Z</time>
      </trkpt>
      <trkpt lat="49.18852" lon="7.01406">
        <ele>241</ele>
        <time>2011-01-23T09:32:35Z</time>
      </trkpt>
      <trkpt lat="49.18851" lon="7.01406">
        <ele>241</ele>
        <time>2011-01-23T09:32:37Z</time>
      </trkpt>
      <trkpt lat="49.18849" lon="7.01407">
        <ele>241</ele>
        <time>2011-01-23T09:32:39Z</time>
      </trkpt>
      <trkpt lat="49.18847" lon="7.01407">
        <ele>241</ele>
        <time>2011-01-23T09:32:41Z</time>
      </trkpt>
      <trkpt lat="49.18845" lon="7.01407">
        <ele>241</ele>
        <time>2011-01-23T09:32:43Z</time>
      </trkpt>
      <trkpt lat="49.18844" lon="7.01406">
        <ele>241</ele>
        <time>2011-01-23T09:32:44Z</time>
      </trkpt>
      <trkpt lat="49.18842" lon="7.01406">
        <ele>241</ele>
        <time>2011-01-23T09:32:46Z</time>
      </trkpt>
      <trkpt lat="49.18841" lon="7.01406">
        <ele>241</ele>
        <time>2011-01-23T09:32:47Z</time>
      </trkpt>
      <trkpt lat="49.1884" lon="7.01406">
        <ele>242</ele>
        <time>2011-01-23T09:32:48Z</time>
      </trkpt>
      <trkpt lat="49.18838" lon="7.01405">
        <ele>242</ele>
        <time>2011-01-23T09:32:50Z</time>
      </trkpt>
      <trkpt lat="49.18836" lon="7.01404">
        <ele>242</ele>
        <time>2011-01-23T09:32:52Z</time>
      </trkpt>
      <trkpt lat="49.18834" lon="7.01404">
        <ele>242</ele>
        <time>2011-01-23T09:32:54Z</time>
      </trkpt>
      <trkpt lat="49.18832" lon="7.01402">
        <ele>242</ele>
        <time>2011-01-23T09:32:56Z</time>
      </trkpt>
      <trkpt lat="49.1883" lon="7.01402">
        <ele>242</ele>
        <time>2011-01-23T09:32:58Z</time>
      </trkpt>
      <trkpt lat="49.18828" lon="7.014">
        <ele>242</ele>
        <time>2011-01-23T09:33:00Z</time>
      </trkpt>
      <trkpt lat="49.18826" lon="7.01399">
        <ele>242</ele>
        <time>2011-01-23T09:33:02Z</time>
      </trkpt>
      <trkpt lat="49.18824" lon="7.01397">
        <ele>243</ele>
        <time>2011-01-23T09:33:04Z</time>
      </trkpt>
      <trkpt lat="49.18823" lon="7.01396">
        <ele>243</ele>
        <time>2011-01-23T09:33:06Z</time>
      </trkpt>
      <trkpt lat="49.18821" lon="7.01394">
        <ele>243</ele>
        <time>2011-01-23T09:33:08Z</time>
      </trkpt>
      <trkpt lat="49.18819" lon="7.01393">
        <ele>243</ele>
        <time>2011-01-23T09:33:10Z</time>
      </trkpt>
      <trkpt lat="49.18818" lon="7.01391">
        <ele>243</ele>
        <time>2011-01-23T09:33:12Z</time>
      </trkpt>
      <trkpt lat="49.18816" lon="7.0139">
        <ele>243</ele>
        <time>2011-01-23T09:33:14Z</time>
      </trkpt>
      <trkpt lat="49.18814" lon="7.01388">
        <ele>244</ele>
        <time>2011-01-23T09:33:16Z</time>
      </trkpt>
      <trkpt lat="49.18812" lon="7.01387">
        <ele>244</ele>
        <time>2011-01-23T09:33:18Z</time>
      </trkpt>
      <trkpt lat="49.18811" lon="7.01385">
        <ele>245</ele>
        <time>2011-01-23T09:33:20Z</time>
      </trkpt>
      <trkpt lat="49.18809" lon="7.01383">
        <ele>245</ele>
        <time>2011-01-23T09:33:22Z</time>
      </trkpt>
      <trkpt lat="49.18808" lon="7.01381">
        <ele>245</ele>
        <time>2011-01-23T09:33:24Z</time>
      </trkpt>
      <trkpt lat="49.18806" lon="7.01379">
        <ele>245</ele>
        <time>2011-01-23T09:33:26Z</time>
      </trkpt>
      <trkpt lat="49.18804" lon="7.01377">
        <ele>245</ele>
        <time>2011-01-23T09:33:28Z</time>
      </trkpt>
      <trkpt lat="49.18803" lon="7.01375">
        <ele>245</ele>
        <time>2011-01-23T09:33:30Z</time>
      </trkpt>
      <trkpt lat="49.18801" lon="7.01373">
        <ele>245</ele>
        <time>2011-01-23T09:33:32Z</time>
      </trkpt>
      <trkpt lat="49.188" lon="7.0137">
        <ele>245</ele>
        <time>2011-01-23T09:33:34Z</time>
      </trkpt>
      <trkpt lat="49.18798" lon="7.01368">
        <ele>245</ele>
        <time>2011-01-23T09:33:36Z</time>
      </trkpt>
      <trkpt lat="49.18796" lon="7.01366">
        <ele>245</ele>
        <time>2011-01-23T09:33:38Z</time>
      </trkpt>
      <trkpt lat="49.18795" lon="7.01363">
        <ele>245</ele>
        <time>2011-01-23T09:33:40Z</time>
      </trkpt>
      <trkpt lat="49.18793" lon="7.01361">
        <ele>245</ele>
        <time>2011-01-23T09:33:42Z</time>
      </trkpt>
      <trkpt lat="49.18792" lon="7.01358">
        <ele>245</ele>
        <time>2011-01-23T09:33:44Z</time>
      </trkpt>
      <trkpt lat="49.1879" lon="7.01356">
        <ele>246</ele>
        <time>2011-01-23T09:33:46Z</time>
      </trkpt>
      <trkpt lat="49.18788" lon="7.01353">
        <ele>246</ele>
        <time>2011-01-23T09:33:48Z</time>
      </trkpt>
      <trkpt lat="49.18787" lon="7.01351">
        <ele>246</ele>
        <time>2011-01-23T09:33:50Z</time>
      </trkpt>
      <trkpt lat="49.18785" lon="7.01348">
        <ele>246</ele>
        <time>2011-01-23T09:33:52Z</time>
      </trkpt>
      <trkpt lat="49.18784" lon="7.01345">
        <ele>246</ele>
        <time>2011-01-23T09:33:54Z</time>
      </trkpt>
      <trkpt lat="49.18783" lon="7.01344">
        <ele>247</ele>
        <time>2011-01-23T09:33:55Z</time>
      </trkpt>
      <trkpt lat="49.18782" lon="7.01342">
        <ele>247</ele>
        <time>2011-01-23T09:33:56Z</time>
      </trkpt>
      <trkpt lat="49.18782" lon="7.0134">
        <ele>247</ele>
        <time>2011-01-23T09:33:57Z</time>
      </trkpt>
      <trkpt lat="49.18781" lon="7.01339">
        <ele>247</ele>
        <time>2011-01-23T09:33:58Z</time>
      </trkpt>
      <trkpt lat="49.18781" lon="7.01337">
        <ele>247</ele>
        <time>2011-01-23T09:33:59Z</time>
      </trkpt>
      <trkpt lat="49.18781" lon="7.01335">
        <ele>247</ele>
        <time>2011-01-23T09:34:00Z</time>
      </trkpt>
      <trkpt lat="49.18782" lon="7.01333">
        <ele>247</ele>
        <time>2011-01-23T09:34:01Z</time>
      </trkpt>
      <trkpt lat="49.18782" lon="7.01331">
        <ele>247</ele>
        <time>2011-01-23T09:34:02Z</time>
      </trkpt>
      <trkpt lat="49.18782" lon="7.0133">
        <ele>247</ele>
        <time>2011-01-23T09:34:03Z</time>
      </trkpt>
      <trkpt lat="49.18784" lon="7.01327">
        <ele>247</ele>
        <time>2011-01-23T09:34:05Z</time>
      </trkpt>
      <trkpt lat="49.18785" lon="7.01324">
        <ele>247</ele>
        <time>2011-01-23T09:34:07Z</time>
      </trkpt>
      <trkpt lat="49.18786" lon="7.01321">
        <ele>247</ele>
        <time>2011-01-23T09:34:09Z</time>
      </trkpt>
      <trkpt lat="49.18787" lon="7.01318">
        <ele>247</ele>
        <time>2011-01-23T09:34:11Z</time>
      </trkpt>
      <trkpt lat="49.18787" lon="7.01316">
        <ele>247</ele>
        <time>2011-01-23T09:34:12Z</time>
      </trkpt>
      <trkpt lat="49.18788" lon="7.01314">
        <ele>247</ele>
        <time>2011-01-23T09:34:14Z</time>
      </trkpt>
      <trkpt lat="49.18788" lon="7.01312">
        <ele>247</ele>
        <time>2011-01-23T09:34:15Z</time>
      </trkpt>
      <trkpt lat="49.18788" lon="7.0131">
        <ele>247</ele>
        <time>2011-01-23T09:34:16Z</time>
      </trkpt>
      <trkpt lat="49.18787" lon="7.01308">
        <ele>247</ele>
        <time>2011-01-23T09:34:17Z</time>
      </trkpt>
      <trkpt lat="49.18788" lon="7.01305">
        <ele>248</ele>
        <time>2011-01-23T09:34:19Z</time>
      </trkpt>
      <trkpt lat="49.18789" lon="7.01302">
        <ele>249</ele>
        <time>2011-01-23T09:34:21Z</time>
      </trkpt>
      <trkpt lat="49.1879" lon="7.013">
        <ele>249</ele>
        <time>2011-01-23T09:34:23Z</time>
      </trkpt>
      <trkpt lat="49.1879" lon="7.01297">
        <ele>249</ele>
        <time>2011-01-23T09:34:25Z</time>
      </trkpt>
      <trkpt lat="49.1879" lon="7.01295">
        <ele>249</ele>
        <time>2011-01-23T09:34:27Z</time>
      </trkpt>
      <trkpt lat="49.1879" lon="7.01292">
        <ele>249</ele>
        <time>2011-01-23T09:34:29Z</time>
      </trkpt>
      <trkpt lat="49.1879" lon="7.0129">
        <ele>249</ele>
        <time>2011-01-23T09:34:30Z</time>
      </trkpt>
      <trkpt lat="49.1879" lon="7.01289">
        <ele>249</ele>
        <time>2011-01-23T09:34:31Z</time>
      </trkpt>
      <trkpt lat="49.1879" lon="7.01287">
        <ele>250</ele>
        <time>2011-01-23T09:34:32Z</time>
      </trkpt>
      <trkpt lat="49.18789" lon="7.01284">
        <ele>250</ele>
        <time>2011-01-23T09:34:34Z</time>
      </trkpt>
      <trkpt lat="49.18789" lon="7.01281">
        <ele>251</ele>
        <time>2011-01-23T09:34:36Z</time>
      </trkpt>
      <trkpt lat="49.18788" lon="7.01278">
        <ele>251</ele>
        <time>2011-01-23T09:34:38Z</time>
      </trkpt>
      <trkpt lat="49.18787" lon="7.01277">
        <ele>251</ele>
        <time>2011-01-23T09:34:39Z</time>
      </trkpt>
      <trkpt lat="49.18787" lon="7.01275">
        <ele>251</ele>
        <time>2011-01-23T09:34:40Z</time>
      </trkpt>
      <trkpt lat="49.18787" lon="7.01273">
        <ele>251</ele>
        <time>2011-01-23T09:34:41Z</time>
      </trkpt>
      <trkpt lat="49.18787" lon="7.01271">
        <ele>251</ele>
        <time>2011-01-23T09:34:43Z</time>
      </trkpt>
      <trkpt lat="49.18786" lon="7.01268">
        <ele>251</ele>
        <time>2011-01-23T09:34:45Z</time>
      </trkpt>
      <trkpt lat="49.18786" lon="7.01266">
        <ele>251</ele>
        <time>2011-01-23T09:34:47Z</time>
      </trkpt>
      <trkpt lat="49.18785" lon="7.01264">
        <ele>251</ele>
        <time>2011-01-23T09:34:49Z</time>
      </trkpt>
      <trkpt lat="49.18785" lon="7.01261">
        <ele>251</ele>
        <time>2011-01-23T09:34:51Z</time>
      </trkpt>
      <trkpt lat="49.18785" lon="7.01259">
        <ele>251</ele>
        <time>2011-01-23T09:34:53Z</time>
      </trkpt>
      <trkpt lat="49.18784" lon="7.01256">
        <ele>251</ele>
        <time>2011-01-23T09:34:55Z</time>
      </trkpt>
      <trkpt lat="49.18783" lon="7.01254">
        <ele>251</ele>
        <time>2011-01-23T09:34:56Z</time>
      </trkpt>
      <trkpt lat="49.18783" lon="7.01253">
        <ele>251</ele>
        <time>2011-01-23T09:34:57Z</time>
      </trkpt>
      <trkpt lat="49.18782" lon="7.0125">
        <ele>251</ele>
        <time>2011-01-23T09:34:59Z</time>
      </trkpt>
      <trkpt lat="49.18781" lon="7.01248">
        <ele>251</ele>
        <time>2011-01-23T09:35:00Z</time>
      </trkpt>
      <trkpt lat="49.18781" lon="7.01246">
        <ele>251</ele>
        <time>2011-01-23T09:35:01Z</time>
      </trkpt>
      <trkpt lat="49.1878" lon="7.01243">
        <ele>252</ele>
        <time>2011-01-23T09:35:03Z</time>
      </trkpt>
      <trkpt lat="49.18779" lon="7.01241">
        <ele>252</ele>
        <time>2011-01-23T09:35:05Z</time>
      </trkpt>
      <trkpt lat="49.18778" lon="7.01237">
        <ele>252</ele>
        <time>2011-01-23T09:35:07Z</time>
      </trkpt>
      <trkpt lat="49.18778" lon="7.01236">
        <ele>252</ele>
        <time>2011-01-23T09:35:08Z</time>
      </trkpt>
      <trkpt lat="49.18777" lon="7.01233">
        <ele>253</ele>
        <time>2011-01-23T09:35:10Z</time>
      </trkpt>
      <trkpt lat="49.18776" lon="7.0123">
        <ele>253</ele>
        <time>2011-01-23T09:35:12Z</time>
      </trkpt>
      <trkpt lat="49.18776" lon="7.01227">
        <ele>253</ele>
        <time>2011-01-23T09:35:14Z</time>
      </trkpt>
      <trkpt lat="49.18775" lon="7.01225">
        <ele>253</ele>
        <time>2011-01-23T09:35:16Z</time>
      </trkpt>
      <trkpt lat="49.18774" lon="7.01222">
        <ele>253</ele>
        <time>2011-01-23T09:35:18Z</time>
      </trkpt>
      <trkpt lat="49.18774" lon="7.01219">
        <ele>253</ele>
        <time>2011-01-23T09:35:20Z</time>
      </trkpt>
      <trkpt lat="49.18773" lon="7.01217">
        <ele>253</ele>
        <time>2011-01-23T09:35:22Z</time>
      </trkpt>
      <trkpt lat="49.18772" lon="7.01214">
        <ele>253</ele>
        <time>2011-01-23T09:35:24Z</time>
      </trkpt>
      <trkpt lat="49.18771" lon="7.01212">
        <ele>253</ele>
        <time>2011-01-23T09:35:26Z</time>
      </trkpt>
      <trkpt lat="49.18771" lon="7.01209">
        <ele>253</ele>
        <time>2011-01-23T09:35:28Z</time>
      </trkpt>
      <trkpt lat="49.1877" lon="7.01206">
        <ele>253</ele>
        <time>2011-01-23T09:35:30Z</time>
      </trkpt>
      <trkpt lat="49.18769" lon="7.01203">
        <ele>253</ele>
        <time>2011-01-23T09:35:32Z</time>
      </trkpt>
      <trkpt lat="49.18768" lon="7.01202">
        <ele>253</ele>
        <time>2011-01-23T09:35:33Z</time>
      </trkpt>
      <trkpt lat="49.18767" lon="7.01199">
        <ele>253</ele>
        <time>2011-01-23T09:35:35Z</time>
      </trkpt>
      <trkpt lat="49.18766" lon="7.01196">
        <ele>254</ele>
        <time>2011-01-23T09:35:37Z</time>
      </trkpt>
      <trkpt lat="49.18764" lon="7.01193">
        <ele>255</ele>
        <time>2011-01-23T09:35:39Z</time>
      </trkpt>
      <trkpt lat="49.18764" lon="7.01191">
        <ele>255</ele>
        <time>2011-01-23T09:35:40Z</time>
      </trkpt>
      <trkpt lat="49.18763" lon="7.01188">
        <ele>256</ele>
        <time>2011-01-23T09:35:42Z</time>
      </trkpt>
      <trkpt lat="49.18762" lon="7.01185">
        <ele>257</ele>
        <time>2011-01-23T09:35:44Z</time>
      </trkpt>
      <trkpt lat="49.18762" lon="7.01183">
        <ele>258</ele>
        <time>2011-01-23T09:35:46Z</time>
      </trkpt>
      <trkpt lat="49.18761" lon="7.0118">
        <ele>258</ele>
        <time>2011-01-23T09:35:48Z</time>
      </trkpt>
      <trkpt lat="49.1876" lon="7.01177">
        <ele>259</ele>
        <time>2011-01-23T09:35:50Z</time>
      </trkpt>
      <trkpt lat="49.1876" lon="7.01174">
        <ele>259</ele>
        <time>2011-01-23T09:35:52Z</time>
      </trkpt>
      <trkpt lat="49.18759" lon="7.01172">
        <ele>260</ele>
        <time>2011-01-23T09:35:54Z</time>
      </trkpt>
      <trkpt lat="49.18759" lon="7.01171">
        <ele>260</ele>
        <time>2011-01-23T09:35:56Z</time>
      </trkpt>
      <trkpt lat="49.18759" lon="7.01169">
        <ele>261</ele>
        <time>2011-01-23T09:36:09Z</time>
      </trkpt>
      <trkpt lat="49.18758" lon="7.01166">
        <ele>261</ele>
        <time>2011-01-23T09:36:11Z</time>
      </trkpt>
      <trkpt lat="49.18759" lon="7.01163">
        <ele>261</ele>
        <time>2011-01-23T09:36:13Z</time>
      </trkpt>
      <trkpt lat="49.18759" lon="7.01161">
        <ele>261</ele>
        <time>2011-01-23T09:36:15Z</time>
      </trkpt>
      <trkpt lat="49.18759" lon="7.01158">
        <ele>261</ele>
        <time>2011-01-23T09:36:17Z</time>
      </trkpt>
      <trkpt lat="49.18759" lon="7.01155">
        <ele>261</ele>
        <time>2011-01-23T09:36:19Z</time>
      </trkpt>
      <trkpt lat="49.18759" lon="7.01153">
        <ele>261</ele>
        <time>2011-01-23T09:36:20Z</time>
      </trkpt>
      <trkpt lat="49.18759" lon="7.01152">
        <ele>261</ele>
        <time>2011-01-23T09:36:21Z</time>
      </trkpt>
      <trkpt lat="49.18759" lon="7.0115">
        <ele>261</ele>
        <time>2011-01-23T09:36:22Z</time>
      </trkpt>
      <trkpt lat="49.1876" lon="7.01148">
        <ele>261</ele>
        <time>2011-01-23T09:36:23Z</time>
      </trkpt>
      <trkpt lat="49.18761" lon="7.01145">
        <ele>261</ele>
        <time>2011-01-23T09:36:25Z</time>
      </trkpt>
      <trkpt lat="49.18763" lon="7.01143">
        <ele>261</ele>
        <time>2011-01-23T09:36:27Z</time>
      </trkpt>
      <trkpt lat="49.18764" lon="7.01141">
        <ele>261</ele>
        <time>2011-01-23T09:36:29Z</time>
      </trkpt>
      <trkpt lat="49.18766" lon="7.01139">
        <ele>261</ele>
        <time>2011-01-23T09:36:31Z</time>
      </trkpt>
      <trkpt lat="49.18768" lon="7.01137">
        <ele>261</ele>
        <time>2011-01-23T09:36:33Z</time>
      </trkpt>
      <trkpt lat="49.18769" lon="7.01136">
        <ele>261</ele>
        <time>2011-01-23T09:36:35Z</time>
      </trkpt>
      <trkpt lat="49.1877" lon="7.01134">
        <ele>261</ele>
        <time>2011-01-23T09:36:37Z</time>
      </trkpt>
      <trkpt lat="49.18772" lon="7.01133">
        <ele>261</ele>
        <time>2011-01-23T09:36:39Z</time>
      </trkpt>
      <trkpt lat="49.18772" lon="7.01131">
        <ele>261</ele>
        <time>2011-01-23T09:36:40Z</time>
      </trkpt>
      <trkpt lat="49.18773" lon="7.01129">
        <ele>261</ele>
        <time>2011-01-23T09:36:42Z</time>
      </trkpt>
      <trkpt lat="49.18774" lon="7.01126">
        <ele>261</ele>
        <time>2011-01-23T09:36:44Z</time>
      </trkpt>
      <trkpt lat="49.18775" lon="7.01124">
        <ele>261</ele>
        <time>2011-01-23T09:36:46Z</time>
      </trkpt>
      <trkpt lat="49.18776" lon="7.01121">
        <ele>261</ele>
        <time>2011-01-23T09:36:48Z</time>
      </trkpt>
      <trkpt lat="49.18775" lon="7.0112">
        <ele>261</ele>
        <time>2011-01-23T09:36:49Z</time>
      </trkpt>
      <trkpt lat="49.18776" lon="7.01118">
        <ele>261</ele>
        <time>2011-01-23T09:36:51Z</time>
      </trkpt>
      <trkpt lat="49.18776" lon="7.01116">
        <ele>262</ele>
        <time>2011-01-23T09:36:53Z</time>
      </trkpt>
      <trkpt lat="49.18778" lon="7.01114">
        <ele>263</ele>
        <time>2011-01-23T09:36:55Z</time>
      </trkpt>
      <trkpt lat="49.18779" lon="7.01112">
        <ele>263</ele>
        <time>2011-01-23T09:36:57Z</time>
      </trkpt>
      <trkpt lat="49.18781" lon="7.01109">
        <ele>263</ele>
        <time>2011-01-23T09:36:59Z</time>
      </trkpt>
      <trkpt lat="49.18782" lon="7.01106">
        <ele>263</ele>
        <time>2011-01-23T09:37:01Z</time>
      </trkpt>
      <trkpt lat="49.18783" lon="7.01105">
        <ele>264</ele>
        <time>2011-01-23T09:37:03Z</time>
      </trkpt>
      <trkpt lat="49.18785" lon="7.01102">
        <ele>264</ele>
        <time>2011-01-23T09:37:06Z</time>
      </trkpt>
      <trkpt lat="49.18787" lon="7.011">
        <ele>264</ele>
        <time>2011-01-23T09:37:08Z</time>
      </trkpt>
      <trkpt lat="49.18787" lon="7.01098">
        <ele>264</ele>
        <time>2011-01-23T09:37:10Z</time>
      </trkpt>
      <trkpt lat="49.18788" lon="7.01096">
        <ele>264</ele>
        <time>2011-01-23T09:37:12Z</time>
      </trkpt>
      <trkpt lat="49.1879" lon="7.01096">
        <ele>264</ele>
        <time>2011-01-23T09:37:14Z</time>
      </trkpt>
      <trkpt lat="49.1879" lon="7.01094">
        <ele>264</ele>
        <time>2011-01-23T09:37:16Z</time>
      </trkpt>
      <trkpt lat="49.18791" lon="7.01091">
        <ele>264</ele>
        <time>2011-01-23T09:37:18Z</time>
      </trkpt>
      <trkpt lat="49.18791" lon="7.01089">
        <ele>264</ele>
        <time>2011-01-23T09:37:19Z</time>
      </trkpt>
      <trkpt lat="49.18792" lon="7.01087">
        <ele>265</ele>
        <time>2011-01-23T09:37:21Z</time>
      </trkpt>
      <trkpt lat="49.18793" lon="7.01086">
        <ele>266</ele>
        <time>2011-01-23T09:37:23Z</time>
      </trkpt>
      <trkpt lat="49.18795" lon="7.01086">
        <ele>267</ele>
        <time>2011-01-23T09:37:25Z</time>
      </trkpt>
      <trkpt lat="49.18797" lon="7.01086">
        <ele>267</ele>
        <time>2011-01-23T09:37:26Z</time>
      </trkpt>
      <trkpt lat="49.18798" lon="7.01086">
        <ele>267</ele>
        <time>2011-01-23T09:37:27Z</time>
      </trkpt>
      <trkpt lat="49.188" lon="7.01087">
        <ele>267</ele>
        <time>2011-01-23T09:37:29Z</time>
      </trkpt>
      <trkpt lat="49.18801" lon="7.01087">
        <ele>267</ele>
        <time>2011-01-23T09:37:30Z</time>
      </trkpt>
      <trkpt lat="49.18803" lon="7.01087">
        <ele>267</ele>
        <time>2011-01-23T09:37:32Z</time>
      </trkpt>
      <trkpt lat="49.18805" lon="7.01088">
        <ele>267</ele>
        <time>2011-01-23T09:37:34Z</time>
      </trkpt>
      <trkpt lat="49.18806" lon="7.01088">
        <ele>267</ele>
        <time>2011-01-23T09:37:36Z</time>
      </trkpt>
      <trkpt lat="49.18808" lon="7.01089">
        <ele>267</ele>
        <time>2011-01-23T09:37:38Z</time>
      </trkpt>
      <trkpt lat="49.18809" lon="7.01089">
        <ele>267</ele>
        <time>2011-01-23T09:37:40Z</time>
      </trkpt>
      <trkpt lat="49.18811" lon="7.01088">
        <ele>267</ele>
        <time>2011-01-23T09:37:42Z</time>
      </trkpt>
      <trkpt lat="49.18812" lon="7.01088">
        <ele>267</ele>
        <time>2011-01-23T09:37:44Z</time>
      </trkpt>
      <trkpt lat="49.18813" lon="7.01088">
        <ele>267</ele>
        <time>2011-01-23T09:37:46Z</time>
      </trkpt>
      <trkpt lat="49.18815" lon="7.01088">
        <ele>267</ele>
        <time>2011-01-23T09:37:48Z</time>
      </trkpt>
      <trkpt lat="49.18816" lon="7.01088">
        <ele>267</ele>
        <time>2011-01-23T09:37:50Z</time>
      </trkpt>
      <trkpt lat="49.18818" lon="7.01087">
        <ele>267</ele>
        <time>2011-01-23T09:37:52Z</time>
      </trkpt>
      <trkpt lat="49.18819" lon="7.01086">
        <ele>267</ele>
        <time>2011-01-23T09:37:54Z</time>
      </trkpt>
      <trkpt lat="49.18821" lon="7.01085">
        <ele>267</ele>
        <time>2011-01-23T09:37:56Z</time>
      </trkpt>
      <trkpt lat="49.18823" lon="7.01085">
        <ele>267</ele>
        <time>2011-01-23T09:37:58Z</time>
      </trkpt>
      <trkpt lat="49.18825" lon="7.01084">
        <ele>267</ele>
        <time>2011-01-23T09:38:00Z</time>
      </trkpt>
      <trkpt lat="49.18827" lon="7.01083">
        <ele>267</ele>
        <time>2011-01-23T09:38:02Z</time>
      </trkpt>
      <trkpt lat="49.18829" lon="7.01083">
        <ele>267</ele>
        <time>2011-01-23T09:38:04Z</time>
      </trkpt>
      <trkpt lat="49.1883" lon="7.01082">
        <ele>267</ele>
        <time>2011-01-23T09:38:06Z</time>
      </trkpt>
      <trkpt lat="49.18831" lon="7.01082">
        <ele>267</ele>
        <time>2011-01-23T09:38:07Z</time>
      </trkpt>
      <trkpt lat="49.18833" lon="7.01082">
        <ele>267</ele>
        <time>2011-01-23T09:38:10Z</time>
      </trkpt>
      <trkpt lat="49.18834" lon="7.01081">
        <ele>267</ele>
        <time>2011-01-23T09:38:12Z</time>
      </trkpt>
      <trkpt lat="49.18836" lon="7.0108">
        <ele>267</ele>
        <time>2011-01-23T09:38:14Z</time>
      </trkpt>
      <trkpt lat="49.18837" lon="7.0108">
        <ele>267</ele>
        <time>2011-01-23T09:38:15Z</time>
      </trkpt>
      <trkpt lat="49.18839" lon="7.01079">
        <ele>267</ele>
        <time>2011-01-23T09:38:17Z</time>
      </trkpt>
      <trkpt lat="49.1884" lon="7.01079">
        <ele>267</ele>
        <time>2011-01-23T09:38:19Z</time>
      </trkpt>
      <trkpt lat="49.18842" lon="7.01079">
        <ele>267</ele>
        <time>2011-01-23T09:38:21Z</time>
      </trkpt>
      <trkpt lat="49.18844" lon="7.01078">
        <ele>267</ele>
        <time>2011-01-23T09:38:24Z</time>
      </trkpt>
      <trkpt lat="49.18846" lon="7.01078">
        <ele>267</ele>
        <time>2011-01-23T09:38:26Z</time>
      </trkpt>
      <trkpt lat="49.18848" lon="7.01077">
        <ele>267</ele>
        <time>2011-01-23T09:38:28Z</time>
      </trkpt>
      <trkpt lat="49.1885" lon="7.01076">
        <ele>267</ele>
        <time>2011-01-23T09:38:30Z</time>
      </trkpt>
      <trkpt lat="49.18852" lon="7.01076">
        <ele>268</ele>
        <time>2011-01-23T09:38:32Z</time>
      </trkpt>
      <trkpt lat="49.18853" lon="7.01076">
        <ele>268</ele>
        <time>2011-01-23T09:38:34Z</time>
      </trkpt>
      <trkpt lat="49.18855" lon="7.01075">
        <ele>268</ele>
        <time>2011-01-23T09:38:36Z</time>
      </trkpt>
      <trkpt lat="49.18858" lon="7.01073">
        <ele>268</ele>
        <time>2011-01-23T09:38:38Z</time>
      </trkpt>
      <trkpt lat="49.18859" lon="7.01073">
        <ele>269</ele>
        <time>2011-01-23T09:38:40Z</time>
      </trkpt>
      <trkpt lat="49.18861" lon="7.01072">
        <ele>269</ele>
        <time>2011-01-23T09:38:42Z</time>
      </trkpt>
      <trkpt lat="49.18863" lon="7.0107">
        <ele>270</ele>
        <time>2011-01-23T09:38:45Z</time>
      </trkpt>
      <trkpt lat="49.18864" lon="7.01068">
        <ele>270</ele>
        <time>2011-01-23T09:38:47Z</time>
      </trkpt>
      <trkpt lat="49.18866" lon="7.01067">
        <ele>270</ele>
        <time>2011-01-23T09:38:49Z</time>
      </trkpt>
      <trkpt lat="49.18868" lon="7.01065">
        <ele>270</ele>
        <time>2011-01-23T09:38:51Z</time>
      </trkpt>
      <trkpt lat="49.18869" lon="7.01062">
        <ele>271</ele>
        <time>2011-01-23T09:38:53Z</time>
      </trkpt>
      <trkpt lat="49.1887" lon="7.01061">
        <ele>272</ele>
        <time>2011-01-23T09:38:55Z</time>
      </trkpt>
      <trkpt lat="49.18872" lon="7.01059">
        <ele>273</ele>
        <time>2011-01-23T09:38:57Z</time>
      </trkpt>
      <trkpt lat="49.18874" lon="7.01057">
        <ele>274</ele>
        <time>2011-01-23T09:38:59Z</time>
      </trkpt>
      <trkpt lat="49.18876" lon="7.01057">
        <ele>274</ele>
        <time>2011-01-23T09:39:01Z</time>
      </trkpt>
      <trkpt lat="49.18878" lon="7.01057">
        <ele>275</ele>
        <time>2011-01-23T09:39:02Z</time>
      </trkpt>
      <trkpt lat="49.18879" lon="7.01057">
        <ele>275</ele>
        <time>2011-01-23T09:39:03Z</time>
      </trkpt>
      <trkpt lat="49.18881" lon="7.01057">
        <ele>275</ele>
        <time>2011-01-23T09:39:04Z</time>
      </trkpt>
      <trkpt lat="49.18882" lon="7.01057">
        <ele>275</ele>
        <time>2011-01-23T09:39:06Z</time>
      </trkpt>
      <trkpt lat="49.18884" lon="7.01057">
        <ele>275</ele>
        <time>2011-01-23T09:39:08Z</time>
      </trkpt>
      <trkpt lat="49.18885" lon="7.01056">
        <ele>276</ele>
        <time>2011-01-23T09:39:14Z</time>
      </trkpt>
      <trkpt lat="49.18887" lon="7.01056">
        <ele>277</ele>
        <time>2011-01-23T09:39:23Z</time>
      </trkpt>
      <trkpt lat="49.18888" lon="7.01056">
        <ele>277</ele>
        <time>2011-01-23T09:39:25Z</time>
      </trkpt>
      <trkpt lat="49.18889" lon="7.01055">
        <ele>277</ele>
        <time>2011-01-23T09:39:28Z</time>
      </trkpt>
      <trkpt lat="49.1889" lon="7.01053">
        <ele>277</ele>
        <time>2011-01-23T09:39:31Z</time>
      </trkpt>
      <trkpt lat="49.18892" lon="7.01052">
        <ele>277</ele>
        <time>2011-01-23T09:39:33Z</time>
      </trkpt>
      <trkpt lat="49.18893" lon="7.01051">
        <ele>277</ele>
        <time>2011-01-23T09:39:34Z</time>
      </trkpt>
      <trkpt lat="49.18895" lon="7.0105">
        <ele>278</ele>
        <time>2011-01-23T09:39:36Z</time>
      </trkpt>
      <trkpt lat="49.18897" lon="7.0105">
        <ele>278</ele>
        <time>2011-01-23T09:39:38Z</time>
      </trkpt>
      <trkpt lat="49.18898" lon="7.01049">
        <ele>279</ele>
        <time>2011-01-23T09:39:39Z</time>
      </trkpt>
      <trkpt lat="49.189" lon="7.01048">
        <ele>279</ele>
        <time>2011-01-23T09:39:40Z</time>
      </trkpt>
      <trkpt lat="49.18902" lon="7.01048">
        <ele>279</ele>
        <time>2011-01-23T09:39:42Z</time>
      </trkpt>
      <trkpt lat="49.18903" lon="7.01049">
        <ele>280</ele>
        <time>2011-01-23T09:39:44Z</time>
      </trkpt>
      <trkpt lat="49.18905" lon="7.01047">
        <ele>280</ele>
        <time>2011-01-23T09:39:46Z</time>
      </trkpt>
      <trkpt lat="49.18907" lon="7.01047">
        <ele>280</ele>
        <time>2011-01-23T09:39:48Z</time>
      </trkpt>
      <trkpt lat="49.18909" lon="7.01048">
        <ele>281</ele>
        <time>2011-01-23T09:39:50Z</time>
      </trkpt>
      <trkpt lat="49.1891" lon="7.01048">
        <ele>281</ele>
        <time>2011-01-23T09:39:51Z</time>
      </trkpt>
      <trkpt lat="49.18912" lon="7.01047">
        <ele>281</ele>
        <time>2011-01-23T09:39:53Z</time>
      </trkpt>
      <trkpt lat="49.18914" lon="7.01047">
        <ele>282</ele>
        <time>2011-01-23T09:39:55Z</time>
      </trkpt>
      <trkpt lat="49.18917" lon="7.01046">
        <ele>282</ele>
        <time>2011-01-23T09:39:57Z</time>
      </trkpt>
      <trkpt lat="49.18918" lon="7.01046">
        <ele>283</ele>
        <time>2011-01-23T09:39:59Z</time>
      </trkpt>
      <trkpt lat="49.1892" lon="7.01046">
        <ele>283</ele>
        <time>2011-01-23T09:40:01Z</time>
      </trkpt>
      <trkpt lat="49.18922" lon="7.01046">
        <ele>283</ele>
        <time>2011-01-23T09:40:03Z</time>
      </trkpt>
      <trkpt lat="49.18924" lon="7.01045">
        <ele>283</ele>
        <time>2011-01-23T09:40:05Z</time>
      </trkpt>
      <trkpt lat="49.18925" lon="7.01045">
        <ele>283</ele>
        <time>2011-01-23T09:40:06Z</time>
      </trkpt>
      <trkpt lat="49.18927" lon="7.01045">
        <ele>283</ele>
        <time>2011-01-23T09:40:08Z</time>
      </trkpt>
      <trkpt lat="49.18928" lon="7.01045">
        <ele>283</ele>
        <time>2011-01-23T09:40:09Z</time>
      </trkpt>
      <trkpt lat="49.1893" lon="7.01045">
        <ele>283</ele>
        <time>2011-01-23T09:40:10Z</time>
      </trkpt>
      <trkpt lat="49.18931" lon="7.01045">
        <ele>283</ele>
        <time>2011-01-23T09:40:11Z</time>
      </trkpt>
      <trkpt lat="49.18933" lon="7.01044">
        <ele>283</ele>
        <time>2011-01-23T09:40:13Z</time>
      </trkpt>
      <trkpt lat="49.18935" lon="7.01043">
        <ele>283</ele>
        <time>2011-01-23T09:40:14Z</time>
      </trkpt>
      <trkpt lat="49.18936" lon="7.01042">
        <ele>283</ele>
        <time>2011-01-23T09:40:15Z</time>
      </trkpt>
      <trkpt lat="49.18938" lon="7.01042">
        <ele>283</ele>
        <time>2011-01-23T09:40:16Z</time>
      </trkpt>
      <trkpt lat="49.1894" lon="7.01041">
        <ele>284</ele>
        <time>2011-01-23T09:40:17Z</time>
      </trkpt>
      <trkpt lat="49.18942" lon="7.01042">
        <ele>284</ele>
        <time>2011-01-23T09:40:18Z</time>
      </trkpt>
      <trkpt lat="49.18944" lon="7.01042">
        <ele>285</ele>
        <time>2011-01-23T09:40:20Z</time>
      </trkpt>
      <trkpt lat="49.18945" lon="7.01042">
        <ele>285</ele>
        <time>2011-01-23T09:40:27Z</time>
      </trkpt>
      <trkpt lat="49.18947" lon="7.01042">
        <ele>285</ele>
        <time>2011-01-23T09:40:29Z</time>
      </trkpt>
      <trkpt lat="49.18949" lon="7.01042">
        <ele>285</ele>
        <time>2011-01-23T09:40:30Z</time>
      </trkpt>
      <trkpt lat="49.1895" lon="7.01041">
        <ele>285</ele>
        <time>2011-01-23T09:40:32Z</time>
      </trkpt>
      <trkpt lat="49.18952" lon="7.01041">
        <ele>285</ele>
        <time>2011-01-23T09:40:33Z</time>
      </trkpt>
      <trkpt lat="49.18953" lon="7.01041">
        <ele>285</ele>
        <time>2011-01-23T09:40:34Z</time>
      </trkpt>
      <trkpt lat="49.18955" lon="7.01041">
        <ele>285</ele>
        <time>2011-01-23T09:40:36Z</time>
      </trkpt>
      <trkpt lat="49.18956" lon="7.0104">
        <ele>285</ele>
        <time>2011-01-23T09:40:39Z</time>
      </trkpt>
      <trkpt lat="49.18957" lon="7.0104">
        <ele>285</ele>
        <time>2011-01-23T09:40:40Z</time>
      </trkpt>
      <trkpt lat="49.18959" lon="7.0104">
        <ele>285</ele>
        <time>2011-01-23T09:40:41Z</time>
      </trkpt>
      <trkpt lat="49.1896" lon="7.0104">
        <ele>285</ele>
        <time>2011-01-23T09:40:42Z</time>
      </trkpt>
      <trkpt lat="49.18961" lon="7.0104">
        <ele>285</ele>
        <time>2011-01-23T09:40:43Z</time>
      </trkpt>
      <trkpt lat="49.18963" lon="7.01039">
        <ele>285</ele>
        <time>2011-01-23T09:40:45Z</time>
      </trkpt>
      <trkpt lat="49.18965" lon="7.01039">
        <ele>285</ele>
        <time>2011-01-23T09:40:47Z</time>
      </trkpt>
      <trkpt lat="49.18966" lon="7.01039">
        <ele>285</ele>
        <time>2011-01-23T09:40:48Z</time>
      </trkpt>
      <trkpt lat="49.18967" lon="7.01039">
        <ele>285</ele>
        <time>2011-01-23T09:40:49Z</time>
      </trkpt>
      <trkpt lat="49.18969" lon="7.01039">
        <ele>285</ele>
        <time>2011-01-23T09:40:50Z</time>
      </trkpt>
      <trkpt lat="49.1897" lon="7.01039">
        <ele>285</ele>
        <time>2011-01-23T09:40:51Z</time>
      </trkpt>
      <trkpt lat="49.18972" lon="7.01038">
        <ele>285</ele>
        <time>2011-01-23T09:40:53Z</time>
      </trkpt>
      <trkpt lat="49.18973" lon="7.01038">
        <ele>285</ele>
        <time>2011-01-23T09:40:55Z</time>
      </trkpt>
      <trkpt lat="49.18975" lon="7.01037">
        <ele>285</ele>
        <time>2011-01-23T09:40:57Z</time>
      </trkpt>
      <trkpt lat="49.18977" lon="7.01037">
        <ele>285</ele>
        <time>2011-01-23T09:40:59Z</time>
      </trkpt>
      <trkpt lat="49.18978" lon="7.01037">
        <ele>285</ele>
        <time>2011-01-23T09:41:00Z</time>
      </trkpt>
      <trkpt lat="49.1898" lon="7.01035">
        <ele>285</ele>
        <time>2011-01-23T09:41:02Z</time>
      </trkpt>
      <trkpt lat="49.18981" lon="7.01036">
        <ele>285</ele>
        <time>2011-01-23T09:41:04Z</time>
      </trkpt>
      <trkpt lat="49.18982" lon="7.01035">
        <ele>285</ele>
        <time>2011-01-23T09:41:06Z</time>
      </trkpt>
      <trkpt lat="49.18984" lon="7.01035">
        <ele>285</ele>
        <time>2011-01-23T09:41:08Z</time>
      </trkpt>
      <trkpt lat="49.18985" lon="7.01034">
        <ele>285</ele>
        <time>2011-01-23T09:41:10Z</time>
      </trkpt>
      <trkpt lat="49.18988" lon="7.01034">
        <ele>285</ele>
        <time>2011-01-23T09:41:12Z</time>
      </trkpt>
      <trkpt lat="49.18989" lon="7.01034">
        <ele>285</ele>
        <time>2011-01-23T09:41:14Z</time>
      </trkpt>
      <trkpt lat="49.18991" lon="7.01033">
        <ele>285</ele>
        <time>2011-01-23T09:41:16Z</time>
      </trkpt>
      <trkpt lat="49.18993" lon="7.01033">
        <ele>285</ele>
        <time>2011-01-23T09:41:17Z</time>
      </trkpt>
      <trkpt lat="49.18995" lon="7.01034">
        <ele>285</ele>
        <time>2011-01-23T09:41:19Z</time>
      </trkpt>
      <trkpt lat="49.18997" lon="7.01034">
        <ele>285</ele>
        <time>2011-01-23T09:41:21Z</time>
      </trkpt>
      <trkpt lat="49.18998" lon="7.01033">
        <ele>285</ele>
        <time>2011-01-23T09:41:22Z</time>
      </trkpt>
      <trkpt lat="49.19" lon="7.01032">
        <ele>285</ele>
        <time>2011-01-23T09:41:24Z</time>
      </trkpt>
      <trkpt lat="49.19001" lon="7.01032">
        <ele>285</ele>
        <time>2011-01-23T09:41:25Z</time>
      </trkpt>
      <trkpt lat="49.19002" lon="7.01032">
        <ele>285</ele>
        <time>2011-01-23T09:41:26Z</time>
      </trkpt>
      <trkpt lat="49.19004" lon="7.01031">
        <ele>285</ele>
        <time>2011-01-23T09:41:27Z</time>
      </trkpt>
      <trkpt lat="49.19006" lon="7.0103">
        <ele>285</ele>
        <time>2011-01-23T09:41:29Z</time>
      </trkpt>
      <trkpt lat="49.19007" lon="7.0103">
        <ele>285</ele>
        <time>2011-01-23T09:41:31Z</time>
      </trkpt>
      <trkpt lat="49.19008" lon="7.01029">
        <ele>285</ele>
        <time>2011-01-23T09:41:33Z</time>
      </trkpt>
      <trkpt lat="49.1901" lon="7.01028">
        <ele>285</ele>
        <time>2011-01-23T09:41:35Z</time>
      </trkpt>
      <trkpt lat="49.19012" lon="7.01027">
        <ele>285</ele>
        <time>2011-01-23T09:41:36Z</time>
      </trkpt>
      <trkpt lat="49.19013" lon="7.01027">
        <ele>285</ele>
        <time>2011-01-23T09:41:37Z</time>
      </trkpt>
      <trkpt lat="49.19014" lon="7.01026">
        <ele>285</ele>
        <time>2011-01-23T09:41:38Z</time>
      </trkpt>
      <trkpt lat="49.19015" lon="7.01026">
        <ele>285</ele>
        <time>2011-01-23T09:41:39Z</time>
      </trkpt>
      <trkpt lat="49.19017" lon="7.01026">
        <ele>285</ele>
        <time>2011-01-23T09:41:41Z</time>
      </trkpt>
      <trkpt lat="49.19019" lon="7.01025">
        <ele>285</ele>
        <time>2011-01-23T09:41:43Z</time>
      </trkpt>
      <trkpt lat="49.19021" lon="7.01025">
        <ele>285</ele>
        <time>2011-01-23T09:41:45Z</time>
      </trkpt>
      <trkpt lat="49.19023" lon="7.01025">
        <ele>285</ele>
        <time>2011-01-23T09:41:47Z</time>
      </trkpt>
      <trkpt lat="49.19024" lon="7.01025">
        <ele>285</ele>
        <time>2011-01-23T09:41:48Z</time>
      </trkpt>
      <trkpt lat="49.19026" lon="7.01025">
        <ele>285</ele>
        <time>2011-01-23T09:41:49Z</time>
      </trkpt>
      <trkpt lat="49.19027" lon="7.01024">
        <ele>285</ele>
        <time>2011-01-23T09:41:50Z</time>
      </trkpt>
      <trkpt lat="49.19028" lon="7.01024">
        <ele>285</ele>
        <time>2011-01-23T09:41:51Z</time>
      </trkpt>
      <trkpt lat="49.19029" lon="7.01023">
        <ele>285</ele>
        <time>2011-01-23T09:41:52Z</time>
      </trkpt>
      <trkpt lat="49.19031" lon="7.01023">
        <ele>285</ele>
        <time>2011-01-23T09:41:54Z</time>
      </trkpt>
      <trkpt lat="49.19033" lon="7.01022">
        <ele>285</ele>
        <time>2011-01-23T09:41:56Z</time>
      </trkpt>
      <trkpt lat="49.19034" lon="7.01022">
        <ele>286</ele>
        <time>2011-01-23T09:41:57Z</time>
      </trkpt>
      <trkpt lat="49.19035" lon="7.0102">
        <ele>286</ele>
        <time>2011-01-23T09:41:58Z</time>
      </trkpt>
      <trkpt lat="49.19036" lon="7.01019">
        <ele>287</ele>
        <time>2011-01-23T09:42:07Z</time>
      </trkpt>
      <trkpt lat="49.19038" lon="7.01018">
        <ele>288</ele>
        <time>2011-01-23T09:42:12Z</time>
      </trkpt>
      <trkpt lat="49.19039" lon="7.01017">
        <ele>290</ele>
        <time>2011-01-23T09:42:22Z</time>
      </trkpt>
      <trkpt lat="49.1904" lon="7.01017">
        <ele>291</ele>
        <time>2011-01-23T09:42:45Z</time>
      </trkpt>
      <trkpt lat="49.19042" lon="7.01018">
        <ele>291</ele>
        <time>2011-01-23T09:42:47Z</time>
      </trkpt>
      <trkpt lat="49.19043" lon="7.01018">
        <ele>291</ele>
        <time>2011-01-23T09:42:50Z</time>
      </trkpt>
      <trkpt lat="49.19044" lon="7.01018">
        <ele>291</ele>
        <time>2011-01-23T09:43:22Z</time>
      </trkpt>
      <trkpt lat="49.19045" lon="7.01017">
        <ele>291</ele>
        <time>2011-01-23T09:43:25Z</time>
      </trkpt>
      <trkpt lat="49.19044" lon="7.01015">
        <ele>291</ele>
        <time>2011-01-23T09:43:29Z</time>
      </trkpt>
      <trkpt lat="49.19044" lon="7.01013">
        <ele>291</ele>
        <time>2011-01-23T09:43:31Z</time>
      </trkpt>
      <trkpt lat="49.19043" lon="7.01011">
        <ele>291</ele>
        <time>2011-01-23T09:43:33Z</time>
      </trkpt>
      <trkpt lat="49.19043" lon="7.01008">
        <ele>291</ele>
        <time>2011-01-23T09:43:35Z</time>
      </trkpt>
      <trkpt lat="49.19042" lon="7.01006">
        <ele>291</ele>
        <time>2011-01-23T09:43:36Z</time>
      </trkpt>
      <trkpt lat="49.19042" lon="7.01005">
        <ele>291</ele>
        <time>2011-01-23T09:43:37Z</time>
      </trkpt>
      <trkpt lat="49.19041" lon="7.01002">
        <ele>291</ele>
        <time>2011-01-23T09:43:39Z</time>
      </trkpt>
      <trkpt lat="49.19041" lon="7.01">
        <ele>291</ele>
        <time>2011-01-23T09:43:40Z</time>
      </trkpt>
      <trkpt lat="49.1904" lon="7.00998">
        <ele>291</ele>
        <time>2011-01-23T09:43:41Z</time>
      </trkpt>
      <trkpt lat="49.1904" lon="7.00997">
        <ele>291</ele>
        <time>2011-01-23T09:43:42Z</time>
      </trkpt>
      <trkpt lat="49.19039" lon="7.00994">
        <ele>291</ele>
        <time>2011-01-23T09:43:44Z</time>
      </trkpt>
      <trkpt lat="49.19039" lon="7.00992">
        <ele>291</ele>
        <time>2011-01-23T09:43:45Z</time>
      </trkpt>
      <trkpt lat="49.19038" lon="7.0099">
        <ele>291</ele>
        <time>2011-01-23T09:43:46Z</time>
      </trkpt>
      <trkpt lat="49.19038" lon="7.00989">
        <ele>291</ele>
        <time>2011-01-23T09:43:47Z</time>
      </trkpt>
      <trkpt lat="49.19038" lon="7.00985">
        <ele>291</ele>
        <time>2011-01-23T09:43:49Z</time>
      </trkpt>
      <trkpt lat="49.19037" lon="7.00984">
        <ele>291</ele>
        <time>2011-01-23T09:43:50Z</time>
      </trkpt>
      <trkpt lat="49.19036" lon="7.00982">
        <ele>291</ele>
        <time>2011-01-23T09:43:51Z</time>
      </trkpt>
      <trkpt lat="49.19036" lon="7.00979">
        <ele>291</ele>
        <time>2011-01-23T09:43:53Z</time>
      </trkpt>
      <trkpt lat="49.19036" lon="7.00976">
        <ele>291</ele>
        <time>2011-01-23T09:43:55Z</time>
      </trkpt>
      <trkpt lat="49.19035" lon="7.00974">
        <ele>291</ele>
        <time>2011-01-23T09:43:56Z</time>
      </trkpt>
      <trkpt lat="49.19035" lon="7.00972">
        <ele>291</ele>
        <time>2011-01-23T09:43:58Z</time>
      </trkpt>
      <trkpt lat="49.19034" lon="7.00968">
        <ele>291</ele>
        <time>2011-01-23T09:44:00Z</time>
      </trkpt>
      <trkpt lat="49.19033" lon="7.00967">
        <ele>291</ele>
        <time>2011-01-23T09:44:01Z</time>
      </trkpt>
      <trkpt lat="49.19033" lon="7.00963">
        <ele>291</ele>
        <time>2011-01-23T09:44:03Z</time>
      </trkpt>
      <trkpt lat="49.19033" lon="7.0096">
        <ele>291</ele>
        <time>2011-01-23T09:44:05Z</time>
      </trkpt>
      <trkpt lat="49.19031" lon="7.00957">
        <ele>291</ele>
        <time>2011-01-23T09:44:07Z</time>
      </trkpt>
      <trkpt lat="49.19031" lon="7.00956">
        <ele>291</ele>
        <time>2011-01-23T09:44:09Z</time>
      </trkpt>
      <trkpt lat="49.1903" lon="7.00954">
        <ele>291</ele>
        <time>2011-01-23T09:44:10Z</time>
      </trkpt>
      <trkpt lat="49.1903" lon="7.00952">
        <ele>291</ele>
        <time>2011-01-23T09:44:11Z</time>
      </trkpt>
      <trkpt lat="49.1903" lon="7.0095">
        <ele>291</ele>
        <time>2011-01-23T09:44:12Z</time>
      </trkpt>
      <trkpt lat="49.1903" lon="7.00948">
        <ele>291</ele>
        <time>2011-01-23T09:44:13Z</time>
      </trkpt>
      <trkpt lat="49.19029" lon="7.00947">
        <ele>291</ele>
        <time>2011-01-23T09:44:14Z</time>
      </trkpt>
      <trkpt lat="49.19029" lon="7.00945">
        <ele>291</ele>
        <time>2011-01-23T09:44:15Z</time>
      </trkpt>
      <trkpt lat="49.19029" lon="7.00943">
        <ele>291</ele>
        <time>2011-01-23T09:44:16Z</time>
      </trkpt>
      <trkpt lat="49.19029" lon="7.00942">
        <ele>291</ele>
        <time>2011-01-23T09:44:17Z</time>
      </trkpt>
      <trkpt lat="49.19028" lon="7.0094">
        <ele>291</ele>
        <time>2011-01-23T09:44:18Z</time>
      </trkpt>
      <trkpt lat="49.19028" lon="7.00938">
        <ele>291</ele>
        <time>2011-01-23T09:44:19Z</time>
      </trkpt>
      <trkpt lat="49.19028" lon="7.00936">
        <ele>291</ele>
        <time>2011-01-23T09:44:20Z</time>
      </trkpt>
      <trkpt lat="49.19028" lon="7.00935">
        <ele>291</ele>
        <time>2011-01-23T09:44:21Z</time>
      </trkpt>
      <trkpt lat="49.19028" lon="7.00933">
        <ele>291</ele>
        <time>2011-01-23T09:44:22Z</time>
      </trkpt>
      <trkpt lat="49.19028" lon="7.00931">
        <ele>291</ele>
        <time>2011-01-23T09:44:23Z</time>
      </trkpt>
      <trkpt lat="49.19028" lon="7.00929">
        <ele>291</ele>
        <time>2011-01-23T09:44:24Z</time>
      </trkpt>
      <trkpt lat="49.19027" lon="7.00926">
        <ele>291</ele>
        <time>2011-01-23T09:44:26Z</time>
      </trkpt>
      <trkpt lat="49.19027" lon="7.00924">
        <ele>291</ele>
        <time>2011-01-23T09:44:27Z</time>
      </trkpt>
      <trkpt lat="49.19027" lon="7.00922">
        <ele>291</ele>
        <time>2011-01-23T09:44:28Z</time>
      </trkpt>
      <trkpt lat="49.19027" lon="7.0092">
        <ele>291</ele>
        <time>2011-01-23T09:44:29Z</time>
      </trkpt>
      <trkpt lat="49.19026" lon="7.00919">
        <ele>291</ele>
        <time>2011-01-23T09:44:30Z</time>
      </trkpt>
      <trkpt lat="49.19026" lon="7.00917">
        <ele>291</ele>
        <time>2011-01-23T09:44:31Z</time>
      </trkpt>
      <trkpt lat="49.19026" lon="7.00915">
        <ele>291</ele>
        <time>2011-01-23T09:44:32Z</time>
      </trkpt>
      <trkpt lat="49.19025" lon="7.00914">
        <ele>291</ele>
        <time>2011-01-23T09:44:33Z</time>
      </trkpt>
      <trkpt lat="49.19025" lon="7.00912">
        <ele>291</ele>
        <time>2011-01-23T09:44:34Z</time>
      </trkpt>
      <trkpt lat="49.19025" lon="7.00909">
        <ele>291</ele>
        <time>2011-01-23T09:44:36Z</time>
      </trkpt>
      <trkpt lat="49.19024" lon="7.00906">
        <ele>291</ele>
        <time>2011-01-23T09:44:38Z</time>
      </trkpt>
      <trkpt lat="49.19024" lon="7.00904">
        <ele>291</ele>
        <time>2011-01-23T09:44:39Z</time>
      </trkpt>
      <trkpt lat="49.19024" lon="7.00902">
        <ele>291</ele>
        <time>2011-01-23T09:44:40Z</time>
      </trkpt>
      <trkpt lat="49.19024" lon="7.00901">
        <ele>291</ele>
        <time>2011-01-23T09:44:41Z</time>
      </trkpt>
      <trkpt lat="49.19023" lon="7.00898">
        <ele>291</ele>
        <time>2011-01-23T09:44:43Z</time>
      </trkpt>
      <trkpt lat="49.19022" lon="7.00896">
        <ele>291</ele>
        <time>2011-01-23T09:44:44Z</time>
      </trkpt>
      <trkpt lat="49.19022" lon="7.00894">
        <ele>291</ele>
        <time>2011-01-23T09:44:45Z</time>
      </trkpt>
      <trkpt lat="49.19022" lon="7.00892">
        <ele>291</ele>
        <time>2011-01-23T09:44:46Z</time>
      </trkpt>
      <trkpt lat="49.19022" lon="7.0089">
        <ele>291</ele>
        <time>2011-01-23T09:44:47Z</time>
      </trkpt>
      <trkpt lat="49.19022" lon="7.00888">
        <ele>291</ele>
        <time>2011-01-23T09:44:48Z</time>
      </trkpt>
      <trkpt lat="49.19021" lon="7.00887">
        <ele>291</ele>
        <time>2011-01-23T09:44:49Z</time>
      </trkpt>
      <trkpt lat="49.19021" lon="7.00885">
        <ele>291</ele>
        <time>2011-01-23T09:44:50Z</time>
      </trkpt>
      <trkpt lat="49.19021" lon="7.00882">
        <ele>291</ele>
        <time>2011-01-23T09:44:52Z</time>
      </trkpt>
      <trkpt lat="49.19021" lon="7.0088">
        <ele>291</ele>
        <time>2011-01-23T09:44:53Z</time>
      </trkpt>
      <trkpt lat="49.19021" lon="7.00878">
        <ele>291</ele>
        <time>2011-01-23T09:44:54Z</time>
      </trkpt>
      <trkpt lat="49.1902" lon="7.00876">
        <ele>291</ele>
        <time>2011-01-23T09:44:55Z</time>
      </trkpt>
      <trkpt lat="49.1902" lon="7.00874">
        <ele>291</ele>
        <time>2011-01-23T09:44:56Z</time>
      </trkpt>
      <trkpt lat="49.1902" lon="7.00872">
        <ele>291</ele>
        <time>2011-01-23T09:44:57Z</time>
      </trkpt>
      <trkpt lat="49.19019" lon="7.0087">
        <ele>291</ele>
        <time>2011-01-23T09:44:58Z</time>
      </trkpt>
      <trkpt lat="49.19019" lon="7.00868">
        <ele>291</ele>
        <time>2011-01-23T09:44:59Z</time>
      </trkpt>
      <trkpt lat="49.19019" lon="7.00866">
        <ele>291</ele>
        <time>2011-01-23T09:45:00Z</time>
      </trkpt>
      <trkpt lat="49.19019" lon="7.00864">
        <ele>291</ele>
        <time>2011-01-23T09:45:01Z</time>
      </trkpt>
      <trkpt lat="49.19019" lon="7.00863">
        <ele>291</ele>
        <time>2011-01-23T09:45:02Z</time>
      </trkpt>
      <trkpt lat="49.19018" lon="7.00861">
        <ele>291</ele>
        <time>2011-01-23T09:45:03Z</time>
      </trkpt>
      <trkpt lat="49.19018" lon="7.00859">
        <ele>291</ele>
        <time>2011-01-23T09:45:04Z</time>
      </trkpt>
      <trkpt lat="49.19017" lon="7.00857">
        <ele>291</ele>
        <time>2011-01-23T09:45:05Z</time>
      </trkpt>
      <trkpt lat="49.19017" lon="7.00855">
        <ele>291</ele>
        <time>2011-01-23T09:45:06Z</time>
      </trkpt>
      <trkpt lat="49.19017" lon="7.00853">
        <ele>291</ele>
        <time>2011-01-23T09:45:07Z</time>
      </trkpt>
      <trkpt lat="49.19017" lon="7.00851">
        <ele>291</ele>
        <time>2011-01-23T09:45:08Z</time>
      </trkpt>
      <trkpt lat="49.19017" lon="7.00849">
        <ele>291</ele>
        <time>2011-01-23T09:45:09Z</time>
      </trkpt>
      <trkpt lat="49.19017" lon="7.00848">
        <ele>291</ele>
        <time>2011-01-23T09:45:10Z</time>
      </trkpt>
      <trkpt lat="49.19017" lon="7.00845">
        <ele>291</ele>
        <time>2011-01-23T09:45:11Z</time>
      </trkpt>
      <trkpt lat="49.19017" lon="7.00843">
        <ele>291</ele>
        <time>2011-01-23T09:45:12Z</time>
      </trkpt>
      <trkpt lat="49.19017" lon="7.00842">
        <ele>291</ele>
        <time>2011-01-23T09:45:13Z</time>
      </trkpt>
      <trkpt lat="49.19017" lon="7.00839">
        <ele>291</ele>
        <time>2011-01-23T09:45:15Z</time>
      </trkpt>
      <trkpt lat="49.19017" lon="7.00837">
        <ele>291</ele>
        <time>2011-01-23T09:45:16Z</time>
      </trkpt>
      <trkpt lat="49.19017" lon="7.00835">
        <ele>291</ele>
        <time>2011-01-23T09:45:17Z</time>
      </trkpt>
      <trkpt lat="49.19017" lon="7.00833">
        <ele>291</ele>
        <time>2011-01-23T09:45:18Z</time>
      </trkpt>
      <trkpt lat="49.19017" lon="7.00831">
        <ele>291</ele>
        <time>2011-01-23T09:45:19Z</time>
      </trkpt>
      <trkpt lat="49.19017" lon="7.00828">
        <ele>291</ele>
        <time>2011-01-23T09:45:21Z</time>
      </trkpt>
      <trkpt lat="49.19017" lon="7.00826">
        <ele>291</ele>
        <time>2011-01-23T09:45:22Z</time>
      </trkpt>
      <trkpt lat="49.19017" lon="7.00823">
        <ele>291</ele>
        <time>2011-01-23T09:45:23Z</time>
      </trkpt>
      <trkpt lat="49.19017" lon="7.00821">
        <ele>291</ele>
        <time>2011-01-23T09:45:24Z</time>
      </trkpt>
      <trkpt lat="49.19018" lon="7.0082">
        <ele>291</ele>
        <time>2011-01-23T09:45:25Z</time>
      </trkpt>
      <trkpt lat="49.19018" lon="7.00817">
        <ele>291</ele>
        <time>2011-01-23T09:45:27Z</time>
      </trkpt>
      <trkpt lat="49.19018" lon="7.00815">
        <ele>291</ele>
        <time>2011-01-23T09:45:28Z</time>
      </trkpt>
      <trkpt lat="49.19019" lon="7.00812">
        <ele>291</ele>
        <time>2011-01-23T09:45:30Z</time>
      </trkpt>
      <trkpt lat="49.19019" lon="7.00809">
        <ele>291</ele>
        <time>2011-01-23T09:45:32Z</time>
      </trkpt>
      <trkpt lat="49.19019" lon="7.00807">
        <ele>291</ele>
        <time>2011-01-23T09:45:33Z</time>
      </trkpt>
      <trkpt lat="49.1902" lon="7.00804">
        <ele>291</ele>
        <time>2011-01-23T09:45:35Z</time>
      </trkpt>
      <trkpt lat="49.1902" lon="7.00802">
        <ele>291</ele>
        <time>2011-01-23T09:45:36Z</time>
      </trkpt>
      <trkpt lat="49.19021" lon="7.008">
        <ele>291</ele>
        <time>2011-01-23T09:45:37Z</time>
      </trkpt>
      <trkpt lat="49.19022" lon="7.00797">
        <ele>291</ele>
        <time>2011-01-23T09:45:39Z</time>
      </trkpt>
      <trkpt lat="49.19022" lon="7.00795">
        <ele>291</ele>
        <time>2011-01-23T09:45:40Z</time>
      </trkpt>
      <trkpt lat="49.19022" lon="7.00794">
        <ele>291</ele>
        <time>2011-01-23T09:45:41Z</time>
      </trkpt>
      <trkpt lat="49.19023" lon="7.00791">
        <ele>291</ele>
        <time>2011-01-23T09:45:43Z</time>
      </trkpt>
      <trkpt lat="49.19024" lon="7.00788">
        <ele>291</ele>
        <time>2011-01-23T09:45:45Z</time>
      </trkpt>
      <trkpt lat="49.19025" lon="7.00786">
        <ele>291</ele>
        <time>2011-01-23T09:45:46Z</time>
      </trkpt>
      <trkpt lat="49.19025" lon="7.00783">
        <ele>290</ele>
        <time>2011-01-23T09:45:48Z</time>
      </trkpt>
      <trkpt lat="49.19026" lon="7.0078">
        <ele>290</ele>
        <time>2011-01-23T09:45:50Z</time>
      </trkpt>
      <trkpt lat="49.19027" lon="7.00777">
        <ele>289</ele>
        <time>2011-01-23T09:45:52Z</time>
      </trkpt>
      <trkpt lat="49.19027" lon="7.00775">
        <ele>289</ele>
        <time>2011-01-23T09:45:54Z</time>
      </trkpt>
      <trkpt lat="49.19028" lon="7.00772">
        <ele>288</ele>
        <time>2011-01-23T09:45:56Z</time>
      </trkpt>
      <trkpt lat="49.19029" lon="7.0077">
        <ele>287</ele>
        <time>2011-01-23T09:45:58Z</time>
      </trkpt>
      <trkpt lat="49.1903" lon="7.00767">
        <ele>287</ele>
        <time>2011-01-23T09:46:00Z</time>
      </trkpt>
      <trkpt lat="49.1903" lon="7.00764">
        <ele>286</ele>
        <time>2011-01-23T09:46:02Z</time>
      </trkpt>
      <trkpt lat="49.19031" lon="7.00761">
        <ele>286</ele>
        <time>2011-01-23T09:46:04Z</time>
      </trkpt>
      <trkpt lat="49.19031" lon="7.0076">
        <ele>286</ele>
        <time>2011-01-23T09:46:05Z</time>
      </trkpt>
      <trkpt lat="49.19031" lon="7.00757">
        <ele>286</ele>
        <time>2011-01-23T09:46:07Z</time>
      </trkpt>
      <trkpt lat="49.1903" lon="7.00753">
        <ele>286</ele>
        <time>2011-01-23T09:46:09Z</time>
      </trkpt>
      <trkpt lat="49.1903" lon="7.00752">
        <ele>286</ele>
        <time>2011-01-23T09:46:10Z</time>
      </trkpt>
      <trkpt lat="49.1903" lon="7.00749">
        <ele>286</ele>
        <time>2011-01-23T09:46:12Z</time>
      </trkpt>
      <trkpt lat="49.1903" lon="7.00747">
        <ele>286</ele>
        <time>2011-01-23T09:46:13Z</time>
      </trkpt>
      <trkpt lat="49.1903" lon="7.00745">
        <ele>286</ele>
        <time>2011-01-23T09:46:14Z</time>
      </trkpt>
      <trkpt lat="49.1903" lon="7.00744">
        <ele>286</ele>
        <time>2011-01-23T09:46:15Z</time>
      </trkpt>
      <trkpt lat="49.1903" lon="7.00742">
        <ele>286</ele>
        <time>2011-01-23T09:46:16Z</time>
      </trkpt>
      <trkpt lat="49.19029" lon="7.00739">
        <ele>286</ele>
        <time>2011-01-23T09:46:17Z</time>
      </trkpt>
      <trkpt lat="49.19029" lon="7.00738">
        <ele>286</ele>
        <time>2011-01-23T09:46:18Z</time>
      </trkpt>
      <trkpt lat="49.19029" lon="7.00736">
        <ele>286</ele>
        <time>2011-01-23T09:46:19Z</time>
      </trkpt>
      <trkpt lat="49.19028" lon="7.00733">
        <ele>286</ele>
        <time>2011-01-23T09:46:21Z</time>
      </trkpt>
      <trkpt lat="49.19028" lon="7.0073">
        <ele>286</ele>
        <time>2011-01-23T09:46:22Z</time>
      </trkpt>
      <trkpt lat="49.19028" lon="7.00729">
        <ele>286</ele>
        <time>2011-01-23T09:46:23Z</time>
      </trkpt>
      <trkpt lat="49.19028" lon="7.00726">
        <ele>286</ele>
        <time>2011-01-23T09:46:24Z</time>
      </trkpt>
      <trkpt lat="49.19027" lon="7.00722">
        <ele>286</ele>
        <time>2011-01-23T09:46:26Z</time>
      </trkpt>
      <trkpt lat="49.19027" lon="7.0072">
        <ele>287</ele>
        <time>2011-01-23T09:46:27Z</time>
      </trkpt>
      <trkpt lat="49.19026" lon="7.00717">
        <ele>288</ele>
        <time>2011-01-23T09:46:29Z</time>
      </trkpt>
      <trkpt lat="49.19025" lon="7.00715">
        <ele>289</ele>
        <time>2011-01-23T09:46:30Z</time>
      </trkpt>
      <trkpt lat="49.19025" lon="7.00712">
        <ele>290</ele>
        <time>2011-01-23T09:46:32Z</time>
      </trkpt>
      <trkpt lat="49.19025" lon="7.0071">
        <ele>290</ele>
        <time>2011-01-23T09:46:33Z</time>
      </trkpt>
      <trkpt lat="49.19025" lon="7.00708">
        <ele>290</ele>
        <time>2011-01-23T09:46:35Z</time>
      </trkpt>
      <trkpt lat="49.19025" lon="7.00706">
        <ele>290</ele>
        <time>2011-01-23T09:46:37Z</time>
      </trkpt>
      <trkpt lat="49.19025" lon="7.00704">
        <ele>290</ele>
        <time>2011-01-23T09:46:39Z</time>
      </trkpt>
      <trkpt lat="49.19025" lon="7.00702">
        <ele>291</ele>
        <time>2011-01-23T09:46:48Z</time>
      </trkpt>
      <trkpt lat="49.19026" lon="7.00702">
        <ele>292</ele>
        <time>2011-01-23T09:46:51Z</time>
      </trkpt>
      <trkpt lat="49.19026" lon="7.007">
        <ele>294</ele>
        <time>2011-01-23T09:46:54Z</time>
      </trkpt>
      <trkpt lat="49.19025" lon="7.00698">
        <ele>294</ele>
        <time>2011-01-23T09:46:55Z</time>
      </trkpt>
      <trkpt lat="49.19025" lon="7.00694">
        <ele>294</ele>
        <time>2011-01-23T09:46:57Z</time>
      </trkpt>
      <trkpt lat="49.19025" lon="7.00692">
        <ele>294</ele>
        <time>2011-01-23T09:46:58Z</time>
      </trkpt>
      <trkpt lat="49.19025" lon="7.0069">
        <ele>294</ele>
        <time>2011-01-23T09:46:59Z</time>
      </trkpt>
      <trkpt lat="49.19025" lon="7.00688">
        <ele>294</ele>
        <time>2011-01-23T09:47:00Z</time>
      </trkpt>
      <trkpt lat="49.19024" lon="7.00686">
        <ele>294</ele>
        <time>2011-01-23T09:47:01Z</time>
      </trkpt>
      <trkpt lat="49.19024" lon="7.00684">
        <ele>294</ele>
        <time>2011-01-23T09:47:02Z</time>
      </trkpt>
      <trkpt lat="49.19023" lon="7.00681">
        <ele>294</ele>
        <time>2011-01-23T09:47:04Z</time>
      </trkpt>
      <trkpt lat="49.19022" lon="7.00678">
        <ele>294</ele>
        <time>2011-01-23T09:47:06Z</time>
      </trkpt>
      <trkpt lat="49.19021" lon="7.00676">
        <ele>294</ele>
        <time>2011-01-23T09:47:07Z</time>
      </trkpt>
      <trkpt lat="49.1902" lon="7.00673">
        <ele>294</ele>
        <time>2011-01-23T09:47:08Z</time>
      </trkpt>
      <trkpt lat="49.1902" lon="7.00672">
        <ele>294</ele>
        <time>2011-01-23T09:47:09Z</time>
      </trkpt>
      <trkpt lat="49.19019" lon="7.0067">
        <ele>294</ele>
        <time>2011-01-23T09:47:10Z</time>
      </trkpt>
      <trkpt lat="49.19018" lon="7.00668">
        <ele>294</ele>
        <time>2011-01-23T09:47:11Z</time>
      </trkpt>
      <trkpt lat="49.19018" lon="7.00666">
        <ele>294</ele>
        <time>2011-01-23T09:47:12Z</time>
      </trkpt>
      <trkpt lat="49.19017" lon="7.00663">
        <ele>294</ele>
        <time>2011-01-23T09:47:14Z</time>
      </trkpt>
      <trkpt lat="49.19017" lon="7.0066">
        <ele>294</ele>
        <time>2011-01-23T09:47:16Z</time>
      </trkpt>
      <trkpt lat="49.19016" lon="7.00657">
        <ele>294</ele>
        <time>2011-01-23T09:47:18Z</time>
      </trkpt>
      <trkpt lat="49.19015" lon="7.00655">
        <ele>294</ele>
        <time>2011-01-23T09:47:19Z</time>
      </trkpt>
      <trkpt lat="49.19015" lon="7.00653">
        <ele>294</ele>
        <time>2011-01-23T09:47:20Z</time>
      </trkpt>
      <trkpt lat="49.19014" lon="7.00651">
        <ele>294</ele>
        <time>2011-01-23T09:47:21Z</time>
      </trkpt>
      <trkpt lat="49.19013" lon="7.00648">
        <ele>294</ele>
        <time>2011-01-23T09:47:23Z</time>
      </trkpt>
      <trkpt lat="49.19012" lon="7.00646">
        <ele>294</ele>
        <time>2011-01-23T09:47:24Z</time>
      </trkpt>
      <trkpt lat="49.19012" lon="7.00644">
        <ele>294</ele>
        <time>2011-01-23T09:47:25Z</time>
      </trkpt>
      <trkpt lat="49.19011" lon="7.00641">
        <ele>293</ele>
        <time>2011-01-23T09:47:27Z</time>
      </trkpt>
      <trkpt lat="49.19011" lon="7.00639">
        <ele>293</ele>
        <time>2011-01-23T09:47:28Z</time>
      </trkpt>
      <trkpt lat="49.1901" lon="7.00636">
        <ele>293</ele>
        <time>2011-01-23T09:47:30Z</time>
      </trkpt>
      <trkpt lat="49.19009" lon="7.00634">
        <ele>293</ele>
        <time>2011-01-23T09:47:32Z</time>
      </trkpt>
      <trkpt lat="49.19009" lon="7.00631">
        <ele>293</ele>
        <time>2011-01-23T09:47:34Z</time>
      </trkpt>
      <trkpt lat="49.19008" lon="7.00629">
        <ele>293</ele>
        <time>2011-01-23T09:47:35Z</time>
      </trkpt>
      <trkpt lat="49.19007" lon="7.00626">
        <ele>293</ele>
        <time>2011-01-23T09:47:36Z</time>
      </trkpt>
      <trkpt lat="49.19006" lon="7.00623">
        <ele>293</ele>
        <time>2011-01-23T09:47:37Z</time>
      </trkpt>
      <trkpt lat="49.19006" lon="7.00621">
        <ele>293</ele>
        <time>2011-01-23T09:47:38Z</time>
      </trkpt>
      <trkpt lat="49.19006" lon="7.00619">
        <ele>293</ele>
        <time>2011-01-23T09:47:40Z</time>
      </trkpt>
      <trkpt lat="49.19005" lon="7.00617">
        <ele>293</ele>
        <time>2011-01-23T09:47:42Z</time>
      </trkpt>
      <trkpt lat="49.19004" lon="7.00614">
        <ele>293</ele>
        <time>2011-01-23T09:47:44Z</time>
      </trkpt>
      <trkpt lat="49.19004" lon="7.00611">
        <ele>293</ele>
        <time>2011-01-23T09:47:46Z</time>
      </trkpt>
      <trkpt lat="49.19003" lon="7.00609">
        <ele>293</ele>
        <time>2011-01-23T09:47:47Z</time>
      </trkpt>
      <trkpt lat="49.19003" lon="7.00607">
        <ele>293</ele>
        <time>2011-01-23T09:47:48Z</time>
      </trkpt>
      <trkpt lat="49.19003" lon="7.00605">
        <ele>293</ele>
        <time>2011-01-23T09:47:49Z</time>
      </trkpt>
      <trkpt lat="49.19002" lon="7.00603">
        <ele>293</ele>
        <time>2011-01-23T09:47:50Z</time>
      </trkpt>
      <trkpt lat="49.19002" lon="7.00601">
        <ele>293</ele>
        <time>2011-01-23T09:47:51Z</time>
      </trkpt>
      <trkpt lat="49.19001" lon="7.00599">
        <ele>293</ele>
        <time>2011-01-23T09:47:52Z</time>
      </trkpt>
      <trkpt lat="49.19001" lon="7.00597">
        <ele>293</ele>
        <time>2011-01-23T09:47:53Z</time>
      </trkpt>
      <trkpt lat="49.18999" lon="7.00595">
        <ele>293</ele>
        <time>2011-01-23T09:47:54Z</time>
      </trkpt>
      <trkpt lat="49.18999" lon="7.00593">
        <ele>293</ele>
        <time>2011-01-23T09:47:55Z</time>
      </trkpt>
      <trkpt lat="49.18999" lon="7.00591">
        <ele>293</ele>
        <time>2011-01-23T09:47:56Z</time>
      </trkpt>
      <trkpt lat="49.18998" lon="7.00588">
        <ele>293</ele>
        <time>2011-01-23T09:47:58Z</time>
      </trkpt>
      <trkpt lat="49.18998" lon="7.00586">
        <ele>293</ele>
        <time>2011-01-23T09:47:59Z</time>
      </trkpt>
      <trkpt lat="49.18997" lon="7.00584">
        <ele>293</ele>
        <time>2011-01-23T09:48:00Z</time>
      </trkpt>
      <trkpt lat="49.18996" lon="7.00581">
        <ele>293</ele>
        <time>2011-01-23T09:48:02Z</time>
      </trkpt>
      <trkpt lat="49.18996" lon="7.00579">
        <ele>293</ele>
        <time>2011-01-23T09:48:03Z</time>
      </trkpt>
      <trkpt lat="49.18995" lon="7.00577">
        <ele>293</ele>
        <time>2011-01-23T09:48:04Z</time>
      </trkpt>
      <trkpt lat="49.18995" lon="7.00575">
        <ele>293</ele>
        <time>2011-01-23T09:48:05Z</time>
      </trkpt>
      <trkpt lat="49.18994" lon="7.00573">
        <ele>293</ele>
        <time>2011-01-23T09:48:06Z</time>
      </trkpt>
      <trkpt lat="49.18993" lon="7.00571">
        <ele>293</ele>
        <time>2011-01-23T09:48:08Z</time>
      </trkpt>
      <trkpt lat="49.18993" lon="7.00569">
        <ele>293</ele>
        <time>2011-01-23T09:48:09Z</time>
      </trkpt>
      <trkpt lat="49.18992" lon="7.00566">
        <ele>293</ele>
        <time>2011-01-23T09:48:11Z</time>
      </trkpt>
      <trkpt lat="49.1899" lon="7.00563">
        <ele>293</ele>
        <time>2011-01-23T09:48:13Z</time>
      </trkpt>
      <trkpt lat="49.1899" lon="7.00561">
        <ele>293</ele>
        <time>2011-01-23T09:48:14Z</time>
      </trkpt>
      <trkpt lat="49.18989" lon="7.00559">
        <ele>293</ele>
        <time>2011-01-23T09:48:15Z</time>
      </trkpt>
      <trkpt lat="49.18989" lon="7.00557">
        <ele>293</ele>
        <time>2011-01-23T09:48:16Z</time>
      </trkpt>
      <trkpt lat="49.18989" lon="7.00554">
        <ele>293</ele>
        <time>2011-01-23T09:48:17Z</time>
      </trkpt>
      <trkpt lat="49.18988" lon="7.00552">
        <ele>293</ele>
        <time>2011-01-23T09:48:18Z</time>
      </trkpt>
      <trkpt lat="49.18988" lon="7.0055">
        <ele>293</ele>
        <time>2011-01-23T09:48:19Z</time>
      </trkpt>
      <trkpt lat="49.18987" lon="7.00548">
        <ele>293</ele>
        <time>2011-01-23T09:48:20Z</time>
      </trkpt>
      <trkpt lat="49.18987" lon="7.00546">
        <ele>293</ele>
        <time>2011-01-23T09:48:21Z</time>
      </trkpt>
      <trkpt lat="49.18986" lon="7.00544">
        <ele>293</ele>
        <time>2011-01-23T09:48:22Z</time>
      </trkpt>
      <trkpt lat="49.18986" lon="7.00542">
        <ele>293</ele>
        <time>2011-01-23T09:48:23Z</time>
      </trkpt>
      <trkpt lat="49.18985" lon="7.00541">
        <ele>293</ele>
        <time>2011-01-23T09:48:24Z</time>
      </trkpt>
      <trkpt lat="49.18985" lon="7.00539">
        <ele>293</ele>
        <time>2011-01-23T09:48:25Z</time>
      </trkpt>
      <trkpt lat="49.18985" lon="7.00537">
        <ele>293</ele>
        <time>2011-01-23T09:48:26Z</time>
      </trkpt>
      <trkpt lat="49.18985" lon="7.00535">
        <ele>293</ele>
        <time>2011-01-23T09:48:28Z</time>
      </trkpt>
      <trkpt lat="49.18985" lon="7.00532">
        <ele>293</ele>
        <time>2011-01-23T09:48:30Z</time>
      </trkpt>
      <trkpt lat="49.18984" lon="7.0053">
        <ele>293</ele>
        <time>2011-01-23T09:48:31Z</time>
      </trkpt>
      <trkpt lat="49.18983" lon="7.00528">
        <ele>293</ele>
        <time>2011-01-23T09:48:32Z</time>
      </trkpt>
      <trkpt lat="49.18983" lon="7.00526">
        <ele>293</ele>
        <time>2011-01-23T09:48:33Z</time>
      </trkpt>
      <trkpt lat="49.18983" lon="7.00524">
        <ele>293</ele>
        <time>2011-01-23T09:48:34Z</time>
      </trkpt>
      <trkpt lat="49.18982" lon="7.00523">
        <ele>293</ele>
        <time>2011-01-23T09:48:47Z</time>
      </trkpt>
      <trkpt lat="49.18982" lon="7.00521">
        <ele>293</ele>
        <time>2011-01-23T09:48:48Z</time>
      </trkpt>
      <trkpt lat="49.18981" lon="7.00519">
        <ele>293</ele>
        <time>2011-01-23T09:48:49Z</time>
      </trkpt>
      <trkpt lat="49.18981" lon="7.00517">
        <ele>293</ele>
        <time>2011-01-23T09:48:50Z</time>
      </trkpt>
      <trkpt lat="49.1898" lon="7.00516">
        <ele>293</ele>
        <time>2011-01-23T09:48:51Z</time>
      </trkpt>
      <trkpt lat="49.1898" lon="7.00514">
        <ele>293</ele>
        <time>2011-01-23T09:48:52Z</time>
      </trkpt>
      <trkpt lat="49.1898" lon="7.00512">
        <ele>293</ele>
        <time>2011-01-23T09:48:53Z</time>
      </trkpt>
      <trkpt lat="49.18979" lon="7.0051">
        <ele>293</ele>
        <time>2011-01-23T09:48:54Z</time>
      </trkpt>
      <trkpt lat="49.18979" lon="7.00508">
        <ele>293</ele>
        <time>2011-01-23T09:48:55Z</time>
      </trkpt>
      <trkpt lat="49.18979" lon="7.00505">
        <ele>293</ele>
        <time>2011-01-23T09:48:57Z</time>
      </trkpt>
      <trkpt lat="49.18978" lon="7.00504">
        <ele>293</ele>
        <time>2011-01-23T09:48:58Z</time>
      </trkpt>
      <trkpt lat="49.18978" lon="7.00502">
        <ele>293</ele>
        <time>2011-01-23T09:48:59Z</time>
      </trkpt>
      <trkpt lat="49.18977" lon="7.005">
        <ele>293</ele>
        <time>2011-01-23T09:49:00Z</time>
      </trkpt>
      <trkpt lat="49.18977" lon="7.00496">
        <ele>292</ele>
        <time>2011-01-23T09:49:02Z</time>
      </trkpt>
      <trkpt lat="49.18976" lon="7.00494">
        <ele>292</ele>
        <time>2011-01-23T09:49:03Z</time>
      </trkpt>
      <trkpt lat="49.18975" lon="7.00493">
        <ele>292</ele>
        <time>2011-01-23T09:49:04Z</time>
      </trkpt>
      <trkpt lat="49.18975" lon="7.00491">
        <ele>292</ele>
        <time>2011-01-23T09:49:05Z</time>
      </trkpt>
      <trkpt lat="49.18974" lon="7.00489">
        <ele>292</ele>
        <time>2011-01-23T09:49:06Z</time>
      </trkpt>
      <trkpt lat="49.18974" lon="7.00487">
        <ele>292</ele>
        <time>2011-01-23T09:49:07Z</time>
      </trkpt>
      <trkpt lat="49.18973" lon="7.00485">
        <ele>292</ele>
        <time>2011-01-23T09:49:08Z</time>
      </trkpt>
      <trkpt lat="49.18972" lon="7.00483">
        <ele>292</ele>
        <time>2011-01-23T09:49:09Z</time>
      </trkpt>
      <trkpt lat="49.1897" lon="7.0048">
        <ele>291</ele>
        <time>2011-01-23T09:49:11Z</time>
      </trkpt>
      <trkpt lat="49.1897" lon="7.00477">
        <ele>291</ele>
        <time>2011-01-23T09:49:13Z</time>
      </trkpt>
      <trkpt lat="49.18969" lon="7.00475">
        <ele>291</ele>
        <time>2011-01-23T09:49:14Z</time>
      </trkpt>
      <trkpt lat="49.18969" lon="7.00472">
        <ele>291</ele>
        <time>2011-01-23T09:49:16Z</time>
      </trkpt>
      <trkpt lat="49.18968" lon="7.00469">
        <ele>290</ele>
        <time>2011-01-23T09:49:18Z</time>
      </trkpt>
      <trkpt lat="49.18967" lon="7.00466">
        <ele>290</ele>
        <time>2011-01-23T09:49:20Z</time>
      </trkpt>
      <trkpt lat="49.18966" lon="7.00464">
        <ele>290</ele>
        <time>2011-01-23T09:49:21Z</time>
      </trkpt>
      <trkpt lat="49.18965" lon="7.00462">
        <ele>289</ele>
        <time>2011-01-23T09:49:22Z</time>
      </trkpt>
      <trkpt lat="49.18964" lon="7.0046">
        <ele>289</ele>
        <time>2011-01-23T09:49:23Z</time>
      </trkpt>
      <trkpt lat="49.18964" lon="7.00458">
        <ele>289</ele>
        <time>2011-01-23T09:49:24Z</time>
      </trkpt>
      <trkpt lat="49.18962" lon="7.00455">
        <ele>289</ele>
        <time>2011-01-23T09:49:26Z</time>
      </trkpt>
      <trkpt lat="49.18961" lon="7.00453">
        <ele>289</ele>
        <time>2011-01-23T09:49:27Z</time>
      </trkpt>
      <trkpt lat="49.18961" lon="7.00451">
        <ele>289</ele>
        <time>2011-01-23T09:49:29Z</time>
      </trkpt>
      <trkpt lat="49.1896" lon="7.00449">
        <ele>288</ele>
        <time>2011-01-23T09:49:31Z</time>
      </trkpt>
      <trkpt lat="49.18959" lon="7.00447">
        <ele>288</ele>
        <time>2011-01-23T09:49:33Z</time>
      </trkpt>
      <trkpt lat="49.18959" lon="7.00445">
        <ele>287</ele>
        <time>2011-01-23T09:49:35Z</time>
      </trkpt>
      <trkpt lat="49.18957" lon="7.00443">
        <ele>287</ele>
        <time>2011-01-23T09:49:36Z</time>
      </trkpt>
      <trkpt lat="49.18956" lon="7.0044">
        <ele>286</ele>
        <time>2011-01-23T09:49:37Z</time>
      </trkpt>
      <trkpt lat="49.18955" lon="7.00439">
        <ele>286</ele>
        <time>2011-01-23T09:49:38Z</time>
      </trkpt>
      <trkpt lat="49.18953" lon="7.00437">
        <ele>286</ele>
        <time>2011-01-23T09:49:39Z</time>
      </trkpt>
      <trkpt lat="49.18952" lon="7.00435">
        <ele>286</ele>
        <time>2011-01-23T09:49:40Z</time>
      </trkpt>
      <trkpt lat="49.18951" lon="7.00433">
        <ele>286</ele>
        <time>2011-01-23T09:49:41Z</time>
      </trkpt>
      <trkpt lat="49.18949" lon="7.00431">
        <ele>286</ele>
        <time>2011-01-23T09:49:42Z</time>
      </trkpt>
      <trkpt lat="49.18948" lon="7.00429">
        <ele>286</ele>
        <time>2011-01-23T09:49:43Z</time>
      </trkpt>
      <trkpt lat="49.18946" lon="7.00426">
        <ele>286</ele>
        <time>2011-01-23T09:49:45Z</time>
      </trkpt>
      <trkpt lat="49.18945" lon="7.00424">
        <ele>286</ele>
        <time>2011-01-23T09:49:46Z</time>
      </trkpt>
      <trkpt lat="49.18944" lon="7.00422">
        <ele>286</ele>
        <time>2011-01-23T09:49:48Z</time>
      </trkpt>
      <trkpt lat="49.18943" lon="7.0042">
        <ele>286</ele>
        <time>2011-01-23T09:49:50Z</time>
      </trkpt>
      <trkpt lat="49.18941" lon="7.00417">
        <ele>286</ele>
        <time>2011-01-23T09:49:52Z</time>
      </trkpt>
      <trkpt lat="49.1894" lon="7.00416">
        <ele>286</ele>
        <time>2011-01-23T09:49:53Z</time>
      </trkpt>
      <trkpt lat="49.18938" lon="7.00413">
        <ele>286</ele>
        <time>2011-01-23T09:49:55Z</time>
      </trkpt>
      <trkpt lat="49.18937" lon="7.00411">
        <ele>286</ele>
        <time>2011-01-23T09:49:56Z</time>
      </trkpt>
      <trkpt lat="49.18936" lon="7.00409">
        <ele>286</ele>
        <time>2011-01-23T09:49:57Z</time>
      </trkpt>
      <trkpt lat="49.18935" lon="7.00407">
        <ele>286</ele>
        <time>2011-01-23T09:49:58Z</time>
      </trkpt>
      <trkpt lat="49.18934" lon="7.00405">
        <ele>286</ele>
        <time>2011-01-23T09:49:59Z</time>
      </trkpt>
      <trkpt lat="49.18933" lon="7.00403">
        <ele>286</ele>
        <time>2011-01-23T09:50:00Z</time>
      </trkpt>
      <trkpt lat="49.18933" lon="7.00401">
        <ele>286</ele>
        <time>2011-01-23T09:50:01Z</time>
      </trkpt>
      <trkpt lat="49.18932" lon="7.00398">
        <ele>286</ele>
        <time>2011-01-23T09:50:03Z</time>
      </trkpt>
      <trkpt lat="49.18931" lon="7.00395">
        <ele>286</ele>
        <time>2011-01-23T09:50:05Z</time>
      </trkpt>
      <trkpt lat="49.18929" lon="7.00392">
        <ele>286</ele>
        <time>2011-01-23T09:50:07Z</time>
      </trkpt>
      <trkpt lat="49.18928" lon="7.0039">
        <ele>286</ele>
        <time>2011-01-23T09:50:08Z</time>
      </trkpt>
      <trkpt lat="49.18927" lon="7.00387">
        <ele>286</ele>
        <time>2011-01-23T09:50:09Z</time>
      </trkpt>
      <trkpt lat="49.18926" lon="7.00386">
        <ele>286</ele>
        <time>2011-01-23T09:50:10Z</time>
      </trkpt>
      <trkpt lat="49.18925" lon="7.00384">
        <ele>286</ele>
        <time>2011-01-23T09:50:11Z</time>
      </trkpt>
      <trkpt lat="49.18923" lon="7.00381">
        <ele>286</ele>
        <time>2011-01-23T09:50:13Z</time>
      </trkpt>
      <trkpt lat="49.18922" lon="7.00379">
        <ele>286</ele>
        <time>2011-01-23T09:50:14Z</time>
      </trkpt>
      <trkpt lat="49.18921" lon="7.00377">
        <ele>286</ele>
        <time>2011-01-23T09:50:15Z</time>
      </trkpt>
      <trkpt lat="49.1892" lon="7.00376">
        <ele>286</ele>
        <time>2011-01-23T09:50:16Z</time>
      </trkpt>
      <trkpt lat="49.18919" lon="7.00373">
        <ele>286</ele>
        <time>2011-01-23T09:50:18Z</time>
      </trkpt>
      <trkpt lat="49.18917" lon="7.0037">
        <ele>286</ele>
        <time>2011-01-23T09:50:20Z</time>
      </trkpt>
      <trkpt lat="49.18916" lon="7.00367">
        <ele>286</ele>
        <time>2011-01-23T09:50:22Z</time>
      </trkpt>
      <trkpt lat="49.18914" lon="7.00364">
        <ele>286</ele>
        <time>2011-01-23T09:50:24Z</time>
      </trkpt>
      <trkpt lat="49.18913" lon="7.00361">
        <ele>286</ele>
        <time>2011-01-23T09:50:26Z</time>
      </trkpt>
      <trkpt lat="49.18911" lon="7.00358">
        <ele>286</ele>
        <time>2011-01-23T09:50:28Z</time>
      </trkpt>
      <trkpt lat="49.1891" lon="7.00355">
        <ele>286</ele>
        <time>2011-01-23T09:50:30Z</time>
      </trkpt>
      <trkpt lat="49.18909" lon="7.00354">
        <ele>286</ele>
        <time>2011-01-23T09:50:31Z</time>
      </trkpt>
      <trkpt lat="49.18908" lon="7.00352">
        <ele>286</ele>
        <time>2011-01-23T09:50:32Z</time>
      </trkpt>
      <trkpt lat="49.18907" lon="7.0035">
        <ele>286</ele>
        <time>2011-01-23T09:50:33Z</time>
      </trkpt>
      <trkpt lat="49.18906" lon="7.00348">
        <ele>286</ele>
        <time>2011-01-23T09:50:34Z</time>
      </trkpt>
      <trkpt lat="49.18905" lon="7.00347">
        <ele>286</ele>
        <time>2011-01-23T09:50:35Z</time>
      </trkpt>
      <trkpt lat="49.18904" lon="7.00345">
        <ele>286</ele>
        <time>2011-01-23T09:50:36Z</time>
      </trkpt>
      <trkpt lat="49.18903" lon="7.00343">
        <ele>286</ele>
        <time>2011-01-23T09:50:37Z</time>
      </trkpt>
      <trkpt lat="49.18901" lon="7.0034">
        <ele>287</ele>
        <time>2011-01-23T09:50:39Z</time>
      </trkpt>
      <trkpt lat="49.189" lon="7.00337">
        <ele>287</ele>
        <time>2011-01-23T09:50:41Z</time>
      </trkpt>
      <trkpt lat="49.18898" lon="7.00335">
        <ele>287</ele>
        <time>2011-01-23T09:50:43Z</time>
      </trkpt>
      <trkpt lat="49.18897" lon="7.00333">
        <ele>287</ele>
        <time>2011-01-23T09:50:44Z</time>
      </trkpt>
      <trkpt lat="49.18896" lon="7.00332">
        <ele>287</ele>
        <time>2011-01-23T09:50:45Z</time>
      </trkpt>
      <trkpt lat="49.18895" lon="7.0033">
        <ele>287</ele>
        <time>2011-01-23T09:50:46Z</time>
      </trkpt>
      <trkpt lat="49.18895" lon="7.00328">
        <ele>287</ele>
        <time>2011-01-23T09:50:47Z</time>
      </trkpt>
      <trkpt lat="49.18893" lon="7.00326">
        <ele>287</ele>
        <time>2011-01-23T09:50:48Z</time>
      </trkpt>
      <trkpt lat="49.18893" lon="7.00324">
        <ele>287</ele>
        <time>2011-01-23T09:50:49Z</time>
      </trkpt>
      <trkpt lat="49.18892" lon="7.00322">
        <ele>287</ele>
        <time>2011-01-23T09:50:50Z</time>
      </trkpt>
      <trkpt lat="49.1889" lon="7.00319">
        <ele>287</ele>
        <time>2011-01-23T09:50:52Z</time>
      </trkpt>
      <trkpt lat="49.18889" lon="7.00316">
        <ele>287</ele>
        <time>2011-01-23T09:50:54Z</time>
      </trkpt>
      <trkpt lat="49.18888" lon="7.00313">
        <ele>287</ele>
        <time>2011-01-23T09:50:56Z</time>
      </trkpt>
      <trkpt lat="49.18887" lon="7.00311">
        <ele>287</ele>
        <time>2011-01-23T09:50:57Z</time>
      </trkpt>
      <trkpt lat="49.18886" lon="7.00309">
        <ele>287</ele>
        <time>2011-01-23T09:50:58Z</time>
      </trkpt>
      <trkpt lat="49.18885" lon="7.00307">
        <ele>287</ele>
        <time>2011-01-23T09:50:59Z</time>
      </trkpt>
      <trkpt lat="49.18885" lon="7.00305">
        <ele>288</ele>
        <time>2011-01-23T09:51:00Z</time>
      </trkpt>
      <trkpt lat="49.18884" lon="7.00304">
        <ele>288</ele>
        <time>2011-01-23T09:51:01Z</time>
      </trkpt>
      <trkpt lat="49.18883" lon="7.00302">
        <ele>288</ele>
        <time>2011-01-23T09:51:02Z</time>
      </trkpt>
      <trkpt lat="49.18883" lon="7.003">
        <ele>288</ele>
        <time>2011-01-23T09:51:03Z</time>
      </trkpt>
      <trkpt lat="49.18883" lon="7.00298">
        <ele>288</ele>
        <time>2011-01-23T09:51:04Z</time>
      </trkpt>
      <trkpt lat="49.18882" lon="7.00295">
        <ele>288</ele>
        <time>2011-01-23T09:51:05Z</time>
      </trkpt>
      <trkpt lat="49.18882" lon="7.00293">
        <ele>288</ele>
        <time>2011-01-23T09:51:06Z</time>
      </trkpt>
      <trkpt lat="49.18882" lon="7.00291">
        <ele>288</ele>
        <time>2011-01-23T09:51:07Z</time>
      </trkpt>
      <trkpt lat="49.18881" lon="7.0029">
        <ele>288</ele>
        <time>2011-01-23T09:51:08Z</time>
      </trkpt>
      <trkpt lat="49.18881" lon="7.00288">
        <ele>288</ele>
        <time>2011-01-23T09:51:09Z</time>
      </trkpt>
      <trkpt lat="49.1888" lon="7.00285">
        <ele>288</ele>
        <time>2011-01-23T09:51:11Z</time>
      </trkpt>
      <trkpt lat="49.1888" lon="7.00283">
        <ele>288</ele>
        <time>2011-01-23T09:51:13Z</time>
      </trkpt>
      <trkpt lat="49.18879" lon="7.0028">
        <ele>288</ele>
        <time>2011-01-23T09:51:15Z</time>
      </trkpt>
      <trkpt lat="49.18878" lon="7.00278">
        <ele>288</ele>
        <time>2011-01-23T09:51:16Z</time>
      </trkpt>
      <trkpt lat="49.18878" lon="7.00276">
        <ele>288</ele>
        <time>2011-01-23T09:51:17Z</time>
      </trkpt>
      <trkpt lat="49.18877" lon="7.00274">
        <ele>288</ele>
        <time>2011-01-23T09:51:19Z</time>
      </trkpt>
      <trkpt lat="49.18876" lon="7.00271">
        <ele>288</ele>
        <time>2011-01-23T09:51:21Z</time>
      </trkpt>
      <trkpt lat="49.18874" lon="7.00268">
        <ele>288</ele>
        <time>2011-01-23T09:51:23Z</time>
      </trkpt>
      <trkpt lat="49.18874" lon="7.00265">
        <ele>288</ele>
        <time>2011-01-23T09:51:25Z</time>
      </trkpt>
      <trkpt lat="49.18872" lon="7.00263">
        <ele>288</ele>
        <time>2011-01-23T09:51:27Z</time>
      </trkpt>
      <trkpt lat="49.18871" lon="7.00261">
        <ele>288</ele>
        <time>2011-01-23T09:51:30Z</time>
      </trkpt>
      <trkpt lat="49.1887" lon="7.00259">
        <ele>288</ele>
        <time>2011-01-23T09:51:34Z</time>
      </trkpt>
      <trkpt lat="49.1887" lon="7.00257">
        <ele>288</ele>
        <time>2011-01-23T09:51:38Z</time>
      </trkpt>
      <trkpt lat="49.18869" lon="7.00257">
        <ele>288</ele>
        <time>2011-01-23T09:51:43Z</time>
      </trkpt>
      <trkpt lat="49.18868" lon="7.00254">
        <ele>288</ele>
        <time>2011-01-23T09:51:47Z</time>
      </trkpt>
      <trkpt lat="49.18866" lon="7.00252">
        <ele>288</ele>
        <time>2011-01-23T09:51:50Z</time>
      </trkpt>
      <trkpt lat="49.18865" lon="7.0025">
        <ele>288</ele>
        <time>2011-01-23T09:51:52Z</time>
      </trkpt>
      <trkpt lat="49.18863" lon="7.00249">
        <ele>288</ele>
        <time>2011-01-23T09:51:53Z</time>
      </trkpt>
      <trkpt lat="49.18862" lon="7.00247">
        <ele>288</ele>
        <time>2011-01-23T09:51:55Z</time>
      </trkpt>
      <trkpt lat="49.1886" lon="7.00246">
        <ele>288</ele>
        <time>2011-01-23T09:51:56Z</time>
      </trkpt>
      <trkpt lat="49.18859" lon="7.00245">
        <ele>288</ele>
        <time>2011-01-23T09:51:57Z</time>
      </trkpt>
      <trkpt lat="49.18858" lon="7.00244">
        <ele>288</ele>
        <time>2011-01-23T09:51:58Z</time>
      </trkpt>
      <trkpt lat="49.18856" lon="7.00243">
        <ele>288</ele>
        <time>2011-01-23T09:52:00Z</time>
      </trkpt>
      <trkpt lat="49.18855" lon="7.00241">
        <ele>288</ele>
        <time>2011-01-23T09:52:02Z</time>
      </trkpt>
      <trkpt lat="49.18853" lon="7.0024">
        <ele>287</ele>
        <time>2011-01-23T09:52:04Z</time>
      </trkpt>
      <trkpt lat="49.18852" lon="7.00237">
        <ele>286</ele>
        <time>2011-01-23T09:52:06Z</time>
      </trkpt>
      <trkpt lat="49.1885" lon="7.00234">
        <ele>286</ele>
        <time>2011-01-23T09:52:08Z</time>
      </trkpt>
      <trkpt lat="49.18848" lon="7.00232">
        <ele>285</ele>
        <time>2011-01-23T09:52:10Z</time>
      </trkpt>
      <trkpt lat="49.18847" lon="7.00231">
        <ele>285</ele>
        <time>2011-01-23T09:52:12Z</time>
      </trkpt>
      <trkpt lat="49.18845" lon="7.0023">
        <ele>285</ele>
        <time>2011-01-23T09:52:14Z</time>
      </trkpt>
      <trkpt lat="49.18842" lon="7.00229">
        <ele>285</ele>
        <time>2011-01-23T09:52:16Z</time>
      </trkpt>
      <trkpt lat="49.18841" lon="7.00229">
        <ele>285</ele>
        <time>2011-01-23T09:52:17Z</time>
      </trkpt>
      <trkpt lat="49.1884" lon="7.00229">
        <ele>285</ele>
        <time>2011-01-23T09:52:18Z</time>
      </trkpt>
      <trkpt lat="49.18839" lon="7.0023">
        <ele>285</ele>
        <time>2011-01-23T09:52:19Z</time>
      </trkpt>
      <trkpt lat="49.18837" lon="7.0023">
        <ele>285</ele>
        <time>2011-01-23T09:52:21Z</time>
      </trkpt>
      <trkpt lat="49.18836" lon="7.00228">
        <ele>285</ele>
        <time>2011-01-23T09:52:38Z</time>
      </trkpt>
      <trkpt lat="49.18835" lon="7.00226">
        <ele>285</ele>
        <time>2011-01-23T09:52:39Z</time>
      </trkpt>
      <trkpt lat="49.18834" lon="7.00224">
        <ele>285</ele>
        <time>2011-01-23T09:52:40Z</time>
      </trkpt>
      <trkpt lat="49.18832" lon="7.00222">
        <ele>285</ele>
        <time>2011-01-23T09:52:41Z</time>
      </trkpt>
      <trkpt lat="49.18831" lon="7.0022">
        <ele>285</ele>
        <time>2011-01-23T09:52:42Z</time>
      </trkpt>
      <trkpt lat="49.1883" lon="7.00219">
        <ele>285</ele>
        <time>2011-01-23T09:52:43Z</time>
      </trkpt>
      <trkpt lat="49.18828" lon="7.00218">
        <ele>285</ele>
        <time>2011-01-23T09:52:44Z</time>
      </trkpt>
      <trkpt lat="49.18827" lon="7.00217">
        <ele>285</ele>
        <time>2011-01-23T09:52:45Z</time>
      </trkpt>
      <trkpt lat="49.18825" lon="7.00216">
        <ele>285</ele>
        <time>2011-01-23T09:52:46Z</time>
      </trkpt>
      <trkpt lat="49.18824" lon="7.00216">
        <ele>285</ele>
        <time>2011-01-23T09:52:47Z</time>
      </trkpt>
      <trkpt lat="49.18821" lon="7.00216">
        <ele>285</ele>
        <time>2011-01-23T09:52:48Z</time>
      </trkpt>
      <trkpt lat="49.18819" lon="7.00217">
        <ele>285</ele>
        <time>2011-01-23T09:52:49Z</time>
      </trkpt>
      <trkpt lat="49.18816" lon="7.00217">
        <ele>285</ele>
        <time>2011-01-23T09:52:50Z</time>
      </trkpt>
      <trkpt lat="49.18814" lon="7.00217">
        <ele>285</ele>
        <time>2011-01-23T09:52:51Z</time>
      </trkpt>
      <trkpt lat="49.18812" lon="7.00216">
        <ele>285</ele>
        <time>2011-01-23T09:52:52Z</time>
      </trkpt>
      <trkpt lat="49.18811" lon="7.00216">
        <ele>285</ele>
        <time>2011-01-23T09:52:53Z</time>
      </trkpt>
      <trkpt lat="49.18809" lon="7.00216">
        <ele>285</ele>
        <time>2011-01-23T09:52:57Z</time>
      </trkpt>
      <trkpt lat="49.18808" lon="7.00214">
        <ele>285</ele>
        <time>2011-01-23T09:52:59Z</time>
      </trkpt>
      <trkpt lat="49.18806" lon="7.00211">
        <ele>285</ele>
        <time>2011-01-23T09:53:01Z</time>
      </trkpt>
      <trkpt lat="49.18805" lon="7.00208">
        <ele>285</ele>
        <time>2011-01-23T09:53:03Z</time>
      </trkpt>
      <trkpt lat="49.18805" lon="7.00207">
        <ele>285</ele>
        <time>2011-01-23T09:53:04Z</time>
      </trkpt>
      <trkpt lat="49.18804" lon="7.00205">
        <ele>285</ele>
        <time>2011-01-23T09:53:05Z</time>
      </trkpt>
      <trkpt lat="49.18803" lon="7.00203">
        <ele>285</ele>
        <time>2011-01-23T09:53:06Z</time>
      </trkpt>
      <trkpt lat="49.18801" lon="7.00202">
        <ele>285</ele>
        <time>2011-01-23T09:53:07Z</time>
      </trkpt>
      <trkpt lat="49.18799" lon="7.00201">
        <ele>285</ele>
        <time>2011-01-23T09:53:09Z</time>
      </trkpt>
      <trkpt lat="49.18798" lon="7.00201">
        <ele>285</ele>
        <time>2011-01-23T09:53:10Z</time>
      </trkpt>
      <trkpt lat="49.18797" lon="7.002">
        <ele>285</ele>
        <time>2011-01-23T09:53:11Z</time>
      </trkpt>
      <trkpt lat="49.18796" lon="7.00199">
        <ele>285</ele>
        <time>2011-01-23T09:53:12Z</time>
      </trkpt>
      <trkpt lat="49.18794" lon="7.00198">
        <ele>285</ele>
        <time>2011-01-23T09:53:14Z</time>
      </trkpt>
      <trkpt lat="49.18792" lon="7.00197">
        <ele>285</ele>
        <time>2011-01-23T09:53:16Z</time>
      </trkpt>
      <trkpt lat="49.1879" lon="7.00196">
        <ele>285</ele>
        <time>2011-01-23T09:53:18Z</time>
      </trkpt>
      <trkpt lat="49.18788" lon="7.00195">
        <ele>285</ele>
        <time>2011-01-23T09:53:20Z</time>
      </trkpt>
      <trkpt lat="49.18786" lon="7.00194">
        <ele>285</ele>
        <time>2011-01-23T09:53:22Z</time>
      </trkpt>
      <trkpt lat="49.18785" lon="7.00193">
        <ele>285</ele>
        <time>2011-01-23T09:53:24Z</time>
      </trkpt>
      <trkpt lat="49.18783" lon="7.00192">
        <ele>285</ele>
        <time>2011-01-23T09:53:26Z</time>
      </trkpt>
      <trkpt lat="49.18781" lon="7.00191">
        <ele>285</ele>
        <time>2011-01-23T09:53:28Z</time>
      </trkpt>
      <trkpt lat="49.18778" lon="7.00189">
        <ele>285</ele>
        <time>2011-01-23T09:53:30Z</time>
      </trkpt>
      <trkpt lat="49.18777" lon="7.00188">
        <ele>285</ele>
        <time>2011-01-23T09:53:32Z</time>
      </trkpt>
      <trkpt lat="49.18776" lon="7.00188">
        <ele>285</ele>
        <time>2011-01-23T09:53:34Z</time>
      </trkpt>
      <trkpt lat="49.18774" lon="7.00187">
        <ele>285</ele>
        <time>2011-01-23T09:53:36Z</time>
      </trkpt>
      <trkpt lat="49.18771" lon="7.00186">
        <ele>285</ele>
        <time>2011-01-23T09:53:38Z</time>
      </trkpt>
      <trkpt lat="49.1877" lon="7.00185">
        <ele>285</ele>
        <time>2011-01-23T09:53:39Z</time>
      </trkpt>
      <trkpt lat="49.18769" lon="7.00184">
        <ele>285</ele>
        <time>2011-01-23T09:53:40Z</time>
      </trkpt>
      <trkpt lat="49.18768" lon="7.00184">
        <ele>285</ele>
        <time>2011-01-23T09:53:41Z</time>
      </trkpt>
      <trkpt lat="49.18767" lon="7.00184">
        <ele>285</ele>
        <time>2011-01-23T09:53:42Z</time>
      </trkpt>
      <trkpt lat="49.18766" lon="7.00183">
        <ele>285</ele>
        <time>2011-01-23T09:53:43Z</time>
      </trkpt>
      <trkpt lat="49.18763" lon="7.00182">
        <ele>284</ele>
        <time>2011-01-23T09:53:45Z</time>
      </trkpt>
      <trkpt lat="49.18761" lon="7.0018">
        <ele>284</ele>
        <time>2011-01-23T09:53:47Z</time>
      </trkpt>
      <trkpt lat="49.1876" lon="7.0018">
        <ele>284</ele>
        <time>2011-01-23T09:53:48Z</time>
      </trkpt>
      <trkpt lat="49.18758" lon="7.00178">
        <ele>284</ele>
        <time>2011-01-23T09:53:50Z</time>
      </trkpt>
      <trkpt lat="49.18757" lon="7.00178">
        <ele>283</ele>
        <time>2011-01-23T09:53:51Z</time>
      </trkpt>
      <trkpt lat="49.18755" lon="7.00177">
        <ele>283</ele>
        <time>2011-01-23T09:53:52Z</time>
      </trkpt>
      <trkpt lat="49.18754" lon="7.00176">
        <ele>283</ele>
        <time>2011-01-23T09:53:53Z</time>
      </trkpt>
      <trkpt lat="49.18753" lon="7.00176">
        <ele>283</ele>
        <time>2011-01-23T09:53:54Z</time>
      </trkpt>
      <trkpt lat="49.18752" lon="7.00175">
        <ele>283</ele>
        <time>2011-01-23T09:53:55Z</time>
      </trkpt>
      <trkpt lat="49.1875" lon="7.00174">
        <ele>283</ele>
        <time>2011-01-23T09:53:57Z</time>
      </trkpt>
      <trkpt lat="49.18749" lon="7.00173">
        <ele>283</ele>
        <time>2011-01-23T09:53:58Z</time>
      </trkpt>
      <trkpt lat="49.18747" lon="7.00171">
        <ele>282</ele>
        <time>2011-01-23T09:54:00Z</time>
      </trkpt>
      <trkpt lat="49.18745" lon="7.0017">
        <ele>282</ele>
        <time>2011-01-23T09:54:01Z</time>
      </trkpt>
      <trkpt lat="49.18743" lon="7.00169">
        <ele>282</ele>
        <time>2011-01-23T09:54:03Z</time>
      </trkpt>
      <trkpt lat="49.18742" lon="7.00168">
        <ele>282</ele>
        <time>2011-01-23T09:54:04Z</time>
      </trkpt>
      <trkpt lat="49.1874" lon="7.00167">
        <ele>281</ele>
        <time>2011-01-23T09:54:06Z</time>
      </trkpt>
      <trkpt lat="49.18738" lon="7.00165">
        <ele>281</ele>
        <time>2011-01-23T09:54:08Z</time>
      </trkpt>
      <trkpt lat="49.18737" lon="7.00164">
        <ele>281</ele>
        <time>2011-01-23T09:54:09Z</time>
      </trkpt>
      <trkpt lat="49.18736" lon="7.00163">
        <ele>281</ele>
        <time>2011-01-23T09:54:10Z</time>
      </trkpt>
      <trkpt lat="49.18734" lon="7.00162">
        <ele>280</ele>
        <time>2011-01-23T09:54:12Z</time>
      </trkpt>
      <trkpt lat="49.18732" lon="7.00161">
        <ele>280</ele>
        <time>2011-01-23T09:54:13Z</time>
      </trkpt>
      <trkpt lat="49.18731" lon="7.00161">
        <ele>280</ele>
        <time>2011-01-23T09:54:14Z</time>
      </trkpt>
      <trkpt lat="49.1873" lon="7.0016">
        <ele>280</ele>
        <time>2011-01-23T09:54:15Z</time>
      </trkpt>
      <trkpt lat="49.18728" lon="7.00158">
        <ele>280</ele>
        <time>2011-01-23T09:54:17Z</time>
      </trkpt>
      <trkpt lat="49.18727" lon="7.00157">
        <ele>279</ele>
        <time>2011-01-23T09:54:18Z</time>
      </trkpt>
      <trkpt lat="49.18725" lon="7.00157">
        <ele>279</ele>
        <time>2011-01-23T09:54:19Z</time>
      </trkpt>
      <trkpt lat="49.18724" lon="7.00156">
        <ele>279</ele>
        <time>2011-01-23T09:54:20Z</time>
      </trkpt>
      <trkpt lat="49.18723" lon="7.00155">
        <ele>279</ele>
        <time>2011-01-23T09:54:21Z</time>
      </trkpt>
      <trkpt lat="49.18722" lon="7.00154">
        <ele>279</ele>
        <time>2011-01-23T09:54:22Z</time>
      </trkpt>
      <trkpt lat="49.18721" lon="7.00154">
        <ele>279</ele>
        <time>2011-01-23T09:54:23Z</time>
      </trkpt>
      <trkpt lat="49.18719" lon="7.00153">
        <ele>278</ele>
        <time>2011-01-23T09:54:24Z</time>
      </trkpt>
      <trkpt lat="49.18718" lon="7.00152">
        <ele>278</ele>
        <time>2011-01-23T09:54:25Z</time>
      </trkpt>
      <trkpt lat="49.18716" lon="7.0015">
        <ele>278</ele>
        <time>2011-01-23T09:54:27Z</time>
      </trkpt>
      <trkpt lat="49.18715" lon="7.00149">
        <ele>278</ele>
        <time>2011-01-23T09:54:28Z</time>
      </trkpt>
      <trkpt lat="49.18713" lon="7.00148">
        <ele>277</ele>
        <time>2011-01-23T09:54:30Z</time>
      </trkpt>
      <trkpt lat="49.18712" lon="7.00147">
        <ele>277</ele>
        <time>2011-01-23T09:54:31Z</time>
      </trkpt>
      <trkpt lat="49.1871" lon="7.00146">
        <ele>277</ele>
        <time>2011-01-23T09:54:32Z</time>
      </trkpt>
      <trkpt lat="49.18709" lon="7.00145">
        <ele>277</ele>
        <time>2011-01-23T09:54:33Z</time>
      </trkpt>
      <trkpt lat="49.18708" lon="7.00145">
        <ele>277</ele>
        <time>2011-01-23T09:54:34Z</time>
      </trkpt>
      <trkpt lat="49.18707" lon="7.00144">
        <ele>277</ele>
        <time>2011-01-23T09:54:35Z</time>
      </trkpt>
      <trkpt lat="49.18705" lon="7.00142">
        <ele>276</ele>
        <time>2011-01-23T09:54:37Z</time>
      </trkpt>
      <trkpt lat="49.18703" lon="7.00141">
        <ele>276</ele>
        <time>2011-01-23T09:54:38Z</time>
      </trkpt>
      <trkpt lat="49.18702" lon="7.00141">
        <ele>276</ele>
        <time>2011-01-23T09:54:39Z</time>
      </trkpt>
      <trkpt lat="49.18701" lon="7.0014">
        <ele>276</ele>
        <time>2011-01-23T09:54:40Z</time>
      </trkpt>
      <trkpt lat="49.187" lon="7.00139">
        <ele>275</ele>
        <time>2011-01-23T09:54:41Z</time>
      </trkpt>
      <trkpt lat="49.18699" lon="7.00139">
        <ele>275</ele>
        <time>2011-01-23T09:54:42Z</time>
      </trkpt>
      <trkpt lat="49.18697" lon="7.00137">
        <ele>275</ele>
        <time>2011-01-23T09:54:44Z</time>
      </trkpt>
      <trkpt lat="49.18695" lon="7.00136">
        <ele>275</ele>
        <time>2011-01-23T09:54:46Z</time>
      </trkpt>
      <trkpt lat="49.18693" lon="7.00134">
        <ele>274</ele>
        <time>2011-01-23T09:54:48Z</time>
      </trkpt>
      <trkpt lat="49.18691" lon="7.00133">
        <ele>274</ele>
        <time>2011-01-23T09:54:50Z</time>
      </trkpt>
      <trkpt lat="49.18689" lon="7.00132">
        <ele>274</ele>
        <time>2011-01-23T09:54:52Z</time>
      </trkpt>
      <trkpt lat="49.18687" lon="7.0013">
        <ele>274</ele>
        <time>2011-01-23T09:54:54Z</time>
      </trkpt>
      <trkpt lat="49.18686" lon="7.00129">
        <ele>273</ele>
        <time>2011-01-23T09:54:55Z</time>
      </trkpt>
      <trkpt lat="49.18684" lon="7.00128">
        <ele>273</ele>
        <time>2011-01-23T09:54:57Z</time>
      </trkpt>
      <trkpt lat="49.18681" lon="7.00126">
        <ele>273</ele>
        <time>2011-01-23T09:54:59Z</time>
      </trkpt>
      <trkpt lat="49.1868" lon="7.00125">
        <ele>273</ele>
        <time>2011-01-23T09:55:00Z</time>
      </trkpt>
      <trkpt lat="49.18679" lon="7.00124">
        <ele>272</ele>
        <time>2011-01-23T09:55:01Z</time>
      </trkpt>
      <trkpt lat="49.18678" lon="7.00123">
        <ele>272</ele>
        <time>2011-01-23T09:55:02Z</time>
      </trkpt>
      <trkpt lat="49.18676" lon="7.00121">
        <ele>272</ele>
        <time>2011-01-23T09:55:04Z</time>
      </trkpt>
      <trkpt lat="49.18674" lon="7.00119">
        <ele>271</ele>
        <time>2011-01-23T09:55:06Z</time>
      </trkpt>
      <trkpt lat="49.18673" lon="7.00118">
        <ele>271</ele>
        <time>2011-01-23T09:55:07Z</time>
      </trkpt>
      <trkpt lat="49.18671" lon="7.00116">
        <ele>271</ele>
        <time>2011-01-23T09:55:09Z</time>
      </trkpt>
      <trkpt lat="49.18669" lon="7.00114">
        <ele>270</ele>
        <time>2011-01-23T09:55:11Z</time>
      </trkpt>
      <trkpt lat="49.18667" lon="7.00112">
        <ele>270</ele>
        <time>2011-01-23T09:55:13Z</time>
      </trkpt>
      <trkpt lat="49.18665" lon="7.0011">
        <ele>270</ele>
        <time>2011-01-23T09:55:15Z</time>
      </trkpt>
      <trkpt lat="49.18663" lon="7.00107">
        <ele>269</ele>
        <time>2011-01-23T09:55:17Z</time>
      </trkpt>
      <trkpt lat="49.18662" lon="7.00106">
        <ele>269</ele>
        <time>2011-01-23T09:55:18Z</time>
      </trkpt>
      <trkpt lat="49.18661" lon="7.00105">
        <ele>269</ele>
        <time>2011-01-23T09:55:19Z</time>
      </trkpt>
      <trkpt lat="49.1866" lon="7.00105">
        <ele>269</ele>
        <time>2011-01-23T09:55:20Z</time>
      </trkpt>
      <trkpt lat="49.18658" lon="7.00104">
        <ele>269</ele>
        <time>2011-01-23T09:55:21Z</time>
      </trkpt>
      <trkpt lat="49.18656" lon="7.00102">
        <ele>269</ele>
        <time>2011-01-23T09:55:23Z</time>
      </trkpt>
      <trkpt lat="49.18654" lon="7.001">
        <ele>268</ele>
        <time>2011-01-23T09:55:25Z</time>
      </trkpt>
      <trkpt lat="49.18653" lon="7.00097">
        <ele>268</ele>
        <time>2011-01-23T09:55:27Z</time>
      </trkpt>
      <trkpt lat="49.18652" lon="7.00095">
        <ele>267</ele>
        <time>2011-01-23T09:55:28Z</time>
      </trkpt>
      <trkpt lat="49.18652" lon="7.00094">
        <ele>267</ele>
        <time>2011-01-23T09:55:29Z</time>
      </trkpt>
      <trkpt lat="49.1865" lon="7.00091">
        <ele>267</ele>
        <time>2011-01-23T09:55:31Z</time>
      </trkpt>
      <trkpt lat="49.18649" lon="7.00088">
        <ele>266</ele>
        <time>2011-01-23T09:55:33Z</time>
      </trkpt>
      <trkpt lat="49.18647" lon="7.00086">
        <ele>266</ele>
        <time>2011-01-23T09:55:35Z</time>
      </trkpt>
      <trkpt lat="49.18646" lon="7.00086">
        <ele>265</ele>
        <time>2011-01-23T09:55:36Z</time>
      </trkpt>
      <trkpt lat="49.18644" lon="7.00084">
        <ele>265</ele>
        <time>2011-01-23T09:55:38Z</time>
      </trkpt>
      <trkpt lat="49.18642" lon="7.00081">
        <ele>265</ele>
        <time>2011-01-23T09:55:40Z</time>
      </trkpt>
      <trkpt lat="49.18641" lon="7.00079">
        <ele>264</ele>
        <time>2011-01-23T09:55:42Z</time>
      </trkpt>
      <trkpt lat="49.18639" lon="7.00076">
        <ele>264</ele>
        <time>2011-01-23T09:55:44Z</time>
      </trkpt>
      <trkpt lat="49.18638" lon="7.00074">
        <ele>263</ele>
        <time>2011-01-23T09:55:46Z</time>
      </trkpt>
      <trkpt lat="49.18636" lon="7.00072">
        <ele>263</ele>
        <time>2011-01-23T09:55:48Z</time>
      </trkpt>
      <trkpt lat="49.18635" lon="7.0007">
        <ele>262</ele>
        <time>2011-01-23T09:55:50Z</time>
      </trkpt>
      <trkpt lat="49.18634" lon="7.00067">
        <ele>261</ele>
        <time>2011-01-23T09:55:52Z</time>
      </trkpt>
      <trkpt lat="49.18632" lon="7.00065">
        <ele>260</ele>
        <time>2011-01-23T09:55:54Z</time>
      </trkpt>
      <trkpt lat="49.18631" lon="7.00062">
        <ele>260</ele>
        <time>2011-01-23T09:55:56Z</time>
      </trkpt>
      <trkpt lat="49.1863" lon="7.00059">
        <ele>259</ele>
        <time>2011-01-23T09:55:58Z</time>
      </trkpt>
      <trkpt lat="49.18629" lon="7.00056">
        <ele>258</ele>
        <time>2011-01-23T09:56:00Z</time>
      </trkpt>
      <trkpt lat="49.18628" lon="7.00053">
        <ele>258</ele>
        <time>2011-01-23T09:56:02Z</time>
      </trkpt>
      <trkpt lat="49.18627" lon="7.0005">
        <ele>257</ele>
        <time>2011-01-23T09:56:04Z</time>
      </trkpt>
      <trkpt lat="49.18626" lon="7.00048">
        <ele>257</ele>
        <time>2011-01-23T09:56:05Z</time>
      </trkpt>
      <trkpt lat="49.18626" lon="7.00046">
        <ele>256</ele>
        <time>2011-01-23T09:56:06Z</time>
      </trkpt>
      <trkpt lat="49.18626" lon="7.00045">
        <ele>256</ele>
        <time>2011-01-23T09:56:07Z</time>
      </trkpt>
      <trkpt lat="49.18625" lon="7.00041">
        <ele>255</ele>
        <time>2011-01-23T09:56:09Z</time>
      </trkpt>
      <trkpt lat="49.18624" lon="7.0004">
        <ele>255</ele>
        <time>2011-01-23T09:56:10Z</time>
      </trkpt>
      <trkpt lat="49.18624" lon="7.00038">
        <ele>255</ele>
        <time>2011-01-23T09:56:11Z</time>
      </trkpt>
      <trkpt lat="49.18624" lon="7.00036">
        <ele>254</ele>
        <time>2011-01-23T09:56:12Z</time>
      </trkpt>
      <trkpt lat="49.18625" lon="7.00034">
        <ele>253</ele>
        <time>2011-01-23T09:56:14Z</time>
      </trkpt>
      <trkpt lat="49.18626" lon="7.00031">
        <ele>252</ele>
        <time>2011-01-23T09:56:16Z</time>
      </trkpt>
      <trkpt lat="49.18626" lon="7.00028">
        <ele>251</ele>
        <time>2011-01-23T09:56:18Z</time>
      </trkpt>
      <trkpt lat="49.18627" lon="7.00025">
        <ele>250</ele>
        <time>2011-01-23T09:56:20Z</time>
      </trkpt>
      <trkpt lat="49.18628" lon="7.00022">
        <ele>250</ele>
        <time>2011-01-23T09:56:22Z</time>
      </trkpt>
      <trkpt lat="49.18628" lon="7.0002">
        <ele>249</ele>
        <time>2011-01-23T09:56:23Z</time>
      </trkpt>
      <trkpt lat="49.18628" lon="7.00018">
        <ele>249</ele>
        <time>2011-01-23T09:56:24Z</time>
      </trkpt>
      <trkpt lat="49.18629" lon="7.00015">
        <ele>249</ele>
        <time>2011-01-23T09:56:26Z</time>
      </trkpt>
      <trkpt lat="49.18631" lon="7.00012">
        <ele>248</ele>
        <time>2011-01-23T09:56:28Z</time>
      </trkpt>
      <trkpt lat="49.18632" lon="7.00009">
        <ele>247</ele>
        <time>2011-01-23T09:56:30Z</time>
      </trkpt>
      <trkpt lat="49.18632" lon="7.00008">
        <ele>247</ele>
        <time>2011-01-23T09:56:31Z</time>
      </trkpt>
      <trkpt lat="49.18632" lon="7.00005">
        <ele>246</ele>
        <time>2011-01-23T09:56:32Z</time>
      </trkpt>
      <trkpt lat="49.18633" lon="7.00004">
        <ele>246</ele>
        <time>2011-01-23T09:56:33Z</time>
      </trkpt>
      <trkpt lat="49.18634" lon="7.00002">
        <ele>246</ele>
        <time>2011-01-23T09:56:34Z</time>
      </trkpt>
      <trkpt lat="49.18635" lon="6.99999">
        <ele>245</ele>
        <time>2011-01-23T09:56:36Z</time>
      </trkpt>
      <trkpt lat="49.18635" lon="6.99995">
        <ele>245</ele>
        <time>2011-01-23T09:56:38Z</time>
      </trkpt>
      <trkpt lat="49.18636" lon="6.99992">
        <ele>245</ele>
        <time>2011-01-23T09:56:40Z</time>
      </trkpt>
      <trkpt lat="49.18637" lon="6.9999">
        <ele>245</ele>
        <time>2011-01-23T09:56:41Z</time>
      </trkpt>
      <trkpt lat="49.18636" lon="6.99988">
        <ele>245</ele>
        <time>2011-01-23T09:56:42Z</time>
      </trkpt>
      <trkpt lat="49.18636" lon="6.99985">
        <ele>245</ele>
        <time>2011-01-23T09:56:43Z</time>
      </trkpt>
      <trkpt lat="49.18636" lon="6.99983">
        <ele>245</ele>
        <time>2011-01-23T09:56:44Z</time>
      </trkpt>
      <trkpt lat="49.18635" lon="6.9998">
        <ele>245</ele>
        <time>2011-01-23T09:56:45Z</time>
      </trkpt>
      <trkpt lat="49.18635" lon="6.99977">
        <ele>245</ele>
        <time>2011-01-23T09:56:46Z</time>
      </trkpt>
      <trkpt lat="49.18635" lon="6.99975">
        <ele>245</ele>
        <time>2011-01-23T09:56:47Z</time>
      </trkpt>
      <trkpt lat="49.18635" lon="6.99973">
        <ele>245</ele>
        <time>2011-01-23T09:56:48Z</time>
      </trkpt>
      <trkpt lat="49.18636" lon="6.99971">
        <ele>245</ele>
        <time>2011-01-23T09:56:49Z</time>
      </trkpt>
      <trkpt lat="49.18636" lon="6.9997">
        <ele>245</ele>
        <time>2011-01-23T09:56:50Z</time>
      </trkpt>
      <trkpt lat="49.18637" lon="6.99968">
        <ele>245</ele>
        <time>2011-01-23T09:56:51Z</time>
      </trkpt>
      <trkpt lat="49.18637" lon="6.99966">
        <ele>245</ele>
        <time>2011-01-23T09:56:52Z</time>
      </trkpt>
      <trkpt lat="49.18638" lon="6.99965">
        <ele>245</ele>
        <time>2011-01-23T09:56:53Z</time>
      </trkpt>
      <trkpt lat="49.18638" lon="6.99963">
        <ele>245</ele>
        <time>2011-01-23T09:56:54Z</time>
      </trkpt>
      <trkpt lat="49.18639" lon="6.99961">
        <ele>245</ele>
        <time>2011-01-23T09:56:55Z</time>
      </trkpt>
      <trkpt lat="49.18639" lon="6.99958">
        <ele>245</ele>
        <time>2011-01-23T09:56:57Z</time>
      </trkpt>
      <trkpt lat="49.1864" lon="6.99955">
        <ele>245</ele>
        <time>2011-01-23T09:56:59Z</time>
      </trkpt>
      <trkpt lat="49.18641" lon="6.99952">
        <ele>245</ele>
        <time>2011-01-23T09:57:01Z</time>
      </trkpt>
      <trkpt lat="49.18643" lon="6.99949">
        <ele>244</ele>
        <time>2011-01-23T09:57:03Z</time>
      </trkpt>
      <trkpt lat="49.18644" lon="6.99947">
        <ele>243</ele>
        <time>2011-01-23T09:57:05Z</time>
      </trkpt>
      <trkpt lat="49.18644" lon="6.99944">
        <ele>243</ele>
        <time>2011-01-23T09:57:06Z</time>
      </trkpt>
      <trkpt lat="49.18644" lon="6.99942">
        <ele>242</ele>
        <time>2011-01-23T09:57:07Z</time>
      </trkpt>
      <trkpt lat="49.18643" lon="6.9994">
        <ele>242</ele>
        <time>2011-01-23T09:57:08Z</time>
      </trkpt>
      <trkpt lat="49.18643" lon="6.99936">
        <ele>242</ele>
        <time>2011-01-23T09:57:10Z</time>
      </trkpt>
      <trkpt lat="49.18644" lon="6.99933">
        <ele>242</ele>
        <time>2011-01-23T09:57:12Z</time>
      </trkpt>
      <trkpt lat="49.18644" lon="6.99931">
        <ele>241</ele>
        <time>2011-01-23T09:57:14Z</time>
      </trkpt>
      <trkpt lat="49.18643" lon="6.99928">
        <ele>241</ele>
        <time>2011-01-23T09:57:15Z</time>
      </trkpt>
      <trkpt lat="49.18642" lon="6.99926">
        <ele>241</ele>
        <time>2011-01-23T09:57:16Z</time>
      </trkpt>
      <trkpt lat="49.18642" lon="6.99924">
        <ele>241</ele>
        <time>2011-01-23T09:57:18Z</time>
      </trkpt>
      <trkpt lat="49.18642" lon="6.9992">
        <ele>241</ele>
        <time>2011-01-23T09:57:20Z</time>
      </trkpt>
      <trkpt lat="49.18643" lon="6.99917">
        <ele>241</ele>
        <time>2011-01-23T09:57:22Z</time>
      </trkpt>
      <trkpt lat="49.18645" lon="6.99914">
        <ele>241</ele>
        <time>2011-01-23T09:57:24Z</time>
      </trkpt>
      <trkpt lat="49.18645" lon="6.99913">
        <ele>241</ele>
        <time>2011-01-23T09:57:25Z</time>
      </trkpt>
      <trkpt lat="49.18647" lon="6.9991">
        <ele>240</ele>
        <time>2011-01-23T09:57:27Z</time>
      </trkpt>
      <trkpt lat="49.18649" lon="6.99907">
        <ele>239</ele>
        <time>2011-01-23T09:57:29Z</time>
      </trkpt>
      <trkpt lat="49.1865" lon="6.99904">
        <ele>238</ele>
        <time>2011-01-23T09:57:31Z</time>
      </trkpt>
      <trkpt lat="49.1865" lon="6.999">
        <ele>237</ele>
        <time>2011-01-23T09:57:33Z</time>
      </trkpt>
      <trkpt lat="49.18649" lon="6.99898">
        <ele>236</ele>
        <time>2011-01-23T09:57:34Z</time>
      </trkpt>
      <trkpt lat="49.18649" lon="6.99896">
        <ele>236</ele>
        <time>2011-01-23T09:57:36Z</time>
      </trkpt>
      <trkpt lat="49.18649" lon="6.99894">
        <ele>236</ele>
        <time>2011-01-23T09:57:40Z</time>
      </trkpt>
      <trkpt lat="49.1865" lon="6.99891">
        <ele>236</ele>
        <time>2011-01-23T09:57:42Z</time>
      </trkpt>
      <trkpt lat="49.1865" lon="6.99889">
        <ele>236</ele>
        <time>2011-01-23T09:57:43Z</time>
      </trkpt>
      <trkpt lat="49.1865" lon="6.99887">
        <ele>236</ele>
        <time>2011-01-23T09:57:44Z</time>
      </trkpt>
      <trkpt lat="49.1865" lon="6.99885">
        <ele>236</ele>
        <time>2011-01-23T09:57:45Z</time>
      </trkpt>
      <trkpt lat="49.18651" lon="6.99884">
        <ele>235</ele>
        <time>2011-01-23T09:57:46Z</time>
      </trkpt>
      <trkpt lat="49.18652" lon="6.99882">
        <ele>235</ele>
        <time>2011-01-23T09:57:47Z</time>
      </trkpt>
      <trkpt lat="49.18652" lon="6.9988">
        <ele>235</ele>
        <time>2011-01-23T09:57:48Z</time>
      </trkpt>
      <trkpt lat="49.18652" lon="6.99878">
        <ele>235</ele>
        <time>2011-01-23T09:57:49Z</time>
      </trkpt>
      <trkpt lat="49.18653" lon="6.99876">
        <ele>234</ele>
        <time>2011-01-23T09:57:50Z</time>
      </trkpt>
      <trkpt lat="49.18654" lon="6.99875">
        <ele>234</ele>
        <time>2011-01-23T09:57:51Z</time>
      </trkpt>
      <trkpt lat="49.18655" lon="6.99873">
        <ele>233</ele>
        <time>2011-01-23T09:57:52Z</time>
      </trkpt>
      <trkpt lat="49.18655" lon="6.99871">
        <ele>233</ele>
        <time>2011-01-23T09:57:53Z</time>
      </trkpt>
      <trkpt lat="49.18656" lon="6.99869">
        <ele>233</ele>
        <time>2011-01-23T09:57:54Z</time>
      </trkpt>
      <trkpt lat="49.18656" lon="6.99867">
        <ele>232</ele>
        <time>2011-01-23T09:57:55Z</time>
      </trkpt>
      <trkpt lat="49.18657" lon="6.99865">
        <ele>232</ele>
        <time>2011-01-23T09:57:56Z</time>
      </trkpt>
      <trkpt lat="49.18657" lon="6.99863">
        <ele>232</ele>
        <time>2011-01-23T09:57:57Z</time>
      </trkpt>
      <trkpt lat="49.18658" lon="6.99861">
        <ele>232</ele>
        <time>2011-01-23T09:57:58Z</time>
      </trkpt>
      <trkpt lat="49.18658" lon="6.9986">
        <ele>232</ele>
        <time>2011-01-23T09:57:59Z</time>
      </trkpt>
      <trkpt lat="49.18659" lon="6.99858">
        <ele>232</ele>
        <time>2011-01-23T09:58:00Z</time>
      </trkpt>
      <trkpt lat="49.1866" lon="6.99856">
        <ele>231</ele>
        <time>2011-01-23T09:58:01Z</time>
      </trkpt>
      <trkpt lat="49.18661" lon="6.99853">
        <ele>231</ele>
        <time>2011-01-23T09:58:03Z</time>
      </trkpt>
      <trkpt lat="49.18661" lon="6.99851">
        <ele>231</ele>
        <time>2011-01-23T09:58:04Z</time>
      </trkpt>
      <trkpt lat="49.18662" lon="6.99847">
        <ele>230</ele>
        <time>2011-01-23T09:58:06Z</time>
      </trkpt>
      <trkpt lat="49.18663" lon="6.99846">
        <ele>230</ele>
        <time>2011-01-23T09:58:07Z</time>
      </trkpt>
      <trkpt lat="49.18663" lon="6.99844">
        <ele>230</ele>
        <time>2011-01-23T09:58:08Z</time>
      </trkpt>
      <trkpt lat="49.18664" lon="6.99841">
        <ele>229</ele>
        <time>2011-01-23T09:58:10Z</time>
      </trkpt>
      <trkpt lat="49.18666" lon="6.99838">
        <ele>229</ele>
        <time>2011-01-23T09:58:12Z</time>
      </trkpt>
      <trkpt lat="49.18667" lon="6.99835">
        <ele>228</ele>
        <time>2011-01-23T09:58:14Z</time>
      </trkpt>
      <trkpt lat="49.18668" lon="6.99833">
        <ele>227</ele>
        <time>2011-01-23T09:58:16Z</time>
      </trkpt>
      <trkpt lat="49.1867" lon="6.9983">
        <ele>226</ele>
        <time>2011-01-23T09:58:18Z</time>
      </trkpt>
      <trkpt lat="49.18671" lon="6.99826">
        <ele>226</ele>
        <time>2011-01-23T09:58:20Z</time>
      </trkpt>
      <trkpt lat="49.18673" lon="6.99823">
        <ele>226</ele>
        <time>2011-01-23T09:58:22Z</time>
      </trkpt>
      <trkpt lat="49.18673" lon="6.99821">
        <ele>226</ele>
        <time>2011-01-23T09:58:23Z</time>
      </trkpt>
      <trkpt lat="49.18673" lon="6.99818">
        <ele>226</ele>
        <time>2011-01-23T09:58:25Z</time>
      </trkpt>
      <trkpt lat="49.18674" lon="6.99816">
        <ele>226</ele>
        <time>2011-01-23T09:58:26Z</time>
      </trkpt>
      <trkpt lat="49.18674" lon="6.99815">
        <ele>226</ele>
        <time>2011-01-23T09:58:27Z</time>
      </trkpt>
      <trkpt lat="49.18675" lon="6.99813">
        <ele>226</ele>
        <time>2011-01-23T09:58:28Z</time>
      </trkpt>
      <trkpt lat="49.18674" lon="6.9981">
        <ele>226</ele>
        <time>2011-01-23T09:58:29Z</time>
      </trkpt>
      <trkpt lat="49.18676" lon="6.99807">
        <ele>226</ele>
        <time>2011-01-23T09:58:31Z</time>
      </trkpt>
      <trkpt lat="49.18677" lon="6.99804">
        <ele>226</ele>
        <time>2011-01-23T09:58:33Z</time>
      </trkpt>
      <trkpt lat="49.18679" lon="6.99801">
        <ele>226</ele>
        <time>2011-01-23T09:58:35Z</time>
      </trkpt>
      <trkpt lat="49.1868" lon="6.99799">
        <ele>226</ele>
        <time>2011-01-23T09:58:36Z</time>
      </trkpt>
      <trkpt lat="49.18681" lon="6.99795">
        <ele>226</ele>
        <time>2011-01-23T09:58:38Z</time>
      </trkpt>
      <trkpt lat="49.18682" lon="6.99792">
        <ele>226</ele>
        <time>2011-01-23T09:58:40Z</time>
      </trkpt>
      <trkpt lat="49.18684" lon="6.99789">
        <ele>226</ele>
        <time>2011-01-23T09:58:42Z</time>
      </trkpt>
      <trkpt lat="49.18686" lon="6.99787">
        <ele>226</ele>
        <time>2011-01-23T09:58:44Z</time>
      </trkpt>
      <trkpt lat="49.18687" lon="6.99784">
        <ele>226</ele>
        <time>2011-01-23T09:58:46Z</time>
      </trkpt>
      <trkpt lat="49.18688" lon="6.99782">
        <ele>226</ele>
        <time>2011-01-23T09:58:47Z</time>
      </trkpt>
      <trkpt lat="49.1869" lon="6.99779">
        <ele>226</ele>
        <time>2011-01-23T09:58:49Z</time>
      </trkpt>
      <trkpt lat="49.18692" lon="6.99776">
        <ele>226</ele>
        <time>2011-01-23T09:58:51Z</time>
      </trkpt>
      <trkpt lat="49.18694" lon="6.99774">
        <ele>226</ele>
        <time>2011-01-23T09:58:53Z</time>
      </trkpt>
      <trkpt lat="49.18695" lon="6.99771">
        <ele>226</ele>
        <time>2011-01-23T09:58:55Z</time>
      </trkpt>
      <trkpt lat="49.18697" lon="6.99768">
        <ele>226</ele>
        <time>2011-01-23T09:58:57Z</time>
      </trkpt>
      <trkpt lat="49.18699" lon="6.99765">
        <ele>225</ele>
        <time>2011-01-23T09:58:59Z</time>
      </trkpt>
      <trkpt lat="49.187" lon="6.99763">
        <ele>225</ele>
        <time>2011-01-23T09:59:01Z</time>
      </trkpt>
      <trkpt lat="49.18702" lon="6.99759">
        <ele>225</ele>
        <time>2011-01-23T09:59:03Z</time>
      </trkpt>
      <trkpt lat="49.18703" lon="6.99757">
        <ele>225</ele>
        <time>2011-01-23T09:59:05Z</time>
      </trkpt>
      <trkpt lat="49.18705" lon="6.99754">
        <ele>225</ele>
        <time>2011-01-23T09:59:07Z</time>
      </trkpt>
      <trkpt lat="49.18707" lon="6.99751">
        <ele>225</ele>
        <time>2011-01-23T09:59:09Z</time>
      </trkpt>
      <trkpt lat="49.18709" lon="6.99749">
        <ele>225</ele>
        <time>2011-01-23T09:59:11Z</time>
      </trkpt>
      <trkpt lat="49.18711" lon="6.99746">
        <ele>225</ele>
        <time>2011-01-23T09:59:13Z</time>
      </trkpt>
      <trkpt lat="49.18713" lon="6.99744">
        <ele>225</ele>
        <time>2011-01-23T09:59:15Z</time>
      </trkpt>
      <trkpt lat="49.18715" lon="6.99742">
        <ele>225</ele>
        <time>2011-01-23T09:59:17Z</time>
      </trkpt>
      <trkpt lat="49.18717" lon="6.99739">
        <ele>225</ele>
        <time>2011-01-23T09:59:19Z</time>
      </trkpt>
      <trkpt lat="49.18718" lon="6.99738">
        <ele>225</ele>
        <time>2011-01-23T09:59:20Z</time>
      </trkpt>
      <trkpt lat="49.18719" lon="6.99737">
        <ele>225</ele>
        <time>2011-01-23T09:59:21Z</time>
      </trkpt>
      <trkpt lat="49.18721" lon="6.99735">
        <ele>225</ele>
        <time>2011-01-23T09:59:23Z</time>
      </trkpt>
      <trkpt lat="49.18724" lon="6.99732">
        <ele>225</ele>
        <time>2011-01-23T09:59:25Z</time>
      </trkpt>
      <trkpt lat="49.18726" lon="6.9973">
        <ele>225</ele>
        <time>2011-01-23T09:59:27Z</time>
      </trkpt>
      <trkpt lat="49.18727" lon="6.99729">
        <ele>225</ele>
        <time>2011-01-23T09:59:28Z</time>
      </trkpt>
      <trkpt lat="49.18728" lon="6.99728">
        <ele>225</ele>
        <time>2011-01-23T09:59:29Z</time>
      </trkpt>
      <trkpt lat="49.18729" lon="6.99727">
        <ele>225</ele>
        <time>2011-01-23T09:59:30Z</time>
      </trkpt>
      <trkpt lat="49.1873" lon="6.99726">
        <ele>225</ele>
        <time>2011-01-23T09:59:31Z</time>
      </trkpt>
      <trkpt lat="49.18732" lon="6.99726">
        <ele>225</ele>
        <time>2011-01-23T09:59:32Z</time>
      </trkpt>
      <trkpt lat="49.18733" lon="6.99725">
        <ele>225</ele>
        <time>2011-01-23T09:59:33Z</time>
      </trkpt>
      <trkpt lat="49.18734" lon="6.99724">
        <ele>225</ele>
        <time>2011-01-23T09:59:34Z</time>
      </trkpt>
      <trkpt lat="49.18735" lon="6.99723">
        <ele>225</ele>
        <time>2011-01-23T09:59:35Z</time>
      </trkpt>
      <trkpt lat="49.18736" lon="6.99722">
        <ele>225</ele>
        <time>2011-01-23T09:59:36Z</time>
      </trkpt>
      <trkpt lat="49.18737" lon="6.99721">
        <ele>225</ele>
        <time>2011-01-23T09:59:37Z</time>
      </trkpt>
      <trkpt lat="49.18739" lon="6.99721">
        <ele>225</ele>
        <time>2011-01-23T09:59:38Z</time>
      </trkpt>
      <trkpt lat="49.1874" lon="6.9972">
        <ele>225</ele>
        <time>2011-01-23T09:59:39Z</time>
      </trkpt>
      <trkpt lat="49.18741" lon="6.99719">
        <ele>225</ele>
        <time>2011-01-23T09:59:40Z</time>
      </trkpt>
      <trkpt lat="49.18743" lon="6.99719">
        <ele>225</ele>
        <time>2011-01-23T09:59:41Z</time>
      </trkpt>
      <trkpt lat="49.18744" lon="6.99719">
        <ele>224</ele>
        <time>2011-01-23T09:59:42Z</time>
      </trkpt>
      <trkpt lat="49.18745" lon="6.99717">
        <ele>224</ele>
        <time>2011-01-23T09:59:43Z</time>
      </trkpt>
      <trkpt lat="49.18746" lon="6.99715">
        <ele>224</ele>
        <time>2011-01-23T09:59:44Z</time>
      </trkpt>
      <trkpt lat="49.18746" lon="6.99713">
        <ele>224</ele>
        <time>2011-01-23T09:59:45Z</time>
      </trkpt>
      <trkpt lat="49.18748" lon="6.9971">
        <ele>224</ele>
        <time>2011-01-23T09:59:47Z</time>
      </trkpt>
      <trkpt lat="49.1875" lon="6.9971">
        <ele>224</ele>
        <time>2011-01-23T09:59:48Z</time>
      </trkpt>
      <trkpt lat="49.18751" lon="6.99709">
        <ele>224</ele>
        <time>2011-01-23T09:59:49Z</time>
      </trkpt>
      <trkpt lat="49.18753" lon="6.99707">
        <ele>224</ele>
        <time>2011-01-23T09:59:51Z</time>
      </trkpt>
      <trkpt lat="49.18755" lon="6.99704">
        <ele>224</ele>
        <time>2011-01-23T09:59:53Z</time>
      </trkpt>
      <trkpt lat="49.18756" lon="6.99703">
        <ele>224</ele>
        <time>2011-01-23T09:59:54Z</time>
      </trkpt>
      <trkpt lat="49.18758" lon="6.99701">
        <ele>224</ele>
        <time>2011-01-23T09:59:56Z</time>
      </trkpt>
      <trkpt lat="49.18759" lon="6.997">
        <ele>224</ele>
        <time>2011-01-23T09:59:57Z</time>
      </trkpt>
      <trkpt lat="49.18761" lon="6.99698">
        <ele>224</ele>
        <time>2011-01-23T09:59:59Z</time>
      </trkpt>
      <trkpt lat="49.18763" lon="6.99696">
        <ele>224</ele>
        <time>2011-01-23T10:00:01Z</time>
      </trkpt>
      <trkpt lat="49.18765" lon="6.99693">
        <ele>224</ele>
        <time>2011-01-23T10:00:03Z</time>
      </trkpt>
      <trkpt lat="49.18767" lon="6.99691">
        <ele>224</ele>
        <time>2011-01-23T10:00:05Z</time>
      </trkpt>
      <trkpt lat="49.18768" lon="6.99688">
        <ele>224</ele>
        <time>2011-01-23T10:00:07Z</time>
      </trkpt>
      <trkpt lat="49.1877" lon="6.99685">
        <ele>223</ele>
        <time>2011-01-23T10:00:09Z</time>
      </trkpt>
      <trkpt lat="49.18771" lon="6.99682">
        <ele>222</ele>
        <time>2011-01-23T10:00:11Z</time>
      </trkpt>
      <trkpt lat="49.18771" lon="6.9968">
        <ele>222</ele>
        <time>2011-01-23T10:00:12Z</time>
      </trkpt>
      <trkpt lat="49.18772" lon="6.99678">
        <ele>222</ele>
        <time>2011-01-23T10:00:13Z</time>
      </trkpt>
      <trkpt lat="49.18772" lon="6.99676">
        <ele>221</ele>
        <time>2011-01-23T10:00:14Z</time>
      </trkpt>
      <trkpt lat="49.18773" lon="6.99675">
        <ele>221</ele>
        <time>2011-01-23T10:00:15Z</time>
      </trkpt>
      <trkpt lat="49.18773" lon="6.99673">
        <ele>220</ele>
        <time>2011-01-23T10:00:16Z</time>
      </trkpt>
      <trkpt lat="49.18773" lon="6.99671">
        <ele>220</ele>
        <time>2011-01-23T10:00:17Z</time>
      </trkpt>
      <trkpt lat="49.18773" lon="6.99669">
        <ele>220</ele>
        <time>2011-01-23T10:00:18Z</time>
      </trkpt>
      <trkpt lat="49.18773" lon="6.99667">
        <ele>220</ele>
        <time>2011-01-23T10:00:19Z</time>
      </trkpt>
      <trkpt lat="49.18774" lon="6.99665">
        <ele>220</ele>
        <time>2011-01-23T10:00:20Z</time>
      </trkpt>
      <trkpt lat="49.18774" lon="6.99663">
        <ele>220</ele>
        <time>2011-01-23T10:00:21Z</time>
      </trkpt>
      <trkpt lat="49.18774" lon="6.99661">
        <ele>220</ele>
        <time>2011-01-23T10:00:22Z</time>
      </trkpt>
      <trkpt lat="49.18774" lon="6.99659">
        <ele>219</ele>
        <time>2011-01-23T10:00:23Z</time>
      </trkpt>
      <trkpt lat="49.18774" lon="6.99657">
        <ele>219</ele>
        <time>2011-01-23T10:00:24Z</time>
      </trkpt>
      <trkpt lat="49.18774" lon="6.99655">
        <ele>219</ele>
        <time>2011-01-23T10:00:25Z</time>
      </trkpt>
      <trkpt lat="49.18774" lon="6.99653">
        <ele>219</ele>
        <time>2011-01-23T10:00:26Z</time>
      </trkpt>
      <trkpt lat="49.18774" lon="6.99651">
        <ele>219</ele>
        <time>2011-01-23T10:00:27Z</time>
      </trkpt>
      <trkpt lat="49.18774" lon="6.99649">
        <ele>219</ele>
        <time>2011-01-23T10:00:28Z</time>
      </trkpt>
      <trkpt lat="49.18774" lon="6.99648">
        <ele>219</ele>
        <time>2011-01-23T10:00:29Z</time>
      </trkpt>
      <trkpt lat="49.18774" lon="6.99646">
        <ele>219</ele>
        <time>2011-01-23T10:00:30Z</time>
      </trkpt>
      <trkpt lat="49.18774" lon="6.99644">
        <ele>219</ele>
        <time>2011-01-23T10:00:31Z</time>
      </trkpt>
      <trkpt lat="49.18775" lon="6.99642">
        <ele>219</ele>
        <time>2011-01-23T10:00:32Z</time>
      </trkpt>
      <trkpt lat="49.18775" lon="6.9964">
        <ele>219</ele>
        <time>2011-01-23T10:00:33Z</time>
      </trkpt>
      <trkpt lat="49.18775" lon="6.99638">
        <ele>218</ele>
        <time>2011-01-23T10:00:34Z</time>
      </trkpt>
      <trkpt lat="49.18775" lon="6.99637">
        <ele>218</ele>
        <time>2011-01-23T10:00:35Z</time>
      </trkpt>
      <trkpt lat="49.18775" lon="6.99634">
        <ele>218</ele>
        <time>2011-01-23T10:00:36Z</time>
      </trkpt>
      <trkpt lat="49.18776" lon="6.99632">
        <ele>218</ele>
        <time>2011-01-23T10:00:37Z</time>
      </trkpt>
      <trkpt lat="49.18776" lon="6.9963">
        <ele>218</ele>
        <time>2011-01-23T10:00:38Z</time>
      </trkpt>
      <trkpt lat="49.18776" lon="6.99628">
        <ele>218</ele>
        <time>2011-01-23T10:00:39Z</time>
      </trkpt>
      <trkpt lat="49.18778" lon="6.99625">
        <ele>218</ele>
        <time>2011-01-23T10:00:41Z</time>
      </trkpt>
      <trkpt lat="49.18779" lon="6.99623">
        <ele>218</ele>
        <time>2011-01-23T10:00:42Z</time>
      </trkpt>
      <trkpt lat="49.18779" lon="6.99621">
        <ele>218</ele>
        <time>2011-01-23T10:00:43Z</time>
      </trkpt>
      <trkpt lat="49.1878" lon="6.99619">
        <ele>218</ele>
        <time>2011-01-23T10:00:44Z</time>
      </trkpt>
      <trkpt lat="49.18782" lon="6.99617">
        <ele>218</ele>
        <time>2011-01-23T10:00:46Z</time>
      </trkpt>
      <trkpt lat="49.18784" lon="6.99615">
        <ele>218</ele>
        <time>2011-01-23T10:00:48Z</time>
      </trkpt>
      <trkpt lat="49.18786" lon="6.99614">
        <ele>218</ele>
        <time>2011-01-23T10:00:49Z</time>
      </trkpt>
      <trkpt lat="49.18787" lon="6.99613">
        <ele>218</ele>
        <time>2011-01-23T10:00:51Z</time>
      </trkpt>
      <trkpt lat="49.18789" lon="6.99613">
        <ele>218</ele>
        <time>2011-01-23T10:00:52Z</time>
      </trkpt>
      <trkpt lat="49.1879" lon="6.99612">
        <ele>218</ele>
        <time>2011-01-23T10:00:54Z</time>
      </trkpt>
      <trkpt lat="49.18792" lon="6.99611">
        <ele>218</ele>
        <time>2011-01-23T10:00:55Z</time>
      </trkpt>
      <trkpt lat="49.18793" lon="6.99611">
        <ele>218</ele>
        <time>2011-01-23T10:00:56Z</time>
      </trkpt>
      <trkpt lat="49.18794" lon="6.9961">
        <ele>218</ele>
        <time>2011-01-23T10:00:57Z</time>
      </trkpt>
      <trkpt lat="49.18795" lon="6.99608">
        <ele>218</ele>
        <time>2011-01-23T10:00:58Z</time>
      </trkpt>
      <trkpt lat="49.18796" lon="6.99606">
        <ele>218</ele>
        <time>2011-01-23T10:01:00Z</time>
      </trkpt>
      <trkpt lat="49.18798" lon="6.99604">
        <ele>218</ele>
        <time>2011-01-23T10:01:02Z</time>
      </trkpt>
      <trkpt lat="49.188" lon="6.99602">
        <ele>218</ele>
        <time>2011-01-23T10:01:04Z</time>
      </trkpt>
      <trkpt lat="49.18801" lon="6.996">
        <ele>218</ele>
        <time>2011-01-23T10:01:06Z</time>
      </trkpt>
      <trkpt lat="49.18803" lon="6.99597">
        <ele>218</ele>
        <time>2011-01-23T10:01:08Z</time>
      </trkpt>
      <trkpt lat="49.18805" lon="6.99595">
        <ele>218</ele>
        <time>2011-01-23T10:01:10Z</time>
      </trkpt>
      <trkpt lat="49.18807" lon="6.99593">
        <ele>218</ele>
        <time>2011-01-23T10:01:12Z</time>
      </trkpt>
      <trkpt lat="49.18808" lon="6.9959">
        <ele>218</ele>
        <time>2011-01-23T10:01:14Z</time>
      </trkpt>
      <trkpt lat="49.18808" lon="6.99589">
        <ele>218</ele>
        <time>2011-01-23T10:01:16Z</time>
      </trkpt>
      <trkpt lat="49.18806" lon="6.99587">
        <ele>218</ele>
        <time>2011-01-23T10:01:20Z</time>
      </trkpt>
      <trkpt lat="49.18808" lon="6.99585">
        <ele>218</ele>
        <time>2011-01-23T10:01:24Z</time>
      </trkpt>
      <trkpt lat="49.18809" lon="6.99584">
        <ele>218</ele>
        <time>2011-01-23T10:01:25Z</time>
      </trkpt>
      <trkpt lat="49.1881" lon="6.99583">
        <ele>218</ele>
        <time>2011-01-23T10:01:26Z</time>
      </trkpt>
      <trkpt lat="49.18811" lon="6.99582">
        <ele>218</ele>
        <time>2011-01-23T10:01:27Z</time>
      </trkpt>
      <trkpt lat="49.18812" lon="6.9958">
        <ele>218</ele>
        <time>2011-01-23T10:01:28Z</time>
      </trkpt>
      <trkpt lat="49.18814" lon="6.99578">
        <ele>218</ele>
        <time>2011-01-23T10:01:30Z</time>
      </trkpt>
      <trkpt lat="49.18816" lon="6.99575">
        <ele>218</ele>
        <time>2011-01-23T10:01:32Z</time>
      </trkpt>
      <trkpt lat="49.18818" lon="6.99572">
        <ele>218</ele>
        <time>2011-01-23T10:01:34Z</time>
      </trkpt>
      <trkpt lat="49.18819" lon="6.9957">
        <ele>218</ele>
        <time>2011-01-23T10:01:35Z</time>
      </trkpt>
      <trkpt lat="49.18821" lon="6.99569">
        <ele>218</ele>
        <time>2011-01-23T10:01:36Z</time>
      </trkpt>
      <trkpt lat="49.18822" lon="6.99568">
        <ele>218</ele>
        <time>2011-01-23T10:01:37Z</time>
      </trkpt>
      <trkpt lat="49.18823" lon="6.99567">
        <ele>218</ele>
        <time>2011-01-23T10:01:38Z</time>
      </trkpt>
      <trkpt lat="49.18825" lon="6.99565">
        <ele>218</ele>
        <time>2011-01-23T10:01:40Z</time>
      </trkpt>
      <trkpt lat="49.18825" lon="6.99563">
        <ele>218</ele>
        <time>2011-01-23T10:01:42Z</time>
      </trkpt>
      <trkpt lat="49.18826" lon="6.99561">
        <ele>219</ele>
        <time>2011-01-23T10:01:51Z</time>
      </trkpt>
      <trkpt lat="49.18827" lon="6.99558">
        <ele>219</ele>
        <time>2011-01-23T10:01:53Z</time>
      </trkpt>
      <trkpt lat="49.18828" lon="6.99556">
        <ele>220</ele>
        <time>2011-01-23T10:01:54Z</time>
      </trkpt>
      <trkpt lat="49.18829" lon="6.99555">
        <ele>220</ele>
        <time>2011-01-23T10:01:55Z</time>
      </trkpt>
      <trkpt lat="49.1883" lon="6.99554">
        <ele>220</ele>
        <time>2011-01-23T10:01:56Z</time>
      </trkpt>
      <trkpt lat="49.18832" lon="6.99552">
        <ele>220</ele>
        <time>2011-01-23T10:01:57Z</time>
      </trkpt>
      <trkpt lat="49.18833" lon="6.99551">
        <ele>221</ele>
        <time>2011-01-23T10:01:58Z</time>
      </trkpt>
      <trkpt lat="49.18834" lon="6.99549">
        <ele>221</ele>
        <time>2011-01-23T10:01:59Z</time>
      </trkpt>
      <trkpt lat="49.18836" lon="6.99547">
        <ele>221</ele>
        <time>2011-01-23T10:02:00Z</time>
      </trkpt>
      <trkpt lat="49.18837" lon="6.99545">
        <ele>222</ele>
        <time>2011-01-23T10:02:01Z</time>
      </trkpt>
      <trkpt lat="49.18839" lon="6.99543">
        <ele>223</ele>
        <time>2011-01-23T10:02:02Z</time>
      </trkpt>
      <trkpt lat="49.1884" lon="6.99542">
        <ele>223</ele>
        <time>2011-01-23T10:02:03Z</time>
      </trkpt>
      <trkpt lat="49.18841" lon="6.9954">
        <ele>223</ele>
        <time>2011-01-23T10:02:04Z</time>
      </trkpt>
      <trkpt lat="49.18843" lon="6.99539">
        <ele>223</ele>
        <time>2011-01-23T10:02:05Z</time>
      </trkpt>
      <trkpt lat="49.18844" lon="6.99537">
        <ele>223</ele>
        <time>2011-01-23T10:02:06Z</time>
      </trkpt>
      <trkpt lat="49.18845" lon="6.99535">
        <ele>223</ele>
        <time>2011-01-23T10:02:07Z</time>
      </trkpt>
      <trkpt lat="49.18847" lon="6.99534">
        <ele>223</ele>
        <time>2011-01-23T10:02:08Z</time>
      </trkpt>
      <trkpt lat="49.18848" lon="6.99532">
        <ele>223</ele>
        <time>2011-01-23T10:02:09Z</time>
      </trkpt>
      <trkpt lat="49.18849" lon="6.99531">
        <ele>223</ele>
        <time>2011-01-23T10:02:10Z</time>
      </trkpt>
      <trkpt lat="49.1885" lon="6.9953">
        <ele>223</ele>
        <time>2011-01-23T10:02:11Z</time>
      </trkpt>
      <trkpt lat="49.18851" lon="6.99528">
        <ele>223</ele>
        <time>2011-01-23T10:02:12Z</time>
      </trkpt>
      <trkpt lat="49.18853" lon="6.99527">
        <ele>223</ele>
        <time>2011-01-23T10:02:13Z</time>
      </trkpt>
      <trkpt lat="49.18854" lon="6.99525">
        <ele>223</ele>
        <time>2011-01-23T10:02:14Z</time>
      </trkpt>
      <trkpt lat="49.18856" lon="6.99523">
        <ele>223</ele>
        <time>2011-01-23T10:02:16Z</time>
      </trkpt>
      <trkpt lat="49.18858" lon="6.99522">
        <ele>223</ele>
        <time>2011-01-23T10:02:17Z</time>
      </trkpt>
      <trkpt lat="49.18859" lon="6.99521">
        <ele>223</ele>
        <time>2011-01-23T10:02:18Z</time>
      </trkpt>
      <trkpt lat="49.1886" lon="6.99519">
        <ele>223</ele>
        <time>2011-01-23T10:02:19Z</time>
      </trkpt>
      <trkpt lat="49.18861" lon="6.99518">
        <ele>223</ele>
        <time>2011-01-23T10:02:20Z</time>
      </trkpt>
      <trkpt lat="49.18863" lon="6.99516">
        <ele>223</ele>
        <time>2011-01-23T10:02:21Z</time>
      </trkpt>
      <trkpt lat="49.18864" lon="6.99515">
        <ele>223</ele>
        <time>2011-01-23T10:02:22Z</time>
      </trkpt>
      <trkpt lat="49.18865" lon="6.99513">
        <ele>223</ele>
        <time>2011-01-23T10:02:23Z</time>
      </trkpt>
      <trkpt lat="49.18866" lon="6.99512">
        <ele>223</ele>
        <time>2011-01-23T10:02:24Z</time>
      </trkpt>
      <trkpt lat="49.18868" lon="6.9951">
        <ele>223</ele>
        <time>2011-01-23T10:02:25Z</time>
      </trkpt>
      <trkpt lat="49.18869" lon="6.99509">
        <ele>223</ele>
        <time>2011-01-23T10:02:26Z</time>
      </trkpt>
      <trkpt lat="49.1887" lon="6.99508">
        <ele>223</ele>
        <time>2011-01-23T10:02:27Z</time>
      </trkpt>
      <trkpt lat="49.18871" lon="6.99506">
        <ele>223</ele>
        <time>2011-01-23T10:02:28Z</time>
      </trkpt>
      <trkpt lat="49.18872" lon="6.99504">
        <ele>223</ele>
        <time>2011-01-23T10:02:29Z</time>
      </trkpt>
      <trkpt lat="49.18874" lon="6.99502">
        <ele>223</ele>
        <time>2011-01-23T10:02:31Z</time>
      </trkpt>
      <trkpt lat="49.18876" lon="6.99499">
        <ele>223</ele>
        <time>2011-01-23T10:02:33Z</time>
      </trkpt>
      <trkpt lat="49.18877" lon="6.99497">
        <ele>223</ele>
        <time>2011-01-23T10:02:34Z</time>
      </trkpt>
      <trkpt lat="49.18879" lon="6.99495">
        <ele>223</ele>
        <time>2011-01-23T10:02:36Z</time>
      </trkpt>
      <trkpt lat="49.1888" lon="6.99493">
        <ele>223</ele>
        <time>2011-01-23T10:02:37Z</time>
      </trkpt>
      <trkpt lat="49.18882" lon="6.9949">
        <ele>223</ele>
        <time>2011-01-23T10:02:39Z</time>
      </trkpt>
      <trkpt lat="49.18883" lon="6.99488">
        <ele>223</ele>
        <time>2011-01-23T10:02:41Z</time>
      </trkpt>
      <trkpt lat="49.18885" lon="6.99487">
        <ele>223</ele>
        <time>2011-01-23T10:02:43Z</time>
      </trkpt>
      <trkpt lat="49.18887" lon="6.99485">
        <ele>223</ele>
        <time>2011-01-23T10:02:45Z</time>
      </trkpt>
      <trkpt lat="49.18889" lon="6.99483">
        <ele>223</ele>
        <time>2011-01-23T10:02:47Z</time>
      </trkpt>
      <trkpt lat="49.1889" lon="6.99481">
        <ele>223</ele>
        <time>2011-01-23T10:02:49Z</time>
      </trkpt>
      <trkpt lat="49.18892" lon="6.99479">
        <ele>223</ele>
        <time>2011-01-23T10:02:51Z</time>
      </trkpt>
      <trkpt lat="49.18894" lon="6.99477">
        <ele>223</ele>
        <time>2011-01-23T10:02:53Z</time>
      </trkpt>
      <trkpt lat="49.18896" lon="6.99475">
        <ele>223</ele>
        <time>2011-01-23T10:02:55Z</time>
      </trkpt>
      <trkpt lat="49.18897" lon="6.99473">
        <ele>223</ele>
        <time>2011-01-23T10:02:57Z</time>
      </trkpt>
      <trkpt lat="49.18899" lon="6.99471">
        <ele>223</ele>
        <time>2011-01-23T10:02:59Z</time>
      </trkpt>
      <trkpt lat="49.189" lon="6.99469">
        <ele>223</ele>
        <time>2011-01-23T10:03:01Z</time>
      </trkpt>
      <trkpt lat="49.18902" lon="6.99467">
        <ele>223</ele>
        <time>2011-01-23T10:03:03Z</time>
      </trkpt>
      <trkpt lat="49.18903" lon="6.99464">
        <ele>223</ele>
        <time>2011-01-23T10:03:05Z</time>
      </trkpt>
      <trkpt lat="49.18904" lon="6.99461">
        <ele>223</ele>
        <time>2011-01-23T10:03:07Z</time>
      </trkpt>
      <trkpt lat="49.18905" lon="6.99459">
        <ele>222</ele>
        <time>2011-01-23T10:03:09Z</time>
      </trkpt>
      <trkpt lat="49.18906" lon="6.99455">
        <ele>222</ele>
        <time>2011-01-23T10:03:11Z</time>
      </trkpt>
      <trkpt lat="49.18906" lon="6.99454">
        <ele>222</ele>
        <time>2011-01-23T10:03:12Z</time>
      </trkpt>
      <trkpt lat="49.18906" lon="6.99452">
        <ele>222</ele>
        <time>2011-01-23T10:03:13Z</time>
      </trkpt>
      <trkpt lat="49.18906" lon="6.9945">
        <ele>222</ele>
        <time>2011-01-23T10:03:14Z</time>
      </trkpt>
      <trkpt lat="49.18906" lon="6.99447">
        <ele>222</ele>
        <time>2011-01-23T10:03:16Z</time>
      </trkpt>
      <trkpt lat="49.18906" lon="6.99444">
        <ele>222</ele>
        <time>2011-01-23T10:03:18Z</time>
      </trkpt>
      <trkpt lat="49.18906" lon="6.99442">
        <ele>222</ele>
        <time>2011-01-23T10:03:19Z</time>
      </trkpt>
      <trkpt lat="49.18906" lon="6.99439">
        <ele>222</ele>
        <time>2011-01-23T10:03:21Z</time>
      </trkpt>
      <trkpt lat="49.18905" lon="6.99437">
        <ele>222</ele>
        <time>2011-01-23T10:03:23Z</time>
      </trkpt>
      <trkpt lat="49.18904" lon="6.99435">
        <ele>222</ele>
        <time>2011-01-23T10:03:24Z</time>
      </trkpt>
      <trkpt lat="49.18904" lon="6.99433">
        <ele>222</ele>
        <time>2011-01-23T10:03:25Z</time>
      </trkpt>
      <trkpt lat="49.18903" lon="6.99431">
        <ele>222</ele>
        <time>2011-01-23T10:03:27Z</time>
      </trkpt>
      <trkpt lat="49.18903" lon="6.99428">
        <ele>222</ele>
        <time>2011-01-23T10:03:29Z</time>
      </trkpt>
      <trkpt lat="49.18902" lon="6.99425">
        <ele>222</ele>
        <time>2011-01-23T10:03:31Z</time>
      </trkpt>
      <trkpt lat="49.18902" lon="6.99423">
        <ele>222</ele>
        <time>2011-01-23T10:03:32Z</time>
      </trkpt>
      <trkpt lat="49.18901" lon="6.99422">
        <ele>222</ele>
        <time>2011-01-23T10:03:33Z</time>
      </trkpt>
      <trkpt lat="49.18901" lon="6.9942">
        <ele>222</ele>
        <time>2011-01-23T10:03:34Z</time>
      </trkpt>
      <trkpt lat="49.18901" lon="6.99418">
        <ele>222</ele>
        <time>2011-01-23T10:03:35Z</time>
      </trkpt>
      <trkpt lat="49.18901" lon="6.99416">
        <ele>222</ele>
        <time>2011-01-23T10:03:36Z</time>
      </trkpt>
      <trkpt lat="49.189" lon="6.99415">
        <ele>222</ele>
        <time>2011-01-23T10:03:37Z</time>
      </trkpt>
      <trkpt lat="49.189" lon="6.99411">
        <ele>222</ele>
        <time>2011-01-23T10:03:39Z</time>
      </trkpt>
      <trkpt lat="49.18899" lon="6.9941">
        <ele>222</ele>
        <time>2011-01-23T10:03:40Z</time>
      </trkpt>
      <trkpt lat="49.18899" lon="6.99408">
        <ele>222</ele>
        <time>2011-01-23T10:03:41Z</time>
      </trkpt>
      <trkpt lat="49.18898" lon="6.99406">
        <ele>222</ele>
        <time>2011-01-23T10:03:42Z</time>
      </trkpt>
      <trkpt lat="49.18898" lon="6.99404">
        <ele>222</ele>
        <time>2011-01-23T10:03:43Z</time>
      </trkpt>
      <trkpt lat="49.18898" lon="6.99402">
        <ele>222</ele>
        <time>2011-01-23T10:03:44Z</time>
      </trkpt>
      <trkpt lat="49.18897" lon="6.99401">
        <ele>222</ele>
        <time>2011-01-23T10:03:45Z</time>
      </trkpt>
      <trkpt lat="49.18897" lon="6.99399">
        <ele>222</ele>
        <time>2011-01-23T10:03:46Z</time>
      </trkpt>
      <trkpt lat="49.18897" lon="6.99397">
        <ele>222</ele>
        <time>2011-01-23T10:03:47Z</time>
      </trkpt>
      <trkpt lat="49.18897" lon="6.99395">
        <ele>222</ele>
        <time>2011-01-23T10:03:48Z</time>
      </trkpt>
      <trkpt lat="49.18897" lon="6.99393">
        <ele>222</ele>
        <time>2011-01-23T10:03:49Z</time>
      </trkpt>
      <trkpt lat="49.18896" lon="6.99391">
        <ele>222</ele>
        <time>2011-01-23T10:03:51Z</time>
      </trkpt>
      <trkpt lat="49.18895" lon="6.99387">
        <ele>222</ele>
        <time>2011-01-23T10:03:53Z</time>
      </trkpt>
      <trkpt lat="49.18895" lon="6.99385">
        <ele>222</ele>
        <time>2011-01-23T10:03:55Z</time>
      </trkpt>
      <trkpt lat="49.18894" lon="6.99383">
        <ele>222</ele>
        <time>2011-01-23T10:03:57Z</time>
      </trkpt>
      <trkpt lat="49.18893" lon="6.99381">
        <ele>222</ele>
        <time>2011-01-23T10:03:58Z</time>
      </trkpt>
      <trkpt lat="49.18892" lon="6.9938">
        <ele>222</ele>
        <time>2011-01-23T10:03:59Z</time>
      </trkpt>
      <trkpt lat="49.1889" lon="6.99377">
        <ele>222</ele>
        <time>2011-01-23T10:04:01Z</time>
      </trkpt>
      <trkpt lat="49.18889" lon="6.99375">
        <ele>222</ele>
        <time>2011-01-23T10:04:03Z</time>
      </trkpt>
      <trkpt lat="49.18888" lon="6.99373">
        <ele>222</ele>
        <time>2011-01-23T10:04:05Z</time>
      </trkpt>
      <trkpt lat="49.18887" lon="6.9937">
        <ele>221</ele>
        <time>2011-01-23T10:04:07Z</time>
      </trkpt>
      <trkpt lat="49.18886" lon="6.99368">
        <ele>221</ele>
        <time>2011-01-23T10:04:09Z</time>
      </trkpt>
      <trkpt lat="49.18885" lon="6.99367">
        <ele>221</ele>
        <time>2011-01-23T10:04:14Z</time>
      </trkpt>
      <trkpt lat="49.18884" lon="6.99365">
        <ele>221</ele>
        <time>2011-01-23T10:04:21Z</time>
      </trkpt>
      <trkpt lat="49.18883" lon="6.99363">
        <ele>221</ele>
        <time>2011-01-23T10:04:23Z</time>
      </trkpt>
      <trkpt lat="49.18882" lon="6.99361">
        <ele>221</ele>
        <time>2011-01-23T10:04:25Z</time>
      </trkpt>
      <trkpt lat="49.18882" lon="6.99359">
        <ele>221</ele>
        <time>2011-01-23T10:04:26Z</time>
      </trkpt>
      <trkpt lat="49.18882" lon="6.99357">
        <ele>221</ele>
        <time>2011-01-23T10:04:28Z</time>
      </trkpt>
      <trkpt lat="49.18882" lon="6.99354">
        <ele>221</ele>
        <time>2011-01-23T10:04:30Z</time>
      </trkpt>
      <trkpt lat="49.18881" lon="6.99352">
        <ele>221</ele>
        <time>2011-01-23T10:04:32Z</time>
      </trkpt>
      <trkpt lat="49.18881" lon="6.99349">
        <ele>221</ele>
        <time>2011-01-23T10:04:34Z</time>
      </trkpt>
      <trkpt lat="49.1888" lon="6.99346">
        <ele>221</ele>
        <time>2011-01-23T10:04:36Z</time>
      </trkpt>
      <trkpt lat="49.18879" lon="6.99344">
        <ele>221</ele>
        <time>2011-01-23T10:04:37Z</time>
      </trkpt>
      <trkpt lat="49.18879" lon="6.99343">
        <ele>221</ele>
        <time>2011-01-23T10:04:38Z</time>
      </trkpt>
      <trkpt lat="49.18878" lon="6.99341">
        <ele>221</ele>
        <time>2011-01-23T10:04:39Z</time>
      </trkpt>
      <trkpt lat="49.18878" lon="6.99339">
        <ele>221</ele>
        <time>2011-01-23T10:04:40Z</time>
      </trkpt>
      <trkpt lat="49.18876" lon="6.99336">
        <ele>221</ele>
        <time>2011-01-23T10:04:42Z</time>
      </trkpt>
      <trkpt lat="49.18876" lon="6.99333">
        <ele>221</ele>
        <time>2011-01-23T10:04:44Z</time>
      </trkpt>
      <trkpt lat="49.18876" lon="6.99331">
        <ele>221</ele>
        <time>2011-01-23T10:04:45Z</time>
      </trkpt>
      <trkpt lat="49.18876" lon="6.99329">
        <ele>221</ele>
        <time>2011-01-23T10:04:46Z</time>
      </trkpt>
      <trkpt lat="49.18876" lon="6.99327">
        <ele>221</ele>
        <time>2011-01-23T10:04:47Z</time>
      </trkpt>
      <trkpt lat="49.18875" lon="6.99325">
        <ele>221</ele>
        <time>2011-01-23T10:04:48Z</time>
      </trkpt>
      <trkpt lat="49.18875" lon="6.99324">
        <ele>221</ele>
        <time>2011-01-23T10:04:49Z</time>
      </trkpt>
      <trkpt lat="49.18875" lon="6.99322">
        <ele>221</ele>
        <time>2011-01-23T10:04:50Z</time>
      </trkpt>
      <trkpt lat="49.18875" lon="6.9932">
        <ele>221</ele>
        <time>2011-01-23T10:04:51Z</time>
      </trkpt>
      <trkpt lat="49.18874" lon="6.99317">
        <ele>221</ele>
        <time>2011-01-23T10:04:53Z</time>
      </trkpt>
      <trkpt lat="49.18874" lon="6.99313">
        <ele>221</ele>
        <time>2011-01-23T10:04:55Z</time>
      </trkpt>
      <trkpt lat="49.18874" lon="6.99312">
        <ele>221</ele>
        <time>2011-01-23T10:04:56Z</time>
      </trkpt>
      <trkpt lat="49.18874" lon="6.9931">
        <ele>221</ele>
        <time>2011-01-23T10:04:57Z</time>
      </trkpt>
      <trkpt lat="49.18874" lon="6.99308">
        <ele>221</ele>
        <time>2011-01-23T10:04:58Z</time>
      </trkpt>
      <trkpt lat="49.18874" lon="6.99306">
        <ele>221</ele>
        <time>2011-01-23T10:04:59Z</time>
      </trkpt>
      <trkpt lat="49.18874" lon="6.99303">
        <ele>220</ele>
        <time>2011-01-23T10:05:01Z</time>
      </trkpt>
      <trkpt lat="49.18874" lon="6.99301">
        <ele>220</ele>
        <time>2011-01-23T10:05:02Z</time>
      </trkpt>
      <trkpt lat="49.18874" lon="6.99299">
        <ele>219</ele>
        <time>2011-01-23T10:05:03Z</time>
      </trkpt>
      <trkpt lat="49.18874" lon="6.99298">
        <ele>219</ele>
        <time>2011-01-23T10:05:04Z</time>
      </trkpt>
      <trkpt lat="49.18874" lon="6.99296">
        <ele>218</ele>
        <time>2011-01-23T10:05:05Z</time>
      </trkpt>
      <trkpt lat="49.18873" lon="6.99294">
        <ele>218</ele>
        <time>2011-01-23T10:05:06Z</time>
      </trkpt>
      <trkpt lat="49.18873" lon="6.99293">
        <ele>218</ele>
        <time>2011-01-23T10:05:07Z</time>
      </trkpt>
      <trkpt lat="49.18873" lon="6.99291">
        <ele>217</ele>
        <time>2011-01-23T10:05:08Z</time>
      </trkpt>
      <trkpt lat="49.18873" lon="6.99289">
        <ele>217</ele>
        <time>2011-01-23T10:05:09Z</time>
      </trkpt>
      <trkpt lat="49.18873" lon="6.99287">
        <ele>217</ele>
        <time>2011-01-23T10:05:10Z</time>
      </trkpt>
      <trkpt lat="49.18873" lon="6.99285">
        <ele>216</ele>
        <time>2011-01-23T10:05:11Z</time>
      </trkpt>
      <trkpt lat="49.18873" lon="6.99283">
        <ele>216</ele>
        <time>2011-01-23T10:05:13Z</time>
      </trkpt>
      <trkpt lat="49.18873" lon="6.99281">
        <ele>216</ele>
        <time>2011-01-23T10:05:14Z</time>
      </trkpt>
      <trkpt lat="49.18873" lon="6.99279">
        <ele>216</ele>
        <time>2011-01-23T10:05:15Z</time>
      </trkpt>
      <trkpt lat="49.18872" lon="6.99277">
        <ele>216</ele>
        <time>2011-01-23T10:05:16Z</time>
      </trkpt>
      <trkpt lat="49.18872" lon="6.99275">
        <ele>216</ele>
        <time>2011-01-23T10:05:17Z</time>
      </trkpt>
      <trkpt lat="49.18872" lon="6.99274">
        <ele>216</ele>
        <time>2011-01-23T10:05:18Z</time>
      </trkpt>
      <trkpt lat="49.18872" lon="6.99272">
        <ele>216</ele>
        <time>2011-01-23T10:05:19Z</time>
      </trkpt>
      <trkpt lat="49.18872" lon="6.9927">
        <ele>216</ele>
        <time>2011-01-23T10:05:20Z</time>
      </trkpt>
      <trkpt lat="49.18872" lon="6.99268">
        <ele>216</ele>
        <time>2011-01-23T10:05:21Z</time>
      </trkpt>
      <trkpt lat="49.18872" lon="6.99266">
        <ele>216</ele>
        <time>2011-01-23T10:05:22Z</time>
      </trkpt>
      <trkpt lat="49.18872" lon="6.99264">
        <ele>216</ele>
        <time>2011-01-23T10:05:23Z</time>
      </trkpt>
      <trkpt lat="49.18872" lon="6.99262">
        <ele>216</ele>
        <time>2011-01-23T10:05:24Z</time>
      </trkpt>
      <trkpt lat="49.18871" lon="6.9926">
        <ele>216</ele>
        <time>2011-01-23T10:05:25Z</time>
      </trkpt>
      <trkpt lat="49.18871" lon="6.99259">
        <ele>216</ele>
        <time>2011-01-23T10:05:26Z</time>
      </trkpt>
      <trkpt lat="49.18871" lon="6.99256">
        <ele>216</ele>
        <time>2011-01-23T10:05:28Z</time>
      </trkpt>
      <trkpt lat="49.18871" lon="6.99254">
        <ele>216</ele>
        <time>2011-01-23T10:05:29Z</time>
      </trkpt>
      <trkpt lat="49.18869" lon="6.99251">
        <ele>216</ele>
        <time>2011-01-23T10:05:30Z</time>
      </trkpt>
      <trkpt lat="49.18869" lon="6.99249">
        <ele>216</ele>
        <time>2011-01-23T10:05:31Z</time>
      </trkpt>
      <trkpt lat="49.18868" lon="6.99247">
        <ele>216</ele>
        <time>2011-01-23T10:05:32Z</time>
      </trkpt>
      <trkpt lat="49.18867" lon="6.99245">
        <ele>216</ele>
        <time>2011-01-23T10:05:33Z</time>
      </trkpt>
      <trkpt lat="49.18866" lon="6.99243">
        <ele>216</ele>
        <time>2011-01-23T10:05:34Z</time>
      </trkpt>
      <trkpt lat="49.18865" lon="6.99242">
        <ele>217</ele>
        <time>2011-01-23T10:05:37Z</time>
      </trkpt>
      <trkpt lat="49.18865" lon="6.99239">
        <ele>218</ele>
        <time>2011-01-23T10:05:40Z</time>
      </trkpt>
      <trkpt lat="49.18865" lon="6.99237">
        <ele>218</ele>
        <time>2011-01-23T10:05:41Z</time>
      </trkpt>
      <trkpt lat="49.18865" lon="6.99235">
        <ele>218</ele>
        <time>2011-01-23T10:05:42Z</time>
      </trkpt>
      <trkpt lat="49.18866" lon="6.99233">
        <ele>218</ele>
        <time>2011-01-23T10:05:43Z</time>
      </trkpt>
      <trkpt lat="49.18865" lon="6.99231">
        <ele>218</ele>
        <time>2011-01-23T10:05:44Z</time>
      </trkpt>
      <trkpt lat="49.18866" lon="6.99228">
        <ele>218</ele>
        <time>2011-01-23T10:05:45Z</time>
      </trkpt>
      <trkpt lat="49.18866" lon="6.99226">
        <ele>218</ele>
        <time>2011-01-23T10:05:46Z</time>
      </trkpt>
      <trkpt lat="49.18866" lon="6.99224">
        <ele>218</ele>
        <time>2011-01-23T10:05:47Z</time>
      </trkpt>
      <trkpt lat="49.18866" lon="6.99222">
        <ele>218</ele>
        <time>2011-01-23T10:05:48Z</time>
      </trkpt>
      <trkpt lat="49.18866" lon="6.9922">
        <ele>218</ele>
        <time>2011-01-23T10:05:49Z</time>
      </trkpt>
      <trkpt lat="49.18866" lon="6.99217">
        <ele>218</ele>
        <time>2011-01-23T10:05:50Z</time>
      </trkpt>
      <trkpt lat="49.18866" lon="6.99215">
        <ele>218</ele>
        <time>2011-01-23T10:05:51Z</time>
      </trkpt>
      <trkpt lat="49.18866" lon="6.99213">
        <ele>218</ele>
        <time>2011-01-23T10:05:52Z</time>
      </trkpt>
      <trkpt lat="49.18866" lon="6.99211">
        <ele>218</ele>
        <time>2011-01-23T10:05:53Z</time>
      </trkpt>
      <trkpt lat="49.18866" lon="6.99209">
        <ele>218</ele>
        <time>2011-01-23T10:05:54Z</time>
      </trkpt>
      <trkpt lat="49.18866" lon="6.99207">
        <ele>218</ele>
        <time>2011-01-23T10:05:55Z</time>
      </trkpt>
      <trkpt lat="49.18866" lon="6.99205">
        <ele>218</ele>
        <time>2011-01-23T10:05:56Z</time>
      </trkpt>
      <trkpt lat="49.18866" lon="6.99203">
        <ele>218</ele>
        <time>2011-01-23T10:05:57Z</time>
      </trkpt>
      <trkpt lat="49.18866" lon="6.99201">
        <ele>218</ele>
        <time>2011-01-23T10:05:58Z</time>
      </trkpt>
      <trkpt lat="49.18866" lon="6.99199">
        <ele>218</ele>
        <time>2011-01-23T10:05:59Z</time>
      </trkpt>
      <trkpt lat="49.18866" lon="6.99197">
        <ele>218</ele>
        <time>2011-01-23T10:06:00Z</time>
      </trkpt>
      <trkpt lat="49.18866" lon="6.99195">
        <ele>218</ele>
        <time>2011-01-23T10:06:01Z</time>
      </trkpt>
      <trkpt lat="49.18866" lon="6.99194">
        <ele>218</ele>
        <time>2011-01-23T10:06:02Z</time>
      </trkpt>
      <trkpt lat="49.18866" lon="6.99192">
        <ele>218</ele>
        <time>2011-01-23T10:06:03Z</time>
      </trkpt>
      <trkpt lat="49.18866" lon="6.9919">
        <ele>218</ele>
        <time>2011-01-23T10:06:04Z</time>
      </trkpt>
      <trkpt lat="49.18866" lon="6.99188">
        <ele>218</ele>
        <time>2011-01-23T10:06:05Z</time>
      </trkpt>
      <trkpt lat="49.18866" lon="6.99187">
        <ele>218</ele>
        <time>2011-01-23T10:06:06Z</time>
      </trkpt>
      <trkpt lat="49.18866" lon="6.99185">
        <ele>218</ele>
        <time>2011-01-23T10:06:07Z</time>
      </trkpt>
      <trkpt lat="49.18866" lon="6.99183">
        <ele>218</ele>
        <time>2011-01-23T10:06:08Z</time>
      </trkpt>
      <trkpt lat="49.18866" lon="6.99181">
        <ele>218</ele>
        <time>2011-01-23T10:06:09Z</time>
      </trkpt>
      <trkpt lat="49.18866" lon="6.99179">
        <ele>218</ele>
        <time>2011-01-23T10:06:10Z</time>
      </trkpt>
      <trkpt lat="49.18866" lon="6.99177">
        <ele>218</ele>
        <time>2011-01-23T10:06:11Z</time>
      </trkpt>
      <trkpt lat="49.18866" lon="6.99175">
        <ele>218</ele>
        <time>2011-01-23T10:06:12Z</time>
      </trkpt>
      <trkpt lat="49.18866" lon="6.99173">
        <ele>218</ele>
        <time>2011-01-23T10:06:13Z</time>
      </trkpt>
      <trkpt lat="49.18866" lon="6.99171">
        <ele>218</ele>
        <time>2011-01-23T10:06:14Z</time>
      </trkpt>
      <trkpt lat="49.18866" lon="6.99169">
        <ele>218</ele>
        <time>2011-01-23T10:06:15Z</time>
      </trkpt>
      <trkpt lat="49.18866" lon="6.99167">
        <ele>218</ele>
        <time>2011-01-23T10:06:16Z</time>
      </trkpt>
      <trkpt lat="49.18865" lon="6.99165">
        <ele>218</ele>
        <time>2011-01-23T10:06:17Z</time>
      </trkpt>
      <trkpt lat="49.18866" lon="6.99164">
        <ele>218</ele>
        <time>2011-01-23T10:06:18Z</time>
      </trkpt>
      <trkpt lat="49.18866" lon="6.99162">
        <ele>218</ele>
        <time>2011-01-23T10:06:19Z</time>
      </trkpt>
      <trkpt lat="49.18866" lon="6.9916">
        <ele>218</ele>
        <time>2011-01-23T10:06:20Z</time>
      </trkpt>
      <trkpt lat="49.18866" lon="6.99158">
        <ele>218</ele>
        <time>2011-01-23T10:06:21Z</time>
      </trkpt>
      <trkpt lat="49.18866" lon="6.99156">
        <ele>218</ele>
        <time>2011-01-23T10:06:22Z</time>
      </trkpt>
      <trkpt lat="49.18866" lon="6.99155">
        <ele>218</ele>
        <time>2011-01-23T10:06:23Z</time>
      </trkpt>
      <trkpt lat="49.18866" lon="6.99151">
        <ele>218</ele>
        <time>2011-01-23T10:06:25Z</time>
      </trkpt>
      <trkpt lat="49.18866" lon="6.99148">
        <ele>218</ele>
        <time>2011-01-23T10:06:27Z</time>
      </trkpt>
      <trkpt lat="49.18866" lon="6.99145">
        <ele>218</ele>
        <time>2011-01-23T10:06:29Z</time>
      </trkpt>
      <trkpt lat="49.18867" lon="6.99144">
        <ele>218</ele>
        <time>2011-01-23T10:06:30Z</time>
      </trkpt>
      <trkpt lat="49.18867" lon="6.99141">
        <ele>218</ele>
        <time>2011-01-23T10:06:32Z</time>
      </trkpt>
      <trkpt lat="49.18867" lon="6.99139">
        <ele>218</ele>
        <time>2011-01-23T10:06:33Z</time>
      </trkpt>
      <trkpt lat="49.18867" lon="6.99137">
        <ele>218</ele>
        <time>2011-01-23T10:06:34Z</time>
      </trkpt>
      <trkpt lat="49.18867" lon="6.99135">
        <ele>218</ele>
        <time>2011-01-23T10:06:35Z</time>
      </trkpt>
      <trkpt lat="49.18867" lon="6.99133">
        <ele>218</ele>
        <time>2011-01-23T10:06:36Z</time>
      </trkpt>
      <trkpt lat="49.18867" lon="6.99131">
        <ele>218</ele>
        <time>2011-01-23T10:06:37Z</time>
      </trkpt>
      <trkpt lat="49.18867" lon="6.99129">
        <ele>218</ele>
        <time>2011-01-23T10:06:38Z</time>
      </trkpt>
      <trkpt lat="49.18867" lon="6.99127">
        <ele>218</ele>
        <time>2011-01-23T10:06:39Z</time>
      </trkpt>
      <trkpt lat="49.18867" lon="6.99126">
        <ele>218</ele>
        <time>2011-01-23T10:06:40Z</time>
      </trkpt>
      <trkpt lat="49.18867" lon="6.99124">
        <ele>218</ele>
        <time>2011-01-23T10:06:41Z</time>
      </trkpt>
      <trkpt lat="49.18867" lon="6.99122">
        <ele>218</ele>
        <time>2011-01-23T10:06:42Z</time>
      </trkpt>
      <trkpt lat="49.18867" lon="6.99121">
        <ele>218</ele>
        <time>2011-01-23T10:06:43Z</time>
      </trkpt>
      <trkpt lat="49.18867" lon="6.99119">
        <ele>218</ele>
        <time>2011-01-23T10:06:44Z</time>
      </trkpt>
      <trkpt lat="49.18867" lon="6.99117">
        <ele>218</ele>
        <time>2011-01-23T10:06:45Z</time>
      </trkpt>
      <trkpt lat="49.18867" lon="6.99115">
        <ele>218</ele>
        <time>2011-01-23T10:06:46Z</time>
      </trkpt>
      <trkpt lat="49.18867" lon="6.99113">
        <ele>218</ele>
        <time>2011-01-23T10:06:47Z</time>
      </trkpt>
      <trkpt lat="49.18867" lon="6.99111">
        <ele>218</ele>
        <time>2011-01-23T10:06:48Z</time>
      </trkpt>
      <trkpt lat="49.18867" lon="6.99109">
        <ele>218</ele>
        <time>2011-01-23T10:06:49Z</time>
      </trkpt>
      <trkpt lat="49.18867" lon="6.99108">
        <ele>218</ele>
        <time>2011-01-23T10:06:50Z</time>
      </trkpt>
      <trkpt lat="49.18867" lon="6.99106">
        <ele>218</ele>
        <time>2011-01-23T10:06:51Z</time>
      </trkpt>
      <trkpt lat="49.18867" lon="6.99104">
        <ele>218</ele>
        <time>2011-01-23T10:06:52Z</time>
      </trkpt>
      <trkpt lat="49.18867" lon="6.99102">
        <ele>218</ele>
        <time>2011-01-23T10:06:53Z</time>
      </trkpt>
      <trkpt lat="49.18868" lon="6.991">
        <ele>218</ele>
        <time>2011-01-23T10:06:54Z</time>
      </trkpt>
      <trkpt lat="49.18868" lon="6.99098">
        <ele>218</ele>
        <time>2011-01-23T10:06:55Z</time>
      </trkpt>
      <trkpt lat="49.18868" lon="6.99097">
        <ele>218</ele>
        <time>2011-01-23T10:06:56Z</time>
      </trkpt>
      <trkpt lat="49.18868" lon="6.99095">
        <ele>218</ele>
        <time>2011-01-23T10:06:57Z</time>
      </trkpt>
      <trkpt lat="49.18869" lon="6.99093">
        <ele>218</ele>
        <time>2011-01-23T10:06:58Z</time>
      </trkpt>
      <trkpt lat="49.18869" lon="6.99091">
        <ele>218</ele>
        <time>2011-01-23T10:06:59Z</time>
      </trkpt>
      <trkpt lat="49.18869" lon="6.9909">
        <ele>218</ele>
        <time>2011-01-23T10:07:00Z</time>
      </trkpt>
      <trkpt lat="49.18869" lon="6.99088">
        <ele>218</ele>
        <time>2011-01-23T10:07:01Z</time>
      </trkpt>
      <trkpt lat="49.18868" lon="6.99085">
        <ele>218</ele>
        <time>2011-01-23T10:07:02Z</time>
      </trkpt>
      <trkpt lat="49.18867" lon="6.99083">
        <ele>218</ele>
        <time>2011-01-23T10:07:03Z</time>
      </trkpt>
      <trkpt lat="49.18867" lon="6.99081">
        <ele>218</ele>
        <time>2011-01-23T10:07:04Z</time>
      </trkpt>
      <trkpt lat="49.18867" lon="6.99078">
        <ele>218</ele>
        <time>2011-01-23T10:07:05Z</time>
      </trkpt>
      <trkpt lat="49.18867" lon="6.99076">
        <ele>218</ele>
        <time>2011-01-23T10:07:06Z</time>
      </trkpt>
      <trkpt lat="49.18867" lon="6.99074">
        <ele>218</ele>
        <time>2011-01-23T10:07:07Z</time>
      </trkpt>
      <trkpt lat="49.18867" lon="6.99073">
        <ele>218</ele>
        <time>2011-01-23T10:07:08Z</time>
      </trkpt>
      <trkpt lat="49.18867" lon="6.99071">
        <ele>218</ele>
        <time>2011-01-23T10:07:09Z</time>
      </trkpt>
      <trkpt lat="49.18867" lon="6.99069">
        <ele>218</ele>
        <time>2011-01-23T10:07:10Z</time>
      </trkpt>
      <trkpt lat="49.18867" lon="6.99067">
        <ele>218</ele>
        <time>2011-01-23T10:07:11Z</time>
      </trkpt>
      <trkpt lat="49.18867" lon="6.99065">
        <ele>218</ele>
        <time>2011-01-23T10:07:12Z</time>
      </trkpt>
      <trkpt lat="49.18867" lon="6.99064">
        <ele>218</ele>
        <time>2011-01-23T10:07:13Z</time>
      </trkpt>
      <trkpt lat="49.18867" lon="6.99062">
        <ele>218</ele>
        <time>2011-01-23T10:07:14Z</time>
      </trkpt>
      <trkpt lat="49.18867" lon="6.9906">
        <ele>218</ele>
        <time>2011-01-23T10:07:15Z</time>
      </trkpt>
      <trkpt lat="49.18867" lon="6.99059">
        <ele>218</ele>
        <time>2011-01-23T10:07:16Z</time>
      </trkpt>
      <trkpt lat="49.18868" lon="6.99056">
        <ele>218</ele>
        <time>2011-01-23T10:07:18Z</time>
      </trkpt>
      <trkpt lat="49.18868" lon="6.99053">
        <ele>218</ele>
        <time>2011-01-23T10:07:20Z</time>
      </trkpt>
      <trkpt lat="49.18869" lon="6.99051">
        <ele>218</ele>
        <time>2011-01-23T10:07:21Z</time>
      </trkpt>
      <trkpt lat="49.18869" lon="6.99048">
        <ele>218</ele>
        <time>2011-01-23T10:07:23Z</time>
      </trkpt>
      <trkpt lat="49.18869" lon="6.99046">
        <ele>218</ele>
        <time>2011-01-23T10:07:24Z</time>
      </trkpt>
      <trkpt lat="49.18869" lon="6.99045">
        <ele>218</ele>
        <time>2011-01-23T10:07:25Z</time>
      </trkpt>
      <trkpt lat="49.18869" lon="6.99043">
        <ele>218</ele>
        <time>2011-01-23T10:07:26Z</time>
      </trkpt>
      <trkpt lat="49.18869" lon="6.99041">
        <ele>218</ele>
        <time>2011-01-23T10:07:27Z</time>
      </trkpt>
      <trkpt lat="49.18869" lon="6.99039">
        <ele>218</ele>
        <time>2011-01-23T10:07:28Z</time>
      </trkpt>
      <trkpt lat="49.18869" lon="6.99038">
        <ele>218</ele>
        <time>2011-01-23T10:07:29Z</time>
      </trkpt>
      <trkpt lat="49.18869" lon="6.99036">
        <ele>218</ele>
        <time>2011-01-23T10:07:30Z</time>
      </trkpt>
      <trkpt lat="49.1887" lon="6.99034">
        <ele>218</ele>
        <time>2011-01-23T10:07:31Z</time>
      </trkpt>
      <trkpt lat="49.1887" lon="6.99032">
        <ele>218</ele>
        <time>2011-01-23T10:07:32Z</time>
      </trkpt>
      <trkpt lat="49.1887" lon="6.9903">
        <ele>218</ele>
        <time>2011-01-23T10:07:33Z</time>
      </trkpt>
      <trkpt lat="49.1887" lon="6.99028">
        <ele>218</ele>
        <time>2011-01-23T10:07:34Z</time>
      </trkpt>
      <trkpt lat="49.1887" lon="6.99026">
        <ele>218</ele>
        <time>2011-01-23T10:07:35Z</time>
      </trkpt>
      <trkpt lat="49.1887" lon="6.99025">
        <ele>218</ele>
        <time>2011-01-23T10:07:36Z</time>
      </trkpt>
      <trkpt lat="49.1887" lon="6.99023">
        <ele>218</ele>
        <time>2011-01-23T10:07:37Z</time>
      </trkpt>
      <trkpt lat="49.1887" lon="6.99021">
        <ele>218</ele>
        <time>2011-01-23T10:07:38Z</time>
      </trkpt>
      <trkpt lat="49.18871" lon="6.99019">
        <ele>218</ele>
        <time>2011-01-23T10:07:39Z</time>
      </trkpt>
      <trkpt lat="49.18871" lon="6.99017">
        <ele>218</ele>
        <time>2011-01-23T10:07:40Z</time>
      </trkpt>
      <trkpt lat="49.18871" lon="6.99016">
        <ele>218</ele>
        <time>2011-01-23T10:07:41Z</time>
      </trkpt>
      <trkpt lat="49.18871" lon="6.99014">
        <ele>218</ele>
        <time>2011-01-23T10:07:42Z</time>
      </trkpt>
      <trkpt lat="49.18872" lon="6.99012">
        <ele>218</ele>
        <time>2011-01-23T10:07:43Z</time>
      </trkpt>
      <trkpt lat="49.18872" lon="6.99011">
        <ele>218</ele>
        <time>2011-01-23T10:07:44Z</time>
      </trkpt>
      <trkpt lat="49.18872" lon="6.99008">
        <ele>218</ele>
        <time>2011-01-23T10:07:46Z</time>
      </trkpt>
      <trkpt lat="49.18873" lon="6.99004">
        <ele>218</ele>
        <time>2011-01-23T10:07:48Z</time>
      </trkpt>
      <trkpt lat="49.18873" lon="6.99003">
        <ele>218</ele>
        <time>2011-01-23T10:07:49Z</time>
      </trkpt>
      <trkpt lat="49.18873" lon="6.99001">
        <ele>218</ele>
        <time>2011-01-23T10:07:50Z</time>
      </trkpt>
      <trkpt lat="49.18873" lon="6.98999">
        <ele>218</ele>
        <time>2011-01-23T10:07:51Z</time>
      </trkpt>
      <trkpt lat="49.18873" lon="6.98998">
        <ele>218</ele>
        <time>2011-01-23T10:07:52Z</time>
      </trkpt>
      <trkpt lat="49.18873" lon="6.98996">
        <ele>218</ele>
        <time>2011-01-23T10:07:53Z</time>
      </trkpt>
      <trkpt lat="49.18874" lon="6.98994">
        <ele>218</ele>
        <time>2011-01-23T10:07:54Z</time>
      </trkpt>
      <trkpt lat="49.18874" lon="6.98993">
        <ele>218</ele>
        <time>2011-01-23T10:07:55Z</time>
      </trkpt>
      <trkpt lat="49.18874" lon="6.98991">
        <ele>218</ele>
        <time>2011-01-23T10:07:56Z</time>
      </trkpt>
      <trkpt lat="49.18875" lon="6.98988">
        <ele>218</ele>
        <time>2011-01-23T10:07:58Z</time>
      </trkpt>
      <trkpt lat="49.18876" lon="6.98986">
        <ele>218</ele>
        <time>2011-01-23T10:08:00Z</time>
      </trkpt>
      <trkpt lat="49.18877" lon="6.98983">
        <ele>218</ele>
        <time>2011-01-23T10:08:02Z</time>
      </trkpt>
      <trkpt lat="49.18877" lon="6.98981">
        <ele>218</ele>
        <time>2011-01-23T10:08:03Z</time>
      </trkpt>
      <trkpt lat="49.18877" lon="6.98978">
        <ele>218</ele>
        <time>2011-01-23T10:08:04Z</time>
      </trkpt>
      <trkpt lat="49.18877" lon="6.98975">
        <ele>218</ele>
        <time>2011-01-23T10:08:06Z</time>
      </trkpt>
      <trkpt lat="49.18879" lon="6.98972">
        <ele>218</ele>
        <time>2011-01-23T10:08:08Z</time>
      </trkpt>
      <trkpt lat="49.18879" lon="6.98969">
        <ele>218</ele>
        <time>2011-01-23T10:08:10Z</time>
      </trkpt>
      <trkpt lat="49.1888" lon="6.98966">
        <ele>217</ele>
        <time>2011-01-23T10:08:12Z</time>
      </trkpt>
      <trkpt lat="49.1888" lon="6.98963">
        <ele>216</ele>
        <time>2011-01-23T10:08:14Z</time>
      </trkpt>
      <trkpt lat="49.1888" lon="6.98961">
        <ele>216</ele>
        <time>2011-01-23T10:08:15Z</time>
      </trkpt>
      <trkpt lat="49.1888" lon="6.98959">
        <ele>216</ele>
        <time>2011-01-23T10:08:16Z</time>
      </trkpt>
      <trkpt lat="49.1888" lon="6.98957">
        <ele>215</ele>
        <time>2011-01-23T10:08:17Z</time>
      </trkpt>
      <trkpt lat="49.18881" lon="6.98954">
        <ele>215</ele>
        <time>2011-01-23T10:08:19Z</time>
      </trkpt>
      <trkpt lat="49.18881" lon="6.98952">
        <ele>215</ele>
        <time>2011-01-23T10:08:20Z</time>
      </trkpt>
      <trkpt lat="49.18881" lon="6.9895">
        <ele>215</ele>
        <time>2011-01-23T10:08:21Z</time>
      </trkpt>
      <trkpt lat="49.18881" lon="6.98949">
        <ele>215</ele>
        <time>2011-01-23T10:08:22Z</time>
      </trkpt>
      <trkpt lat="49.18881" lon="6.98947">
        <ele>215</ele>
        <time>2011-01-23T10:08:23Z</time>
      </trkpt>
      <trkpt lat="49.18881" lon="6.98946">
        <ele>215</ele>
        <time>2011-01-23T10:08:24Z</time>
      </trkpt>
      <trkpt lat="49.18881" lon="6.98944">
        <ele>214</ele>
        <time>2011-01-23T10:08:25Z</time>
      </trkpt>
      <trkpt lat="49.18881" lon="6.98942">
        <ele>214</ele>
        <time>2011-01-23T10:08:26Z</time>
      </trkpt>
      <trkpt lat="49.18881" lon="6.9894">
        <ele>214</ele>
        <time>2011-01-23T10:08:27Z</time>
      </trkpt>
      <trkpt lat="49.18881" lon="6.98937">
        <ele>214</ele>
        <time>2011-01-23T10:08:28Z</time>
      </trkpt>
      <trkpt lat="49.18881" lon="6.98935">
        <ele>214</ele>
        <time>2011-01-23T10:08:29Z</time>
      </trkpt>
      <trkpt lat="49.1888" lon="6.98933">
        <ele>214</ele>
        <time>2011-01-23T10:08:30Z</time>
      </trkpt>
      <trkpt lat="49.1888" lon="6.98931">
        <ele>214</ele>
        <time>2011-01-23T10:08:31Z</time>
      </trkpt>
      <trkpt lat="49.1888" lon="6.9893">
        <ele>214</ele>
        <time>2011-01-23T10:08:32Z</time>
      </trkpt>
      <trkpt lat="49.1888" lon="6.98927">
        <ele>214</ele>
        <time>2011-01-23T10:08:33Z</time>
      </trkpt>
      <trkpt lat="49.1888" lon="6.98926">
        <ele>214</ele>
        <time>2011-01-23T10:08:34Z</time>
      </trkpt>
      <trkpt lat="49.1888" lon="6.98923">
        <ele>214</ele>
        <time>2011-01-23T10:08:36Z</time>
      </trkpt>
      <trkpt lat="49.1888" lon="6.98921">
        <ele>214</ele>
        <time>2011-01-23T10:08:37Z</time>
      </trkpt>
      <trkpt lat="49.1888" lon="6.98919">
        <ele>214</ele>
        <time>2011-01-23T10:08:38Z</time>
      </trkpt>
      <trkpt lat="49.18879" lon="6.98917">
        <ele>214</ele>
        <time>2011-01-23T10:08:40Z</time>
      </trkpt>
      <trkpt lat="49.18879" lon="6.98914">
        <ele>214</ele>
        <time>2011-01-23T10:08:42Z</time>
      </trkpt>
      <trkpt lat="49.18878" lon="6.98912">
        <ele>214</ele>
        <time>2011-01-23T10:08:43Z</time>
      </trkpt>
      <trkpt lat="49.18878" lon="6.9891">
        <ele>214</ele>
        <time>2011-01-23T10:08:44Z</time>
      </trkpt>
      <trkpt lat="49.18877" lon="6.98908">
        <ele>214</ele>
        <time>2011-01-23T10:08:45Z</time>
      </trkpt>
      <trkpt lat="49.18876" lon="6.98905">
        <ele>214</ele>
        <time>2011-01-23T10:08:46Z</time>
      </trkpt>
      <trkpt lat="49.18876" lon="6.98904">
        <ele>214</ele>
        <time>2011-01-23T10:08:47Z</time>
      </trkpt>
      <trkpt lat="49.18875" lon="6.98902">
        <ele>214</ele>
        <time>2011-01-23T10:08:48Z</time>
      </trkpt>
      <trkpt lat="49.18874" lon="6.989">
        <ele>214</ele>
        <time>2011-01-23T10:08:49Z</time>
      </trkpt>
      <trkpt lat="49.18874" lon="6.98898">
        <ele>215</ele>
        <time>2011-01-23T10:08:50Z</time>
      </trkpt>
      <trkpt lat="49.18874" lon="6.98896">
        <ele>216</ele>
        <time>2011-01-23T10:08:51Z</time>
      </trkpt>
      <trkpt lat="49.18873" lon="6.98894">
        <ele>217</ele>
        <time>2011-01-23T10:08:52Z</time>
      </trkpt>
      <trkpt lat="49.18873" lon="6.98893">
        <ele>217</ele>
        <time>2011-01-23T10:08:53Z</time>
      </trkpt>
      <trkpt lat="49.18873" lon="6.98891">
        <ele>218</ele>
        <time>2011-01-23T10:08:54Z</time>
      </trkpt>
      <trkpt lat="49.18873" lon="6.98889">
        <ele>218</ele>
        <time>2011-01-23T10:08:55Z</time>
      </trkpt>
      <trkpt lat="49.18873" lon="6.98887">
        <ele>218</ele>
        <time>2011-01-23T10:08:56Z</time>
      </trkpt>
      <trkpt lat="49.18873" lon="6.98886">
        <ele>218</ele>
        <time>2011-01-23T10:08:57Z</time>
      </trkpt>
      <trkpt lat="49.18873" lon="6.98884">
        <ele>218</ele>
        <time>2011-01-23T10:08:58Z</time>
      </trkpt>
      <trkpt lat="49.18873" lon="6.98882">
        <ele>218</ele>
        <time>2011-01-23T10:08:59Z</time>
      </trkpt>
      <trkpt lat="49.18873" lon="6.9888">
        <ele>218</ele>
        <time>2011-01-23T10:09:00Z</time>
      </trkpt>
      <trkpt lat="49.18873" lon="6.98878">
        <ele>218</ele>
        <time>2011-01-23T10:09:01Z</time>
      </trkpt>
      <trkpt lat="49.18872" lon="6.98876">
        <ele>218</ele>
        <time>2011-01-23T10:09:03Z</time>
      </trkpt>
      <trkpt lat="49.18872" lon="6.98874">
        <ele>218</ele>
        <time>2011-01-23T10:09:04Z</time>
      </trkpt>
      <trkpt lat="49.18872" lon="6.98872">
        <ele>218</ele>
        <time>2011-01-23T10:09:05Z</time>
      </trkpt>
      <trkpt lat="49.18872" lon="6.9887">
        <ele>218</ele>
        <time>2011-01-23T10:09:06Z</time>
      </trkpt>
      <trkpt lat="49.18872" lon="6.98868">
        <ele>218</ele>
        <time>2011-01-23T10:09:07Z</time>
      </trkpt>
      <trkpt lat="49.18872" lon="6.98866">
        <ele>218</ele>
        <time>2011-01-23T10:09:08Z</time>
      </trkpt>
      <trkpt lat="49.18872" lon="6.98864">
        <ele>218</ele>
        <time>2011-01-23T10:09:09Z</time>
      </trkpt>
      <trkpt lat="49.18871" lon="6.98861">
        <ele>218</ele>
        <time>2011-01-23T10:09:11Z</time>
      </trkpt>
      <trkpt lat="49.18871" lon="6.98859">
        <ele>218</ele>
        <time>2011-01-23T10:09:12Z</time>
      </trkpt>
      <trkpt lat="49.18872" lon="6.98856">
        <ele>218</ele>
        <time>2011-01-23T10:09:14Z</time>
      </trkpt>
      <trkpt lat="49.18872" lon="6.98854">
        <ele>218</ele>
        <time>2011-01-23T10:09:15Z</time>
      </trkpt>
      <trkpt lat="49.1887" lon="6.98851">
        <ele>218</ele>
        <time>2011-01-23T10:09:16Z</time>
      </trkpt>
      <trkpt lat="49.1887" lon="6.98848">
        <ele>218</ele>
        <time>2011-01-23T10:09:17Z</time>
      </trkpt>
      <trkpt lat="49.18869" lon="6.98846">
        <ele>218</ele>
        <time>2011-01-23T10:09:18Z</time>
      </trkpt>
      <trkpt lat="49.18868" lon="6.98843">
        <ele>218</ele>
        <time>2011-01-23T10:09:19Z</time>
      </trkpt>
      <trkpt lat="49.18867" lon="6.98841">
        <ele>218</ele>
        <time>2011-01-23T10:09:20Z</time>
      </trkpt>
      <trkpt lat="49.18866" lon="6.98839">
        <ele>219</ele>
        <time>2011-01-23T10:09:21Z</time>
      </trkpt>
      <trkpt lat="49.18866" lon="6.98837">
        <ele>219</ele>
        <time>2011-01-23T10:09:22Z</time>
      </trkpt>
      <trkpt lat="49.18866" lon="6.98836">
        <ele>220</ele>
        <time>2011-01-23T10:09:23Z</time>
      </trkpt>
      <trkpt lat="49.18866" lon="6.98834">
        <ele>220</ele>
        <time>2011-01-23T10:09:24Z</time>
      </trkpt>
      <trkpt lat="49.18865" lon="6.9883">
        <ele>220</ele>
        <time>2011-01-23T10:09:26Z</time>
      </trkpt>
      <trkpt lat="49.18864" lon="6.98829">
        <ele>220</ele>
        <time>2011-01-23T10:09:27Z</time>
      </trkpt>
      <trkpt lat="49.18864" lon="6.98827">
        <ele>220</ele>
        <time>2011-01-23T10:09:28Z</time>
      </trkpt>
      <trkpt lat="49.18864" lon="6.98825">
        <ele>220</ele>
        <time>2011-01-23T10:09:29Z</time>
      </trkpt>
      <trkpt lat="49.18864" lon="6.98823">
        <ele>220</ele>
        <time>2011-01-23T10:09:30Z</time>
      </trkpt>
      <trkpt lat="49.18864" lon="6.98821">
        <ele>220</ele>
        <time>2011-01-23T10:09:31Z</time>
      </trkpt>
      <trkpt lat="49.18864" lon="6.9882">
        <ele>220</ele>
        <time>2011-01-23T10:09:32Z</time>
      </trkpt>
      <trkpt lat="49.18864" lon="6.98818">
        <ele>220</ele>
        <time>2011-01-23T10:09:33Z</time>
      </trkpt>
      <trkpt lat="49.18864" lon="6.98816">
        <ele>220</ele>
        <time>2011-01-23T10:09:34Z</time>
      </trkpt>
      <trkpt lat="49.18864" lon="6.98813">
        <ele>220</ele>
        <time>2011-01-23T10:09:36Z</time>
      </trkpt>
      <trkpt lat="49.18863" lon="6.9881">
        <ele>220</ele>
        <time>2011-01-23T10:09:38Z</time>
      </trkpt>
      <trkpt lat="49.18863" lon="6.98808">
        <ele>220</ele>
        <time>2011-01-23T10:09:39Z</time>
      </trkpt>
      <trkpt lat="49.18863" lon="6.98805">
        <ele>220</ele>
        <time>2011-01-23T10:09:41Z</time>
      </trkpt>
      <trkpt lat="49.18863" lon="6.98803">
        <ele>220</ele>
        <time>2011-01-23T10:09:42Z</time>
      </trkpt>
      <trkpt lat="49.18862" lon="6.98802">
        <ele>220</ele>
        <time>2011-01-23T10:09:43Z</time>
      </trkpt>
      <trkpt lat="49.18861" lon="6.98799">
        <ele>220</ele>
        <time>2011-01-23T10:09:45Z</time>
      </trkpt>
      <trkpt lat="49.18861" lon="6.98796">
        <ele>220</ele>
        <time>2011-01-23T10:09:47Z</time>
      </trkpt>
      <trkpt lat="49.1886" lon="6.98793">
        <ele>220</ele>
        <time>2011-01-23T10:09:48Z</time>
      </trkpt>
      <trkpt lat="49.1886" lon="6.98791">
        <ele>220</ele>
        <time>2011-01-23T10:09:49Z</time>
      </trkpt>
      <trkpt lat="49.18859" lon="6.98788">
        <ele>220</ele>
        <time>2011-01-23T10:09:51Z</time>
      </trkpt>
      <trkpt lat="49.18859" lon="6.98785">
        <ele>220</ele>
        <time>2011-01-23T10:09:53Z</time>
      </trkpt>
      <trkpt lat="49.18859" lon="6.98783">
        <ele>220</ele>
        <time>2011-01-23T10:09:54Z</time>
      </trkpt>
      <trkpt lat="49.18858" lon="6.9878">
        <ele>220</ele>
        <time>2011-01-23T10:09:56Z</time>
      </trkpt>
      <trkpt lat="49.18858" lon="6.98778">
        <ele>220</ele>
        <time>2011-01-23T10:09:57Z</time>
      </trkpt>
      <trkpt lat="49.18858" lon="6.98777">
        <ele>220</ele>
        <time>2011-01-23T10:09:58Z</time>
      </trkpt>
      <trkpt lat="49.18857" lon="6.98775">
        <ele>220</ele>
        <time>2011-01-23T10:09:59Z</time>
      </trkpt>
      <trkpt lat="49.18857" lon="6.98773">
        <ele>220</ele>
        <time>2011-01-23T10:10:00Z</time>
      </trkpt>
      <trkpt lat="49.18856" lon="6.98771">
        <ele>220</ele>
        <time>2011-01-23T10:10:01Z</time>
      </trkpt>
      <trkpt lat="49.18856" lon="6.9877">
        <ele>220</ele>
        <time>2011-01-23T10:10:02Z</time>
      </trkpt>
      <trkpt lat="49.18855" lon="6.98768">
        <ele>220</ele>
        <time>2011-01-23T10:10:03Z</time>
      </trkpt>
      <trkpt lat="49.18855" lon="6.98766">
        <ele>220</ele>
        <time>2011-01-23T10:10:04Z</time>
      </trkpt>
      <trkpt lat="49.18854" lon="6.98764">
        <ele>220</ele>
        <time>2011-01-23T10:10:05Z</time>
      </trkpt>
      <trkpt lat="49.18854" lon="6.98762">
        <ele>221</ele>
        <time>2011-01-23T10:10:06Z</time>
      </trkpt>
      <trkpt lat="49.18853" lon="6.98759">
        <ele>221</ele>
        <time>2011-01-23T10:10:08Z</time>
      </trkpt>
      <trkpt lat="49.18852" lon="6.98757">
        <ele>221</ele>
        <time>2011-01-23T10:10:09Z</time>
      </trkpt>
      <trkpt lat="49.18852" lon="6.98755">
        <ele>221</ele>
        <time>2011-01-23T10:10:10Z</time>
      </trkpt>
      <trkpt lat="49.18851" lon="6.98753">
        <ele>221</ele>
        <time>2011-01-23T10:10:11Z</time>
      </trkpt>
      <trkpt lat="49.18851" lon="6.98751">
        <ele>221</ele>
        <time>2011-01-23T10:10:12Z</time>
      </trkpt>
      <trkpt lat="49.18851" lon="6.98749">
        <ele>221</ele>
        <time>2011-01-23T10:10:13Z</time>
      </trkpt>
      <trkpt lat="49.1885" lon="6.98746">
        <ele>221</ele>
        <time>2011-01-23T10:10:15Z</time>
      </trkpt>
      <trkpt lat="49.1885" lon="6.98744">
        <ele>221</ele>
        <time>2011-01-23T10:10:16Z</time>
      </trkpt>
      <trkpt lat="49.18849" lon="6.98742">
        <ele>221</ele>
        <time>2011-01-23T10:10:17Z</time>
      </trkpt>
      <trkpt lat="49.18849" lon="6.9874">
        <ele>221</ele>
        <time>2011-01-23T10:10:18Z</time>
      </trkpt>
      <trkpt lat="49.18848" lon="6.98738">
        <ele>221</ele>
        <time>2011-01-23T10:10:19Z</time>
      </trkpt>
      <trkpt lat="49.18848" lon="6.98736">
        <ele>221</ele>
        <time>2011-01-23T10:10:20Z</time>
      </trkpt>
      <trkpt lat="49.18847" lon="6.98735">
        <ele>221</ele>
        <time>2011-01-23T10:10:21Z</time>
      </trkpt>
      <trkpt lat="49.18847" lon="6.98733">
        <ele>221</ele>
        <time>2011-01-23T10:10:22Z</time>
      </trkpt>
      <trkpt lat="49.18846" lon="6.98731">
        <ele>222</ele>
        <time>2011-01-23T10:10:23Z</time>
      </trkpt>
      <trkpt lat="49.18846" lon="6.98729">
        <ele>222</ele>
        <time>2011-01-23T10:10:24Z</time>
      </trkpt>
      <trkpt lat="49.18845" lon="6.98728">
        <ele>222</ele>
        <time>2011-01-23T10:10:25Z</time>
      </trkpt>
      <trkpt lat="49.18845" lon="6.98725">
        <ele>222</ele>
        <time>2011-01-23T10:10:26Z</time>
      </trkpt>
      <trkpt lat="49.18844" lon="6.98723">
        <ele>222</ele>
        <time>2011-01-23T10:10:27Z</time>
      </trkpt>
      <trkpt lat="49.18844" lon="6.98721">
        <ele>222</ele>
        <time>2011-01-23T10:10:28Z</time>
      </trkpt>
      <trkpt lat="49.18844" lon="6.9872">
        <ele>222</ele>
        <time>2011-01-23T10:10:29Z</time>
      </trkpt>
      <trkpt lat="49.18843" lon="6.98718">
        <ele>222</ele>
        <time>2011-01-23T10:10:30Z</time>
      </trkpt>
      <trkpt lat="49.18843" lon="6.98716">
        <ele>222</ele>
        <time>2011-01-23T10:10:31Z</time>
      </trkpt>
      <trkpt lat="49.18843" lon="6.98714">
        <ele>222</ele>
        <time>2011-01-23T10:10:32Z</time>
      </trkpt>
      <trkpt lat="49.18842" lon="6.98712">
        <ele>222</ele>
        <time>2011-01-23T10:10:33Z</time>
      </trkpt>
      <trkpt lat="49.18842" lon="6.9871">
        <ele>222</ele>
        <time>2011-01-23T10:10:34Z</time>
      </trkpt>
      <trkpt lat="49.18842" lon="6.98708">
        <ele>222</ele>
        <time>2011-01-23T10:10:35Z</time>
      </trkpt>
      <trkpt lat="49.18842" lon="6.98706">
        <ele>222</ele>
        <time>2011-01-23T10:10:36Z</time>
      </trkpt>
      <trkpt lat="49.18841" lon="6.98704">
        <ele>222</ele>
        <time>2011-01-23T10:10:37Z</time>
      </trkpt>
      <trkpt lat="49.18841" lon="6.98703">
        <ele>222</ele>
        <time>2011-01-23T10:10:38Z</time>
      </trkpt>
      <trkpt lat="49.18841" lon="6.98701">
        <ele>222</ele>
        <time>2011-01-23T10:10:39Z</time>
      </trkpt>
      <trkpt lat="49.1884" lon="6.98699">
        <ele>222</ele>
        <time>2011-01-23T10:10:40Z</time>
      </trkpt>
      <trkpt lat="49.1884" lon="6.98696">
        <ele>222</ele>
        <time>2011-01-23T10:10:42Z</time>
      </trkpt>
      <trkpt lat="49.18839" lon="6.98694">
        <ele>222</ele>
        <time>2011-01-23T10:10:43Z</time>
      </trkpt>
      <trkpt lat="49.18839" lon="6.98692">
        <ele>222</ele>
        <time>2011-01-23T10:10:44Z</time>
      </trkpt>
      <trkpt lat="49.18838" lon="6.9869">
        <ele>222</ele>
        <time>2011-01-23T10:10:45Z</time>
      </trkpt>
      <trkpt lat="49.18837" lon="6.98688">
        <ele>222</ele>
        <time>2011-01-23T10:10:46Z</time>
      </trkpt>
      <trkpt lat="49.18837" lon="6.98686">
        <ele>222</ele>
        <time>2011-01-23T10:10:47Z</time>
      </trkpt>
      <trkpt lat="49.18836" lon="6.98684">
        <ele>222</ele>
        <time>2011-01-23T10:10:48Z</time>
      </trkpt>
      <trkpt lat="49.18836" lon="6.98682">
        <ele>222</ele>
        <time>2011-01-23T10:10:49Z</time>
      </trkpt>
      <trkpt lat="49.18835" lon="6.9868">
        <ele>222</ele>
        <time>2011-01-23T10:10:50Z</time>
      </trkpt>
      <trkpt lat="49.18835" lon="6.98678">
        <ele>222</ele>
        <time>2011-01-23T10:10:51Z</time>
      </trkpt>
      <trkpt lat="49.18835" lon="6.98676">
        <ele>223</ele>
        <time>2011-01-23T10:10:52Z</time>
      </trkpt>
      <trkpt lat="49.18834" lon="6.98674">
        <ele>223</ele>
        <time>2011-01-23T10:10:53Z</time>
      </trkpt>
      <trkpt lat="49.18833" lon="6.98671">
        <ele>223</ele>
        <time>2011-01-23T10:10:54Z</time>
      </trkpt>
      <trkpt lat="49.18833" lon="6.98669">
        <ele>223</ele>
        <time>2011-01-23T10:10:55Z</time>
      </trkpt>
      <trkpt lat="49.18832" lon="6.98666">
        <ele>223</ele>
        <time>2011-01-23T10:10:57Z</time>
      </trkpt>
      <trkpt lat="49.18831" lon="6.98663">
        <ele>224</ele>
        <time>2011-01-23T10:10:59Z</time>
      </trkpt>
      <trkpt lat="49.18831" lon="6.98661">
        <ele>224</ele>
        <time>2011-01-23T10:11:00Z</time>
      </trkpt>
      <trkpt lat="49.1883" lon="6.98659">
        <ele>224</ele>
        <time>2011-01-23T10:11:01Z</time>
      </trkpt>
      <trkpt lat="49.18829" lon="6.98658">
        <ele>224</ele>
        <time>2011-01-23T10:11:02Z</time>
      </trkpt>
      <trkpt lat="49.18829" lon="6.98656">
        <ele>224</ele>
        <time>2011-01-23T10:11:03Z</time>
      </trkpt>
      <trkpt lat="49.18828" lon="6.98654">
        <ele>224</ele>
        <time>2011-01-23T10:11:04Z</time>
      </trkpt>
      <trkpt lat="49.18828" lon="6.98652">
        <ele>224</ele>
        <time>2011-01-23T10:11:05Z</time>
      </trkpt>
      <trkpt lat="49.18827" lon="6.9865">
        <ele>224</ele>
        <time>2011-01-23T10:11:06Z</time>
      </trkpt>
      <trkpt lat="49.18827" lon="6.98648">
        <ele>224</ele>
        <time>2011-01-23T10:11:07Z</time>
      </trkpt>
      <trkpt lat="49.18826" lon="6.98646">
        <ele>224</ele>
        <time>2011-01-23T10:11:08Z</time>
      </trkpt>
      <trkpt lat="49.18825" lon="6.98644">
        <ele>224</ele>
        <time>2011-01-23T10:11:09Z</time>
      </trkpt>
      <trkpt lat="49.18825" lon="6.98642">
        <ele>225</ele>
        <time>2011-01-23T10:11:10Z</time>
      </trkpt>
      <trkpt lat="49.18824" lon="6.98641">
        <ele>225</ele>
        <time>2011-01-23T10:11:11Z</time>
      </trkpt>
      <trkpt lat="49.18823" lon="6.98638">
        <ele>225</ele>
        <time>2011-01-23T10:11:13Z</time>
      </trkpt>
      <trkpt lat="49.18823" lon="6.98636">
        <ele>226</ele>
        <time>2011-01-23T10:11:14Z</time>
      </trkpt>
      <trkpt lat="49.18822" lon="6.98634">
        <ele>226</ele>
        <time>2011-01-23T10:11:15Z</time>
      </trkpt>
      <trkpt lat="49.18822" lon="6.98632">
        <ele>226</ele>
        <time>2011-01-23T10:11:16Z</time>
      </trkpt>
      <trkpt lat="49.18821" lon="6.9863">
        <ele>226</ele>
        <time>2011-01-23T10:11:17Z</time>
      </trkpt>
      <trkpt lat="49.18821" lon="6.98628">
        <ele>226</ele>
        <time>2011-01-23T10:11:18Z</time>
      </trkpt>
      <trkpt lat="49.1882" lon="6.98627">
        <ele>226</ele>
        <time>2011-01-23T10:11:19Z</time>
      </trkpt>
      <trkpt lat="49.18819" lon="6.98625">
        <ele>226</ele>
        <time>2011-01-23T10:11:20Z</time>
      </trkpt>
      <trkpt lat="49.18819" lon="6.98623">
        <ele>226</ele>
        <time>2011-01-23T10:11:21Z</time>
      </trkpt>
      <trkpt lat="49.18818" lon="6.98621">
        <ele>227</ele>
        <time>2011-01-23T10:11:22Z</time>
      </trkpt>
      <trkpt lat="49.18818" lon="6.98619">
        <ele>227</ele>
        <time>2011-01-23T10:11:23Z</time>
      </trkpt>
      <trkpt lat="49.18817" lon="6.98617">
        <ele>227</ele>
        <time>2011-01-23T10:11:24Z</time>
      </trkpt>
      <trkpt lat="49.18816" lon="6.98615">
        <ele>228</ele>
        <time>2011-01-23T10:11:25Z</time>
      </trkpt>
      <trkpt lat="49.18816" lon="6.98613">
        <ele>228</ele>
        <time>2011-01-23T10:11:26Z</time>
      </trkpt>
      <trkpt lat="49.18816" lon="6.98611">
        <ele>228</ele>
        <time>2011-01-23T10:11:27Z</time>
      </trkpt>
      <trkpt lat="49.18815" lon="6.98609">
        <ele>228</ele>
        <time>2011-01-23T10:11:28Z</time>
      </trkpt>
      <trkpt lat="49.18815" lon="6.98608">
        <ele>229</ele>
        <time>2011-01-23T10:11:29Z</time>
      </trkpt>
      <trkpt lat="49.18814" lon="6.98606">
        <ele>229</ele>
        <time>2011-01-23T10:11:30Z</time>
      </trkpt>
      <trkpt lat="49.18814" lon="6.98604">
        <ele>229</ele>
        <time>2011-01-23T10:11:31Z</time>
      </trkpt>
      <trkpt lat="49.18814" lon="6.98602">
        <ele>229</ele>
        <time>2011-01-23T10:11:32Z</time>
      </trkpt>
      <trkpt lat="49.18813" lon="6.986">
        <ele>229</ele>
        <time>2011-01-23T10:11:33Z</time>
      </trkpt>
      <trkpt lat="49.18813" lon="6.98598">
        <ele>229</ele>
        <time>2011-01-23T10:11:34Z</time>
      </trkpt>
      <trkpt lat="49.18812" lon="6.98597">
        <ele>229</ele>
        <time>2011-01-23T10:11:35Z</time>
      </trkpt>
      <trkpt lat="49.18812" lon="6.98595">
        <ele>229</ele>
        <time>2011-01-23T10:11:36Z</time>
      </trkpt>
      <trkpt lat="49.18811" lon="6.98593">
        <ele>229</ele>
        <time>2011-01-23T10:11:37Z</time>
      </trkpt>
      <trkpt lat="49.18811" lon="6.98591">
        <ele>229</ele>
        <time>2011-01-23T10:11:38Z</time>
      </trkpt>
      <trkpt lat="49.18811" lon="6.9859">
        <ele>229</ele>
        <time>2011-01-23T10:11:39Z</time>
      </trkpt>
      <trkpt lat="49.1881" lon="6.98588">
        <ele>229</ele>
        <time>2011-01-23T10:11:40Z</time>
      </trkpt>
      <trkpt lat="49.1881" lon="6.98586">
        <ele>229</ele>
        <time>2011-01-23T10:11:41Z</time>
      </trkpt>
      <trkpt lat="49.18809" lon="6.98584">
        <ele>229</ele>
        <time>2011-01-23T10:11:42Z</time>
      </trkpt>
      <trkpt lat="49.18809" lon="6.98582">
        <ele>229</ele>
        <time>2011-01-23T10:11:43Z</time>
      </trkpt>
      <trkpt lat="49.18808" lon="6.9858">
        <ele>229</ele>
        <time>2011-01-23T10:11:44Z</time>
      </trkpt>
      <trkpt lat="49.18808" lon="6.98578">
        <ele>230</ele>
        <time>2011-01-23T10:11:45Z</time>
      </trkpt>
      <trkpt lat="49.18808" lon="6.98576">
        <ele>230</ele>
        <time>2011-01-23T10:11:46Z</time>
      </trkpt>
      <trkpt lat="49.18807" lon="6.98574">
        <ele>230</ele>
        <time>2011-01-23T10:11:47Z</time>
      </trkpt>
      <trkpt lat="49.18807" lon="6.98573">
        <ele>230</ele>
        <time>2011-01-23T10:11:48Z</time>
      </trkpt>
      <trkpt lat="49.18806" lon="6.9857">
        <ele>230</ele>
        <time>2011-01-23T10:11:49Z</time>
      </trkpt>
      <trkpt lat="49.18806" lon="6.98569">
        <ele>230</ele>
        <time>2011-01-23T10:11:50Z</time>
      </trkpt>
      <trkpt lat="49.18805" lon="6.98565">
        <ele>230</ele>
        <time>2011-01-23T10:11:52Z</time>
      </trkpt>
      <trkpt lat="49.18804" lon="6.98562">
        <ele>231</ele>
        <time>2011-01-23T10:11:54Z</time>
      </trkpt>
      <trkpt lat="49.18803" lon="6.98559">
        <ele>231</ele>
        <time>2011-01-23T10:11:56Z</time>
      </trkpt>
      <trkpt lat="49.18802" lon="6.98556">
        <ele>231</ele>
        <time>2011-01-23T10:11:58Z</time>
      </trkpt>
      <trkpt lat="49.18801" lon="6.98553">
        <ele>231</ele>
        <time>2011-01-23T10:12:00Z</time>
      </trkpt>
      <trkpt lat="49.188" lon="6.98551">
        <ele>231</ele>
        <time>2011-01-23T10:12:02Z</time>
      </trkpt>
      <trkpt lat="49.188" lon="6.98549">
        <ele>231</ele>
        <time>2011-01-23T10:12:03Z</time>
      </trkpt>
      <trkpt lat="49.18799" lon="6.98547">
        <ele>231</ele>
        <time>2011-01-23T10:12:04Z</time>
      </trkpt>
      <trkpt lat="49.18799" lon="6.98545">
        <ele>231</ele>
        <time>2011-01-23T10:12:05Z</time>
      </trkpt>
      <trkpt lat="49.18798" lon="6.98543">
        <ele>231</ele>
        <time>2011-01-23T10:12:06Z</time>
      </trkpt>
      <trkpt lat="49.18798" lon="6.98542">
        <ele>231</ele>
        <time>2011-01-23T10:12:07Z</time>
      </trkpt>
      <trkpt lat="49.18797" lon="6.9854">
        <ele>231</ele>
        <time>2011-01-23T10:12:08Z</time>
      </trkpt>
      <trkpt lat="49.18796" lon="6.98538">
        <ele>231</ele>
        <time>2011-01-23T10:12:09Z</time>
      </trkpt>
      <trkpt lat="49.18796" lon="6.98536">
        <ele>232</ele>
        <time>2011-01-23T10:12:10Z</time>
      </trkpt>
      <trkpt lat="49.18795" lon="6.98534">
        <ele>232</ele>
        <time>2011-01-23T10:12:11Z</time>
      </trkpt>
      <trkpt lat="49.18795" lon="6.98533">
        <ele>232</ele>
        <time>2011-01-23T10:12:12Z</time>
      </trkpt>
      <trkpt lat="49.18795" lon="6.98531">
        <ele>232</ele>
        <time>2011-01-23T10:12:13Z</time>
      </trkpt>
      <trkpt lat="49.18794" lon="6.98529">
        <ele>232</ele>
        <time>2011-01-23T10:12:14Z</time>
      </trkpt>
      <trkpt lat="49.18794" lon="6.98528">
        <ele>232</ele>
        <time>2011-01-23T10:12:15Z</time>
      </trkpt>
      <trkpt lat="49.18793" lon="6.98526">
        <ele>232</ele>
        <time>2011-01-23T10:12:16Z</time>
      </trkpt>
      <trkpt lat="49.18793" lon="6.98524">
        <ele>233</ele>
        <time>2011-01-23T10:12:17Z</time>
      </trkpt>
      <trkpt lat="49.18792" lon="6.98522">
        <ele>233</ele>
        <time>2011-01-23T10:12:18Z</time>
      </trkpt>
      <trkpt lat="49.18792" lon="6.9852">
        <ele>233</ele>
        <time>2011-01-23T10:12:19Z</time>
      </trkpt>
      <trkpt lat="49.18791" lon="6.98517">
        <ele>233</ele>
        <time>2011-01-23T10:12:21Z</time>
      </trkpt>
      <trkpt lat="49.18791" lon="6.98515">
        <ele>233</ele>
        <time>2011-01-23T10:12:22Z</time>
      </trkpt>
      <trkpt lat="49.1879" lon="6.98513">
        <ele>233</ele>
        <time>2011-01-23T10:12:23Z</time>
      </trkpt>
      <trkpt lat="49.1879" lon="6.98511">
        <ele>233</ele>
        <time>2011-01-23T10:12:24Z</time>
      </trkpt>
      <trkpt lat="49.1879" lon="6.98509">
        <ele>233</ele>
        <time>2011-01-23T10:12:25Z</time>
      </trkpt>
      <trkpt lat="49.18789" lon="6.98507">
        <ele>233</ele>
        <time>2011-01-23T10:12:26Z</time>
      </trkpt>
      <trkpt lat="49.18789" lon="6.98506">
        <ele>233</ele>
        <time>2011-01-23T10:12:27Z</time>
      </trkpt>
      <trkpt lat="49.18788" lon="6.98504">
        <ele>234</ele>
        <time>2011-01-23T10:12:28Z</time>
      </trkpt>
      <trkpt lat="49.18788" lon="6.98502">
        <ele>234</ele>
        <time>2011-01-23T10:12:29Z</time>
      </trkpt>
      <trkpt lat="49.18788" lon="6.985">
        <ele>234</ele>
        <time>2011-01-23T10:12:30Z</time>
      </trkpt>
      <trkpt lat="49.18787" lon="6.98498">
        <ele>234</ele>
        <time>2011-01-23T10:12:31Z</time>
      </trkpt>
      <trkpt lat="49.18787" lon="6.98496">
        <ele>234</ele>
        <time>2011-01-23T10:12:32Z</time>
      </trkpt>
      <trkpt lat="49.18787" lon="6.98494">
        <ele>234</ele>
        <time>2011-01-23T10:12:33Z</time>
      </trkpt>
      <trkpt lat="49.18786" lon="6.98493">
        <ele>234</ele>
        <time>2011-01-23T10:12:34Z</time>
      </trkpt>
      <trkpt lat="49.18785" lon="6.98491">
        <ele>234</ele>
        <time>2011-01-23T10:12:35Z</time>
      </trkpt>
      <trkpt lat="49.18785" lon="6.98489">
        <ele>234</ele>
        <time>2011-01-23T10:12:36Z</time>
      </trkpt>
      <trkpt lat="49.18785" lon="6.98488">
        <ele>234</ele>
        <time>2011-01-23T10:12:37Z</time>
      </trkpt>
      <trkpt lat="49.18784" lon="6.98486">
        <ele>234</ele>
        <time>2011-01-23T10:12:38Z</time>
      </trkpt>
      <trkpt lat="49.18784" lon="6.98484">
        <ele>234</ele>
        <time>2011-01-23T10:12:39Z</time>
      </trkpt>
      <trkpt lat="49.18784" lon="6.98482">
        <ele>234</ele>
        <time>2011-01-23T10:12:40Z</time>
      </trkpt>
      <trkpt lat="49.18783" lon="6.98481">
        <ele>234</ele>
        <time>2011-01-23T10:12:41Z</time>
      </trkpt>
      <trkpt lat="49.18783" lon="6.98479">
        <ele>234</ele>
        <time>2011-01-23T10:12:42Z</time>
      </trkpt>
      <trkpt lat="49.18782" lon="6.98477">
        <ele>234</ele>
        <time>2011-01-23T10:12:43Z</time>
      </trkpt>
      <trkpt lat="49.18782" lon="6.98474">
        <ele>234</ele>
        <time>2011-01-23T10:12:45Z</time>
      </trkpt>
      <trkpt lat="49.18782" lon="6.98472">
        <ele>234</ele>
        <time>2011-01-23T10:12:46Z</time>
      </trkpt>
      <trkpt lat="49.18781" lon="6.9847">
        <ele>234</ele>
        <time>2011-01-23T10:12:47Z</time>
      </trkpt>
      <trkpt lat="49.18781" lon="6.98468">
        <ele>234</ele>
        <time>2011-01-23T10:12:48Z</time>
      </trkpt>
      <trkpt lat="49.1878" lon="6.98466">
        <ele>234</ele>
        <time>2011-01-23T10:12:49Z</time>
      </trkpt>
      <trkpt lat="49.1878" lon="6.98463">
        <ele>234</ele>
        <time>2011-01-23T10:12:51Z</time>
      </trkpt>
      <trkpt lat="49.18779" lon="6.9846">
        <ele>234</ele>
        <time>2011-01-23T10:12:53Z</time>
      </trkpt>
      <trkpt lat="49.18779" lon="6.98458">
        <ele>234</ele>
        <time>2011-01-23T10:12:54Z</time>
      </trkpt>
      <trkpt lat="49.18779" lon="6.98456">
        <ele>234</ele>
        <time>2011-01-23T10:12:55Z</time>
      </trkpt>
      <trkpt lat="49.18778" lon="6.98455">
        <ele>234</ele>
        <time>2011-01-23T10:12:56Z</time>
      </trkpt>
      <trkpt lat="49.18778" lon="6.98453">
        <ele>234</ele>
        <time>2011-01-23T10:12:57Z</time>
      </trkpt>
      <trkpt lat="49.18777" lon="6.9845">
        <ele>234</ele>
        <time>2011-01-23T10:12:59Z</time>
      </trkpt>
      <trkpt lat="49.18777" lon="6.98448">
        <ele>234</ele>
        <time>2011-01-23T10:13:00Z</time>
      </trkpt>
      <trkpt lat="49.18776" lon="6.98446">
        <ele>234</ele>
        <time>2011-01-23T10:13:01Z</time>
      </trkpt>
      <trkpt lat="49.18776" lon="6.98444">
        <ele>234</ele>
        <time>2011-01-23T10:13:02Z</time>
      </trkpt>
      <trkpt lat="49.18776" lon="6.98442">
        <ele>234</ele>
        <time>2011-01-23T10:13:03Z</time>
      </trkpt>
      <trkpt lat="49.18775" lon="6.9844">
        <ele>234</ele>
        <time>2011-01-23T10:13:04Z</time>
      </trkpt>
      <trkpt lat="49.18775" lon="6.98439">
        <ele>234</ele>
        <time>2011-01-23T10:13:05Z</time>
      </trkpt>
      <trkpt lat="49.18774" lon="6.98437">
        <ele>234</ele>
        <time>2011-01-23T10:13:06Z</time>
      </trkpt>
      <trkpt lat="49.18774" lon="6.98435">
        <ele>234</ele>
        <time>2011-01-23T10:13:07Z</time>
      </trkpt>
      <trkpt lat="49.18774" lon="6.98433">
        <ele>234</ele>
        <time>2011-01-23T10:13:08Z</time>
      </trkpt>
      <trkpt lat="49.18773" lon="6.98432">
        <ele>234</ele>
        <time>2011-01-23T10:13:09Z</time>
      </trkpt>
      <trkpt lat="49.18773" lon="6.9843">
        <ele>234</ele>
        <time>2011-01-23T10:13:10Z</time>
      </trkpt>
      <trkpt lat="49.18772" lon="6.98428">
        <ele>234</ele>
        <time>2011-01-23T10:13:11Z</time>
      </trkpt>
      <trkpt lat="49.18772" lon="6.98426">
        <ele>234</ele>
        <time>2011-01-23T10:13:12Z</time>
      </trkpt>
      <trkpt lat="49.18771" lon="6.98424">
        <ele>234</ele>
        <time>2011-01-23T10:13:13Z</time>
      </trkpt>
      <trkpt lat="49.18771" lon="6.98423">
        <ele>234</ele>
        <time>2011-01-23T10:13:14Z</time>
      </trkpt>
      <trkpt lat="49.1877" lon="6.9842">
        <ele>234</ele>
        <time>2011-01-23T10:13:16Z</time>
      </trkpt>
      <trkpt lat="49.18769" lon="6.98418">
        <ele>234</ele>
        <time>2011-01-23T10:13:17Z</time>
      </trkpt>
      <trkpt lat="49.18769" lon="6.98417">
        <ele>234</ele>
        <time>2011-01-23T10:13:18Z</time>
      </trkpt>
      <trkpt lat="49.18768" lon="6.98415">
        <ele>234</ele>
        <time>2011-01-23T10:13:19Z</time>
      </trkpt>
      <trkpt lat="49.18768" lon="6.98413">
        <ele>234</ele>
        <time>2011-01-23T10:13:20Z</time>
      </trkpt>
      <trkpt lat="49.18767" lon="6.98411">
        <ele>234</ele>
        <time>2011-01-23T10:13:21Z</time>
      </trkpt>
      <trkpt lat="49.18767" lon="6.9841">
        <ele>234</ele>
        <time>2011-01-23T10:13:22Z</time>
      </trkpt>
      <trkpt lat="49.18766" lon="6.98406">
        <ele>234</ele>
        <time>2011-01-23T10:13:24Z</time>
      </trkpt>
      <trkpt lat="49.18765" lon="6.98404">
        <ele>234</ele>
        <time>2011-01-23T10:13:25Z</time>
      </trkpt>
      <trkpt lat="49.18764" lon="6.98402">
        <ele>234</ele>
        <time>2011-01-23T10:13:26Z</time>
      </trkpt>
      <trkpt lat="49.18764" lon="6.984">
        <ele>234</ele>
        <time>2011-01-23T10:13:27Z</time>
      </trkpt>
      <trkpt lat="49.18763" lon="6.98398">
        <ele>234</ele>
        <time>2011-01-23T10:13:28Z</time>
      </trkpt>
      <trkpt lat="49.18763" lon="6.98396">
        <ele>234</ele>
        <time>2011-01-23T10:13:29Z</time>
      </trkpt>
      <trkpt lat="49.18762" lon="6.98395">
        <ele>234</ele>
        <time>2011-01-23T10:13:30Z</time>
      </trkpt>
      <trkpt lat="49.18762" lon="6.98393">
        <ele>234</ele>
        <time>2011-01-23T10:13:31Z</time>
      </trkpt>
      <trkpt lat="49.18761" lon="6.98391">
        <ele>235</ele>
        <time>2011-01-23T10:13:32Z</time>
      </trkpt>
      <trkpt lat="49.18761" lon="6.9839">
        <ele>235</ele>
        <time>2011-01-23T10:13:33Z</time>
      </trkpt>
      <trkpt lat="49.18761" lon="6.98388">
        <ele>235</ele>
        <time>2011-01-23T10:13:34Z</time>
      </trkpt>
      <trkpt lat="49.1876" lon="6.98386">
        <ele>235</ele>
        <time>2011-01-23T10:13:35Z</time>
      </trkpt>
      <trkpt lat="49.1876" lon="6.98385">
        <ele>235</ele>
        <time>2011-01-23T10:13:36Z</time>
      </trkpt>
      <trkpt lat="49.1876" lon="6.98383">
        <ele>235</ele>
        <time>2011-01-23T10:13:37Z</time>
      </trkpt>
      <trkpt lat="49.18759" lon="6.98381">
        <ele>235</ele>
        <time>2011-01-23T10:13:38Z</time>
      </trkpt>
      <trkpt lat="49.18758" lon="6.98379">
        <ele>235</ele>
        <time>2011-01-23T10:13:39Z</time>
      </trkpt>
      <trkpt lat="49.18758" lon="6.98377">
        <ele>235</ele>
        <time>2011-01-23T10:13:40Z</time>
      </trkpt>
      <trkpt lat="49.18758" lon="6.98375">
        <ele>235</ele>
        <time>2011-01-23T10:13:41Z</time>
      </trkpt>
      <trkpt lat="49.18757" lon="6.98372">
        <ele>235</ele>
        <time>2011-01-23T10:13:43Z</time>
      </trkpt>
      <trkpt lat="49.18756" lon="6.98371">
        <ele>235</ele>
        <time>2011-01-23T10:13:44Z</time>
      </trkpt>
      <trkpt lat="49.18756" lon="6.98369">
        <ele>235</ele>
        <time>2011-01-23T10:13:45Z</time>
      </trkpt>
      <trkpt lat="49.18756" lon="6.98367">
        <ele>235</ele>
        <time>2011-01-23T10:13:46Z</time>
      </trkpt>
      <trkpt lat="49.18755" lon="6.98365">
        <ele>235</ele>
        <time>2011-01-23T10:13:47Z</time>
      </trkpt>
      <trkpt lat="49.18755" lon="6.98363">
        <ele>235</ele>
        <time>2011-01-23T10:13:48Z</time>
      </trkpt>
      <trkpt lat="49.18755" lon="6.9836">
        <ele>235</ele>
        <time>2011-01-23T10:13:50Z</time>
      </trkpt>
      <trkpt lat="49.18754" lon="6.98358">
        <ele>235</ele>
        <time>2011-01-23T10:13:51Z</time>
      </trkpt>
      <trkpt lat="49.18754" lon="6.98356">
        <ele>235</ele>
        <time>2011-01-23T10:13:52Z</time>
      </trkpt>
      <trkpt lat="49.18753" lon="6.98354">
        <ele>235</ele>
        <time>2011-01-23T10:13:53Z</time>
      </trkpt>
      <trkpt lat="49.18753" lon="6.98353">
        <ele>235</ele>
        <time>2011-01-23T10:13:54Z</time>
      </trkpt>
      <trkpt lat="49.18753" lon="6.98351">
        <ele>235</ele>
        <time>2011-01-23T10:13:55Z</time>
      </trkpt>
      <trkpt lat="49.18753" lon="6.98349">
        <ele>235</ele>
        <time>2011-01-23T10:13:56Z</time>
      </trkpt>
      <trkpt lat="49.18753" lon="6.98346">
        <ele>235</ele>
        <time>2011-01-23T10:13:58Z</time>
      </trkpt>
      <trkpt lat="49.18752" lon="6.98344">
        <ele>235</ele>
        <time>2011-01-23T10:13:59Z</time>
      </trkpt>
      <trkpt lat="49.18752" lon="6.98342">
        <ele>235</ele>
        <time>2011-01-23T10:14:00Z</time>
      </trkpt>
      <trkpt lat="49.18751" lon="6.9834">
        <ele>235</ele>
        <time>2011-01-23T10:14:01Z</time>
      </trkpt>
      <trkpt lat="49.1875" lon="6.98338">
        <ele>235</ele>
        <time>2011-01-23T10:14:02Z</time>
      </trkpt>
      <trkpt lat="49.18749" lon="6.98335">
        <ele>235</ele>
        <time>2011-01-23T10:14:04Z</time>
      </trkpt>
      <trkpt lat="49.18749" lon="6.98333">
        <ele>235</ele>
        <time>2011-01-23T10:14:05Z</time>
      </trkpt>
      <trkpt lat="49.18749" lon="6.98332">
        <ele>235</ele>
        <time>2011-01-23T10:14:06Z</time>
      </trkpt>
      <trkpt lat="49.18748" lon="6.9833">
        <ele>235</ele>
        <time>2011-01-23T10:14:07Z</time>
      </trkpt>
      <trkpt lat="49.18747" lon="6.98328">
        <ele>235</ele>
        <time>2011-01-23T10:14:08Z</time>
      </trkpt>
      <trkpt lat="49.18746" lon="6.98325">
        <ele>235</ele>
        <time>2011-01-23T10:14:10Z</time>
      </trkpt>
      <trkpt lat="49.18745" lon="6.98323">
        <ele>235</ele>
        <time>2011-01-23T10:14:11Z</time>
      </trkpt>
      <trkpt lat="49.18744" lon="6.9832">
        <ele>235</ele>
        <time>2011-01-23T10:14:13Z</time>
      </trkpt>
      <trkpt lat="49.18743" lon="6.98318">
        <ele>235</ele>
        <time>2011-01-23T10:14:14Z</time>
      </trkpt>
      <trkpt lat="49.18742" lon="6.98315">
        <ele>235</ele>
        <time>2011-01-23T10:14:16Z</time>
      </trkpt>
      <trkpt lat="49.18741" lon="6.98313">
        <ele>235</ele>
        <time>2011-01-23T10:14:18Z</time>
      </trkpt>
      <trkpt lat="49.1874" lon="6.9831">
        <ele>235</ele>
        <time>2011-01-23T10:14:20Z</time>
      </trkpt>
      <trkpt lat="49.18739" lon="6.98309">
        <ele>235</ele>
        <time>2011-01-23T10:14:21Z</time>
      </trkpt>
      <trkpt lat="49.18738" lon="6.98306">
        <ele>235</ele>
        <time>2011-01-23T10:14:23Z</time>
      </trkpt>
      <trkpt lat="49.18736" lon="6.98303">
        <ele>235</ele>
        <time>2011-01-23T10:14:25Z</time>
      </trkpt>
      <trkpt lat="49.18735" lon="6.983">
        <ele>235</ele>
        <time>2011-01-23T10:14:27Z</time>
      </trkpt>
      <trkpt lat="49.18733" lon="6.98298">
        <ele>235</ele>
        <time>2011-01-23T10:14:29Z</time>
      </trkpt>
      <trkpt lat="49.18732" lon="6.98295">
        <ele>235</ele>
        <time>2011-01-23T10:14:31Z</time>
      </trkpt>
      <trkpt lat="49.1873" lon="6.98292">
        <ele>235</ele>
        <time>2011-01-23T10:14:33Z</time>
      </trkpt>
      <trkpt lat="49.18728" lon="6.9829">
        <ele>235</ele>
        <time>2011-01-23T10:14:35Z</time>
      </trkpt>
      <trkpt lat="49.18727" lon="6.98288">
        <ele>235</ele>
        <time>2011-01-23T10:14:37Z</time>
      </trkpt>
      <trkpt lat="49.18726" lon="6.98285">
        <ele>235</ele>
        <time>2011-01-23T10:14:39Z</time>
      </trkpt>
      <trkpt lat="49.18725" lon="6.98282">
        <ele>235</ele>
        <time>2011-01-23T10:14:41Z</time>
      </trkpt>
      <trkpt lat="49.18723" lon="6.98279">
        <ele>235</ele>
        <time>2011-01-23T10:14:43Z</time>
      </trkpt>
      <trkpt lat="49.18722" lon="6.98276">
        <ele>235</ele>
        <time>2011-01-23T10:14:45Z</time>
      </trkpt>
      <trkpt lat="49.1872" lon="6.98274">
        <ele>235</ele>
        <time>2011-01-23T10:14:47Z</time>
      </trkpt>
      <trkpt lat="49.1872" lon="6.98272">
        <ele>235</ele>
        <time>2011-01-23T10:14:48Z</time>
      </trkpt>
      <trkpt lat="49.1872" lon="6.9827">
        <ele>235</ele>
        <time>2011-01-23T10:14:49Z</time>
      </trkpt>
      <trkpt lat="49.1872" lon="6.98268">
        <ele>235</ele>
        <time>2011-01-23T10:14:50Z</time>
      </trkpt>
      <trkpt lat="49.1872" lon="6.98266">
        <ele>235</ele>
        <time>2011-01-23T10:14:51Z</time>
      </trkpt>
      <trkpt lat="49.1872" lon="6.98263">
        <ele>235</ele>
        <time>2011-01-23T10:14:53Z</time>
      </trkpt>
      <trkpt lat="49.1872" lon="6.9826">
        <ele>235</ele>
        <time>2011-01-23T10:14:55Z</time>
      </trkpt>
      <trkpt lat="49.1872" lon="6.98257">
        <ele>235</ele>
        <time>2011-01-23T10:14:57Z</time>
      </trkpt>
      <trkpt lat="49.1872" lon="6.98255">
        <ele>235</ele>
        <time>2011-01-23T10:14:59Z</time>
      </trkpt>
      <trkpt lat="49.1872" lon="6.98252">
        <ele>235</ele>
        <time>2011-01-23T10:15:01Z</time>
      </trkpt>
      <trkpt lat="49.18719" lon="6.98249">
        <ele>235</ele>
        <time>2011-01-23T10:15:03Z</time>
      </trkpt>
      <trkpt lat="49.18718" lon="6.98246">
        <ele>235</ele>
        <time>2011-01-23T10:15:05Z</time>
      </trkpt>
      <trkpt lat="49.18718" lon="6.98245">
        <ele>235</ele>
        <time>2011-01-23T10:15:06Z</time>
      </trkpt>
      <trkpt lat="49.18718" lon="6.98243">
        <ele>235</ele>
        <time>2011-01-23T10:15:07Z</time>
      </trkpt>
      <trkpt lat="49.18718" lon="6.98241">
        <ele>235</ele>
        <time>2011-01-23T10:15:08Z</time>
      </trkpt>
      <trkpt lat="49.18718" lon="6.98239">
        <ele>235</ele>
        <time>2011-01-23T10:15:09Z</time>
      </trkpt>
      <trkpt lat="49.18718" lon="6.98238">
        <ele>235</ele>
        <time>2011-01-23T10:15:10Z</time>
      </trkpt>
      <trkpt lat="49.18718" lon="6.98236">
        <ele>235</ele>
        <time>2011-01-23T10:15:11Z</time>
      </trkpt>
      <trkpt lat="49.18718" lon="6.98234">
        <ele>235</ele>
        <time>2011-01-23T10:15:12Z</time>
      </trkpt>
      <trkpt lat="49.18718" lon="6.98232">
        <ele>235</ele>
        <time>2011-01-23T10:15:13Z</time>
      </trkpt>
      <trkpt lat="49.18719" lon="6.98231">
        <ele>235</ele>
        <time>2011-01-23T10:15:15Z</time>
      </trkpt>
      <trkpt lat="49.1872" lon="6.98229">
        <ele>235</ele>
        <time>2011-01-23T10:15:17Z</time>
      </trkpt>
      <trkpt lat="49.18721" lon="6.98227">
        <ele>235</ele>
        <time>2011-01-23T10:15:19Z</time>
      </trkpt>
      <trkpt lat="49.18722" lon="6.98225">
        <ele>235</ele>
        <time>2011-01-23T10:15:21Z</time>
      </trkpt>
      <trkpt lat="49.18722" lon="6.98221">
        <ele>235</ele>
        <time>2011-01-23T10:15:23Z</time>
      </trkpt>
      <trkpt lat="49.18723" lon="6.98218">
        <ele>235</ele>
        <time>2011-01-23T10:15:25Z</time>
      </trkpt>
      <trkpt lat="49.18722" lon="6.98216">
        <ele>235</ele>
        <time>2011-01-23T10:15:27Z</time>
      </trkpt>
      <trkpt lat="49.18722" lon="6.98214">
        <ele>235</ele>
        <time>2011-01-23T10:15:28Z</time>
      </trkpt>
      <trkpt lat="49.18722" lon="6.98212">
        <ele>235</ele>
        <time>2011-01-23T10:15:29Z</time>
      </trkpt>
      <trkpt lat="49.18722" lon="6.98209">
        <ele>235</ele>
        <time>2011-01-23T10:15:31Z</time>
      </trkpt>
      <trkpt lat="49.18722" lon="6.98206">
        <ele>235</ele>
        <time>2011-01-23T10:15:33Z</time>
      </trkpt>
      <trkpt lat="49.18722" lon="6.98204">
        <ele>235</ele>
        <time>2011-01-23T10:15:34Z</time>
      </trkpt>
      <trkpt lat="49.18722" lon="6.98203">
        <ele>235</ele>
        <time>2011-01-23T10:15:35Z</time>
      </trkpt>
      <trkpt lat="49.18722" lon="6.982">
        <ele>235</ele>
        <time>2011-01-23T10:15:37Z</time>
      </trkpt>
      <trkpt lat="49.18722" lon="6.98198">
        <ele>235</ele>
        <time>2011-01-23T10:15:38Z</time>
      </trkpt>
      <trkpt lat="49.18723" lon="6.98195">
        <ele>235</ele>
        <time>2011-01-23T10:15:40Z</time>
      </trkpt>
      <trkpt lat="49.18723" lon="6.98192">
        <ele>235</ele>
        <time>2011-01-23T10:15:42Z</time>
      </trkpt>
      <trkpt lat="49.18723" lon="6.9819">
        <ele>235</ele>
        <time>2011-01-23T10:15:44Z</time>
      </trkpt>
      <trkpt lat="49.18723" lon="6.98187">
        <ele>235</ele>
        <time>2011-01-23T10:15:46Z</time>
      </trkpt>
      <trkpt lat="49.18724" lon="6.98184">
        <ele>235</ele>
        <time>2011-01-23T10:15:48Z</time>
      </trkpt>
      <trkpt lat="49.18724" lon="6.98181">
        <ele>235</ele>
        <time>2011-01-23T10:15:50Z</time>
      </trkpt>
      <trkpt lat="49.18724" lon="6.98179">
        <ele>236</ele>
        <time>2011-01-23T10:15:52Z</time>
      </trkpt>
      <trkpt lat="49.18724" lon="6.98176">
        <ele>236</ele>
        <time>2011-01-23T10:15:54Z</time>
      </trkpt>
      <trkpt lat="49.18724" lon="6.98173">
        <ele>236</ele>
        <time>2011-01-23T10:15:56Z</time>
      </trkpt>
      <trkpt lat="49.18725" lon="6.98171">
        <ele>236</ele>
        <time>2011-01-23T10:15:58Z</time>
      </trkpt>
      <trkpt lat="49.18725" lon="6.98168">
        <ele>236</ele>
        <time>2011-01-23T10:16:00Z</time>
      </trkpt>
      <trkpt lat="49.18725" lon="6.98166">
        <ele>236</ele>
        <time>2011-01-23T10:16:02Z</time>
      </trkpt>
      <trkpt lat="49.18725" lon="6.98164">
        <ele>236</ele>
        <time>2011-01-23T10:16:03Z</time>
      </trkpt>
      <trkpt lat="49.18725" lon="6.98162">
        <ele>236</ele>
        <time>2011-01-23T10:16:04Z</time>
      </trkpt>
      <trkpt lat="49.18726" lon="6.98159">
        <ele>236</ele>
        <time>2011-01-23T10:16:06Z</time>
      </trkpt>
      <trkpt lat="49.18726" lon="6.98156">
        <ele>236</ele>
        <time>2011-01-23T10:16:08Z</time>
      </trkpt>
      <trkpt lat="49.18726" lon="6.98155">
        <ele>236</ele>
        <time>2011-01-23T10:16:10Z</time>
      </trkpt>
      <trkpt lat="49.18725" lon="6.98152">
        <ele>236</ele>
        <time>2011-01-23T10:16:12Z</time>
      </trkpt>
      <trkpt lat="49.18725" lon="6.98149">
        <ele>236</ele>
        <time>2011-01-23T10:16:14Z</time>
      </trkpt>
      <trkpt lat="49.18725" lon="6.98147">
        <ele>236</ele>
        <time>2011-01-23T10:16:15Z</time>
      </trkpt>
      <trkpt lat="49.18726" lon="6.98146">
        <ele>236</ele>
        <time>2011-01-23T10:16:16Z</time>
      </trkpt>
      <trkpt lat="49.18726" lon="6.98143">
        <ele>236</ele>
        <time>2011-01-23T10:16:18Z</time>
      </trkpt>
      <trkpt lat="49.18726" lon="6.9814">
        <ele>236</ele>
        <time>2011-01-23T10:16:20Z</time>
      </trkpt>
      <trkpt lat="49.18726" lon="6.98138">
        <ele>236</ele>
        <time>2011-01-23T10:16:21Z</time>
      </trkpt>
      <trkpt lat="49.18725" lon="6.98137">
        <ele>236</ele>
        <time>2011-01-23T10:16:22Z</time>
      </trkpt>
      <trkpt lat="49.18725" lon="6.98134">
        <ele>236</ele>
        <time>2011-01-23T10:16:24Z</time>
      </trkpt>
      <trkpt lat="49.18726" lon="6.98132">
        <ele>236</ele>
        <time>2011-01-23T10:16:25Z</time>
      </trkpt>
      <trkpt lat="49.18726" lon="6.9813">
        <ele>236</ele>
        <time>2011-01-23T10:16:26Z</time>
      </trkpt>
      <trkpt lat="49.18726" lon="6.98127">
        <ele>236</ele>
        <time>2011-01-23T10:16:28Z</time>
      </trkpt>
      <trkpt lat="49.18726" lon="6.98124">
        <ele>236</ele>
        <time>2011-01-23T10:16:30Z</time>
      </trkpt>
      <trkpt lat="49.18727" lon="6.98122">
        <ele>236</ele>
        <time>2011-01-23T10:16:32Z</time>
      </trkpt>
      <trkpt lat="49.18727" lon="6.98119">
        <ele>236</ele>
        <time>2011-01-23T10:16:34Z</time>
      </trkpt>
      <trkpt lat="49.18728" lon="6.98116">
        <ele>236</ele>
        <time>2011-01-23T10:16:36Z</time>
      </trkpt>
      <trkpt lat="49.18728" lon="6.98114">
        <ele>236</ele>
        <time>2011-01-23T10:16:37Z</time>
      </trkpt>
      <trkpt lat="49.18728" lon="6.98112">
        <ele>236</ele>
        <time>2011-01-23T10:16:38Z</time>
      </trkpt>
      <trkpt lat="49.18729" lon="6.98109">
        <ele>236</ele>
        <time>2011-01-23T10:16:40Z</time>
      </trkpt>
      <trkpt lat="49.18729" lon="6.98106">
        <ele>236</ele>
        <time>2011-01-23T10:16:42Z</time>
      </trkpt>
      <trkpt lat="49.1873" lon="6.98105">
        <ele>236</ele>
        <time>2011-01-23T10:16:43Z</time>
      </trkpt>
      <trkpt lat="49.1873" lon="6.98103">
        <ele>236</ele>
        <time>2011-01-23T10:16:44Z</time>
      </trkpt>
      <trkpt lat="49.18731" lon="6.981">
        <ele>236</ele>
        <time>2011-01-23T10:16:46Z</time>
      </trkpt>
      <trkpt lat="49.18731" lon="6.98097">
        <ele>236</ele>
        <time>2011-01-23T10:16:48Z</time>
      </trkpt>
      <trkpt lat="49.18732" lon="6.98094">
        <ele>236</ele>
        <time>2011-01-23T10:16:50Z</time>
      </trkpt>
      <trkpt lat="49.18733" lon="6.98091">
        <ele>236</ele>
        <time>2011-01-23T10:16:52Z</time>
      </trkpt>
      <trkpt lat="49.18733" lon="6.98089">
        <ele>236</ele>
        <time>2011-01-23T10:16:53Z</time>
      </trkpt>
      <trkpt lat="49.18733" lon="6.98087">
        <ele>236</ele>
        <time>2011-01-23T10:16:54Z</time>
      </trkpt>
      <trkpt lat="49.18734" lon="6.98084">
        <ele>236</ele>
        <time>2011-01-23T10:16:56Z</time>
      </trkpt>
      <trkpt lat="49.18734" lon="6.98082">
        <ele>236</ele>
        <time>2011-01-23T10:16:57Z</time>
      </trkpt>
      <trkpt lat="49.18734" lon="6.9808">
        <ele>236</ele>
        <time>2011-01-23T10:16:58Z</time>
      </trkpt>
      <trkpt lat="49.18734" lon="6.98078">
        <ele>236</ele>
        <time>2011-01-23T10:16:59Z</time>
      </trkpt>
      <trkpt lat="49.18734" lon="6.98077">
        <ele>236</ele>
        <time>2011-01-23T10:17:00Z</time>
      </trkpt>
      <trkpt lat="49.18734" lon="6.98073">
        <ele>237</ele>
        <time>2011-01-23T10:17:02Z</time>
      </trkpt>
      <trkpt lat="49.18735" lon="6.98071">
        <ele>237</ele>
        <time>2011-01-23T10:17:03Z</time>
      </trkpt>
      <trkpt lat="49.18735" lon="6.98069">
        <ele>237</ele>
        <time>2011-01-23T10:17:04Z</time>
      </trkpt>
      <trkpt lat="49.18736" lon="6.98068">
        <ele>237</ele>
        <time>2011-01-23T10:17:05Z</time>
      </trkpt>
      <trkpt lat="49.18736" lon="6.98066">
        <ele>237</ele>
        <time>2011-01-23T10:17:06Z</time>
      </trkpt>
      <trkpt lat="49.18737" lon="6.98064">
        <ele>238</ele>
        <time>2011-01-23T10:17:07Z</time>
      </trkpt>
      <trkpt lat="49.18738" lon="6.98061">
        <ele>238</ele>
        <time>2011-01-23T10:17:09Z</time>
      </trkpt>
      <trkpt lat="49.18739" lon="6.98058">
        <ele>238</ele>
        <time>2011-01-23T10:17:11Z</time>
      </trkpt>
      <trkpt lat="49.1874" lon="6.98055">
        <ele>238</ele>
        <time>2011-01-23T10:17:13Z</time>
      </trkpt>
      <trkpt lat="49.18741" lon="6.98053">
        <ele>239</ele>
        <time>2011-01-23T10:17:15Z</time>
      </trkpt>
      <trkpt lat="49.18742" lon="6.98051">
        <ele>239</ele>
        <time>2011-01-23T10:17:16Z</time>
      </trkpt>
      <trkpt lat="49.18742" lon="6.98049">
        <ele>239</ele>
        <time>2011-01-23T10:17:17Z</time>
      </trkpt>
      <trkpt lat="49.18743" lon="6.98047">
        <ele>239</ele>
        <time>2011-01-23T10:17:18Z</time>
      </trkpt>
      <trkpt lat="49.18743" lon="6.98046">
        <ele>239</ele>
        <time>2011-01-23T10:17:19Z</time>
      </trkpt>
      <trkpt lat="49.18744" lon="6.98043">
        <ele>239</ele>
        <time>2011-01-23T10:17:21Z</time>
      </trkpt>
      <trkpt lat="49.18744" lon="6.98041">
        <ele>240</ele>
        <time>2011-01-23T10:17:22Z</time>
      </trkpt>
      <trkpt lat="49.18745" lon="6.98039">
        <ele>240</ele>
        <time>2011-01-23T10:17:23Z</time>
      </trkpt>
      <trkpt lat="49.18745" lon="6.98038">
        <ele>240</ele>
        <time>2011-01-23T10:17:24Z</time>
      </trkpt>
      <trkpt lat="49.18747" lon="6.98035">
        <ele>240</ele>
        <time>2011-01-23T10:17:26Z</time>
      </trkpt>
      <trkpt lat="49.18748" lon="6.98032">
        <ele>240</ele>
        <time>2011-01-23T10:17:28Z</time>
      </trkpt>
      <trkpt lat="49.18749" lon="6.98029">
        <ele>240</ele>
        <time>2011-01-23T10:17:30Z</time>
      </trkpt>
      <trkpt lat="49.18751" lon="6.98028">
        <ele>240</ele>
        <time>2011-01-23T10:17:32Z</time>
      </trkpt>
      <trkpt lat="49.18752" lon="6.98025">
        <ele>240</ele>
        <time>2011-01-23T10:17:34Z</time>
      </trkpt>
      <trkpt lat="49.18753" lon="6.98022">
        <ele>240</ele>
        <time>2011-01-23T10:17:36Z</time>
      </trkpt>
      <trkpt lat="49.18754" lon="6.98019">
        <ele>240</ele>
        <time>2011-01-23T10:17:38Z</time>
      </trkpt>
      <trkpt lat="49.18756" lon="6.98017">
        <ele>240</ele>
        <time>2011-01-23T10:17:40Z</time>
      </trkpt>
      <trkpt lat="49.18757" lon="6.98014">
        <ele>241</ele>
        <time>2011-01-23T10:17:42Z</time>
      </trkpt>
      <trkpt lat="49.18758" lon="6.98012">
        <ele>241</ele>
        <time>2011-01-23T10:17:44Z</time>
      </trkpt>
      <trkpt lat="49.1876" lon="6.98009">
        <ele>241</ele>
        <time>2011-01-23T10:17:46Z</time>
      </trkpt>
      <trkpt lat="49.18761" lon="6.98006">
        <ele>241</ele>
        <time>2011-01-23T10:17:48Z</time>
      </trkpt>
      <trkpt lat="49.18762" lon="6.98004">
        <ele>241</ele>
        <time>2011-01-23T10:17:50Z</time>
      </trkpt>
      <trkpt lat="49.18764" lon="6.98001">
        <ele>241</ele>
        <time>2011-01-23T10:17:52Z</time>
      </trkpt>
      <trkpt lat="49.18765" lon="6.97999">
        <ele>241</ele>
        <time>2011-01-23T10:17:54Z</time>
      </trkpt>
      <trkpt lat="49.18766" lon="6.97996">
        <ele>241</ele>
        <time>2011-01-23T10:17:56Z</time>
      </trkpt>
      <trkpt lat="49.18767" lon="6.97994">
        <ele>241</ele>
        <time>2011-01-23T10:17:57Z</time>
      </trkpt>
      <trkpt lat="49.18767" lon="6.97993">
        <ele>241</ele>
        <time>2011-01-23T10:17:58Z</time>
      </trkpt>
      <trkpt lat="49.18768" lon="6.97989">
        <ele>241</ele>
        <time>2011-01-23T10:18:00Z</time>
      </trkpt>
      <trkpt lat="49.18768" lon="6.97988">
        <ele>241</ele>
        <time>2011-01-23T10:18:01Z</time>
      </trkpt>
      <trkpt lat="49.18769" lon="6.97985">
        <ele>242</ele>
        <time>2011-01-23T10:18:03Z</time>
      </trkpt>
      <trkpt lat="49.18771" lon="6.97982">
        <ele>242</ele>
        <time>2011-01-23T10:18:05Z</time>
      </trkpt>
      <trkpt lat="49.18772" lon="6.97979">
        <ele>242</ele>
        <time>2011-01-23T10:18:07Z</time>
      </trkpt>
      <trkpt lat="49.18773" lon="6.97977">
        <ele>243</ele>
        <time>2011-01-23T10:18:09Z</time>
      </trkpt>
      <trkpt lat="49.18775" lon="6.97974">
        <ele>243</ele>
        <time>2011-01-23T10:18:11Z</time>
      </trkpt>
      <trkpt lat="49.18776" lon="6.97971">
        <ele>243</ele>
        <time>2011-01-23T10:18:13Z</time>
      </trkpt>
      <trkpt lat="49.18777" lon="6.97968">
        <ele>243</ele>
        <time>2011-01-23T10:18:15Z</time>
      </trkpt>
      <trkpt lat="49.18779" lon="6.97965">
        <ele>243</ele>
        <time>2011-01-23T10:18:17Z</time>
      </trkpt>
      <trkpt lat="49.1878" lon="6.97963">
        <ele>243</ele>
        <time>2011-01-23T10:18:19Z</time>
      </trkpt>
      <trkpt lat="49.18782" lon="6.9796">
        <ele>243</ele>
        <time>2011-01-23T10:18:21Z</time>
      </trkpt>
      <trkpt lat="49.18782" lon="6.97958">
        <ele>243</ele>
        <time>2011-01-23T10:18:22Z</time>
      </trkpt>
      <trkpt lat="49.18784" lon="6.97956">
        <ele>243</ele>
        <time>2011-01-23T10:18:24Z</time>
      </trkpt>
      <trkpt lat="49.18785" lon="6.97953">
        <ele>244</ele>
        <time>2011-01-23T10:18:26Z</time>
      </trkpt>
      <trkpt lat="49.18787" lon="6.9795">
        <ele>244</ele>
        <time>2011-01-23T10:18:28Z</time>
      </trkpt>
      <trkpt lat="49.18788" lon="6.97947">
        <ele>244</ele>
        <time>2011-01-23T10:18:30Z</time>
      </trkpt>
      <trkpt lat="49.1879" lon="6.97945">
        <ele>244</ele>
        <time>2011-01-23T10:18:32Z</time>
      </trkpt>
      <trkpt lat="49.18791" lon="6.97941">
        <ele>244</ele>
        <time>2011-01-23T10:18:34Z</time>
      </trkpt>
      <trkpt lat="49.18793" lon="6.97939">
        <ele>245</ele>
        <time>2011-01-23T10:18:36Z</time>
      </trkpt>
      <trkpt lat="49.18795" lon="6.97937">
        <ele>245</ele>
        <time>2011-01-23T10:18:38Z</time>
      </trkpt>
      <trkpt lat="49.18796" lon="6.97934">
        <ele>245</ele>
        <time>2011-01-23T10:18:40Z</time>
      </trkpt>
      <trkpt lat="49.18798" lon="6.97932">
        <ele>245</ele>
        <time>2011-01-23T10:18:42Z</time>
      </trkpt>
      <trkpt lat="49.18799" lon="6.97929">
        <ele>245</ele>
        <time>2011-01-23T10:18:44Z</time>
      </trkpt>
      <trkpt lat="49.18801" lon="6.97927">
        <ele>245</ele>
        <time>2011-01-23T10:18:46Z</time>
      </trkpt>
      <trkpt lat="49.18803" lon="6.97924">
        <ele>245</ele>
        <time>2011-01-23T10:18:48Z</time>
      </trkpt>
      <trkpt lat="49.18805" lon="6.97922">
        <ele>245</ele>
        <time>2011-01-23T10:18:50Z</time>
      </trkpt>
      <trkpt lat="49.18807" lon="6.97919">
        <ele>245</ele>
        <time>2011-01-23T10:18:52Z</time>
      </trkpt>
      <trkpt lat="49.18809" lon="6.97917">
        <ele>246</ele>
        <time>2011-01-23T10:18:54Z</time>
      </trkpt>
      <trkpt lat="49.1881" lon="6.97915">
        <ele>246</ele>
        <time>2011-01-23T10:18:56Z</time>
      </trkpt>
      <trkpt lat="49.18812" lon="6.97913">
        <ele>246</ele>
        <time>2011-01-23T10:18:58Z</time>
      </trkpt>
      <trkpt lat="49.18814" lon="6.9791">
        <ele>246</ele>
        <time>2011-01-23T10:19:00Z</time>
      </trkpt>
      <trkpt lat="49.18816" lon="6.97909">
        <ele>247</ele>
        <time>2011-01-23T10:19:02Z</time>
      </trkpt>
      <trkpt lat="49.18818" lon="6.97906">
        <ele>247</ele>
        <time>2011-01-23T10:19:04Z</time>
      </trkpt>
      <trkpt lat="49.18819" lon="6.97904">
        <ele>247</ele>
        <time>2011-01-23T10:19:06Z</time>
      </trkpt>
      <trkpt lat="49.18821" lon="6.97902">
        <ele>247</ele>
        <time>2011-01-23T10:19:08Z</time>
      </trkpt>
      <trkpt lat="49.18823" lon="6.979">
        <ele>248</ele>
        <time>2011-01-23T10:19:10Z</time>
      </trkpt>
      <trkpt lat="49.18824" lon="6.97898">
        <ele>248</ele>
        <time>2011-01-23T10:19:12Z</time>
      </trkpt>
      <trkpt lat="49.18826" lon="6.97896">
        <ele>248</ele>
        <time>2011-01-23T10:19:14Z</time>
      </trkpt>
      <trkpt lat="49.18827" lon="6.97893">
        <ele>248</ele>
        <time>2011-01-23T10:19:16Z</time>
      </trkpt>
      <trkpt lat="49.18829" lon="6.97892">
        <ele>248</ele>
        <time>2011-01-23T10:19:18Z</time>
      </trkpt>
      <trkpt lat="49.1883" lon="6.97891">
        <ele>248</ele>
        <time>2011-01-23T10:19:19Z</time>
      </trkpt>
      <trkpt lat="49.18832" lon="6.97889">
        <ele>248</ele>
        <time>2011-01-23T10:19:21Z</time>
      </trkpt>
      <trkpt lat="49.18834" lon="6.97886">
        <ele>248</ele>
        <time>2011-01-23T10:19:23Z</time>
      </trkpt>
      <trkpt lat="49.18835" lon="6.97884">
        <ele>248</ele>
        <time>2011-01-23T10:19:25Z</time>
      </trkpt>
      <trkpt lat="49.18838" lon="6.97882">
        <ele>248</ele>
        <time>2011-01-23T10:19:27Z</time>
      </trkpt>
      <trkpt lat="49.18839" lon="6.9788">
        <ele>248</ele>
        <time>2011-01-23T10:19:29Z</time>
      </trkpt>
      <trkpt lat="49.18841" lon="6.97878">
        <ele>249</ele>
        <time>2011-01-23T10:19:31Z</time>
      </trkpt>
      <trkpt lat="49.18843" lon="6.97876">
        <ele>249</ele>
        <time>2011-01-23T10:19:33Z</time>
      </trkpt>
      <trkpt lat="49.18845" lon="6.97874">
        <ele>249</ele>
        <time>2011-01-23T10:19:35Z</time>
      </trkpt>
      <trkpt lat="49.18847" lon="6.97872">
        <ele>249</ele>
        <time>2011-01-23T10:19:37Z</time>
      </trkpt>
      <trkpt lat="49.18848" lon="6.97871">
        <ele>249</ele>
        <time>2011-01-23T10:19:38Z</time>
      </trkpt>
      <trkpt lat="49.18849" lon="6.9787">
        <ele>250</ele>
        <time>2011-01-23T10:19:39Z</time>
      </trkpt>
      <trkpt lat="49.18851" lon="6.97869">
        <ele>250</ele>
        <time>2011-01-23T10:19:41Z</time>
      </trkpt>
      <trkpt lat="49.18853" lon="6.97867">
        <ele>250</ele>
        <time>2011-01-23T10:19:43Z</time>
      </trkpt>
      <trkpt lat="49.18854" lon="6.97867">
        <ele>250</ele>
        <time>2011-01-23T10:19:44Z</time>
      </trkpt>
      <trkpt lat="49.18856" lon="6.97865">
        <ele>250</ele>
        <time>2011-01-23T10:19:46Z</time>
      </trkpt>
      <trkpt lat="49.18858" lon="6.97864">
        <ele>251</ele>
        <time>2011-01-23T10:19:48Z</time>
      </trkpt>
      <trkpt lat="49.1886" lon="6.97862">
        <ele>251</ele>
        <time>2011-01-23T10:19:50Z</time>
      </trkpt>
      <trkpt lat="49.18861" lon="6.97861">
        <ele>251</ele>
        <time>2011-01-23T10:19:52Z</time>
      </trkpt>
      <trkpt lat="49.18863" lon="6.97859">
        <ele>251</ele>
        <time>2011-01-23T10:19:54Z</time>
      </trkpt>
      <trkpt lat="49.18865" lon="6.97858">
        <ele>251</ele>
        <time>2011-01-23T10:19:56Z</time>
      </trkpt>
      <trkpt lat="49.18867" lon="6.97857">
        <ele>251</ele>
        <time>2011-01-23T10:19:58Z</time>
      </trkpt>
      <trkpt lat="49.18869" lon="6.97856">
        <ele>251</ele>
        <time>2011-01-23T10:20:00Z</time>
      </trkpt>
      <trkpt lat="49.18871" lon="6.97855">
        <ele>251</ele>
        <time>2011-01-23T10:20:01Z</time>
      </trkpt>
      <trkpt lat="49.18872" lon="6.97854">
        <ele>251</ele>
        <time>2011-01-23T10:20:03Z</time>
      </trkpt>
      <trkpt lat="49.18874" lon="6.97853">
        <ele>251</ele>
        <time>2011-01-23T10:20:05Z</time>
      </trkpt>
      <trkpt lat="49.18875" lon="6.97853">
        <ele>251</ele>
        <time>2011-01-23T10:20:06Z</time>
      </trkpt>
      <trkpt lat="49.18876" lon="6.97852">
        <ele>251</ele>
        <time>2011-01-23T10:20:07Z</time>
      </trkpt>
      <trkpt lat="49.18878" lon="6.97851">
        <ele>251</ele>
        <time>2011-01-23T10:20:09Z</time>
      </trkpt>
      <trkpt lat="49.18879" lon="6.97851">
        <ele>251</ele>
        <time>2011-01-23T10:20:10Z</time>
      </trkpt>
      <trkpt lat="49.18881" lon="6.9785">
        <ele>251</ele>
        <time>2011-01-23T10:20:11Z</time>
      </trkpt>
      <trkpt lat="49.18882" lon="6.97848">
        <ele>251</ele>
        <time>2011-01-23T10:20:13Z</time>
      </trkpt>
      <trkpt lat="49.18884" lon="6.97847">
        <ele>251</ele>
        <time>2011-01-23T10:20:14Z</time>
      </trkpt>
      <trkpt lat="49.18885" lon="6.97846">
        <ele>252</ele>
        <time>2011-01-23T10:20:16Z</time>
      </trkpt>
      <trkpt lat="49.18887" lon="6.97844">
        <ele>252</ele>
        <time>2011-01-23T10:20:18Z</time>
      </trkpt>
      <trkpt lat="49.18889" lon="6.97844">
        <ele>252</ele>
        <time>2011-01-23T10:20:19Z</time>
      </trkpt>
      <trkpt lat="49.18891" lon="6.97843">
        <ele>252</ele>
        <time>2011-01-23T10:20:21Z</time>
      </trkpt>
      <trkpt lat="49.18893" lon="6.97841">
        <ele>252</ele>
        <time>2011-01-23T10:20:23Z</time>
      </trkpt>
      <trkpt lat="49.18894" lon="6.97841">
        <ele>252</ele>
        <time>2011-01-23T10:20:24Z</time>
      </trkpt>
      <trkpt lat="49.18895" lon="6.9784">
        <ele>252</ele>
        <time>2011-01-23T10:20:25Z</time>
      </trkpt>
      <trkpt lat="49.18896" lon="6.9784">
        <ele>252</ele>
        <time>2011-01-23T10:20:26Z</time>
      </trkpt>
      <trkpt lat="49.18898" lon="6.97839">
        <ele>252</ele>
        <time>2011-01-23T10:20:28Z</time>
      </trkpt>
      <trkpt lat="49.189" lon="6.97838">
        <ele>253</ele>
        <time>2011-01-23T10:20:30Z</time>
      </trkpt>
      <trkpt lat="49.18901" lon="6.97837">
        <ele>253</ele>
        <time>2011-01-23T10:20:31Z</time>
      </trkpt>
      <trkpt lat="49.18903" lon="6.97836">
        <ele>253</ele>
        <time>2011-01-23T10:20:32Z</time>
      </trkpt>
      <trkpt lat="49.18904" lon="6.97834">
        <ele>253</ele>
        <time>2011-01-23T10:20:34Z</time>
      </trkpt>
      <trkpt lat="49.18905" lon="6.97834">
        <ele>253</ele>
        <time>2011-01-23T10:20:36Z</time>
      </trkpt>
      <trkpt lat="49.18906" lon="6.97833">
        <ele>253</ele>
        <time>2011-01-23T10:20:39Z</time>
      </trkpt>
      <trkpt lat="49.18908" lon="6.97833">
        <ele>254</ele>
        <time>2011-01-23T10:20:41Z</time>
      </trkpt>
      <trkpt lat="49.18909" lon="6.97833">
        <ele>255</ele>
        <time>2011-01-23T10:20:43Z</time>
      </trkpt>
      <trkpt lat="49.18911" lon="6.97832">
        <ele>255</ele>
        <time>2011-01-23T10:20:46Z</time>
      </trkpt>
      <trkpt lat="49.18912" lon="6.97831">
        <ele>256</ele>
        <time>2011-01-23T10:20:48Z</time>
      </trkpt>
      <trkpt lat="49.18913" lon="6.9783">
        <ele>256</ele>
        <time>2011-01-23T10:20:50Z</time>
      </trkpt>
      <trkpt lat="49.18915" lon="6.97829">
        <ele>256</ele>
        <time>2011-01-23T10:20:53Z</time>
      </trkpt>
      <trkpt lat="49.18916" lon="6.97828">
        <ele>256</ele>
        <time>2011-01-23T10:20:55Z</time>
      </trkpt>
      <trkpt lat="49.18918" lon="6.97828">
        <ele>256</ele>
        <time>2011-01-23T10:20:57Z</time>
      </trkpt>
      <trkpt lat="49.1892" lon="6.97826">
        <ele>256</ele>
        <time>2011-01-23T10:20:59Z</time>
      </trkpt>
      <trkpt lat="49.18921" lon="6.97824">
        <ele>256</ele>
        <time>2011-01-23T10:21:01Z</time>
      </trkpt>
      <trkpt lat="49.18922" lon="6.97822">
        <ele>256</ele>
        <time>2011-01-23T10:21:03Z</time>
      </trkpt>
      <trkpt lat="49.18924" lon="6.9782">
        <ele>257</ele>
        <time>2011-01-23T10:21:05Z</time>
      </trkpt>
      <trkpt lat="49.18925" lon="6.97819">
        <ele>257</ele>
        <time>2011-01-23T10:21:07Z</time>
      </trkpt>
      <trkpt lat="49.18927" lon="6.97818">
        <ele>257</ele>
        <time>2011-01-23T10:21:09Z</time>
      </trkpt>
      <trkpt lat="49.18928" lon="6.97817">
        <ele>257</ele>
        <time>2011-01-23T10:21:11Z</time>
      </trkpt>
      <trkpt lat="49.1893" lon="6.97816">
        <ele>257</ele>
        <time>2011-01-23T10:21:13Z</time>
      </trkpt>
      <trkpt lat="49.18931" lon="6.97815">
        <ele>257</ele>
        <time>2011-01-23T10:21:15Z</time>
      </trkpt>
      <trkpt lat="49.18933" lon="6.97815">
        <ele>257</ele>
        <time>2011-01-23T10:21:17Z</time>
      </trkpt>
      <trkpt lat="49.18934" lon="6.97814">
        <ele>257</ele>
        <time>2011-01-23T10:21:20Z</time>
      </trkpt>
      <trkpt lat="49.18935" lon="6.97813">
        <ele>257</ele>
        <time>2011-01-23T10:21:24Z</time>
      </trkpt>
      <trkpt lat="49.18937" lon="6.97813">
        <ele>257</ele>
        <time>2011-01-23T10:21:26Z</time>
      </trkpt>
      <trkpt lat="49.18938" lon="6.97813">
        <ele>257</ele>
        <time>2011-01-23T10:21:28Z</time>
      </trkpt>
      <trkpt lat="49.1894" lon="6.97812">
        <ele>257</ele>
        <time>2011-01-23T10:21:31Z</time>
      </trkpt>
      <trkpt lat="49.18942" lon="6.97811">
        <ele>257</ele>
        <time>2011-01-23T10:21:34Z</time>
      </trkpt>
      <trkpt lat="49.18943" lon="6.9781">
        <ele>257</ele>
        <time>2011-01-23T10:21:36Z</time>
      </trkpt>
      <trkpt lat="49.18944" lon="6.9781">
        <ele>257</ele>
        <time>2011-01-23T10:21:40Z</time>
      </trkpt>
      <trkpt lat="49.18945" lon="6.97808">
        <ele>258</ele>
        <time>2011-01-23T10:22:03Z</time>
      </trkpt>
      <trkpt lat="49.18946" lon="6.97808">
        <ele>261</ele>
        <time>2011-01-23T10:22:09Z</time>
      </trkpt>
      <trkpt lat="49.18945" lon="6.97808">
        <ele>264</ele>
        <time>2011-01-23T10:22:25Z</time>
      </trkpt>
      <trkpt lat="49.18943" lon="6.97808">
        <ele>263</ele>
        <time>2011-01-23T10:22:31Z</time>
      </trkpt>
      <trkpt lat="49.18945" lon="6.97807">
        <ele>263</ele>
        <time>2011-01-23T10:22:45Z</time>
      </trkpt>
      <trkpt lat="49.18947" lon="6.97806">
        <ele>263</ele>
        <time>2011-01-23T10:23:00Z</time>
      </trkpt>
      <trkpt lat="49.18949" lon="6.97805">
        <ele>263</ele>
        <time>2011-01-23T10:23:02Z</time>
      </trkpt>
      <trkpt lat="49.18951" lon="6.97803">
        <ele>263</ele>
        <time>2011-01-23T10:23:04Z</time>
      </trkpt>
      <trkpt lat="49.18952" lon="6.97802">
        <ele>263</ele>
        <time>2011-01-23T10:23:05Z</time>
      </trkpt>
      <trkpt lat="49.18953" lon="6.97801">
        <ele>263</ele>
        <time>2011-01-23T10:23:07Z</time>
      </trkpt>
      <trkpt lat="49.18955" lon="6.97799">
        <ele>263</ele>
        <time>2011-01-23T10:23:09Z</time>
      </trkpt>
      <trkpt lat="49.18957" lon="6.97796">
        <ele>263</ele>
        <time>2011-01-23T10:23:11Z</time>
      </trkpt>
      <trkpt lat="49.18959" lon="6.97794">
        <ele>263</ele>
        <time>2011-01-23T10:23:13Z</time>
      </trkpt>
      <trkpt lat="49.1896" lon="6.97792">
        <ele>263</ele>
        <time>2011-01-23T10:23:15Z</time>
      </trkpt>
      <trkpt lat="49.18962" lon="6.9779">
        <ele>263</ele>
        <time>2011-01-23T10:23:17Z</time>
      </trkpt>
      <trkpt lat="49.18964" lon="6.97788">
        <ele>263</ele>
        <time>2011-01-23T10:23:19Z</time>
      </trkpt>
      <trkpt lat="49.18965" lon="6.97785">
        <ele>263</ele>
        <time>2011-01-23T10:23:21Z</time>
      </trkpt>
      <trkpt lat="49.18967" lon="6.97783">
        <ele>263</ele>
        <time>2011-01-23T10:23:23Z</time>
      </trkpt>
      <trkpt lat="49.18969" lon="6.97781">
        <ele>263</ele>
        <time>2011-01-23T10:23:25Z</time>
      </trkpt>
      <trkpt lat="49.1897" lon="6.97778">
        <ele>263</ele>
        <time>2011-01-23T10:23:27Z</time>
      </trkpt>
      <trkpt lat="49.18972" lon="6.97775">
        <ele>263</ele>
        <time>2011-01-23T10:23:29Z</time>
      </trkpt>
      <trkpt lat="49.18972" lon="6.97774">
        <ele>263</ele>
        <time>2011-01-23T10:23:30Z</time>
      </trkpt>
      <trkpt lat="49.18973" lon="6.97772">
        <ele>263</ele>
        <time>2011-01-23T10:23:31Z</time>
      </trkpt>
      <trkpt lat="49.18973" lon="6.9777">
        <ele>263</ele>
        <time>2011-01-23T10:23:32Z</time>
      </trkpt>
      <trkpt lat="49.18974" lon="6.97767">
        <ele>263</ele>
        <time>2011-01-23T10:23:34Z</time>
      </trkpt>
      <trkpt lat="49.18976" lon="6.97764">
        <ele>263</ele>
        <time>2011-01-23T10:23:36Z</time>
      </trkpt>
      <trkpt lat="49.18978" lon="6.97761">
        <ele>263</ele>
        <time>2011-01-23T10:23:38Z</time>
      </trkpt>
      <trkpt lat="49.18979" lon="6.97759">
        <ele>263</ele>
        <time>2011-01-23T10:23:40Z</time>
      </trkpt>
      <trkpt lat="49.18981" lon="6.97756">
        <ele>263</ele>
        <time>2011-01-23T10:23:42Z</time>
      </trkpt>
      <trkpt lat="49.18982" lon="6.97753">
        <ele>263</ele>
        <time>2011-01-23T10:23:44Z</time>
      </trkpt>
      <trkpt lat="49.18984" lon="6.97751">
        <ele>263</ele>
        <time>2011-01-23T10:23:46Z</time>
      </trkpt>
      <trkpt lat="49.18985" lon="6.97748">
        <ele>263</ele>
        <time>2011-01-23T10:23:48Z</time>
      </trkpt>
      <trkpt lat="49.18987" lon="6.97746">
        <ele>263</ele>
        <time>2011-01-23T10:23:50Z</time>
      </trkpt>
      <trkpt lat="49.18989" lon="6.97744">
        <ele>263</ele>
        <time>2011-01-23T10:23:52Z</time>
      </trkpt>
      <trkpt lat="49.1899" lon="6.97743">
        <ele>263</ele>
        <time>2011-01-23T10:23:53Z</time>
      </trkpt>
      <trkpt lat="49.18992" lon="6.9774">
        <ele>263</ele>
        <time>2011-01-23T10:23:55Z</time>
      </trkpt>
      <trkpt lat="49.18993" lon="6.97737">
        <ele>263</ele>
        <time>2011-01-23T10:23:57Z</time>
      </trkpt>
      <trkpt lat="49.18993" lon="6.97735">
        <ele>263</ele>
        <time>2011-01-23T10:23:58Z</time>
      </trkpt>
      <trkpt lat="49.18995" lon="6.97732">
        <ele>263</ele>
        <time>2011-01-23T10:24:00Z</time>
      </trkpt>
      <trkpt lat="49.18996" lon="6.97729">
        <ele>263</ele>
        <time>2011-01-23T10:24:02Z</time>
      </trkpt>
      <trkpt lat="49.18996" lon="6.97727">
        <ele>263</ele>
        <time>2011-01-23T10:24:03Z</time>
      </trkpt>
      <trkpt lat="49.18998" lon="6.97724">
        <ele>263</ele>
        <time>2011-01-23T10:24:05Z</time>
      </trkpt>
      <trkpt lat="49.18998" lon="6.97721">
        <ele>263</ele>
        <time>2011-01-23T10:24:06Z</time>
      </trkpt>
      <trkpt lat="49.18998" lon="6.97719">
        <ele>263</ele>
        <time>2011-01-23T10:24:07Z</time>
      </trkpt>
      <trkpt lat="49.18999" lon="6.97718">
        <ele>263</ele>
        <time>2011-01-23T10:24:08Z</time>
      </trkpt>
      <trkpt lat="49.19001" lon="6.97715">
        <ele>263</ele>
        <time>2011-01-23T10:24:10Z</time>
      </trkpt>
      <trkpt lat="49.19003" lon="6.97712">
        <ele>263</ele>
        <time>2011-01-23T10:24:12Z</time>
      </trkpt>
      <trkpt lat="49.19003" lon="6.9771">
        <ele>263</ele>
        <time>2011-01-23T10:24:13Z</time>
      </trkpt>
      <trkpt lat="49.19004" lon="6.97709">
        <ele>263</ele>
        <time>2011-01-23T10:24:14Z</time>
      </trkpt>
      <trkpt lat="49.19006" lon="6.97706">
        <ele>263</ele>
        <time>2011-01-23T10:24:16Z</time>
      </trkpt>
      <trkpt lat="49.19008" lon="6.97704">
        <ele>263</ele>
        <time>2011-01-23T10:24:18Z</time>
      </trkpt>
      <trkpt lat="49.19009" lon="6.97701">
        <ele>263</ele>
        <time>2011-01-23T10:24:20Z</time>
      </trkpt>
      <trkpt lat="49.19009" lon="6.97698">
        <ele>263</ele>
        <time>2011-01-23T10:24:21Z</time>
      </trkpt>
      <trkpt lat="49.19009" lon="6.97696">
        <ele>263</ele>
        <time>2011-01-23T10:24:22Z</time>
      </trkpt>
      <trkpt lat="49.1901" lon="6.97695">
        <ele>263</ele>
        <time>2011-01-23T10:24:23Z</time>
      </trkpt>
      <trkpt lat="49.1901" lon="6.97692">
        <ele>263</ele>
        <time>2011-01-23T10:24:24Z</time>
      </trkpt>
      <trkpt lat="49.19011" lon="6.97689">
        <ele>263</ele>
        <time>2011-01-23T10:24:26Z</time>
      </trkpt>
      <trkpt lat="49.19012" lon="6.97687">
        <ele>263</ele>
        <time>2011-01-23T10:24:27Z</time>
      </trkpt>
      <trkpt lat="49.19012" lon="6.97685">
        <ele>263</ele>
        <time>2011-01-23T10:24:28Z</time>
      </trkpt>
      <trkpt lat="49.19012" lon="6.97684">
        <ele>263</ele>
        <time>2011-01-23T10:24:29Z</time>
      </trkpt>
      <trkpt lat="49.19014" lon="6.97681">
        <ele>263</ele>
        <time>2011-01-23T10:24:31Z</time>
      </trkpt>
      <trkpt lat="49.19014" lon="6.97679">
        <ele>263</ele>
        <time>2011-01-23T10:24:32Z</time>
      </trkpt>
      <trkpt lat="49.19015" lon="6.97677">
        <ele>263</ele>
        <time>2011-01-23T10:24:33Z</time>
      </trkpt>
      <trkpt lat="49.19016" lon="6.97676">
        <ele>263</ele>
        <time>2011-01-23T10:24:34Z</time>
      </trkpt>
      <trkpt lat="49.19017" lon="6.97673">
        <ele>263</ele>
        <time>2011-01-23T10:24:36Z</time>
      </trkpt>
      <trkpt lat="49.19017" lon="6.97671">
        <ele>263</ele>
        <time>2011-01-23T10:24:37Z</time>
      </trkpt>
      <trkpt lat="49.19018" lon="6.97669">
        <ele>263</ele>
        <time>2011-01-23T10:24:38Z</time>
      </trkpt>
      <trkpt lat="49.19019" lon="6.97668">
        <ele>263</ele>
        <time>2011-01-23T10:24:39Z</time>
      </trkpt>
      <trkpt lat="49.1902" lon="6.97664">
        <ele>263</ele>
        <time>2011-01-23T10:24:41Z</time>
      </trkpt>
      <trkpt lat="49.19021" lon="6.97662">
        <ele>263</ele>
        <time>2011-01-23T10:24:42Z</time>
      </trkpt>
      <trkpt lat="49.19022" lon="6.9766">
        <ele>263</ele>
        <time>2011-01-23T10:24:43Z</time>
      </trkpt>
      <trkpt lat="49.19022" lon="6.97659">
        <ele>263</ele>
        <time>2011-01-23T10:24:44Z</time>
      </trkpt>
      <trkpt lat="49.19024" lon="6.97656">
        <ele>263</ele>
        <time>2011-01-23T10:24:46Z</time>
      </trkpt>
      <trkpt lat="49.19025" lon="6.97653">
        <ele>263</ele>
        <time>2011-01-23T10:24:48Z</time>
      </trkpt>
      <trkpt lat="49.19026" lon="6.9765">
        <ele>263</ele>
        <time>2011-01-23T10:24:50Z</time>
      </trkpt>
      <trkpt lat="49.19027" lon="6.97648">
        <ele>263</ele>
        <time>2011-01-23T10:24:51Z</time>
      </trkpt>
      <trkpt lat="49.19027" lon="6.97647">
        <ele>263</ele>
        <time>2011-01-23T10:24:52Z</time>
      </trkpt>
      <trkpt lat="49.19028" lon="6.97644">
        <ele>263</ele>
        <time>2011-01-23T10:24:54Z</time>
      </trkpt>
      <trkpt lat="49.1903" lon="6.97641">
        <ele>263</ele>
        <time>2011-01-23T10:24:56Z</time>
      </trkpt>
      <trkpt lat="49.19031" lon="6.97638">
        <ele>263</ele>
        <time>2011-01-23T10:24:58Z</time>
      </trkpt>
      <trkpt lat="49.19032" lon="6.97637">
        <ele>263</ele>
        <time>2011-01-23T10:24:59Z</time>
      </trkpt>
      <trkpt lat="49.19032" lon="6.97635">
        <ele>263</ele>
        <time>2011-01-23T10:25:00Z</time>
      </trkpt>
      <trkpt lat="49.19033" lon="6.97633">
        <ele>263</ele>
        <time>2011-01-23T10:25:01Z</time>
      </trkpt>
      <trkpt lat="49.19034" lon="6.9763">
        <ele>263</ele>
        <time>2011-01-23T10:25:03Z</time>
      </trkpt>
      <trkpt lat="49.19035" lon="6.97628">
        <ele>263</ele>
        <time>2011-01-23T10:25:04Z</time>
      </trkpt>
      <trkpt lat="49.19035" lon="6.97627">
        <ele>263</ele>
        <time>2011-01-23T10:25:05Z</time>
      </trkpt>
      <trkpt lat="49.19036" lon="6.97625">
        <ele>263</ele>
        <time>2011-01-23T10:25:06Z</time>
      </trkpt>
      <trkpt lat="49.19036" lon="6.97623">
        <ele>263</ele>
        <time>2011-01-23T10:25:07Z</time>
      </trkpt>
      <trkpt lat="49.19038" lon="6.97621">
        <ele>263</ele>
        <time>2011-01-23T10:25:09Z</time>
      </trkpt>
      <trkpt lat="49.19038" lon="6.97617">
        <ele>263</ele>
        <time>2011-01-23T10:25:11Z</time>
      </trkpt>
      <trkpt lat="49.19039" lon="6.97615">
        <ele>263</ele>
        <time>2011-01-23T10:25:12Z</time>
      </trkpt>
      <trkpt lat="49.19039" lon="6.97613">
        <ele>263</ele>
        <time>2011-01-23T10:25:13Z</time>
      </trkpt>
      <trkpt lat="49.1904" lon="6.97611">
        <ele>263</ele>
        <time>2011-01-23T10:25:14Z</time>
      </trkpt>
      <trkpt lat="49.1904" lon="6.97609">
        <ele>263</ele>
        <time>2011-01-23T10:25:15Z</time>
      </trkpt>
      <trkpt lat="49.19041" lon="6.97608">
        <ele>263</ele>
        <time>2011-01-23T10:25:16Z</time>
      </trkpt>
      <trkpt lat="49.19041" lon="6.97606">
        <ele>263</ele>
        <time>2011-01-23T10:25:17Z</time>
      </trkpt>
      <trkpt lat="49.19041" lon="6.97604">
        <ele>263</ele>
        <time>2011-01-23T10:25:18Z</time>
      </trkpt>
      <trkpt lat="49.19042" lon="6.97602">
        <ele>263</ele>
        <time>2011-01-23T10:25:19Z</time>
      </trkpt>
      <trkpt lat="49.19042" lon="6.976">
        <ele>263</ele>
        <time>2011-01-23T10:25:20Z</time>
      </trkpt>
      <trkpt lat="49.19042" lon="6.97598">
        <ele>263</ele>
        <time>2011-01-23T10:25:21Z</time>
      </trkpt>
      <trkpt lat="49.19043" lon="6.97596">
        <ele>263</ele>
        <time>2011-01-23T10:25:22Z</time>
      </trkpt>
      <trkpt lat="49.19043" lon="6.97594">
        <ele>263</ele>
        <time>2011-01-23T10:25:23Z</time>
      </trkpt>
      <trkpt lat="49.19043" lon="6.97592">
        <ele>263</ele>
        <time>2011-01-23T10:25:24Z</time>
      </trkpt>
      <trkpt lat="49.19043" lon="6.9759">
        <ele>263</ele>
        <time>2011-01-23T10:25:25Z</time>
      </trkpt>
      <trkpt lat="49.19043" lon="6.97588">
        <ele>263</ele>
        <time>2011-01-23T10:25:26Z</time>
      </trkpt>
      <trkpt lat="49.19044" lon="6.97586">
        <ele>263</ele>
        <time>2011-01-23T10:25:27Z</time>
      </trkpt>
      <trkpt lat="49.19044" lon="6.97584">
        <ele>263</ele>
        <time>2011-01-23T10:25:28Z</time>
      </trkpt>
      <trkpt lat="49.19045" lon="6.97582">
        <ele>263</ele>
        <time>2011-01-23T10:25:29Z</time>
      </trkpt>
      <trkpt lat="49.19045" lon="6.9758">
        <ele>263</ele>
        <time>2011-01-23T10:25:30Z</time>
      </trkpt>
      <trkpt lat="49.19045" lon="6.97578">
        <ele>263</ele>
        <time>2011-01-23T10:25:31Z</time>
      </trkpt>
      <trkpt lat="49.19046" lon="6.97576">
        <ele>263</ele>
        <time>2011-01-23T10:25:32Z</time>
      </trkpt>
      <trkpt lat="49.19046" lon="6.97574">
        <ele>263</ele>
        <time>2011-01-23T10:25:33Z</time>
      </trkpt>
      <trkpt lat="49.19046" lon="6.97572">
        <ele>263</ele>
        <time>2011-01-23T10:25:34Z</time>
      </trkpt>
      <trkpt lat="49.19046" lon="6.9757">
        <ele>263</ele>
        <time>2011-01-23T10:25:35Z</time>
      </trkpt>
      <trkpt lat="49.19047" lon="6.97568">
        <ele>263</ele>
        <time>2011-01-23T10:25:36Z</time>
      </trkpt>
      <trkpt lat="49.19048" lon="6.97567">
        <ele>263</ele>
        <time>2011-01-23T10:25:37Z</time>
      </trkpt>
      <trkpt lat="49.19048" lon="6.97565">
        <ele>263</ele>
        <time>2011-01-23T10:25:38Z</time>
      </trkpt>
      <trkpt lat="49.19048" lon="6.97563">
        <ele>263</ele>
        <time>2011-01-23T10:25:39Z</time>
      </trkpt>
      <trkpt lat="49.19049" lon="6.97561">
        <ele>263</ele>
        <time>2011-01-23T10:25:40Z</time>
      </trkpt>
      <trkpt lat="49.19049" lon="6.97559">
        <ele>263</ele>
        <time>2011-01-23T10:25:41Z</time>
      </trkpt>
      <trkpt lat="49.1905" lon="6.97558">
        <ele>263</ele>
        <time>2011-01-23T10:25:42Z</time>
      </trkpt>
      <trkpt lat="49.1905" lon="6.97556">
        <ele>263</ele>
        <time>2011-01-23T10:25:43Z</time>
      </trkpt>
      <trkpt lat="49.1905" lon="6.97554">
        <ele>263</ele>
        <time>2011-01-23T10:25:44Z</time>
      </trkpt>
      <trkpt lat="49.19051" lon="6.97552">
        <ele>263</ele>
        <time>2011-01-23T10:25:45Z</time>
      </trkpt>
      <trkpt lat="49.19051" lon="6.9755">
        <ele>263</ele>
        <time>2011-01-23T10:25:46Z</time>
      </trkpt>
      <trkpt lat="49.19052" lon="6.97548">
        <ele>263</ele>
        <time>2011-01-23T10:25:47Z</time>
      </trkpt>
      <trkpt lat="49.19052" lon="6.97546">
        <ele>263</ele>
        <time>2011-01-23T10:25:48Z</time>
      </trkpt>
      <trkpt lat="49.19053" lon="6.97545">
        <ele>263</ele>
        <time>2011-01-23T10:25:49Z</time>
      </trkpt>
      <trkpt lat="49.19053" lon="6.97543">
        <ele>263</ele>
        <time>2011-01-23T10:25:50Z</time>
      </trkpt>
      <trkpt lat="49.19054" lon="6.97541">
        <ele>263</ele>
        <time>2011-01-23T10:25:51Z</time>
      </trkpt>
      <trkpt lat="49.19055" lon="6.9754">
        <ele>263</ele>
        <time>2011-01-23T10:25:52Z</time>
      </trkpt>
      <trkpt lat="49.19055" lon="6.97538">
        <ele>264</ele>
        <time>2011-01-23T10:25:53Z</time>
      </trkpt>
      <trkpt lat="49.19056" lon="6.97536">
        <ele>264</ele>
        <time>2011-01-23T10:25:54Z</time>
      </trkpt>
      <trkpt lat="49.19056" lon="6.97534">
        <ele>264</ele>
        <time>2011-01-23T10:25:55Z</time>
      </trkpt>
      <trkpt lat="49.19057" lon="6.97531">
        <ele>264</ele>
        <time>2011-01-23T10:25:57Z</time>
      </trkpt>
      <trkpt lat="49.19058" lon="6.97529">
        <ele>265</ele>
        <time>2011-01-23T10:25:58Z</time>
      </trkpt>
      <trkpt lat="49.19059" lon="6.97528">
        <ele>265</ele>
        <time>2011-01-23T10:25:59Z</time>
      </trkpt>
      <trkpt lat="49.1906" lon="6.97523">
        <ele>265</ele>
        <time>2011-01-23T10:26:01Z</time>
      </trkpt>
      <trkpt lat="49.19062" lon="6.97521">
        <ele>265</ele>
        <time>2011-01-23T10:26:03Z</time>
      </trkpt>
      <trkpt lat="49.19063" lon="6.97518">
        <ele>266</ele>
        <time>2011-01-23T10:26:05Z</time>
      </trkpt>
      <trkpt lat="49.19064" lon="6.97515">
        <ele>266</ele>
        <time>2011-01-23T10:26:07Z</time>
      </trkpt>
      <trkpt lat="49.19066" lon="6.97513">
        <ele>267</ele>
        <time>2011-01-23T10:26:09Z</time>
      </trkpt>
      <trkpt lat="49.19067" lon="6.97511">
        <ele>267</ele>
        <time>2011-01-23T10:26:10Z</time>
      </trkpt>
      <trkpt lat="49.19068" lon="6.97509">
        <ele>268</ele>
        <time>2011-01-23T10:26:12Z</time>
      </trkpt>
      <trkpt lat="49.1907" lon="6.97508">
        <ele>268</ele>
        <time>2011-01-23T10:26:14Z</time>
      </trkpt>
      <trkpt lat="49.19071" lon="6.97507">
        <ele>268</ele>
        <time>2011-01-23T10:26:15Z</time>
      </trkpt>
      <trkpt lat="49.19073" lon="6.97506">
        <ele>269</ele>
        <time>2011-01-23T10:26:17Z</time>
      </trkpt>
      <trkpt lat="49.19074" lon="6.97506">
        <ele>269</ele>
        <time>2011-01-23T10:26:20Z</time>
      </trkpt>
      <trkpt lat="49.19075" lon="6.97504">
        <ele>270</ele>
        <time>2011-01-23T10:26:32Z</time>
      </trkpt>
      <trkpt lat="49.19076" lon="6.97502">
        <ele>270</ele>
        <time>2011-01-23T10:26:34Z</time>
      </trkpt>
      <trkpt lat="49.19077" lon="6.97499">
        <ele>270</ele>
        <time>2011-01-23T10:26:36Z</time>
      </trkpt>
      <trkpt lat="49.19078" lon="6.97496">
        <ele>270</ele>
        <time>2011-01-23T10:26:38Z</time>
      </trkpt>
      <trkpt lat="49.19078" lon="6.97493">
        <ele>270</ele>
        <time>2011-01-23T10:26:40Z</time>
      </trkpt>
      <trkpt lat="49.19079" lon="6.97491">
        <ele>270</ele>
        <time>2011-01-23T10:26:41Z</time>
      </trkpt>
      <trkpt lat="49.19079" lon="6.97489">
        <ele>270</ele>
        <time>2011-01-23T10:26:42Z</time>
      </trkpt>
      <trkpt lat="49.19079" lon="6.97487">
        <ele>270</ele>
        <time>2011-01-23T10:26:43Z</time>
      </trkpt>
      <trkpt lat="49.1908" lon="6.97485">
        <ele>270</ele>
        <time>2011-01-23T10:26:45Z</time>
      </trkpt>
      <trkpt lat="49.1908" lon="6.97482">
        <ele>270</ele>
        <time>2011-01-23T10:26:47Z</time>
      </trkpt>
      <trkpt lat="49.19081" lon="6.97479">
        <ele>270</ele>
        <time>2011-01-23T10:26:49Z</time>
      </trkpt>
      <trkpt lat="49.19081" lon="6.97476">
        <ele>270</ele>
        <time>2011-01-23T10:26:51Z</time>
      </trkpt>
      <trkpt lat="49.19081" lon="6.97473">
        <ele>270</ele>
        <time>2011-01-23T10:26:53Z</time>
      </trkpt>
      <trkpt lat="49.19082" lon="6.9747">
        <ele>271</ele>
        <time>2011-01-23T10:26:55Z</time>
      </trkpt>
      <trkpt lat="49.19083" lon="6.97468">
        <ele>271</ele>
        <time>2011-01-23T10:26:57Z</time>
      </trkpt>
      <trkpt lat="49.19083" lon="6.97465">
        <ele>271</ele>
        <time>2011-01-23T10:26:59Z</time>
      </trkpt>
      <trkpt lat="49.19084" lon="6.97462">
        <ele>271</ele>
        <time>2011-01-23T10:27:01Z</time>
      </trkpt>
      <trkpt lat="49.19085" lon="6.97459">
        <ele>272</ele>
        <time>2011-01-23T10:27:03Z</time>
      </trkpt>
      <trkpt lat="49.19085" lon="6.97457">
        <ele>272</ele>
        <time>2011-01-23T10:27:04Z</time>
      </trkpt>
      <trkpt lat="49.19085" lon="6.97454">
        <ele>272</ele>
        <time>2011-01-23T10:27:06Z</time>
      </trkpt>
      <trkpt lat="49.19086" lon="6.97452">
        <ele>272</ele>
        <time>2011-01-23T10:27:07Z</time>
      </trkpt>
      <trkpt lat="49.19086" lon="6.97449">
        <ele>272</ele>
        <time>2011-01-23T10:27:09Z</time>
      </trkpt>
      <trkpt lat="49.19087" lon="6.97446">
        <ele>273</ele>
        <time>2011-01-23T10:27:11Z</time>
      </trkpt>
      <trkpt lat="49.19087" lon="6.97445">
        <ele>273</ele>
        <time>2011-01-23T10:27:12Z</time>
      </trkpt>
      <trkpt lat="49.19088" lon="6.97442">
        <ele>273</ele>
        <time>2011-01-23T10:27:14Z</time>
      </trkpt>
      <trkpt lat="49.19089" lon="6.97439">
        <ele>273</ele>
        <time>2011-01-23T10:27:16Z</time>
      </trkpt>
      <trkpt lat="49.19089" lon="6.97437">
        <ele>274</ele>
        <time>2011-01-23T10:27:18Z</time>
      </trkpt>
      <trkpt lat="49.1909" lon="6.97434">
        <ele>274</ele>
        <time>2011-01-23T10:27:20Z</time>
      </trkpt>
      <trkpt lat="49.1909" lon="6.97432">
        <ele>274</ele>
        <time>2011-01-23T10:27:22Z</time>
      </trkpt>
      <trkpt lat="49.19091" lon="6.9743">
        <ele>274</ele>
        <time>2011-01-23T10:27:24Z</time>
      </trkpt>
      <trkpt lat="49.19091" lon="6.97428">
        <ele>274</ele>
        <time>2011-01-23T10:27:26Z</time>
      </trkpt>
      <trkpt lat="49.19091" lon="6.97425">
        <ele>274</ele>
        <time>2011-01-23T10:27:28Z</time>
      </trkpt>
      <trkpt lat="49.19091" lon="6.97422">
        <ele>274</ele>
        <time>2011-01-23T10:27:30Z</time>
      </trkpt>
      <trkpt lat="49.19091" lon="6.9742">
        <ele>274</ele>
        <time>2011-01-23T10:27:31Z</time>
      </trkpt>
      <trkpt lat="49.19092" lon="6.97418">
        <ele>274</ele>
        <time>2011-01-23T10:27:32Z</time>
      </trkpt>
      <trkpt lat="49.19092" lon="6.97416">
        <ele>274</ele>
        <time>2011-01-23T10:27:34Z</time>
      </trkpt>
      <trkpt lat="49.19093" lon="6.97413">
        <ele>274</ele>
        <time>2011-01-23T10:27:36Z</time>
      </trkpt>
      <trkpt lat="49.19094" lon="6.9741">
        <ele>274</ele>
        <time>2011-01-23T10:27:39Z</time>
      </trkpt>
      <trkpt lat="49.19094" lon="6.97408">
        <ele>274</ele>
        <time>2011-01-23T10:27:40Z</time>
      </trkpt>
      <trkpt lat="49.19094" lon="6.97405">
        <ele>275</ele>
        <time>2011-01-23T10:27:42Z</time>
      </trkpt>
      <trkpt lat="49.19096" lon="6.97402">
        <ele>275</ele>
        <time>2011-01-23T10:27:44Z</time>
      </trkpt>
      <trkpt lat="49.19096" lon="6.974">
        <ele>275</ele>
        <time>2011-01-23T10:27:46Z</time>
      </trkpt>
      <trkpt lat="49.19096" lon="6.97396">
        <ele>275</ele>
        <time>2011-01-23T10:27:48Z</time>
      </trkpt>
      <trkpt lat="49.19096" lon="6.97394">
        <ele>275</ele>
        <time>2011-01-23T10:27:49Z</time>
      </trkpt>
      <trkpt lat="49.19097" lon="6.97391">
        <ele>275</ele>
        <time>2011-01-23T10:27:51Z</time>
      </trkpt>
      <trkpt lat="49.19097" lon="6.97388">
        <ele>275</ele>
        <time>2011-01-23T10:27:53Z</time>
      </trkpt>
      <trkpt lat="49.19098" lon="6.97386">
        <ele>275</ele>
        <time>2011-01-23T10:27:54Z</time>
      </trkpt>
      <trkpt lat="49.19098" lon="6.97384">
        <ele>275</ele>
        <time>2011-01-23T10:27:56Z</time>
      </trkpt>
      <trkpt lat="49.19099" lon="6.9738">
        <ele>275</ele>
        <time>2011-01-23T10:27:58Z</time>
      </trkpt>
      <trkpt lat="49.191" lon="6.97379">
        <ele>275</ele>
        <time>2011-01-23T10:27:59Z</time>
      </trkpt>
      <trkpt lat="49.191" lon="6.97376">
        <ele>275</ele>
        <time>2011-01-23T10:28:01Z</time>
      </trkpt>
      <trkpt lat="49.191" lon="6.97374">
        <ele>275</ele>
        <time>2011-01-23T10:28:02Z</time>
      </trkpt>
      <trkpt lat="49.191" lon="6.97372">
        <ele>275</ele>
        <time>2011-01-23T10:28:03Z</time>
      </trkpt>
      <trkpt lat="49.191" lon="6.9737">
        <ele>275</ele>
        <time>2011-01-23T10:28:04Z</time>
      </trkpt>
      <trkpt lat="49.19101" lon="6.97368">
        <ele>275</ele>
        <time>2011-01-23T10:28:05Z</time>
      </trkpt>
      <trkpt lat="49.19101" lon="6.97365">
        <ele>276</ele>
        <time>2011-01-23T10:28:07Z</time>
      </trkpt>
      <trkpt lat="49.19101" lon="6.97363">
        <ele>276</ele>
        <time>2011-01-23T10:28:08Z</time>
      </trkpt>
      <trkpt lat="49.19102" lon="6.97361">
        <ele>276</ele>
        <time>2011-01-23T10:28:09Z</time>
      </trkpt>
      <trkpt lat="49.19102" lon="6.97359">
        <ele>276</ele>
        <time>2011-01-23T10:28:10Z</time>
      </trkpt>
      <trkpt lat="49.19103" lon="6.97357">
        <ele>276</ele>
        <time>2011-01-23T10:28:12Z</time>
      </trkpt>
      <trkpt lat="49.19104" lon="6.97353">
        <ele>276</ele>
        <time>2011-01-23T10:28:14Z</time>
      </trkpt>
      <trkpt lat="49.19104" lon="6.97352">
        <ele>276</ele>
        <time>2011-01-23T10:28:15Z</time>
      </trkpt>
      <trkpt lat="49.19105" lon="6.9735">
        <ele>276</ele>
        <time>2011-01-23T10:28:16Z</time>
      </trkpt>
      <trkpt lat="49.19106" lon="6.97347">
        <ele>277</ele>
        <time>2011-01-23T10:28:18Z</time>
      </trkpt>
      <trkpt lat="49.19106" lon="6.97345">
        <ele>277</ele>
        <time>2011-01-23T10:28:19Z</time>
      </trkpt>
      <trkpt lat="49.19107" lon="6.97344">
        <ele>277</ele>
        <time>2011-01-23T10:28:20Z</time>
      </trkpt>
      <trkpt lat="49.19107" lon="6.97342">
        <ele>277</ele>
        <time>2011-01-23T10:28:21Z</time>
      </trkpt>
      <trkpt lat="49.19107" lon="6.97339">
        <ele>277</ele>
        <time>2011-01-23T10:28:23Z</time>
      </trkpt>
      <trkpt lat="49.19108" lon="6.97336">
        <ele>277</ele>
        <time>2011-01-23T10:28:25Z</time>
      </trkpt>
      <trkpt lat="49.19109" lon="6.97333">
        <ele>278</ele>
        <time>2011-01-23T10:28:27Z</time>
      </trkpt>
      <trkpt lat="49.1911" lon="6.9733">
        <ele>278</ele>
        <time>2011-01-23T10:28:29Z</time>
      </trkpt>
      <trkpt lat="49.1911" lon="6.97328">
        <ele>278</ele>
        <time>2011-01-23T10:28:31Z</time>
      </trkpt>
      <trkpt lat="49.19111" lon="6.97326">
        <ele>278</ele>
        <time>2011-01-23T10:28:32Z</time>
      </trkpt>
      <trkpt lat="49.19112" lon="6.97323">
        <ele>278</ele>
        <time>2011-01-23T10:28:34Z</time>
      </trkpt>
      <trkpt lat="49.19113" lon="6.97321">
        <ele>278</ele>
        <time>2011-01-23T10:28:36Z</time>
      </trkpt>
      <trkpt lat="49.19114" lon="6.97318">
        <ele>278</ele>
        <time>2011-01-23T10:28:38Z</time>
      </trkpt>
      <trkpt lat="49.19115" lon="6.97315">
        <ele>278</ele>
        <time>2011-01-23T10:28:40Z</time>
      </trkpt>
      <trkpt lat="49.19116" lon="6.97313">
        <ele>278</ele>
        <time>2011-01-23T10:28:41Z</time>
      </trkpt>
      <trkpt lat="49.19116" lon="6.97311">
        <ele>278</ele>
        <time>2011-01-23T10:28:42Z</time>
      </trkpt>
      <trkpt lat="49.19117" lon="6.97309">
        <ele>278</ele>
        <time>2011-01-23T10:28:43Z</time>
      </trkpt>
      <trkpt lat="49.19117" lon="6.97308">
        <ele>278</ele>
        <time>2011-01-23T10:28:44Z</time>
      </trkpt>
      <trkpt lat="49.19118" lon="6.97306">
        <ele>278</ele>
        <time>2011-01-23T10:28:45Z</time>
      </trkpt>
      <trkpt lat="49.19118" lon="6.97303">
        <ele>278</ele>
        <time>2011-01-23T10:28:47Z</time>
      </trkpt>
      <trkpt lat="49.19119" lon="6.973">
        <ele>278</ele>
        <time>2011-01-23T10:28:49Z</time>
      </trkpt>
      <trkpt lat="49.1912" lon="6.97298">
        <ele>279</ele>
        <time>2011-01-23T10:28:51Z</time>
      </trkpt>
      <trkpt lat="49.1912" lon="6.97296">
        <ele>279</ele>
        <time>2011-01-23T10:28:52Z</time>
      </trkpt>
      <trkpt lat="49.1912" lon="6.97294">
        <ele>279</ele>
        <time>2011-01-23T10:28:53Z</time>
      </trkpt>
      <trkpt lat="49.19121" lon="6.97293">
        <ele>279</ele>
        <time>2011-01-23T10:28:54Z</time>
      </trkpt>
      <trkpt lat="49.19121" lon="6.97291">
        <ele>279</ele>
        <time>2011-01-23T10:28:55Z</time>
      </trkpt>
      <trkpt lat="49.19122" lon="6.97288">
        <ele>280</ele>
        <time>2011-01-23T10:28:57Z</time>
      </trkpt>
      <trkpt lat="49.19122" lon="6.97286">
        <ele>280</ele>
        <time>2011-01-23T10:28:58Z</time>
      </trkpt>
      <trkpt lat="49.19123" lon="6.97284">
        <ele>280</ele>
        <time>2011-01-23T10:28:59Z</time>
      </trkpt>
      <trkpt lat="49.19123" lon="6.97283">
        <ele>281</ele>
        <time>2011-01-23T10:29:00Z</time>
      </trkpt>
      <trkpt lat="49.19123" lon="6.97281">
        <ele>281</ele>
        <time>2011-01-23T10:29:01Z</time>
      </trkpt>
      <trkpt lat="49.19123" lon="6.97278">
        <ele>281</ele>
        <time>2011-01-23T10:29:02Z</time>
      </trkpt>
      <trkpt lat="49.19124" lon="6.97277">
        <ele>281</ele>
        <time>2011-01-23T10:29:03Z</time>
      </trkpt>
      <trkpt lat="49.19124" lon="6.97275">
        <ele>281</ele>
        <time>2011-01-23T10:29:04Z</time>
      </trkpt>
      <trkpt lat="49.19125" lon="6.97273">
        <ele>282</ele>
        <time>2011-01-23T10:29:05Z</time>
      </trkpt>
      <trkpt lat="49.19125" lon="6.97271">
        <ele>282</ele>
        <time>2011-01-23T10:29:06Z</time>
      </trkpt>
      <trkpt lat="49.19126" lon="6.97269">
        <ele>282</ele>
        <time>2011-01-23T10:29:07Z</time>
      </trkpt>
      <trkpt lat="49.19126" lon="6.97267">
        <ele>282</ele>
        <time>2011-01-23T10:29:08Z</time>
      </trkpt>
      <trkpt lat="49.19127" lon="6.97265">
        <ele>282</ele>
        <time>2011-01-23T10:29:09Z</time>
      </trkpt>
      <trkpt lat="49.19127" lon="6.97264">
        <ele>282</ele>
        <time>2011-01-23T10:29:10Z</time>
      </trkpt>
      <trkpt lat="49.19127" lon="6.97262">
        <ele>282</ele>
        <time>2011-01-23T10:29:11Z</time>
      </trkpt>
      <trkpt lat="49.19128" lon="6.9726">
        <ele>282</ele>
        <time>2011-01-23T10:29:12Z</time>
      </trkpt>
      <trkpt lat="49.19128" lon="6.97259">
        <ele>282</ele>
        <time>2011-01-23T10:29:13Z</time>
      </trkpt>
      <trkpt lat="49.19129" lon="6.97257">
        <ele>282</ele>
        <time>2011-01-23T10:29:14Z</time>
      </trkpt>
      <trkpt lat="49.19129" lon="6.97255">
        <ele>282</ele>
        <time>2011-01-23T10:29:15Z</time>
      </trkpt>
      <trkpt lat="49.19129" lon="6.97253">
        <ele>282</ele>
        <time>2011-01-23T10:29:16Z</time>
      </trkpt>
      <trkpt lat="49.1913" lon="6.9725">
        <ele>282</ele>
        <time>2011-01-23T10:29:18Z</time>
      </trkpt>
      <trkpt lat="49.1913" lon="6.97249">
        <ele>282</ele>
        <time>2011-01-23T10:29:19Z</time>
      </trkpt>
      <trkpt lat="49.19131" lon="6.97245">
        <ele>282</ele>
        <time>2011-01-23T10:29:21Z</time>
      </trkpt>
      <trkpt lat="49.19131" lon="6.97243">
        <ele>282</ele>
        <time>2011-01-23T10:29:22Z</time>
      </trkpt>
      <trkpt lat="49.19131" lon="6.97241">
        <ele>282</ele>
        <time>2011-01-23T10:29:23Z</time>
      </trkpt>
      <trkpt lat="49.19132" lon="6.9724">
        <ele>282</ele>
        <time>2011-01-23T10:29:24Z</time>
      </trkpt>
      <trkpt lat="49.19132" lon="6.97238">
        <ele>282</ele>
        <time>2011-01-23T10:29:25Z</time>
      </trkpt>
      <trkpt lat="49.19133" lon="6.97234">
        <ele>282</ele>
        <time>2011-01-23T10:29:27Z</time>
      </trkpt>
      <trkpt lat="49.19133" lon="6.97232">
        <ele>282</ele>
        <time>2011-01-23T10:29:28Z</time>
      </trkpt>
      <trkpt lat="49.19134" lon="6.97231">
        <ele>282</ele>
        <time>2011-01-23T10:29:29Z</time>
      </trkpt>
      <trkpt lat="49.19134" lon="6.97229">
        <ele>282</ele>
        <time>2011-01-23T10:29:30Z</time>
      </trkpt>
      <trkpt lat="49.19134" lon="6.97226">
        <ele>282</ele>
        <time>2011-01-23T10:29:31Z</time>
      </trkpt>
      <trkpt lat="49.19134" lon="6.97224">
        <ele>282</ele>
        <time>2011-01-23T10:29:32Z</time>
      </trkpt>
      <trkpt lat="49.19135" lon="6.97221">
        <ele>282</ele>
        <time>2011-01-23T10:29:33Z</time>
      </trkpt>
      <trkpt lat="49.19135" lon="6.97219">
        <ele>282</ele>
        <time>2011-01-23T10:29:34Z</time>
      </trkpt>
      <trkpt lat="49.19135" lon="6.97217">
        <ele>283</ele>
        <time>2011-01-23T10:29:35Z</time>
      </trkpt>
      <trkpt lat="49.19136" lon="6.97215">
        <ele>283</ele>
        <time>2011-01-23T10:29:36Z</time>
      </trkpt>
      <trkpt lat="49.19136" lon="6.97214">
        <ele>283</ele>
        <time>2011-01-23T10:29:37Z</time>
      </trkpt>
      <trkpt lat="49.19136" lon="6.97212">
        <ele>283</ele>
        <time>2011-01-23T10:29:38Z</time>
      </trkpt>
      <trkpt lat="49.19137" lon="6.9721">
        <ele>283</ele>
        <time>2011-01-23T10:29:39Z</time>
      </trkpt>
      <trkpt lat="49.19138" lon="6.97208">
        <ele>283</ele>
        <time>2011-01-23T10:29:40Z</time>
      </trkpt>
      <trkpt lat="49.19138" lon="6.97206">
        <ele>283</ele>
        <time>2011-01-23T10:29:41Z</time>
      </trkpt>
      <trkpt lat="49.19139" lon="6.97204">
        <ele>283</ele>
        <time>2011-01-23T10:29:42Z</time>
      </trkpt>
      <trkpt lat="49.19139" lon="6.97202">
        <ele>284</ele>
        <time>2011-01-23T10:29:43Z</time>
      </trkpt>
      <trkpt lat="49.1914" lon="6.97201">
        <ele>284</ele>
        <time>2011-01-23T10:29:44Z</time>
      </trkpt>
      <trkpt lat="49.19141" lon="6.97198">
        <ele>284</ele>
        <time>2011-01-23T10:29:46Z</time>
      </trkpt>
      <trkpt lat="49.19142" lon="6.97196">
        <ele>285</ele>
        <time>2011-01-23T10:29:47Z</time>
      </trkpt>
      <trkpt lat="49.19142" lon="6.97194">
        <ele>285</ele>
        <time>2011-01-23T10:29:48Z</time>
      </trkpt>
      <trkpt lat="49.19143" lon="6.9719">
        <ele>285</ele>
        <time>2011-01-23T10:29:50Z</time>
      </trkpt>
      <trkpt lat="49.19144" lon="6.97188">
        <ele>285</ele>
        <time>2011-01-23T10:29:52Z</time>
      </trkpt>
      <trkpt lat="49.19146" lon="6.97185">
        <ele>285</ele>
        <time>2011-01-23T10:29:54Z</time>
      </trkpt>
      <trkpt lat="49.19147" lon="6.97182">
        <ele>285</ele>
        <time>2011-01-23T10:29:56Z</time>
      </trkpt>
      <trkpt lat="49.19149" lon="6.9718">
        <ele>285</ele>
        <time>2011-01-23T10:29:58Z</time>
      </trkpt>
      <trkpt lat="49.19151" lon="6.97178">
        <ele>285</ele>
        <time>2011-01-23T10:30:00Z</time>
      </trkpt>
      <trkpt lat="49.19152" lon="6.97175">
        <ele>285</ele>
        <time>2011-01-23T10:30:02Z</time>
      </trkpt>
      <trkpt lat="49.19154" lon="6.97172">
        <ele>286</ele>
        <time>2011-01-23T10:30:04Z</time>
      </trkpt>
      <trkpt lat="49.19155" lon="6.97171">
        <ele>286</ele>
        <time>2011-01-23T10:30:06Z</time>
      </trkpt>
      <trkpt lat="49.19156" lon="6.9717">
        <ele>287</ele>
        <time>2011-01-23T10:30:10Z</time>
      </trkpt>
      <trkpt lat="49.19157" lon="6.97168">
        <ele>287</ele>
        <time>2011-01-23T10:30:21Z</time>
      </trkpt>
      <trkpt lat="49.19158" lon="6.97166">
        <ele>287</ele>
        <time>2011-01-23T10:30:23Z</time>
      </trkpt>
      <trkpt lat="49.1916" lon="6.97164">
        <ele>287</ele>
        <time>2011-01-23T10:30:25Z</time>
      </trkpt>
      <trkpt lat="49.19161" lon="6.97162">
        <ele>287</ele>
        <time>2011-01-23T10:30:27Z</time>
      </trkpt>
      <trkpt lat="49.19162" lon="6.9716">
        <ele>287</ele>
        <time>2011-01-23T10:30:29Z</time>
      </trkpt>
      <trkpt lat="49.19165" lon="6.97157">
        <ele>287</ele>
        <time>2011-01-23T10:30:31Z</time>
      </trkpt>
      <trkpt lat="49.19166" lon="6.97155">
        <ele>287</ele>
        <time>2011-01-23T10:30:33Z</time>
      </trkpt>
      <trkpt lat="49.19167" lon="6.97153">
        <ele>287</ele>
        <time>2011-01-23T10:30:35Z</time>
      </trkpt>
      <trkpt lat="49.19169" lon="6.9715">
        <ele>287</ele>
        <time>2011-01-23T10:30:37Z</time>
      </trkpt>
      <trkpt lat="49.19171" lon="6.97148">
        <ele>287</ele>
        <time>2011-01-23T10:30:39Z</time>
      </trkpt>
      <trkpt lat="49.19173" lon="6.97146">
        <ele>287</ele>
        <time>2011-01-23T10:30:41Z</time>
      </trkpt>
      <trkpt lat="49.19175" lon="6.97143">
        <ele>287</ele>
        <time>2011-01-23T10:30:43Z</time>
      </trkpt>
      <trkpt lat="49.19176" lon="6.97141">
        <ele>287</ele>
        <time>2011-01-23T10:30:45Z</time>
      </trkpt>
      <trkpt lat="49.19178" lon="6.97139">
        <ele>287</ele>
        <time>2011-01-23T10:30:47Z</time>
      </trkpt>
      <trkpt lat="49.1918" lon="6.97137">
        <ele>288</ele>
        <time>2011-01-23T10:30:49Z</time>
      </trkpt>
      <trkpt lat="49.19182" lon="6.97135">
        <ele>288</ele>
        <time>2011-01-23T10:30:51Z</time>
      </trkpt>
      <trkpt lat="49.19184" lon="6.97133">
        <ele>289</ele>
        <time>2011-01-23T10:30:53Z</time>
      </trkpt>
      <trkpt lat="49.19185" lon="6.97131">
        <ele>289</ele>
        <time>2011-01-23T10:30:55Z</time>
      </trkpt>
      <trkpt lat="49.19187" lon="6.97128">
        <ele>289</ele>
        <time>2011-01-23T10:30:57Z</time>
      </trkpt>
      <trkpt lat="49.19189" lon="6.97126">
        <ele>290</ele>
        <time>2011-01-23T10:30:59Z</time>
      </trkpt>
      <trkpt lat="49.1919" lon="6.97123">
        <ele>290</ele>
        <time>2011-01-23T10:31:01Z</time>
      </trkpt>
      <trkpt lat="49.19192" lon="6.97121">
        <ele>290</ele>
        <time>2011-01-23T10:31:03Z</time>
      </trkpt>
      <trkpt lat="49.19194" lon="6.9712">
        <ele>290</ele>
        <time>2011-01-23T10:31:05Z</time>
      </trkpt>
      <trkpt lat="49.19195" lon="6.97119">
        <ele>290</ele>
        <time>2011-01-23T10:31:06Z</time>
      </trkpt>
      <trkpt lat="49.19197" lon="6.97117">
        <ele>291</ele>
        <time>2011-01-23T10:31:08Z</time>
      </trkpt>
      <trkpt lat="49.19199" lon="6.97115">
        <ele>291</ele>
        <time>2011-01-23T10:31:10Z</time>
      </trkpt>
      <trkpt lat="49.19201" lon="6.97112">
        <ele>292</ele>
        <time>2011-01-23T10:31:12Z</time>
      </trkpt>
      <trkpt lat="49.19202" lon="6.9711">
        <ele>293</ele>
        <time>2011-01-23T10:31:14Z</time>
      </trkpt>
      <trkpt lat="49.19203" lon="6.97108">
        <ele>293</ele>
        <time>2011-01-23T10:31:16Z</time>
      </trkpt>
      <trkpt lat="49.19204" lon="6.97105">
        <ele>293</ele>
        <time>2011-01-23T10:31:18Z</time>
      </trkpt>
      <trkpt lat="49.19204" lon="6.97104">
        <ele>293</ele>
        <time>2011-01-23T10:31:19Z</time>
      </trkpt>
      <trkpt lat="49.19205" lon="6.97102">
        <ele>293</ele>
        <time>2011-01-23T10:31:20Z</time>
      </trkpt>
      <trkpt lat="49.19205" lon="6.971">
        <ele>293</ele>
        <time>2011-01-23T10:31:21Z</time>
      </trkpt>
      <trkpt lat="49.19207" lon="6.97097">
        <ele>294</ele>
        <time>2011-01-23T10:31:23Z</time>
      </trkpt>
      <trkpt lat="49.19208" lon="6.97094">
        <ele>294</ele>
        <time>2011-01-23T10:31:25Z</time>
      </trkpt>
      <trkpt lat="49.19209" lon="6.97093">
        <ele>294</ele>
        <time>2011-01-23T10:31:26Z</time>
      </trkpt>
      <trkpt lat="49.19209" lon="6.97091">
        <ele>294</ele>
        <time>2011-01-23T10:31:27Z</time>
      </trkpt>
      <trkpt lat="49.19209" lon="6.97088">
        <ele>294</ele>
        <time>2011-01-23T10:31:28Z</time>
      </trkpt>
      <trkpt lat="49.1921" lon="6.97087">
        <ele>294</ele>
        <time>2011-01-23T10:31:29Z</time>
      </trkpt>
      <trkpt lat="49.19211" lon="6.97085">
        <ele>294</ele>
        <time>2011-01-23T10:31:30Z</time>
      </trkpt>
      <trkpt lat="49.19212" lon="6.97082">
        <ele>294</ele>
        <time>2011-01-23T10:31:32Z</time>
      </trkpt>
      <trkpt lat="49.19213" lon="6.97079">
        <ele>295</ele>
        <time>2011-01-23T10:31:34Z</time>
      </trkpt>
      <trkpt lat="49.19214" lon="6.97077">
        <ele>295</ele>
        <time>2011-01-23T10:31:35Z</time>
      </trkpt>
      <trkpt lat="49.19215" lon="6.97075">
        <ele>295</ele>
        <time>2011-01-23T10:31:37Z</time>
      </trkpt>
      <trkpt lat="49.19216" lon="6.97072">
        <ele>295</ele>
        <time>2011-01-23T10:31:39Z</time>
      </trkpt>
      <trkpt lat="49.19217" lon="6.9707">
        <ele>295</ele>
        <time>2011-01-23T10:31:40Z</time>
      </trkpt>
      <trkpt lat="49.19219" lon="6.97066">
        <ele>295</ele>
        <time>2011-01-23T10:31:42Z</time>
      </trkpt>
      <trkpt lat="49.19219" lon="6.97064">
        <ele>295</ele>
        <time>2011-01-23T10:31:43Z</time>
      </trkpt>
      <trkpt lat="49.1922" lon="6.97062">
        <ele>295</ele>
        <time>2011-01-23T10:31:44Z</time>
      </trkpt>
      <trkpt lat="49.1922" lon="6.97061">
        <ele>295</ele>
        <time>2011-01-23T10:31:45Z</time>
      </trkpt>
      <trkpt lat="49.1922" lon="6.97059">
        <ele>295</ele>
        <time>2011-01-23T10:31:46Z</time>
      </trkpt>
      <trkpt lat="49.1922" lon="6.97056">
        <ele>295</ele>
        <time>2011-01-23T10:31:47Z</time>
      </trkpt>
      <trkpt lat="49.1922" lon="6.97055">
        <ele>295</ele>
        <time>2011-01-23T10:31:48Z</time>
      </trkpt>
      <trkpt lat="49.1922" lon="6.97052">
        <ele>295</ele>
        <time>2011-01-23T10:31:49Z</time>
      </trkpt>
      <trkpt lat="49.1922" lon="6.97051">
        <ele>295</ele>
        <time>2011-01-23T10:31:50Z</time>
      </trkpt>
      <trkpt lat="49.19221" lon="6.97048">
        <ele>295</ele>
        <time>2011-01-23T10:31:52Z</time>
      </trkpt>
      <trkpt lat="49.19222" lon="6.97045">
        <ele>295</ele>
        <time>2011-01-23T10:31:54Z</time>
      </trkpt>
      <trkpt lat="49.19222" lon="6.97043">
        <ele>295</ele>
        <time>2011-01-23T10:31:55Z</time>
      </trkpt>
      <trkpt lat="49.19222" lon="6.97041">
        <ele>295</ele>
        <time>2011-01-23T10:31:56Z</time>
      </trkpt>
      <trkpt lat="49.19222" lon="6.97039">
        <ele>295</ele>
        <time>2011-01-23T10:31:57Z</time>
      </trkpt>
      <trkpt lat="49.19223" lon="6.97037">
        <ele>295</ele>
        <time>2011-01-23T10:31:58Z</time>
      </trkpt>
      <trkpt lat="49.19223" lon="6.97036">
        <ele>295</ele>
        <time>2011-01-23T10:31:59Z</time>
      </trkpt>
      <trkpt lat="49.19224" lon="6.97034">
        <ele>295</ele>
        <time>2011-01-23T10:32:00Z</time>
      </trkpt>
      <trkpt lat="49.19224" lon="6.97032">
        <ele>295</ele>
        <time>2011-01-23T10:32:01Z</time>
      </trkpt>
      <trkpt lat="49.19224" lon="6.9703">
        <ele>295</ele>
        <time>2011-01-23T10:32:02Z</time>
      </trkpt>
      <trkpt lat="49.19225" lon="6.97028">
        <ele>295</ele>
        <time>2011-01-23T10:32:03Z</time>
      </trkpt>
      <trkpt lat="49.19225" lon="6.97026">
        <ele>295</ele>
        <time>2011-01-23T10:32:04Z</time>
      </trkpt>
      <trkpt lat="49.19225" lon="6.97024">
        <ele>295</ele>
        <time>2011-01-23T10:32:05Z</time>
      </trkpt>
      <trkpt lat="49.19225" lon="6.97023">
        <ele>295</ele>
        <time>2011-01-23T10:32:06Z</time>
      </trkpt>
      <trkpt lat="49.19225" lon="6.97021">
        <ele>295</ele>
        <time>2011-01-23T10:32:07Z</time>
      </trkpt>
      <trkpt lat="49.19226" lon="6.97019">
        <ele>295</ele>
        <time>2011-01-23T10:32:08Z</time>
      </trkpt>
      <trkpt lat="49.19226" lon="6.97017">
        <ele>295</ele>
        <time>2011-01-23T10:32:09Z</time>
      </trkpt>
      <trkpt lat="49.19226" lon="6.97015">
        <ele>295</ele>
        <time>2011-01-23T10:32:10Z</time>
      </trkpt>
      <trkpt lat="49.19226" lon="6.97013">
        <ele>295</ele>
        <time>2011-01-23T10:32:11Z</time>
      </trkpt>
      <trkpt lat="49.19226" lon="6.97012">
        <ele>295</ele>
        <time>2011-01-23T10:32:12Z</time>
      </trkpt>
      <trkpt lat="49.19226" lon="6.9701">
        <ele>295</ele>
        <time>2011-01-23T10:32:13Z</time>
      </trkpt>
      <trkpt lat="49.19226" lon="6.97008">
        <ele>295</ele>
        <time>2011-01-23T10:32:14Z</time>
      </trkpt>
      <trkpt lat="49.19225" lon="6.97006">
        <ele>295</ele>
        <time>2011-01-23T10:32:15Z</time>
      </trkpt>
      <trkpt lat="49.19225" lon="6.97004">
        <ele>295</ele>
        <time>2011-01-23T10:32:16Z</time>
      </trkpt>
      <trkpt lat="49.19225" lon="6.97002">
        <ele>295</ele>
        <time>2011-01-23T10:32:17Z</time>
      </trkpt>
      <trkpt lat="49.19226" lon="6.97">
        <ele>295</ele>
        <time>2011-01-23T10:32:18Z</time>
      </trkpt>
      <trkpt lat="49.19226" lon="6.96998">
        <ele>295</ele>
        <time>2011-01-23T10:32:19Z</time>
      </trkpt>
      <trkpt lat="49.19226" lon="6.96996">
        <ele>295</ele>
        <time>2011-01-23T10:32:20Z</time>
      </trkpt>
      <trkpt lat="49.19227" lon="6.96995">
        <ele>295</ele>
        <time>2011-01-23T10:32:21Z</time>
      </trkpt>
      <trkpt lat="49.19227" lon="6.96993">
        <ele>295</ele>
        <time>2011-01-23T10:32:22Z</time>
      </trkpt>
      <trkpt lat="49.19227" lon="6.9699">
        <ele>295</ele>
        <time>2011-01-23T10:32:24Z</time>
      </trkpt>
      <trkpt lat="49.19227" lon="6.96989">
        <ele>295</ele>
        <time>2011-01-23T10:32:25Z</time>
      </trkpt>
      <trkpt lat="49.19227" lon="6.96987">
        <ele>295</ele>
        <time>2011-01-23T10:32:26Z</time>
      </trkpt>
      <trkpt lat="49.19227" lon="6.96984">
        <ele>295</ele>
        <time>2011-01-23T10:32:28Z</time>
      </trkpt>
      <trkpt lat="49.19227" lon="6.96983">
        <ele>295</ele>
        <time>2011-01-23T10:32:30Z</time>
      </trkpt>
      <trkpt lat="49.19227" lon="6.96981">
        <ele>296</ele>
        <time>2011-01-23T10:32:47Z</time>
      </trkpt>
      <trkpt lat="49.19226" lon="6.96979">
        <ele>296</ele>
        <time>2011-01-23T10:32:51Z</time>
      </trkpt>
      <trkpt lat="49.19227" lon="6.96977">
        <ele>296</ele>
        <time>2011-01-23T10:32:52Z</time>
      </trkpt>
      <trkpt lat="49.19228" lon="6.96974">
        <ele>296</ele>
        <time>2011-01-23T10:32:54Z</time>
      </trkpt>
      <trkpt lat="49.19229" lon="6.96972">
        <ele>296</ele>
        <time>2011-01-23T10:32:56Z</time>
      </trkpt>
      <trkpt lat="49.19228" lon="6.9697">
        <ele>296</ele>
        <time>2011-01-23T10:32:57Z</time>
      </trkpt>
      <trkpt lat="49.19228" lon="6.96968">
        <ele>297</ele>
        <time>2011-01-23T10:32:58Z</time>
      </trkpt>
      <trkpt lat="49.19229" lon="6.96965">
        <ele>297</ele>
        <time>2011-01-23T10:33:00Z</time>
      </trkpt>
      <trkpt lat="49.1923" lon="6.96962">
        <ele>297</ele>
        <time>2011-01-23T10:33:02Z</time>
      </trkpt>
      <trkpt lat="49.1923" lon="6.9696">
        <ele>297</ele>
        <time>2011-01-23T10:33:04Z</time>
      </trkpt>
      <trkpt lat="49.19231" lon="6.96958">
        <ele>297</ele>
        <time>2011-01-23T10:33:06Z</time>
      </trkpt>
      <trkpt lat="49.19232" lon="6.96956">
        <ele>297</ele>
        <time>2011-01-23T10:33:08Z</time>
      </trkpt>
      <trkpt lat="49.19233" lon="6.96954">
        <ele>298</ele>
        <time>2011-01-23T10:33:10Z</time>
      </trkpt>
      <trkpt lat="49.19234" lon="6.96951">
        <ele>299</ele>
        <time>2011-01-23T10:33:12Z</time>
      </trkpt>
      <trkpt lat="49.19235" lon="6.96949">
        <ele>299</ele>
        <time>2011-01-23T10:33:13Z</time>
      </trkpt>
      <trkpt lat="49.19236" lon="6.96948">
        <ele>300</ele>
        <time>2011-01-23T10:33:14Z</time>
      </trkpt>
      <trkpt lat="49.19238" lon="6.96945">
        <ele>300</ele>
        <time>2011-01-23T10:33:16Z</time>
      </trkpt>
      <trkpt lat="49.19238" lon="6.96941">
        <ele>301</ele>
        <time>2011-01-23T10:33:18Z</time>
      </trkpt>
      <trkpt lat="49.19238" lon="6.96939">
        <ele>301</ele>
        <time>2011-01-23T10:33:19Z</time>
      </trkpt>
      <trkpt lat="49.19237" lon="6.96937">
        <ele>301</ele>
        <time>2011-01-23T10:33:20Z</time>
      </trkpt>
      <trkpt lat="49.19239" lon="6.96934">
        <ele>301</ele>
        <time>2011-01-23T10:33:22Z</time>
      </trkpt>
      <trkpt lat="49.1924" lon="6.96931">
        <ele>301</ele>
        <time>2011-01-23T10:33:24Z</time>
      </trkpt>
      <trkpt lat="49.1924" lon="6.96927">
        <ele>301</ele>
        <time>2011-01-23T10:33:26Z</time>
      </trkpt>
      <trkpt lat="49.1924" lon="6.96926">
        <ele>301</ele>
        <time>2011-01-23T10:33:27Z</time>
      </trkpt>
      <trkpt lat="49.19241" lon="6.96924">
        <ele>301</ele>
        <time>2011-01-23T10:33:28Z</time>
      </trkpt>
      <trkpt lat="49.19241" lon="6.96922">
        <ele>301</ele>
        <time>2011-01-23T10:33:29Z</time>
      </trkpt>
      <trkpt lat="49.19242" lon="6.9692">
        <ele>301</ele>
        <time>2011-01-23T10:33:30Z</time>
      </trkpt>
      <trkpt lat="49.19242" lon="6.96918">
        <ele>301</ele>
        <time>2011-01-23T10:33:31Z</time>
      </trkpt>
      <trkpt lat="49.19242" lon="6.96917">
        <ele>301</ele>
        <time>2011-01-23T10:33:32Z</time>
      </trkpt>
      <trkpt lat="49.19242" lon="6.96915">
        <ele>301</ele>
        <time>2011-01-23T10:33:33Z</time>
      </trkpt>
      <trkpt lat="49.19243" lon="6.96913">
        <ele>301</ele>
        <time>2011-01-23T10:33:34Z</time>
      </trkpt>
      <trkpt lat="49.19244" lon="6.96912">
        <ele>301</ele>
        <time>2011-01-23T10:33:35Z</time>
      </trkpt>
      <trkpt lat="49.19244" lon="6.9691">
        <ele>301</ele>
        <time>2011-01-23T10:33:36Z</time>
      </trkpt>
      <trkpt lat="49.19244" lon="6.96908">
        <ele>301</ele>
        <time>2011-01-23T10:33:37Z</time>
      </trkpt>
      <trkpt lat="49.19245" lon="6.96906">
        <ele>301</ele>
        <time>2011-01-23T10:33:38Z</time>
      </trkpt>
      <trkpt lat="49.19246" lon="6.96904">
        <ele>301</ele>
        <time>2011-01-23T10:33:40Z</time>
      </trkpt>
      <trkpt lat="49.19247" lon="6.96902">
        <ele>301</ele>
        <time>2011-01-23T10:33:42Z</time>
      </trkpt>
      <trkpt lat="49.19247" lon="6.969">
        <ele>301</ele>
        <time>2011-01-23T10:33:44Z</time>
      </trkpt>
      <trkpt lat="49.19248" lon="6.96898">
        <ele>301</ele>
        <time>2011-01-23T10:33:46Z</time>
      </trkpt>
      <trkpt lat="49.19248" lon="6.96895">
        <ele>301</ele>
        <time>2011-01-23T10:33:48Z</time>
      </trkpt>
      <trkpt lat="49.19247" lon="6.96892">
        <ele>301</ele>
        <time>2011-01-23T10:33:50Z</time>
      </trkpt>
      <trkpt lat="49.19247" lon="6.9689">
        <ele>301</ele>
        <time>2011-01-23T10:33:51Z</time>
      </trkpt>
      <trkpt lat="49.19246" lon="6.96889">
        <ele>301</ele>
        <time>2011-01-23T10:33:52Z</time>
      </trkpt>
      <trkpt lat="49.19244" lon="6.96888">
        <ele>301</ele>
        <time>2011-01-23T10:33:54Z</time>
      </trkpt>
      <trkpt lat="49.19242" lon="6.96886">
        <ele>301</ele>
        <time>2011-01-23T10:33:56Z</time>
      </trkpt>
      <trkpt lat="49.19241" lon="6.96885">
        <ele>301</ele>
        <time>2011-01-23T10:33:58Z</time>
      </trkpt>
      <trkpt lat="49.19238" lon="6.96884">
        <ele>301</ele>
        <time>2011-01-23T10:34:00Z</time>
      </trkpt>
      <trkpt lat="49.19237" lon="6.96884">
        <ele>301</ele>
        <time>2011-01-23T10:34:01Z</time>
      </trkpt>
      <trkpt lat="49.19235" lon="6.96881">
        <ele>301</ele>
        <time>2011-01-23T10:34:03Z</time>
      </trkpt>
      <trkpt lat="49.19233" lon="6.96878">
        <ele>301</ele>
        <time>2011-01-23T10:34:05Z</time>
      </trkpt>
      <trkpt lat="49.19231" lon="6.96876">
        <ele>301</ele>
        <time>2011-01-23T10:34:07Z</time>
      </trkpt>
      <trkpt lat="49.1923" lon="6.96875">
        <ele>301</ele>
        <time>2011-01-23T10:34:08Z</time>
      </trkpt>
      <trkpt lat="49.19229" lon="6.96875">
        <ele>301</ele>
        <time>2011-01-23T10:34:09Z</time>
      </trkpt>
      <trkpt lat="49.19228" lon="6.96874">
        <ele>301</ele>
        <time>2011-01-23T10:34:10Z</time>
      </trkpt>
      <trkpt lat="49.19226" lon="6.96872">
        <ele>301</ele>
        <time>2011-01-23T10:34:11Z</time>
      </trkpt>
      <trkpt lat="49.19224" lon="6.96871">
        <ele>301</ele>
        <time>2011-01-23T10:34:12Z</time>
      </trkpt>
      <trkpt lat="49.19223" lon="6.96869">
        <ele>301</ele>
        <time>2011-01-23T10:34:13Z</time>
      </trkpt>
      <trkpt lat="49.19221" lon="6.96868">
        <ele>302</ele>
        <time>2011-01-23T10:34:14Z</time>
      </trkpt>
      <trkpt lat="49.1922" lon="6.96867">
        <ele>302</ele>
        <time>2011-01-23T10:34:15Z</time>
      </trkpt>
      <trkpt lat="49.19218" lon="6.96866">
        <ele>303</ele>
        <time>2011-01-23T10:34:16Z</time>
      </trkpt>
      <trkpt lat="49.19215" lon="6.96863">
        <ele>304</ele>
        <time>2011-01-23T10:34:18Z</time>
      </trkpt>
      <trkpt lat="49.19214" lon="6.96862">
        <ele>305</ele>
        <time>2011-01-23T10:34:20Z</time>
      </trkpt>
      <trkpt lat="49.19212" lon="6.96861">
        <ele>307</ele>
        <time>2011-01-23T10:34:22Z</time>
      </trkpt>
      <trkpt lat="49.19211" lon="6.9686">
        <ele>307</ele>
        <time>2011-01-23T10:34:23Z</time>
      </trkpt>
      <trkpt lat="49.1921" lon="6.9686">
        <ele>307</ele>
        <time>2011-01-23T10:34:24Z</time>
      </trkpt>
      <trkpt lat="49.19209" lon="6.96859">
        <ele>307</ele>
        <time>2011-01-23T10:34:25Z</time>
      </trkpt>
      <trkpt lat="49.19207" lon="6.96857">
        <ele>308</ele>
        <time>2011-01-23T10:34:27Z</time>
      </trkpt>
      <trkpt lat="49.19205" lon="6.96856">
        <ele>308</ele>
        <time>2011-01-23T10:34:28Z</time>
      </trkpt>
      <trkpt lat="49.19204" lon="6.96856">
        <ele>309</ele>
        <time>2011-01-23T10:34:29Z</time>
      </trkpt>
      <trkpt lat="49.19202" lon="6.96855">
        <ele>309</ele>
        <time>2011-01-23T10:34:30Z</time>
      </trkpt>
      <trkpt lat="49.192" lon="6.96854">
        <ele>310</ele>
        <time>2011-01-23T10:34:32Z</time>
      </trkpt>
      <trkpt lat="49.19198" lon="6.96852">
        <ele>311</ele>
        <time>2011-01-23T10:34:34Z</time>
      </trkpt>
      <trkpt lat="49.19197" lon="6.96851">
        <ele>312</ele>
        <time>2011-01-23T10:34:36Z</time>
      </trkpt>
      <trkpt lat="49.19194" lon="6.9685">
        <ele>312</ele>
        <time>2011-01-23T10:34:38Z</time>
      </trkpt>
      <trkpt lat="49.19193" lon="6.96849">
        <ele>312</ele>
        <time>2011-01-23T10:34:39Z</time>
      </trkpt>
      <trkpt lat="49.19191" lon="6.96848">
        <ele>312</ele>
        <time>2011-01-23T10:34:41Z</time>
      </trkpt>
      <trkpt lat="49.1919" lon="6.96846">
        <ele>314</ele>
        <time>2011-01-23T10:34:48Z</time>
      </trkpt>
      <trkpt lat="49.19189" lon="6.96846">
        <ele>314</ele>
        <time>2011-01-23T10:34:53Z</time>
      </trkpt>
      <trkpt lat="49.19187" lon="6.96845">
        <ele>314</ele>
        <time>2011-01-23T10:34:55Z</time>
      </trkpt>
      <trkpt lat="49.19185" lon="6.96845">
        <ele>314</ele>
        <time>2011-01-23T10:34:57Z</time>
      </trkpt>
      <trkpt lat="49.19184" lon="6.96844">
        <ele>314</ele>
        <time>2011-01-23T10:34:59Z</time>
      </trkpt>
      <trkpt lat="49.19183" lon="6.96843">
        <ele>314</ele>
        <time>2011-01-23T10:35:01Z</time>
      </trkpt>
      <trkpt lat="49.19181" lon="6.96842">
        <ele>314</ele>
        <time>2011-01-23T10:35:03Z</time>
      </trkpt>
      <trkpt lat="49.1918" lon="6.96841">
        <ele>314</ele>
        <time>2011-01-23T10:35:04Z</time>
      </trkpt>
      <trkpt lat="49.19178" lon="6.96841">
        <ele>314</ele>
        <time>2011-01-23T10:35:06Z</time>
      </trkpt>
      <trkpt lat="49.19177" lon="6.9684">
        <ele>314</ele>
        <time>2011-01-23T10:35:08Z</time>
      </trkpt>
      <trkpt lat="49.19175" lon="6.96839">
        <ele>313</ele>
        <time>2011-01-23T10:35:10Z</time>
      </trkpt>
      <trkpt lat="49.19174" lon="6.96837">
        <ele>311</ele>
        <time>2011-01-23T10:35:12Z</time>
      </trkpt>
      <trkpt lat="49.19172" lon="6.96835">
        <ele>310</ele>
        <time>2011-01-23T10:35:14Z</time>
      </trkpt>
      <trkpt lat="49.19171" lon="6.96833">
        <ele>309</ele>
        <time>2011-01-23T10:35:16Z</time>
      </trkpt>
      <trkpt lat="49.1917" lon="6.9683">
        <ele>308</ele>
        <time>2011-01-23T10:35:18Z</time>
      </trkpt>
      <trkpt lat="49.19169" lon="6.96827">
        <ele>308</ele>
        <time>2011-01-23T10:35:20Z</time>
      </trkpt>
      <trkpt lat="49.19167" lon="6.96824">
        <ele>307</ele>
        <time>2011-01-23T10:35:22Z</time>
      </trkpt>
      <trkpt lat="49.19166" lon="6.96822">
        <ele>307</ele>
        <time>2011-01-23T10:35:24Z</time>
      </trkpt>
      <trkpt lat="49.19165" lon="6.96819">
        <ele>307</ele>
        <time>2011-01-23T10:35:26Z</time>
      </trkpt>
      <trkpt lat="49.19164" lon="6.96818">
        <ele>306</ele>
        <time>2011-01-23T10:35:27Z</time>
      </trkpt>
      <trkpt lat="49.19162" lon="6.96815">
        <ele>306</ele>
        <time>2011-01-23T10:35:29Z</time>
      </trkpt>
      <trkpt lat="49.19161" lon="6.96812">
        <ele>305</ele>
        <time>2011-01-23T10:35:31Z</time>
      </trkpt>
      <trkpt lat="49.1916" lon="6.9681">
        <ele>305</ele>
        <time>2011-01-23T10:35:32Z</time>
      </trkpt>
      <trkpt lat="49.19159" lon="6.96809">
        <ele>304</ele>
        <time>2011-01-23T10:35:33Z</time>
      </trkpt>
      <trkpt lat="49.19157" lon="6.96806">
        <ele>304</ele>
        <time>2011-01-23T10:35:35Z</time>
      </trkpt>
      <trkpt lat="49.19156" lon="6.96804">
        <ele>304</ele>
        <time>2011-01-23T10:35:37Z</time>
      </trkpt>
      <trkpt lat="49.19154" lon="6.96801">
        <ele>304</ele>
        <time>2011-01-23T10:35:39Z</time>
      </trkpt>
      <trkpt lat="49.19152" lon="6.96798">
        <ele>304</ele>
        <time>2011-01-23T10:35:41Z</time>
      </trkpt>
      <trkpt lat="49.19151" lon="6.96795">
        <ele>304</ele>
        <time>2011-01-23T10:35:43Z</time>
      </trkpt>
      <trkpt lat="49.19149" lon="6.96793">
        <ele>303</ele>
        <time>2011-01-23T10:35:45Z</time>
      </trkpt>
      <trkpt lat="49.19148" lon="6.96789">
        <ele>303</ele>
        <time>2011-01-23T10:35:47Z</time>
      </trkpt>
      <trkpt lat="49.19147" lon="6.96786">
        <ele>303</ele>
        <time>2011-01-23T10:35:49Z</time>
      </trkpt>
      <trkpt lat="49.19145" lon="6.96784">
        <ele>303</ele>
        <time>2011-01-23T10:35:51Z</time>
      </trkpt>
      <trkpt lat="49.19144" lon="6.96781">
        <ele>303</ele>
        <time>2011-01-23T10:35:53Z</time>
      </trkpt>
      <trkpt lat="49.19143" lon="6.96779">
        <ele>303</ele>
        <time>2011-01-23T10:35:54Z</time>
      </trkpt>
      <trkpt lat="49.19142" lon="6.96777">
        <ele>303</ele>
        <time>2011-01-23T10:35:55Z</time>
      </trkpt>
      <trkpt lat="49.19141" lon="6.96776">
        <ele>303</ele>
        <time>2011-01-23T10:35:56Z</time>
      </trkpt>
      <trkpt lat="49.19141" lon="6.96774">
        <ele>303</ele>
        <time>2011-01-23T10:35:57Z</time>
      </trkpt>
      <trkpt lat="49.19139" lon="6.96771">
        <ele>303</ele>
        <time>2011-01-23T10:35:59Z</time>
      </trkpt>
      <trkpt lat="49.19138" lon="6.96768">
        <ele>303</ele>
        <time>2011-01-23T10:36:01Z</time>
      </trkpt>
      <trkpt lat="49.19138" lon="6.96766">
        <ele>303</ele>
        <time>2011-01-23T10:36:02Z</time>
      </trkpt>
      <trkpt lat="49.19138" lon="6.96764">
        <ele>303</ele>
        <time>2011-01-23T10:36:03Z</time>
      </trkpt>
      <trkpt lat="49.19136" lon="6.96761">
        <ele>303</ele>
        <time>2011-01-23T10:36:05Z</time>
      </trkpt>
      <trkpt lat="49.19135" lon="6.96758">
        <ele>303</ele>
        <time>2011-01-23T10:36:07Z</time>
      </trkpt>
      <trkpt lat="49.19134" lon="6.96755">
        <ele>303</ele>
        <time>2011-01-23T10:36:09Z</time>
      </trkpt>
      <trkpt lat="49.19134" lon="6.96753">
        <ele>303</ele>
        <time>2011-01-23T10:36:10Z</time>
      </trkpt>
      <trkpt lat="49.19133" lon="6.96751">
        <ele>303</ele>
        <time>2011-01-23T10:36:12Z</time>
      </trkpt>
      <trkpt lat="49.19133" lon="6.96749">
        <ele>303</ele>
        <time>2011-01-23T10:36:20Z</time>
      </trkpt>
      <trkpt lat="49.19133" lon="6.96747">
        <ele>303</ele>
        <time>2011-01-23T10:36:22Z</time>
      </trkpt>
      <trkpt lat="49.19133" lon="6.96745">
        <ele>303</ele>
        <time>2011-01-23T10:36:25Z</time>
      </trkpt>
      <trkpt lat="49.19133" lon="6.96743">
        <ele>303</ele>
        <time>2011-01-23T10:36:40Z</time>
      </trkpt>
      <trkpt lat="49.19133" lon="6.96741">
        <ele>303</ele>
        <time>2011-01-23T10:36:46Z</time>
      </trkpt>
      <trkpt lat="49.19133" lon="6.96739">
        <ele>303</ele>
        <time>2011-01-23T10:36:48Z</time>
      </trkpt>
      <trkpt lat="49.19134" lon="6.96737">
        <ele>303</ele>
        <time>2011-01-23T10:36:51Z</time>
      </trkpt>
      <trkpt lat="49.19134" lon="6.96735">
        <ele>303</ele>
        <time>2011-01-23T10:37:03Z</time>
      </trkpt>
      <trkpt lat="49.19134" lon="6.96732">
        <ele>303</ele>
        <time>2011-01-23T10:37:05Z</time>
      </trkpt>
      <trkpt lat="49.19134" lon="6.9673">
        <ele>303</ele>
        <time>2011-01-23T10:37:06Z</time>
      </trkpt>
      <trkpt lat="49.19135" lon="6.96727">
        <ele>303</ele>
        <time>2011-01-23T10:37:08Z</time>
      </trkpt>
      <trkpt lat="49.19135" lon="6.96725">
        <ele>303</ele>
        <time>2011-01-23T10:37:09Z</time>
      </trkpt>
      <trkpt lat="49.19135" lon="6.96723">
        <ele>303</ele>
        <time>2011-01-23T10:37:10Z</time>
      </trkpt>
      <trkpt lat="49.19135" lon="6.96721">
        <ele>303</ele>
        <time>2011-01-23T10:37:11Z</time>
      </trkpt>
      <trkpt lat="49.19135" lon="6.96719">
        <ele>303</ele>
        <time>2011-01-23T10:37:12Z</time>
      </trkpt>
      <trkpt lat="49.19135" lon="6.96718">
        <ele>303</ele>
        <time>2011-01-23T10:37:13Z</time>
      </trkpt>
      <trkpt lat="49.19135" lon="6.96715">
        <ele>303</ele>
        <time>2011-01-23T10:37:15Z</time>
      </trkpt>
      <trkpt lat="49.19135" lon="6.96712">
        <ele>303</ele>
        <time>2011-01-23T10:37:17Z</time>
      </trkpt>
      <trkpt lat="49.19135" lon="6.9671">
        <ele>303</ele>
        <time>2011-01-23T10:37:18Z</time>
      </trkpt>
      <trkpt lat="49.19135" lon="6.96707">
        <ele>303</ele>
        <time>2011-01-23T10:37:19Z</time>
      </trkpt>
      <trkpt lat="49.19135" lon="6.96706">
        <ele>303</ele>
        <time>2011-01-23T10:37:20Z</time>
      </trkpt>
      <trkpt lat="49.19135" lon="6.96704">
        <ele>303</ele>
        <time>2011-01-23T10:37:21Z</time>
      </trkpt>
      <trkpt lat="49.19135" lon="6.96702">
        <ele>303</ele>
        <time>2011-01-23T10:37:22Z</time>
      </trkpt>
      <trkpt lat="49.19135" lon="6.967">
        <ele>303</ele>
        <time>2011-01-23T10:37:23Z</time>
      </trkpt>
      <trkpt lat="49.19135" lon="6.96698">
        <ele>303</ele>
        <time>2011-01-23T10:37:24Z</time>
      </trkpt>
      <trkpt lat="49.19135" lon="6.96696">
        <ele>303</ele>
        <time>2011-01-23T10:37:25Z</time>
      </trkpt>
      <trkpt lat="49.19135" lon="6.96694">
        <ele>303</ele>
        <time>2011-01-23T10:37:26Z</time>
      </trkpt>
      <trkpt lat="49.19136" lon="6.96692">
        <ele>303</ele>
        <time>2011-01-23T10:37:27Z</time>
      </trkpt>
      <trkpt lat="49.19136" lon="6.9669">
        <ele>303</ele>
        <time>2011-01-23T10:37:28Z</time>
      </trkpt>
      <trkpt lat="49.19137" lon="6.96688">
        <ele>303</ele>
        <time>2011-01-23T10:37:29Z</time>
      </trkpt>
      <trkpt lat="49.19137" lon="6.96686">
        <ele>303</ele>
        <time>2011-01-23T10:37:30Z</time>
      </trkpt>
      <trkpt lat="49.19137" lon="6.96684">
        <ele>303</ele>
        <time>2011-01-23T10:37:31Z</time>
      </trkpt>
      <trkpt lat="49.19138" lon="6.96682">
        <ele>303</ele>
        <time>2011-01-23T10:37:32Z</time>
      </trkpt>
      <trkpt lat="49.19138" lon="6.96681">
        <ele>303</ele>
        <time>2011-01-23T10:37:33Z</time>
      </trkpt>
      <trkpt lat="49.19138" lon="6.96679">
        <ele>303</ele>
        <time>2011-01-23T10:37:34Z</time>
      </trkpt>
      <trkpt lat="49.19138" lon="6.96677">
        <ele>303</ele>
        <time>2011-01-23T10:37:35Z</time>
      </trkpt>
      <trkpt lat="49.19138" lon="6.96676">
        <ele>303</ele>
        <time>2011-01-23T10:37:36Z</time>
      </trkpt>
      <trkpt lat="49.19139" lon="6.96674">
        <ele>303</ele>
        <time>2011-01-23T10:37:37Z</time>
      </trkpt>
      <trkpt lat="49.19139" lon="6.96672">
        <ele>303</ele>
        <time>2011-01-23T10:37:38Z</time>
      </trkpt>
      <trkpt lat="49.1914" lon="6.9667">
        <ele>303</ele>
        <time>2011-01-23T10:37:39Z</time>
      </trkpt>
      <trkpt lat="49.19141" lon="6.96669">
        <ele>303</ele>
        <time>2011-01-23T10:37:40Z</time>
      </trkpt>
      <trkpt lat="49.19142" lon="6.96667">
        <ele>303</ele>
        <time>2011-01-23T10:37:41Z</time>
      </trkpt>
      <trkpt lat="49.19142" lon="6.96665">
        <ele>303</ele>
        <time>2011-01-23T10:37:42Z</time>
      </trkpt>
      <trkpt lat="49.19143" lon="6.96663">
        <ele>303</ele>
        <time>2011-01-23T10:37:43Z</time>
      </trkpt>
      <trkpt lat="49.19144" lon="6.96661">
        <ele>303</ele>
        <time>2011-01-23T10:37:44Z</time>
      </trkpt>
      <trkpt lat="49.19144" lon="6.96659">
        <ele>303</ele>
        <time>2011-01-23T10:37:45Z</time>
      </trkpt>
      <trkpt lat="49.19145" lon="6.96658">
        <ele>303</ele>
        <time>2011-01-23T10:37:46Z</time>
      </trkpt>
      <trkpt lat="49.19145" lon="6.96656">
        <ele>303</ele>
        <time>2011-01-23T10:37:47Z</time>
      </trkpt>
      <trkpt lat="49.19146" lon="6.96654">
        <ele>303</ele>
        <time>2011-01-23T10:37:48Z</time>
      </trkpt>
      <trkpt lat="49.19146" lon="6.96652">
        <ele>303</ele>
        <time>2011-01-23T10:37:49Z</time>
      </trkpt>
      <trkpt lat="49.19147" lon="6.9665">
        <ele>303</ele>
        <time>2011-01-23T10:37:50Z</time>
      </trkpt>
      <trkpt lat="49.19147" lon="6.96648">
        <ele>303</ele>
        <time>2011-01-23T10:37:51Z</time>
      </trkpt>
      <trkpt lat="49.19148" lon="6.96647">
        <ele>303</ele>
        <time>2011-01-23T10:37:52Z</time>
      </trkpt>
      <trkpt lat="49.19149" lon="6.96645">
        <ele>303</ele>
        <time>2011-01-23T10:37:53Z</time>
      </trkpt>
      <trkpt lat="49.19149" lon="6.96643">
        <ele>303</ele>
        <time>2011-01-23T10:37:54Z</time>
      </trkpt>
      <trkpt lat="49.1915" lon="6.96641">
        <ele>303</ele>
        <time>2011-01-23T10:37:55Z</time>
      </trkpt>
      <trkpt lat="49.19151" lon="6.96638">
        <ele>303</ele>
        <time>2011-01-23T10:37:57Z</time>
      </trkpt>
      <trkpt lat="49.19151" lon="6.96636">
        <ele>303</ele>
        <time>2011-01-23T10:37:58Z</time>
      </trkpt>
      <trkpt lat="49.1915" lon="6.96634">
        <ele>303</ele>
        <time>2011-01-23T10:37:59Z</time>
      </trkpt>
      <trkpt lat="49.19149" lon="6.96631">
        <ele>303</ele>
        <time>2011-01-23T10:38:00Z</time>
      </trkpt>
      <trkpt lat="49.19148" lon="6.9663">
        <ele>303</ele>
        <time>2011-01-23T10:38:01Z</time>
      </trkpt>
      <trkpt lat="49.19146" lon="6.96627">
        <ele>303</ele>
        <time>2011-01-23T10:38:03Z</time>
      </trkpt>
      <trkpt lat="49.19146" lon="6.96625">
        <ele>303</ele>
        <time>2011-01-23T10:38:04Z</time>
      </trkpt>
      <trkpt lat="49.19145" lon="6.96623">
        <ele>303</ele>
        <time>2011-01-23T10:38:05Z</time>
      </trkpt>
      <trkpt lat="49.19144" lon="6.96621">
        <ele>303</ele>
        <time>2011-01-23T10:38:06Z</time>
      </trkpt>
      <trkpt lat="49.19145" lon="6.96619">
        <ele>303</ele>
        <time>2011-01-23T10:38:07Z</time>
      </trkpt>
      <trkpt lat="49.19145" lon="6.96618">
        <ele>303</ele>
        <time>2011-01-23T10:38:08Z</time>
      </trkpt>
      <trkpt lat="49.19145" lon="6.96616">
        <ele>303</ele>
        <time>2011-01-23T10:38:09Z</time>
      </trkpt>
      <trkpt lat="49.19145" lon="6.96614">
        <ele>303</ele>
        <time>2011-01-23T10:38:10Z</time>
      </trkpt>
      <trkpt lat="49.19145" lon="6.96612">
        <ele>303</ele>
        <time>2011-01-23T10:38:11Z</time>
      </trkpt>
      <trkpt lat="49.19146" lon="6.9661">
        <ele>303</ele>
        <time>2011-01-23T10:38:12Z</time>
      </trkpt>
      <trkpt lat="49.19146" lon="6.96609">
        <ele>303</ele>
        <time>2011-01-23T10:38:13Z</time>
      </trkpt>
      <trkpt lat="49.19146" lon="6.96607">
        <ele>303</ele>
        <time>2011-01-23T10:38:14Z</time>
      </trkpt>
      <trkpt lat="49.19146" lon="6.96605">
        <ele>303</ele>
        <time>2011-01-23T10:38:15Z</time>
      </trkpt>
      <trkpt lat="49.19147" lon="6.96603">
        <ele>303</ele>
        <time>2011-01-23T10:38:16Z</time>
      </trkpt>
      <trkpt lat="49.19147" lon="6.96601">
        <ele>303</ele>
        <time>2011-01-23T10:38:17Z</time>
      </trkpt>
      <trkpt lat="49.19147" lon="6.96599">
        <ele>303</ele>
        <time>2011-01-23T10:38:18Z</time>
      </trkpt>
      <trkpt lat="49.19147" lon="6.96597">
        <ele>303</ele>
        <time>2011-01-23T10:38:19Z</time>
      </trkpt>
      <trkpt lat="49.19147" lon="6.96595">
        <ele>303</ele>
        <time>2011-01-23T10:38:20Z</time>
      </trkpt>
      <trkpt lat="49.19147" lon="6.96594">
        <ele>303</ele>
        <time>2011-01-23T10:38:21Z</time>
      </trkpt>
      <trkpt lat="49.19147" lon="6.96592">
        <ele>303</ele>
        <time>2011-01-23T10:38:22Z</time>
      </trkpt>
      <trkpt lat="49.19147" lon="6.9659">
        <ele>303</ele>
        <time>2011-01-23T10:38:23Z</time>
      </trkpt>
      <trkpt lat="49.19147" lon="6.96588">
        <ele>303</ele>
        <time>2011-01-23T10:38:24Z</time>
      </trkpt>
      <trkpt lat="49.19147" lon="6.96586">
        <ele>303</ele>
        <time>2011-01-23T10:38:25Z</time>
      </trkpt>
      <trkpt lat="49.19147" lon="6.96584">
        <ele>303</ele>
        <time>2011-01-23T10:38:26Z</time>
      </trkpt>
      <trkpt lat="49.19148" lon="6.96581">
        <ele>303</ele>
        <time>2011-01-23T10:38:28Z</time>
      </trkpt>
      <trkpt lat="49.19148" lon="6.96578">
        <ele>303</ele>
        <time>2011-01-23T10:38:30Z</time>
      </trkpt>
      <trkpt lat="49.19148" lon="6.96576">
        <ele>303</ele>
        <time>2011-01-23T10:38:31Z</time>
      </trkpt>
      <trkpt lat="49.19148" lon="6.96574">
        <ele>303</ele>
        <time>2011-01-23T10:38:32Z</time>
      </trkpt>
      <trkpt lat="49.19148" lon="6.96572">
        <ele>303</ele>
        <time>2011-01-23T10:38:33Z</time>
      </trkpt>
      <trkpt lat="49.19148" lon="6.9657">
        <ele>303</ele>
        <time>2011-01-23T10:38:34Z</time>
      </trkpt>
      <trkpt lat="49.19148" lon="6.96568">
        <ele>303</ele>
        <time>2011-01-23T10:38:35Z</time>
      </trkpt>
      <trkpt lat="49.19148" lon="6.96567">
        <ele>303</ele>
        <time>2011-01-23T10:38:36Z</time>
      </trkpt>
      <trkpt lat="49.19148" lon="6.96565">
        <ele>303</ele>
        <time>2011-01-23T10:38:37Z</time>
      </trkpt>
      <trkpt lat="49.19148" lon="6.96563">
        <ele>303</ele>
        <time>2011-01-23T10:38:38Z</time>
      </trkpt>
      <trkpt lat="49.19149" lon="6.9656">
        <ele>303</ele>
        <time>2011-01-23T10:38:40Z</time>
      </trkpt>
      <trkpt lat="49.19149" lon="6.96558">
        <ele>303</ele>
        <time>2011-01-23T10:38:41Z</time>
      </trkpt>
      <trkpt lat="49.19149" lon="6.96556">
        <ele>303</ele>
        <time>2011-01-23T10:38:42Z</time>
      </trkpt>
      <trkpt lat="49.19149" lon="6.96554">
        <ele>303</ele>
        <time>2011-01-23T10:38:43Z</time>
      </trkpt>
      <trkpt lat="49.1915" lon="6.96552">
        <ele>303</ele>
        <time>2011-01-23T10:38:44Z</time>
      </trkpt>
      <trkpt lat="49.1915" lon="6.96549">
        <ele>303</ele>
        <time>2011-01-23T10:38:45Z</time>
      </trkpt>
      <trkpt lat="49.1915" lon="6.96548">
        <ele>303</ele>
        <time>2011-01-23T10:38:46Z</time>
      </trkpt>
      <trkpt lat="49.1915" lon="6.96545">
        <ele>303</ele>
        <time>2011-01-23T10:38:47Z</time>
      </trkpt>
      <trkpt lat="49.1915" lon="6.96543">
        <ele>303</ele>
        <time>2011-01-23T10:38:48Z</time>
      </trkpt>
      <trkpt lat="49.1915" lon="6.9654">
        <ele>303</ele>
        <time>2011-01-23T10:38:49Z</time>
      </trkpt>
      <trkpt lat="49.1915" lon="6.96538">
        <ele>303</ele>
        <time>2011-01-23T10:38:50Z</time>
      </trkpt>
      <trkpt lat="49.1915" lon="6.96536">
        <ele>303</ele>
        <time>2011-01-23T10:38:51Z</time>
      </trkpt>
      <trkpt lat="49.1915" lon="6.96534">
        <ele>303</ele>
        <time>2011-01-23T10:38:52Z</time>
      </trkpt>
      <trkpt lat="49.1915" lon="6.96532">
        <ele>303</ele>
        <time>2011-01-23T10:38:53Z</time>
      </trkpt>
      <trkpt lat="49.19151" lon="6.9653">
        <ele>303</ele>
        <time>2011-01-23T10:38:54Z</time>
      </trkpt>
      <trkpt lat="49.19152" lon="6.96527">
        <ele>303</ele>
        <time>2011-01-23T10:38:56Z</time>
      </trkpt>
      <trkpt lat="49.19152" lon="6.96525">
        <ele>303</ele>
        <time>2011-01-23T10:38:57Z</time>
      </trkpt>
      <trkpt lat="49.19152" lon="6.96524">
        <ele>303</ele>
        <time>2011-01-23T10:38:58Z</time>
      </trkpt>
      <trkpt lat="49.19152" lon="6.96521">
        <ele>303</ele>
        <time>2011-01-23T10:38:59Z</time>
      </trkpt>
      <trkpt lat="49.19152" lon="6.96519">
        <ele>303</ele>
        <time>2011-01-23T10:39:00Z</time>
      </trkpt>
      <trkpt lat="49.19152" lon="6.96517">
        <ele>303</ele>
        <time>2011-01-23T10:39:01Z</time>
      </trkpt>
      <trkpt lat="49.19153" lon="6.96515">
        <ele>304</ele>
        <time>2011-01-23T10:39:02Z</time>
      </trkpt>
      <trkpt lat="49.19153" lon="6.96513">
        <ele>304</ele>
        <time>2011-01-23T10:39:03Z</time>
      </trkpt>
      <trkpt lat="49.19153" lon="6.96512">
        <ele>304</ele>
        <time>2011-01-23T10:39:04Z</time>
      </trkpt>
      <trkpt lat="49.19153" lon="6.9651">
        <ele>304</ele>
        <time>2011-01-23T10:39:05Z</time>
      </trkpt>
      <trkpt lat="49.19153" lon="6.96508">
        <ele>304</ele>
        <time>2011-01-23T10:39:06Z</time>
      </trkpt>
      <trkpt lat="49.19153" lon="6.96506">
        <ele>304</ele>
        <time>2011-01-23T10:39:07Z</time>
      </trkpt>
      <trkpt lat="49.19153" lon="6.96504">
        <ele>304</ele>
        <time>2011-01-23T10:39:08Z</time>
      </trkpt>
      <trkpt lat="49.19153" lon="6.96502">
        <ele>304</ele>
        <time>2011-01-23T10:39:09Z</time>
      </trkpt>
      <trkpt lat="49.19153" lon="6.965">
        <ele>304</ele>
        <time>2011-01-23T10:39:10Z</time>
      </trkpt>
      <trkpt lat="49.19154" lon="6.96498">
        <ele>304</ele>
        <time>2011-01-23T10:39:11Z</time>
      </trkpt>
      <trkpt lat="49.19154" lon="6.96496">
        <ele>304</ele>
        <time>2011-01-23T10:39:12Z</time>
      </trkpt>
      <trkpt lat="49.19154" lon="6.96494">
        <ele>304</ele>
        <time>2011-01-23T10:39:13Z</time>
      </trkpt>
      <trkpt lat="49.19154" lon="6.96492">
        <ele>304</ele>
        <time>2011-01-23T10:39:14Z</time>
      </trkpt>
      <trkpt lat="49.19154" lon="6.9649">
        <ele>304</ele>
        <time>2011-01-23T10:39:15Z</time>
      </trkpt>
      <trkpt lat="49.19154" lon="6.96487">
        <ele>304</ele>
        <time>2011-01-23T10:39:17Z</time>
      </trkpt>
      <trkpt lat="49.19154" lon="6.96485">
        <ele>305</ele>
        <time>2011-01-23T10:39:18Z</time>
      </trkpt>
      <trkpt lat="49.19154" lon="6.96483">
        <ele>305</ele>
        <time>2011-01-23T10:39:19Z</time>
      </trkpt>
      <trkpt lat="49.19154" lon="6.96481">
        <ele>305</ele>
        <time>2011-01-23T10:39:20Z</time>
      </trkpt>
      <trkpt lat="49.19154" lon="6.9648">
        <ele>305</ele>
        <time>2011-01-23T10:39:21Z</time>
      </trkpt>
      <trkpt lat="49.19154" lon="6.96478">
        <ele>305</ele>
        <time>2011-01-23T10:39:22Z</time>
      </trkpt>
      <trkpt lat="49.19154" lon="6.96475">
        <ele>305</ele>
        <time>2011-01-23T10:39:23Z</time>
      </trkpt>
      <trkpt lat="49.19154" lon="6.96473">
        <ele>305</ele>
        <time>2011-01-23T10:39:24Z</time>
      </trkpt>
      <trkpt lat="49.19154" lon="6.96472">
        <ele>306</ele>
        <time>2011-01-23T10:39:25Z</time>
      </trkpt>
      <trkpt lat="49.19154" lon="6.96469">
        <ele>306</ele>
        <time>2011-01-23T10:39:26Z</time>
      </trkpt>
      <trkpt lat="49.19154" lon="6.96467">
        <ele>306</ele>
        <time>2011-01-23T10:39:27Z</time>
      </trkpt>
      <trkpt lat="49.19154" lon="6.96466">
        <ele>306</ele>
        <time>2011-01-23T10:39:28Z</time>
      </trkpt>
      <trkpt lat="49.19155" lon="6.96462">
        <ele>306</ele>
        <time>2011-01-23T10:39:30Z</time>
      </trkpt>
      <trkpt lat="49.19155" lon="6.9646">
        <ele>307</ele>
        <time>2011-01-23T10:39:31Z</time>
      </trkpt>
      <trkpt lat="49.19155" lon="6.96458">
        <ele>307</ele>
        <time>2011-01-23T10:39:32Z</time>
      </trkpt>
      <trkpt lat="49.19156" lon="6.96456">
        <ele>307</ele>
        <time>2011-01-23T10:39:33Z</time>
      </trkpt>
      <trkpt lat="49.19156" lon="6.96455">
        <ele>307</ele>
        <time>2011-01-23T10:39:34Z</time>
      </trkpt>
      <trkpt lat="49.19156" lon="6.96453">
        <ele>307</ele>
        <time>2011-01-23T10:39:35Z</time>
      </trkpt>
      <trkpt lat="49.19155" lon="6.9645">
        <ele>307</ele>
        <time>2011-01-23T10:39:36Z</time>
      </trkpt>
      <trkpt lat="49.19155" lon="6.96448">
        <ele>307</ele>
        <time>2011-01-23T10:39:37Z</time>
      </trkpt>
      <trkpt lat="49.19155" lon="6.96446">
        <ele>307</ele>
        <time>2011-01-23T10:39:38Z</time>
      </trkpt>
      <trkpt lat="49.19154" lon="6.96443">
        <ele>307</ele>
        <time>2011-01-23T10:39:39Z</time>
      </trkpt>
      <trkpt lat="49.19154" lon="6.96441">
        <ele>307</ele>
        <time>2011-01-23T10:39:40Z</time>
      </trkpt>
      <trkpt lat="49.19154" lon="6.96439">
        <ele>307</ele>
        <time>2011-01-23T10:39:41Z</time>
      </trkpt>
      <trkpt lat="49.19154" lon="6.96436">
        <ele>307</ele>
        <time>2011-01-23T10:39:42Z</time>
      </trkpt>
      <trkpt lat="49.19154" lon="6.96433">
        <ele>307</ele>
        <time>2011-01-23T10:39:44Z</time>
      </trkpt>
      <trkpt lat="49.19154" lon="6.96431">
        <ele>307</ele>
        <time>2011-01-23T10:39:45Z</time>
      </trkpt>
      <trkpt lat="49.19154" lon="6.9643">
        <ele>307</ele>
        <time>2011-01-23T10:39:46Z</time>
      </trkpt>
      <trkpt lat="49.19154" lon="6.96428">
        <ele>307</ele>
        <time>2011-01-23T10:39:47Z</time>
      </trkpt>
      <trkpt lat="49.19155" lon="6.96426">
        <ele>307</ele>
        <time>2011-01-23T10:39:48Z</time>
      </trkpt>
      <trkpt lat="49.19155" lon="6.96424">
        <ele>307</ele>
        <time>2011-01-23T10:39:49Z</time>
      </trkpt>
      <trkpt lat="49.19155" lon="6.96422">
        <ele>307</ele>
        <time>2011-01-23T10:39:50Z</time>
      </trkpt>
      <trkpt lat="49.19155" lon="6.9642">
        <ele>307</ele>
        <time>2011-01-23T10:39:51Z</time>
      </trkpt>
      <trkpt lat="49.19155" lon="6.96419">
        <ele>307</ele>
        <time>2011-01-23T10:39:52Z</time>
      </trkpt>
      <trkpt lat="49.19156" lon="6.96417">
        <ele>307</ele>
        <time>2011-01-23T10:39:53Z</time>
      </trkpt>
      <trkpt lat="49.19156" lon="6.96415">
        <ele>307</ele>
        <time>2011-01-23T10:39:54Z</time>
      </trkpt>
      <trkpt lat="49.19156" lon="6.96413">
        <ele>307</ele>
        <time>2011-01-23T10:39:55Z</time>
      </trkpt>
      <trkpt lat="49.19156" lon="6.96411">
        <ele>307</ele>
        <time>2011-01-23T10:39:56Z</time>
      </trkpt>
      <trkpt lat="49.19156" lon="6.9641">
        <ele>307</ele>
        <time>2011-01-23T10:39:57Z</time>
      </trkpt>
      <trkpt lat="49.19156" lon="6.96408">
        <ele>307</ele>
        <time>2011-01-23T10:39:58Z</time>
      </trkpt>
      <trkpt lat="49.19156" lon="6.96406">
        <ele>307</ele>
        <time>2011-01-23T10:39:59Z</time>
      </trkpt>
      <trkpt lat="49.19157" lon="6.96404">
        <ele>307</ele>
        <time>2011-01-23T10:40:00Z</time>
      </trkpt>
      <trkpt lat="49.19157" lon="6.96402">
        <ele>307</ele>
        <time>2011-01-23T10:40:01Z</time>
      </trkpt>
      <trkpt lat="49.19157" lon="6.964">
        <ele>307</ele>
        <time>2011-01-23T10:40:02Z</time>
      </trkpt>
      <trkpt lat="49.19158" lon="6.96397">
        <ele>307</ele>
        <time>2011-01-23T10:40:04Z</time>
      </trkpt>
      <trkpt lat="49.19158" lon="6.96395">
        <ele>307</ele>
        <time>2011-01-23T10:40:05Z</time>
      </trkpt>
      <trkpt lat="49.19158" lon="6.96393">
        <ele>307</ele>
        <time>2011-01-23T10:40:06Z</time>
      </trkpt>
      <trkpt lat="49.19158" lon="6.9639">
        <ele>307</ele>
        <time>2011-01-23T10:40:07Z</time>
      </trkpt>
      <trkpt lat="49.19158" lon="6.96388">
        <ele>307</ele>
        <time>2011-01-23T10:40:08Z</time>
      </trkpt>
      <trkpt lat="49.19158" lon="6.96385">
        <ele>307</ele>
        <time>2011-01-23T10:40:09Z</time>
      </trkpt>
      <trkpt lat="49.19157" lon="6.96383">
        <ele>307</ele>
        <time>2011-01-23T10:40:10Z</time>
      </trkpt>
      <trkpt lat="49.19157" lon="6.9638">
        <ele>308</ele>
        <time>2011-01-23T10:40:11Z</time>
      </trkpt>
      <trkpt lat="49.19157" lon="6.96379">
        <ele>308</ele>
        <time>2011-01-23T10:40:12Z</time>
      </trkpt>
      <trkpt lat="49.19157" lon="6.96376">
        <ele>308</ele>
        <time>2011-01-23T10:40:13Z</time>
      </trkpt>
      <trkpt lat="49.19157" lon="6.96374">
        <ele>308</ele>
        <time>2011-01-23T10:40:14Z</time>
      </trkpt>
      <trkpt lat="49.19158" lon="6.9637">
        <ele>308</ele>
        <time>2011-01-23T10:40:16Z</time>
      </trkpt>
      <trkpt lat="49.19158" lon="6.96368">
        <ele>309</ele>
        <time>2011-01-23T10:40:17Z</time>
      </trkpt>
      <trkpt lat="49.19158" lon="6.96367">
        <ele>309</ele>
        <time>2011-01-23T10:40:18Z</time>
      </trkpt>
      <trkpt lat="49.19158" lon="6.96365">
        <ele>310</ele>
        <time>2011-01-23T10:40:19Z</time>
      </trkpt>
      <trkpt lat="49.19158" lon="6.96363">
        <ele>310</ele>
        <time>2011-01-23T10:40:20Z</time>
      </trkpt>
      <trkpt lat="49.19158" lon="6.96361">
        <ele>310</ele>
        <time>2011-01-23T10:40:21Z</time>
      </trkpt>
      <trkpt lat="49.19158" lon="6.9636">
        <ele>310</ele>
        <time>2011-01-23T10:40:22Z</time>
      </trkpt>
      <trkpt lat="49.19158" lon="6.96358">
        <ele>310</ele>
        <time>2011-01-23T10:40:23Z</time>
      </trkpt>
      <trkpt lat="49.19159" lon="6.96356">
        <ele>310</ele>
        <time>2011-01-23T10:40:24Z</time>
      </trkpt>
      <trkpt lat="49.19159" lon="6.96354">
        <ele>310</ele>
        <time>2011-01-23T10:40:25Z</time>
      </trkpt>
      <trkpt lat="49.19159" lon="6.96352">
        <ele>310</ele>
        <time>2011-01-23T10:40:26Z</time>
      </trkpt>
      <trkpt lat="49.19159" lon="6.9635">
        <ele>310</ele>
        <time>2011-01-23T10:40:27Z</time>
      </trkpt>
      <trkpt lat="49.19159" lon="6.96349">
        <ele>310</ele>
        <time>2011-01-23T10:40:28Z</time>
      </trkpt>
      <trkpt lat="49.19159" lon="6.96347">
        <ele>310</ele>
        <time>2011-01-23T10:40:29Z</time>
      </trkpt>
      <trkpt lat="49.19159" lon="6.96345">
        <ele>310</ele>
        <time>2011-01-23T10:40:30Z</time>
      </trkpt>
      <trkpt lat="49.19159" lon="6.96343">
        <ele>310</ele>
        <time>2011-01-23T10:40:31Z</time>
      </trkpt>
      <trkpt lat="49.1916" lon="6.96341">
        <ele>310</ele>
        <time>2011-01-23T10:40:32Z</time>
      </trkpt>
      <trkpt lat="49.19159" lon="6.96339">
        <ele>310</ele>
        <time>2011-01-23T10:40:33Z</time>
      </trkpt>
      <trkpt lat="49.19159" lon="6.96336">
        <ele>310</ele>
        <time>2011-01-23T10:40:34Z</time>
      </trkpt>
      <trkpt lat="49.1916" lon="6.96334">
        <ele>310</ele>
        <time>2011-01-23T10:40:35Z</time>
      </trkpt>
      <trkpt lat="49.1916" lon="6.96332">
        <ele>310</ele>
        <time>2011-01-23T10:40:36Z</time>
      </trkpt>
      <trkpt lat="49.1916" lon="6.96331">
        <ele>310</ele>
        <time>2011-01-23T10:40:37Z</time>
      </trkpt>
      <trkpt lat="49.19161" lon="6.96329">
        <ele>310</ele>
        <time>2011-01-23T10:40:38Z</time>
      </trkpt>
      <trkpt lat="49.19161" lon="6.96325">
        <ele>311</ele>
        <time>2011-01-23T10:40:40Z</time>
      </trkpt>
      <trkpt lat="49.19161" lon="6.96323">
        <ele>311</ele>
        <time>2011-01-23T10:40:41Z</time>
      </trkpt>
      <trkpt lat="49.19161" lon="6.96321">
        <ele>311</ele>
        <time>2011-01-23T10:40:42Z</time>
      </trkpt>
      <trkpt lat="49.19162" lon="6.96319">
        <ele>311</ele>
        <time>2011-01-23T10:40:43Z</time>
      </trkpt>
      <trkpt lat="49.19162" lon="6.96317">
        <ele>311</ele>
        <time>2011-01-23T10:40:44Z</time>
      </trkpt>
      <trkpt lat="49.19162" lon="6.96316">
        <ele>312</ele>
        <time>2011-01-23T10:40:45Z</time>
      </trkpt>
      <trkpt lat="49.19162" lon="6.96314">
        <ele>312</ele>
        <time>2011-01-23T10:40:46Z</time>
      </trkpt>
      <trkpt lat="49.19162" lon="6.96312">
        <ele>312</ele>
        <time>2011-01-23T10:40:47Z</time>
      </trkpt>
      <trkpt lat="49.19162" lon="6.96311">
        <ele>312</ele>
        <time>2011-01-23T10:40:48Z</time>
      </trkpt>
      <trkpt lat="49.19163" lon="6.96309">
        <ele>312</ele>
        <time>2011-01-23T10:40:49Z</time>
      </trkpt>
      <trkpt lat="49.19163" lon="6.96305">
        <ele>312</ele>
        <time>2011-01-23T10:40:51Z</time>
      </trkpt>
      <trkpt lat="49.19163" lon="6.96303">
        <ele>312</ele>
        <time>2011-01-23T10:40:52Z</time>
      </trkpt>
      <trkpt lat="49.19162" lon="6.96301">
        <ele>312</ele>
        <time>2011-01-23T10:40:53Z</time>
      </trkpt>
      <trkpt lat="49.19162" lon="6.96299">
        <ele>312</ele>
        <time>2011-01-23T10:40:54Z</time>
      </trkpt>
      <trkpt lat="49.19162" lon="6.96296">
        <ele>312</ele>
        <time>2011-01-23T10:40:55Z</time>
      </trkpt>
      <trkpt lat="49.19162" lon="6.96294">
        <ele>312</ele>
        <time>2011-01-23T10:40:56Z</time>
      </trkpt>
      <trkpt lat="49.19162" lon="6.96291">
        <ele>312</ele>
        <time>2011-01-23T10:40:58Z</time>
      </trkpt>
      <trkpt lat="49.19162" lon="6.96289">
        <ele>312</ele>
        <time>2011-01-23T10:40:59Z</time>
      </trkpt>
      <trkpt lat="49.19162" lon="6.96287">
        <ele>312</ele>
        <time>2011-01-23T10:41:00Z</time>
      </trkpt>
      <trkpt lat="49.19162" lon="6.96285">
        <ele>312</ele>
        <time>2011-01-23T10:41:01Z</time>
      </trkpt>
      <trkpt lat="49.19163" lon="6.96283">
        <ele>312</ele>
        <time>2011-01-23T10:41:02Z</time>
      </trkpt>
      <trkpt lat="49.19163" lon="6.96281">
        <ele>312</ele>
        <time>2011-01-23T10:41:03Z</time>
      </trkpt>
      <trkpt lat="49.19162" lon="6.96278">
        <ele>312</ele>
        <time>2011-01-23T10:41:04Z</time>
      </trkpt>
      <trkpt lat="49.19162" lon="6.96276">
        <ele>312</ele>
        <time>2011-01-23T10:41:05Z</time>
      </trkpt>
      <trkpt lat="49.19162" lon="6.96274">
        <ele>312</ele>
        <time>2011-01-23T10:41:06Z</time>
      </trkpt>
      <trkpt lat="49.19162" lon="6.96272">
        <ele>312</ele>
        <time>2011-01-23T10:41:07Z</time>
      </trkpt>
      <trkpt lat="49.19162" lon="6.96269">
        <ele>312</ele>
        <time>2011-01-23T10:41:08Z</time>
      </trkpt>
      <trkpt lat="49.19163" lon="6.96268">
        <ele>312</ele>
        <time>2011-01-23T10:41:09Z</time>
      </trkpt>
      <trkpt lat="49.19163" lon="6.96266">
        <ele>312</ele>
        <time>2011-01-23T10:41:10Z</time>
      </trkpt>
      <trkpt lat="49.19163" lon="6.96264">
        <ele>312</ele>
        <time>2011-01-23T10:41:11Z</time>
      </trkpt>
      <trkpt lat="49.19163" lon="6.96261">
        <ele>312</ele>
        <time>2011-01-23T10:41:12Z</time>
      </trkpt>
      <trkpt lat="49.19163" lon="6.96259">
        <ele>312</ele>
        <time>2011-01-23T10:41:13Z</time>
      </trkpt>
      <trkpt lat="49.19163" lon="6.96257">
        <ele>312</ele>
        <time>2011-01-23T10:41:14Z</time>
      </trkpt>
      <trkpt lat="49.19163" lon="6.96255">
        <ele>312</ele>
        <time>2011-01-23T10:41:15Z</time>
      </trkpt>
      <trkpt lat="49.19163" lon="6.96253">
        <ele>312</ele>
        <time>2011-01-23T10:41:16Z</time>
      </trkpt>
      <trkpt lat="49.19162" lon="6.96251">
        <ele>313</ele>
        <time>2011-01-23T10:41:17Z</time>
      </trkpt>
      <trkpt lat="49.19162" lon="6.96249">
        <ele>313</ele>
        <time>2011-01-23T10:41:18Z</time>
      </trkpt>
      <trkpt lat="49.19162" lon="6.96247">
        <ele>313</ele>
        <time>2011-01-23T10:41:19Z</time>
      </trkpt>
      <trkpt lat="49.19162" lon="6.96244">
        <ele>313</ele>
        <time>2011-01-23T10:41:20Z</time>
      </trkpt>
      <trkpt lat="49.19162" lon="6.96242">
        <ele>313</ele>
        <time>2011-01-23T10:41:21Z</time>
      </trkpt>
      <trkpt lat="49.19162" lon="6.96241">
        <ele>313</ele>
        <time>2011-01-23T10:41:22Z</time>
      </trkpt>
      <trkpt lat="49.19162" lon="6.96239">
        <ele>313</ele>
        <time>2011-01-23T10:41:23Z</time>
      </trkpt>
      <trkpt lat="49.19162" lon="6.96237">
        <ele>313</ele>
        <time>2011-01-23T10:41:24Z</time>
      </trkpt>
      <trkpt lat="49.19162" lon="6.96236">
        <ele>313</ele>
        <time>2011-01-23T10:41:25Z</time>
      </trkpt>
      <trkpt lat="49.19162" lon="6.96234">
        <ele>313</ele>
        <time>2011-01-23T10:41:26Z</time>
      </trkpt>
      <trkpt lat="49.19162" lon="6.96232">
        <ele>313</ele>
        <time>2011-01-23T10:41:27Z</time>
      </trkpt>
      <trkpt lat="49.19163" lon="6.96228">
        <ele>313</ele>
        <time>2011-01-23T10:41:29Z</time>
      </trkpt>
      <trkpt lat="49.19163" lon="6.96226">
        <ele>313</ele>
        <time>2011-01-23T10:41:30Z</time>
      </trkpt>
      <trkpt lat="49.19163" lon="6.96224">
        <ele>313</ele>
        <time>2011-01-23T10:41:31Z</time>
      </trkpt>
      <trkpt lat="49.19164" lon="6.96223">
        <ele>313</ele>
        <time>2011-01-23T10:41:32Z</time>
      </trkpt>
      <trkpt lat="49.19164" lon="6.96221">
        <ele>313</ele>
        <time>2011-01-23T10:41:33Z</time>
      </trkpt>
      <trkpt lat="49.19164" lon="6.96219">
        <ele>313</ele>
        <time>2011-01-23T10:41:34Z</time>
      </trkpt>
      <trkpt lat="49.19165" lon="6.96218">
        <ele>313</ele>
        <time>2011-01-23T10:41:35Z</time>
      </trkpt>
      <trkpt lat="49.19165" lon="6.96216">
        <ele>313</ele>
        <time>2011-01-23T10:41:36Z</time>
      </trkpt>
      <trkpt lat="49.19165" lon="6.96214">
        <ele>313</ele>
        <time>2011-01-23T10:41:37Z</time>
      </trkpt>
      <trkpt lat="49.19165" lon="6.96212">
        <ele>313</ele>
        <time>2011-01-23T10:41:38Z</time>
      </trkpt>
      <trkpt lat="49.19165" lon="6.96209">
        <ele>313</ele>
        <time>2011-01-23T10:41:39Z</time>
      </trkpt>
      <trkpt lat="49.19165" lon="6.96208">
        <ele>313</ele>
        <time>2011-01-23T10:41:40Z</time>
      </trkpt>
      <trkpt lat="49.19165" lon="6.96206">
        <ele>313</ele>
        <time>2011-01-23T10:41:41Z</time>
      </trkpt>
      <trkpt lat="49.19165" lon="6.96204">
        <ele>313</ele>
        <time>2011-01-23T10:41:42Z</time>
      </trkpt>
      <trkpt lat="49.19166" lon="6.96202">
        <ele>313</ele>
        <time>2011-01-23T10:41:43Z</time>
      </trkpt>
      <trkpt lat="49.19166" lon="6.96199">
        <ele>313</ele>
        <time>2011-01-23T10:41:44Z</time>
      </trkpt>
      <trkpt lat="49.19166" lon="6.96197">
        <ele>313</ele>
        <time>2011-01-23T10:41:45Z</time>
      </trkpt>
      <trkpt lat="49.19166" lon="6.96195">
        <ele>313</ele>
        <time>2011-01-23T10:41:46Z</time>
      </trkpt>
      <trkpt lat="49.19166" lon="6.96193">
        <ele>313</ele>
        <time>2011-01-23T10:41:47Z</time>
      </trkpt>
      <trkpt lat="49.19167" lon="6.9619">
        <ele>313</ele>
        <time>2011-01-23T10:41:49Z</time>
      </trkpt>
      <trkpt lat="49.19168" lon="6.96188">
        <ele>313</ele>
        <time>2011-01-23T10:41:50Z</time>
      </trkpt>
      <trkpt lat="49.19168" lon="6.96186">
        <ele>313</ele>
        <time>2011-01-23T10:41:51Z</time>
      </trkpt>
      <trkpt lat="49.19168" lon="6.96184">
        <ele>313</ele>
        <time>2011-01-23T10:41:52Z</time>
      </trkpt>
      <trkpt lat="49.19168" lon="6.96182">
        <ele>313</ele>
        <time>2011-01-23T10:41:53Z</time>
      </trkpt>
      <trkpt lat="49.19169" lon="6.9618">
        <ele>313</ele>
        <time>2011-01-23T10:41:54Z</time>
      </trkpt>
      <trkpt lat="49.19169" lon="6.96178">
        <ele>313</ele>
        <time>2011-01-23T10:41:55Z</time>
      </trkpt>
      <trkpt lat="49.19169" lon="6.96176">
        <ele>313</ele>
        <time>2011-01-23T10:41:56Z</time>
      </trkpt>
      <trkpt lat="49.19169" lon="6.96173">
        <ele>314</ele>
        <time>2011-01-23T10:41:58Z</time>
      </trkpt>
      <trkpt lat="49.19169" lon="6.9617">
        <ele>314</ele>
        <time>2011-01-23T10:41:59Z</time>
      </trkpt>
      <trkpt lat="49.19169" lon="6.96168">
        <ele>314</ele>
        <time>2011-01-23T10:42:00Z</time>
      </trkpt>
      <trkpt lat="49.19169" lon="6.96166">
        <ele>314</ele>
        <time>2011-01-23T10:42:01Z</time>
      </trkpt>
      <trkpt lat="49.1917" lon="6.96163">
        <ele>316</ele>
        <time>2011-01-23T10:42:03Z</time>
      </trkpt>
      <trkpt lat="49.1917" lon="6.9616">
        <ele>317</ele>
        <time>2011-01-23T10:42:05Z</time>
      </trkpt>
      <trkpt lat="49.1917" lon="6.96159">
        <ele>317</ele>
        <time>2011-01-23T10:42:06Z</time>
      </trkpt>
      <trkpt lat="49.1917" lon="6.96157">
        <ele>317</ele>
        <time>2011-01-23T10:42:07Z</time>
      </trkpt>
      <trkpt lat="49.1917" lon="6.96155">
        <ele>317</ele>
        <time>2011-01-23T10:42:08Z</time>
      </trkpt>
      <trkpt lat="49.19171" lon="6.96153">
        <ele>317</ele>
        <time>2011-01-23T10:42:09Z</time>
      </trkpt>
      <trkpt lat="49.19171" lon="6.96151">
        <ele>317</ele>
        <time>2011-01-23T10:42:10Z</time>
      </trkpt>
      <trkpt lat="49.1917" lon="6.96149">
        <ele>317</ele>
        <time>2011-01-23T10:42:11Z</time>
      </trkpt>
      <trkpt lat="49.1917" lon="6.96147">
        <ele>317</ele>
        <time>2011-01-23T10:42:12Z</time>
      </trkpt>
      <trkpt lat="49.19168" lon="6.96145">
        <ele>317</ele>
        <time>2011-01-23T10:42:16Z</time>
      </trkpt>
      <trkpt lat="49.19166" lon="6.96143">
        <ele>317</ele>
        <time>2011-01-23T10:42:18Z</time>
      </trkpt>
      <trkpt lat="49.19165" lon="6.96142">
        <ele>317</ele>
        <time>2011-01-23T10:42:20Z</time>
      </trkpt>
      <trkpt lat="49.19163" lon="6.9614">
        <ele>317</ele>
        <time>2011-01-23T10:42:22Z</time>
      </trkpt>
      <trkpt lat="49.19162" lon="6.96138">
        <ele>317</ele>
        <time>2011-01-23T10:42:24Z</time>
      </trkpt>
      <trkpt lat="49.1916" lon="6.96136">
        <ele>317</ele>
        <time>2011-01-23T10:42:26Z</time>
      </trkpt>
      <trkpt lat="49.19159" lon="6.96135">
        <ele>317</ele>
        <time>2011-01-23T10:42:28Z</time>
      </trkpt>
      <trkpt lat="49.19158" lon="6.96134">
        <ele>318</ele>
        <time>2011-01-23T10:42:31Z</time>
      </trkpt>
      <trkpt lat="49.19164" lon="6.96133">
        <ele>323</ele>
        <time>2011-01-23T10:42:54Z</time>
      </trkpt>
      <trkpt lat="49.19191" lon="6.9613">
        <ele>334</ele>
        <time>2011-01-23T10:43:41Z</time>
      </trkpt>
      <trkpt lat="49.19189" lon="6.96129">
        <ele>335</ele>
        <time>2011-01-23T10:43:42Z</time>
      </trkpt>
      <trkpt lat="49.19188" lon="6.9613">
        <ele>336</ele>
        <time>2011-01-23T10:43:43Z</time>
      </trkpt>
      <trkpt lat="49.19184" lon="6.96127">
        <ele>336</ele>
        <time>2011-01-23T10:43:44Z</time>
      </trkpt>
      <trkpt lat="49.19181" lon="6.96126">
        <ele>336</ele>
        <time>2011-01-23T10:43:45Z</time>
      </trkpt>
      <trkpt lat="49.1918" lon="6.96118">
        <ele>327</ele>
        <time>2011-01-23T10:43:50Z</time>
      </trkpt>
      <trkpt lat="49.19178" lon="6.96116">
        <ele>325</ele>
        <time>2011-01-23T10:43:51Z</time>
      </trkpt>
      <trkpt lat="49.19176" lon="6.96115">
        <ele>323</ele>
        <time>2011-01-23T10:43:52Z</time>
      </trkpt>
      <trkpt lat="49.19174" lon="6.96115">
        <ele>321</ele>
        <time>2011-01-23T10:43:53Z</time>
      </trkpt>
      <trkpt lat="49.19172" lon="6.96115">
        <ele>319</ele>
        <time>2011-01-23T10:43:55Z</time>
      </trkpt>
      <trkpt lat="49.1917" lon="6.96116">
        <ele>318</ele>
        <time>2011-01-23T10:43:56Z</time>
      </trkpt>
      <trkpt lat="49.19167" lon="6.96118">
        <ele>317</ele>
        <time>2011-01-23T10:43:58Z</time>
      </trkpt>
      <trkpt lat="49.19163" lon="6.96121">
        <ele>316</ele>
        <time>2011-01-23T10:43:59Z</time>
      </trkpt>
      <trkpt lat="49.1916" lon="6.96123">
        <ele>315</ele>
        <time>2011-01-23T10:44:00Z</time>
      </trkpt>
      <trkpt lat="49.19158" lon="6.96125">
        <ele>315</ele>
        <time>2011-01-23T10:44:01Z</time>
      </trkpt>
      <trkpt lat="49.19154" lon="6.96124">
        <ele>314</ele>
        <time>2011-01-23T10:44:02Z</time>
      </trkpt>
      <trkpt lat="49.19153" lon="6.96126">
        <ele>313</ele>
        <time>2011-01-23T10:44:03Z</time>
      </trkpt>
      <trkpt lat="49.19152" lon="6.96128">
        <ele>312</ele>
        <time>2011-01-23T10:44:04Z</time>
      </trkpt>
      <trkpt lat="49.19151" lon="6.96131">
        <ele>311</ele>
        <time>2011-01-23T10:44:06Z</time>
      </trkpt>
      <trkpt lat="49.1915" lon="6.96133">
        <ele>311</ele>
        <time>2011-01-23T10:44:07Z</time>
      </trkpt>
      <trkpt lat="49.1915" lon="6.96136">
        <ele>311</ele>
        <time>2011-01-23T10:44:08Z</time>
      </trkpt>
      <trkpt lat="49.19152" lon="6.96138">
        <ele>311</ele>
        <time>2011-01-23T10:44:09Z</time>
      </trkpt>
      <trkpt lat="49.19151" lon="6.96139">
        <ele>311</ele>
        <time>2011-01-23T10:44:10Z</time>
      </trkpt>
      <trkpt lat="49.19148" lon="6.96143">
        <ele>311</ele>
        <time>2011-01-23T10:44:12Z</time>
      </trkpt>
      <trkpt lat="49.19147" lon="6.96145">
        <ele>311</ele>
        <time>2011-01-23T10:44:14Z</time>
      </trkpt>
      <trkpt lat="49.19147" lon="6.96142">
        <ele>311</ele>
        <time>2011-01-23T10:44:17Z</time>
      </trkpt>
      <trkpt lat="49.19149" lon="6.96139">
        <ele>311</ele>
        <time>2011-01-23T10:44:18Z</time>
      </trkpt>
      <trkpt lat="49.1915" lon="6.96137">
        <ele>311</ele>
        <time>2011-01-23T10:44:19Z</time>
      </trkpt>
      <trkpt lat="49.19149" lon="6.96138">
        <ele>310</ele>
        <time>2011-01-23T10:44:24Z</time>
      </trkpt>
      <trkpt lat="49.19148" lon="6.96135">
        <ele>311</ele>
        <time>2011-01-23T10:44:26Z</time>
      </trkpt>
      <trkpt lat="49.1915" lon="6.96136">
        <ele>312</ele>
        <time>2011-01-23T10:44:29Z</time>
      </trkpt>
      <trkpt lat="49.19152" lon="6.96138">
        <ele>312</ele>
        <time>2011-01-23T10:44:34Z</time>
      </trkpt>
      <trkpt lat="49.19154" lon="6.96139">
        <ele>312</ele>
        <time>2011-01-23T10:44:35Z</time>
      </trkpt>
      <trkpt lat="49.19153" lon="6.96143">
        <ele>313</ele>
        <time>2011-01-23T10:44:36Z</time>
      </trkpt>
      <trkpt lat="49.19155" lon="6.9615">
        <ele>315</ele>
        <time>2011-01-23T10:44:39Z</time>
      </trkpt>
      <trkpt lat="49.19155" lon="6.96152">
        <ele>316</ele>
        <time>2011-01-23T10:44:40Z</time>
      </trkpt>
      <trkpt lat="49.19156" lon="6.96155">
        <ele>318</ele>
        <time>2011-01-23T10:44:41Z</time>
      </trkpt>
      <trkpt lat="49.19158" lon="6.96155">
        <ele>323</ele>
        <time>2011-01-23T10:44:43Z</time>
      </trkpt>
      <trkpt lat="49.19155" lon="6.96151">
        <ele>329</ele>
        <time>2011-01-23T10:44:45Z</time>
      </trkpt>
      <trkpt lat="49.19153" lon="6.96149">
        <ele>331</ele>
        <time>2011-01-23T10:44:46Z</time>
      </trkpt>
      <trkpt lat="49.19152" lon="6.96146">
        <ele>333</ele>
        <time>2011-01-23T10:44:47Z</time>
      </trkpt>
      <trkpt lat="49.19151" lon="6.96143">
        <ele>337</ele>
        <time>2011-01-23T10:44:49Z</time>
      </trkpt>
      <trkpt lat="49.19151" lon="6.96141">
        <ele>339</ele>
        <time>2011-01-23T10:44:51Z</time>
      </trkpt>
      <trkpt lat="49.19151" lon="6.96139">
        <ele>340</ele>
        <time>2011-01-23T10:44:55Z</time>
      </trkpt>
      <trkpt lat="49.19151" lon="6.96137">
        <ele>340</ele>
        <time>2011-01-23T10:45:02Z</time>
      </trkpt>
      <trkpt lat="49.19151" lon="6.96135">
        <ele>338</ele>
        <time>2011-01-23T10:45:04Z</time>
      </trkpt>
      <trkpt lat="49.19151" lon="6.96133">
        <ele>336</ele>
        <time>2011-01-23T10:45:06Z</time>
      </trkpt>
      <trkpt lat="49.19152" lon="6.96131">
        <ele>334</ele>
        <time>2011-01-23T10:45:13Z</time>
      </trkpt>
      <trkpt lat="49.19152" lon="6.96133">
        <ele>331</ele>
        <time>2011-01-23T10:45:17Z</time>
      </trkpt>
      <trkpt lat="49.19151" lon="6.96133">
        <ele>330</ele>
        <time>2011-01-23T10:45:19Z</time>
      </trkpt>
      <trkpt lat="49.1915" lon="6.96135">
        <ele>329</ele>
        <time>2011-01-23T10:45:26Z</time>
      </trkpt>
      <trkpt lat="49.19148" lon="6.96135">
        <ele>326</ele>
        <time>2011-01-23T10:45:31Z</time>
      </trkpt>
      <trkpt lat="49.19147" lon="6.96135">
        <ele>325</ele>
        <time>2011-01-23T10:45:34Z</time>
      </trkpt>
      <trkpt lat="49.19146" lon="6.96135">
        <ele>325</ele>
        <time>2011-01-23T10:45:42Z</time>
      </trkpt>
      <trkpt lat="49.19146" lon="6.96137">
        <ele>325</ele>
        <time>2011-01-23T10:45:51Z</time>
      </trkpt>
      <trkpt lat="49.19145" lon="6.96136">
        <ele>325</ele>
        <time>2011-01-23T10:45:58Z</time>
      </trkpt>
      <trkpt lat="49.19145" lon="6.96134">
        <ele>325</ele>
        <time>2011-01-23T10:46:18Z</time>
      </trkpt>
      <trkpt lat="49.19146" lon="6.96136">
        <ele>323</ele>
        <time>2011-01-23T10:46:25Z</time>
      </trkpt>
      <trkpt lat="49.19144" lon="6.96138">
        <ele>322</ele>
        <time>2011-01-23T10:46:37Z</time>
      </trkpt>
      <trkpt lat="49.19146" lon="6.96136">
        <ele>322</ele>
        <time>2011-01-23T10:46:41Z</time>
      </trkpt>
      <trkpt lat="49.19148" lon="6.96139">
        <ele>322</ele>
        <time>2011-01-23T10:46:44Z</time>
      </trkpt>
      <trkpt lat="49.19147" lon="6.96137">
        <ele>324</ele>
        <time>2011-01-23T10:47:04Z</time>
      </trkpt>
      <trkpt lat="49.19149" lon="6.96137">
        <ele>321</ele>
        <time>2011-01-23T10:47:12Z</time>
      </trkpt>
      <trkpt lat="49.1915" lon="6.96136">
        <ele>321</ele>
        <time>2011-01-23T10:47:13Z</time>
      </trkpt>
      <trkpt lat="49.19149" lon="6.96132">
        <ele>321</ele>
        <time>2011-01-23T10:47:25Z</time>
      </trkpt>
      <trkpt lat="49.19148" lon="6.96134">
        <ele>323</ele>
        <time>2011-01-23T10:47:31Z</time>
      </trkpt>
      <trkpt lat="49.19162" lon="6.96324">
        <ele>321</ele>
        <time>2011-01-23T10:47:36Z</time>
      </trkpt>
      <trkpt lat="49.19162" lon="6.96326">
        <ele>321</ele>
        <time>2011-01-23T10:47:37Z</time>
      </trkpt>
      <trkpt lat="49.19162" lon="6.96328">
        <ele>321</ele>
        <time>2011-01-23T10:47:38Z</time>
      </trkpt>
      <trkpt lat="49.1916" lon="6.96331">
        <ele>320</ele>
        <time>2011-01-23T10:47:39Z</time>
      </trkpt>
      <trkpt lat="49.1916" lon="6.96334">
        <ele>319</ele>
        <time>2011-01-23T10:47:40Z</time>
      </trkpt>
      <trkpt lat="49.19161" lon="6.96336">
        <ele>319</ele>
        <time>2011-01-23T10:47:41Z</time>
      </trkpt>
      <trkpt lat="49.1916" lon="6.96338">
        <ele>319</ele>
        <time>2011-01-23T10:47:42Z</time>
      </trkpt>
      <trkpt lat="49.1916" lon="6.96341">
        <ele>319</ele>
        <time>2011-01-23T10:47:43Z</time>
      </trkpt>
      <trkpt lat="49.19158" lon="6.96344">
        <ele>319</ele>
        <time>2011-01-23T10:47:45Z</time>
      </trkpt>
      <trkpt lat="49.19158" lon="6.96345">
        <ele>318</ele>
        <time>2011-01-23T10:47:46Z</time>
      </trkpt>
      <trkpt lat="49.19158" lon="6.96348">
        <ele>318</ele>
        <time>2011-01-23T10:47:47Z</time>
      </trkpt>
      <trkpt lat="49.19158" lon="6.9635">
        <ele>318</ele>
        <time>2011-01-23T10:47:48Z</time>
      </trkpt>
      <trkpt lat="49.19158" lon="6.96352">
        <ele>317</ele>
        <time>2011-01-23T10:47:49Z</time>
      </trkpt>
      <trkpt lat="49.19159" lon="6.96354">
        <ele>317</ele>
        <time>2011-01-23T10:47:50Z</time>
      </trkpt>
      <trkpt lat="49.19158" lon="6.96356">
        <ele>317</ele>
        <time>2011-01-23T10:47:51Z</time>
      </trkpt>
      <trkpt lat="49.19158" lon="6.96358">
        <ele>317</ele>
        <time>2011-01-23T10:47:52Z</time>
      </trkpt>
      <trkpt lat="49.19158" lon="6.9636">
        <ele>317</ele>
        <time>2011-01-23T10:47:53Z</time>
      </trkpt>
      <trkpt lat="49.19158" lon="6.96363">
        <ele>317</ele>
        <time>2011-01-23T10:47:54Z</time>
      </trkpt>
      <trkpt lat="49.19159" lon="6.96366">
        <ele>317</ele>
        <time>2011-01-23T10:47:55Z</time>
      </trkpt>
      <trkpt lat="49.19159" lon="6.96368">
        <ele>317</ele>
        <time>2011-01-23T10:47:56Z</time>
      </trkpt>
      <trkpt lat="49.19159" lon="6.9637">
        <ele>317</ele>
        <time>2011-01-23T10:47:57Z</time>
      </trkpt>
      <trkpt lat="49.1916" lon="6.96374">
        <ele>317</ele>
        <time>2011-01-23T10:47:59Z</time>
      </trkpt>
      <trkpt lat="49.19162" lon="6.96377">
        <ele>317</ele>
        <time>2011-01-23T10:48:00Z</time>
      </trkpt>
      <trkpt lat="49.19162" lon="6.9638">
        <ele>317</ele>
        <time>2011-01-23T10:48:01Z</time>
      </trkpt>
      <trkpt lat="49.19162" lon="6.96383">
        <ele>317</ele>
        <time>2011-01-23T10:48:02Z</time>
      </trkpt>
      <trkpt lat="49.19162" lon="6.96385">
        <ele>317</ele>
        <time>2011-01-23T10:48:03Z</time>
      </trkpt>
      <trkpt lat="49.19162" lon="6.96388">
        <ele>318</ele>
        <time>2011-01-23T10:48:04Z</time>
      </trkpt>
      <trkpt lat="49.19162" lon="6.9639">
        <ele>319</ele>
        <time>2011-01-23T10:48:06Z</time>
      </trkpt>
      <trkpt lat="49.19161" lon="6.96393">
        <ele>319</ele>
        <time>2011-01-23T10:48:07Z</time>
      </trkpt>
      <trkpt lat="49.19161" lon="6.96397">
        <ele>319</ele>
        <time>2011-01-23T10:48:08Z</time>
      </trkpt>
      <trkpt lat="49.1916" lon="6.964">
        <ele>319</ele>
        <time>2011-01-23T10:48:09Z</time>
      </trkpt>
      <trkpt lat="49.19159" lon="6.96403">
        <ele>319</ele>
        <time>2011-01-23T10:48:10Z</time>
      </trkpt>
      <trkpt lat="49.1916" lon="6.96407">
        <ele>320</ele>
        <time>2011-01-23T10:48:11Z</time>
      </trkpt>
      <trkpt lat="49.19161" lon="6.96409">
        <ele>321</ele>
        <time>2011-01-23T10:48:12Z</time>
      </trkpt>
      <trkpt lat="49.19162" lon="6.96411">
        <ele>323</ele>
        <time>2011-01-23T10:48:14Z</time>
      </trkpt>
      <trkpt lat="49.19162" lon="6.96413">
        <ele>324</ele>
        <time>2011-01-23T10:48:15Z</time>
      </trkpt>
      <trkpt lat="49.19163" lon="6.96416">
        <ele>326</ele>
        <time>2011-01-23T10:48:17Z</time>
      </trkpt>
      <trkpt lat="49.19163" lon="6.96416">
        <ele>326</ele>
        <time>2011-01-23T10:48:17Z</time>
      </trkpt>
    </trkseg>
  </trk>
</gpx>